<?xml version="1.0" encoding="UTF-8" standalone="no" ?>
<gpx xmlns="http://www.topografix.com/GPX/1/1" xmlns:xsi="http://www.w3.org/2001/XMLSchema-instance" xsi:schemaLocation="http://www.topografix.com/GPX/1/1 http://www.topografix.com/GPX/1/1/gpx.xsd" version="1.1" creator="VisuGPX - https://www.visugpx.com">
  <metadata>
    <name>Pouilly-sous-Charlieu-Le-Puy-en-Vélay</name>
    <desc><![CDATA[Chemin de Compostelle 2016 : Pouilly-sous-Charlieu-Le-Puy-en-Vélay]]></desc>
  </metadata>
  <trk>
    <name><![CDATA[Pouilly-sous-Charlieu-Le-Puy-en-Vélay_1]]></name>
    <trkseg>
      <trkpt lat="46.1429" lon="4.10841">
        <ele>261</ele>
        <time>2016-04-19T09:17:01Z</time>
      </trkpt>
      <trkpt lat="46.14331" lon="4.10835">
        <ele>264</ele>
        <time>2016-04-19T09:17:06Z</time>
      </trkpt>
      <trkpt lat="46.14372" lon="4.10836">
        <ele>277</ele>
        <time>2016-04-19T09:17:16Z</time>
      </trkpt>
      <trkpt lat="46.14404" lon="4.10825">
        <ele>270</ele>
        <time>2016-04-19T09:17:36Z</time>
      </trkpt>
      <trkpt lat="46.14419" lon="4.10833">
        <ele>269</ele>
        <time>2016-04-19T09:17:49Z</time>
      </trkpt>
      <trkpt lat="46.14439" lon="4.10829">
        <ele>266</ele>
        <time>2016-04-19T09:18:06Z</time>
      </trkpt>
      <trkpt lat="46.14444" lon="4.10831">
        <ele>266</ele>
        <time>2016-04-19T09:18:10Z</time>
      </trkpt>
      <trkpt lat="46.14454" lon="4.10832">
        <ele>266</ele>
        <time>2016-04-19T09:18:18Z</time>
      </trkpt>
      <trkpt lat="46.14459" lon="4.10828">
        <ele>266</ele>
        <time>2016-04-19T09:18:22Z</time>
      </trkpt>
      <trkpt lat="46.14462" lon="4.10824">
        <ele>266</ele>
        <time>2016-04-19T09:18:24Z</time>
      </trkpt>
      <trkpt lat="46.14465" lon="4.10821">
        <ele>266</ele>
        <time>2016-04-19T09:18:27Z</time>
      </trkpt>
      <trkpt lat="46.14509" lon="4.10837">
        <ele>270</ele>
        <time>2016-04-19T09:19:04Z</time>
      </trkpt>
      <trkpt lat="46.14512" lon="4.10844">
        <ele>270</ele>
        <time>2016-04-19T09:19:10Z</time>
      </trkpt>
      <trkpt lat="46.14511" lon="4.10841">
        <ele>270</ele>
        <time>2016-04-19T09:19:59Z</time>
      </trkpt>
      <trkpt lat="46.14532" lon="4.10832">
        <ele>256</ele>
        <time>2016-04-19T09:20:23Z</time>
      </trkpt>
      <trkpt lat="46.14538" lon="4.10831">
        <ele>255</ele>
        <time>2016-04-19T09:20:26Z</time>
      </trkpt>
      <trkpt lat="46.14549" lon="4.10832">
        <ele>256</ele>
        <time>2016-04-19T09:20:35Z</time>
      </trkpt>
      <trkpt lat="46.14554" lon="4.10833">
        <ele>256</ele>
        <time>2016-04-19T09:20:37Z</time>
      </trkpt>
      <trkpt lat="46.14559" lon="4.10838">
        <ele>257</ele>
        <time>2016-04-19T09:20:41Z</time>
      </trkpt>
      <trkpt lat="46.14575" lon="4.10843">
        <ele>259</ele>
        <time>2016-04-19T09:20:53Z</time>
      </trkpt>
      <trkpt lat="46.14595" lon="4.10841">
        <ele>267</ele>
        <time>2016-04-19T09:21:09Z</time>
      </trkpt>
      <trkpt lat="46.146" lon="4.10837">
        <ele>267</ele>
        <time>2016-04-19T09:21:14Z</time>
      </trkpt>
      <trkpt lat="46.14606" lon="4.10825">
        <ele>265</ele>
        <time>2016-04-19T09:21:21Z</time>
      </trkpt>
      <trkpt lat="46.14609" lon="4.1079">
        <ele>259</ele>
        <time>2016-04-19T09:21:46Z</time>
      </trkpt>
      <trkpt lat="46.14608" lon="4.10785">
        <ele>259</ele>
        <time>2016-04-19T09:21:54Z</time>
      </trkpt>
      <trkpt lat="46.14608" lon="4.10776">
        <ele>259</ele>
        <time>2016-04-19T09:22:14Z</time>
      </trkpt>
      <trkpt lat="46.14615" lon="4.10749">
        <ele>261</ele>
        <time>2016-04-19T09:22:30Z</time>
      </trkpt>
      <trkpt lat="46.14612" lon="4.1071">
        <ele>258</ele>
        <time>2016-04-19T09:23:21Z</time>
      </trkpt>
      <trkpt lat="46.14609" lon="4.10704">
        <ele>258</ele>
        <time>2016-04-19T09:23:25Z</time>
      </trkpt>
      <trkpt lat="46.14611" lon="4.10696">
        <ele>257</ele>
        <time>2016-04-19T09:23:30Z</time>
      </trkpt>
      <trkpt lat="46.14614" lon="4.10682">
        <ele>256</ele>
        <time>2016-04-19T09:23:37Z</time>
      </trkpt>
      <trkpt lat="46.14613" lon="4.10674">
        <ele>257</ele>
        <time>2016-04-19T09:23:41Z</time>
      </trkpt>
      <trkpt lat="46.14621" lon="4.10639">
        <ele>255</ele>
        <time>2016-04-19T09:24:00Z</time>
      </trkpt>
      <trkpt lat="46.14624" lon="4.10607">
        <ele>254</ele>
        <time>2016-04-19T09:24:16Z</time>
      </trkpt>
      <trkpt lat="46.14625" lon="4.106">
        <ele>254</ele>
        <time>2016-04-19T09:24:20Z</time>
      </trkpt>
      <trkpt lat="46.14632" lon="4.10573">
        <ele>254</ele>
        <time>2016-04-19T09:24:38Z</time>
      </trkpt>
      <trkpt lat="46.14631" lon="4.10565">
        <ele>254</ele>
        <time>2016-04-19T09:24:43Z</time>
      </trkpt>
      <trkpt lat="46.14636" lon="4.10551">
        <ele>255</ele>
        <time>2016-04-19T09:24:51Z</time>
      </trkpt>
      <trkpt lat="46.14638" lon="4.10545">
        <ele>255</ele>
        <time>2016-04-19T09:24:55Z</time>
      </trkpt>
      <trkpt lat="46.14639" lon="4.10538">
        <ele>255</ele>
        <time>2016-04-19T09:24:59Z</time>
      </trkpt>
      <trkpt lat="46.14636" lon="4.10517">
        <ele>253</ele>
        <time>2016-04-19T09:25:11Z</time>
      </trkpt>
      <trkpt lat="46.14637" lon="4.1051">
        <ele>252</ele>
        <time>2016-04-19T09:25:15Z</time>
      </trkpt>
      <trkpt lat="46.1464" lon="4.10505">
        <ele>252</ele>
        <time>2016-04-19T09:25:19Z</time>
      </trkpt>
      <trkpt lat="46.14647" lon="4.10438">
        <ele>253</ele>
        <time>2016-04-19T09:25:56Z</time>
      </trkpt>
      <trkpt lat="46.14652" lon="4.10424">
        <ele>252</ele>
        <time>2016-04-19T09:26:04Z</time>
      </trkpt>
      <trkpt lat="46.1465" lon="4.10387">
        <ele>252</ele>
        <time>2016-04-19T09:26:24Z</time>
      </trkpt>
      <trkpt lat="46.14649" lon="4.10379">
        <ele>251</ele>
        <time>2016-04-19T09:26:28Z</time>
      </trkpt>
      <trkpt lat="46.14654" lon="4.10358">
        <ele>251</ele>
        <time>2016-04-19T09:26:41Z</time>
      </trkpt>
      <trkpt lat="46.14658" lon="4.10353">
        <ele>250</ele>
        <time>2016-04-19T09:26:44Z</time>
      </trkpt>
      <trkpt lat="46.1466" lon="4.10346">
        <ele>250</ele>
        <time>2016-04-19T09:26:48Z</time>
      </trkpt>
      <trkpt lat="46.14664" lon="4.1034">
        <ele>250</ele>
        <time>2016-04-19T09:26:52Z</time>
      </trkpt>
      <trkpt lat="46.14665" lon="4.10333">
        <ele>251</ele>
        <time>2016-04-19T09:26:56Z</time>
      </trkpt>
      <trkpt lat="46.1466" lon="4.10322">
        <ele>251</ele>
        <time>2016-04-19T09:27:02Z</time>
      </trkpt>
      <trkpt lat="46.14658" lon="4.10315">
        <ele>251</ele>
        <time>2016-04-19T09:27:06Z</time>
      </trkpt>
      <trkpt lat="46.14657" lon="4.10308">
        <ele>251</ele>
        <time>2016-04-19T09:27:10Z</time>
      </trkpt>
      <trkpt lat="46.14661" lon="4.10265">
        <ele>249</ele>
        <time>2016-04-19T09:27:34Z</time>
      </trkpt>
      <trkpt lat="46.14663" lon="4.10258">
        <ele>249</ele>
        <time>2016-04-19T09:27:39Z</time>
      </trkpt>
      <trkpt lat="46.14672" lon="4.10251">
        <ele>248</ele>
        <time>2016-04-19T09:27:47Z</time>
      </trkpt>
      <trkpt lat="46.14673" lon="4.10243">
        <ele>247</ele>
        <time>2016-04-19T09:27:51Z</time>
      </trkpt>
      <trkpt lat="46.14679" lon="4.10155">
        <ele>251</ele>
        <time>2016-04-19T09:28:39Z</time>
      </trkpt>
      <trkpt lat="46.14677" lon="4.10148">
        <ele>251</ele>
        <time>2016-04-19T09:28:43Z</time>
      </trkpt>
      <trkpt lat="46.14683" lon="4.10106">
        <ele>252</ele>
        <time>2016-04-19T09:29:08Z</time>
      </trkpt>
      <trkpt lat="46.1468" lon="4.10099">
        <ele>252</ele>
        <time>2016-04-19T09:29:12Z</time>
      </trkpt>
      <trkpt lat="46.14679" lon="4.10086">
        <ele>251</ele>
        <time>2016-04-19T09:29:20Z</time>
      </trkpt>
      <trkpt lat="46.14679" lon="4.10072">
        <ele>252</ele>
        <time>2016-04-19T09:29:30Z</time>
      </trkpt>
      <trkpt lat="46.14682" lon="4.10067">
        <ele>252</ele>
        <time>2016-04-19T09:29:34Z</time>
      </trkpt>
      <trkpt lat="46.14684" lon="4.10028">
        <ele>253</ele>
        <time>2016-04-19T09:29:54Z</time>
      </trkpt>
      <trkpt lat="46.14686" lon="4.1002">
        <ele>252</ele>
        <time>2016-04-19T09:29:59Z</time>
      </trkpt>
      <trkpt lat="46.14789" lon="4.09005">
        <ele>259</ele>
        <time>2016-04-19T09:40:11Z</time>
      </trkpt>
      <trkpt lat="46.14791" lon="4.08998">
        <ele>259</ele>
        <time>2016-04-19T09:40:15Z</time>
      </trkpt>
      <trkpt lat="46.14808" lon="4.08846">
        <ele>266</ele>
        <time>2016-04-19T09:42:05Z</time>
      </trkpt>
      <trkpt lat="46.14835" lon="4.08765">
        <ele>267</ele>
        <time>2016-04-19T09:43:03Z</time>
      </trkpt>
      <trkpt lat="46.14831" lon="4.08761">
        <ele>268</ele>
        <time>2016-04-19T09:43:07Z</time>
      </trkpt>
      <trkpt lat="46.14829" lon="4.08759">
        <ele>268</ele>
        <time>2016-04-19T09:43:13Z</time>
      </trkpt>
      <trkpt lat="46.14826" lon="4.08763">
        <ele>268</ele>
        <time>2016-04-19T09:43:22Z</time>
      </trkpt>
      <trkpt lat="46.14823" lon="4.08761">
        <ele>268</ele>
        <time>2016-04-19T09:43:46Z</time>
      </trkpt>
      <trkpt lat="46.14822" lon="4.08768">
        <ele>268</ele>
        <time>2016-04-19T09:44:05Z</time>
      </trkpt>
      <trkpt lat="46.14817" lon="4.08769">
        <ele>268</ele>
        <time>2016-04-19T09:44:08Z</time>
      </trkpt>
      <trkpt lat="46.14818" lon="4.0878">
        <ele>269</ele>
        <time>2016-04-19T09:44:49Z</time>
      </trkpt>
      <trkpt lat="46.14825" lon="4.08781">
        <ele>268</ele>
        <time>2016-04-19T09:47:14Z</time>
      </trkpt>
      <trkpt lat="46.14824" lon="4.08775">
        <ele>269</ele>
        <time>2016-04-19T09:47:46Z</time>
      </trkpt>
      <trkpt lat="46.14826" lon="4.08767">
        <ele>269</ele>
        <time>2016-04-19T09:48:12Z</time>
      </trkpt>
      <trkpt lat="46.14829" lon="4.08762">
        <ele>269</ele>
        <time>2016-04-19T09:48:51Z</time>
      </trkpt>
      <trkpt lat="46.14833" lon="4.08773">
        <ele>268</ele>
        <time>2016-04-19T09:49:09Z</time>
      </trkpt>
      <trkpt lat="46.14832" lon="4.08779">
        <ele>268</ele>
        <time>2016-04-19T09:49:14Z</time>
      </trkpt>
      <trkpt lat="46.14823" lon="4.08811">
        <ele>265</ele>
        <time>2016-04-19T09:49:51Z</time>
      </trkpt>
      <trkpt lat="46.1481" lon="4.0884">
        <ele>265</ele>
        <time>2016-04-19T09:50:11Z</time>
      </trkpt>
      <trkpt lat="46.14805" lon="4.0884">
        <ele>265</ele>
        <time>2016-04-19T09:50:15Z</time>
      </trkpt>
      <trkpt lat="46.14797" lon="4.08831">
        <ele>265</ele>
        <time>2016-04-19T09:50:23Z</time>
      </trkpt>
      <trkpt lat="46.14787" lon="4.08817">
        <ele>265</ele>
        <time>2016-04-19T09:50:35Z</time>
      </trkpt>
      <trkpt lat="46.14785" lon="4.08815">
        <ele>264</ele>
        <time>2016-04-19T09:50:46Z</time>
      </trkpt>
      <trkpt lat="46.14765" lon="4.08782">
        <ele>262</ele>
        <time>2016-04-19T09:51:12Z</time>
      </trkpt>
      <trkpt lat="46.14741" lon="4.08721">
        <ele>260</ele>
        <time>2016-04-19T09:51:54Z</time>
      </trkpt>
      <trkpt lat="46.1474" lon="4.08714">
        <ele>260</ele>
        <time>2016-04-19T09:51:58Z</time>
      </trkpt>
      <trkpt lat="46.14743" lon="4.08683">
        <ele>261</ele>
        <time>2016-04-19T09:52:21Z</time>
      </trkpt>
      <trkpt lat="46.14746" lon="4.08677">
        <ele>261</ele>
        <time>2016-04-19T09:52:29Z</time>
      </trkpt>
      <trkpt lat="46.1475" lon="4.08674">
        <ele>261</ele>
        <time>2016-04-19T09:52:33Z</time>
      </trkpt>
      <trkpt lat="46.14753" lon="4.08668">
        <ele>261</ele>
        <time>2016-04-19T09:52:38Z</time>
      </trkpt>
      <trkpt lat="46.14751" lon="4.08661">
        <ele>261</ele>
        <time>2016-04-19T09:52:43Z</time>
      </trkpt>
      <trkpt lat="46.14748" lon="4.08654">
        <ele>260</ele>
        <time>2016-04-19T09:52:49Z</time>
      </trkpt>
      <trkpt lat="46.14719" lon="4.08553">
        <ele>261</ele>
        <time>2016-04-19T09:53:56Z</time>
      </trkpt>
      <trkpt lat="46.14716" lon="4.08547">
        <ele>261</ele>
        <time>2016-04-19T09:54:01Z</time>
      </trkpt>
      <trkpt lat="46.14701" lon="4.08487">
        <ele>260</ele>
        <time>2016-04-19T09:54:47Z</time>
      </trkpt>
      <trkpt lat="46.147" lon="4.0848">
        <ele>260</ele>
        <time>2016-04-19T09:54:51Z</time>
      </trkpt>
      <trkpt lat="46.14702" lon="4.08474">
        <ele>261</ele>
        <time>2016-04-19T09:54:55Z</time>
      </trkpt>
      <trkpt lat="46.14706" lon="4.08469">
        <ele>261</ele>
        <time>2016-04-19T09:54:59Z</time>
      </trkpt>
      <trkpt lat="46.14723" lon="4.08455">
        <ele>261</ele>
        <time>2016-04-19T09:55:16Z</time>
      </trkpt>
      <trkpt lat="46.14721" lon="4.08427">
        <ele>261</ele>
        <time>2016-04-19T09:55:34Z</time>
      </trkpt>
      <trkpt lat="46.14706" lon="4.08401">
        <ele>262</ele>
        <time>2016-04-19T09:55:54Z</time>
      </trkpt>
      <trkpt lat="46.14687" lon="4.08353">
        <ele>264</ele>
        <time>2016-04-19T09:56:32Z</time>
      </trkpt>
      <trkpt lat="46.14673" lon="4.08308">
        <ele>264</ele>
        <time>2016-04-19T09:57:05Z</time>
      </trkpt>
      <trkpt lat="46.14663" lon="4.08187">
        <ele>267</ele>
        <time>2016-04-19T09:58:14Z</time>
      </trkpt>
      <trkpt lat="46.14662" lon="4.0818">
        <ele>268</ele>
        <time>2016-04-19T09:58:18Z</time>
      </trkpt>
      <trkpt lat="46.14662" lon="4.08172">
        <ele>268</ele>
        <time>2016-04-19T09:58:23Z</time>
      </trkpt>
      <trkpt lat="46.14665" lon="4.08171">
        <ele>268</ele>
        <time>2016-04-19T09:58:40Z</time>
      </trkpt>
      <trkpt lat="46.14673" lon="4.08153">
        <ele>269</ele>
        <time>2016-04-19T09:59:10Z</time>
      </trkpt>
      <trkpt lat="46.14683" lon="4.08137">
        <ele>268</ele>
        <time>2016-04-19T09:59:22Z</time>
      </trkpt>
      <trkpt lat="46.14691" lon="4.08112">
        <ele>269</ele>
        <time>2016-04-19T09:59:37Z</time>
      </trkpt>
      <trkpt lat="46.14697" lon="4.081">
        <ele>268</ele>
        <time>2016-04-19T09:59:46Z</time>
      </trkpt>
      <trkpt lat="46.14704" lon="4.08037">
        <ele>270</ele>
        <time>2016-04-19T10:00:23Z</time>
      </trkpt>
      <trkpt lat="46.14716" lon="4.07795">
        <ele>270</ele>
        <time>2016-04-19T10:02:44Z</time>
      </trkpt>
      <trkpt lat="46.14716" lon="4.07788">
        <ele>270</ele>
        <time>2016-04-19T10:02:49Z</time>
      </trkpt>
      <trkpt lat="46.14705" lon="4.07586">
        <ele>278</ele>
        <time>2016-04-19T10:04:59Z</time>
      </trkpt>
      <trkpt lat="46.14719" lon="4.07532">
        <ele>280</ele>
        <time>2016-04-19T10:05:36Z</time>
      </trkpt>
      <trkpt lat="46.14709" lon="4.07477">
        <ele>281</ele>
        <time>2016-04-19T10:06:08Z</time>
      </trkpt>
      <trkpt lat="46.14731" lon="4.07269">
        <ele>289</ele>
        <time>2016-04-19T10:08:18Z</time>
      </trkpt>
      <trkpt lat="46.14729" lon="4.07263">
        <ele>289</ele>
        <time>2016-04-19T10:08:22Z</time>
      </trkpt>
      <trkpt lat="46.14725" lon="4.07259">
        <ele>290</ele>
        <time>2016-04-19T10:08:26Z</time>
      </trkpt>
      <trkpt lat="46.1468" lon="4.07252">
        <ele>287</ele>
        <time>2016-04-19T10:09:02Z</time>
      </trkpt>
      <trkpt lat="46.14675" lon="4.07252">
        <ele>286</ele>
        <time>2016-04-19T10:09:06Z</time>
      </trkpt>
      <trkpt lat="46.14664" lon="4.07249">
        <ele>287</ele>
        <time>2016-04-19T10:09:15Z</time>
      </trkpt>
      <trkpt lat="46.14639" lon="4.07247">
        <ele>287</ele>
        <time>2016-04-19T10:09:37Z</time>
      </trkpt>
      <trkpt lat="46.14619" lon="4.07248">
        <ele>288</ele>
        <time>2016-04-19T10:09:53Z</time>
      </trkpt>
      <trkpt lat="46.146" lon="4.0724">
        <ele>288</ele>
        <time>2016-04-19T10:10:10Z</time>
      </trkpt>
      <trkpt lat="46.14588" lon="4.07228">
        <ele>288</ele>
        <time>2016-04-19T10:10:23Z</time>
      </trkpt>
      <trkpt lat="46.14586" lon="4.0722">
        <ele>288</ele>
        <time>2016-04-19T10:10:28Z</time>
      </trkpt>
      <trkpt lat="46.14584" lon="4.07213">
        <ele>287</ele>
        <time>2016-04-19T10:10:32Z</time>
      </trkpt>
      <trkpt lat="46.14584" lon="4.07206">
        <ele>287</ele>
        <time>2016-04-19T10:10:36Z</time>
      </trkpt>
      <trkpt lat="46.14586" lon="4.07199">
        <ele>287</ele>
        <time>2016-04-19T10:10:40Z</time>
      </trkpt>
      <trkpt lat="46.14634" lon="4.07135">
        <ele>285</ele>
        <time>2016-04-19T10:11:37Z</time>
      </trkpt>
      <trkpt lat="46.1464" lon="4.07122">
        <ele>286</ele>
        <time>2016-04-19T10:11:47Z</time>
      </trkpt>
      <trkpt lat="46.14644" lon="4.07116">
        <ele>286</ele>
        <time>2016-04-19T10:11:52Z</time>
      </trkpt>
      <trkpt lat="46.14756" lon="4.06825">
        <ele>296</ele>
        <time>2016-04-19T10:15:12Z</time>
      </trkpt>
      <trkpt lat="46.14757" lon="4.06818">
        <ele>296</ele>
        <time>2016-04-19T10:15:17Z</time>
      </trkpt>
      <trkpt lat="46.14811" lon="4.06681">
        <ele>297</ele>
        <time>2016-04-19T10:16:55Z</time>
      </trkpt>
      <trkpt lat="46.14817" lon="4.06669">
        <ele>298</ele>
        <time>2016-04-19T10:17:06Z</time>
      </trkpt>
      <trkpt lat="46.14821" lon="4.06655">
        <ele>297</ele>
        <time>2016-04-19T10:17:17Z</time>
      </trkpt>
      <trkpt lat="46.14841" lon="4.06612">
        <ele>298</ele>
        <time>2016-04-19T10:17:51Z</time>
      </trkpt>
      <trkpt lat="46.14845" lon="4.06608">
        <ele>298</ele>
        <time>2016-04-19T10:17:56Z</time>
      </trkpt>
      <trkpt lat="46.14848" lon="4.06603">
        <ele>299</ele>
        <time>2016-04-19T10:18:01Z</time>
      </trkpt>
      <trkpt lat="46.14853" lon="4.06601">
        <ele>301</ele>
        <time>2016-04-19T10:18:07Z</time>
      </trkpt>
      <trkpt lat="46.14863" lon="4.06601">
        <ele>304</ele>
        <time>2016-04-19T10:18:20Z</time>
      </trkpt>
      <trkpt lat="46.14867" lon="4.066">
        <ele>305</ele>
        <time>2016-04-19T10:18:26Z</time>
      </trkpt>
      <trkpt lat="46.14886" lon="4.06524">
        <ele>305</ele>
        <time>2016-04-19T10:19:27Z</time>
      </trkpt>
      <trkpt lat="46.14888" lon="4.06511">
        <ele>305</ele>
        <time>2016-04-19T10:19:36Z</time>
      </trkpt>
      <trkpt lat="46.14889" lon="4.06503">
        <ele>305</ele>
        <time>2016-04-19T10:19:40Z</time>
      </trkpt>
      <trkpt lat="46.14896" lon="4.06492">
        <ele>306</ele>
        <time>2016-04-19T10:19:50Z</time>
      </trkpt>
      <trkpt lat="46.149" lon="4.0649">
        <ele>307</ele>
        <time>2016-04-19T10:19:55Z</time>
      </trkpt>
      <trkpt lat="46.14933" lon="4.06497">
        <ele>312</ele>
        <time>2016-04-19T10:20:36Z</time>
      </trkpt>
      <trkpt lat="46.14938" lon="4.06497">
        <ele>312</ele>
        <time>2016-04-19T10:20:41Z</time>
      </trkpt>
      <trkpt lat="46.14943" lon="4.06494">
        <ele>312</ele>
        <time>2016-04-19T10:20:46Z</time>
      </trkpt>
      <trkpt lat="46.14952" lon="4.06488">
        <ele>313</ele>
        <time>2016-04-19T10:20:56Z</time>
      </trkpt>
      <trkpt lat="46.14954" lon="4.06481">
        <ele>313</ele>
        <time>2016-04-19T10:21:01Z</time>
      </trkpt>
      <trkpt lat="46.14955" lon="4.06474">
        <ele>313</ele>
        <time>2016-04-19T10:21:08Z</time>
      </trkpt>
      <trkpt lat="46.14952" lon="4.06365">
        <ele>318</ele>
        <time>2016-04-19T10:22:23Z</time>
      </trkpt>
      <trkpt lat="46.14945" lon="4.06288">
        <ele>319</ele>
        <time>2016-04-19T10:23:13Z</time>
      </trkpt>
      <trkpt lat="46.14945" lon="4.06094">
        <ele>318</ele>
        <time>2016-04-19T10:25:25Z</time>
      </trkpt>
      <trkpt lat="46.14939" lon="4.06052">
        <ele>319</ele>
        <time>2016-04-19T10:25:58Z</time>
      </trkpt>
      <trkpt lat="46.1494" lon="4.06031">
        <ele>319</ele>
        <time>2016-04-19T10:26:11Z</time>
      </trkpt>
      <trkpt lat="46.14938" lon="4.06024">
        <ele>319</ele>
        <time>2016-04-19T10:26:16Z</time>
      </trkpt>
      <trkpt lat="46.14935" lon="4.05973">
        <ele>320</ele>
        <time>2016-04-19T10:26:57Z</time>
      </trkpt>
      <trkpt lat="46.14942" lon="4.05922">
        <ele>322</ele>
        <time>2016-04-19T10:27:26Z</time>
      </trkpt>
      <trkpt lat="46.14943" lon="4.05914">
        <ele>322</ele>
        <time>2016-04-19T10:27:32Z</time>
      </trkpt>
      <trkpt lat="46.1494" lon="4.05901">
        <ele>322</ele>
        <time>2016-04-19T10:27:40Z</time>
      </trkpt>
      <trkpt lat="46.14925" lon="4.0585">
        <ele>319</ele>
        <time>2016-04-19T10:28:19Z</time>
      </trkpt>
      <trkpt lat="46.14922" lon="4.05843">
        <ele>320</ele>
        <time>2016-04-19T10:28:23Z</time>
      </trkpt>
      <trkpt lat="46.14919" lon="4.05837">
        <ele>319</ele>
        <time>2016-04-19T10:28:28Z</time>
      </trkpt>
      <trkpt lat="46.14912" lon="4.05809">
        <ele>318</ele>
        <time>2016-04-19T10:28:46Z</time>
      </trkpt>
      <trkpt lat="46.14908" lon="4.05779">
        <ele>318</ele>
        <time>2016-04-19T10:29:02Z</time>
      </trkpt>
      <trkpt lat="46.14909" lon="4.05758">
        <ele>316</ele>
        <time>2016-04-19T10:29:15Z</time>
      </trkpt>
      <trkpt lat="46.14902" lon="4.05695">
        <ele>320</ele>
        <time>2016-04-19T10:30:00Z</time>
      </trkpt>
      <trkpt lat="46.14902" lon="4.05688">
        <ele>319</ele>
        <time>2016-04-19T10:30:06Z</time>
      </trkpt>
      <trkpt lat="46.149" lon="4.05682">
        <ele>319</ele>
        <time>2016-04-19T10:30:10Z</time>
      </trkpt>
      <trkpt lat="46.149" lon="4.05675">
        <ele>319</ele>
        <time>2016-04-19T10:30:14Z</time>
      </trkpt>
      <trkpt lat="46.14912" lon="4.0556">
        <ele>320</ele>
        <time>2016-04-19T10:31:29Z</time>
      </trkpt>
      <trkpt lat="46.14912" lon="4.05553">
        <ele>320</ele>
        <time>2016-04-19T10:31:34Z</time>
      </trkpt>
      <trkpt lat="46.14926" lon="4.0541">
        <ele>323</ele>
        <time>2016-04-19T10:33:29Z</time>
      </trkpt>
      <trkpt lat="46.14932" lon="4.0527">
        <ele>325</ele>
        <time>2016-04-19T10:35:00Z</time>
      </trkpt>
      <trkpt lat="46.14931" lon="4.05261">
        <ele>324</ele>
        <time>2016-04-19T10:35:42Z</time>
      </trkpt>
      <trkpt lat="46.14939" lon="4.05211">
        <ele>323</ele>
        <time>2016-04-19T10:36:42Z</time>
      </trkpt>
      <trkpt lat="46.14951" lon="4.05176">
        <ele>320</ele>
        <time>2016-04-19T10:37:07Z</time>
      </trkpt>
      <trkpt lat="46.14959" lon="4.05136">
        <ele>318</ele>
        <time>2016-04-19T10:37:31Z</time>
      </trkpt>
      <trkpt lat="46.1495" lon="4.05103">
        <ele>315</ele>
        <time>2016-04-19T10:37:52Z</time>
      </trkpt>
      <trkpt lat="46.14947" lon="4.05097">
        <ele>316</ele>
        <time>2016-04-19T10:37:57Z</time>
      </trkpt>
      <trkpt lat="46.14945" lon="4.05091">
        <ele>315</ele>
        <time>2016-04-19T10:38:02Z</time>
      </trkpt>
      <trkpt lat="46.14938" lon="4.05081">
        <ele>315</ele>
        <time>2016-04-19T10:38:11Z</time>
      </trkpt>
      <trkpt lat="46.14929" lon="4.05064">
        <ele>315</ele>
        <time>2016-04-19T10:38:23Z</time>
      </trkpt>
      <trkpt lat="46.1492" lon="4.05039">
        <ele>312</ele>
        <time>2016-04-19T10:39:20Z</time>
      </trkpt>
      <trkpt lat="46.14921" lon="4.05031">
        <ele>312</ele>
        <time>2016-04-19T10:39:25Z</time>
      </trkpt>
      <trkpt lat="46.14924" lon="4.05026">
        <ele>313</ele>
        <time>2016-04-19T10:39:29Z</time>
      </trkpt>
      <trkpt lat="46.14929" lon="4.05024">
        <ele>313</ele>
        <time>2016-04-19T10:39:33Z</time>
      </trkpt>
      <trkpt lat="46.14943" lon="4.05029">
        <ele>315</ele>
        <time>2016-04-19T10:39:45Z</time>
      </trkpt>
      <trkpt lat="46.14952" lon="4.05034">
        <ele>316</ele>
        <time>2016-04-19T10:39:54Z</time>
      </trkpt>
      <trkpt lat="46.14958" lon="4.05036">
        <ele>315</ele>
        <time>2016-04-19T10:40:00Z</time>
      </trkpt>
      <trkpt lat="46.14991" lon="4.05055">
        <ele>312</ele>
        <time>2016-04-19T10:40:30Z</time>
      </trkpt>
      <trkpt lat="46.15011" lon="4.05061">
        <ele>311</ele>
        <time>2016-04-19T10:40:47Z</time>
      </trkpt>
      <trkpt lat="46.1502" lon="4.0506">
        <ele>311</ele>
        <time>2016-04-19T10:40:55Z</time>
      </trkpt>
      <trkpt lat="46.15033" lon="4.05049">
        <ele>310</ele>
        <time>2016-04-19T10:41:07Z</time>
      </trkpt>
      <trkpt lat="46.15039" lon="4.05036">
        <ele>310</ele>
        <time>2016-04-19T10:41:15Z</time>
      </trkpt>
      <trkpt lat="46.15042" lon="4.05021">
        <ele>310</ele>
        <time>2016-04-19T10:41:23Z</time>
      </trkpt>
      <trkpt lat="46.1504" lon="4.05007">
        <ele>310</ele>
        <time>2016-04-19T10:41:31Z</time>
      </trkpt>
      <trkpt lat="46.15023" lon="4.04982">
        <ele>304</ele>
        <time>2016-04-19T10:41:54Z</time>
      </trkpt>
      <trkpt lat="46.15022" lon="4.04975">
        <ele>303</ele>
        <time>2016-04-19T10:41:59Z</time>
      </trkpt>
      <trkpt lat="46.15023" lon="4.04971">
        <ele>302</ele>
        <time>2016-04-19T10:42:07Z</time>
      </trkpt>
      <trkpt lat="46.15021" lon="4.04975">
        <ele>302</ele>
        <time>2016-04-19T10:42:38Z</time>
      </trkpt>
      <trkpt lat="46.15016" lon="4.04972">
        <ele>302</ele>
        <time>2016-04-19T10:42:43Z</time>
      </trkpt>
      <trkpt lat="46.15008" lon="4.04963">
        <ele>301</ele>
        <time>2016-04-19T10:42:53Z</time>
      </trkpt>
      <trkpt lat="46.15005" lon="4.04958">
        <ele>300</ele>
        <time>2016-04-19T10:42:57Z</time>
      </trkpt>
      <trkpt lat="46.14997" lon="4.04939">
        <ele>300</ele>
        <time>2016-04-19T10:43:10Z</time>
      </trkpt>
      <trkpt lat="46.14989" lon="4.04913">
        <ele>298</ele>
        <time>2016-04-19T10:43:29Z</time>
      </trkpt>
      <trkpt lat="46.14988" lon="4.04854">
        <ele>296</ele>
        <time>2016-04-19T10:44:06Z</time>
      </trkpt>
      <trkpt lat="46.14999" lon="4.04773">
        <ele>296</ele>
        <time>2016-04-19T10:45:01Z</time>
      </trkpt>
      <trkpt lat="46.15" lon="4.04732">
        <ele>291</ele>
        <time>2016-04-19T10:45:35Z</time>
      </trkpt>
      <trkpt lat="46.14992" lon="4.04709">
        <ele>290</ele>
        <time>2016-04-19T10:46:12Z</time>
      </trkpt>
      <trkpt lat="46.14985" lon="4.04698">
        <ele>292</ele>
        <time>2016-04-19T10:46:20Z</time>
      </trkpt>
      <trkpt lat="46.14977" lon="4.04679">
        <ele>290</ele>
        <time>2016-04-19T10:46:34Z</time>
      </trkpt>
      <trkpt lat="46.14972" lon="4.04659">
        <ele>286</ele>
        <time>2016-04-19T10:46:46Z</time>
      </trkpt>
      <trkpt lat="46.14915" lon="4.04538">
        <ele>282</ele>
        <time>2016-04-19T10:48:08Z</time>
      </trkpt>
      <trkpt lat="46.14911" lon="4.04525">
        <ele>281</ele>
        <time>2016-04-19T10:48:16Z</time>
      </trkpt>
      <trkpt lat="46.1491" lon="4.04518">
        <ele>280</ele>
        <time>2016-04-19T10:48:21Z</time>
      </trkpt>
      <trkpt lat="46.14914" lon="4.04512">
        <ele>279</ele>
        <time>2016-04-19T10:48:25Z</time>
      </trkpt>
      <trkpt lat="46.15018" lon="4.04435">
        <ele>271</ele>
        <time>2016-04-19T10:50:05Z</time>
      </trkpt>
      <trkpt lat="46.1502" lon="4.04434">
        <ele>271</ele>
        <time>2016-04-19T10:50:10Z</time>
      </trkpt>
      <trkpt lat="46.15023" lon="4.04435">
        <ele>271</ele>
        <time>2016-04-19T10:50:32Z</time>
      </trkpt>
      <trkpt lat="46.15054" lon="4.04438">
        <ele>270</ele>
        <time>2016-04-19T10:51:05Z</time>
      </trkpt>
      <trkpt lat="46.15059" lon="4.0444">
        <ele>269</ele>
        <time>2016-04-19T10:51:12Z</time>
      </trkpt>
      <trkpt lat="46.15064" lon="4.04441">
        <ele>269</ele>
        <time>2016-04-19T10:51:15Z</time>
      </trkpt>
      <trkpt lat="46.15072" lon="4.04448">
        <ele>269</ele>
        <time>2016-04-19T10:51:34Z</time>
      </trkpt>
      <trkpt lat="46.15093" lon="4.04453">
        <ele>272</ele>
        <time>2016-04-19T10:51:51Z</time>
      </trkpt>
      <trkpt lat="46.15103" lon="4.0445">
        <ele>270</ele>
        <time>2016-04-19T10:51:59Z</time>
      </trkpt>
      <trkpt lat="46.15108" lon="4.04447">
        <ele>270</ele>
        <time>2016-04-19T10:52:04Z</time>
      </trkpt>
      <trkpt lat="46.15113" lon="4.04447">
        <ele>270</ele>
        <time>2016-04-19T10:52:09Z</time>
      </trkpt>
      <trkpt lat="46.15115" lon="4.04455">
        <ele>269</ele>
        <time>2016-04-19T10:52:20Z</time>
      </trkpt>
      <trkpt lat="46.15119" lon="4.04456">
        <ele>269</ele>
        <time>2016-04-19T10:52:29Z</time>
      </trkpt>
      <trkpt lat="46.15118" lon="4.04435">
        <ele>269</ele>
        <time>2016-04-19T10:52:48Z</time>
      </trkpt>
      <trkpt lat="46.15133" lon="4.04413">
        <ele>271</ele>
        <time>2016-04-19T10:53:07Z</time>
      </trkpt>
      <trkpt lat="46.15128" lon="4.04411">
        <ele>270</ele>
        <time>2016-04-19T10:53:19Z</time>
      </trkpt>
      <trkpt lat="46.15123" lon="4.0441">
        <ele>269</ele>
        <time>2016-04-19T10:53:26Z</time>
      </trkpt>
      <trkpt lat="46.15123" lon="4.04406">
        <ele>266</ele>
        <time>2016-04-19T10:54:05Z</time>
      </trkpt>
      <trkpt lat="46.1512" lon="4.04409">
        <ele>267</ele>
        <time>2016-04-19T11:05:35Z</time>
      </trkpt>
      <trkpt lat="46.15123" lon="4.04406">
        <ele>268</ele>
        <time>2016-04-19T11:16:06Z</time>
      </trkpt>
      <trkpt lat="46.15128" lon="4.04407">
        <ele>268</ele>
        <time>2016-04-19T11:16:23Z</time>
      </trkpt>
      <trkpt lat="46.15136" lon="4.04415">
        <ele>265</ele>
        <time>2016-04-19T11:16:34Z</time>
      </trkpt>
      <trkpt lat="46.15141" lon="4.04418">
        <ele>267</ele>
        <time>2016-04-19T11:16:39Z</time>
      </trkpt>
      <trkpt lat="46.1515" lon="4.04417">
        <ele>268</ele>
        <time>2016-04-19T11:16:48Z</time>
      </trkpt>
      <trkpt lat="46.15161" lon="4.04414">
        <ele>266</ele>
        <time>2016-04-19T11:16:57Z</time>
      </trkpt>
      <trkpt lat="46.15165" lon="4.04412">
        <ele>266</ele>
        <time>2016-04-19T11:17:02Z</time>
      </trkpt>
      <trkpt lat="46.15167" lon="4.04413">
        <ele>265</ele>
        <time>2016-04-19T11:17:09Z</time>
      </trkpt>
      <trkpt lat="46.15162" lon="4.04417">
        <ele>267</ele>
        <time>2016-04-19T11:17:32Z</time>
      </trkpt>
      <trkpt lat="46.15156" lon="4.04418">
        <ele>266</ele>
        <time>2016-04-19T11:17:56Z</time>
      </trkpt>
      <trkpt lat="46.15146" lon="4.04419">
        <ele>269</ele>
        <time>2016-04-19T11:18:06Z</time>
      </trkpt>
      <trkpt lat="46.15141" lon="4.0442">
        <ele>269</ele>
        <time>2016-04-19T11:18:10Z</time>
      </trkpt>
      <trkpt lat="46.15137" lon="4.04422">
        <ele>269</ele>
        <time>2016-04-19T11:18:15Z</time>
      </trkpt>
      <trkpt lat="46.15132" lon="4.04422">
        <ele>269</ele>
        <time>2016-04-19T11:18:21Z</time>
      </trkpt>
      <trkpt lat="46.15126" lon="4.0441">
        <ele>269</ele>
        <time>2016-04-19T11:18:32Z</time>
      </trkpt>
      <trkpt lat="46.15127" lon="4.04404">
        <ele>267</ele>
        <time>2016-04-19T11:18:38Z</time>
      </trkpt>
      <trkpt lat="46.15124" lon="4.04404">
        <ele>267</ele>
        <time>2016-04-19T11:18:51Z</time>
      </trkpt>
      <trkpt lat="46.15122" lon="4.04405">
        <ele>268</ele>
        <time>2016-04-19T11:19:43Z</time>
      </trkpt>
      <trkpt lat="46.15119" lon="4.04407">
        <ele>268</ele>
        <time>2016-04-19T11:20:00Z</time>
      </trkpt>
      <trkpt lat="46.15121" lon="4.04412">
        <ele>266</ele>
        <time>2016-04-19T11:20:10Z</time>
      </trkpt>
      <trkpt lat="46.15126" lon="4.04409">
        <ele>265</ele>
        <time>2016-04-19T11:20:14Z</time>
      </trkpt>
      <trkpt lat="46.15123" lon="4.0441">
        <ele>266</ele>
        <time>2016-04-19T11:21:14Z</time>
      </trkpt>
      <trkpt lat="46.15122" lon="4.04416">
        <ele>266</ele>
        <time>2016-04-19T11:21:28Z</time>
      </trkpt>
      <trkpt lat="46.15123" lon="4.04421">
        <ele>267</ele>
        <time>2016-04-19T11:23:17Z</time>
      </trkpt>
      <trkpt lat="46.15121" lon="4.04423">
        <ele>266</ele>
        <time>2016-04-19T11:23:28Z</time>
      </trkpt>
      <trkpt lat="46.15116" lon="4.04434">
        <ele>268</ele>
        <time>2016-04-19T11:23:47Z</time>
      </trkpt>
      <trkpt lat="46.15115" lon="4.04441">
        <ele>268</ele>
        <time>2016-04-19T11:23:51Z</time>
      </trkpt>
      <trkpt lat="46.15117" lon="4.04455">
        <ele>268</ele>
        <time>2016-04-19T11:24:01Z</time>
      </trkpt>
      <trkpt lat="46.1512" lon="4.04461">
        <ele>268</ele>
        <time>2016-04-19T11:24:06Z</time>
      </trkpt>
      <trkpt lat="46.15125" lon="4.04465">
        <ele>268</ele>
        <time>2016-04-19T11:24:10Z</time>
      </trkpt>
      <trkpt lat="46.15123" lon="4.04477">
        <ele>267</ele>
        <time>2016-04-19T11:24:37Z</time>
      </trkpt>
      <trkpt lat="46.15116" lon="4.04486">
        <ele>267</ele>
        <time>2016-04-19T11:24:50Z</time>
      </trkpt>
      <trkpt lat="46.15118" lon="4.04504">
        <ele>267</ele>
        <time>2016-04-19T11:25:00Z</time>
      </trkpt>
      <trkpt lat="46.15122" lon="4.045">
        <ele>267</ele>
        <time>2016-04-19T11:25:11Z</time>
      </trkpt>
      <trkpt lat="46.15137" lon="4.04524">
        <ele>268</ele>
        <time>2016-04-19T11:26:47Z</time>
      </trkpt>
      <trkpt lat="46.1512" lon="4.04502">
        <ele>267</ele>
        <time>2016-04-19T11:33:18Z</time>
      </trkpt>
      <trkpt lat="46.1512" lon="4.04494">
        <ele>267</ele>
        <time>2016-04-19T11:33:44Z</time>
      </trkpt>
      <trkpt lat="46.15124" lon="4.04487">
        <ele>267</ele>
        <time>2016-04-19T11:34:02Z</time>
      </trkpt>
      <trkpt lat="46.15122" lon="4.04471">
        <ele>268</ele>
        <time>2016-04-19T11:34:18Z</time>
      </trkpt>
      <trkpt lat="46.15117" lon="4.04458">
        <ele>269</ele>
        <time>2016-04-19T11:36:25Z</time>
      </trkpt>
      <trkpt lat="46.15113" lon="4.04454">
        <ele>270</ele>
        <time>2016-04-19T11:36:34Z</time>
      </trkpt>
      <trkpt lat="46.15108" lon="4.04453">
        <ele>272</ele>
        <time>2016-04-19T11:36:39Z</time>
      </trkpt>
      <trkpt lat="46.15066" lon="4.04453">
        <ele>277</ele>
        <time>2016-04-19T11:37:26Z</time>
      </trkpt>
      <trkpt lat="46.15068" lon="4.04456">
        <ele>279</ele>
        <time>2016-04-19T11:37:43Z</time>
      </trkpt>
      <trkpt lat="46.15064" lon="4.04449">
        <ele>273</ele>
        <time>2016-04-19T11:41:09Z</time>
      </trkpt>
      <trkpt lat="46.15055" lon="4.04445">
        <ele>273</ele>
        <time>2016-04-19T11:41:18Z</time>
      </trkpt>
      <trkpt lat="46.15046" lon="4.04442">
        <ele>275</ele>
        <time>2016-04-19T11:41:30Z</time>
      </trkpt>
      <trkpt lat="46.14995" lon="4.04449">
        <ele>273</ele>
        <time>2016-04-19T11:42:06Z</time>
      </trkpt>
      <trkpt lat="46.14991" lon="4.04454">
        <ele>274</ele>
        <time>2016-04-19T11:42:15Z</time>
      </trkpt>
      <trkpt lat="46.14982" lon="4.04459">
        <ele>276</ele>
        <time>2016-04-19T11:42:26Z</time>
      </trkpt>
      <trkpt lat="46.14978" lon="4.04463">
        <ele>276</ele>
        <time>2016-04-19T11:42:31Z</time>
      </trkpt>
      <trkpt lat="46.14972" lon="4.04465">
        <ele>276</ele>
        <time>2016-04-19T11:42:36Z</time>
      </trkpt>
      <trkpt lat="46.1497" lon="4.04471">
        <ele>276</ele>
        <time>2016-04-19T11:42:42Z</time>
      </trkpt>
      <trkpt lat="46.14971" lon="4.04476">
        <ele>276</ele>
        <time>2016-04-19T11:42:59Z</time>
      </trkpt>
      <trkpt lat="46.14968" lon="4.04482">
        <ele>276</ele>
        <time>2016-04-19T11:43:04Z</time>
      </trkpt>
      <trkpt lat="46.1497" lon="4.04489">
        <ele>277</ele>
        <time>2016-04-19T11:43:08Z</time>
      </trkpt>
      <trkpt lat="46.14986" lon="4.04513">
        <ele>284</ele>
        <time>2016-04-19T11:43:45Z</time>
      </trkpt>
      <trkpt lat="46.14984" lon="4.04518">
        <ele>285</ele>
        <time>2016-04-19T11:43:55Z</time>
      </trkpt>
      <trkpt lat="46.14986" lon="4.04514">
        <ele>284</ele>
        <time>2016-04-19T11:45:15Z</time>
      </trkpt>
      <trkpt lat="46.14986" lon="4.04507">
        <ele>284</ele>
        <time>2016-04-19T11:45:20Z</time>
      </trkpt>
      <trkpt lat="46.14972" lon="4.04477">
        <ele>280</ele>
        <time>2016-04-19T11:45:42Z</time>
      </trkpt>
      <trkpt lat="46.14973" lon="4.0447">
        <ele>280</ele>
        <time>2016-04-19T11:45:47Z</time>
      </trkpt>
      <trkpt lat="46.14976" lon="4.04467">
        <ele>280</ele>
        <time>2016-04-19T11:45:55Z</time>
      </trkpt>
      <trkpt lat="46.14984" lon="4.0446">
        <ele>279</ele>
        <time>2016-04-19T11:46:05Z</time>
      </trkpt>
      <trkpt lat="46.14987" lon="4.04455">
        <ele>278</ele>
        <time>2016-04-19T11:46:09Z</time>
      </trkpt>
      <trkpt lat="46.15001" lon="4.04447">
        <ele>278</ele>
        <time>2016-04-19T11:46:21Z</time>
      </trkpt>
      <trkpt lat="46.15036" lon="4.04439">
        <ele>274</ele>
        <time>2016-04-19T11:46:54Z</time>
      </trkpt>
      <trkpt lat="46.15041" lon="4.04435">
        <ele>274</ele>
        <time>2016-04-19T11:46:59Z</time>
      </trkpt>
      <trkpt lat="46.15046" lon="4.04432">
        <ele>274</ele>
        <time>2016-04-19T11:47:04Z</time>
      </trkpt>
      <trkpt lat="46.15049" lon="4.04433">
        <ele>274</ele>
        <time>2016-04-19T11:47:11Z</time>
      </trkpt>
      <trkpt lat="46.15051" lon="4.04434">
        <ele>276</ele>
        <time>2016-04-19T11:47:22Z</time>
      </trkpt>
      <trkpt lat="46.15071" lon="4.04454">
        <ele>278</ele>
        <time>2016-04-19T11:47:48Z</time>
      </trkpt>
      <trkpt lat="46.15067" lon="4.04458">
        <ele>277</ele>
        <time>2016-04-19T11:47:54Z</time>
      </trkpt>
      <trkpt lat="46.15068" lon="4.0447">
        <ele>277</ele>
        <time>2016-04-19T11:48:13Z</time>
      </trkpt>
      <trkpt lat="46.15072" lon="4.04474">
        <ele>277</ele>
        <time>2016-04-19T11:48:33Z</time>
      </trkpt>
      <trkpt lat="46.15069" lon="4.04495">
        <ele>277</ele>
        <time>2016-04-19T11:48:50Z</time>
      </trkpt>
      <trkpt lat="46.15075" lon="4.04487">
        <ele>276</ele>
        <time>2016-04-19T11:49:56Z</time>
      </trkpt>
      <trkpt lat="46.15073" lon="4.04468">
        <ele>277</ele>
        <time>2016-04-19T11:50:10Z</time>
      </trkpt>
      <trkpt lat="46.15075" lon="4.0446">
        <ele>277</ele>
        <time>2016-04-19T11:50:18Z</time>
      </trkpt>
      <trkpt lat="46.15058" lon="4.04444">
        <ele>275</ele>
        <time>2016-04-19T11:50:32Z</time>
      </trkpt>
      <trkpt lat="46.15054" lon="4.04439">
        <ele>276</ele>
        <time>2016-04-19T11:50:37Z</time>
      </trkpt>
      <trkpt lat="46.15048" lon="4.04404">
        <ele>274</ele>
        <time>2016-04-19T11:51:03Z</time>
      </trkpt>
      <trkpt lat="46.15049" lon="4.044">
        <ele>274</ele>
        <time>2016-04-19T11:51:46Z</time>
      </trkpt>
      <trkpt lat="46.15029" lon="4.0435">
        <ele>269</ele>
        <time>2016-04-19T11:52:26Z</time>
      </trkpt>
      <trkpt lat="46.15019" lon="4.04327">
        <ele>267</ele>
        <time>2016-04-19T11:52:43Z</time>
      </trkpt>
      <trkpt lat="46.15012" lon="4.04306">
        <ele>268</ele>
        <time>2016-04-19T11:52:59Z</time>
      </trkpt>
      <trkpt lat="46.15005" lon="4.04297">
        <ele>269</ele>
        <time>2016-04-19T11:53:08Z</time>
      </trkpt>
      <trkpt lat="46.15" lon="4.04295">
        <ele>269</ele>
        <time>2016-04-19T11:53:14Z</time>
      </trkpt>
      <trkpt lat="46.14985" lon="4.04302">
        <ele>274</ele>
        <time>2016-04-19T11:53:28Z</time>
      </trkpt>
      <trkpt lat="46.14923" lon="4.04342">
        <ele>273</ele>
        <time>2016-04-19T11:54:34Z</time>
      </trkpt>
      <trkpt lat="46.14919" lon="4.04346">
        <ele>273</ele>
        <time>2016-04-19T11:54:42Z</time>
      </trkpt>
      <trkpt lat="46.14916" lon="4.04346">
        <ele>273</ele>
        <time>2016-04-19T11:54:53Z</time>
      </trkpt>
      <trkpt lat="46.14901" lon="4.04343">
        <ele>273</ele>
        <time>2016-04-19T11:55:23Z</time>
      </trkpt>
      <trkpt lat="46.14892" lon="4.04335">
        <ele>273</ele>
        <time>2016-04-19T11:55:33Z</time>
      </trkpt>
      <trkpt lat="46.14889" lon="4.04329">
        <ele>273</ele>
        <time>2016-04-19T11:55:38Z</time>
      </trkpt>
      <trkpt lat="46.14867" lon="4.04296">
        <ele>274</ele>
        <time>2016-04-19T11:56:09Z</time>
      </trkpt>
      <trkpt lat="46.14863" lon="4.04292">
        <ele>274</ele>
        <time>2016-04-19T11:56:14Z</time>
      </trkpt>
      <trkpt lat="46.14857" lon="4.04291">
        <ele>274</ele>
        <time>2016-04-19T11:56:19Z</time>
      </trkpt>
      <trkpt lat="46.14853" lon="4.04287">
        <ele>274</ele>
        <time>2016-04-19T11:56:24Z</time>
      </trkpt>
      <trkpt lat="46.14844" lon="4.04271">
        <ele>274</ele>
        <time>2016-04-19T11:56:37Z</time>
      </trkpt>
      <trkpt lat="46.14841" lon="4.04268">
        <ele>275</ele>
        <time>2016-04-19T11:56:45Z</time>
      </trkpt>
      <trkpt lat="46.14836" lon="4.04271">
        <ele>275</ele>
        <time>2016-04-19T11:57:00Z</time>
      </trkpt>
      <trkpt lat="46.1483" lon="4.04283">
        <ele>276</ele>
        <time>2016-04-19T11:57:08Z</time>
      </trkpt>
      <trkpt lat="46.14827" lon="4.04319">
        <ele>277</ele>
        <time>2016-04-19T11:57:32Z</time>
      </trkpt>
      <trkpt lat="46.14829" lon="4.04332">
        <ele>278</ele>
        <time>2016-04-19T11:57:41Z</time>
      </trkpt>
      <trkpt lat="46.14817" lon="4.04372">
        <ele>280</ele>
        <time>2016-04-19T11:58:07Z</time>
      </trkpt>
      <trkpt lat="46.14814" lon="4.04377">
        <ele>280</ele>
        <time>2016-04-19T11:58:11Z</time>
      </trkpt>
      <trkpt lat="46.14798" lon="4.04393">
        <ele>281</ele>
        <time>2016-04-19T11:58:29Z</time>
      </trkpt>
      <trkpt lat="46.14718" lon="4.04445">
        <ele>287</ele>
        <time>2016-04-19T11:59:44Z</time>
      </trkpt>
      <trkpt lat="46.14714" lon="4.04443">
        <ele>287</ele>
        <time>2016-04-19T11:59:51Z</time>
      </trkpt>
      <trkpt lat="46.14676" lon="4.0445">
        <ele>290</ele>
        <time>2016-04-19T12:00:24Z</time>
      </trkpt>
      <trkpt lat="46.14639" lon="4.04445">
        <ele>292</ele>
        <time>2016-04-19T12:00:56Z</time>
      </trkpt>
      <trkpt lat="46.14564" lon="4.04413">
        <ele>299</ele>
        <time>2016-04-19T12:02:00Z</time>
      </trkpt>
      <trkpt lat="46.14506" lon="4.04372">
        <ele>304</ele>
        <time>2016-04-19T12:03:22Z</time>
      </trkpt>
      <trkpt lat="46.14434" lon="4.04303">
        <ele>306</ele>
        <time>2016-04-19T12:04:43Z</time>
      </trkpt>
      <trkpt lat="46.14417" lon="4.04279">
        <ele>307</ele>
        <time>2016-04-19T12:05:15Z</time>
      </trkpt>
      <trkpt lat="46.14406" lon="4.04223">
        <ele>309</ele>
        <time>2016-04-19T12:05:48Z</time>
      </trkpt>
      <trkpt lat="46.1439" lon="4.0417">
        <ele>311</ele>
        <time>2016-04-19T12:06:21Z</time>
      </trkpt>
      <trkpt lat="46.14371" lon="4.04083">
        <ele>318</ele>
        <time>2016-04-19T12:08:36Z</time>
      </trkpt>
      <trkpt lat="46.14344" lon="4.04052">
        <ele>318</ele>
        <time>2016-04-19T12:09:04Z</time>
      </trkpt>
      <trkpt lat="46.1433" lon="4.04046">
        <ele>318</ele>
        <time>2016-04-19T12:09:17Z</time>
      </trkpt>
      <trkpt lat="46.14325" lon="4.04043">
        <ele>318</ele>
        <time>2016-04-19T12:09:22Z</time>
      </trkpt>
      <trkpt lat="46.14074" lon="4.04007">
        <ele>323</ele>
        <time>2016-04-19T12:12:55Z</time>
      </trkpt>
      <trkpt lat="46.14039" lon="4.03995">
        <ele>324</ele>
        <time>2016-04-19T12:13:27Z</time>
      </trkpt>
      <trkpt lat="46.13935" lon="4.03918">
        <ele>320</ele>
        <time>2016-04-19T12:15:05Z</time>
      </trkpt>
      <trkpt lat="46.13868" lon="4.0386">
        <ele>320</ele>
        <time>2016-04-19T12:16:11Z</time>
      </trkpt>
      <trkpt lat="46.13837" lon="4.03821">
        <ele>321</ele>
        <time>2016-04-19T12:16:42Z</time>
      </trkpt>
      <trkpt lat="46.1381" lon="4.03779">
        <ele>325</ele>
        <time>2016-04-19T12:17:15Z</time>
      </trkpt>
      <trkpt lat="46.13779" lon="4.03701">
        <ele>331</ele>
        <time>2016-04-19T12:18:20Z</time>
      </trkpt>
      <trkpt lat="46.13703" lon="4.03591">
        <ele>338</ele>
        <time>2016-04-19T12:19:53Z</time>
      </trkpt>
      <trkpt lat="46.13643" lon="4.0352">
        <ele>341</ele>
        <time>2016-04-19T12:20:59Z</time>
      </trkpt>
      <trkpt lat="46.13582" lon="4.03469">
        <ele>342</ele>
        <time>2016-04-19T12:22:00Z</time>
      </trkpt>
      <trkpt lat="46.13555" lon="4.0343">
        <ele>342</ele>
        <time>2016-04-19T12:22:33Z</time>
      </trkpt>
      <trkpt lat="46.13457" lon="4.03246">
        <ele>346</ele>
        <time>2016-04-19T12:24:55Z</time>
      </trkpt>
      <trkpt lat="46.13452" lon="4.0324">
        <ele>346</ele>
        <time>2016-04-19T12:25:11Z</time>
      </trkpt>
      <trkpt lat="46.13433" lon="4.0319">
        <ele>348</ele>
        <time>2016-04-19T12:25:44Z</time>
      </trkpt>
      <trkpt lat="46.13362" lon="4.03071">
        <ele>351</ele>
        <time>2016-04-19T12:27:18Z</time>
      </trkpt>
      <trkpt lat="46.13335" lon="4.03039">
        <ele>350</ele>
        <time>2016-04-19T12:27:50Z</time>
      </trkpt>
      <trkpt lat="46.13303" lon="4.03013">
        <ele>349</ele>
        <time>2016-04-19T12:28:20Z</time>
      </trkpt>
      <trkpt lat="46.1321" lon="4.02922">
        <ele>342</ele>
        <time>2016-04-19T12:29:57Z</time>
      </trkpt>
      <trkpt lat="46.13113" lon="4.02841">
        <ele>337</ele>
        <time>2016-04-19T12:31:36Z</time>
      </trkpt>
      <trkpt lat="46.12679" lon="4.02298">
        <ele>349</ele>
        <time>2016-04-19T12:40:01Z</time>
      </trkpt>
      <trkpt lat="46.12665" lon="4.0229">
        <ele>349</ele>
        <time>2016-04-19T12:40:15Z</time>
      </trkpt>
      <trkpt lat="46.12658" lon="4.02284">
        <ele>350</ele>
        <time>2016-04-19T12:40:31Z</time>
      </trkpt>
      <trkpt lat="46.12657" lon="4.02288">
        <ele>350</ele>
        <time>2016-04-19T12:44:00Z</time>
      </trkpt>
      <trkpt lat="46.12653" lon="4.02294">
        <ele>350</ele>
        <time>2016-04-19T12:44:19Z</time>
      </trkpt>
      <trkpt lat="46.1265" lon="4.02288">
        <ele>350</ele>
        <time>2016-04-19T12:44:26Z</time>
      </trkpt>
      <trkpt lat="46.12646" lon="4.02285">
        <ele>350</ele>
        <time>2016-04-19T12:44:32Z</time>
      </trkpt>
      <trkpt lat="46.12645" lon="4.02281">
        <ele>346</ele>
        <time>2016-04-19T12:47:56Z</time>
      </trkpt>
      <trkpt lat="46.1264" lon="4.02275">
        <ele>346</ele>
        <time>2016-04-19T12:48:39Z</time>
      </trkpt>
      <trkpt lat="46.12617" lon="4.02247">
        <ele>348</ele>
        <time>2016-04-19T12:49:10Z</time>
      </trkpt>
      <trkpt lat="46.12593" lon="4.02209">
        <ele>348</ele>
        <time>2016-04-19T12:49:44Z</time>
      </trkpt>
      <trkpt lat="46.12541" lon="4.02148">
        <ele>349</ele>
        <time>2016-04-19T12:50:39Z</time>
      </trkpt>
      <trkpt lat="46.12494" lon="4.02075">
        <ele>346</ele>
        <time>2016-04-19T12:51:44Z</time>
      </trkpt>
      <trkpt lat="46.12475" lon="4.0204">
        <ele>344</ele>
        <time>2016-04-19T12:52:27Z</time>
      </trkpt>
      <trkpt lat="46.12441" lon="4.01995">
        <ele>342</ele>
        <time>2016-04-19T12:53:14Z</time>
      </trkpt>
      <trkpt lat="46.1243" lon="4.01983">
        <ele>341</ele>
        <time>2016-04-19T12:53:28Z</time>
      </trkpt>
      <trkpt lat="46.12426" lon="4.01979">
        <ele>341</ele>
        <time>2016-04-19T12:53:33Z</time>
      </trkpt>
      <trkpt lat="46.12384" lon="4.01928">
        <ele>337</ele>
        <time>2016-04-19T12:54:25Z</time>
      </trkpt>
      <trkpt lat="46.12319" lon="4.01829">
        <ele>333</ele>
        <time>2016-04-19T12:55:59Z</time>
      </trkpt>
      <trkpt lat="46.1231" lon="4.01812">
        <ele>333</ele>
        <time>2016-04-19T12:56:31Z</time>
      </trkpt>
      <trkpt lat="46.12302" lon="4.01801">
        <ele>333</ele>
        <time>2016-04-19T12:56:51Z</time>
      </trkpt>
      <trkpt lat="46.123" lon="4.01795">
        <ele>333</ele>
        <time>2016-04-19T12:56:57Z</time>
      </trkpt>
      <trkpt lat="46.12264" lon="4.01747">
        <ele>334</ele>
        <time>2016-04-19T12:57:48Z</time>
      </trkpt>
      <trkpt lat="46.12252" lon="4.0171">
        <ele>335</ele>
        <time>2016-04-19T12:58:18Z</time>
      </trkpt>
      <trkpt lat="46.1225" lon="4.01689">
        <ele>336</ele>
        <time>2016-04-19T12:58:34Z</time>
      </trkpt>
      <trkpt lat="46.12256" lon="4.01661">
        <ele>336</ele>
        <time>2016-04-19T12:58:54Z</time>
      </trkpt>
      <trkpt lat="46.12258" lon="4.01629">
        <ele>334</ele>
        <time>2016-04-19T12:59:22Z</time>
      </trkpt>
      <trkpt lat="46.12256" lon="4.01623">
        <ele>334</ele>
        <time>2016-04-19T12:59:25Z</time>
      </trkpt>
      <trkpt lat="46.12226" lon="4.01474">
        <ele>320</ele>
        <time>2016-04-19T13:01:15Z</time>
      </trkpt>
      <trkpt lat="46.12221" lon="4.01432">
        <ele>317</ele>
        <time>2016-04-19T13:01:46Z</time>
      </trkpt>
      <trkpt lat="46.12218" lon="4.01427">
        <ele>317</ele>
        <time>2016-04-19T13:01:50Z</time>
      </trkpt>
      <trkpt lat="46.12211" lon="4.01392">
        <ele>315</ele>
        <time>2016-04-19T13:02:13Z</time>
      </trkpt>
      <trkpt lat="46.12208" lon="4.01385">
        <ele>315</ele>
        <time>2016-04-19T13:02:18Z</time>
      </trkpt>
      <trkpt lat="46.12153" lon="4.01097">
        <ele>303</ele>
        <time>2016-04-19T13:05:50Z</time>
      </trkpt>
      <trkpt lat="46.12152" lon="4.01054">
        <ele>299</ele>
        <time>2016-04-19T13:06:20Z</time>
      </trkpt>
      <trkpt lat="46.12148" lon="4.01025">
        <ele>299</ele>
        <time>2016-04-19T13:06:37Z</time>
      </trkpt>
      <trkpt lat="46.12143" lon="4.01013">
        <ele>299</ele>
        <time>2016-04-19T13:06:44Z</time>
      </trkpt>
      <trkpt lat="46.12139" lon="4.00999">
        <ele>299</ele>
        <time>2016-04-19T13:06:52Z</time>
      </trkpt>
      <trkpt lat="46.1211" lon="4.00803">
        <ele>286</ele>
        <time>2016-04-19T13:08:58Z</time>
      </trkpt>
      <trkpt lat="46.12099" lon="4.00761">
        <ele>287</ele>
        <time>2016-04-19T13:09:29Z</time>
      </trkpt>
      <trkpt lat="46.1208" lon="4.00539">
        <ele>294</ele>
        <time>2016-04-19T13:12:00Z</time>
      </trkpt>
      <trkpt lat="46.12079" lon="4.00536">
        <ele>295</ele>
        <time>2016-04-19T13:12:11Z</time>
      </trkpt>
      <trkpt lat="46.12074" lon="4.00535">
        <ele>295</ele>
        <time>2016-04-19T13:12:19Z</time>
      </trkpt>
      <trkpt lat="46.12039" lon="4.00535">
        <ele>297</ele>
        <time>2016-04-19T13:12:51Z</time>
      </trkpt>
      <trkpt lat="46.11853" lon="4.00556">
        <ele>300</ele>
        <time>2016-04-19T13:15:32Z</time>
      </trkpt>
      <trkpt lat="46.11568" lon="4.0056">
        <ele>301</ele>
        <time>2016-04-19T13:19:43Z</time>
      </trkpt>
      <trkpt lat="46.11492" lon="4.00571">
        <ele>302</ele>
        <time>2016-04-19T13:20:50Z</time>
      </trkpt>
      <trkpt lat="46.11462" lon="4.00567">
        <ele>302</ele>
        <time>2016-04-19T13:21:18Z</time>
      </trkpt>
      <trkpt lat="46.11387" lon="4.00567">
        <ele>301</ele>
        <time>2016-04-19T13:22:25Z</time>
      </trkpt>
      <trkpt lat="46.11279" lon="4.00548">
        <ele>300</ele>
        <time>2016-04-19T13:24:03Z</time>
      </trkpt>
      <trkpt lat="46.11243" lon="4.00533">
        <ele>300</ele>
        <time>2016-04-19T13:24:36Z</time>
      </trkpt>
      <trkpt lat="46.1123" lon="4.00522">
        <ele>301</ele>
        <time>2016-04-19T13:24:50Z</time>
      </trkpt>
      <trkpt lat="46.11225" lon="4.0052">
        <ele>301</ele>
        <time>2016-04-19T13:24:54Z</time>
      </trkpt>
      <trkpt lat="46.11191" lon="4.00489">
        <ele>302</ele>
        <time>2016-04-19T13:25:28Z</time>
      </trkpt>
      <trkpt lat="46.1117" lon="4.00461">
        <ele>302</ele>
        <time>2016-04-19T13:26:21Z</time>
      </trkpt>
      <trkpt lat="46.11155" lon="4.00452">
        <ele>301</ele>
        <time>2016-04-19T13:26:37Z</time>
      </trkpt>
      <trkpt lat="46.11145" lon="4.0045">
        <ele>301</ele>
        <time>2016-04-19T13:26:47Z</time>
      </trkpt>
      <trkpt lat="46.11133" lon="4.00462">
        <ele>301</ele>
        <time>2016-04-19T13:27:00Z</time>
      </trkpt>
      <trkpt lat="46.11109" lon="4.00497">
        <ele>301</ele>
        <time>2016-04-19T13:27:32Z</time>
      </trkpt>
      <trkpt lat="46.11088" lon="4.00517">
        <ele>302</ele>
        <time>2016-04-19T13:27:53Z</time>
      </trkpt>
      <trkpt lat="46.11066" lon="4.00511">
        <ele>302</ele>
        <time>2016-04-19T13:28:17Z</time>
      </trkpt>
      <trkpt lat="46.10836" lon="4.00347">
        <ele>305</ele>
        <time>2016-04-19T13:32:09Z</time>
      </trkpt>
      <trkpt lat="46.10796" lon="4.00337">
        <ele>306</ele>
        <time>2016-04-19T13:32:42Z</time>
      </trkpt>
      <trkpt lat="46.10721" lon="4.0033">
        <ele>307</ele>
        <time>2016-04-19T13:33:50Z</time>
      </trkpt>
      <trkpt lat="46.10702" lon="4.00325">
        <ele>309</ele>
        <time>2016-04-19T13:34:13Z</time>
      </trkpt>
      <trkpt lat="46.10693" lon="4.00266">
        <ele>310</ele>
        <time>2016-04-19T13:34:58Z</time>
      </trkpt>
      <trkpt lat="46.10766" lon="3.99962">
        <ele>312</ele>
        <time>2016-04-19T13:38:12Z</time>
      </trkpt>
      <trkpt lat="46.10767" lon="3.99954">
        <ele>312</ele>
        <time>2016-04-19T13:38:17Z</time>
      </trkpt>
      <trkpt lat="46.10808" lon="3.99844">
        <ele>314</ele>
        <time>2016-04-19T13:43:14Z</time>
      </trkpt>
      <trkpt lat="46.10807" lon="3.99843">
        <ele>313</ele>
        <time>2016-04-19T13:44:53Z</time>
      </trkpt>
      <trkpt lat="46.10811" lon="3.99845">
        <ele>313</ele>
        <time>2016-04-19T13:53:47Z</time>
      </trkpt>
      <trkpt lat="46.10812" lon="3.99672">
        <ele>315</ele>
        <time>2016-04-19T13:56:06Z</time>
      </trkpt>
      <trkpt lat="46.10807" lon="3.9966">
        <ele>316</ele>
        <time>2016-04-19T13:56:14Z</time>
      </trkpt>
      <trkpt lat="46.10726" lon="3.996">
        <ele>318</ele>
        <time>2016-04-19T13:57:31Z</time>
      </trkpt>
      <trkpt lat="46.10724" lon="3.99594">
        <ele>318</ele>
        <time>2016-04-19T13:57:35Z</time>
      </trkpt>
      <trkpt lat="46.10737" lon="3.99525">
        <ele>319</ele>
        <time>2016-04-19T13:58:20Z</time>
      </trkpt>
      <trkpt lat="46.10747" lon="3.99433">
        <ele>322</ele>
        <time>2016-04-19T13:59:15Z</time>
      </trkpt>
      <trkpt lat="46.10747" lon="3.99377">
        <ele>323</ele>
        <time>2016-04-19T13:59:48Z</time>
      </trkpt>
      <trkpt lat="46.10732" lon="3.99216">
        <ele>327</ele>
        <time>2016-04-19T14:01:24Z</time>
      </trkpt>
      <trkpt lat="46.1074" lon="3.99003">
        <ele>329</ele>
        <time>2016-04-19T14:03:34Z</time>
      </trkpt>
      <trkpt lat="46.10696" lon="3.9872">
        <ele>330</ele>
        <time>2016-04-19T14:07:15Z</time>
      </trkpt>
      <trkpt lat="46.10693" lon="3.98715">
        <ele>330</ele>
        <time>2016-04-19T14:07:19Z</time>
      </trkpt>
      <trkpt lat="46.10685" lon="3.98666">
        <ele>331</ele>
        <time>2016-04-19T14:07:51Z</time>
      </trkpt>
      <trkpt lat="46.10597" lon="3.9858">
        <ele>329</ele>
        <time>2016-04-19T14:09:25Z</time>
      </trkpt>
      <trkpt lat="46.10577" lon="3.98542">
        <ele>330</ele>
        <time>2016-04-19T14:09:55Z</time>
      </trkpt>
      <trkpt lat="46.10538" lon="3.9844">
        <ele>331</ele>
        <time>2016-04-19T14:11:05Z</time>
      </trkpt>
      <trkpt lat="46.10259" lon="3.97876">
        <ele>332</ele>
        <time>2016-04-19T14:18:03Z</time>
      </trkpt>
      <trkpt lat="46.10214" lon="3.97741">
        <ele>333</ele>
        <time>2016-04-19T14:19:42Z</time>
      </trkpt>
      <trkpt lat="46.10206" lon="3.977">
        <ele>334</ele>
        <time>2016-04-19T14:20:13Z</time>
      </trkpt>
      <trkpt lat="46.10216" lon="3.97676">
        <ele>334</ele>
        <time>2016-04-19T14:20:32Z</time>
      </trkpt>
      <trkpt lat="46.10247" lon="3.97655">
        <ele>335</ele>
        <time>2016-04-19T14:21:04Z</time>
      </trkpt>
      <trkpt lat="46.10264" lon="3.97627">
        <ele>335</ele>
        <time>2016-04-19T14:21:28Z</time>
      </trkpt>
      <trkpt lat="46.10265" lon="3.97614">
        <ele>335</ele>
        <time>2016-04-19T14:21:36Z</time>
      </trkpt>
      <trkpt lat="46.10255" lon="3.9758">
        <ele>336</ele>
        <time>2016-04-19T14:21:57Z</time>
      </trkpt>
      <trkpt lat="46.10205" lon="3.9752">
        <ele>339</ele>
        <time>2016-04-19T14:23:04Z</time>
      </trkpt>
      <trkpt lat="46.10192" lon="3.97499">
        <ele>339</ele>
        <time>2016-04-19T14:23:21Z</time>
      </trkpt>
      <trkpt lat="46.10188" lon="3.97486">
        <ele>338</ele>
        <time>2016-04-19T14:23:31Z</time>
      </trkpt>
      <trkpt lat="46.10178" lon="3.97382">
        <ele>340</ele>
        <time>2016-04-19T14:24:35Z</time>
      </trkpt>
      <trkpt lat="46.10163" lon="3.9734">
        <ele>342</ele>
        <time>2016-04-19T14:25:05Z</time>
      </trkpt>
      <trkpt lat="46.10154" lon="3.97333">
        <ele>343</ele>
        <time>2016-04-19T14:25:15Z</time>
      </trkpt>
      <trkpt lat="46.10125" lon="3.97315">
        <ele>343</ele>
        <time>2016-04-19T14:25:46Z</time>
      </trkpt>
      <trkpt lat="46.10094" lon="3.97291">
        <ele>344</ele>
        <time>2016-04-19T14:26:20Z</time>
      </trkpt>
      <trkpt lat="46.10075" lon="3.97273">
        <ele>343</ele>
        <time>2016-04-19T14:26:42Z</time>
      </trkpt>
      <trkpt lat="46.10052" lon="3.97234">
        <ele>344</ele>
        <time>2016-04-19T14:27:15Z</time>
      </trkpt>
      <trkpt lat="46.10003" lon="3.97034">
        <ele>342</ele>
        <time>2016-04-19T14:29:30Z</time>
      </trkpt>
      <trkpt lat="46.09972" lon="3.96933">
        <ele>341</ele>
        <time>2016-04-19T14:30:38Z</time>
      </trkpt>
      <trkpt lat="46.09971" lon="3.96927">
        <ele>341</ele>
        <time>2016-04-19T14:30:45Z</time>
      </trkpt>
      <trkpt lat="46.09963" lon="3.96908">
        <ele>342</ele>
        <time>2016-04-19T14:31:00Z</time>
      </trkpt>
      <trkpt lat="46.09897" lon="3.9669">
        <ele>345</ele>
        <time>2016-04-19T14:33:31Z</time>
      </trkpt>
      <trkpt lat="46.09885" lon="3.96639">
        <ele>345</ele>
        <time>2016-04-19T14:34:05Z</time>
      </trkpt>
      <trkpt lat="46.09875" lon="3.96531">
        <ele>343</ele>
        <time>2016-04-19T14:35:16Z</time>
      </trkpt>
      <trkpt lat="46.09878" lon="3.96503">
        <ele>342</ele>
        <time>2016-04-19T14:35:34Z</time>
      </trkpt>
      <trkpt lat="46.0991" lon="3.96384">
        <ele>343</ele>
        <time>2016-04-19T14:36:56Z</time>
      </trkpt>
      <trkpt lat="46.09926" lon="3.9634">
        <ele>343</ele>
        <time>2016-04-19T14:37:29Z</time>
      </trkpt>
      <trkpt lat="46.09999" lon="3.96219">
        <ele>341</ele>
        <time>2016-04-19T14:39:10Z</time>
      </trkpt>
      <trkpt lat="46.10001" lon="3.96212">
        <ele>341</ele>
        <time>2016-04-19T14:39:15Z</time>
      </trkpt>
      <trkpt lat="46.10001" lon="3.96205">
        <ele>341</ele>
        <time>2016-04-19T14:39:20Z</time>
      </trkpt>
      <trkpt lat="46.09999" lon="3.96201">
        <ele>341</ele>
        <time>2016-04-19T14:39:28Z</time>
      </trkpt>
      <trkpt lat="46.1" lon="3.96188">
        <ele>341</ele>
        <time>2016-04-19T14:39:42Z</time>
      </trkpt>
      <trkpt lat="46.09999" lon="3.96183">
        <ele>342</ele>
        <time>2016-04-19T14:43:01Z</time>
      </trkpt>
      <trkpt lat="46.10009" lon="3.9609">
        <ele>340</ele>
        <time>2016-04-19T14:44:06Z</time>
      </trkpt>
      <trkpt lat="46.10004" lon="3.96032">
        <ele>341</ele>
        <time>2016-04-19T14:44:39Z</time>
      </trkpt>
      <trkpt lat="46.09977" lon="3.95936">
        <ele>342</ele>
        <time>2016-04-19T14:45:44Z</time>
      </trkpt>
      <trkpt lat="46.09973" lon="3.95915">
        <ele>343</ele>
        <time>2016-04-19T14:45:58Z</time>
      </trkpt>
      <trkpt lat="46.09972" lon="3.95908">
        <ele>342</ele>
        <time>2016-04-19T14:46:03Z</time>
      </trkpt>
      <trkpt lat="46.09878" lon="3.95744">
        <ele>344</ele>
        <time>2016-04-19T14:48:20Z</time>
      </trkpt>
      <trkpt lat="46.09608" lon="3.95334">
        <ele>346</ele>
        <time>2016-04-19T14:54:20Z</time>
      </trkpt>
      <trkpt lat="46.09603" lon="3.95329">
        <ele>346</ele>
        <time>2016-04-19T14:54:33Z</time>
      </trkpt>
      <trkpt lat="46.09586" lon="3.95302">
        <ele>346</ele>
        <time>2016-04-19T14:54:56Z</time>
      </trkpt>
      <trkpt lat="46.09583" lon="3.95296">
        <ele>346</ele>
        <time>2016-04-19T14:55:01Z</time>
      </trkpt>
      <trkpt lat="46.09579" lon="3.95282">
        <ele>347</ele>
        <time>2016-04-19T14:55:23Z</time>
      </trkpt>
      <trkpt lat="46.09527" lon="3.9517">
        <ele>345</ele>
        <time>2016-04-19T14:56:52Z</time>
      </trkpt>
      <trkpt lat="46.0948" lon="3.95097">
        <ele>343</ele>
        <time>2016-04-19T14:57:52Z</time>
      </trkpt>
      <trkpt lat="46.09397" lon="3.95">
        <ele>346</ele>
        <time>2016-04-19T14:59:32Z</time>
      </trkpt>
      <trkpt lat="46.09334" lon="3.94944">
        <ele>348</ele>
        <time>2016-04-19T15:00:38Z</time>
      </trkpt>
      <trkpt lat="46.09329" lon="3.94942">
        <ele>348</ele>
        <time>2016-04-19T15:00:50Z</time>
      </trkpt>
      <trkpt lat="46.09305" lon="3.94915">
        <ele>347</ele>
        <time>2016-04-19T15:01:17Z</time>
      </trkpt>
      <trkpt lat="46.09253" lon="3.94873">
        <ele>347</ele>
        <time>2016-04-19T15:02:05Z</time>
      </trkpt>
      <trkpt lat="46.09143" lon="3.94755">
        <ele>345</ele>
        <time>2016-04-19T15:04:15Z</time>
      </trkpt>
      <trkpt lat="46.09103" lon="3.94757">
        <ele>346</ele>
        <time>2016-04-19T15:04:49Z</time>
      </trkpt>
      <trkpt lat="46.09088" lon="3.94762">
        <ele>346</ele>
        <time>2016-04-19T15:05:03Z</time>
      </trkpt>
      <trkpt lat="46.09083" lon="3.9476">
        <ele>346</ele>
        <time>2016-04-19T15:05:09Z</time>
      </trkpt>
      <trkpt lat="46.09079" lon="3.94757">
        <ele>346</ele>
        <time>2016-04-19T15:05:14Z</time>
      </trkpt>
      <trkpt lat="46.09074" lon="3.94754">
        <ele>345</ele>
        <time>2016-04-19T15:05:20Z</time>
      </trkpt>
      <trkpt lat="46.09069" lon="3.9475">
        <ele>345</ele>
        <time>2016-04-19T15:05:24Z</time>
      </trkpt>
      <trkpt lat="46.09066" lon="3.94745">
        <ele>344</ele>
        <time>2016-04-19T15:05:29Z</time>
      </trkpt>
      <trkpt lat="46.09064" lon="3.94739">
        <ele>343</ele>
        <time>2016-04-19T15:05:35Z</time>
      </trkpt>
      <trkpt lat="46.09062" lon="3.94725">
        <ele>345</ele>
        <time>2016-04-19T15:05:45Z</time>
      </trkpt>
      <trkpt lat="46.09046" lon="3.94678">
        <ele>342</ele>
        <time>2016-04-19T15:06:18Z</time>
      </trkpt>
      <trkpt lat="46.08993" lon="3.94588">
        <ele>339</ele>
        <time>2016-04-19T15:07:48Z</time>
      </trkpt>
      <trkpt lat="46.0899" lon="3.94585">
        <ele>339</ele>
        <time>2016-04-19T15:08:17Z</time>
      </trkpt>
      <trkpt lat="46.0899" lon="3.94575">
        <ele>338</ele>
        <time>2016-04-19T15:08:55Z</time>
      </trkpt>
      <trkpt lat="46.09001" lon="3.94497">
        <ele>338</ele>
        <time>2016-04-19T15:09:52Z</time>
      </trkpt>
      <trkpt lat="46.09009" lon="3.9447">
        <ele>337</ele>
        <time>2016-04-19T15:10:12Z</time>
      </trkpt>
      <trkpt lat="46.09034" lon="3.94413">
        <ele>337</ele>
        <time>2016-04-19T15:11:04Z</time>
      </trkpt>
      <trkpt lat="46.0903" lon="3.94334">
        <ele>336</ele>
        <time>2016-04-19T15:12:06Z</time>
      </trkpt>
      <trkpt lat="46.0901" lon="3.94187">
        <ele>335</ele>
        <time>2016-04-19T15:14:39Z</time>
      </trkpt>
      <trkpt lat="46.09009" lon="3.94137">
        <ele>337</ele>
        <time>2016-04-19T15:15:31Z</time>
      </trkpt>
      <trkpt lat="46.09029" lon="3.93944">
        <ele>339</ele>
        <time>2016-04-19T15:18:11Z</time>
      </trkpt>
      <trkpt lat="46.09066" lon="3.93759">
        <ele>342</ele>
        <time>2016-04-19T15:20:17Z</time>
      </trkpt>
      <trkpt lat="46.09069" lon="3.93708">
        <ele>342</ele>
        <time>2016-04-19T15:20:50Z</time>
      </trkpt>
      <trkpt lat="46.09068" lon="3.93704">
        <ele>343</ele>
        <time>2016-04-19T15:21:06Z</time>
      </trkpt>
      <trkpt lat="46.09069" lon="3.93701">
        <ele>343</ele>
        <time>2016-04-19T15:21:17Z</time>
      </trkpt>
      <trkpt lat="46.09092" lon="3.93497">
        <ele>346</ele>
        <time>2016-04-19T15:23:36Z</time>
      </trkpt>
      <trkpt lat="46.09182" lon="3.93206">
        <ele>351</ele>
        <time>2016-04-19T15:27:01Z</time>
      </trkpt>
      <trkpt lat="46.09186" lon="3.93203">
        <ele>351</ele>
        <time>2016-04-19T15:27:06Z</time>
      </trkpt>
      <trkpt lat="46.09191" lon="3.93206">
        <ele>351</ele>
        <time>2016-04-19T15:27:11Z</time>
      </trkpt>
      <trkpt lat="46.09206" lon="3.93223">
        <ele>351</ele>
        <time>2016-04-19T15:27:29Z</time>
      </trkpt>
      <trkpt lat="46.09212" lon="3.93224">
        <ele>351</ele>
        <time>2016-04-19T15:27:34Z</time>
      </trkpt>
      <trkpt lat="46.09247" lon="3.93341">
        <ele>348</ele>
        <time>2016-04-19T15:28:55Z</time>
      </trkpt>
      <trkpt lat="46.0925" lon="3.93343">
        <ele>347</ele>
        <time>2016-04-19T15:29:06Z</time>
      </trkpt>
      <trkpt lat="46.09255" lon="3.93344">
        <ele>347</ele>
        <time>2016-04-19T15:29:11Z</time>
      </trkpt>
      <trkpt lat="46.0926" lon="3.93345">
        <ele>346</ele>
        <time>2016-04-19T15:29:16Z</time>
      </trkpt>
      <trkpt lat="46.09289" lon="3.93354">
        <ele>345</ele>
        <time>2016-04-19T15:29:43Z</time>
      </trkpt>
      <trkpt lat="46.09298" lon="3.93356">
        <ele>346</ele>
        <time>2016-04-19T15:29:53Z</time>
      </trkpt>
      <trkpt lat="46.09312" lon="3.93349">
        <ele>350</ele>
        <time>2016-04-19T15:30:06Z</time>
      </trkpt>
      <trkpt lat="46.09336" lon="3.93348">
        <ele>350</ele>
        <time>2016-04-19T15:30:29Z</time>
      </trkpt>
      <trkpt lat="46.09338" lon="3.93349">
        <ele>350</ele>
        <time>2016-04-19T15:30:59Z</time>
      </trkpt>
      <trkpt lat="46.09342" lon="3.9335">
        <ele>350</ele>
        <time>2016-04-19T15:31:33Z</time>
      </trkpt>
      <trkpt lat="46.09346" lon="3.93352">
        <ele>350</ele>
        <time>2016-04-19T15:31:43Z</time>
      </trkpt>
      <trkpt lat="46.09353" lon="3.9335">
        <ele>349</ele>
        <time>2016-04-19T15:32:17Z</time>
      </trkpt>
      <trkpt lat="46.09353" lon="3.93355">
        <ele>349</ele>
        <time>2016-04-19T15:33:07Z</time>
      </trkpt>
      <trkpt lat="46.09353" lon="3.93361">
        <ele>349</ele>
        <time>2016-04-19T15:33:12Z</time>
      </trkpt>
      <trkpt lat="46.09355" lon="3.93368">
        <ele>349</ele>
        <time>2016-04-19T15:33:18Z</time>
      </trkpt>
      <trkpt lat="46.09359" lon="3.93373">
        <ele>347</ele>
        <time>2016-04-19T15:33:25Z</time>
      </trkpt>
      <trkpt lat="46.0938" lon="3.93376">
        <ele>345</ele>
        <time>2016-04-19T15:33:45Z</time>
      </trkpt>
      <trkpt lat="46.09385" lon="3.93377">
        <ele>345</ele>
        <time>2016-04-19T15:33:51Z</time>
      </trkpt>
      <trkpt lat="46.09388" lon="3.9338">
        <ele>345</ele>
        <time>2016-04-19T15:33:58Z</time>
      </trkpt>
      <trkpt lat="46.0939" lon="3.93386">
        <ele>346</ele>
        <time>2016-04-19T15:35:02Z</time>
      </trkpt>
      <trkpt lat="46.09389" lon="3.93402">
        <ele>345</ele>
        <time>2016-04-19T15:35:34Z</time>
      </trkpt>
      <trkpt lat="46.09389" lon="3.93405">
        <ele>346</ele>
        <time>2016-04-19T15:36:06Z</time>
      </trkpt>
      <trkpt lat="46.09397" lon="3.93405">
        <ele>342</ele>
        <time>2016-04-19T15:36:54Z</time>
      </trkpt>
      <trkpt lat="46.09396" lon="3.93398">
        <ele>341</ele>
        <time>2016-04-19T15:37:11Z</time>
      </trkpt>
      <trkpt lat="46.09393" lon="3.93405">
        <ele>342</ele>
        <time>2016-04-19T15:37:59Z</time>
      </trkpt>
      <trkpt lat="46.09385" lon="3.93406">
        <ele>343</ele>
        <time>2016-04-19T15:38:47Z</time>
      </trkpt>
      <trkpt lat="46.09389" lon="3.93401">
        <ele>334</ele>
        <time>2016-04-19T15:39:41Z</time>
      </trkpt>
      <trkpt lat="46.09405" lon="3.93405">
        <ele>340</ele>
        <time>2016-04-20T07:25:48Z</time>
      </trkpt>
      <trkpt lat="46.094" lon="3.93409">
        <ele>339</ele>
        <time>2016-04-20T07:26:14Z</time>
      </trkpt>
      <trkpt lat="46.09394" lon="3.93409">
        <ele>339</ele>
        <time>2016-04-20T07:26:18Z</time>
      </trkpt>
      <trkpt lat="46.09393" lon="3.93405">
        <ele>338</ele>
        <time>2016-04-20T07:26:25Z</time>
      </trkpt>
      <trkpt lat="46.09389" lon="3.93386">
        <ele>338</ele>
        <time>2016-04-20T07:27:03Z</time>
      </trkpt>
      <trkpt lat="46.09385" lon="3.9338">
        <ele>338</ele>
        <time>2016-04-20T07:27:08Z</time>
      </trkpt>
      <trkpt lat="46.09381" lon="3.93378">
        <ele>339</ele>
        <time>2016-04-20T07:27:12Z</time>
      </trkpt>
      <trkpt lat="46.09356" lon="3.9337">
        <ele>339</ele>
        <time>2016-04-20T07:27:34Z</time>
      </trkpt>
      <trkpt lat="46.0935" lon="3.93351">
        <ele>338</ele>
        <time>2016-04-20T07:27:47Z</time>
      </trkpt>
      <trkpt lat="46.09345" lon="3.93348">
        <ele>338</ele>
        <time>2016-04-20T07:27:53Z</time>
      </trkpt>
      <trkpt lat="46.0933" lon="3.9335">
        <ele>338</ele>
        <time>2016-04-20T07:28:08Z</time>
      </trkpt>
      <trkpt lat="46.09326" lon="3.93351">
        <ele>338</ele>
        <time>2016-04-20T07:28:13Z</time>
      </trkpt>
      <trkpt lat="46.09315" lon="3.93351">
        <ele>338</ele>
        <time>2016-04-20T07:28:24Z</time>
      </trkpt>
      <trkpt lat="46.09251" lon="3.93348">
        <ele>343</ele>
        <time>2016-04-20T07:29:20Z</time>
      </trkpt>
      <trkpt lat="46.09242" lon="3.93337">
        <ele>343</ele>
        <time>2016-04-20T07:29:28Z</time>
      </trkpt>
      <trkpt lat="46.09206" lon="3.93244">
        <ele>348</ele>
        <time>2016-04-20T07:30:35Z</time>
      </trkpt>
      <trkpt lat="46.09194" lon="3.93187">
        <ele>350</ele>
        <time>2016-04-20T07:31:08Z</time>
      </trkpt>
      <trkpt lat="46.09174" lon="3.92891">
        <ele>356</ele>
        <time>2016-04-20T07:34:04Z</time>
      </trkpt>
      <trkpt lat="46.09173" lon="3.92811">
        <ele>356</ele>
        <time>2016-04-20T07:34:54Z</time>
      </trkpt>
      <trkpt lat="46.09169" lon="3.92789">
        <ele>355</ele>
        <time>2016-04-20T07:35:06Z</time>
      </trkpt>
      <trkpt lat="46.09165" lon="3.92733">
        <ele>355</ele>
        <time>2016-04-20T07:35:37Z</time>
      </trkpt>
      <trkpt lat="46.09164" lon="3.92726">
        <ele>355</ele>
        <time>2016-04-20T07:35:41Z</time>
      </trkpt>
      <trkpt lat="46.09166" lon="3.92682">
        <ele>356</ele>
        <time>2016-04-20T07:36:08Z</time>
      </trkpt>
      <trkpt lat="46.09164" lon="3.92647">
        <ele>356</ele>
        <time>2016-04-20T07:36:28Z</time>
      </trkpt>
      <trkpt lat="46.09159" lon="3.92644">
        <ele>356</ele>
        <time>2016-04-20T07:36:32Z</time>
      </trkpt>
      <trkpt lat="46.09052" lon="3.92667">
        <ele>354</ele>
        <time>2016-04-20T07:37:56Z</time>
      </trkpt>
      <trkpt lat="46.09017" lon="3.92667">
        <ele>353</ele>
        <time>2016-04-20T07:38:28Z</time>
      </trkpt>
      <trkpt lat="46.08987" lon="3.92673">
        <ele>352</ele>
        <time>2016-04-20T07:38:58Z</time>
      </trkpt>
      <trkpt lat="46.08874" lon="3.92717">
        <ele>345</ele>
        <time>2016-04-20T07:40:39Z</time>
      </trkpt>
      <trkpt lat="46.08869" lon="3.92716">
        <ele>345</ele>
        <time>2016-04-20T07:40:43Z</time>
      </trkpt>
      <trkpt lat="46.08832" lon="3.92731">
        <ele>344</ele>
        <time>2016-04-20T07:41:21Z</time>
      </trkpt>
      <trkpt lat="46.08827" lon="3.92729">
        <ele>344</ele>
        <time>2016-04-20T07:41:26Z</time>
      </trkpt>
      <trkpt lat="46.0876" lon="3.92724">
        <ele>344</ele>
        <time>2016-04-20T07:42:37Z</time>
      </trkpt>
      <trkpt lat="46.08752" lon="3.92728">
        <ele>343</ele>
        <time>2016-04-20T07:42:49Z</time>
      </trkpt>
      <trkpt lat="46.08749" lon="3.92732">
        <ele>344</ele>
        <time>2016-04-20T07:42:58Z</time>
      </trkpt>
      <trkpt lat="46.08746" lon="3.92734">
        <ele>344</ele>
        <time>2016-04-20T07:43:05Z</time>
      </trkpt>
      <trkpt lat="46.0874" lon="3.92728">
        <ele>345</ele>
        <time>2016-04-20T07:43:21Z</time>
      </trkpt>
      <trkpt lat="46.08702" lon="3.92702">
        <ele>346</ele>
        <time>2016-04-20T07:44:37Z</time>
      </trkpt>
      <trkpt lat="46.08672" lon="3.92688">
        <ele>348</ele>
        <time>2016-04-20T07:45:01Z</time>
      </trkpt>
      <trkpt lat="46.08668" lon="3.92686">
        <ele>347</ele>
        <time>2016-04-20T07:45:05Z</time>
      </trkpt>
      <trkpt lat="46.08642" lon="3.92667">
        <ele>342</ele>
        <time>2016-04-20T07:46:20Z</time>
      </trkpt>
      <trkpt lat="46.08638" lon="3.92665">
        <ele>342</ele>
        <time>2016-04-20T07:46:24Z</time>
      </trkpt>
      <trkpt lat="46.08633" lon="3.9266">
        <ele>342</ele>
        <time>2016-04-20T07:46:29Z</time>
      </trkpt>
      <trkpt lat="46.08591" lon="3.92635">
        <ele>343</ele>
        <time>2016-04-20T07:47:04Z</time>
      </trkpt>
      <trkpt lat="46.08573" lon="3.92646">
        <ele>344</ele>
        <time>2016-04-20T07:47:17Z</time>
      </trkpt>
      <trkpt lat="46.08544" lon="3.92689">
        <ele>343</ele>
        <time>2016-04-20T07:47:51Z</time>
      </trkpt>
      <trkpt lat="46.08512" lon="3.92719">
        <ele>343</ele>
        <time>2016-04-20T07:48:17Z</time>
      </trkpt>
      <trkpt lat="46.08492" lon="3.92712">
        <ele>343</ele>
        <time>2016-04-20T07:48:33Z</time>
      </trkpt>
      <trkpt lat="46.08478" lon="3.92692">
        <ele>344</ele>
        <time>2016-04-20T07:48:49Z</time>
      </trkpt>
      <trkpt lat="46.08405" lon="3.92483">
        <ele>350</ele>
        <time>2016-04-20T07:51:06Z</time>
      </trkpt>
      <trkpt lat="46.08401" lon="3.92464">
        <ele>349</ele>
        <time>2016-04-20T07:51:19Z</time>
      </trkpt>
      <trkpt lat="46.08355" lon="3.92322">
        <ele>355</ele>
        <time>2016-04-20T07:53:04Z</time>
      </trkpt>
      <trkpt lat="46.08352" lon="3.92317">
        <ele>354</ele>
        <time>2016-04-20T07:53:10Z</time>
      </trkpt>
      <trkpt lat="46.08348" lon="3.92321">
        <ele>354</ele>
        <time>2016-04-20T07:53:14Z</time>
      </trkpt>
      <trkpt lat="46.08207" lon="3.92616">
        <ele>348</ele>
        <time>2016-04-20T07:56:41Z</time>
      </trkpt>
      <trkpt lat="46.08178" lon="3.92641">
        <ele>348</ele>
        <time>2016-04-20T07:57:13Z</time>
      </trkpt>
      <trkpt lat="46.08159" lon="3.92651">
        <ele>348</ele>
        <time>2016-04-20T07:57:30Z</time>
      </trkpt>
      <trkpt lat="46.08034" lon="3.92581">
        <ele>356</ele>
        <time>2016-04-20T07:59:38Z</time>
      </trkpt>
      <trkpt lat="46.08" lon="3.92566">
        <ele>357</ele>
        <time>2016-04-20T08:00:09Z</time>
      </trkpt>
      <trkpt lat="46.07985" lon="3.92558">
        <ele>357</ele>
        <time>2016-04-20T08:00:23Z</time>
      </trkpt>
      <trkpt lat="46.0798" lon="3.92555">
        <ele>358</ele>
        <time>2016-04-20T08:00:27Z</time>
      </trkpt>
      <trkpt lat="46.07956" lon="3.92521">
        <ele>359</ele>
        <time>2016-04-20T08:00:56Z</time>
      </trkpt>
      <trkpt lat="46.07954" lon="3.92514">
        <ele>359</ele>
        <time>2016-04-20T08:01:01Z</time>
      </trkpt>
      <trkpt lat="46.07928" lon="3.92477">
        <ele>359</ele>
        <time>2016-04-20T08:01:33Z</time>
      </trkpt>
      <trkpt lat="46.07899" lon="3.9245">
        <ele>359</ele>
        <time>2016-04-20T08:02:05Z</time>
      </trkpt>
      <trkpt lat="46.07864" lon="3.92438">
        <ele>360</ele>
        <time>2016-04-20T08:02:38Z</time>
      </trkpt>
      <trkpt lat="46.07792" lon="3.92431">
        <ele>364</ele>
        <time>2016-04-20T08:04:03Z</time>
      </trkpt>
      <trkpt lat="46.07787" lon="3.92431">
        <ele>364</ele>
        <time>2016-04-20T08:04:09Z</time>
      </trkpt>
      <trkpt lat="46.0774" lon="3.92427">
        <ele>365</ele>
        <time>2016-04-20T08:04:50Z</time>
      </trkpt>
      <trkpt lat="46.07705" lon="3.92419">
        <ele>366</ele>
        <time>2016-04-20T08:05:22Z</time>
      </trkpt>
      <trkpt lat="46.07696" lon="3.92413">
        <ele>366</ele>
        <time>2016-04-20T08:05:31Z</time>
      </trkpt>
      <trkpt lat="46.07686" lon="3.92411">
        <ele>365</ele>
        <time>2016-04-20T08:05:40Z</time>
      </trkpt>
      <trkpt lat="46.07681" lon="3.9239">
        <ele>366</ele>
        <time>2016-04-20T08:05:55Z</time>
      </trkpt>
      <trkpt lat="46.07675" lon="3.92378">
        <ele>366</ele>
        <time>2016-04-20T08:06:03Z</time>
      </trkpt>
      <trkpt lat="46.07665" lon="3.92284">
        <ele>369</ele>
        <time>2016-04-20T08:06:58Z</time>
      </trkpt>
      <trkpt lat="46.07662" lon="3.92279">
        <ele>369</ele>
        <time>2016-04-20T08:07:02Z</time>
      </trkpt>
      <trkpt lat="46.07657" lon="3.92276">
        <ele>369</ele>
        <time>2016-04-20T08:07:07Z</time>
      </trkpt>
      <trkpt lat="46.07642" lon="3.92279">
        <ele>369</ele>
        <time>2016-04-20T08:07:20Z</time>
      </trkpt>
      <trkpt lat="46.07634" lon="3.92288">
        <ele>370</ele>
        <time>2016-04-20T08:07:28Z</time>
      </trkpt>
      <trkpt lat="46.07629" lon="3.92289">
        <ele>369</ele>
        <time>2016-04-20T08:07:32Z</time>
      </trkpt>
      <trkpt lat="46.07624" lon="3.92289">
        <ele>370</ele>
        <time>2016-04-20T08:07:36Z</time>
      </trkpt>
      <trkpt lat="46.07572" lon="3.92299">
        <ele>371</ele>
        <time>2016-04-20T08:08:21Z</time>
      </trkpt>
      <trkpt lat="46.07533" lon="3.92296">
        <ele>371</ele>
        <time>2016-04-20T08:08:54Z</time>
      </trkpt>
      <trkpt lat="46.07459" lon="3.92271">
        <ele>369</ele>
        <time>2016-04-20T08:09:58Z</time>
      </trkpt>
      <trkpt lat="46.07388" lon="3.92258">
        <ele>368</ele>
        <time>2016-04-20T08:11:00Z</time>
      </trkpt>
      <trkpt lat="46.07338" lon="3.92273">
        <ele>367</ele>
        <time>2016-04-20T08:11:43Z</time>
      </trkpt>
      <trkpt lat="46.07334" lon="3.92277">
        <ele>367</ele>
        <time>2016-04-20T08:11:52Z</time>
      </trkpt>
      <trkpt lat="46.07309" lon="3.9228">
        <ele>366</ele>
        <time>2016-04-20T08:12:12Z</time>
      </trkpt>
      <trkpt lat="46.07305" lon="3.92284">
        <ele>367</ele>
        <time>2016-04-20T08:12:16Z</time>
      </trkpt>
      <trkpt lat="46.07266" lon="3.9229">
        <ele>367</ele>
        <time>2016-04-20T08:12:49Z</time>
      </trkpt>
      <trkpt lat="46.07235" lon="3.92285">
        <ele>368</ele>
        <time>2016-04-20T08:13:15Z</time>
      </trkpt>
      <trkpt lat="46.07232" lon="3.9228">
        <ele>368</ele>
        <time>2016-04-20T08:13:19Z</time>
      </trkpt>
      <trkpt lat="46.0721" lon="3.92218">
        <ele>367</ele>
        <time>2016-04-20T08:14:01Z</time>
      </trkpt>
      <trkpt lat="46.07188" lon="3.92181">
        <ele>367</ele>
        <time>2016-04-20T08:14:31Z</time>
      </trkpt>
      <trkpt lat="46.07119" lon="3.92108">
        <ele>373</ele>
        <time>2016-04-20T08:15:53Z</time>
      </trkpt>
      <trkpt lat="46.07103" lon="3.92071">
        <ele>375</ele>
        <time>2016-04-20T08:16:27Z</time>
      </trkpt>
      <trkpt lat="46.07103" lon="3.92064">
        <ele>376</ele>
        <time>2016-04-20T08:16:33Z</time>
      </trkpt>
      <trkpt lat="46.07099" lon="3.92061">
        <ele>376</ele>
        <time>2016-04-20T08:16:37Z</time>
      </trkpt>
      <trkpt lat="46.07072" lon="3.92007">
        <ele>379</ele>
        <time>2016-04-20T08:17:20Z</time>
      </trkpt>
      <trkpt lat="46.07068" lon="3.92003">
        <ele>380</ele>
        <time>2016-04-20T08:17:24Z</time>
      </trkpt>
      <trkpt lat="46.07025" lon="3.91933">
        <ele>386</ele>
        <time>2016-04-20T08:18:24Z</time>
      </trkpt>
      <trkpt lat="46.07022" lon="3.91932">
        <ele>386</ele>
        <time>2016-04-20T08:19:52Z</time>
      </trkpt>
      <trkpt lat="46.07019" lon="3.91928">
        <ele>387</ele>
        <time>2016-04-20T08:20:29Z</time>
      </trkpt>
      <trkpt lat="46.07012" lon="3.91918">
        <ele>388</ele>
        <time>2016-04-20T08:20:39Z</time>
      </trkpt>
      <trkpt lat="46.0701" lon="3.91912">
        <ele>389</ele>
        <time>2016-04-20T08:20:48Z</time>
      </trkpt>
      <trkpt lat="46.06997" lon="3.91899">
        <ele>390</ele>
        <time>2016-04-20T08:21:00Z</time>
      </trkpt>
      <trkpt lat="46.06987" lon="3.91892">
        <ele>391</ele>
        <time>2016-04-20T08:21:09Z</time>
      </trkpt>
      <trkpt lat="46.0698" lon="3.91881">
        <ele>391</ele>
        <time>2016-04-20T08:21:19Z</time>
      </trkpt>
      <trkpt lat="46.06967" lon="3.9187">
        <ele>393</ele>
        <time>2016-04-20T08:21:34Z</time>
      </trkpt>
      <trkpt lat="46.06963" lon="3.91866">
        <ele>393</ele>
        <time>2016-04-20T08:21:38Z</time>
      </trkpt>
      <trkpt lat="46.06959" lon="3.91861">
        <ele>393</ele>
        <time>2016-04-20T08:21:43Z</time>
      </trkpt>
      <trkpt lat="46.06956" lon="3.91855">
        <ele>393</ele>
        <time>2016-04-20T08:21:48Z</time>
      </trkpt>
      <trkpt lat="46.06936" lon="3.91805">
        <ele>395</ele>
        <time>2016-04-20T08:22:23Z</time>
      </trkpt>
      <trkpt lat="46.06928" lon="3.91742">
        <ele>398</ele>
        <time>2016-04-20T08:23:02Z</time>
      </trkpt>
      <trkpt lat="46.06911" lon="3.91697">
        <ele>401</ele>
        <time>2016-04-20T08:23:35Z</time>
      </trkpt>
      <trkpt lat="46.06905" lon="3.91686">
        <ele>402</ele>
        <time>2016-04-20T08:23:44Z</time>
      </trkpt>
      <trkpt lat="46.06901" lon="3.91682">
        <ele>403</ele>
        <time>2016-04-20T08:23:52Z</time>
      </trkpt>
      <trkpt lat="46.06899" lon="3.91676">
        <ele>402</ele>
        <time>2016-04-20T08:23:56Z</time>
      </trkpt>
      <trkpt lat="46.06896" lon="3.91669">
        <ele>402</ele>
        <time>2016-04-20T08:24:00Z</time>
      </trkpt>
      <trkpt lat="46.06894" lon="3.91664">
        <ele>403</ele>
        <time>2016-04-20T08:24:04Z</time>
      </trkpt>
      <trkpt lat="46.06872" lon="3.91614">
        <ele>407</ele>
        <time>2016-04-20T08:24:38Z</time>
      </trkpt>
      <trkpt lat="46.06852" lon="3.91581">
        <ele>410</ele>
        <time>2016-04-20T08:25:06Z</time>
      </trkpt>
      <trkpt lat="46.06837" lon="3.91562">
        <ele>411</ele>
        <time>2016-04-20T08:25:26Z</time>
      </trkpt>
      <trkpt lat="46.0679" lon="3.91529">
        <ele>421</ele>
        <time>2016-04-20T08:26:36Z</time>
      </trkpt>
      <trkpt lat="46.06789" lon="3.91522">
        <ele>422</ele>
        <time>2016-04-20T08:26:41Z</time>
      </trkpt>
      <trkpt lat="46.06789" lon="3.91504">
        <ele>425</ele>
        <time>2016-04-20T08:27:01Z</time>
      </trkpt>
      <trkpt lat="46.06788" lon="3.91497">
        <ele>425</ele>
        <time>2016-04-20T08:27:08Z</time>
      </trkpt>
      <trkpt lat="46.06787" lon="3.91492">
        <ele>424</ele>
        <time>2016-04-20T08:27:16Z</time>
      </trkpt>
      <trkpt lat="46.06782" lon="3.91489">
        <ele>425</ele>
        <time>2016-04-20T08:27:20Z</time>
      </trkpt>
      <trkpt lat="46.06779" lon="3.91481">
        <ele>426</ele>
        <time>2016-04-20T08:27:30Z</time>
      </trkpt>
      <trkpt lat="46.06777" lon="3.91474">
        <ele>426</ele>
        <time>2016-04-20T08:27:34Z</time>
      </trkpt>
      <trkpt lat="46.06772" lon="3.91472">
        <ele>427</ele>
        <time>2016-04-20T08:27:41Z</time>
      </trkpt>
      <trkpt lat="46.06739" lon="3.91458">
        <ele>438</ele>
        <time>2016-04-20T08:28:31Z</time>
      </trkpt>
      <trkpt lat="46.06724" lon="3.91448">
        <ele>446</ele>
        <time>2016-04-20T08:29:01Z</time>
      </trkpt>
      <trkpt lat="46.06711" lon="3.91449">
        <ele>443</ele>
        <time>2016-04-20T08:29:25Z</time>
      </trkpt>
      <trkpt lat="46.06705" lon="3.91446">
        <ele>441</ele>
        <time>2016-04-20T08:29:48Z</time>
      </trkpt>
      <trkpt lat="46.06697" lon="3.91439">
        <ele>441</ele>
        <time>2016-04-20T08:29:56Z</time>
      </trkpt>
      <trkpt lat="46.06683" lon="3.91399">
        <ele>445</ele>
        <time>2016-04-20T08:30:41Z</time>
      </trkpt>
      <trkpt lat="46.06685" lon="3.91392">
        <ele>445</ele>
        <time>2016-04-20T08:30:48Z</time>
      </trkpt>
      <trkpt lat="46.0669" lon="3.91389">
        <ele>445</ele>
        <time>2016-04-20T08:30:52Z</time>
      </trkpt>
      <trkpt lat="46.0669" lon="3.91381">
        <ele>445</ele>
        <time>2016-04-20T08:30:58Z</time>
      </trkpt>
      <trkpt lat="46.06687" lon="3.91358">
        <ele>446</ele>
        <time>2016-04-20T08:31:13Z</time>
      </trkpt>
      <trkpt lat="46.06682" lon="3.91358">
        <ele>446</ele>
        <time>2016-04-20T08:31:15Z</time>
      </trkpt>
      <trkpt lat="46.06678" lon="3.91354">
        <ele>446</ele>
        <time>2016-04-20T08:31:19Z</time>
      </trkpt>
      <trkpt lat="46.06673" lon="3.91346">
        <ele>446</ele>
        <time>2016-04-20T08:31:30Z</time>
      </trkpt>
      <trkpt lat="46.06672" lon="3.91338">
        <ele>448</ele>
        <time>2016-04-20T08:31:53Z</time>
      </trkpt>
      <trkpt lat="46.06676" lon="3.91336">
        <ele>448</ele>
        <time>2016-04-20T08:33:18Z</time>
      </trkpt>
      <trkpt lat="46.0668" lon="3.91339">
        <ele>448</ele>
        <time>2016-04-20T08:34:29Z</time>
      </trkpt>
      <trkpt lat="46.06693" lon="3.91367">
        <ele>449</ele>
        <time>2016-04-20T08:38:47Z</time>
      </trkpt>
      <trkpt lat="46.06705" lon="3.91355">
        <ele>448</ele>
        <time>2016-04-20T08:39:42Z</time>
      </trkpt>
      <trkpt lat="46.06687" lon="3.91351">
        <ele>449</ele>
        <time>2016-04-20T08:40:04Z</time>
      </trkpt>
      <trkpt lat="46.06684" lon="3.91344">
        <ele>449</ele>
        <time>2016-04-20T08:41:37Z</time>
      </trkpt>
      <trkpt lat="46.06671" lon="3.91334">
        <ele>449</ele>
        <time>2016-04-20T08:42:04Z</time>
      </trkpt>
      <trkpt lat="46.06678" lon="3.9134">
        <ele>445</ele>
        <time>2016-04-20T08:43:06Z</time>
      </trkpt>
      <trkpt lat="46.06689" lon="3.91362">
        <ele>447</ele>
        <time>2016-04-20T08:43:23Z</time>
      </trkpt>
      <trkpt lat="46.06696" lon="3.91371">
        <ele>446</ele>
        <time>2016-04-20T08:43:32Z</time>
      </trkpt>
      <trkpt lat="46.067" lon="3.9137">
        <ele>446</ele>
        <time>2016-04-20T08:43:40Z</time>
      </trkpt>
      <trkpt lat="46.06703" lon="3.91366">
        <ele>446</ele>
        <time>2016-04-20T08:43:46Z</time>
      </trkpt>
      <trkpt lat="46.067" lon="3.91359">
        <ele>448</ele>
        <time>2016-04-20T08:43:58Z</time>
      </trkpt>
      <trkpt lat="46.067" lon="3.91355">
        <ele>450</ele>
        <time>2016-04-20T08:44:05Z</time>
      </trkpt>
      <trkpt lat="46.06701" lon="3.91351">
        <ele>450</ele>
        <time>2016-04-20T08:44:16Z</time>
      </trkpt>
      <trkpt lat="46.067" lon="3.91344">
        <ele>450</ele>
        <time>2016-04-20T08:44:24Z</time>
      </trkpt>
      <trkpt lat="46.06704" lon="3.9134">
        <ele>450</ele>
        <time>2016-04-20T08:44:32Z</time>
      </trkpt>
      <trkpt lat="46.06706" lon="3.91341">
        <ele>450</ele>
        <time>2016-04-20T08:44:55Z</time>
      </trkpt>
      <trkpt lat="46.0671" lon="3.91334">
        <ele>450</ele>
        <time>2016-04-20T08:45:09Z</time>
      </trkpt>
      <trkpt lat="46.06709" lon="3.91328">
        <ele>450</ele>
        <time>2016-04-20T08:45:38Z</time>
      </trkpt>
      <trkpt lat="46.06707" lon="3.91322">
        <ele>450</ele>
        <time>2016-04-20T08:45:47Z</time>
      </trkpt>
      <trkpt lat="46.06706" lon="3.91314">
        <ele>450</ele>
        <time>2016-04-20T08:45:55Z</time>
      </trkpt>
      <trkpt lat="46.06704" lon="3.91317">
        <ele>449</ele>
        <time>2016-04-20T08:46:20Z</time>
      </trkpt>
      <trkpt lat="46.06707" lon="3.91322">
        <ele>449</ele>
        <time>2016-04-20T08:46:33Z</time>
      </trkpt>
      <trkpt lat="46.06708" lon="3.91329">
        <ele>449</ele>
        <time>2016-04-20T08:46:40Z</time>
      </trkpt>
      <trkpt lat="46.06707" lon="3.91336">
        <ele>449</ele>
        <time>2016-04-20T08:46:45Z</time>
      </trkpt>
      <trkpt lat="46.06702" lon="3.91348">
        <ele>449</ele>
        <time>2016-04-20T08:46:55Z</time>
      </trkpt>
      <trkpt lat="46.06702" lon="3.91362">
        <ele>448</ele>
        <time>2016-04-20T08:47:11Z</time>
      </trkpt>
      <trkpt lat="46.06684" lon="3.91389">
        <ele>442</ele>
        <time>2016-04-20T08:47:46Z</time>
      </trkpt>
      <trkpt lat="46.06679" lon="3.91384">
        <ele>442</ele>
        <time>2016-04-20T08:47:52Z</time>
      </trkpt>
      <trkpt lat="46.0668" lon="3.91377">
        <ele>441</ele>
        <time>2016-04-20T08:47:55Z</time>
      </trkpt>
      <trkpt lat="46.06671" lon="3.91384">
        <ele>442</ele>
        <time>2016-04-20T08:48:40Z</time>
      </trkpt>
      <trkpt lat="46.06651" lon="3.91377">
        <ele>442</ele>
        <time>2016-04-20T08:49:08Z</time>
      </trkpt>
      <trkpt lat="46.06649" lon="3.91385">
        <ele>441</ele>
        <time>2016-04-20T08:49:32Z</time>
      </trkpt>
      <trkpt lat="46.06651" lon="3.91393">
        <ele>441</ele>
        <time>2016-04-20T08:49:38Z</time>
      </trkpt>
      <trkpt lat="46.06648" lon="3.91398">
        <ele>441</ele>
        <time>2016-04-20T08:49:42Z</time>
      </trkpt>
      <trkpt lat="46.06645" lon="3.91399">
        <ele>440</ele>
        <time>2016-04-20T08:49:49Z</time>
      </trkpt>
      <trkpt lat="46.06637" lon="3.91408">
        <ele>439</ele>
        <time>2016-04-20T08:50:04Z</time>
      </trkpt>
      <trkpt lat="46.06626" lon="3.91411">
        <ele>442</ele>
        <time>2016-04-20T08:50:16Z</time>
      </trkpt>
      <trkpt lat="46.06622" lon="3.91414">
        <ele>441</ele>
        <time>2016-04-20T08:50:21Z</time>
      </trkpt>
      <trkpt lat="46.06618" lon="3.91418">
        <ele>440</ele>
        <time>2016-04-20T08:50:27Z</time>
      </trkpt>
      <trkpt lat="46.06617" lon="3.91425">
        <ele>438</ele>
        <time>2016-04-20T08:50:33Z</time>
      </trkpt>
      <trkpt lat="46.0662" lon="3.91432">
        <ele>437</ele>
        <time>2016-04-20T08:50:37Z</time>
      </trkpt>
      <trkpt lat="46.06636" lon="3.91448">
        <ele>435</ele>
        <time>2016-04-20T08:50:52Z</time>
      </trkpt>
      <trkpt lat="46.06639" lon="3.91453">
        <ele>435</ele>
        <time>2016-04-20T08:50:56Z</time>
      </trkpt>
      <trkpt lat="46.06641" lon="3.91459">
        <ele>436</ele>
        <time>2016-04-20T08:51:00Z</time>
      </trkpt>
      <trkpt lat="46.06644" lon="3.91457">
        <ele>436</ele>
        <time>2016-04-20T08:51:33Z</time>
      </trkpt>
      <trkpt lat="46.06647" lon="3.91454">
        <ele>436</ele>
        <time>2016-04-20T08:51:43Z</time>
      </trkpt>
      <trkpt lat="46.06647" lon="3.91458">
        <ele>439</ele>
        <time>2016-04-20T08:55:49Z</time>
      </trkpt>
      <trkpt lat="46.06644" lon="3.91463">
        <ele>439</ele>
        <time>2016-04-20T08:55:54Z</time>
      </trkpt>
      <trkpt lat="46.06622" lon="3.91478">
        <ele>436</ele>
        <time>2016-04-20T08:56:16Z</time>
      </trkpt>
      <trkpt lat="46.06616" lon="3.91474">
        <ele>436</ele>
        <time>2016-04-20T08:57:01Z</time>
      </trkpt>
      <trkpt lat="46.06614" lon="3.91477">
        <ele>436</ele>
        <time>2016-04-20T08:57:34Z</time>
      </trkpt>
      <trkpt lat="46.06609" lon="3.91476">
        <ele>436</ele>
        <time>2016-04-20T08:57:38Z</time>
      </trkpt>
      <trkpt lat="46.06604" lon="3.91476">
        <ele>436</ele>
        <time>2016-04-20T08:57:42Z</time>
      </trkpt>
      <trkpt lat="46.06598" lon="3.91496">
        <ele>434</ele>
        <time>2016-04-20T08:57:56Z</time>
      </trkpt>
      <trkpt lat="46.06599" lon="3.91503">
        <ele>433</ele>
        <time>2016-04-20T08:58:01Z</time>
      </trkpt>
      <trkpt lat="46.06592" lon="3.91513">
        <ele>432</ele>
        <time>2016-04-20T08:58:12Z</time>
      </trkpt>
      <trkpt lat="46.06593" lon="3.91521">
        <ele>432</ele>
        <time>2016-04-20T08:58:16Z</time>
      </trkpt>
      <trkpt lat="46.06589" lon="3.91533">
        <ele>430</ele>
        <time>2016-04-20T08:58:26Z</time>
      </trkpt>
      <trkpt lat="46.06591" lon="3.91542">
        <ele>431</ele>
        <time>2016-04-20T08:58:33Z</time>
      </trkpt>
      <trkpt lat="46.06592" lon="3.91545">
        <ele>430</ele>
        <time>2016-04-20T08:58:39Z</time>
      </trkpt>
      <trkpt lat="46.06585" lon="3.91559">
        <ele>428</ele>
        <time>2016-04-20T08:59:10Z</time>
      </trkpt>
      <trkpt lat="46.06577" lon="3.91567">
        <ele>426</ele>
        <time>2016-04-20T08:59:18Z</time>
      </trkpt>
      <trkpt lat="46.0656" lon="3.91604">
        <ele>422</ele>
        <time>2016-04-20T08:59:49Z</time>
      </trkpt>
      <trkpt lat="46.06553" lon="3.91614">
        <ele>420</ele>
        <time>2016-04-20T09:00:01Z</time>
      </trkpt>
      <trkpt lat="46.06552" lon="3.91619">
        <ele>419</ele>
        <time>2016-04-20T09:00:10Z</time>
      </trkpt>
      <trkpt lat="46.06528" lon="3.9165">
        <ele>415</ele>
        <time>2016-04-20T09:00:47Z</time>
      </trkpt>
      <trkpt lat="46.06524" lon="3.91664">
        <ele>413</ele>
        <time>2016-04-20T09:01:12Z</time>
      </trkpt>
      <trkpt lat="46.06495" lon="3.91692">
        <ele>411</ele>
        <time>2016-04-20T09:01:42Z</time>
      </trkpt>
      <trkpt lat="46.0649" lon="3.91695">
        <ele>411</ele>
        <time>2016-04-20T09:01:46Z</time>
      </trkpt>
      <trkpt lat="46.0647" lon="3.91716">
        <ele>410</ele>
        <time>2016-04-20T09:02:17Z</time>
      </trkpt>
      <trkpt lat="46.06465" lon="3.91716">
        <ele>410</ele>
        <time>2016-04-20T09:02:21Z</time>
      </trkpt>
      <trkpt lat="46.06463" lon="3.9171">
        <ele>409</ele>
        <time>2016-04-20T09:02:27Z</time>
      </trkpt>
      <trkpt lat="46.06462" lon="3.91681">
        <ele>410</ele>
        <time>2016-04-20T09:02:45Z</time>
      </trkpt>
      <trkpt lat="46.06444" lon="3.9165">
        <ele>412</ele>
        <time>2016-04-20T09:03:08Z</time>
      </trkpt>
      <trkpt lat="46.06443" lon="3.91637">
        <ele>412</ele>
        <time>2016-04-20T09:03:29Z</time>
      </trkpt>
      <trkpt lat="46.06437" lon="3.91628">
        <ele>413</ele>
        <time>2016-04-20T09:03:34Z</time>
      </trkpt>
      <trkpt lat="46.06438" lon="3.91607">
        <ele>414</ele>
        <time>2016-04-20T09:03:47Z</time>
      </trkpt>
      <trkpt lat="46.06437" lon="3.91603">
        <ele>415</ele>
        <time>2016-04-20T09:04:10Z</time>
      </trkpt>
      <trkpt lat="46.06372" lon="3.91608">
        <ele>424</ele>
        <time>2016-04-20T09:05:15Z</time>
      </trkpt>
      <trkpt lat="46.06353" lon="3.91607">
        <ele>425</ele>
        <time>2016-04-20T09:05:33Z</time>
      </trkpt>
      <trkpt lat="46.06349" lon="3.91603">
        <ele>425</ele>
        <time>2016-04-20T09:05:38Z</time>
      </trkpt>
      <trkpt lat="46.06348" lon="3.91596">
        <ele>426</ele>
        <time>2016-04-20T09:05:47Z</time>
      </trkpt>
      <trkpt lat="46.06348" lon="3.91593">
        <ele>426</ele>
        <time>2016-04-20T09:05:53Z</time>
      </trkpt>
      <trkpt lat="46.06349" lon="3.91586">
        <ele>426</ele>
        <time>2016-04-20T09:05:58Z</time>
      </trkpt>
      <trkpt lat="46.06348" lon="3.91579">
        <ele>425</ele>
        <time>2016-04-20T09:06:02Z</time>
      </trkpt>
      <trkpt lat="46.06345" lon="3.91565">
        <ele>426</ele>
        <time>2016-04-20T09:06:11Z</time>
      </trkpt>
      <trkpt lat="46.06346" lon="3.91558">
        <ele>427</ele>
        <time>2016-04-20T09:06:15Z</time>
      </trkpt>
      <trkpt lat="46.06346" lon="3.91552">
        <ele>427</ele>
        <time>2016-04-20T09:06:19Z</time>
      </trkpt>
      <trkpt lat="46.06348" lon="3.91502">
        <ele>431</ele>
        <time>2016-04-20T09:06:51Z</time>
      </trkpt>
      <trkpt lat="46.0635" lon="3.91496">
        <ele>431</ele>
        <time>2016-04-20T09:06:56Z</time>
      </trkpt>
      <trkpt lat="46.06344" lon="3.91422">
        <ele>432</ele>
        <time>2016-04-20T09:07:59Z</time>
      </trkpt>
      <trkpt lat="46.06341" lon="3.91417">
        <ele>432</ele>
        <time>2016-04-20T09:08:03Z</time>
      </trkpt>
      <trkpt lat="46.06337" lon="3.91416">
        <ele>432</ele>
        <time>2016-04-20T09:08:07Z</time>
      </trkpt>
      <trkpt lat="46.06333" lon="3.91418">
        <ele>432</ele>
        <time>2016-04-20T09:08:12Z</time>
      </trkpt>
      <trkpt lat="46.06328" lon="3.91418">
        <ele>433</ele>
        <time>2016-04-20T09:08:30Z</time>
      </trkpt>
      <trkpt lat="46.06293" lon="3.91442">
        <ele>437</ele>
        <time>2016-04-20T09:09:03Z</time>
      </trkpt>
      <trkpt lat="46.06254" lon="3.91457">
        <ele>440</ele>
        <time>2016-04-20T09:09:38Z</time>
      </trkpt>
      <trkpt lat="46.06225" lon="3.91473">
        <ele>442</ele>
        <time>2016-04-20T09:10:14Z</time>
      </trkpt>
      <trkpt lat="46.06147" lon="3.91539">
        <ele>448</ele>
        <time>2016-04-20T09:11:38Z</time>
      </trkpt>
      <trkpt lat="46.06143" lon="3.91544">
        <ele>447</ele>
        <time>2016-04-20T09:11:44Z</time>
      </trkpt>
      <trkpt lat="46.06138" lon="3.91548">
        <ele>447</ele>
        <time>2016-04-20T09:11:49Z</time>
      </trkpt>
      <trkpt lat="46.06134" lon="3.9155">
        <ele>448</ele>
        <time>2016-04-20T09:11:53Z</time>
      </trkpt>
      <trkpt lat="46.06113" lon="3.91555">
        <ele>448</ele>
        <time>2016-04-20T09:12:13Z</time>
      </trkpt>
      <trkpt lat="46.0609" lon="3.91546">
        <ele>444</ele>
        <time>2016-04-20T09:12:44Z</time>
      </trkpt>
      <trkpt lat="46.06057" lon="3.9153">
        <ele>439</ele>
        <time>2016-04-20T09:13:18Z</time>
      </trkpt>
      <trkpt lat="46.05999" lon="3.91527">
        <ele>424</ele>
        <time>2016-04-20T09:14:23Z</time>
      </trkpt>
      <trkpt lat="46.05975" lon="3.91517">
        <ele>419</ele>
        <time>2016-04-20T09:14:47Z</time>
      </trkpt>
      <trkpt lat="46.05972" lon="3.91513">
        <ele>418</ele>
        <time>2016-04-20T09:14:51Z</time>
      </trkpt>
      <trkpt lat="46.05967" lon="3.91512">
        <ele>418</ele>
        <time>2016-04-20T09:14:55Z</time>
      </trkpt>
      <trkpt lat="46.05961" lon="3.91514">
        <ele>418</ele>
        <time>2016-04-20T09:14:59Z</time>
      </trkpt>
      <trkpt lat="46.05939" lon="3.91541">
        <ele>417</ele>
        <time>2016-04-20T09:15:24Z</time>
      </trkpt>
      <trkpt lat="46.05938" lon="3.91544">
        <ele>417</ele>
        <time>2016-04-20T09:15:30Z</time>
      </trkpt>
      <trkpt lat="46.05908" lon="3.9157">
        <ele>419</ele>
        <time>2016-04-20T09:16:11Z</time>
      </trkpt>
      <trkpt lat="46.05888" lon="3.91575">
        <ele>420</ele>
        <time>2016-04-20T09:16:27Z</time>
      </trkpt>
      <trkpt lat="46.05856" lon="3.91579">
        <ele>421</ele>
        <time>2016-04-20T09:16:59Z</time>
      </trkpt>
      <trkpt lat="46.05817" lon="3.91592">
        <ele>423</ele>
        <time>2016-04-20T09:17:33Z</time>
      </trkpt>
      <trkpt lat="46.05781" lon="3.91598">
        <ele>425</ele>
        <time>2016-04-20T09:18:05Z</time>
      </trkpt>
      <trkpt lat="46.05747" lon="3.91608">
        <ele>428</ele>
        <time>2016-04-20T09:18:36Z</time>
      </trkpt>
      <trkpt lat="46.05597" lon="3.91693">
        <ele>442</ele>
        <time>2016-04-20T09:21:08Z</time>
      </trkpt>
      <trkpt lat="46.05547" lon="3.91709">
        <ele>442</ele>
        <time>2016-04-20T09:21:57Z</time>
      </trkpt>
      <trkpt lat="46.05542" lon="3.9171">
        <ele>442</ele>
        <time>2016-04-20T09:22:02Z</time>
      </trkpt>
      <trkpt lat="46.05502" lon="3.91708">
        <ele>433</ele>
        <time>2016-04-20T09:22:52Z</time>
      </trkpt>
      <trkpt lat="46.05473" lon="3.91705">
        <ele>427</ele>
        <time>2016-04-20T09:23:23Z</time>
      </trkpt>
      <trkpt lat="46.05447" lon="3.91709">
        <ele>424</ele>
        <time>2016-04-20T09:23:54Z</time>
      </trkpt>
      <trkpt lat="46.05417" lon="3.91718">
        <ele>422</ele>
        <time>2016-04-20T09:24:21Z</time>
      </trkpt>
      <trkpt lat="46.05405" lon="3.9173">
        <ele>422</ele>
        <time>2016-04-20T09:24:35Z</time>
      </trkpt>
      <trkpt lat="46.05405" lon="3.91737">
        <ele>422</ele>
        <time>2016-04-20T09:24:41Z</time>
      </trkpt>
      <trkpt lat="46.05409" lon="3.91795">
        <ele>424</ele>
        <time>2016-04-20T09:25:17Z</time>
      </trkpt>
      <trkpt lat="46.05415" lon="3.91844">
        <ele>425</ele>
        <time>2016-04-20T09:25:48Z</time>
      </trkpt>
      <trkpt lat="46.05418" lon="3.91852">
        <ele>425</ele>
        <time>2016-04-20T09:26:28Z</time>
      </trkpt>
      <trkpt lat="46.05431" lon="3.91916">
        <ele>423</ele>
        <time>2016-04-20T09:27:05Z</time>
      </trkpt>
      <trkpt lat="46.05431" lon="3.91922">
        <ele>423</ele>
        <time>2016-04-20T09:27:10Z</time>
      </trkpt>
      <trkpt lat="46.0543" lon="3.91936">
        <ele>423</ele>
        <time>2016-04-20T09:27:23Z</time>
      </trkpt>
      <trkpt lat="46.0543" lon="3.92013">
        <ele>427</ele>
        <time>2016-04-20T09:28:22Z</time>
      </trkpt>
      <trkpt lat="46.05423" lon="3.92023">
        <ele>428</ele>
        <time>2016-04-20T09:28:32Z</time>
      </trkpt>
      <trkpt lat="46.05395" lon="3.92038">
        <ele>431</ele>
        <time>2016-04-20T09:29:05Z</time>
      </trkpt>
      <trkpt lat="46.0539" lon="3.92051">
        <ele>430</ele>
        <time>2016-04-20T09:29:13Z</time>
      </trkpt>
      <trkpt lat="46.05377" lon="3.92063">
        <ele>431</ele>
        <time>2016-04-20T09:29:25Z</time>
      </trkpt>
      <trkpt lat="46.05316" lon="3.921">
        <ele>433</ele>
        <time>2016-04-20T09:30:23Z</time>
      </trkpt>
      <trkpt lat="46.05311" lon="3.92102">
        <ele>432</ele>
        <time>2016-04-20T09:30:28Z</time>
      </trkpt>
      <trkpt lat="46.05306" lon="3.92104">
        <ele>433</ele>
        <time>2016-04-20T09:30:32Z</time>
      </trkpt>
      <trkpt lat="46.05302" lon="3.92107">
        <ele>433</ele>
        <time>2016-04-20T09:30:36Z</time>
      </trkpt>
      <trkpt lat="46.05293" lon="3.92112">
        <ele>432</ele>
        <time>2016-04-20T09:30:45Z</time>
      </trkpt>
      <trkpt lat="46.05283" lon="3.92114">
        <ele>431</ele>
        <time>2016-04-20T09:30:56Z</time>
      </trkpt>
      <trkpt lat="46.0528" lon="3.92109">
        <ele>431</ele>
        <time>2016-04-20T09:31:01Z</time>
      </trkpt>
      <trkpt lat="46.05275" lon="3.92105">
        <ele>431</ele>
        <time>2016-04-20T09:31:07Z</time>
      </trkpt>
      <trkpt lat="46.0527" lon="3.92093">
        <ele>432</ele>
        <time>2016-04-20T09:31:17Z</time>
      </trkpt>
      <trkpt lat="46.05275" lon="3.92097">
        <ele>433</ele>
        <time>2016-04-20T09:31:51Z</time>
      </trkpt>
      <trkpt lat="46.05279" lon="3.92103">
        <ele>433</ele>
        <time>2016-04-20T09:31:55Z</time>
      </trkpt>
      <trkpt lat="46.05282" lon="3.92109">
        <ele>432</ele>
        <time>2016-04-20T09:32:00Z</time>
      </trkpt>
      <trkpt lat="46.0528" lon="3.92115">
        <ele>432</ele>
        <time>2016-04-20T09:32:06Z</time>
      </trkpt>
      <trkpt lat="46.05277" lon="3.92117">
        <ele>432</ele>
        <time>2016-04-20T09:32:14Z</time>
      </trkpt>
      <trkpt lat="46.05256" lon="3.92119">
        <ele>429</ele>
        <time>2016-04-20T09:32:44Z</time>
      </trkpt>
      <trkpt lat="46.05224" lon="3.9211">
        <ele>424</ele>
        <time>2016-04-20T09:33:35Z</time>
      </trkpt>
      <trkpt lat="46.05219" lon="3.92111">
        <ele>424</ele>
        <time>2016-04-20T09:33:39Z</time>
      </trkpt>
      <trkpt lat="46.05181" lon="3.92127">
        <ele>420</ele>
        <time>2016-04-20T09:34:09Z</time>
      </trkpt>
      <trkpt lat="46.05172" lon="3.92132">
        <ele>418</ele>
        <time>2016-04-20T09:34:18Z</time>
      </trkpt>
      <trkpt lat="46.05152" lon="3.92139">
        <ele>418</ele>
        <time>2016-04-20T09:34:38Z</time>
      </trkpt>
      <trkpt lat="46.05128" lon="3.92164">
        <ele>402</ele>
        <time>2016-04-20T09:35:08Z</time>
      </trkpt>
      <trkpt lat="46.05125" lon="3.92163">
        <ele>401</ele>
        <time>2016-04-20T09:35:16Z</time>
      </trkpt>
      <trkpt lat="46.05118" lon="3.92167">
        <ele>405</ele>
        <time>2016-04-20T09:35:29Z</time>
      </trkpt>
      <trkpt lat="46.05117" lon="3.92175">
        <ele>406</ele>
        <time>2016-04-20T09:35:35Z</time>
      </trkpt>
      <trkpt lat="46.05122" lon="3.92189">
        <ele>405</ele>
        <time>2016-04-20T09:35:44Z</time>
      </trkpt>
      <trkpt lat="46.05125" lon="3.92195">
        <ele>405</ele>
        <time>2016-04-20T09:35:48Z</time>
      </trkpt>
      <trkpt lat="46.05123" lon="3.92199">
        <ele>408</ele>
        <time>2016-04-20T09:35:55Z</time>
      </trkpt>
      <trkpt lat="46.05119" lon="3.92203">
        <ele>405</ele>
        <time>2016-04-20T09:36:02Z</time>
      </trkpt>
      <trkpt lat="46.05118" lon="3.92209">
        <ele>400</ele>
        <time>2016-04-20T09:36:09Z</time>
      </trkpt>
      <trkpt lat="46.0512" lon="3.92222">
        <ele>398</ele>
        <time>2016-04-20T09:36:17Z</time>
      </trkpt>
      <trkpt lat="46.05122" lon="3.92229">
        <ele>400</ele>
        <time>2016-04-20T09:36:22Z</time>
      </trkpt>
      <trkpt lat="46.05127" lon="3.9223">
        <ele>402</ele>
        <time>2016-04-20T09:36:26Z</time>
      </trkpt>
      <trkpt lat="46.0513" lon="3.92236">
        <ele>402</ele>
        <time>2016-04-20T09:36:30Z</time>
      </trkpt>
      <trkpt lat="46.05134" lon="3.92241">
        <ele>402</ele>
        <time>2016-04-20T09:36:34Z</time>
      </trkpt>
      <trkpt lat="46.05136" lon="3.92247">
        <ele>402</ele>
        <time>2016-04-20T09:36:38Z</time>
      </trkpt>
      <trkpt lat="46.05137" lon="3.92269">
        <ele>401</ele>
        <time>2016-04-20T09:36:50Z</time>
      </trkpt>
      <trkpt lat="46.05142" lon="3.92281">
        <ele>402</ele>
        <time>2016-04-20T09:36:58Z</time>
      </trkpt>
      <trkpt lat="46.05151" lon="3.92291">
        <ele>402</ele>
        <time>2016-04-20T09:37:06Z</time>
      </trkpt>
      <trkpt lat="46.05157" lon="3.92333">
        <ele>401</ele>
        <time>2016-04-20T09:37:32Z</time>
      </trkpt>
      <trkpt lat="46.05156" lon="3.92346">
        <ele>398</ele>
        <time>2016-04-20T09:37:38Z</time>
      </trkpt>
      <trkpt lat="46.05165" lon="3.92399">
        <ele>396</ele>
        <time>2016-04-20T09:38:08Z</time>
      </trkpt>
      <trkpt lat="46.05177" lon="3.92431">
        <ele>395</ele>
        <time>2016-04-20T09:38:31Z</time>
      </trkpt>
      <trkpt lat="46.05183" lon="3.92498">
        <ele>391</ele>
        <time>2016-04-20T09:39:06Z</time>
      </trkpt>
      <trkpt lat="46.05182" lon="3.92506">
        <ele>391</ele>
        <time>2016-04-20T09:39:11Z</time>
      </trkpt>
      <trkpt lat="46.05194" lon="3.92541">
        <ele>389</ele>
        <time>2016-04-20T09:39:34Z</time>
      </trkpt>
      <trkpt lat="46.05196" lon="3.92543">
        <ele>388</ele>
        <time>2016-04-20T09:39:41Z</time>
      </trkpt>
      <trkpt lat="46.05206" lon="3.92547">
        <ele>389</ele>
        <time>2016-04-20T09:40:01Z</time>
      </trkpt>
      <trkpt lat="46.05209" lon="3.92554">
        <ele>389</ele>
        <time>2016-04-20T09:40:05Z</time>
      </trkpt>
      <trkpt lat="46.05208" lon="3.92612">
        <ele>389</ele>
        <time>2016-04-20T09:40:47Z</time>
      </trkpt>
      <trkpt lat="46.05203" lon="3.92625">
        <ele>390</ele>
        <time>2016-04-20T09:40:56Z</time>
      </trkpt>
      <trkpt lat="46.05204" lon="3.92623">
        <ele>388</ele>
        <time>2016-04-20T09:42:21Z</time>
      </trkpt>
      <trkpt lat="46.05202" lon="3.92595">
        <ele>386</ele>
        <time>2016-04-20T09:42:40Z</time>
      </trkpt>
      <trkpt lat="46.05198" lon="3.92591">
        <ele>386</ele>
        <time>2016-04-20T09:42:45Z</time>
      </trkpt>
      <trkpt lat="46.05178" lon="3.9255">
        <ele>387</ele>
        <time>2016-04-20T09:43:15Z</time>
      </trkpt>
      <trkpt lat="46.05161" lon="3.92523">
        <ele>387</ele>
        <time>2016-04-20T09:43:38Z</time>
      </trkpt>
      <trkpt lat="46.05158" lon="3.92525">
        <ele>389</ele>
        <time>2016-04-20T09:43:53Z</time>
      </trkpt>
      <trkpt lat="46.05156" lon="3.92521">
        <ele>388</ele>
        <time>2016-04-20T10:01:14Z</time>
      </trkpt>
      <trkpt lat="46.05152" lon="3.92516">
        <ele>388</ele>
        <time>2016-04-20T10:01:19Z</time>
      </trkpt>
      <trkpt lat="46.05149" lon="3.92511">
        <ele>387</ele>
        <time>2016-04-20T10:01:24Z</time>
      </trkpt>
      <trkpt lat="46.05149" lon="3.92503">
        <ele>387</ele>
        <time>2016-04-20T10:01:30Z</time>
      </trkpt>
      <trkpt lat="46.05145" lon="3.92498">
        <ele>387</ele>
        <time>2016-04-20T10:01:35Z</time>
      </trkpt>
      <trkpt lat="46.0514" lon="3.92485">
        <ele>387</ele>
        <time>2016-04-20T10:01:48Z</time>
      </trkpt>
      <trkpt lat="46.05127" lon="3.92468">
        <ele>387</ele>
        <time>2016-04-20T10:02:18Z</time>
      </trkpt>
      <trkpt lat="46.0512" lon="3.9244">
        <ele>387</ele>
        <time>2016-04-20T10:02:36Z</time>
      </trkpt>
      <trkpt lat="46.05117" lon="3.92435">
        <ele>388</ele>
        <time>2016-04-20T10:02:40Z</time>
      </trkpt>
      <trkpt lat="46.05117" lon="3.92428">
        <ele>389</ele>
        <time>2016-04-20T10:02:44Z</time>
      </trkpt>
      <trkpt lat="46.05113" lon="3.92423">
        <ele>389</ele>
        <time>2016-04-20T10:02:48Z</time>
      </trkpt>
      <trkpt lat="46.05108" lon="3.92403">
        <ele>391</ele>
        <time>2016-04-20T10:03:01Z</time>
      </trkpt>
      <trkpt lat="46.05105" lon="3.92397">
        <ele>391</ele>
        <time>2016-04-20T10:03:05Z</time>
      </trkpt>
      <trkpt lat="46.05105" lon="3.9239">
        <ele>391</ele>
        <time>2016-04-20T10:03:10Z</time>
      </trkpt>
      <trkpt lat="46.05102" lon="3.92377">
        <ele>391</ele>
        <time>2016-04-20T10:03:18Z</time>
      </trkpt>
      <trkpt lat="46.05102" lon="3.9237">
        <ele>391</ele>
        <time>2016-04-20T10:03:23Z</time>
      </trkpt>
      <trkpt lat="46.0508" lon="3.92273">
        <ele>390</ele>
        <time>2016-04-20T10:04:23Z</time>
      </trkpt>
      <trkpt lat="46.05082" lon="3.92204">
        <ele>392</ele>
        <time>2016-04-20T10:05:06Z</time>
      </trkpt>
      <trkpt lat="46.05077" lon="3.92203">
        <ele>392</ele>
        <time>2016-04-20T10:05:10Z</time>
      </trkpt>
      <trkpt lat="46.05062" lon="3.92205">
        <ele>390</ele>
        <time>2016-04-20T10:05:24Z</time>
      </trkpt>
      <trkpt lat="46.05057" lon="3.92201">
        <ele>390</ele>
        <time>2016-04-20T10:05:29Z</time>
      </trkpt>
      <trkpt lat="46.05052" lon="3.92204">
        <ele>389</ele>
        <time>2016-04-20T10:05:33Z</time>
      </trkpt>
      <trkpt lat="46.05048" lon="3.92209">
        <ele>389</ele>
        <time>2016-04-20T10:05:37Z</time>
      </trkpt>
      <trkpt lat="46.05044" lon="3.92211">
        <ele>389</ele>
        <time>2016-04-20T10:05:41Z</time>
      </trkpt>
      <trkpt lat="46.05013" lon="3.92219">
        <ele>385</ele>
        <time>2016-04-20T10:06:13Z</time>
      </trkpt>
      <trkpt lat="46.05011" lon="3.92213">
        <ele>385</ele>
        <time>2016-04-20T10:06:17Z</time>
      </trkpt>
      <trkpt lat="46.0501" lon="3.92205">
        <ele>385</ele>
        <time>2016-04-20T10:06:22Z</time>
      </trkpt>
      <trkpt lat="46.05014" lon="3.92152">
        <ele>384</ele>
        <time>2016-04-20T10:06:55Z</time>
      </trkpt>
      <trkpt lat="46.05016" lon="3.92145">
        <ele>384</ele>
        <time>2016-04-20T10:07:01Z</time>
      </trkpt>
      <trkpt lat="46.05013" lon="3.92137">
        <ele>383</ele>
        <time>2016-04-20T10:07:07Z</time>
      </trkpt>
      <trkpt lat="46.04998" lon="3.92099">
        <ele>379</ele>
        <time>2016-04-20T10:07:38Z</time>
      </trkpt>
      <trkpt lat="46.04975" lon="3.92069">
        <ele>375</ele>
        <time>2016-04-20T10:08:20Z</time>
      </trkpt>
      <trkpt lat="46.04963" lon="3.92058">
        <ele>375</ele>
        <time>2016-04-20T10:08:55Z</time>
      </trkpt>
      <trkpt lat="46.04956" lon="3.92048">
        <ele>374</ele>
        <time>2016-04-20T10:09:07Z</time>
      </trkpt>
      <trkpt lat="46.04951" lon="3.92045">
        <ele>374</ele>
        <time>2016-04-20T10:09:12Z</time>
      </trkpt>
      <trkpt lat="46.04947" lon="3.92043">
        <ele>375</ele>
        <time>2016-04-20T10:09:16Z</time>
      </trkpt>
      <trkpt lat="46.04911" lon="3.92047">
        <ele>376</ele>
        <time>2016-04-20T10:09:46Z</time>
      </trkpt>
      <trkpt lat="46.04898" lon="3.92057">
        <ele>375</ele>
        <time>2016-04-20T10:09:59Z</time>
      </trkpt>
      <trkpt lat="46.04876" lon="3.92099">
        <ele>374</ele>
        <time>2016-04-20T10:10:33Z</time>
      </trkpt>
      <trkpt lat="46.04862" lon="3.92101">
        <ele>373</ele>
        <time>2016-04-20T10:10:46Z</time>
      </trkpt>
      <trkpt lat="46.04826" lon="3.92098">
        <ele>372</ele>
        <time>2016-04-20T10:11:16Z</time>
      </trkpt>
      <trkpt lat="46.04781" lon="3.92081">
        <ele>371</ele>
        <time>2016-04-20T10:11:54Z</time>
      </trkpt>
      <trkpt lat="46.04771" lon="3.92079">
        <ele>370</ele>
        <time>2016-04-20T10:12:03Z</time>
      </trkpt>
      <trkpt lat="46.04767" lon="3.92074">
        <ele>371</ele>
        <time>2016-04-20T10:12:08Z</time>
      </trkpt>
      <trkpt lat="46.04761" lon="3.92063">
        <ele>370</ele>
        <time>2016-04-20T10:12:20Z</time>
      </trkpt>
      <trkpt lat="46.04756" lon="3.92051">
        <ele>371</ele>
        <time>2016-04-20T10:12:32Z</time>
      </trkpt>
      <trkpt lat="46.04752" lon="3.92046">
        <ele>371</ele>
        <time>2016-04-20T10:12:36Z</time>
      </trkpt>
      <trkpt lat="46.04748" lon="3.92042">
        <ele>371</ele>
        <time>2016-04-20T10:12:40Z</time>
      </trkpt>
      <trkpt lat="46.04745" lon="3.92028">
        <ele>371</ele>
        <time>2016-04-20T10:12:49Z</time>
      </trkpt>
      <trkpt lat="46.04741" lon="3.92024">
        <ele>371</ele>
        <time>2016-04-20T10:12:53Z</time>
      </trkpt>
      <trkpt lat="46.04736" lon="3.92023">
        <ele>372</ele>
        <time>2016-04-20T10:12:58Z</time>
      </trkpt>
      <trkpt lat="46.04722" lon="3.92026">
        <ele>374</ele>
        <time>2016-04-20T10:13:09Z</time>
      </trkpt>
      <trkpt lat="46.04718" lon="3.92031">
        <ele>373</ele>
        <time>2016-04-20T10:13:13Z</time>
      </trkpt>
      <trkpt lat="46.04716" lon="3.92038">
        <ele>373</ele>
        <time>2016-04-20T10:13:17Z</time>
      </trkpt>
      <trkpt lat="46.04716" lon="3.92045">
        <ele>373</ele>
        <time>2016-04-20T10:13:21Z</time>
      </trkpt>
      <trkpt lat="46.04713" lon="3.92051">
        <ele>373</ele>
        <time>2016-04-20T10:13:25Z</time>
      </trkpt>
      <trkpt lat="46.04709" lon="3.92055">
        <ele>373</ele>
        <time>2016-04-20T10:13:29Z</time>
      </trkpt>
      <trkpt lat="46.04704" lon="3.9206">
        <ele>373</ele>
        <time>2016-04-20T10:13:33Z</time>
      </trkpt>
      <trkpt lat="46.04701" lon="3.92062">
        <ele>374</ele>
        <time>2016-04-20T10:13:40Z</time>
      </trkpt>
      <trkpt lat="46.04692" lon="3.92058">
        <ele>377</ele>
        <time>2016-04-20T10:13:53Z</time>
      </trkpt>
      <trkpt lat="46.04687" lon="3.92057">
        <ele>377</ele>
        <time>2016-04-20T10:13:58Z</time>
      </trkpt>
      <trkpt lat="46.04684" lon="3.92052">
        <ele>377</ele>
        <time>2016-04-20T10:14:04Z</time>
      </trkpt>
      <trkpt lat="46.0468" lon="3.9205">
        <ele>378</ele>
        <time>2016-04-20T10:14:11Z</time>
      </trkpt>
      <trkpt lat="46.0467" lon="3.9205">
        <ele>380</ele>
        <time>2016-04-20T10:14:21Z</time>
      </trkpt>
      <trkpt lat="46.04641" lon="3.92044">
        <ele>381</ele>
        <time>2016-04-20T10:14:48Z</time>
      </trkpt>
      <trkpt lat="46.04639" lon="3.92045">
        <ele>382</ele>
        <time>2016-04-20T10:14:54Z</time>
      </trkpt>
      <trkpt lat="46.04586" lon="3.92042">
        <ele>391</ele>
        <time>2016-04-20T10:15:57Z</time>
      </trkpt>
      <trkpt lat="46.04569" lon="3.92032">
        <ele>395</ele>
        <time>2016-04-20T10:16:13Z</time>
      </trkpt>
      <trkpt lat="46.04558" lon="3.92034">
        <ele>397</ele>
        <time>2016-04-20T10:16:23Z</time>
      </trkpt>
      <trkpt lat="46.04503" lon="3.92024">
        <ele>400</ele>
        <time>2016-04-20T10:17:16Z</time>
      </trkpt>
      <trkpt lat="46.04498" lon="3.92022">
        <ele>401</ele>
        <time>2016-04-20T10:17:21Z</time>
      </trkpt>
      <trkpt lat="46.04493" lon="3.92019">
        <ele>401</ele>
        <time>2016-04-20T10:17:26Z</time>
      </trkpt>
      <trkpt lat="46.04489" lon="3.92016">
        <ele>401</ele>
        <time>2016-04-20T10:17:32Z</time>
      </trkpt>
      <trkpt lat="46.04479" lon="3.92016">
        <ele>401</ele>
        <time>2016-04-20T10:17:46Z</time>
      </trkpt>
      <trkpt lat="46.0446" lon="3.92012">
        <ele>404</ele>
        <time>2016-04-20T10:18:06Z</time>
      </trkpt>
      <trkpt lat="46.04461" lon="3.92006">
        <ele>405</ele>
        <time>2016-04-20T10:18:28Z</time>
      </trkpt>
      <trkpt lat="46.04455" lon="3.92009">
        <ele>405</ele>
        <time>2016-04-20T10:18:44Z</time>
      </trkpt>
      <trkpt lat="46.0445" lon="3.92007">
        <ele>405</ele>
        <time>2016-04-20T10:18:49Z</time>
      </trkpt>
      <trkpt lat="46.04419" lon="3.92004">
        <ele>410</ele>
        <time>2016-04-20T10:19:20Z</time>
      </trkpt>
      <trkpt lat="46.04383" lon="3.92007">
        <ele>413</ele>
        <time>2016-04-20T10:19:54Z</time>
      </trkpt>
      <trkpt lat="46.04354" lon="3.9202">
        <ele>417</ele>
        <time>2016-04-20T10:20:24Z</time>
      </trkpt>
      <trkpt lat="46.04348" lon="3.92021">
        <ele>418</ele>
        <time>2016-04-20T10:21:00Z</time>
      </trkpt>
      <trkpt lat="46.04255" lon="3.91963">
        <ele>427</ele>
        <time>2016-04-20T10:22:36Z</time>
      </trkpt>
      <trkpt lat="46.0425" lon="3.91964">
        <ele>427</ele>
        <time>2016-04-20T10:22:42Z</time>
      </trkpt>
      <trkpt lat="46.04238" lon="3.91976">
        <ele>428</ele>
        <time>2016-04-20T10:22:59Z</time>
      </trkpt>
      <trkpt lat="46.04234" lon="3.91978">
        <ele>428</ele>
        <time>2016-04-20T10:23:05Z</time>
      </trkpt>
      <trkpt lat="46.0423" lon="3.9198">
        <ele>428</ele>
        <time>2016-04-20T10:23:10Z</time>
      </trkpt>
      <trkpt lat="46.04191" lon="3.92002">
        <ele>428</ele>
        <time>2016-04-20T10:23:48Z</time>
      </trkpt>
      <trkpt lat="46.04122" lon="3.92056">
        <ele>430</ele>
        <time>2016-04-20T10:24:57Z</time>
      </trkpt>
      <trkpt lat="46.04109" lon="3.92063">
        <ele>431</ele>
        <time>2016-04-20T10:25:10Z</time>
      </trkpt>
      <trkpt lat="46.04078" lon="3.92088">
        <ele>431</ele>
        <time>2016-04-20T10:25:42Z</time>
      </trkpt>
      <trkpt lat="46.0407" lon="3.92097">
        <ele>431</ele>
        <time>2016-04-20T10:25:52Z</time>
      </trkpt>
      <trkpt lat="46.04043" lon="3.92131">
        <ele>430</ele>
        <time>2016-04-20T10:26:26Z</time>
      </trkpt>
      <trkpt lat="46.0398" lon="3.92187">
        <ele>426</ele>
        <time>2016-04-20T10:27:32Z</time>
      </trkpt>
      <trkpt lat="46.03964" lon="3.92215">
        <ele>425</ele>
        <time>2016-04-20T10:28:03Z</time>
      </trkpt>
      <trkpt lat="46.03965" lon="3.92222">
        <ele>426</ele>
        <time>2016-04-20T10:28:37Z</time>
      </trkpt>
      <trkpt lat="46.03963" lon="3.92228">
        <ele>425</ele>
        <time>2016-04-20T10:28:42Z</time>
      </trkpt>
      <trkpt lat="46.03964" lon="3.92243">
        <ele>425</ele>
        <time>2016-04-20T10:28:55Z</time>
      </trkpt>
      <trkpt lat="46.03964" lon="3.92288">
        <ele>425</ele>
        <time>2016-04-20T10:29:25Z</time>
      </trkpt>
      <trkpt lat="46.03976" lon="3.92336">
        <ele>425</ele>
        <time>2016-04-20T10:29:57Z</time>
      </trkpt>
      <trkpt lat="46.03968" lon="3.92386">
        <ele>424</ele>
        <time>2016-04-20T10:30:29Z</time>
      </trkpt>
      <trkpt lat="46.03967" lon="3.92437">
        <ele>423</ele>
        <time>2016-04-20T10:30:55Z</time>
      </trkpt>
      <trkpt lat="46.03965" lon="3.9245">
        <ele>424</ele>
        <time>2016-04-20T10:31:04Z</time>
      </trkpt>
      <trkpt lat="46.03886" lon="3.92596">
        <ele>428</ele>
        <time>2016-04-20T10:32:50Z</time>
      </trkpt>
      <trkpt lat="46.03872" lon="3.92617">
        <ele>428</ele>
        <time>2016-04-20T10:33:07Z</time>
      </trkpt>
      <trkpt lat="46.03841" lon="3.92643">
        <ele>428</ele>
        <time>2016-04-20T10:33:37Z</time>
      </trkpt>
      <trkpt lat="46.03829" lon="3.92677">
        <ele>430</ele>
        <time>2016-04-20T10:34:00Z</time>
      </trkpt>
      <trkpt lat="46.03826" lon="3.92693">
        <ele>430</ele>
        <time>2016-04-20T10:34:10Z</time>
      </trkpt>
      <trkpt lat="46.0382" lon="3.92706">
        <ele>431</ele>
        <time>2016-04-20T10:34:20Z</time>
      </trkpt>
      <trkpt lat="46.038" lon="3.92737">
        <ele>430</ele>
        <time>2016-04-20T10:34:46Z</time>
      </trkpt>
      <trkpt lat="46.03797" lon="3.92741">
        <ele>429</ele>
        <time>2016-04-20T10:34:56Z</time>
      </trkpt>
      <trkpt lat="46.03754" lon="3.92766">
        <ele>430</ele>
        <time>2016-04-20T10:35:38Z</time>
      </trkpt>
      <trkpt lat="46.03721" lon="3.92783">
        <ele>430</ele>
        <time>2016-04-20T10:36:09Z</time>
      </trkpt>
      <trkpt lat="46.0369" lon="3.92804">
        <ele>429</ele>
        <time>2016-04-20T10:36:39Z</time>
      </trkpt>
      <trkpt lat="46.03657" lon="3.92819">
        <ele>427</ele>
        <time>2016-04-20T10:37:10Z</time>
      </trkpt>
      <trkpt lat="46.03622" lon="3.92826">
        <ele>423</ele>
        <time>2016-04-20T10:37:42Z</time>
      </trkpt>
      <trkpt lat="46.036" lon="3.92813">
        <ele>421</ele>
        <time>2016-04-20T10:38:05Z</time>
      </trkpt>
      <trkpt lat="46.03593" lon="3.92805">
        <ele>420</ele>
        <time>2016-04-20T10:38:18Z</time>
      </trkpt>
      <trkpt lat="46.03588" lon="3.92806">
        <ele>420</ele>
        <time>2016-04-20T10:38:30Z</time>
      </trkpt>
      <trkpt lat="46.03578" lon="3.92802">
        <ele>419</ele>
        <time>2016-04-20T10:38:38Z</time>
      </trkpt>
      <trkpt lat="46.03573" lon="3.92802">
        <ele>418</ele>
        <time>2016-04-20T10:38:43Z</time>
      </trkpt>
      <trkpt lat="46.03569" lon="3.92798">
        <ele>418</ele>
        <time>2016-04-20T10:38:47Z</time>
      </trkpt>
      <trkpt lat="46.03566" lon="3.92792">
        <ele>418</ele>
        <time>2016-04-20T10:38:52Z</time>
      </trkpt>
      <trkpt lat="46.03538" lon="3.92754">
        <ele>415</ele>
        <time>2016-04-20T10:39:27Z</time>
      </trkpt>
      <trkpt lat="46.03514" lon="3.92712">
        <ele>410</ele>
        <time>2016-04-20T10:40:00Z</time>
      </trkpt>
      <trkpt lat="46.03474" lon="3.9271">
        <ele>405</ele>
        <time>2016-04-20T10:40:33Z</time>
      </trkpt>
      <trkpt lat="46.03434" lon="3.92723">
        <ele>406</ele>
        <time>2016-04-20T10:41:08Z</time>
      </trkpt>
      <trkpt lat="46.03414" lon="3.92726">
        <ele>405</ele>
        <time>2016-04-20T10:41:25Z</time>
      </trkpt>
      <trkpt lat="46.03409" lon="3.92727">
        <ele>405</ele>
        <time>2016-04-20T10:41:30Z</time>
      </trkpt>
      <trkpt lat="46.03404" lon="3.92726">
        <ele>405</ele>
        <time>2016-04-20T10:41:34Z</time>
      </trkpt>
      <trkpt lat="46.03379" lon="3.92717">
        <ele>404</ele>
        <time>2016-04-20T10:41:59Z</time>
      </trkpt>
      <trkpt lat="46.03374" lon="3.92716">
        <ele>404</ele>
        <time>2016-04-20T10:42:04Z</time>
      </trkpt>
      <trkpt lat="46.0337" lon="3.9272">
        <ele>404</ele>
        <time>2016-04-20T10:42:09Z</time>
      </trkpt>
      <trkpt lat="46.03363" lon="3.92747">
        <ele>405</ele>
        <time>2016-04-20T10:42:24Z</time>
      </trkpt>
      <trkpt lat="46.03362" lon="3.92753">
        <ele>405</ele>
        <time>2016-04-20T10:42:29Z</time>
      </trkpt>
      <trkpt lat="46.03353" lon="3.92779">
        <ele>406</ele>
        <time>2016-04-20T10:42:47Z</time>
      </trkpt>
      <trkpt lat="46.03347" lon="3.92835">
        <ele>414</ele>
        <time>2016-04-20T10:43:28Z</time>
      </trkpt>
      <trkpt lat="46.03343" lon="3.92838">
        <ele>414</ele>
        <time>2016-04-20T10:43:35Z</time>
      </trkpt>
      <trkpt lat="46.03338" lon="3.92839">
        <ele>414</ele>
        <time>2016-04-20T10:43:40Z</time>
      </trkpt>
      <trkpt lat="46.03334" lon="3.92842">
        <ele>413</ele>
        <time>2016-04-20T10:43:44Z</time>
      </trkpt>
      <trkpt lat="46.03329" lon="3.9284">
        <ele>413</ele>
        <time>2016-04-20T10:43:53Z</time>
      </trkpt>
      <trkpt lat="46.03329" lon="3.92832">
        <ele>413</ele>
        <time>2016-04-20T10:43:59Z</time>
      </trkpt>
      <trkpt lat="46.03326" lon="3.92813">
        <ele>413</ele>
        <time>2016-04-20T10:44:23Z</time>
      </trkpt>
      <trkpt lat="46.03318" lon="3.92816">
        <ele>412</ele>
        <time>2016-04-20T10:58:34Z</time>
      </trkpt>
      <trkpt lat="46.03317" lon="3.92811">
        <ele>411</ele>
        <time>2016-04-20T10:58:57Z</time>
      </trkpt>
      <trkpt lat="46.0332" lon="3.92808">
        <ele>409</ele>
        <time>2016-04-20T11:03:00Z</time>
      </trkpt>
      <trkpt lat="46.03322" lon="3.92807">
        <ele>408</ele>
        <time>2016-04-20T11:17:55Z</time>
      </trkpt>
      <trkpt lat="46.03321" lon="3.92808">
        <ele>410</ele>
        <time>2016-04-20T11:19:04Z</time>
      </trkpt>
      <trkpt lat="46.03319" lon="3.92814">
        <ele>413</ele>
        <time>2016-04-20T11:52:37Z</time>
      </trkpt>
      <trkpt lat="46.03319" lon="3.92823">
        <ele>413</ele>
        <time>2016-04-20T11:52:42Z</time>
      </trkpt>
      <trkpt lat="46.03321" lon="3.92829">
        <ele>413</ele>
        <time>2016-04-20T11:52:48Z</time>
      </trkpt>
      <trkpt lat="46.03323" lon="3.9285">
        <ele>412</ele>
        <time>2016-04-20T11:53:01Z</time>
      </trkpt>
      <trkpt lat="46.0332" lon="3.92856">
        <ele>412</ele>
        <time>2016-04-20T11:53:08Z</time>
      </trkpt>
      <trkpt lat="46.03321" lon="3.92863">
        <ele>411</ele>
        <time>2016-04-20T11:53:13Z</time>
      </trkpt>
      <trkpt lat="46.0332" lon="3.9287">
        <ele>411</ele>
        <time>2016-04-20T11:53:19Z</time>
      </trkpt>
      <trkpt lat="46.03328" lon="3.92919">
        <ele>409</ele>
        <time>2016-04-20T11:53:51Z</time>
      </trkpt>
      <trkpt lat="46.03328" lon="3.92993">
        <ele>405</ele>
        <time>2016-04-20T11:54:45Z</time>
      </trkpt>
      <trkpt lat="46.03324" lon="3.93006">
        <ele>405</ele>
        <time>2016-04-20T11:54:52Z</time>
      </trkpt>
      <trkpt lat="46.03325" lon="3.93012">
        <ele>405</ele>
        <time>2016-04-20T11:54:56Z</time>
      </trkpt>
      <trkpt lat="46.03329" lon="3.93024">
        <ele>404</ele>
        <time>2016-04-20T11:55:03Z</time>
      </trkpt>
      <trkpt lat="46.03328" lon="3.93039">
        <ele>404</ele>
        <time>2016-04-20T11:55:12Z</time>
      </trkpt>
      <trkpt lat="46.03323" lon="3.9304">
        <ele>404</ele>
        <time>2016-04-20T11:55:17Z</time>
      </trkpt>
      <trkpt lat="46.03319" lon="3.9304">
        <ele>404</ele>
        <time>2016-04-20T11:55:22Z</time>
      </trkpt>
      <trkpt lat="46.03284" lon="3.93049">
        <ele>405</ele>
        <time>2016-04-20T11:56:00Z</time>
      </trkpt>
      <trkpt lat="46.03217" lon="3.93055">
        <ele>407</ele>
        <time>2016-04-20T11:57:07Z</time>
      </trkpt>
      <trkpt lat="46.03214" lon="3.93057">
        <ele>408</ele>
        <time>2016-04-20T11:57:25Z</time>
      </trkpt>
      <trkpt lat="46.03201" lon="3.93069">
        <ele>408</ele>
        <time>2016-04-20T11:57:38Z</time>
      </trkpt>
      <trkpt lat="46.03191" lon="3.93071">
        <ele>407</ele>
        <time>2016-04-20T11:57:47Z</time>
      </trkpt>
      <trkpt lat="46.03186" lon="3.93076">
        <ele>407</ele>
        <time>2016-04-20T11:57:51Z</time>
      </trkpt>
      <trkpt lat="46.03172" lon="3.93099">
        <ele>406</ele>
        <time>2016-04-20T11:58:11Z</time>
      </trkpt>
      <trkpt lat="46.03164" lon="3.93123">
        <ele>408</ele>
        <time>2016-04-20T11:58:34Z</time>
      </trkpt>
      <trkpt lat="46.03156" lon="3.93131">
        <ele>407</ele>
        <time>2016-04-20T11:58:47Z</time>
      </trkpt>
      <trkpt lat="46.03153" lon="3.93136">
        <ele>407</ele>
        <time>2016-04-20T11:58:53Z</time>
      </trkpt>
      <trkpt lat="46.03155" lon="3.93142">
        <ele>407</ele>
        <time>2016-04-20T11:59:05Z</time>
      </trkpt>
      <trkpt lat="46.0315" lon="3.93154">
        <ele>407</ele>
        <time>2016-04-20T11:59:16Z</time>
      </trkpt>
      <trkpt lat="46.03147" lon="3.93174">
        <ele>406</ele>
        <time>2016-04-20T11:59:35Z</time>
      </trkpt>
      <trkpt lat="46.03149" lon="3.93169">
        <ele>406</ele>
        <time>2016-04-20T12:01:13Z</time>
      </trkpt>
      <trkpt lat="46.03148" lon="3.93162">
        <ele>406</ele>
        <time>2016-04-20T12:01:18Z</time>
      </trkpt>
      <trkpt lat="46.03149" lon="3.93157">
        <ele>407</ele>
        <time>2016-04-20T12:01:27Z</time>
      </trkpt>
      <trkpt lat="46.03146" lon="3.93149">
        <ele>406</ele>
        <time>2016-04-20T12:01:43Z</time>
      </trkpt>
      <trkpt lat="46.03133" lon="3.93132">
        <ele>406</ele>
        <time>2016-04-20T12:02:11Z</time>
      </trkpt>
      <trkpt lat="46.03081" lon="3.93131">
        <ele>407</ele>
        <time>2016-04-20T12:02:50Z</time>
      </trkpt>
      <trkpt lat="46.03076" lon="3.93132">
        <ele>407</ele>
        <time>2016-04-20T12:02:54Z</time>
      </trkpt>
      <trkpt lat="46.03037" lon="3.93142">
        <ele>407</ele>
        <time>2016-04-20T12:03:28Z</time>
      </trkpt>
      <trkpt lat="46.03022" lon="3.93143">
        <ele>408</ele>
        <time>2016-04-20T12:03:40Z</time>
      </trkpt>
      <trkpt lat="46.03021" lon="3.93147">
        <ele>409</ele>
        <time>2016-04-20T12:03:46Z</time>
      </trkpt>
      <trkpt lat="46.03019" lon="3.9315">
        <ele>409</ele>
        <time>2016-04-20T12:03:58Z</time>
      </trkpt>
      <trkpt lat="46.0301" lon="3.93153">
        <ele>407</ele>
        <time>2016-04-20T12:04:06Z</time>
      </trkpt>
      <trkpt lat="46.02999" lon="3.93155">
        <ele>409</ele>
        <time>2016-04-20T12:04:14Z</time>
      </trkpt>
      <trkpt lat="46.02994" lon="3.93157">
        <ele>409</ele>
        <time>2016-04-20T12:04:18Z</time>
      </trkpt>
      <trkpt lat="46.02987" lon="3.93166">
        <ele>410</ele>
        <time>2016-04-20T12:04:26Z</time>
      </trkpt>
      <trkpt lat="46.02976" lon="3.93168">
        <ele>410</ele>
        <time>2016-04-20T12:04:33Z</time>
      </trkpt>
      <trkpt lat="46.02971" lon="3.9317">
        <ele>410</ele>
        <time>2016-04-20T12:04:37Z</time>
      </trkpt>
      <trkpt lat="46.02966" lon="3.93173">
        <ele>410</ele>
        <time>2016-04-20T12:04:41Z</time>
      </trkpt>
      <trkpt lat="46.02957" lon="3.93179">
        <ele>411</ele>
        <time>2016-04-20T12:04:49Z</time>
      </trkpt>
      <trkpt lat="46.02759" lon="3.93277">
        <ele>414</ele>
        <time>2016-04-20T12:07:49Z</time>
      </trkpt>
      <trkpt lat="46.02746" lon="3.93286">
        <ele>412</ele>
        <time>2016-04-20T12:08:03Z</time>
      </trkpt>
      <trkpt lat="46.02697" lon="3.93301">
        <ele>409</ele>
        <time>2016-04-20T12:08:45Z</time>
      </trkpt>
      <trkpt lat="46.02666" lon="3.93297">
        <ele>407</ele>
        <time>2016-04-20T12:09:16Z</time>
      </trkpt>
      <trkpt lat="46.02627" lon="3.93296">
        <ele>405</ele>
        <time>2016-04-20T12:09:50Z</time>
      </trkpt>
      <trkpt lat="46.02592" lon="3.93292">
        <ele>404</ele>
        <time>2016-04-20T12:10:22Z</time>
      </trkpt>
      <trkpt lat="46.02559" lon="3.93279">
        <ele>403</ele>
        <time>2016-04-20T12:10:53Z</time>
      </trkpt>
      <trkpt lat="46.02517" lon="3.93275">
        <ele>402</ele>
        <time>2016-04-20T12:11:26Z</time>
      </trkpt>
      <trkpt lat="46.02477" lon="3.9328">
        <ele>401</ele>
        <time>2016-04-20T12:11:59Z</time>
      </trkpt>
      <trkpt lat="46.0244" lon="3.93302">
        <ele>402</ele>
        <time>2016-04-20T12:12:32Z</time>
      </trkpt>
      <trkpt lat="46.02356" lon="3.93381">
        <ele>407</ele>
        <time>2016-04-20T12:14:05Z</time>
      </trkpt>
      <trkpt lat="46.02348" lon="3.9339">
        <ele>407</ele>
        <time>2016-04-20T12:14:13Z</time>
      </trkpt>
      <trkpt lat="46.02339" lon="3.93396">
        <ele>408</ele>
        <time>2016-04-20T12:14:21Z</time>
      </trkpt>
      <trkpt lat="46.02329" lon="3.93399">
        <ele>409</ele>
        <time>2016-04-20T12:14:30Z</time>
      </trkpt>
      <trkpt lat="46.02318" lon="3.93408">
        <ele>414</ele>
        <time>2016-04-20T12:14:54Z</time>
      </trkpt>
      <trkpt lat="46.02274" lon="3.93428">
        <ele>416</ele>
        <time>2016-04-20T12:15:34Z</time>
      </trkpt>
      <trkpt lat="46.0227" lon="3.93431">
        <ele>416</ele>
        <time>2016-04-20T12:15:38Z</time>
      </trkpt>
      <trkpt lat="46.02255" lon="3.93435">
        <ele>417</ele>
        <time>2016-04-20T12:15:50Z</time>
      </trkpt>
      <trkpt lat="46.02246" lon="3.93436">
        <ele>419</ele>
        <time>2016-04-20T12:15:58Z</time>
      </trkpt>
      <trkpt lat="46.0224" lon="3.93436">
        <ele>420</ele>
        <time>2016-04-20T12:16:03Z</time>
      </trkpt>
      <trkpt lat="46.02224" lon="3.9344">
        <ele>420</ele>
        <time>2016-04-20T12:16:46Z</time>
      </trkpt>
      <trkpt lat="46.02213" lon="3.93447">
        <ele>420</ele>
        <time>2016-04-20T12:18:05Z</time>
      </trkpt>
      <trkpt lat="46.02194" lon="3.93454">
        <ele>421</ele>
        <time>2016-04-20T12:18:21Z</time>
      </trkpt>
      <trkpt lat="46.02153" lon="3.93458">
        <ele>421</ele>
        <time>2016-04-20T12:18:54Z</time>
      </trkpt>
      <trkpt lat="46.02083" lon="3.93455">
        <ele>421</ele>
        <time>2016-04-20T12:19:56Z</time>
      </trkpt>
      <trkpt lat="46.02033" lon="3.93465">
        <ele>422</ele>
        <time>2016-04-20T12:20:39Z</time>
      </trkpt>
      <trkpt lat="46.01992" lon="3.93491">
        <ele>421</ele>
        <time>2016-04-20T12:21:18Z</time>
      </trkpt>
      <trkpt lat="46.01927" lon="3.93545">
        <ele>416</ele>
        <time>2016-04-20T12:22:22Z</time>
      </trkpt>
      <trkpt lat="46.01894" lon="3.93565">
        <ele>414</ele>
        <time>2016-04-20T12:22:53Z</time>
      </trkpt>
      <trkpt lat="46.01861" lon="3.93577">
        <ele>412</ele>
        <time>2016-04-20T12:23:24Z</time>
      </trkpt>
      <trkpt lat="46.01846" lon="3.93587">
        <ele>412</ele>
        <time>2016-04-20T12:23:37Z</time>
      </trkpt>
      <trkpt lat="46.01826" lon="3.9362">
        <ele>411</ele>
        <time>2016-04-20T12:24:04Z</time>
      </trkpt>
      <trkpt lat="46.01809" lon="3.93662">
        <ele>415</ele>
        <time>2016-04-20T12:24:33Z</time>
      </trkpt>
      <trkpt lat="46.01801" lon="3.93672">
        <ele>413</ele>
        <time>2016-04-20T12:24:41Z</time>
      </trkpt>
      <trkpt lat="46.01793" lon="3.9368">
        <ele>412</ele>
        <time>2016-04-20T12:24:50Z</time>
      </trkpt>
      <trkpt lat="46.01788" lon="3.93683">
        <ele>412</ele>
        <time>2016-04-20T12:24:54Z</time>
      </trkpt>
      <trkpt lat="46.01745" lon="3.93702">
        <ele>419</ele>
        <time>2016-04-20T12:25:39Z</time>
      </trkpt>
      <trkpt lat="46.0174" lon="3.93702">
        <ele>419</ele>
        <time>2016-04-20T12:25:44Z</time>
      </trkpt>
      <trkpt lat="46.01688" lon="3.93726">
        <ele>426</ele>
        <time>2016-04-20T12:26:37Z</time>
      </trkpt>
      <trkpt lat="46.01685" lon="3.93729">
        <ele>427</ele>
        <time>2016-04-20T12:26:48Z</time>
      </trkpt>
      <trkpt lat="46.01614" lon="3.93765">
        <ele>426</ele>
        <time>2016-04-20T12:28:17Z</time>
      </trkpt>
      <trkpt lat="46.01539" lon="3.93823">
        <ele>423</ele>
        <time>2016-04-20T12:29:46Z</time>
      </trkpt>
      <trkpt lat="46.01496" lon="3.93847">
        <ele>420</ele>
        <time>2016-04-20T12:30:24Z</time>
      </trkpt>
      <trkpt lat="46.01454" lon="3.93879">
        <ele>417</ele>
        <time>2016-04-20T12:31:06Z</time>
      </trkpt>
      <trkpt lat="46.01417" lon="3.93901">
        <ele>416</ele>
        <time>2016-04-20T12:31:40Z</time>
      </trkpt>
      <trkpt lat="46.01332" lon="3.93977">
        <ele>416</ele>
        <time>2016-04-20T12:33:05Z</time>
      </trkpt>
      <trkpt lat="46.0133" lon="3.93984">
        <ele>415</ele>
        <time>2016-04-20T12:33:10Z</time>
      </trkpt>
      <trkpt lat="46.0133" lon="3.93991">
        <ele>416</ele>
        <time>2016-04-20T12:33:16Z</time>
      </trkpt>
      <trkpt lat="46.01331" lon="3.93997">
        <ele>415</ele>
        <time>2016-04-20T12:33:20Z</time>
      </trkpt>
      <trkpt lat="46.01341" lon="3.94013">
        <ele>415</ele>
        <time>2016-04-20T12:33:32Z</time>
      </trkpt>
      <trkpt lat="46.01345" lon="3.94021">
        <ele>414</ele>
        <time>2016-04-20T12:33:43Z</time>
      </trkpt>
      <trkpt lat="46.01409" lon="3.94235">
        <ele>402</ele>
        <time>2016-04-20T12:36:06Z</time>
      </trkpt>
      <trkpt lat="46.01415" lon="3.94247">
        <ele>402</ele>
        <time>2016-04-20T12:36:14Z</time>
      </trkpt>
      <trkpt lat="46.01437" lon="3.94326">
        <ele>399</ele>
        <time>2016-04-20T12:37:06Z</time>
      </trkpt>
      <trkpt lat="46.01441" lon="3.94329">
        <ele>399</ele>
        <time>2016-04-20T12:37:10Z</time>
      </trkpt>
      <trkpt lat="46.01445" lon="3.94331">
        <ele>399</ele>
        <time>2016-04-20T12:37:14Z</time>
      </trkpt>
      <trkpt lat="46.01449" lon="3.94334">
        <ele>398</ele>
        <time>2016-04-20T12:37:18Z</time>
      </trkpt>
      <trkpt lat="46.01451" lon="3.9434">
        <ele>398</ele>
        <time>2016-04-20T12:37:22Z</time>
      </trkpt>
      <trkpt lat="46.01449" lon="3.94347">
        <ele>397</ele>
        <time>2016-04-20T12:37:27Z</time>
      </trkpt>
      <trkpt lat="46.0144" lon="3.94365">
        <ele>396</ele>
        <time>2016-04-20T12:37:41Z</time>
      </trkpt>
      <trkpt lat="46.01392" lon="3.94403">
        <ele>394</ele>
        <time>2016-04-20T12:38:29Z</time>
      </trkpt>
      <trkpt lat="46.01388" lon="3.94407">
        <ele>394</ele>
        <time>2016-04-20T12:38:34Z</time>
      </trkpt>
      <trkpt lat="46.01338" lon="3.94447">
        <ele>392</ele>
        <time>2016-04-20T12:39:41Z</time>
      </trkpt>
      <trkpt lat="46.01284" lon="3.94464">
        <ele>390</ele>
        <time>2016-04-20T12:40:31Z</time>
      </trkpt>
      <trkpt lat="46.0128" lon="3.94468">
        <ele>390</ele>
        <time>2016-04-20T12:40:37Z</time>
      </trkpt>
      <trkpt lat="46.01277" lon="3.94474">
        <ele>391</ele>
        <time>2016-04-20T12:40:42Z</time>
      </trkpt>
      <trkpt lat="46.01272" lon="3.94475">
        <ele>391</ele>
        <time>2016-04-20T12:40:46Z</time>
      </trkpt>
      <trkpt lat="46.01247" lon="3.94477">
        <ele>393</ele>
        <time>2016-04-20T12:41:08Z</time>
      </trkpt>
      <trkpt lat="46.01241" lon="3.94478">
        <ele>393</ele>
        <time>2016-04-20T12:41:13Z</time>
      </trkpt>
      <trkpt lat="46.01237" lon="3.94481">
        <ele>394</ele>
        <time>2016-04-20T12:41:17Z</time>
      </trkpt>
      <trkpt lat="46.01233" lon="3.94485">
        <ele>394</ele>
        <time>2016-04-20T12:41:21Z</time>
      </trkpt>
      <trkpt lat="46.0122" lon="3.94494">
        <ele>394</ele>
        <time>2016-04-20T12:41:33Z</time>
      </trkpt>
      <trkpt lat="46.01179" lon="3.94552">
        <ele>392</ele>
        <time>2016-04-20T12:42:23Z</time>
      </trkpt>
      <trkpt lat="46.01174" lon="3.94564">
        <ele>391</ele>
        <time>2016-04-20T12:42:32Z</time>
      </trkpt>
      <trkpt lat="46.01176" lon="3.9462">
        <ele>391</ele>
        <time>2016-04-20T12:43:06Z</time>
      </trkpt>
      <trkpt lat="46.01188" lon="3.9466">
        <ele>392</ele>
        <time>2016-04-20T12:43:38Z</time>
      </trkpt>
      <trkpt lat="46.01195" lon="3.94697">
        <ele>393</ele>
        <time>2016-04-20T12:44:07Z</time>
      </trkpt>
      <trkpt lat="46.01159" lon="3.94849">
        <ele>400</ele>
        <time>2016-04-20T12:45:46Z</time>
      </trkpt>
      <trkpt lat="46.01155" lon="3.94899">
        <ele>401</ele>
        <time>2016-04-20T12:46:19Z</time>
      </trkpt>
      <trkpt lat="46.01162" lon="3.94947">
        <ele>401</ele>
        <time>2016-04-20T12:46:50Z</time>
      </trkpt>
      <trkpt lat="46.01168" lon="3.94968">
        <ele>400</ele>
        <time>2016-04-20T12:47:03Z</time>
      </trkpt>
      <trkpt lat="46.01164" lon="3.94982">
        <ele>400</ele>
        <time>2016-04-20T12:47:13Z</time>
      </trkpt>
      <trkpt lat="46.01172" lon="3.95056">
        <ele>401</ele>
        <time>2016-04-20T12:48:31Z</time>
      </trkpt>
      <trkpt lat="46.0119" lon="3.95101">
        <ele>399</ele>
        <time>2016-04-20T12:49:01Z</time>
      </trkpt>
      <trkpt lat="46.01287" lon="3.95541">
        <ele>387</ele>
        <time>2016-04-20T12:53:45Z</time>
      </trkpt>
      <trkpt lat="46.01304" lon="3.95588">
        <ele>386</ele>
        <time>2016-04-20T12:54:24Z</time>
      </trkpt>
      <trkpt lat="46.01303" lon="3.95595">
        <ele>386</ele>
        <time>2016-04-20T12:54:28Z</time>
      </trkpt>
      <trkpt lat="46.01291" lon="3.95617">
        <ele>386</ele>
        <time>2016-04-20T12:54:45Z</time>
      </trkpt>
      <trkpt lat="46.01278" lon="3.95663">
        <ele>386</ele>
        <time>2016-04-20T12:55:14Z</time>
      </trkpt>
      <trkpt lat="46.0127" lon="3.95671">
        <ele>386</ele>
        <time>2016-04-20T12:55:24Z</time>
      </trkpt>
      <trkpt lat="46.01262" lon="3.95677">
        <ele>386</ele>
        <time>2016-04-20T12:55:36Z</time>
      </trkpt>
      <trkpt lat="46.01194" lon="3.95711">
        <ele>388</ele>
        <time>2016-04-20T12:56:40Z</time>
      </trkpt>
      <trkpt lat="46.01166" lon="3.95733">
        <ele>389</ele>
        <time>2016-04-20T12:57:43Z</time>
      </trkpt>
      <trkpt lat="46.01155" lon="3.95751">
        <ele>389</ele>
        <time>2016-04-20T12:58:58Z</time>
      </trkpt>
      <trkpt lat="46.01152" lon="3.95757">
        <ele>388</ele>
        <time>2016-04-20T12:59:03Z</time>
      </trkpt>
      <trkpt lat="46.01123" lon="3.95813">
        <ele>388</ele>
        <time>2016-04-20T12:59:51Z</time>
      </trkpt>
      <trkpt lat="46.01105" lon="3.95829">
        <ele>387</ele>
        <time>2016-04-20T13:00:11Z</time>
      </trkpt>
      <trkpt lat="46.011" lon="3.95831">
        <ele>387</ele>
        <time>2016-04-20T13:00:16Z</time>
      </trkpt>
      <trkpt lat="46.01097" lon="3.95838">
        <ele>387</ele>
        <time>2016-04-20T13:00:23Z</time>
      </trkpt>
      <trkpt lat="46.01095" lon="3.95851">
        <ele>387</ele>
        <time>2016-04-20T13:00:33Z</time>
      </trkpt>
      <trkpt lat="46.01097" lon="3.95865">
        <ele>386</ele>
        <time>2016-04-20T13:00:43Z</time>
      </trkpt>
      <trkpt lat="46.01094" lon="3.95871">
        <ele>386</ele>
        <time>2016-04-20T13:00:48Z</time>
      </trkpt>
      <trkpt lat="46.01093" lon="3.95877">
        <ele>386</ele>
        <time>2016-04-20T13:00:53Z</time>
      </trkpt>
      <trkpt lat="46.01086" lon="3.95911">
        <ele>384</ele>
        <time>2016-04-20T13:01:17Z</time>
      </trkpt>
      <trkpt lat="46.01091" lon="3.95935">
        <ele>384</ele>
        <time>2016-04-20T13:02:09Z</time>
      </trkpt>
      <trkpt lat="46.01093" lon="3.95938">
        <ele>385</ele>
        <time>2016-04-20T13:02:26Z</time>
      </trkpt>
      <trkpt lat="46.01096" lon="3.95944">
        <ele>385</ele>
        <time>2016-04-20T13:02:37Z</time>
      </trkpt>
      <trkpt lat="46.01097" lon="3.95954">
        <ele>385</ele>
        <time>2016-04-20T13:02:55Z</time>
      </trkpt>
      <trkpt lat="46.01094" lon="3.95971">
        <ele>384</ele>
        <time>2016-04-20T13:03:11Z</time>
      </trkpt>
      <trkpt lat="46.0109" lon="3.95977">
        <ele>384</ele>
        <time>2016-04-20T13:03:27Z</time>
      </trkpt>
      <trkpt lat="46.01085" lon="3.95978">
        <ele>384</ele>
        <time>2016-04-20T13:03:40Z</time>
      </trkpt>
      <trkpt lat="46.01085" lon="3.95986">
        <ele>384</ele>
        <time>2016-04-20T13:03:44Z</time>
      </trkpt>
      <trkpt lat="46.01115" lon="3.96159">
        <ele>379</ele>
        <time>2016-04-20T13:05:34Z</time>
      </trkpt>
      <trkpt lat="46.01125" lon="3.96205">
        <ele>378</ele>
        <time>2016-04-20T13:06:06Z</time>
      </trkpt>
      <trkpt lat="46.01181" lon="3.96332">
        <ele>374</ele>
        <time>2016-04-20T13:07:54Z</time>
      </trkpt>
      <trkpt lat="46.01181" lon="3.9634">
        <ele>374</ele>
        <time>2016-04-20T13:08:11Z</time>
      </trkpt>
      <trkpt lat="46.01175" lon="3.96349">
        <ele>374</ele>
        <time>2016-04-20T13:08:24Z</time>
      </trkpt>
      <trkpt lat="46.01171" lon="3.96352">
        <ele>374</ele>
        <time>2016-04-20T13:08:35Z</time>
      </trkpt>
      <trkpt lat="46.00993" lon="3.96556">
        <ele>374</ele>
        <time>2016-04-20T13:11:50Z</time>
      </trkpt>
      <trkpt lat="46.00988" lon="3.96559">
        <ele>374</ele>
        <time>2016-04-20T13:11:55Z</time>
      </trkpt>
      <trkpt lat="46.00984" lon="3.96563">
        <ele>374</ele>
        <time>2016-04-20T13:12:00Z</time>
      </trkpt>
      <trkpt lat="46.00813" lon="3.96671">
        <ele>374</ele>
        <time>2016-04-20T13:14:44Z</time>
      </trkpt>
      <trkpt lat="46.00804" lon="3.96674">
        <ele>373</ele>
        <time>2016-04-20T13:14:53Z</time>
      </trkpt>
      <trkpt lat="46.00798" lon="3.96677">
        <ele>374</ele>
        <time>2016-04-20T13:15:14Z</time>
      </trkpt>
      <trkpt lat="46.00784" lon="3.96699">
        <ele>372</ele>
        <time>2016-04-20T13:15:32Z</time>
      </trkpt>
      <trkpt lat="46.00709" lon="3.9674">
        <ele>369</ele>
        <time>2016-04-20T13:16:39Z</time>
      </trkpt>
      <trkpt lat="46.00677" lon="3.96751">
        <ele>367</ele>
        <time>2016-04-20T13:17:09Z</time>
      </trkpt>
      <trkpt lat="46.00607" lon="3.96766">
        <ele>363</ele>
        <time>2016-04-20T13:18:13Z</time>
      </trkpt>
      <trkpt lat="46.00583" lon="3.96794">
        <ele>363</ele>
        <time>2016-04-20T13:18:46Z</time>
      </trkpt>
      <trkpt lat="46.0055" lon="3.96877">
        <ele>363</ele>
        <time>2016-04-20T13:19:56Z</time>
      </trkpt>
      <trkpt lat="46.00545" lon="3.96928">
        <ele>366</ele>
        <time>2016-04-20T13:20:28Z</time>
      </trkpt>
      <trkpt lat="46.00532" lon="3.96983">
        <ele>368</ele>
        <time>2016-04-20T13:21:07Z</time>
      </trkpt>
      <trkpt lat="46.0048" lon="3.97108">
        <ele>372</ele>
        <time>2016-04-20T13:22:46Z</time>
      </trkpt>
      <trkpt lat="46.00462" lon="3.97126">
        <ele>372</ele>
        <time>2016-04-20T13:23:06Z</time>
      </trkpt>
      <trkpt lat="46.00459" lon="3.97131">
        <ele>373</ele>
        <time>2016-04-20T13:23:14Z</time>
      </trkpt>
      <trkpt lat="46.00454" lon="3.97133">
        <ele>373</ele>
        <time>2016-04-20T13:23:43Z</time>
      </trkpt>
      <trkpt lat="46.00372" lon="3.97209">
        <ele>374</ele>
        <time>2016-04-20T13:25:06Z</time>
      </trkpt>
      <trkpt lat="46.00365" lon="3.97212">
        <ele>375</ele>
        <time>2016-04-20T13:25:18Z</time>
      </trkpt>
      <trkpt lat="46.00275" lon="3.97315">
        <ele>373</ele>
        <time>2016-04-20T13:26:58Z</time>
      </trkpt>
      <trkpt lat="46.0008" lon="3.97484">
        <ele>368</ele>
        <time>2016-04-20T13:30:26Z</time>
      </trkpt>
      <trkpt lat="45.99959" lon="3.97628">
        <ele>368</ele>
        <time>2016-04-20T13:32:46Z</time>
      </trkpt>
      <trkpt lat="45.99933" lon="3.97662">
        <ele>368</ele>
        <time>2016-04-20T13:33:17Z</time>
      </trkpt>
      <trkpt lat="45.99914" lon="3.97683">
        <ele>367</ele>
        <time>2016-04-20T13:33:40Z</time>
      </trkpt>
      <trkpt lat="45.99909" lon="3.97683">
        <ele>367</ele>
        <time>2016-04-20T13:33:45Z</time>
      </trkpt>
      <trkpt lat="45.99876" lon="3.97705">
        <ele>366</ele>
        <time>2016-04-20T13:34:19Z</time>
      </trkpt>
      <trkpt lat="45.99873" lon="3.97711">
        <ele>366</ele>
        <time>2016-04-20T13:34:27Z</time>
      </trkpt>
      <trkpt lat="45.99846" lon="3.97733">
        <ele>366</ele>
        <time>2016-04-20T13:34:58Z</time>
      </trkpt>
      <trkpt lat="45.99809" lon="3.97743">
        <ele>366</ele>
        <time>2016-04-20T13:35:33Z</time>
      </trkpt>
      <trkpt lat="45.99771" lon="3.97762">
        <ele>367</ele>
        <time>2016-04-20T13:36:09Z</time>
      </trkpt>
      <trkpt lat="45.99737" lon="3.97789">
        <ele>370</ele>
        <time>2016-04-20T13:36:49Z</time>
      </trkpt>
      <trkpt lat="45.99733" lon="3.97794">
        <ele>370</ele>
        <time>2016-04-20T13:36:53Z</time>
      </trkpt>
      <trkpt lat="45.99679" lon="3.97854">
        <ele>374</ele>
        <time>2016-04-20T13:37:59Z</time>
      </trkpt>
      <trkpt lat="45.99677" lon="3.97869">
        <ele>374</ele>
        <time>2016-04-20T13:38:09Z</time>
      </trkpt>
      <trkpt lat="45.99681" lon="3.97882">
        <ele>374</ele>
        <time>2016-04-20T13:38:18Z</time>
      </trkpt>
      <trkpt lat="45.9969" lon="3.97898">
        <ele>374</ele>
        <time>2016-04-20T13:38:32Z</time>
      </trkpt>
      <trkpt lat="45.99694" lon="3.97901">
        <ele>373</ele>
        <time>2016-04-20T13:38:38Z</time>
      </trkpt>
      <trkpt lat="45.997" lon="3.97914">
        <ele>373</ele>
        <time>2016-04-20T13:38:46Z</time>
      </trkpt>
      <trkpt lat="45.99699" lon="3.97922">
        <ele>373</ele>
        <time>2016-04-20T13:38:50Z</time>
      </trkpt>
      <trkpt lat="45.99704" lon="3.97942">
        <ele>373</ele>
        <time>2016-04-20T13:39:03Z</time>
      </trkpt>
      <trkpt lat="45.99712" lon="3.97952">
        <ele>373</ele>
        <time>2016-04-20T13:39:13Z</time>
      </trkpt>
      <trkpt lat="45.99717" lon="3.97955">
        <ele>373</ele>
        <time>2016-04-20T13:39:18Z</time>
      </trkpt>
      <trkpt lat="45.99719" lon="3.97958">
        <ele>372</ele>
        <time>2016-04-20T13:39:26Z</time>
      </trkpt>
      <trkpt lat="45.99717" lon="3.97965">
        <ele>372</ele>
        <time>2016-04-20T13:39:47Z</time>
      </trkpt>
      <trkpt lat="45.99714" lon="3.97969">
        <ele>373</ele>
        <time>2016-04-20T13:39:53Z</time>
      </trkpt>
      <trkpt lat="45.99706" lon="3.97997">
        <ele>375</ele>
        <time>2016-04-20T13:40:19Z</time>
      </trkpt>
      <trkpt lat="45.99709" lon="3.97998">
        <ele>375</ele>
        <time>2016-04-20T13:41:22Z</time>
      </trkpt>
      <trkpt lat="45.9971" lon="3.97992">
        <ele>374</ele>
        <time>2016-04-20T13:42:02Z</time>
      </trkpt>
      <trkpt lat="45.99711" lon="3.97988">
        <ele>374</ele>
        <time>2016-04-20T13:42:59Z</time>
      </trkpt>
      <trkpt lat="45.99709" lon="3.97992">
        <ele>375</ele>
        <time>2016-04-20T13:58:00Z</time>
      </trkpt>
      <trkpt lat="45.99704" lon="3.97991">
        <ele>375</ele>
        <time>2016-04-20T13:58:21Z</time>
      </trkpt>
      <trkpt lat="45.99705" lon="3.97998">
        <ele>379</ele>
        <time>2016-04-20T13:58:28Z</time>
      </trkpt>
      <trkpt lat="45.99705" lon="3.98001">
        <ele>379</ele>
        <time>2016-04-20T13:58:50Z</time>
      </trkpt>
      <trkpt lat="45.99707" lon="3.98006">
        <ele>382</ele>
        <time>2016-04-20T13:59:05Z</time>
      </trkpt>
      <trkpt lat="45.99708" lon="3.98017">
        <ele>379</ele>
        <time>2016-04-20T13:59:19Z</time>
      </trkpt>
      <trkpt lat="45.99713" lon="3.98019">
        <ele>378</ele>
        <time>2016-04-20T13:59:23Z</time>
      </trkpt>
      <trkpt lat="45.9972" lon="3.9803">
        <ele>378</ele>
        <time>2016-04-20T13:59:30Z</time>
      </trkpt>
      <trkpt lat="45.99715" lon="3.98033">
        <ele>378</ele>
        <time>2016-04-20T14:00:10Z</time>
      </trkpt>
      <trkpt lat="45.99706" lon="3.98026">
        <ele>378</ele>
        <time>2016-04-20T14:00:15Z</time>
      </trkpt>
      <trkpt lat="45.99703" lon="3.98019">
        <ele>378</ele>
        <time>2016-04-20T14:00:29Z</time>
      </trkpt>
      <trkpt lat="45.997" lon="3.98015">
        <ele>378</ele>
        <time>2016-04-20T14:00:38Z</time>
      </trkpt>
      <trkpt lat="45.99699" lon="3.98024">
        <ele>378</ele>
        <time>2016-04-20T14:00:48Z</time>
      </trkpt>
      <trkpt lat="45.99699" lon="3.98032">
        <ele>377</ele>
        <time>2016-04-20T14:00:53Z</time>
      </trkpt>
      <trkpt lat="45.99699" lon="3.98039">
        <ele>374</ele>
        <time>2016-04-20T14:00:58Z</time>
      </trkpt>
      <trkpt lat="45.99696" lon="3.98045">
        <ele>373</ele>
        <time>2016-04-20T14:01:02Z</time>
      </trkpt>
      <trkpt lat="45.99682" lon="3.98091">
        <ele>378</ele>
        <time>2016-04-20T14:01:31Z</time>
      </trkpt>
      <trkpt lat="45.99657" lon="3.98124">
        <ele>374</ele>
        <time>2016-04-20T14:02:08Z</time>
      </trkpt>
      <trkpt lat="45.99645" lon="3.98134">
        <ele>373</ele>
        <time>2016-04-20T14:02:21Z</time>
      </trkpt>
      <trkpt lat="45.9964" lon="3.98137">
        <ele>374</ele>
        <time>2016-04-20T14:02:27Z</time>
      </trkpt>
      <trkpt lat="45.99635" lon="3.98139">
        <ele>374</ele>
        <time>2016-04-20T14:02:33Z</time>
      </trkpt>
      <trkpt lat="45.99628" lon="3.98148">
        <ele>374</ele>
        <time>2016-04-20T14:02:47Z</time>
      </trkpt>
      <trkpt lat="45.99508" lon="3.98219">
        <ele>377</ele>
        <time>2016-04-20T14:05:01Z</time>
      </trkpt>
      <trkpt lat="45.99487" lon="3.98224">
        <ele>377</ele>
        <time>2016-04-20T14:05:24Z</time>
      </trkpt>
      <trkpt lat="45.99452" lon="3.98259">
        <ele>376</ele>
        <time>2016-04-20T14:05:58Z</time>
      </trkpt>
      <trkpt lat="45.99389" lon="3.98302">
        <ele>375</ele>
        <time>2016-04-20T14:07:01Z</time>
      </trkpt>
      <trkpt lat="45.9933" lon="3.98356">
        <ele>373</ele>
        <time>2016-04-20T14:08:06Z</time>
      </trkpt>
      <trkpt lat="45.99316" lon="3.98362">
        <ele>372</ele>
        <time>2016-04-20T14:08:27Z</time>
      </trkpt>
      <trkpt lat="45.99302" lon="3.98365">
        <ele>372</ele>
        <time>2016-04-20T14:08:54Z</time>
      </trkpt>
      <trkpt lat="45.993" lon="3.98361">
        <ele>372</ele>
        <time>2016-04-20T14:09:01Z</time>
      </trkpt>
      <trkpt lat="45.99294" lon="3.98368">
        <ele>374</ele>
        <time>2016-04-20T14:20:01Z</time>
      </trkpt>
      <trkpt lat="45.99296" lon="3.98364">
        <ele>379</ele>
        <time>2016-04-20T14:25:18Z</time>
      </trkpt>
      <trkpt lat="45.99293" lon="3.98358">
        <ele>379</ele>
        <time>2016-04-20T14:25:55Z</time>
      </trkpt>
      <trkpt lat="45.9929" lon="3.98353">
        <ele>380</ele>
        <time>2016-04-20T14:26:00Z</time>
      </trkpt>
      <trkpt lat="45.99281" lon="3.98328">
        <ele>378</ele>
        <time>2016-04-20T14:26:20Z</time>
      </trkpt>
      <trkpt lat="45.99283" lon="3.98322">
        <ele>378</ele>
        <time>2016-04-20T14:26:25Z</time>
      </trkpt>
      <trkpt lat="45.99287" lon="3.98317">
        <ele>379</ele>
        <time>2016-04-20T14:26:29Z</time>
      </trkpt>
      <trkpt lat="45.9929" lon="3.98311">
        <ele>379</ele>
        <time>2016-04-20T14:26:33Z</time>
      </trkpt>
      <trkpt lat="45.99295" lon="3.983">
        <ele>378</ele>
        <time>2016-04-20T14:26:42Z</time>
      </trkpt>
      <trkpt lat="45.99298" lon="3.98293">
        <ele>377</ele>
        <time>2016-04-20T14:26:46Z</time>
      </trkpt>
      <trkpt lat="45.99299" lon="3.98285">
        <ele>377</ele>
        <time>2016-04-20T14:26:50Z</time>
      </trkpt>
      <trkpt lat="45.99297" lon="3.98277">
        <ele>378</ele>
        <time>2016-04-20T14:26:54Z</time>
      </trkpt>
      <trkpt lat="45.99277" lon="3.98244">
        <ele>379</ele>
        <time>2016-04-20T14:27:18Z</time>
      </trkpt>
      <trkpt lat="45.99271" lon="3.98219">
        <ele>380</ele>
        <time>2016-04-20T14:27:35Z</time>
      </trkpt>
      <trkpt lat="45.9927" lon="3.98212">
        <ele>380</ele>
        <time>2016-04-20T14:27:40Z</time>
      </trkpt>
      <trkpt lat="45.99271" lon="3.98205">
        <ele>380</ele>
        <time>2016-04-20T14:27:45Z</time>
      </trkpt>
      <trkpt lat="45.99274" lon="3.982">
        <ele>379</ele>
        <time>2016-04-20T14:28:07Z</time>
      </trkpt>
      <trkpt lat="45.99275" lon="3.98193">
        <ele>378</ele>
        <time>2016-04-20T14:28:11Z</time>
      </trkpt>
      <trkpt lat="45.99275" lon="3.98136">
        <ele>379</ele>
        <time>2016-04-20T14:28:48Z</time>
      </trkpt>
      <trkpt lat="45.99274" lon="3.98129">
        <ele>379</ele>
        <time>2016-04-20T14:28:52Z</time>
      </trkpt>
      <trkpt lat="45.99263" lon="3.98096">
        <ele>380</ele>
        <time>2016-04-20T14:29:15Z</time>
      </trkpt>
      <trkpt lat="45.99258" lon="3.98094">
        <ele>381</ele>
        <time>2016-04-20T14:29:21Z</time>
      </trkpt>
      <trkpt lat="45.99223" lon="3.98102">
        <ele>378</ele>
        <time>2016-04-20T14:29:54Z</time>
      </trkpt>
      <trkpt lat="45.99188" lon="3.98103">
        <ele>375</ele>
        <time>2016-04-20T14:30:25Z</time>
      </trkpt>
      <trkpt lat="45.99159" lon="3.98111">
        <ele>373</ele>
        <time>2016-04-20T14:30:57Z</time>
      </trkpt>
      <trkpt lat="45.99154" lon="3.98109">
        <ele>373</ele>
        <time>2016-04-20T14:31:02Z</time>
      </trkpt>
      <trkpt lat="45.99145" lon="3.98108">
        <ele>373</ele>
        <time>2016-04-20T14:31:15Z</time>
      </trkpt>
      <trkpt lat="45.99145" lon="3.981">
        <ele>373</ele>
        <time>2016-04-20T14:31:20Z</time>
      </trkpt>
      <trkpt lat="45.99143" lon="3.98094">
        <ele>374</ele>
        <time>2016-04-20T14:31:23Z</time>
      </trkpt>
      <trkpt lat="45.99139" lon="3.9809">
        <ele>375</ele>
        <time>2016-04-20T14:31:28Z</time>
      </trkpt>
      <trkpt lat="45.99133" lon="3.98088">
        <ele>375</ele>
        <time>2016-04-20T14:32:03Z</time>
      </trkpt>
      <trkpt lat="45.99107" lon="3.98097">
        <ele>370</ele>
        <time>2016-04-20T14:32:27Z</time>
      </trkpt>
      <trkpt lat="45.99102" lon="3.98096">
        <ele>370</ele>
        <time>2016-04-20T14:32:32Z</time>
      </trkpt>
      <trkpt lat="45.99098" lon="3.98094">
        <ele>371</ele>
        <time>2016-04-20T14:32:41Z</time>
      </trkpt>
      <trkpt lat="45.99094" lon="3.9809">
        <ele>371</ele>
        <time>2016-04-20T14:32:48Z</time>
      </trkpt>
      <trkpt lat="45.99075" lon="3.98083">
        <ele>372</ele>
        <time>2016-04-20T14:33:04Z</time>
      </trkpt>
      <trkpt lat="45.98972" lon="3.98057">
        <ele>373</ele>
        <time>2016-04-20T14:34:28Z</time>
      </trkpt>
      <trkpt lat="45.98962" lon="3.98057">
        <ele>374</ele>
        <time>2016-04-20T14:34:37Z</time>
      </trkpt>
      <trkpt lat="45.98917" lon="3.9805">
        <ele>374</ele>
        <time>2016-04-20T14:35:21Z</time>
      </trkpt>
      <trkpt lat="45.98901" lon="3.98051">
        <ele>374</ele>
        <time>2016-04-20T14:35:33Z</time>
      </trkpt>
      <trkpt lat="45.98863" lon="3.98046">
        <ele>372</ele>
        <time>2016-04-20T14:36:06Z</time>
      </trkpt>
      <trkpt lat="45.98848" lon="3.98042">
        <ele>370</ele>
        <time>2016-04-20T14:36:20Z</time>
      </trkpt>
      <trkpt lat="45.98778" lon="3.98006">
        <ele>368</ele>
        <time>2016-04-20T14:37:24Z</time>
      </trkpt>
      <trkpt lat="45.98755" lon="3.97996">
        <ele>367</ele>
        <time>2016-04-20T14:37:48Z</time>
      </trkpt>
      <trkpt lat="45.9875" lon="3.97998">
        <ele>367</ele>
        <time>2016-04-20T14:37:53Z</time>
      </trkpt>
      <trkpt lat="45.98714" lon="3.97988">
        <ele>366</ele>
        <time>2016-04-20T14:38:28Z</time>
      </trkpt>
      <trkpt lat="45.98678" lon="3.97986">
        <ele>365</ele>
        <time>2016-04-20T14:39:01Z</time>
      </trkpt>
      <trkpt lat="45.98622" lon="3.97997">
        <ele>365</ele>
        <time>2016-04-20T14:40:00Z</time>
      </trkpt>
      <trkpt lat="45.98348" lon="3.98116">
        <ele>371</ele>
        <time>2016-04-20T14:45:14Z</time>
      </trkpt>
      <trkpt lat="45.98313" lon="3.98145">
        <ele>369</ele>
        <time>2016-04-20T14:45:48Z</time>
      </trkpt>
      <trkpt lat="45.9829" lon="3.9819">
        <ele>368</ele>
        <time>2016-04-20T14:46:21Z</time>
      </trkpt>
      <trkpt lat="45.98266" lon="3.98227">
        <ele>366</ele>
        <time>2016-04-20T14:46:52Z</time>
      </trkpt>
      <trkpt lat="45.98235" lon="3.98253">
        <ele>364</ele>
        <time>2016-04-20T14:47:26Z</time>
      </trkpt>
      <trkpt lat="45.98231" lon="3.98254">
        <ele>363</ele>
        <time>2016-04-20T14:47:31Z</time>
      </trkpt>
      <trkpt lat="45.98216" lon="3.98251">
        <ele>363</ele>
        <time>2016-04-20T14:47:52Z</time>
      </trkpt>
      <trkpt lat="45.98189" lon="3.9823">
        <ele>361</ele>
        <time>2016-04-20T14:48:22Z</time>
      </trkpt>
      <trkpt lat="45.98144" lon="3.98156">
        <ele>357</ele>
        <time>2016-04-20T14:49:26Z</time>
      </trkpt>
      <trkpt lat="45.98109" lon="3.98129">
        <ele>355</ele>
        <time>2016-04-20T14:49:58Z</time>
      </trkpt>
      <trkpt lat="45.98062" lon="3.98111">
        <ele>353</ele>
        <time>2016-04-20T14:50:57Z</time>
      </trkpt>
      <trkpt lat="45.98049" lon="3.98102">
        <ele>352</ele>
        <time>2016-04-20T14:51:14Z</time>
      </trkpt>
      <trkpt lat="45.98045" lon="3.98098">
        <ele>352</ele>
        <time>2016-04-20T14:51:19Z</time>
      </trkpt>
      <trkpt lat="45.98026" lon="3.98068">
        <ele>353</ele>
        <time>2016-04-20T14:51:51Z</time>
      </trkpt>
      <trkpt lat="45.98" lon="3.9792">
        <ele>358</ele>
        <time>2016-04-20T14:53:34Z</time>
      </trkpt>
      <trkpt lat="45.9796" lon="3.9785">
        <ele>358</ele>
        <time>2016-04-20T14:54:35Z</time>
      </trkpt>
      <trkpt lat="45.97932" lon="3.97811">
        <ele>358</ele>
        <time>2016-04-20T14:55:09Z</time>
      </trkpt>
      <trkpt lat="45.97901" lon="3.97787">
        <ele>359</ele>
        <time>2016-04-20T14:55:42Z</time>
      </trkpt>
      <trkpt lat="45.97898" lon="3.97787">
        <ele>359</ele>
        <time>2016-04-20T14:55:48Z</time>
      </trkpt>
      <trkpt lat="45.97891" lon="3.97798">
        <ele>360</ele>
        <time>2016-04-20T14:56:11Z</time>
      </trkpt>
      <trkpt lat="45.97885" lon="3.97817">
        <ele>360</ele>
        <time>2016-04-20T14:56:27Z</time>
      </trkpt>
      <trkpt lat="45.97884" lon="3.97822">
        <ele>361</ele>
        <time>2016-04-20T14:56:36Z</time>
      </trkpt>
      <trkpt lat="45.97878" lon="3.97836">
        <ele>362</ele>
        <time>2016-04-20T14:56:54Z</time>
      </trkpt>
      <trkpt lat="45.97874" lon="3.9784">
        <ele>362</ele>
        <time>2016-04-20T14:57:00Z</time>
      </trkpt>
      <trkpt lat="45.97869" lon="3.97841">
        <ele>363</ele>
        <time>2016-04-20T14:57:06Z</time>
      </trkpt>
      <trkpt lat="45.97865" lon="3.97838">
        <ele>363</ele>
        <time>2016-04-20T14:57:12Z</time>
      </trkpt>
      <trkpt lat="45.97863" lon="3.97831">
        <ele>364</ele>
        <time>2016-04-20T14:57:19Z</time>
      </trkpt>
      <trkpt lat="45.97861" lon="3.97817">
        <ele>366</ele>
        <time>2016-04-20T14:57:31Z</time>
      </trkpt>
      <trkpt lat="45.97857" lon="3.97813">
        <ele>367</ele>
        <time>2016-04-20T14:57:36Z</time>
      </trkpt>
      <trkpt lat="45.97848" lon="3.97808">
        <ele>369</ele>
        <time>2016-04-20T14:57:49Z</time>
      </trkpt>
      <trkpt lat="45.97833" lon="3.97812">
        <ele>369</ele>
        <time>2016-04-20T14:58:07Z</time>
      </trkpt>
      <trkpt lat="45.97828" lon="3.9781">
        <ele>369</ele>
        <time>2016-04-20T14:58:12Z</time>
      </trkpt>
      <trkpt lat="45.97823" lon="3.97811">
        <ele>370</ele>
        <time>2016-04-20T14:58:18Z</time>
      </trkpt>
      <trkpt lat="45.978" lon="3.97837">
        <ele>373</ele>
        <time>2016-04-20T14:58:50Z</time>
      </trkpt>
      <trkpt lat="45.9778" lon="3.97866">
        <ele>375</ele>
        <time>2016-04-20T14:59:22Z</time>
      </trkpt>
      <trkpt lat="45.97772" lon="3.97873">
        <ele>376</ele>
        <time>2016-04-20T14:59:31Z</time>
      </trkpt>
      <trkpt lat="45.9776" lon="3.97873">
        <ele>378</ele>
        <time>2016-04-20T14:59:56Z</time>
      </trkpt>
      <trkpt lat="45.97754" lon="3.97871">
        <ele>378</ele>
        <time>2016-04-20T15:00:09Z</time>
      </trkpt>
      <trkpt lat="45.97745" lon="3.97872">
        <ele>379</ele>
        <time>2016-04-20T15:00:17Z</time>
      </trkpt>
      <trkpt lat="45.97688" lon="3.97869">
        <ele>385</ele>
        <time>2016-04-20T15:01:32Z</time>
      </trkpt>
      <trkpt lat="45.97669" lon="3.97874">
        <ele>385</ele>
        <time>2016-04-20T15:01:50Z</time>
      </trkpt>
      <trkpt lat="45.97664" lon="3.97875">
        <ele>385</ele>
        <time>2016-04-20T15:01:55Z</time>
      </trkpt>
      <trkpt lat="45.97644" lon="3.97879">
        <ele>385</ele>
        <time>2016-04-20T15:02:15Z</time>
      </trkpt>
      <trkpt lat="45.9762" lon="3.97886">
        <ele>385</ele>
        <time>2016-04-20T15:02:44Z</time>
      </trkpt>
      <trkpt lat="45.97618" lon="3.97884">
        <ele>385</ele>
        <time>2016-04-20T15:03:29Z</time>
      </trkpt>
      <trkpt lat="45.97586" lon="3.97889">
        <ele>383</ele>
        <time>2016-04-20T15:04:11Z</time>
      </trkpt>
      <trkpt lat="45.97581" lon="3.97892">
        <ele>384</ele>
        <time>2016-04-20T15:04:17Z</time>
      </trkpt>
      <trkpt lat="45.97577" lon="3.97897">
        <ele>384</ele>
        <time>2016-04-20T15:04:21Z</time>
      </trkpt>
      <trkpt lat="45.97552" lon="3.97904">
        <ele>383</ele>
        <time>2016-04-20T15:04:52Z</time>
      </trkpt>
      <trkpt lat="45.97549" lon="3.97906">
        <ele>383</ele>
        <time>2016-04-20T15:04:59Z</time>
      </trkpt>
      <trkpt lat="45.97547" lon="3.97912">
        <ele>383</ele>
        <time>2016-04-20T15:05:14Z</time>
      </trkpt>
      <trkpt lat="45.97541" lon="3.97913">
        <ele>385</ele>
        <time>2016-04-20T15:05:22Z</time>
      </trkpt>
      <trkpt lat="45.97536" lon="3.97914">
        <ele>385</ele>
        <time>2016-04-20T15:05:26Z</time>
      </trkpt>
      <trkpt lat="45.97518" lon="3.97928">
        <ele>381</ele>
        <time>2016-04-20T15:05:44Z</time>
      </trkpt>
      <trkpt lat="45.97501" lon="3.97954">
        <ele>381</ele>
        <time>2016-04-20T15:06:09Z</time>
      </trkpt>
      <trkpt lat="45.97482" lon="3.97988">
        <ele>383</ele>
        <time>2016-04-20T15:06:39Z</time>
      </trkpt>
      <trkpt lat="45.9748" lon="3.98002">
        <ele>385</ele>
        <time>2016-04-20T15:06:49Z</time>
      </trkpt>
      <trkpt lat="45.97466" lon="3.98056">
        <ele>387</ele>
        <time>2016-04-20T15:07:25Z</time>
      </trkpt>
      <trkpt lat="45.9746" lon="3.98104">
        <ele>387</ele>
        <time>2016-04-20T15:07:56Z</time>
      </trkpt>
      <trkpt lat="45.97457" lon="3.98259">
        <ele>391</ele>
        <time>2016-04-20T15:09:33Z</time>
      </trkpt>
      <trkpt lat="45.97455" lon="3.98266">
        <ele>391</ele>
        <time>2016-04-20T15:09:38Z</time>
      </trkpt>
      <trkpt lat="45.97451" lon="3.98277">
        <ele>391</ele>
        <time>2016-04-20T15:10:12Z</time>
      </trkpt>
      <trkpt lat="45.97442" lon="3.98335">
        <ele>391</ele>
        <time>2016-04-20T15:10:54Z</time>
      </trkpt>
      <trkpt lat="45.9744" lon="3.98332">
        <ele>391</ele>
        <time>2016-04-20T15:11:35Z</time>
      </trkpt>
      <trkpt lat="45.9743" lon="3.98367">
        <ele>392</ele>
        <time>2016-04-20T15:12:34Z</time>
      </trkpt>
      <trkpt lat="45.97429" lon="3.98374">
        <ele>393</ele>
        <time>2016-04-20T15:12:39Z</time>
      </trkpt>
      <trkpt lat="45.97427" lon="3.98379">
        <ele>393</ele>
        <time>2016-04-20T15:12:44Z</time>
      </trkpt>
      <trkpt lat="45.97424" lon="3.98392">
        <ele>396</ele>
        <time>2016-04-20T15:12:54Z</time>
      </trkpt>
      <trkpt lat="45.97419" lon="3.98404">
        <ele>396</ele>
        <time>2016-04-20T15:13:03Z</time>
      </trkpt>
      <trkpt lat="45.97395" lon="3.98497">
        <ele>398</ele>
        <time>2016-04-20T15:14:26Z</time>
      </trkpt>
      <trkpt lat="45.97392" lon="3.98503">
        <ele>398</ele>
        <time>2016-04-20T15:14:33Z</time>
      </trkpt>
      <trkpt lat="45.97348" lon="3.98674">
        <ele>398</ele>
        <time>2016-04-20T15:16:32Z</time>
      </trkpt>
      <trkpt lat="45.97345" lon="3.98673">
        <ele>398</ele>
        <time>2016-04-20T15:16:40Z</time>
      </trkpt>
      <trkpt lat="45.97336" lon="3.98705">
        <ele>399</ele>
        <time>2016-04-20T15:17:03Z</time>
      </trkpt>
      <trkpt lat="45.97335" lon="3.98712">
        <ele>399</ele>
        <time>2016-04-20T15:17:08Z</time>
      </trkpt>
      <trkpt lat="45.97332" lon="3.98761">
        <ele>396</ele>
        <time>2016-04-20T15:17:42Z</time>
      </trkpt>
      <trkpt lat="45.97306" lon="3.98907">
        <ele>393</ele>
        <time>2016-04-20T15:19:25Z</time>
      </trkpt>
      <trkpt lat="45.97294" lon="3.98948">
        <ele>394</ele>
        <time>2016-04-20T15:19:56Z</time>
      </trkpt>
      <trkpt lat="45.97262" lon="3.99028">
        <ele>393</ele>
        <time>2016-04-20T15:21:01Z</time>
      </trkpt>
      <trkpt lat="45.97222" lon="3.99094">
        <ele>394</ele>
        <time>2016-04-20T15:22:05Z</time>
      </trkpt>
      <trkpt lat="45.9722" lon="3.99093">
        <ele>394</ele>
        <time>2016-04-20T15:22:29Z</time>
      </trkpt>
      <trkpt lat="45.97219" lon="3.99088">
        <ele>394</ele>
        <time>2016-04-20T15:23:04Z</time>
      </trkpt>
      <trkpt lat="45.97215" lon="3.99092">
        <ele>394</ele>
        <time>2016-04-20T15:23:10Z</time>
      </trkpt>
      <trkpt lat="45.97166" lon="3.99168">
        <ele>394</ele>
        <time>2016-04-20T15:24:19Z</time>
      </trkpt>
      <trkpt lat="45.97147" lon="3.99218">
        <ele>395</ele>
        <time>2016-04-20T15:24:53Z</time>
      </trkpt>
      <trkpt lat="45.97106" lon="3.99296">
        <ele>399</ele>
        <time>2016-04-20T15:26:05Z</time>
      </trkpt>
      <trkpt lat="45.97099" lon="3.99306">
        <ele>400</ele>
        <time>2016-04-20T15:26:14Z</time>
      </trkpt>
      <trkpt lat="45.97059" lon="3.99397">
        <ele>397</ele>
        <time>2016-04-20T15:27:26Z</time>
      </trkpt>
      <trkpt lat="45.97056" lon="3.99403">
        <ele>397</ele>
        <time>2016-04-20T15:27:31Z</time>
      </trkpt>
      <trkpt lat="45.96922" lon="3.99715">
        <ele>397</ele>
        <time>2016-04-20T15:31:30Z</time>
      </trkpt>
      <trkpt lat="45.96907" lon="3.99754">
        <ele>396</ele>
        <time>2016-04-20T15:32:04Z</time>
      </trkpt>
      <trkpt lat="45.96901" lon="3.99782">
        <ele>396</ele>
        <time>2016-04-20T15:32:24Z</time>
      </trkpt>
      <trkpt lat="45.96817" lon="4.00012">
        <ele>394</ele>
        <time>2016-04-20T15:35:11Z</time>
      </trkpt>
      <trkpt lat="45.96806" lon="4.00026">
        <ele>393</ele>
        <time>2016-04-20T15:35:25Z</time>
      </trkpt>
      <trkpt lat="45.96792" lon="4.00056">
        <ele>393</ele>
        <time>2016-04-20T15:35:49Z</time>
      </trkpt>
      <trkpt lat="45.9676" lon="4.00088">
        <ele>391</ele>
        <time>2016-04-20T15:36:21Z</time>
      </trkpt>
      <trkpt lat="45.96737" lon="4.00104">
        <ele>391</ele>
        <time>2016-04-20T15:36:39Z</time>
      </trkpt>
      <trkpt lat="45.96733" lon="4.00108">
        <ele>389</ele>
        <time>2016-04-20T15:36:44Z</time>
      </trkpt>
      <trkpt lat="45.96724" lon="4.00116">
        <ele>389</ele>
        <time>2016-04-20T15:36:52Z</time>
      </trkpt>
      <trkpt lat="45.96708" lon="4.00145">
        <ele>391</ele>
        <time>2016-04-20T15:37:14Z</time>
      </trkpt>
      <trkpt lat="45.96689" lon="4.00196">
        <ele>391</ele>
        <time>2016-04-20T15:37:52Z</time>
      </trkpt>
      <trkpt lat="45.96667" lon="4.00236">
        <ele>393</ele>
        <time>2016-04-20T15:38:23Z</time>
      </trkpt>
      <trkpt lat="45.96643" lon="4.00271">
        <ele>395</ele>
        <time>2016-04-20T15:38:52Z</time>
      </trkpt>
      <trkpt lat="45.9663" lon="4.00284">
        <ele>395</ele>
        <time>2016-04-20T15:39:05Z</time>
      </trkpt>
      <trkpt lat="45.9663" lon="4.00291">
        <ele>395</ele>
        <time>2016-04-20T15:39:10Z</time>
      </trkpt>
      <trkpt lat="45.96625" lon="4.00302">
        <ele>396</ele>
        <time>2016-04-20T15:39:24Z</time>
      </trkpt>
      <trkpt lat="45.96626" lon="4.00305">
        <ele>396</ele>
        <time>2016-04-20T15:39:42Z</time>
      </trkpt>
      <trkpt lat="45.96622" lon="4.00327">
        <ele>400</ele>
        <time>2016-04-20T15:39:58Z</time>
      </trkpt>
      <trkpt lat="45.96619" lon="4.00334">
        <ele>401</ele>
        <time>2016-04-20T15:40:03Z</time>
      </trkpt>
      <trkpt lat="45.96622" lon="4.0034">
        <ele>401</ele>
        <time>2016-04-20T15:40:09Z</time>
      </trkpt>
      <trkpt lat="45.96618" lon="4.00344">
        <ele>401</ele>
        <time>2016-04-20T15:40:31Z</time>
      </trkpt>
      <trkpt lat="45.96613" lon="4.00346">
        <ele>399</ele>
        <time>2016-04-20T15:40:40Z</time>
      </trkpt>
      <trkpt lat="45.96608" lon="4.00358">
        <ele>398</ele>
        <time>2016-04-20T15:40:50Z</time>
      </trkpt>
      <trkpt lat="45.96606" lon="4.00362">
        <ele>398</ele>
        <time>2016-04-20T15:41:14Z</time>
      </trkpt>
      <trkpt lat="45.96608" lon="4.00374">
        <ele>398</ele>
        <time>2016-04-20T15:41:26Z</time>
      </trkpt>
      <trkpt lat="45.96606" lon="4.0038">
        <ele>397</ele>
        <time>2016-04-20T15:41:30Z</time>
      </trkpt>
      <trkpt lat="45.96606" lon="4.00522">
        <ele>394</ele>
        <time>2016-04-20T15:43:01Z</time>
      </trkpt>
      <trkpt lat="45.96585" lon="4.00611">
        <ele>391</ele>
        <time>2016-04-20T15:44:03Z</time>
      </trkpt>
      <trkpt lat="45.96513" lon="4.00775">
        <ele>382</ele>
        <time>2016-04-20T15:46:15Z</time>
      </trkpt>
      <trkpt lat="45.96504" lon="4.00804">
        <ele>380</ele>
        <time>2016-04-20T15:46:54Z</time>
      </trkpt>
      <trkpt lat="45.96502" lon="4.00818">
        <ele>379</ele>
        <time>2016-04-20T15:47:02Z</time>
      </trkpt>
      <trkpt lat="45.965" lon="4.00823">
        <ele>378</ele>
        <time>2016-04-20T15:47:06Z</time>
      </trkpt>
      <trkpt lat="45.96492" lon="4.00885">
        <ele>374</ele>
        <time>2016-04-20T15:47:54Z</time>
      </trkpt>
      <trkpt lat="45.96488" lon="4.00882">
        <ele>374</ele>
        <time>2016-04-20T15:49:08Z</time>
      </trkpt>
      <trkpt lat="45.96477" lon="4.00882">
        <ele>375</ele>
        <time>2016-04-20T15:49:16Z</time>
      </trkpt>
      <trkpt lat="45.96462" lon="4.00877">
        <ele>374</ele>
        <time>2016-04-20T15:49:26Z</time>
      </trkpt>
      <trkpt lat="45.96453" lon="4.0088">
        <ele>374</ele>
        <time>2016-04-20T15:49:33Z</time>
      </trkpt>
      <trkpt lat="45.96448" lon="4.00879">
        <ele>374</ele>
        <time>2016-04-20T15:49:38Z</time>
      </trkpt>
      <trkpt lat="45.96429" lon="4.00868">
        <ele>373</ele>
        <time>2016-04-20T15:50:01Z</time>
      </trkpt>
      <trkpt lat="45.96427" lon="4.00861">
        <ele>372</ele>
        <time>2016-04-20T15:50:05Z</time>
      </trkpt>
      <trkpt lat="45.96424" lon="4.0084">
        <ele>372</ele>
        <time>2016-04-20T15:50:17Z</time>
      </trkpt>
      <trkpt lat="45.96424" lon="4.00819">
        <ele>370</ele>
        <time>2016-04-20T15:50:30Z</time>
      </trkpt>
      <trkpt lat="45.96418" lon="4.00801">
        <ele>369</ele>
        <time>2016-04-20T15:50:47Z</time>
      </trkpt>
      <trkpt lat="45.96414" lon="4.00802">
        <ele>368</ele>
        <time>2016-04-20T15:50:55Z</time>
      </trkpt>
      <trkpt lat="45.96412" lon="4.00787">
        <ele>367</ele>
        <time>2016-04-20T15:51:06Z</time>
      </trkpt>
      <trkpt lat="45.96412" lon="4.00775">
        <ele>367</ele>
        <time>2016-04-20T15:51:33Z</time>
      </trkpt>
      <trkpt lat="45.96409" lon="4.00776">
        <ele>367</ele>
        <time>2016-04-20T15:52:51Z</time>
      </trkpt>
      <trkpt lat="45.9641" lon="4.00782">
        <ele>367</ele>
        <time>2016-04-20T15:52:55Z</time>
      </trkpt>
      <trkpt lat="45.96406" lon="4.00785">
        <ele>367</ele>
        <time>2016-04-20T15:53:00Z</time>
      </trkpt>
      <trkpt lat="45.96396" lon="4.00788">
        <ele>367</ele>
        <time>2016-04-20T15:53:11Z</time>
      </trkpt>
      <trkpt lat="45.96396" lon="4.00792">
        <ele>365</ele>
        <time>2016-04-20T15:53:34Z</time>
      </trkpt>
      <trkpt lat="45.964" lon="4.00783">
        <ele>364</ele>
        <time>2016-04-20T15:55:24Z</time>
      </trkpt>
      <trkpt lat="45.96409" lon="4.00781">
        <ele>365</ele>
        <time>2016-04-20T15:55:31Z</time>
      </trkpt>
      <trkpt lat="45.96412" lon="4.00775">
        <ele>366</ele>
        <time>2016-04-20T15:55:37Z</time>
      </trkpt>
      <trkpt lat="45.96409" lon="4.00762">
        <ele>366</ele>
        <time>2016-04-20T15:55:45Z</time>
      </trkpt>
      <trkpt lat="45.96404" lon="4.0076">
        <ele>366</ele>
        <time>2016-04-20T15:55:50Z</time>
      </trkpt>
      <trkpt lat="45.96399" lon="4.00761">
        <ele>365</ele>
        <time>2016-04-20T15:55:53Z</time>
      </trkpt>
      <trkpt lat="45.96391" lon="4.00759">
        <ele>366</ele>
        <time>2016-04-20T15:56:06Z</time>
      </trkpt>
      <trkpt lat="45.96388" lon="4.0076">
        <ele>367</ele>
        <time>2016-04-20T15:57:14Z</time>
      </trkpt>
      <trkpt lat="45.96385" lon="4.00764">
        <ele>366</ele>
        <time>2016-04-20T15:57:20Z</time>
      </trkpt>
      <trkpt lat="45.96383" lon="4.00775">
        <ele>364</ele>
        <time>2016-04-20T15:57:30Z</time>
      </trkpt>
      <trkpt lat="45.96383" lon="4.00784">
        <ele>364</ele>
        <time>2016-04-20T15:57:47Z</time>
      </trkpt>
      <trkpt lat="45.9639" lon="4.00817">
        <ele>362</ele>
        <time>2016-04-20T15:58:07Z</time>
      </trkpt>
      <trkpt lat="45.96393" lon="4.00822">
        <ele>362</ele>
        <time>2016-04-20T15:58:12Z</time>
      </trkpt>
      <trkpt lat="45.96398" lon="4.00821">
        <ele>363</ele>
        <time>2016-04-20T15:58:16Z</time>
      </trkpt>
      <trkpt lat="45.96398" lon="4.00826">
        <ele>363</ele>
        <time>2016-04-20T15:58:38Z</time>
      </trkpt>
      <trkpt lat="45.96397" lon="4.00833">
        <ele>363</ele>
        <time>2016-04-20T15:58:41Z</time>
      </trkpt>
      <trkpt lat="45.96408" lon="4.00907">
        <ele>361</ele>
        <time>2016-04-20T15:59:19Z</time>
      </trkpt>
      <trkpt lat="45.96416" lon="4.00933">
        <ele>360</ele>
        <time>2016-04-20T15:59:35Z</time>
      </trkpt>
      <trkpt lat="45.96419" lon="4.00937">
        <ele>360</ele>
        <time>2016-04-20T15:59:39Z</time>
      </trkpt>
      <trkpt lat="45.96463" lon="4.0097">
        <ele>360</ele>
        <time>2016-04-20T16:00:22Z</time>
      </trkpt>
      <trkpt lat="45.96467" lon="4.00975">
        <ele>360</ele>
        <time>2016-04-20T16:00:26Z</time>
      </trkpt>
      <trkpt lat="45.96468" lon="4.00982">
        <ele>361</ele>
        <time>2016-04-20T16:00:31Z</time>
      </trkpt>
      <trkpt lat="45.96445" lon="4.01046">
        <ele>356</ele>
        <time>2016-04-20T16:01:13Z</time>
      </trkpt>
      <trkpt lat="45.96441" lon="4.01051">
        <ele>356</ele>
        <time>2016-04-20T16:01:17Z</time>
      </trkpt>
      <trkpt lat="45.96438" lon="4.01057">
        <ele>356</ele>
        <time>2016-04-20T16:01:22Z</time>
      </trkpt>
      <trkpt lat="45.96443" lon="4.01107">
        <ele>355</ele>
        <time>2016-04-20T16:01:54Z</time>
      </trkpt>
      <trkpt lat="45.96448" lon="4.0112">
        <ele>355</ele>
        <time>2016-04-20T16:02:03Z</time>
      </trkpt>
      <trkpt lat="45.96444" lon="4.01124">
        <ele>355</ele>
        <time>2016-04-20T16:02:07Z</time>
      </trkpt>
      <trkpt lat="45.9644" lon="4.01124">
        <ele>354</ele>
        <time>2016-04-20T16:02:12Z</time>
      </trkpt>
      <trkpt lat="45.96442" lon="4.01133">
        <ele>351</ele>
        <time>2016-04-20T16:02:23Z</time>
      </trkpt>
      <trkpt lat="45.96443" lon="4.01149">
        <ele>352</ele>
        <time>2016-04-20T16:02:32Z</time>
      </trkpt>
      <trkpt lat="45.9645" lon="4.01158">
        <ele>352</ele>
        <time>2016-04-20T16:02:45Z</time>
      </trkpt>
      <trkpt lat="45.96451" lon="4.01164">
        <ele>352</ele>
        <time>2016-04-20T16:02:53Z</time>
      </trkpt>
      <trkpt lat="45.96447" lon="4.01168">
        <ele>352</ele>
        <time>2016-04-20T16:02:59Z</time>
      </trkpt>
      <trkpt lat="45.96449" lon="4.01175">
        <ele>352</ele>
        <time>2016-04-20T16:03:04Z</time>
      </trkpt>
      <trkpt lat="45.96442" lon="4.01183">
        <ele>350</ele>
        <time>2016-04-20T16:03:23Z</time>
      </trkpt>
      <trkpt lat="45.96444" lon="4.01187">
        <ele>350</ele>
        <time>2016-04-20T16:03:30Z</time>
      </trkpt>
      <trkpt lat="45.96444" lon="4.01176">
        <ele>350</ele>
        <time>2016-04-20T16:04:04Z</time>
      </trkpt>
      <trkpt lat="45.96441" lon="4.01167">
        <ele>350</ele>
        <time>2016-04-20T16:04:25Z</time>
      </trkpt>
      <trkpt lat="45.96438" lon="4.01173">
        <ele>349</ele>
        <time>2016-04-20T16:04:31Z</time>
      </trkpt>
      <trkpt lat="45.96437" lon="4.01203">
        <ele>345</ele>
        <time>2016-04-20T16:04:46Z</time>
      </trkpt>
      <trkpt lat="45.96443" lon="4.01223">
        <ele>344</ele>
        <time>2016-04-20T16:04:58Z</time>
      </trkpt>
      <trkpt lat="45.96444" lon="4.0123">
        <ele>344</ele>
        <time>2016-04-20T16:05:02Z</time>
      </trkpt>
      <trkpt lat="45.96446" lon="4.01236">
        <ele>343</ele>
        <time>2016-04-20T16:05:06Z</time>
      </trkpt>
      <trkpt lat="45.96449" lon="4.01338">
        <ele>334</ele>
        <time>2016-04-20T16:06:13Z</time>
      </trkpt>
      <trkpt lat="45.96436" lon="4.01358">
        <ele>331</ele>
        <time>2016-04-20T16:06:32Z</time>
      </trkpt>
      <trkpt lat="45.96436" lon="4.01362">
        <ele>330</ele>
        <time>2016-04-20T16:06:54Z</time>
      </trkpt>
      <trkpt lat="45.96435" lon="4.01366">
        <ele>329</ele>
        <time>2016-04-20T16:07:33Z</time>
      </trkpt>
      <trkpt lat="45.96429" lon="4.01366">
        <ele>328</ele>
        <time>2016-04-20T16:07:47Z</time>
      </trkpt>
      <trkpt lat="45.96421" lon="4.01359">
        <ele>326</ele>
        <time>2016-04-20T16:07:56Z</time>
      </trkpt>
      <trkpt lat="45.96416" lon="4.01351">
        <ele>324</ele>
        <time>2016-04-20T16:08:29Z</time>
      </trkpt>
      <trkpt lat="45.96413" lon="4.01346">
        <ele>324</ele>
        <time>2016-04-20T16:08:35Z</time>
      </trkpt>
      <trkpt lat="45.96411" lon="4.0134">
        <ele>323</ele>
        <time>2016-04-20T16:08:52Z</time>
      </trkpt>
      <trkpt lat="45.9641" lon="4.01311">
        <ele>322</ele>
        <time>2016-04-20T16:09:09Z</time>
      </trkpt>
      <trkpt lat="45.96355" lon="4.01152">
        <ele>316</ele>
        <time>2016-04-20T16:10:49Z</time>
      </trkpt>
      <trkpt lat="45.96354" lon="4.01138">
        <ele>317</ele>
        <time>2016-04-20T16:10:59Z</time>
      </trkpt>
      <trkpt lat="45.96355" lon="4.01133">
        <ele>318</ele>
        <time>2016-04-20T16:11:07Z</time>
      </trkpt>
      <trkpt lat="45.96355" lon="4.01126">
        <ele>319</ele>
        <time>2016-04-20T16:11:16Z</time>
      </trkpt>
      <trkpt lat="45.96342" lon="4.0106">
        <ele>315</ele>
        <time>2016-04-20T16:11:54Z</time>
      </trkpt>
      <trkpt lat="45.96341" lon="4.01047">
        <ele>315</ele>
        <time>2016-04-20T16:12:02Z</time>
      </trkpt>
      <trkpt lat="45.96344" lon="4.01012">
        <ele>315</ele>
        <time>2016-04-20T16:12:23Z</time>
      </trkpt>
      <trkpt lat="45.96327" lon="4.00961">
        <ele>314</ele>
        <time>2016-04-20T16:12:58Z</time>
      </trkpt>
      <trkpt lat="45.96318" lon="4.00944">
        <ele>314</ele>
        <time>2016-04-20T16:13:11Z</time>
      </trkpt>
      <trkpt lat="45.96311" lon="4.00938">
        <ele>314</ele>
        <time>2016-04-20T16:13:21Z</time>
      </trkpt>
      <trkpt lat="45.96305" lon="4.00939">
        <ele>314</ele>
        <time>2016-04-20T16:13:37Z</time>
      </trkpt>
      <trkpt lat="45.963" lon="4.00936">
        <ele>314</ele>
        <time>2016-04-20T16:13:42Z</time>
      </trkpt>
      <trkpt lat="45.9626" lon="4.00931">
        <ele>314</ele>
        <time>2016-04-20T16:14:18Z</time>
      </trkpt>
      <trkpt lat="45.9625" lon="4.00927">
        <ele>314</ele>
        <time>2016-04-20T16:14:27Z</time>
      </trkpt>
      <trkpt lat="45.96241" lon="4.00921">
        <ele>316</ele>
        <time>2016-04-20T16:14:36Z</time>
      </trkpt>
      <trkpt lat="45.96213" lon="4.009">
        <ele>317</ele>
        <time>2016-04-20T16:15:05Z</time>
      </trkpt>
      <trkpt lat="45.962" lon="4.00877">
        <ele>315</ele>
        <time>2016-04-20T16:15:26Z</time>
      </trkpt>
      <trkpt lat="45.96197" lon="4.00871">
        <ele>315</ele>
        <time>2016-04-20T16:15:30Z</time>
      </trkpt>
      <trkpt lat="45.96195" lon="4.00866">
        <ele>315</ele>
        <time>2016-04-20T16:15:34Z</time>
      </trkpt>
      <trkpt lat="45.96191" lon="4.0086">
        <ele>315</ele>
        <time>2016-04-20T16:15:39Z</time>
      </trkpt>
      <trkpt lat="45.96177" lon="4.00843">
        <ele>316</ele>
        <time>2016-04-20T16:16:00Z</time>
      </trkpt>
      <trkpt lat="45.96173" lon="4.00839">
        <ele>316</ele>
        <time>2016-04-20T16:16:25Z</time>
      </trkpt>
      <trkpt lat="45.96152" lon="4.00792">
        <ele>315</ele>
        <time>2016-04-20T16:16:58Z</time>
      </trkpt>
      <trkpt lat="45.96143" lon="4.00784">
        <ele>315</ele>
        <time>2016-04-20T16:17:06Z</time>
      </trkpt>
      <trkpt lat="45.96128" lon="4.00723">
        <ele>316</ele>
        <time>2016-04-20T16:17:54Z</time>
      </trkpt>
      <trkpt lat="45.96143" lon="4.00685">
        <ele>317</ele>
        <time>2016-04-20T16:18:39Z</time>
      </trkpt>
      <trkpt lat="45.96144" lon="4.00655">
        <ele>319</ele>
        <time>2016-04-20T16:19:16Z</time>
      </trkpt>
      <trkpt lat="45.96142" lon="4.00648">
        <ele>319</ele>
        <time>2016-04-20T16:19:21Z</time>
      </trkpt>
      <trkpt lat="45.96143" lon="4.00634">
        <ele>319</ele>
        <time>2016-04-20T16:19:31Z</time>
      </trkpt>
      <trkpt lat="45.96135" lon="4.00624">
        <ele>318</ele>
        <time>2016-04-20T16:19:42Z</time>
      </trkpt>
      <trkpt lat="45.9613" lon="4.00619">
        <ele>318</ele>
        <time>2016-04-20T16:19:47Z</time>
      </trkpt>
      <trkpt lat="45.96126" lon="4.00618">
        <ele>318</ele>
        <time>2016-04-20T16:19:50Z</time>
      </trkpt>
      <trkpt lat="45.96108" lon="4.00603">
        <ele>318</ele>
        <time>2016-04-20T16:20:06Z</time>
      </trkpt>
      <trkpt lat="45.96089" lon="4.0057">
        <ele>319</ele>
        <time>2016-04-20T16:20:36Z</time>
      </trkpt>
      <trkpt lat="45.96082" lon="4.00561">
        <ele>319</ele>
        <time>2016-04-20T16:20:44Z</time>
      </trkpt>
      <trkpt lat="45.9608" lon="4.00554">
        <ele>319</ele>
        <time>2016-04-20T16:20:50Z</time>
      </trkpt>
      <trkpt lat="45.96071" lon="4.00536">
        <ele>321</ele>
        <time>2016-04-20T16:21:03Z</time>
      </trkpt>
      <trkpt lat="45.96063" lon="4.00516">
        <ele>319</ele>
        <time>2016-04-20T16:21:17Z</time>
      </trkpt>
      <trkpt lat="45.96062" lon="4.00458">
        <ele>325</ele>
        <time>2016-04-20T16:21:55Z</time>
      </trkpt>
      <trkpt lat="45.96063" lon="4.00452">
        <ele>325</ele>
        <time>2016-04-20T16:21:59Z</time>
      </trkpt>
      <trkpt lat="45.96064" lon="4.00437">
        <ele>325</ele>
        <time>2016-04-20T16:22:09Z</time>
      </trkpt>
      <trkpt lat="45.9607" lon="4.00425">
        <ele>326</ele>
        <time>2016-04-20T16:22:17Z</time>
      </trkpt>
      <trkpt lat="45.96082" lon="4.00353">
        <ele>327</ele>
        <time>2016-04-20T16:23:07Z</time>
      </trkpt>
      <trkpt lat="45.9608" lon="4.00347">
        <ele>327</ele>
        <time>2016-04-20T16:23:12Z</time>
      </trkpt>
      <trkpt lat="45.96075" lon="4.00343">
        <ele>327</ele>
        <time>2016-04-20T16:23:16Z</time>
      </trkpt>
      <trkpt lat="45.96061" lon="4.0034">
        <ele>328</ele>
        <time>2016-04-20T16:23:31Z</time>
      </trkpt>
      <trkpt lat="45.96056" lon="4.00338">
        <ele>329</ele>
        <time>2016-04-20T16:23:37Z</time>
      </trkpt>
      <trkpt lat="45.96051" lon="4.00339">
        <ele>329</ele>
        <time>2016-04-20T16:23:45Z</time>
      </trkpt>
      <trkpt lat="45.96044" lon="4.00346">
        <ele>332</ele>
        <time>2016-04-20T16:25:11Z</time>
      </trkpt>
      <trkpt lat="45.96027" lon="4.00373">
        <ele>342</ele>
        <time>2016-04-20T16:25:37Z</time>
      </trkpt>
      <trkpt lat="45.96019" lon="4.00394">
        <ele>341</ele>
        <time>2016-04-20T16:25:50Z</time>
      </trkpt>
      <trkpt lat="45.96016" lon="4.00399">
        <ele>341</ele>
        <time>2016-04-20T16:25:56Z</time>
      </trkpt>
      <trkpt lat="45.95995" lon="4.00478">
        <ele>355</ele>
        <time>2016-04-20T16:27:23Z</time>
      </trkpt>
      <trkpt lat="45.95989" lon="4.00484">
        <ele>357</ele>
        <time>2016-04-20T16:27:35Z</time>
      </trkpt>
      <trkpt lat="45.95931" lon="4.00559">
        <ele>364</ele>
        <time>2016-04-20T16:28:57Z</time>
      </trkpt>
      <trkpt lat="45.95891" lon="4.0065">
        <ele>369</ele>
        <time>2016-04-20T16:30:17Z</time>
      </trkpt>
      <trkpt lat="45.95889" lon="4.00656">
        <ele>371</ele>
        <time>2016-04-20T16:30:45Z</time>
      </trkpt>
      <trkpt lat="45.95885" lon="4.00659">
        <ele>371</ele>
        <time>2016-04-20T16:30:51Z</time>
      </trkpt>
      <trkpt lat="45.95875" lon="4.00689">
        <ele>373</ele>
        <time>2016-04-20T16:31:54Z</time>
      </trkpt>
      <trkpt lat="45.9585" lon="4.00724">
        <ele>372</ele>
        <time>2016-04-20T16:32:26Z</time>
      </trkpt>
      <trkpt lat="45.95832" lon="4.00735">
        <ele>371</ele>
        <time>2016-04-20T16:32:46Z</time>
      </trkpt>
      <trkpt lat="45.95804" lon="4.00715">
        <ele>376</ele>
        <time>2016-04-20T16:35:16Z</time>
      </trkpt>
      <trkpt lat="45.95774" lon="4.00682">
        <ele>376</ele>
        <time>2016-04-20T16:36:05Z</time>
      </trkpt>
      <trkpt lat="45.95594" lon="4.00624">
        <ele>388</ele>
        <time>2016-04-20T16:38:40Z</time>
      </trkpt>
      <trkpt lat="45.9559" lon="4.00621">
        <ele>397</ele>
        <time>2016-04-20T16:38:45Z</time>
      </trkpt>
      <trkpt lat="45.95575" lon="4.00616">
        <ele>399</ele>
        <time>2016-04-20T16:38:58Z</time>
      </trkpt>
      <trkpt lat="45.95445" lon="4.00532">
        <ele>408</ele>
        <time>2016-04-20T16:41:17Z</time>
      </trkpt>
      <trkpt lat="45.95441" lon="4.00529">
        <ele>408</ele>
        <time>2016-04-20T16:41:22Z</time>
      </trkpt>
      <trkpt lat="45.95313" lon="4.00439">
        <ele>407</ele>
        <time>2016-04-20T16:43:28Z</time>
      </trkpt>
      <trkpt lat="45.95266" lon="4.00419">
        <ele>407</ele>
        <time>2016-04-20T16:44:12Z</time>
      </trkpt>
      <trkpt lat="45.95252" lon="4.00415">
        <ele>407</ele>
        <time>2016-04-20T16:44:24Z</time>
      </trkpt>
      <trkpt lat="45.95256" lon="4.00411">
        <ele>407</ele>
        <time>2016-04-20T16:45:14Z</time>
      </trkpt>
      <trkpt lat="45.95259" lon="4.00411">
        <ele>407</ele>
        <time>2016-04-20T16:45:20Z</time>
      </trkpt>
      <trkpt lat="45.95261" lon="4.00409">
        <ele>407</ele>
        <time>2016-04-20T16:45:26Z</time>
      </trkpt>
      <trkpt lat="45.95283" lon="4.00425">
        <ele>406</ele>
        <time>2016-04-20T16:46:02Z</time>
      </trkpt>
      <trkpt lat="45.95291" lon="4.00427">
        <ele>406</ele>
        <time>2016-04-20T16:46:13Z</time>
      </trkpt>
      <trkpt lat="45.95294" lon="4.00423">
        <ele>407</ele>
        <time>2016-04-20T16:48:03Z</time>
      </trkpt>
      <trkpt lat="45.95302" lon="4.00427">
        <ele>408</ele>
        <time>2016-04-20T16:48:17Z</time>
      </trkpt>
      <trkpt lat="45.953" lon="4.00429">
        <ele>408</ele>
        <time>2016-04-20T16:48:47Z</time>
      </trkpt>
      <trkpt lat="45.95295" lon="4.00428">
        <ele>408</ele>
        <time>2016-04-20T16:48:56Z</time>
      </trkpt>
      <trkpt lat="45.95288" lon="4.0043">
        <ele>408</ele>
        <time>2016-04-20T16:49:00Z</time>
      </trkpt>
      <trkpt lat="45.95279" lon="4.00426">
        <ele>409</ele>
        <time>2016-04-20T16:49:11Z</time>
      </trkpt>
      <trkpt lat="45.95277" lon="4.00421">
        <ele>408</ele>
        <time>2016-04-20T16:49:24Z</time>
      </trkpt>
      <trkpt lat="45.9527" lon="4.00417">
        <ele>408</ele>
        <time>2016-04-20T16:49:35Z</time>
      </trkpt>
      <trkpt lat="45.95204" lon="4.00399">
        <ele>408</ele>
        <time>2016-04-20T16:50:44Z</time>
      </trkpt>
      <trkpt lat="45.95178" lon="4.0039">
        <ele>409</ele>
        <time>2016-04-20T16:51:14Z</time>
      </trkpt>
      <trkpt lat="45.95164" lon="4.00393">
        <ele>409</ele>
        <time>2016-04-20T16:51:28Z</time>
      </trkpt>
      <trkpt lat="45.95159" lon="4.0039">
        <ele>409</ele>
        <time>2016-04-20T16:51:32Z</time>
      </trkpt>
      <trkpt lat="45.95133" lon="4.00394">
        <ele>409</ele>
        <time>2016-04-20T16:51:57Z</time>
      </trkpt>
      <trkpt lat="45.95063" lon="4.0039">
        <ele>408</ele>
        <time>2016-04-20T16:53:00Z</time>
      </trkpt>
      <trkpt lat="45.94994" lon="4.00377">
        <ele>408</ele>
        <time>2016-04-20T16:54:07Z</time>
      </trkpt>
      <trkpt lat="45.94989" lon="4.00375">
        <ele>408</ele>
        <time>2016-04-20T16:54:12Z</time>
      </trkpt>
      <trkpt lat="45.94984" lon="4.00376">
        <ele>408</ele>
        <time>2016-04-20T16:54:18Z</time>
      </trkpt>
      <trkpt lat="45.94969" lon="4.00376">
        <ele>408</ele>
        <time>2016-04-20T16:54:33Z</time>
      </trkpt>
      <trkpt lat="45.94959" lon="4.00381">
        <ele>409</ele>
        <time>2016-04-20T16:54:42Z</time>
      </trkpt>
      <trkpt lat="45.94925" lon="4.00385">
        <ele>407</ele>
        <time>2016-04-20T16:55:17Z</time>
      </trkpt>
      <trkpt lat="45.94921" lon="4.00385">
        <ele>407</ele>
        <time>2016-04-20T16:55:23Z</time>
      </trkpt>
      <trkpt lat="45.94918" lon="4.00379">
        <ele>407</ele>
        <time>2016-04-20T16:55:40Z</time>
      </trkpt>
      <trkpt lat="45.94911" lon="4.00345">
        <ele>406</ele>
        <time>2016-04-20T16:56:04Z</time>
      </trkpt>
      <trkpt lat="45.94907" lon="4.00342">
        <ele>406</ele>
        <time>2016-04-20T16:56:09Z</time>
      </trkpt>
      <trkpt lat="45.94903" lon="4.00345">
        <ele>406</ele>
        <time>2016-04-20T16:56:14Z</time>
      </trkpt>
      <trkpt lat="45.94899" lon="4.00348">
        <ele>406</ele>
        <time>2016-04-20T16:56:19Z</time>
      </trkpt>
      <trkpt lat="45.94896" lon="4.00348">
        <ele>406</ele>
        <time>2016-04-20T16:56:31Z</time>
      </trkpt>
      <trkpt lat="45.94894" lon="4.00363">
        <ele>406</ele>
        <time>2016-04-20T16:57:00Z</time>
      </trkpt>
      <trkpt lat="45.94896" lon="4.0037">
        <ele>406</ele>
        <time>2016-04-20T16:57:05Z</time>
      </trkpt>
      <trkpt lat="45.94899" lon="4.00373">
        <ele>405</ele>
        <time>2016-04-20T16:57:13Z</time>
      </trkpt>
      <trkpt lat="45.94904" lon="4.00359">
        <ele>408</ele>
        <time>2016-04-20T16:58:32Z</time>
      </trkpt>
      <trkpt lat="45.9492" lon="4.00356">
        <ele>409</ele>
        <time>2016-04-21T07:08:48Z</time>
      </trkpt>
      <trkpt lat="45.94925" lon="4.00359">
        <ele>409</ele>
        <time>2016-04-21T07:09:12Z</time>
      </trkpt>
      <trkpt lat="45.94925" lon="4.00367">
        <ele>409</ele>
        <time>2016-04-21T07:09:19Z</time>
      </trkpt>
      <trkpt lat="45.94925" lon="4.00374">
        <ele>409</ele>
        <time>2016-04-21T07:09:24Z</time>
      </trkpt>
      <trkpt lat="45.94921" lon="4.00379">
        <ele>409</ele>
        <time>2016-04-21T07:09:28Z</time>
      </trkpt>
      <trkpt lat="45.94892" lon="4.00386">
        <ele>405</ele>
        <time>2016-04-21T07:09:50Z</time>
      </trkpt>
      <trkpt lat="45.94889" lon="4.00383">
        <ele>404</ele>
        <time>2016-04-21T07:09:59Z</time>
      </trkpt>
      <trkpt lat="45.94874" lon="4.00382">
        <ele>405</ele>
        <time>2016-04-21T07:10:18Z</time>
      </trkpt>
      <trkpt lat="45.94843" lon="4.00378">
        <ele>405</ele>
        <time>2016-04-21T07:10:45Z</time>
      </trkpt>
      <trkpt lat="45.94833" lon="4.00374">
        <ele>405</ele>
        <time>2016-04-21T07:10:57Z</time>
      </trkpt>
      <trkpt lat="45.94823" lon="4.00372">
        <ele>405</ele>
        <time>2016-04-21T07:11:06Z</time>
      </trkpt>
      <trkpt lat="45.94809" lon="4.0037">
        <ele>404</ele>
        <time>2016-04-21T07:11:19Z</time>
      </trkpt>
      <trkpt lat="45.94803" lon="4.0037">
        <ele>404</ele>
        <time>2016-04-21T07:11:24Z</time>
      </trkpt>
      <trkpt lat="45.94749" lon="4.00354">
        <ele>400</ele>
        <time>2016-04-21T07:12:20Z</time>
      </trkpt>
      <trkpt lat="45.94724" lon="4.00353">
        <ele>396</ele>
        <time>2016-04-21T07:12:50Z</time>
      </trkpt>
      <trkpt lat="45.94714" lon="4.0035">
        <ele>395</ele>
        <time>2016-04-21T07:13:01Z</time>
      </trkpt>
      <trkpt lat="45.94701" lon="4.00355">
        <ele>394</ele>
        <time>2016-04-21T07:13:20Z</time>
      </trkpt>
      <trkpt lat="45.947" lon="4.0036">
        <ele>395</ele>
        <time>2016-04-21T07:13:45Z</time>
      </trkpt>
      <trkpt lat="45.94614" lon="4.00429">
        <ele>382</ele>
        <time>2016-04-21T07:15:37Z</time>
      </trkpt>
      <trkpt lat="45.94601" lon="4.0045">
        <ele>379</ele>
        <time>2016-04-21T07:15:58Z</time>
      </trkpt>
      <trkpt lat="45.94598" lon="4.00463">
        <ele>377</ele>
        <time>2016-04-21T07:16:07Z</time>
      </trkpt>
      <trkpt lat="45.94586" lon="4.00487">
        <ele>376</ele>
        <time>2016-04-21T07:16:26Z</time>
      </trkpt>
      <trkpt lat="45.94569" lon="4.00502">
        <ele>375</ele>
        <time>2016-04-21T07:16:45Z</time>
      </trkpt>
      <trkpt lat="45.94562" lon="4.00512">
        <ele>375</ele>
        <time>2016-04-21T07:16:54Z</time>
      </trkpt>
      <trkpt lat="45.94557" lon="4.00533">
        <ele>374</ele>
        <time>2016-04-21T07:17:10Z</time>
      </trkpt>
      <trkpt lat="45.9456" lon="4.00554">
        <ele>373</ele>
        <time>2016-04-21T07:17:24Z</time>
      </trkpt>
      <trkpt lat="45.94561" lon="4.0056">
        <ele>372</ele>
        <time>2016-04-21T07:17:30Z</time>
      </trkpt>
      <trkpt lat="45.94561" lon="4.00567">
        <ele>372</ele>
        <time>2016-04-21T07:17:35Z</time>
      </trkpt>
      <trkpt lat="45.94557" lon="4.00572">
        <ele>371</ele>
        <time>2016-04-21T07:17:41Z</time>
      </trkpt>
      <trkpt lat="45.94548" lon="4.00567">
        <ele>370</ele>
        <time>2016-04-21T07:17:56Z</time>
      </trkpt>
      <trkpt lat="45.9454" lon="4.00559">
        <ele>368</ele>
        <time>2016-04-21T07:18:07Z</time>
      </trkpt>
      <trkpt lat="45.94534" lon="4.00549">
        <ele>367</ele>
        <time>2016-04-21T07:18:18Z</time>
      </trkpt>
      <trkpt lat="45.94534" lon="4.00542">
        <ele>367</ele>
        <time>2016-04-21T07:18:26Z</time>
      </trkpt>
      <trkpt lat="45.94536" lon="4.00521">
        <ele>365</ele>
        <time>2016-04-21T07:18:44Z</time>
      </trkpt>
      <trkpt lat="45.94535" lon="4.00485">
        <ele>366</ele>
        <time>2016-04-21T07:19:12Z</time>
      </trkpt>
      <trkpt lat="45.94539" lon="4.00444">
        <ele>362</ele>
        <time>2016-04-21T07:19:45Z</time>
      </trkpt>
      <trkpt lat="45.94539" lon="4.00437">
        <ele>361</ele>
        <time>2016-04-21T07:19:51Z</time>
      </trkpt>
      <trkpt lat="45.94541" lon="4.0043">
        <ele>361</ele>
        <time>2016-04-21T07:19:56Z</time>
      </trkpt>
      <trkpt lat="45.94545" lon="4.00426">
        <ele>360</ele>
        <time>2016-04-21T07:20:02Z</time>
      </trkpt>
      <trkpt lat="45.94545" lon="4.00418">
        <ele>359</ele>
        <time>2016-04-21T07:20:08Z</time>
      </trkpt>
      <trkpt lat="45.94543" lon="4.00412">
        <ele>359</ele>
        <time>2016-04-21T07:20:13Z</time>
      </trkpt>
      <trkpt lat="45.94543" lon="4.0039">
        <ele>360</ele>
        <time>2016-04-21T07:20:34Z</time>
      </trkpt>
      <trkpt lat="45.9454" lon="4.00385">
        <ele>361</ele>
        <time>2016-04-21T07:20:41Z</time>
      </trkpt>
      <trkpt lat="45.94531" lon="4.0038">
        <ele>361</ele>
        <time>2016-04-21T07:20:50Z</time>
      </trkpt>
      <trkpt lat="45.94526" lon="4.0038">
        <ele>361</ele>
        <time>2016-04-21T07:20:54Z</time>
      </trkpt>
      <trkpt lat="45.94521" lon="4.00379">
        <ele>361</ele>
        <time>2016-04-21T07:21:01Z</time>
      </trkpt>
      <trkpt lat="45.94516" lon="4.00381">
        <ele>360</ele>
        <time>2016-04-21T07:21:08Z</time>
      </trkpt>
      <trkpt lat="45.94496" lon="4.00428">
        <ele>360</ele>
        <time>2016-04-21T07:21:56Z</time>
      </trkpt>
      <trkpt lat="45.9448" lon="4.00446">
        <ele>360</ele>
        <time>2016-04-21T07:22:18Z</time>
      </trkpt>
      <trkpt lat="45.94478" lon="4.00452">
        <ele>361</ele>
        <time>2016-04-21T07:22:24Z</time>
      </trkpt>
      <trkpt lat="45.9447" lon="4.0046">
        <ele>362</ele>
        <time>2016-04-21T07:22:36Z</time>
      </trkpt>
      <trkpt lat="45.94468" lon="4.00461">
        <ele>362</ele>
        <time>2016-04-21T07:22:42Z</time>
      </trkpt>
      <trkpt lat="45.94465" lon="4.00466">
        <ele>363</ele>
        <time>2016-04-21T07:22:49Z</time>
      </trkpt>
      <trkpt lat="45.9446" lon="4.0047">
        <ele>364</ele>
        <time>2016-04-21T07:22:55Z</time>
      </trkpt>
      <trkpt lat="45.94458" lon="4.00475">
        <ele>364</ele>
        <time>2016-04-21T07:22:59Z</time>
      </trkpt>
      <trkpt lat="45.94447" lon="4.00488">
        <ele>374</ele>
        <time>2016-04-21T07:23:31Z</time>
      </trkpt>
      <trkpt lat="45.94431" lon="4.00503">
        <ele>381</ele>
        <time>2016-04-21T07:23:50Z</time>
      </trkpt>
      <trkpt lat="45.94389" lon="4.00527">
        <ele>384</ele>
        <time>2016-04-21T07:24:48Z</time>
      </trkpt>
      <trkpt lat="45.94384" lon="4.00529">
        <ele>384</ele>
        <time>2016-04-21T07:24:54Z</time>
      </trkpt>
      <trkpt lat="45.94379" lon="4.00528">
        <ele>383</ele>
        <time>2016-04-21T07:25:00Z</time>
      </trkpt>
      <trkpt lat="45.94345" lon="4.00526">
        <ele>380</ele>
        <time>2016-04-21T07:25:35Z</time>
      </trkpt>
      <trkpt lat="45.9434" lon="4.00524">
        <ele>380</ele>
        <time>2016-04-21T07:25:41Z</time>
      </trkpt>
      <trkpt lat="45.94335" lon="4.00525">
        <ele>379</ele>
        <time>2016-04-21T07:25:47Z</time>
      </trkpt>
      <trkpt lat="45.9433" lon="4.00524">
        <ele>379</ele>
        <time>2016-04-21T07:25:52Z</time>
      </trkpt>
      <trkpt lat="45.9432" lon="4.00526">
        <ele>378</ele>
        <time>2016-04-21T07:26:03Z</time>
      </trkpt>
      <trkpt lat="45.94291" lon="4.0052">
        <ele>376</ele>
        <time>2016-04-21T07:26:34Z</time>
      </trkpt>
      <trkpt lat="45.94276" lon="4.00521">
        <ele>375</ele>
        <time>2016-04-21T07:26:51Z</time>
      </trkpt>
      <trkpt lat="45.94269" lon="4.00526">
        <ele>375</ele>
        <time>2016-04-21T07:27:04Z</time>
      </trkpt>
      <trkpt lat="45.94247" lon="4.00543">
        <ele>378</ele>
        <time>2016-04-21T07:27:30Z</time>
      </trkpt>
      <trkpt lat="45.94242" lon="4.00546">
        <ele>377</ele>
        <time>2016-04-21T07:27:35Z</time>
      </trkpt>
      <trkpt lat="45.94233" lon="4.00553">
        <ele>376</ele>
        <time>2016-04-21T07:27:43Z</time>
      </trkpt>
      <trkpt lat="45.94229" lon="4.00557">
        <ele>376</ele>
        <time>2016-04-21T07:27:47Z</time>
      </trkpt>
      <trkpt lat="45.94225" lon="4.00562">
        <ele>377</ele>
        <time>2016-04-21T07:27:52Z</time>
      </trkpt>
      <trkpt lat="45.94215" lon="4.00564">
        <ele>377</ele>
        <time>2016-04-21T07:28:04Z</time>
      </trkpt>
      <trkpt lat="45.94193" lon="4.00579">
        <ele>377</ele>
        <time>2016-04-21T07:28:26Z</time>
      </trkpt>
      <trkpt lat="45.94183" lon="4.00582">
        <ele>378</ele>
        <time>2016-04-21T07:28:35Z</time>
      </trkpt>
      <trkpt lat="45.94173" lon="4.00587">
        <ele>379</ele>
        <time>2016-04-21T07:28:45Z</time>
      </trkpt>
      <trkpt lat="45.94144" lon="4.0059">
        <ele>376</ele>
        <time>2016-04-21T07:29:17Z</time>
      </trkpt>
      <trkpt lat="45.94115" lon="4.00589">
        <ele>374</ele>
        <time>2016-04-21T07:29:48Z</time>
      </trkpt>
      <trkpt lat="45.94108" lon="4.00592">
        <ele>373</ele>
        <time>2016-04-21T07:30:06Z</time>
      </trkpt>
      <trkpt lat="45.94104" lon="4.00591">
        <ele>373</ele>
        <time>2016-04-21T07:30:15Z</time>
      </trkpt>
      <trkpt lat="45.94078" lon="4.00597">
        <ele>370</ele>
        <time>2016-04-21T07:30:38Z</time>
      </trkpt>
      <trkpt lat="45.94074" lon="4.00601">
        <ele>369</ele>
        <time>2016-04-21T07:30:46Z</time>
      </trkpt>
      <trkpt lat="45.94051" lon="4.00603">
        <ele>365</ele>
        <time>2016-04-21T07:31:14Z</time>
      </trkpt>
      <trkpt lat="45.94023" lon="4.00592">
        <ele>361</ele>
        <time>2016-04-21T07:31:48Z</time>
      </trkpt>
      <trkpt lat="45.94021" lon="4.00585">
        <ele>360</ele>
        <time>2016-04-21T07:32:01Z</time>
      </trkpt>
      <trkpt lat="45.94021" lon="4.00577">
        <ele>359</ele>
        <time>2016-04-21T07:32:07Z</time>
      </trkpt>
      <trkpt lat="45.94019" lon="4.00571">
        <ele>358</ele>
        <time>2016-04-21T07:32:13Z</time>
      </trkpt>
      <trkpt lat="45.94021" lon="4.00563">
        <ele>359</ele>
        <time>2016-04-21T07:32:19Z</time>
      </trkpt>
      <trkpt lat="45.94023" lon="4.00557">
        <ele>359</ele>
        <time>2016-04-21T07:32:24Z</time>
      </trkpt>
      <trkpt lat="45.94021" lon="4.0055">
        <ele>358</ele>
        <time>2016-04-21T07:32:29Z</time>
      </trkpt>
      <trkpt lat="45.94022" lon="4.00544">
        <ele>357</ele>
        <time>2016-04-21T07:32:34Z</time>
      </trkpt>
      <trkpt lat="45.94025" lon="4.00538">
        <ele>357</ele>
        <time>2016-04-21T07:32:38Z</time>
      </trkpt>
      <trkpt lat="45.94027" lon="4.0053">
        <ele>356</ele>
        <time>2016-04-21T07:32:43Z</time>
      </trkpt>
      <trkpt lat="45.94023" lon="4.00516">
        <ele>355</ele>
        <time>2016-04-21T07:32:53Z</time>
      </trkpt>
      <trkpt lat="45.94024" lon="4.00509">
        <ele>355</ele>
        <time>2016-04-21T07:32:59Z</time>
      </trkpt>
      <trkpt lat="45.9402" lon="4.00481">
        <ele>354</ele>
        <time>2016-04-21T07:33:32Z</time>
      </trkpt>
      <trkpt lat="45.93998" lon="4.00437">
        <ele>352</ele>
        <time>2016-04-21T07:34:03Z</time>
      </trkpt>
      <trkpt lat="45.93985" lon="4.00417">
        <ele>352</ele>
        <time>2016-04-21T07:34:26Z</time>
      </trkpt>
      <trkpt lat="45.93956" lon="4.0039">
        <ele>350</ele>
        <time>2016-04-21T07:34:54Z</time>
      </trkpt>
      <trkpt lat="45.93922" lon="4.00368">
        <ele>350</ele>
        <time>2016-04-21T07:35:28Z</time>
      </trkpt>
      <trkpt lat="45.9392" lon="4.00362">
        <ele>350</ele>
        <time>2016-04-21T07:35:33Z</time>
      </trkpt>
      <trkpt lat="45.93919" lon="4.00355">
        <ele>350</ele>
        <time>2016-04-21T07:35:40Z</time>
      </trkpt>
      <trkpt lat="45.93901" lon="4.00344">
        <ele>349</ele>
        <time>2016-04-21T07:35:56Z</time>
      </trkpt>
      <trkpt lat="45.93876" lon="4.00311">
        <ele>349</ele>
        <time>2016-04-21T07:36:23Z</time>
      </trkpt>
      <trkpt lat="45.93874" lon="4.00298">
        <ele>350</ele>
        <time>2016-04-21T07:36:34Z</time>
      </trkpt>
      <trkpt lat="45.93874" lon="4.00292">
        <ele>350</ele>
        <time>2016-04-21T07:36:39Z</time>
      </trkpt>
      <trkpt lat="45.93872" lon="4.00269">
        <ele>350</ele>
        <time>2016-04-21T07:36:53Z</time>
      </trkpt>
      <trkpt lat="45.93868" lon="4.00256">
        <ele>350</ele>
        <time>2016-04-21T07:37:02Z</time>
      </trkpt>
      <trkpt lat="45.93866" lon="4.00249">
        <ele>350</ele>
        <time>2016-04-21T07:37:08Z</time>
      </trkpt>
      <trkpt lat="45.93861" lon="4.00237">
        <ele>350</ele>
        <time>2016-04-21T07:37:16Z</time>
      </trkpt>
      <trkpt lat="45.93856" lon="4.00218">
        <ele>350</ele>
        <time>2016-04-21T07:37:29Z</time>
      </trkpt>
      <trkpt lat="45.9385" lon="4.00215">
        <ele>349</ele>
        <time>2016-04-21T07:37:33Z</time>
      </trkpt>
      <trkpt lat="45.9384" lon="4.00218">
        <ele>348</ele>
        <time>2016-04-21T07:37:40Z</time>
      </trkpt>
      <trkpt lat="45.93832" lon="4.00225">
        <ele>347</ele>
        <time>2016-04-21T07:37:49Z</time>
      </trkpt>
      <trkpt lat="45.93827" lon="4.00227">
        <ele>347</ele>
        <time>2016-04-21T07:37:56Z</time>
      </trkpt>
      <trkpt lat="45.93825" lon="4.00226">
        <ele>347</ele>
        <time>2016-04-21T07:38:02Z</time>
      </trkpt>
      <trkpt lat="45.93815" lon="4.00229">
        <ele>347</ele>
        <time>2016-04-21T07:38:18Z</time>
      </trkpt>
      <trkpt lat="45.93811" lon="4.00226">
        <ele>347</ele>
        <time>2016-04-21T07:38:27Z</time>
      </trkpt>
      <trkpt lat="45.93809" lon="4.00219">
        <ele>347</ele>
        <time>2016-04-21T07:38:35Z</time>
      </trkpt>
      <trkpt lat="45.93798" lon="4.00205">
        <ele>353</ele>
        <time>2016-04-21T07:39:03Z</time>
      </trkpt>
      <trkpt lat="45.93777" lon="4.002">
        <ele>357</ele>
        <time>2016-04-21T07:39:22Z</time>
      </trkpt>
      <trkpt lat="45.93773" lon="4.002">
        <ele>357</ele>
        <time>2016-04-21T07:39:30Z</time>
      </trkpt>
      <trkpt lat="45.93768" lon="4.00198">
        <ele>357</ele>
        <time>2016-04-21T07:39:39Z</time>
      </trkpt>
      <trkpt lat="45.93763" lon="4.00187">
        <ele>357</ele>
        <time>2016-04-21T07:39:57Z</time>
      </trkpt>
      <trkpt lat="45.93743" lon="4.00159">
        <ele>365</ele>
        <time>2016-04-21T07:40:35Z</time>
      </trkpt>
      <trkpt lat="45.93736" lon="4.00147">
        <ele>368</ele>
        <time>2016-04-21T07:40:51Z</time>
      </trkpt>
      <trkpt lat="45.93727" lon="4.00142">
        <ele>370</ele>
        <time>2016-04-21T07:40:58Z</time>
      </trkpt>
      <trkpt lat="45.93713" lon="4.00126">
        <ele>370</ele>
        <time>2016-04-21T07:41:16Z</time>
      </trkpt>
      <trkpt lat="45.93703" lon="4.00122">
        <ele>369</ele>
        <time>2016-04-21T07:41:28Z</time>
      </trkpt>
      <trkpt lat="45.93699" lon="4.0012">
        <ele>370</ele>
        <time>2016-04-21T07:41:32Z</time>
      </trkpt>
      <trkpt lat="45.93669" lon="4.00121">
        <ele>376</ele>
        <time>2016-04-21T07:42:03Z</time>
      </trkpt>
      <trkpt lat="45.93648" lon="4.00135">
        <ele>381</ele>
        <time>2016-04-21T07:42:28Z</time>
      </trkpt>
      <trkpt lat="45.93645" lon="4.0014">
        <ele>383</ele>
        <time>2016-04-21T07:42:35Z</time>
      </trkpt>
      <trkpt lat="45.93643" lon="4.00147">
        <ele>383</ele>
        <time>2016-04-21T07:42:40Z</time>
      </trkpt>
      <trkpt lat="45.93639" lon="4.00153">
        <ele>383</ele>
        <time>2016-04-21T07:43:04Z</time>
      </trkpt>
      <trkpt lat="45.93629" lon="4.00176">
        <ele>390</ele>
        <time>2016-04-21T07:43:35Z</time>
      </trkpt>
      <trkpt lat="45.93605" lon="4.00186">
        <ele>396</ele>
        <time>2016-04-21T07:44:07Z</time>
      </trkpt>
      <trkpt lat="45.936" lon="4.00187">
        <ele>396</ele>
        <time>2016-04-21T07:44:11Z</time>
      </trkpt>
      <trkpt lat="45.93573" lon="4.00199">
        <ele>401</ele>
        <time>2016-04-21T07:44:42Z</time>
      </trkpt>
      <trkpt lat="45.93545" lon="4.00213">
        <ele>408</ele>
        <time>2016-04-21T07:45:17Z</time>
      </trkpt>
      <trkpt lat="45.93529" lon="4.00239">
        <ele>408</ele>
        <time>2016-04-21T07:45:48Z</time>
      </trkpt>
      <trkpt lat="45.93524" lon="4.00245">
        <ele>409</ele>
        <time>2016-04-21T07:46:15Z</time>
      </trkpt>
      <trkpt lat="45.9352" lon="4.00249">
        <ele>410</ele>
        <time>2016-04-21T07:46:19Z</time>
      </trkpt>
      <trkpt lat="45.93497" lon="4.00263">
        <ele>415</ele>
        <time>2016-04-21T07:46:51Z</time>
      </trkpt>
      <trkpt lat="45.93469" lon="4.00275">
        <ele>419</ele>
        <time>2016-04-21T07:47:23Z</time>
      </trkpt>
      <trkpt lat="45.93461" lon="4.00276">
        <ele>419</ele>
        <time>2016-04-21T07:47:36Z</time>
      </trkpt>
      <trkpt lat="45.93459" lon="4.00278">
        <ele>421</ele>
        <time>2016-04-21T07:50:05Z</time>
      </trkpt>
      <trkpt lat="45.93456" lon="4.00284">
        <ele>422</ele>
        <time>2016-04-21T07:50:10Z</time>
      </trkpt>
      <trkpt lat="45.93454" lon="4.00285">
        <ele>422</ele>
        <time>2016-04-21T07:50:19Z</time>
      </trkpt>
      <trkpt lat="45.93448" lon="4.00285">
        <ele>423</ele>
        <time>2016-04-21T07:50:28Z</time>
      </trkpt>
      <trkpt lat="45.93442" lon="4.00285">
        <ele>423</ele>
        <time>2016-04-21T07:50:32Z</time>
      </trkpt>
      <trkpt lat="45.93408" lon="4.00299">
        <ele>421</ele>
        <time>2016-04-21T07:51:12Z</time>
      </trkpt>
      <trkpt lat="45.93388" lon="4.00298">
        <ele>421</ele>
        <time>2016-04-21T07:51:32Z</time>
      </trkpt>
      <trkpt lat="45.93383" lon="4.00297">
        <ele>421</ele>
        <time>2016-04-21T07:51:37Z</time>
      </trkpt>
      <trkpt lat="45.93363" lon="4.00291">
        <ele>420</ele>
        <time>2016-04-21T07:51:56Z</time>
      </trkpt>
      <trkpt lat="45.93328" lon="4.00292">
        <ele>421</ele>
        <time>2016-04-21T07:52:29Z</time>
      </trkpt>
      <trkpt lat="45.9326" lon="4.00313">
        <ele>424</ele>
        <time>2016-04-21T07:53:32Z</time>
      </trkpt>
      <trkpt lat="45.93239" lon="4.00323">
        <ele>426</ele>
        <time>2016-04-21T07:53:58Z</time>
      </trkpt>
      <trkpt lat="45.93179" lon="4.00327">
        <ele>427</ele>
        <time>2016-04-21T07:54:58Z</time>
      </trkpt>
      <trkpt lat="45.93129" lon="4.00339">
        <ele>428</ele>
        <time>2016-04-21T07:55:48Z</time>
      </trkpt>
      <trkpt lat="45.93099" lon="4.00361">
        <ele>428</ele>
        <time>2016-04-21T07:56:22Z</time>
      </trkpt>
      <trkpt lat="45.93095" lon="4.00369">
        <ele>428</ele>
        <time>2016-04-21T07:56:42Z</time>
      </trkpt>
      <trkpt lat="45.93066" lon="4.00382">
        <ele>431</ele>
        <time>2016-04-21T07:57:09Z</time>
      </trkpt>
      <trkpt lat="45.93057" lon="4.00385">
        <ele>431</ele>
        <time>2016-04-21T07:57:17Z</time>
      </trkpt>
      <trkpt lat="45.93047" lon="4.00385">
        <ele>432</ele>
        <time>2016-04-21T07:57:25Z</time>
      </trkpt>
      <trkpt lat="45.93016" lon="4.00397">
        <ele>436</ele>
        <time>2016-04-21T07:58:08Z</time>
      </trkpt>
      <trkpt lat="45.92996" lon="4.00413">
        <ele>438</ele>
        <time>2016-04-21T07:58:38Z</time>
      </trkpt>
      <trkpt lat="45.92983" lon="4.00416">
        <ele>440</ele>
        <time>2016-04-21T07:58:52Z</time>
      </trkpt>
      <trkpt lat="45.92961" lon="4.00414">
        <ele>441</ele>
        <time>2016-04-21T07:59:20Z</time>
      </trkpt>
      <trkpt lat="45.92951" lon="4.0041">
        <ele>441</ele>
        <time>2016-04-21T07:59:56Z</time>
      </trkpt>
      <trkpt lat="45.92941" lon="4.00407">
        <ele>442</ele>
        <time>2016-04-21T08:00:05Z</time>
      </trkpt>
      <trkpt lat="45.92936" lon="4.00409">
        <ele>443</ele>
        <time>2016-04-21T08:00:17Z</time>
      </trkpt>
      <trkpt lat="45.92926" lon="4.00406">
        <ele>442</ele>
        <time>2016-04-21T08:00:27Z</time>
      </trkpt>
      <trkpt lat="45.92921" lon="4.00407">
        <ele>443</ele>
        <time>2016-04-21T08:00:36Z</time>
      </trkpt>
      <trkpt lat="45.92916" lon="4.00406">
        <ele>444</ele>
        <time>2016-04-21T08:00:43Z</time>
      </trkpt>
      <trkpt lat="45.92902" lon="4.00408">
        <ele>445</ele>
        <time>2016-04-21T08:00:55Z</time>
      </trkpt>
      <trkpt lat="45.92886" lon="4.00412">
        <ele>448</ele>
        <time>2016-04-21T08:01:10Z</time>
      </trkpt>
      <trkpt lat="45.92881" lon="4.00415">
        <ele>448</ele>
        <time>2016-04-21T08:01:14Z</time>
      </trkpt>
      <trkpt lat="45.92878" lon="4.00419">
        <ele>449</ele>
        <time>2016-04-21T08:01:20Z</time>
      </trkpt>
      <trkpt lat="45.92874" lon="4.00427">
        <ele>452</ele>
        <time>2016-04-21T08:01:35Z</time>
      </trkpt>
      <trkpt lat="45.92852" lon="4.00457">
        <ele>456</ele>
        <time>2016-04-21T08:02:05Z</time>
      </trkpt>
      <trkpt lat="45.92847" lon="4.00469">
        <ele>456</ele>
        <time>2016-04-21T08:02:13Z</time>
      </trkpt>
      <trkpt lat="45.92843" lon="4.00486">
        <ele>457</ele>
        <time>2016-04-21T08:02:30Z</time>
      </trkpt>
      <trkpt lat="45.92845" lon="4.00498">
        <ele>458</ele>
        <time>2016-04-21T08:02:40Z</time>
      </trkpt>
      <trkpt lat="45.92846" lon="4.00505">
        <ele>458</ele>
        <time>2016-04-21T08:02:43Z</time>
      </trkpt>
      <trkpt lat="45.92845" lon="4.00513">
        <ele>458</ele>
        <time>2016-04-21T08:02:46Z</time>
      </trkpt>
      <trkpt lat="45.92834" lon="4.0053">
        <ele>459</ele>
        <time>2016-04-21T08:02:59Z</time>
      </trkpt>
      <trkpt lat="45.92832" lon="4.00544">
        <ele>460</ele>
        <time>2016-04-21T08:03:09Z</time>
      </trkpt>
      <trkpt lat="45.9283" lon="4.0055">
        <ele>460</ele>
        <time>2016-04-21T08:03:14Z</time>
      </trkpt>
      <trkpt lat="45.92826" lon="4.00554">
        <ele>460</ele>
        <time>2016-04-21T08:03:20Z</time>
      </trkpt>
      <trkpt lat="45.9282" lon="4.00553">
        <ele>462</ele>
        <time>2016-04-21T08:03:25Z</time>
      </trkpt>
      <trkpt lat="45.92815" lon="4.00551">
        <ele>463</ele>
        <time>2016-04-21T08:03:30Z</time>
      </trkpt>
      <trkpt lat="45.92805" lon="4.00549">
        <ele>464</ele>
        <time>2016-04-21T08:03:39Z</time>
      </trkpt>
      <trkpt lat="45.928" lon="4.00551">
        <ele>464</ele>
        <time>2016-04-21T08:03:44Z</time>
      </trkpt>
      <trkpt lat="45.92802" lon="4.00556">
        <ele>463</ele>
        <time>2016-04-21T08:04:12Z</time>
      </trkpt>
      <trkpt lat="45.92799" lon="4.00558">
        <ele>463</ele>
        <time>2016-04-21T08:04:31Z</time>
      </trkpt>
      <trkpt lat="45.92796" lon="4.0056">
        <ele>463</ele>
        <time>2016-04-21T08:04:35Z</time>
      </trkpt>
      <trkpt lat="45.92792" lon="4.0056">
        <ele>463</ele>
        <time>2016-04-21T08:04:41Z</time>
      </trkpt>
      <trkpt lat="45.9279" lon="4.00558">
        <ele>463</ele>
        <time>2016-04-21T08:04:47Z</time>
      </trkpt>
      <trkpt lat="45.92789" lon="4.00565">
        <ele>464</ele>
        <time>2016-04-21T08:05:25Z</time>
      </trkpt>
      <trkpt lat="45.92789" lon="4.00573">
        <ele>465</ele>
        <time>2016-04-21T08:05:32Z</time>
      </trkpt>
      <trkpt lat="45.92786" lon="4.00582">
        <ele>465</ele>
        <time>2016-04-21T08:05:35Z</time>
      </trkpt>
      <trkpt lat="45.92794" lon="4.00613">
        <ele>465</ele>
        <time>2016-04-21T08:06:03Z</time>
      </trkpt>
      <trkpt lat="45.92798" lon="4.00615">
        <ele>465</ele>
        <time>2016-04-21T08:06:10Z</time>
      </trkpt>
      <trkpt lat="45.92802" lon="4.00609">
        <ele>465</ele>
        <time>2016-04-21T08:06:15Z</time>
      </trkpt>
      <trkpt lat="45.92805" lon="4.00605">
        <ele>464</ele>
        <time>2016-04-21T08:08:44Z</time>
      </trkpt>
      <trkpt lat="45.92803" lon="4.0061">
        <ele>463</ele>
        <time>2016-04-21T08:09:31Z</time>
      </trkpt>
      <trkpt lat="45.92801" lon="4.00619">
        <ele>463</ele>
        <time>2016-04-21T08:09:39Z</time>
      </trkpt>
      <trkpt lat="45.92802" lon="4.00627">
        <ele>463</ele>
        <time>2016-04-21T08:09:42Z</time>
      </trkpt>
      <trkpt lat="45.92825" lon="4.00659">
        <ele>459</ele>
        <time>2016-04-21T08:10:05Z</time>
      </trkpt>
      <trkpt lat="45.92844" lon="4.00662">
        <ele>457</ele>
        <time>2016-04-21T08:10:21Z</time>
      </trkpt>
      <trkpt lat="45.92848" lon="4.00658">
        <ele>457</ele>
        <time>2016-04-21T08:10:25Z</time>
      </trkpt>
      <trkpt lat="45.92872" lon="4.00598">
        <ele>456</ele>
        <time>2016-04-21T08:11:01Z</time>
      </trkpt>
      <trkpt lat="45.92878" lon="4.00572">
        <ele>456</ele>
        <time>2016-04-21T08:11:20Z</time>
      </trkpt>
      <trkpt lat="45.92876" lon="4.00575">
        <ele>454</ele>
        <time>2016-04-21T08:14:05Z</time>
      </trkpt>
      <trkpt lat="45.92873" lon="4.00589">
        <ele>455</ele>
        <time>2016-04-21T08:14:13Z</time>
      </trkpt>
      <trkpt lat="45.92868" lon="4.00589">
        <ele>455</ele>
        <time>2016-04-21T08:14:17Z</time>
      </trkpt>
      <trkpt lat="45.92862" lon="4.0059">
        <ele>456</ele>
        <time>2016-04-21T08:14:21Z</time>
      </trkpt>
      <trkpt lat="45.92823" lon="4.00586">
        <ele>458</ele>
        <time>2016-04-21T08:14:52Z</time>
      </trkpt>
      <trkpt lat="45.92814" lon="4.00594">
        <ele>458</ele>
        <time>2016-04-21T08:15:01Z</time>
      </trkpt>
      <trkpt lat="45.92806" lon="4.00602">
        <ele>459</ele>
        <time>2016-04-21T08:15:13Z</time>
      </trkpt>
      <trkpt lat="45.92809" lon="4.00604">
        <ele>461</ele>
        <time>2016-04-21T08:16:11Z</time>
      </trkpt>
      <trkpt lat="45.92809" lon="4.00607">
        <ele>461</ele>
        <time>2016-04-21T08:16:54Z</time>
      </trkpt>
      <trkpt lat="45.92808" lon="4.00608">
        <ele>461</ele>
        <time>2016-04-21T08:23:28Z</time>
      </trkpt>
      <trkpt lat="45.92804" lon="4.00612">
        <ele>461</ele>
        <time>2016-04-21T08:23:41Z</time>
      </trkpt>
      <trkpt lat="45.92799" lon="4.00611">
        <ele>461</ele>
        <time>2016-04-21T08:23:47Z</time>
      </trkpt>
      <trkpt lat="45.92796" lon="4.00605">
        <ele>462</ele>
        <time>2016-04-21T08:23:52Z</time>
      </trkpt>
      <trkpt lat="45.92794" lon="4.00598">
        <ele>463</ele>
        <time>2016-04-21T08:23:57Z</time>
      </trkpt>
      <trkpt lat="45.92801" lon="4.00548">
        <ele>464</ele>
        <time>2016-04-21T08:24:32Z</time>
      </trkpt>
      <trkpt lat="45.92795" lon="4.00512">
        <ele>463</ele>
        <time>2016-04-21T08:24:56Z</time>
      </trkpt>
      <trkpt lat="45.92792" lon="4.00507">
        <ele>464</ele>
        <time>2016-04-21T08:25:00Z</time>
      </trkpt>
      <trkpt lat="45.92787" lon="4.00494">
        <ele>466</ele>
        <time>2016-04-21T08:25:09Z</time>
      </trkpt>
      <trkpt lat="45.92786" lon="4.00488">
        <ele>467</ele>
        <time>2016-04-21T08:25:14Z</time>
      </trkpt>
      <trkpt lat="45.92783" lon="4.00482">
        <ele>466</ele>
        <time>2016-04-21T08:25:18Z</time>
      </trkpt>
      <trkpt lat="45.9277" lon="4.00473">
        <ele>463</ele>
        <time>2016-04-21T08:25:34Z</time>
      </trkpt>
      <trkpt lat="45.92765" lon="4.00471">
        <ele>463</ele>
        <time>2016-04-21T08:25:45Z</time>
      </trkpt>
      <trkpt lat="45.92731" lon="4.00477">
        <ele>467</ele>
        <time>2016-04-21T08:26:19Z</time>
      </trkpt>
      <trkpt lat="45.92727" lon="4.00479">
        <ele>468</ele>
        <time>2016-04-21T08:26:28Z</time>
      </trkpt>
      <trkpt lat="45.92723" lon="4.00483">
        <ele>468</ele>
        <time>2016-04-21T08:26:37Z</time>
      </trkpt>
      <trkpt lat="45.92702" lon="4.00511">
        <ele>471</ele>
        <time>2016-04-21T08:27:13Z</time>
      </trkpt>
      <trkpt lat="45.92697" lon="4.00524">
        <ele>470</ele>
        <time>2016-04-21T08:27:26Z</time>
      </trkpt>
      <trkpt lat="45.92689" lon="4.00533">
        <ele>470</ele>
        <time>2016-04-21T08:27:34Z</time>
      </trkpt>
      <trkpt lat="45.92684" lon="4.00545">
        <ele>472</ele>
        <time>2016-04-21T08:27:44Z</time>
      </trkpt>
      <trkpt lat="45.92686" lon="4.00547">
        <ele>473</ele>
        <time>2016-04-21T08:28:01Z</time>
      </trkpt>
      <trkpt lat="45.92679" lon="4.00551">
        <ele>474</ele>
        <time>2016-04-21T08:28:18Z</time>
      </trkpt>
      <trkpt lat="45.92659" lon="4.00553">
        <ele>472</ele>
        <time>2016-04-21T08:28:36Z</time>
      </trkpt>
      <trkpt lat="45.92657" lon="4.00554">
        <ele>472</ele>
        <time>2016-04-21T08:28:42Z</time>
      </trkpt>
      <trkpt lat="45.92635" lon="4.00558">
        <ele>473</ele>
        <time>2016-04-21T08:29:06Z</time>
      </trkpt>
      <trkpt lat="45.9263" lon="4.0056">
        <ele>474</ele>
        <time>2016-04-21T08:29:10Z</time>
      </trkpt>
      <trkpt lat="45.926" lon="4.00565">
        <ele>475</ele>
        <time>2016-04-21T08:29:47Z</time>
      </trkpt>
      <trkpt lat="45.92594" lon="4.00565">
        <ele>475</ele>
        <time>2016-04-21T08:29:52Z</time>
      </trkpt>
      <trkpt lat="45.9258" lon="4.00563">
        <ele>474</ele>
        <time>2016-04-21T08:30:06Z</time>
      </trkpt>
      <trkpt lat="45.92545" lon="4.0057">
        <ele>475</ele>
        <time>2016-04-21T08:30:38Z</time>
      </trkpt>
      <trkpt lat="45.92541" lon="4.00571">
        <ele>475</ele>
        <time>2016-04-21T08:30:42Z</time>
      </trkpt>
      <trkpt lat="45.92537" lon="4.00575">
        <ele>475</ele>
        <time>2016-04-21T08:30:47Z</time>
      </trkpt>
      <trkpt lat="45.92486" lon="4.00585">
        <ele>477</ele>
        <time>2016-04-21T08:31:38Z</time>
      </trkpt>
      <trkpt lat="45.92477" lon="4.00591">
        <ele>477</ele>
        <time>2016-04-21T08:32:14Z</time>
      </trkpt>
      <trkpt lat="45.92458" lon="4.00593">
        <ele>478</ele>
        <time>2016-04-21T08:32:52Z</time>
      </trkpt>
      <trkpt lat="45.92453" lon="4.00596">
        <ele>478</ele>
        <time>2016-04-21T08:32:57Z</time>
      </trkpt>
      <trkpt lat="45.92443" lon="4.00597">
        <ele>477</ele>
        <time>2016-04-21T08:33:07Z</time>
      </trkpt>
      <trkpt lat="45.92439" lon="4.00601">
        <ele>477</ele>
        <time>2016-04-21T08:33:11Z</time>
      </trkpt>
      <trkpt lat="45.92425" lon="4.00611">
        <ele>476</ele>
        <time>2016-04-21T08:33:23Z</time>
      </trkpt>
      <trkpt lat="45.92386" lon="4.00628">
        <ele>476</ele>
        <time>2016-04-21T08:33:56Z</time>
      </trkpt>
      <trkpt lat="45.92376" lon="4.0063">
        <ele>475</ele>
        <time>2016-04-21T08:34:04Z</time>
      </trkpt>
      <trkpt lat="45.92372" lon="4.00634">
        <ele>475</ele>
        <time>2016-04-21T08:34:09Z</time>
      </trkpt>
      <trkpt lat="45.92368" lon="4.00638">
        <ele>475</ele>
        <time>2016-04-21T08:34:13Z</time>
      </trkpt>
      <trkpt lat="45.92344" lon="4.00649">
        <ele>474</ele>
        <time>2016-04-21T08:34:35Z</time>
      </trkpt>
      <trkpt lat="45.92335" lon="4.00648">
        <ele>475</ele>
        <time>2016-04-21T08:34:44Z</time>
      </trkpt>
      <trkpt lat="45.92312" lon="4.00634">
        <ele>469</ele>
        <time>2016-04-21T08:35:08Z</time>
      </trkpt>
      <trkpt lat="45.92268" lon="4.00621">
        <ele>468</ele>
        <time>2016-04-21T08:35:49Z</time>
      </trkpt>
      <trkpt lat="45.92267" lon="4.00618">
        <ele>468</ele>
        <time>2016-04-21T08:36:00Z</time>
      </trkpt>
      <trkpt lat="45.92262" lon="4.00616">
        <ele>469</ele>
        <time>2016-04-21T08:36:07Z</time>
      </trkpt>
      <trkpt lat="45.92256" lon="4.00619">
        <ele>469</ele>
        <time>2016-04-21T08:36:11Z</time>
      </trkpt>
      <trkpt lat="45.92252" lon="4.00623">
        <ele>470</ele>
        <time>2016-04-21T08:36:15Z</time>
      </trkpt>
      <trkpt lat="45.9225" lon="4.0063">
        <ele>469</ele>
        <time>2016-04-21T08:36:19Z</time>
      </trkpt>
      <trkpt lat="45.92249" lon="4.00637">
        <ele>469</ele>
        <time>2016-04-21T08:36:23Z</time>
      </trkpt>
      <trkpt lat="45.92265" lon="4.00692">
        <ele>473</ele>
        <time>2016-04-21T08:36:56Z</time>
      </trkpt>
      <trkpt lat="45.92263" lon="4.00706">
        <ele>474</ele>
        <time>2016-04-21T08:37:07Z</time>
      </trkpt>
      <trkpt lat="45.92248" lon="4.00751">
        <ele>474</ele>
        <time>2016-04-21T08:37:37Z</time>
      </trkpt>
      <trkpt lat="45.92224" lon="4.00798">
        <ele>476</ele>
        <time>2016-04-21T08:38:12Z</time>
      </trkpt>
      <trkpt lat="45.92223" lon="4.00813">
        <ele>478</ele>
        <time>2016-04-21T08:38:20Z</time>
      </trkpt>
      <trkpt lat="45.92224" lon="4.00861">
        <ele>481</ele>
        <time>2016-04-21T08:38:50Z</time>
      </trkpt>
      <trkpt lat="45.92213" lon="4.00924">
        <ele>486</ele>
        <time>2016-04-21T08:39:38Z</time>
      </trkpt>
      <trkpt lat="45.92209" lon="4.00932">
        <ele>489</ele>
        <time>2016-04-21T08:40:00Z</time>
      </trkpt>
      <trkpt lat="45.92185" lon="4.0097">
        <ele>492</ele>
        <time>2016-04-21T08:40:34Z</time>
      </trkpt>
      <trkpt lat="45.92176" lon="4.00978">
        <ele>492</ele>
        <time>2016-04-21T08:40:42Z</time>
      </trkpt>
      <trkpt lat="45.92165" lon="4.01001">
        <ele>493</ele>
        <time>2016-04-21T08:40:59Z</time>
      </trkpt>
      <trkpt lat="45.92158" lon="4.0101">
        <ele>491</ele>
        <time>2016-04-21T08:41:08Z</time>
      </trkpt>
      <trkpt lat="45.92149" lon="4.01016">
        <ele>492</ele>
        <time>2016-04-21T08:41:17Z</time>
      </trkpt>
      <trkpt lat="45.92116" lon="4.01049">
        <ele>493</ele>
        <time>2016-04-21T08:41:51Z</time>
      </trkpt>
      <trkpt lat="45.92107" lon="4.01055">
        <ele>494</ele>
        <time>2016-04-21T08:42:06Z</time>
      </trkpt>
      <trkpt lat="45.92104" lon="4.01061">
        <ele>493</ele>
        <time>2016-04-21T08:42:11Z</time>
      </trkpt>
      <trkpt lat="45.92103" lon="4.01067">
        <ele>495</ele>
        <time>2016-04-21T08:42:24Z</time>
      </trkpt>
      <trkpt lat="45.921" lon="4.01068">
        <ele>496</ele>
        <time>2016-04-21T08:42:52Z</time>
      </trkpt>
      <trkpt lat="45.921" lon="4.01078">
        <ele>496</ele>
        <time>2016-04-21T08:43:14Z</time>
      </trkpt>
      <trkpt lat="45.92098" lon="4.01084">
        <ele>497</ele>
        <time>2016-04-21T08:43:22Z</time>
      </trkpt>
      <trkpt lat="45.92098" lon="4.01089">
        <ele>498</ele>
        <time>2016-04-21T08:44:12Z</time>
      </trkpt>
      <trkpt lat="45.92102" lon="4.01115">
        <ele>497</ele>
        <time>2016-04-21T08:44:30Z</time>
      </trkpt>
      <trkpt lat="45.92099" lon="4.01121">
        <ele>498</ele>
        <time>2016-04-21T08:44:38Z</time>
      </trkpt>
      <trkpt lat="45.92087" lon="4.01217">
        <ele>510</ele>
        <time>2016-04-21T08:45:40Z</time>
      </trkpt>
      <trkpt lat="45.9207" lon="4.01262">
        <ele>512</ele>
        <time>2016-04-21T08:46:13Z</time>
      </trkpt>
      <trkpt lat="45.92068" lon="4.01269">
        <ele>513</ele>
        <time>2016-04-21T08:46:17Z</time>
      </trkpt>
      <trkpt lat="45.92061" lon="4.01279">
        <ele>513</ele>
        <time>2016-04-21T08:46:26Z</time>
      </trkpt>
      <trkpt lat="45.92048" lon="4.0133">
        <ele>516</ele>
        <time>2016-04-21T08:47:03Z</time>
      </trkpt>
      <trkpt lat="45.92043" lon="4.01393">
        <ele>524</ele>
        <time>2016-04-21T08:47:40Z</time>
      </trkpt>
      <trkpt lat="45.92037" lon="4.01422">
        <ele>526</ele>
        <time>2016-04-21T08:48:01Z</time>
      </trkpt>
      <trkpt lat="45.92037" lon="4.01426">
        <ele>528</ele>
        <time>2016-04-21T08:49:47Z</time>
      </trkpt>
      <trkpt lat="45.92036" lon="4.01429">
        <ele>528</ele>
        <time>2016-04-21T08:49:53Z</time>
      </trkpt>
      <trkpt lat="45.92029" lon="4.01446">
        <ele>529</ele>
        <time>2016-04-21T08:50:13Z</time>
      </trkpt>
      <trkpt lat="45.92024" lon="4.01449">
        <ele>530</ele>
        <time>2016-04-21T08:50:27Z</time>
      </trkpt>
      <trkpt lat="45.92023" lon="4.01463">
        <ele>532</ele>
        <time>2016-04-21T08:50:40Z</time>
      </trkpt>
      <trkpt lat="45.92016" lon="4.01474">
        <ele>533</ele>
        <time>2016-04-21T08:50:49Z</time>
      </trkpt>
      <trkpt lat="45.92012" lon="4.01487">
        <ele>533</ele>
        <time>2016-04-21T08:50:57Z</time>
      </trkpt>
      <trkpt lat="45.9201" lon="4.01494">
        <ele>533</ele>
        <time>2016-04-21T08:51:02Z</time>
      </trkpt>
      <trkpt lat="45.92001" lon="4.015">
        <ele>533</ele>
        <time>2016-04-21T08:51:12Z</time>
      </trkpt>
      <trkpt lat="45.91999" lon="4.01499">
        <ele>534</ele>
        <time>2016-04-21T08:51:46Z</time>
      </trkpt>
      <trkpt lat="45.91988" lon="4.01506">
        <ele>533</ele>
        <time>2016-04-21T08:52:24Z</time>
      </trkpt>
      <trkpt lat="45.9199" lon="4.01512">
        <ele>534</ele>
        <time>2016-04-21T08:52:30Z</time>
      </trkpt>
      <trkpt lat="45.91987" lon="4.01517">
        <ele>534</ele>
        <time>2016-04-21T08:52:36Z</time>
      </trkpt>
      <trkpt lat="45.91983" lon="4.01521">
        <ele>534</ele>
        <time>2016-04-21T08:52:40Z</time>
      </trkpt>
      <trkpt lat="45.9198" lon="4.01534">
        <ele>535</ele>
        <time>2016-04-21T08:52:51Z</time>
      </trkpt>
      <trkpt lat="45.91974" lon="4.01536">
        <ele>536</ele>
        <time>2016-04-21T08:52:56Z</time>
      </trkpt>
      <trkpt lat="45.91964" lon="4.01537">
        <ele>537</ele>
        <time>2016-04-21T08:53:05Z</time>
      </trkpt>
      <trkpt lat="45.9193" lon="4.01563">
        <ele>540</ele>
        <time>2016-04-21T08:53:42Z</time>
      </trkpt>
      <trkpt lat="45.91921" lon="4.01569">
        <ele>540</ele>
        <time>2016-04-21T08:53:52Z</time>
      </trkpt>
      <trkpt lat="45.91917" lon="4.01572">
        <ele>541</ele>
        <time>2016-04-21T08:53:57Z</time>
      </trkpt>
      <trkpt lat="45.91885" lon="4.01593">
        <ele>540</ele>
        <time>2016-04-21T08:54:25Z</time>
      </trkpt>
      <trkpt lat="45.9188" lon="4.01597">
        <ele>540</ele>
        <time>2016-04-21T08:54:31Z</time>
      </trkpt>
      <trkpt lat="45.91877" lon="4.016">
        <ele>541</ele>
        <time>2016-04-21T08:55:34Z</time>
      </trkpt>
      <trkpt lat="45.91875" lon="4.01601">
        <ele>541</ele>
        <time>2016-04-21T08:56:02Z</time>
      </trkpt>
      <trkpt lat="45.91873" lon="4.01603">
        <ele>541</ele>
        <time>2016-04-21T08:56:48Z</time>
      </trkpt>
      <trkpt lat="45.91871" lon="4.01606">
        <ele>541</ele>
        <time>2016-04-21T08:56:54Z</time>
      </trkpt>
      <trkpt lat="45.91866" lon="4.01603">
        <ele>541</ele>
        <time>2016-04-21T08:56:59Z</time>
      </trkpt>
      <trkpt lat="45.91862" lon="4.01602">
        <ele>541</ele>
        <time>2016-04-21T08:57:03Z</time>
      </trkpt>
      <trkpt lat="45.91856" lon="4.01604">
        <ele>541</ele>
        <time>2016-04-21T08:57:08Z</time>
      </trkpt>
      <trkpt lat="45.91851" lon="4.01605">
        <ele>541</ele>
        <time>2016-04-21T08:57:12Z</time>
      </trkpt>
      <trkpt lat="45.91842" lon="4.01613">
        <ele>541</ele>
        <time>2016-04-21T08:57:22Z</time>
      </trkpt>
      <trkpt lat="45.91838" lon="4.01616">
        <ele>543</ele>
        <time>2016-04-21T08:57:26Z</time>
      </trkpt>
      <trkpt lat="45.91836" lon="4.01625">
        <ele>543</ele>
        <time>2016-04-21T08:57:35Z</time>
      </trkpt>
      <trkpt lat="45.91831" lon="4.01627">
        <ele>543</ele>
        <time>2016-04-21T08:57:40Z</time>
      </trkpt>
      <trkpt lat="45.9181" lon="4.0163">
        <ele>545</ele>
        <time>2016-04-21T08:57:59Z</time>
      </trkpt>
      <trkpt lat="45.91805" lon="4.01629">
        <ele>544</ele>
        <time>2016-04-21T08:58:04Z</time>
      </trkpt>
      <trkpt lat="45.91791" lon="4.01622">
        <ele>544</ele>
        <time>2016-04-21T08:58:21Z</time>
      </trkpt>
      <trkpt lat="45.91786" lon="4.0162">
        <ele>546</ele>
        <time>2016-04-21T08:58:26Z</time>
      </trkpt>
      <trkpt lat="45.91785" lon="4.01617">
        <ele>549</ele>
        <time>2016-04-21T08:58:48Z</time>
      </trkpt>
      <trkpt lat="45.91781" lon="4.01613">
        <ele>549</ele>
        <time>2016-04-21T08:58:55Z</time>
      </trkpt>
      <trkpt lat="45.91777" lon="4.01608">
        <ele>550</ele>
        <time>2016-04-21T08:59:02Z</time>
      </trkpt>
      <trkpt lat="45.91767" lon="4.01601">
        <ele>552</ele>
        <time>2016-04-21T08:59:10Z</time>
      </trkpt>
      <trkpt lat="45.91761" lon="4.01593">
        <ele>554</ele>
        <time>2016-04-21T08:59:20Z</time>
      </trkpt>
      <trkpt lat="45.91759" lon="4.01592">
        <ele>555</ele>
        <time>2016-04-21T08:59:21Z</time>
      </trkpt>
      <trkpt lat="45.91756" lon="4.01584">
        <ele>556</ele>
        <time>2016-04-21T08:59:28Z</time>
      </trkpt>
      <trkpt lat="45.91758" lon="4.01577">
        <ele>557</ele>
        <time>2016-04-21T08:59:34Z</time>
      </trkpt>
      <trkpt lat="45.91754" lon="4.01571">
        <ele>559</ele>
        <time>2016-04-21T08:59:40Z</time>
      </trkpt>
      <trkpt lat="45.9175" lon="4.01567">
        <ele>560</ele>
        <time>2016-04-21T08:59:45Z</time>
      </trkpt>
      <trkpt lat="45.91748" lon="4.01561">
        <ele>561</ele>
        <time>2016-04-21T08:59:51Z</time>
      </trkpt>
      <trkpt lat="45.91696" lon="4.01483">
        <ele>570</ele>
        <time>2016-04-21T09:00:58Z</time>
      </trkpt>
      <trkpt lat="45.91693" lon="4.01449">
        <ele>573</ele>
        <time>2016-04-21T09:01:29Z</time>
      </trkpt>
      <trkpt lat="45.91694" lon="4.01428">
        <ele>570</ele>
        <time>2016-04-21T09:01:51Z</time>
      </trkpt>
      <trkpt lat="45.9169" lon="4.01384">
        <ele>575</ele>
        <time>2016-04-21T09:02:31Z</time>
      </trkpt>
      <trkpt lat="45.91689" lon="4.01391">
        <ele>576</ele>
        <time>2016-04-21T09:03:00Z</time>
      </trkpt>
      <trkpt lat="45.9169" lon="4.0141">
        <ele>576</ele>
        <time>2016-04-21T09:03:20Z</time>
      </trkpt>
      <trkpt lat="45.91687" lon="4.01417">
        <ele>576</ele>
        <time>2016-04-21T09:03:25Z</time>
      </trkpt>
      <trkpt lat="45.91674" lon="4.01437">
        <ele>575</ele>
        <time>2016-04-21T09:03:48Z</time>
      </trkpt>
      <trkpt lat="45.91645" lon="4.01462">
        <ele>577</ele>
        <time>2016-04-21T09:04:40Z</time>
      </trkpt>
      <trkpt lat="45.91625" lon="4.0147">
        <ele>577</ele>
        <time>2016-04-21T09:04:59Z</time>
      </trkpt>
      <trkpt lat="45.9162" lon="4.01471">
        <ele>577</ele>
        <time>2016-04-21T09:05:03Z</time>
      </trkpt>
      <trkpt lat="45.91583" lon="4.0149">
        <ele>579</ele>
        <time>2016-04-21T09:05:35Z</time>
      </trkpt>
      <trkpt lat="45.91567" lon="4.01507">
        <ele>580</ele>
        <time>2016-04-21T09:05:53Z</time>
      </trkpt>
      <trkpt lat="45.9154" lon="4.01589">
        <ele>583</ele>
        <time>2016-04-21T09:07:16Z</time>
      </trkpt>
      <trkpt lat="45.91491" lon="4.01637">
        <ele>576</ele>
        <time>2016-04-21T09:08:09Z</time>
      </trkpt>
      <trkpt lat="45.91485" lon="4.01649">
        <ele>576</ele>
        <time>2016-04-21T09:08:20Z</time>
      </trkpt>
      <trkpt lat="45.91484" lon="4.01652">
        <ele>576</ele>
        <time>2016-04-21T09:08:32Z</time>
      </trkpt>
      <trkpt lat="45.91463" lon="4.01684">
        <ele>574</ele>
        <time>2016-04-21T09:09:02Z</time>
      </trkpt>
      <trkpt lat="45.91462" lon="4.01691">
        <ele>574</ele>
        <time>2016-04-21T09:09:06Z</time>
      </trkpt>
      <trkpt lat="45.91458" lon="4.01721">
        <ele>572</ele>
        <time>2016-04-21T09:09:32Z</time>
      </trkpt>
      <trkpt lat="45.91455" lon="4.01727">
        <ele>572</ele>
        <time>2016-04-21T09:09:37Z</time>
      </trkpt>
      <trkpt lat="45.91451" lon="4.01733">
        <ele>571</ele>
        <time>2016-04-21T09:09:42Z</time>
      </trkpt>
      <trkpt lat="45.91444" lon="4.0182">
        <ele>566</ele>
        <time>2016-04-21T09:10:41Z</time>
      </trkpt>
      <trkpt lat="45.9144" lon="4.01825">
        <ele>566</ele>
        <time>2016-04-21T09:10:48Z</time>
      </trkpt>
      <trkpt lat="45.9143" lon="4.01843">
        <ele>566</ele>
        <time>2016-04-21T09:11:02Z</time>
      </trkpt>
      <trkpt lat="45.91214" lon="4.0205">
        <ele>565</ele>
        <time>2016-04-21T09:14:50Z</time>
      </trkpt>
      <trkpt lat="45.91151" lon="4.021">
        <ele>565</ele>
        <time>2016-04-21T09:15:51Z</time>
      </trkpt>
      <trkpt lat="45.91032" lon="4.02169">
        <ele>566</ele>
        <time>2016-04-21T09:17:51Z</time>
      </trkpt>
      <trkpt lat="45.91012" lon="4.02188">
        <ele>567</ele>
        <time>2016-04-21T09:18:14Z</time>
      </trkpt>
      <trkpt lat="45.90979" lon="4.02205">
        <ele>565</ele>
        <time>2016-04-21T09:18:44Z</time>
      </trkpt>
      <trkpt lat="45.90974" lon="4.02206">
        <ele>565</ele>
        <time>2016-04-21T09:18:49Z</time>
      </trkpt>
      <trkpt lat="45.90904" lon="4.02219">
        <ele>564</ele>
        <time>2016-04-21T09:19:50Z</time>
      </trkpt>
      <trkpt lat="45.90894" lon="4.02219">
        <ele>563</ele>
        <time>2016-04-21T09:19:58Z</time>
      </trkpt>
      <trkpt lat="45.90868" lon="4.02228">
        <ele>562</ele>
        <time>2016-04-21T09:20:18Z</time>
      </trkpt>
      <trkpt lat="45.90829" lon="4.02234">
        <ele>562</ele>
        <time>2016-04-21T09:20:52Z</time>
      </trkpt>
      <trkpt lat="45.90809" lon="4.02239">
        <ele>560</ele>
        <time>2016-04-21T09:21:09Z</time>
      </trkpt>
      <trkpt lat="45.90804" lon="4.02241">
        <ele>561</ele>
        <time>2016-04-21T09:21:13Z</time>
      </trkpt>
      <trkpt lat="45.90733" lon="4.02247">
        <ele>558</ele>
        <time>2016-04-21T09:22:10Z</time>
      </trkpt>
      <trkpt lat="45.90727" lon="4.0225">
        <ele>558</ele>
        <time>2016-04-21T09:22:20Z</time>
      </trkpt>
      <trkpt lat="45.90701" lon="4.02249">
        <ele>557</ele>
        <time>2016-04-21T09:23:07Z</time>
      </trkpt>
      <trkpt lat="45.90697" lon="4.02252">
        <ele>557</ele>
        <time>2016-04-21T09:23:13Z</time>
      </trkpt>
      <trkpt lat="45.90672" lon="4.02254">
        <ele>556</ele>
        <time>2016-04-21T09:23:48Z</time>
      </trkpt>
      <trkpt lat="45.90633" lon="4.02264">
        <ele>555</ele>
        <time>2016-04-21T09:24:20Z</time>
      </trkpt>
      <trkpt lat="45.90552" lon="4.02338">
        <ele>554</ele>
        <time>2016-04-21T09:26:06Z</time>
      </trkpt>
      <trkpt lat="45.90547" lon="4.02344">
        <ele>554</ele>
        <time>2016-04-21T09:27:25Z</time>
      </trkpt>
      <trkpt lat="45.90544" lon="4.0235">
        <ele>554</ele>
        <time>2016-04-21T09:27:30Z</time>
      </trkpt>
      <trkpt lat="45.9052" lon="4.02379">
        <ele>553</ele>
        <time>2016-04-21T09:27:59Z</time>
      </trkpt>
      <trkpt lat="45.90515" lon="4.02383">
        <ele>553</ele>
        <time>2016-04-21T09:28:04Z</time>
      </trkpt>
      <trkpt lat="45.90423" lon="4.02477">
        <ele>546</ele>
        <time>2016-04-21T09:29:50Z</time>
      </trkpt>
      <trkpt lat="45.9041" lon="4.02488">
        <ele>545</ele>
        <time>2016-04-21T09:30:05Z</time>
      </trkpt>
      <trkpt lat="45.90377" lon="4.02502">
        <ele>541</ele>
        <time>2016-04-21T09:30:39Z</time>
      </trkpt>
      <trkpt lat="45.90327" lon="4.02506">
        <ele>537</ele>
        <time>2016-04-21T09:31:22Z</time>
      </trkpt>
      <trkpt lat="45.90323" lon="4.02507">
        <ele>537</ele>
        <time>2016-04-21T09:31:32Z</time>
      </trkpt>
      <trkpt lat="45.90322" lon="4.0251">
        <ele>536</ele>
        <time>2016-04-21T09:31:38Z</time>
      </trkpt>
      <trkpt lat="45.90316" lon="4.02511">
        <ele>536</ele>
        <time>2016-04-21T09:31:43Z</time>
      </trkpt>
      <trkpt lat="45.90293" lon="4.02523">
        <ele>534</ele>
        <time>2016-04-21T09:32:04Z</time>
      </trkpt>
      <trkpt lat="45.90291" lon="4.02522">
        <ele>533</ele>
        <time>2016-04-21T09:32:21Z</time>
      </trkpt>
      <trkpt lat="45.90282" lon="4.02528">
        <ele>533</ele>
        <time>2016-04-21T09:32:46Z</time>
      </trkpt>
      <trkpt lat="45.90268" lon="4.02533">
        <ele>532</ele>
        <time>2016-04-21T09:32:58Z</time>
      </trkpt>
      <trkpt lat="45.90264" lon="4.02537">
        <ele>531</ele>
        <time>2016-04-21T09:33:03Z</time>
      </trkpt>
      <trkpt lat="45.90205" lon="4.0256">
        <ele>525</ele>
        <time>2016-04-21T09:33:55Z</time>
      </trkpt>
      <trkpt lat="45.90201" lon="4.02562">
        <ele>524</ele>
        <time>2016-04-21T09:34:04Z</time>
      </trkpt>
      <trkpt lat="45.90199" lon="4.02554">
        <ele>524</ele>
        <time>2016-04-21T09:34:11Z</time>
      </trkpt>
      <trkpt lat="45.90201" lon="4.02541">
        <ele>524</ele>
        <time>2016-04-21T09:34:26Z</time>
      </trkpt>
      <trkpt lat="45.90205" lon="4.02537">
        <ele>524</ele>
        <time>2016-04-21T09:34:31Z</time>
      </trkpt>
      <trkpt lat="45.9021" lon="4.02509">
        <ele>525</ele>
        <time>2016-04-21T09:35:02Z</time>
      </trkpt>
      <trkpt lat="45.90213" lon="4.02504">
        <ele>525</ele>
        <time>2016-04-21T09:35:07Z</time>
      </trkpt>
      <trkpt lat="45.90212" lon="4.025">
        <ele>526</ele>
        <time>2016-04-21T09:35:56Z</time>
      </trkpt>
      <trkpt lat="45.90212" lon="4.02503">
        <ele>525</ele>
        <time>2016-04-21T09:49:22Z</time>
      </trkpt>
      <trkpt lat="45.9021" lon="4.02509">
        <ele>525</ele>
        <time>2016-04-21T09:49:29Z</time>
      </trkpt>
      <trkpt lat="45.90199" lon="4.02551">
        <ele>525</ele>
        <time>2016-04-21T09:49:57Z</time>
      </trkpt>
      <trkpt lat="45.90196" lon="4.02555">
        <ele>525</ele>
        <time>2016-04-21T09:50:02Z</time>
      </trkpt>
      <trkpt lat="45.90182" lon="4.02563">
        <ele>525</ele>
        <time>2016-04-21T09:50:16Z</time>
      </trkpt>
      <trkpt lat="45.90166" lon="4.02566">
        <ele>523</ele>
        <time>2016-04-21T09:50:31Z</time>
      </trkpt>
      <trkpt lat="45.90107" lon="4.0255">
        <ele>514</ele>
        <time>2016-04-21T09:51:23Z</time>
      </trkpt>
      <trkpt lat="45.90068" lon="4.02556">
        <ele>510</ele>
        <time>2016-04-21T09:51:56Z</time>
      </trkpt>
      <trkpt lat="45.89997" lon="4.02603">
        <ele>501</ele>
        <time>2016-04-21T09:53:05Z</time>
      </trkpt>
      <trkpt lat="45.89916" lon="4.02634">
        <ele>492</ele>
        <time>2016-04-21T09:54:45Z</time>
      </trkpt>
      <trkpt lat="45.89879" lon="4.02636">
        <ele>489</ele>
        <time>2016-04-21T09:55:19Z</time>
      </trkpt>
      <trkpt lat="45.89793" lon="4.02627">
        <ele>482</ele>
        <time>2016-04-21T09:56:55Z</time>
      </trkpt>
      <trkpt lat="45.89789" lon="4.02628">
        <ele>482</ele>
        <time>2016-04-21T09:57:00Z</time>
      </trkpt>
      <trkpt lat="45.8978" lon="4.02621">
        <ele>482</ele>
        <time>2016-04-21T09:57:11Z</time>
      </trkpt>
      <trkpt lat="45.89775" lon="4.02619">
        <ele>481</ele>
        <time>2016-04-21T09:57:16Z</time>
      </trkpt>
      <trkpt lat="45.89771" lon="4.02615">
        <ele>481</ele>
        <time>2016-04-21T09:57:20Z</time>
      </trkpt>
      <trkpt lat="45.89768" lon="4.0261">
        <ele>480</ele>
        <time>2016-04-21T09:57:24Z</time>
      </trkpt>
      <trkpt lat="45.89734" lon="4.02594">
        <ele>477</ele>
        <time>2016-04-21T09:57:55Z</time>
      </trkpt>
      <trkpt lat="45.897" lon="4.02591">
        <ele>474</ele>
        <time>2016-04-21T09:58:26Z</time>
      </trkpt>
      <trkpt lat="45.8966" lon="4.02593">
        <ele>470</ele>
        <time>2016-04-21T09:59:01Z</time>
      </trkpt>
      <trkpt lat="45.89635" lon="4.02598">
        <ele>469</ele>
        <time>2016-04-21T09:59:24Z</time>
      </trkpt>
      <trkpt lat="45.89632" lon="4.02603">
        <ele>467</ele>
        <time>2016-04-21T09:59:33Z</time>
      </trkpt>
      <trkpt lat="45.89605" lon="4.02617">
        <ele>466</ele>
        <time>2016-04-21T10:00:17Z</time>
      </trkpt>
      <trkpt lat="45.89601" lon="4.0262">
        <ele>467</ele>
        <time>2016-04-21T10:00:21Z</time>
      </trkpt>
      <trkpt lat="45.89543" lon="4.02644">
        <ele>467</ele>
        <time>2016-04-21T10:01:16Z</time>
      </trkpt>
      <trkpt lat="45.89529" lon="4.02649">
        <ele>467</ele>
        <time>2016-04-21T10:01:29Z</time>
      </trkpt>
      <trkpt lat="45.89513" lon="4.0265">
        <ele>469</ele>
        <time>2016-04-21T10:01:43Z</time>
      </trkpt>
      <trkpt lat="45.89508" lon="4.02649">
        <ele>468</ele>
        <time>2016-04-21T10:01:48Z</time>
      </trkpt>
      <trkpt lat="45.89503" lon="4.02646">
        <ele>468</ele>
        <time>2016-04-21T10:01:53Z</time>
      </trkpt>
      <trkpt lat="45.89498" lon="4.02644">
        <ele>468</ele>
        <time>2016-04-21T10:01:58Z</time>
      </trkpt>
      <trkpt lat="45.89467" lon="4.0262">
        <ele>468</ele>
        <time>2016-04-21T10:02:31Z</time>
      </trkpt>
      <trkpt lat="45.89401" lon="4.02593">
        <ele>475</ele>
        <time>2016-04-21T10:03:38Z</time>
      </trkpt>
      <trkpt lat="45.894" lon="4.02596">
        <ele>475</ele>
        <time>2016-04-21T10:05:44Z</time>
      </trkpt>
      <trkpt lat="45.89332" lon="4.02573">
        <ele>478</ele>
        <time>2016-04-21T10:06:53Z</time>
      </trkpt>
      <trkpt lat="45.89224" lon="4.02554">
        <ele>484</ele>
        <time>2016-04-21T10:08:42Z</time>
      </trkpt>
      <trkpt lat="45.89156" lon="4.02538">
        <ele>487</ele>
        <time>2016-04-21T10:09:50Z</time>
      </trkpt>
      <trkpt lat="45.89113" lon="4.02519">
        <ele>486</ele>
        <time>2016-04-21T10:10:34Z</time>
      </trkpt>
      <trkpt lat="45.8911" lon="4.02521">
        <ele>486</ele>
        <time>2016-04-21T10:10:42Z</time>
      </trkpt>
      <trkpt lat="45.89105" lon="4.02519">
        <ele>486</ele>
        <time>2016-04-21T10:10:51Z</time>
      </trkpt>
      <trkpt lat="45.8909" lon="4.02513">
        <ele>486</ele>
        <time>2016-04-21T10:11:09Z</time>
      </trkpt>
      <trkpt lat="45.89081" lon="4.02514">
        <ele>487</ele>
        <time>2016-04-21T10:11:18Z</time>
      </trkpt>
      <trkpt lat="45.89076" lon="4.02517">
        <ele>487</ele>
        <time>2016-04-21T10:11:22Z</time>
      </trkpt>
      <trkpt lat="45.88921" lon="4.02844">
        <ele>482</ele>
        <time>2016-04-21T10:15:42Z</time>
      </trkpt>
      <trkpt lat="45.88905" lon="4.02887">
        <ele>482</ele>
        <time>2016-04-21T10:16:12Z</time>
      </trkpt>
      <trkpt lat="45.88851" lon="4.02951">
        <ele>479</ele>
        <time>2016-04-21T10:17:17Z</time>
      </trkpt>
      <trkpt lat="45.88737" lon="4.03141">
        <ele>473</ele>
        <time>2016-04-21T10:19:55Z</time>
      </trkpt>
      <trkpt lat="45.88678" lon="4.03196">
        <ele>471</ele>
        <time>2016-04-21T10:20:58Z</time>
      </trkpt>
      <trkpt lat="45.88645" lon="4.03217">
        <ele>470</ele>
        <time>2016-04-21T10:21:30Z</time>
      </trkpt>
      <trkpt lat="45.88612" lon="4.03233">
        <ele>469</ele>
        <time>2016-04-21T10:22:01Z</time>
      </trkpt>
      <trkpt lat="45.88578" lon="4.03238">
        <ele>469</ele>
        <time>2016-04-21T10:22:34Z</time>
      </trkpt>
      <trkpt lat="45.88554" lon="4.03244">
        <ele>468</ele>
        <time>2016-04-21T10:22:59Z</time>
      </trkpt>
      <trkpt lat="45.88521" lon="4.03263">
        <ele>467</ele>
        <time>2016-04-21T10:23:30Z</time>
      </trkpt>
      <trkpt lat="45.88376" lon="4.03311">
        <ele>456</ele>
        <time>2016-04-21T10:26:10Z</time>
      </trkpt>
      <trkpt lat="45.88371" lon="4.03314">
        <ele>455</ele>
        <time>2016-04-21T10:26:15Z</time>
      </trkpt>
      <trkpt lat="45.88357" lon="4.03322">
        <ele>455</ele>
        <time>2016-04-21T10:26:28Z</time>
      </trkpt>
      <trkpt lat="45.88294" lon="4.03347">
        <ele>455</ele>
        <time>2016-04-21T10:28:00Z</time>
      </trkpt>
      <trkpt lat="45.88292" lon="4.03348">
        <ele>456</ele>
        <time>2016-04-21T10:28:33Z</time>
      </trkpt>
      <trkpt lat="45.88266" lon="4.03354">
        <ele>456</ele>
        <time>2016-04-21T10:29:04Z</time>
      </trkpt>
      <trkpt lat="45.88227" lon="4.03358">
        <ele>458</ele>
        <time>2016-04-21T10:29:37Z</time>
      </trkpt>
      <trkpt lat="45.88152" lon="4.03351">
        <ele>463</ele>
        <time>2016-04-21T10:30:42Z</time>
      </trkpt>
      <trkpt lat="45.88001" lon="4.03352">
        <ele>466</ele>
        <time>2016-04-21T10:32:51Z</time>
      </trkpt>
      <trkpt lat="45.87966" lon="4.03361">
        <ele>467</ele>
        <time>2016-04-21T10:33:21Z</time>
      </trkpt>
      <trkpt lat="45.87932" lon="4.03363">
        <ele>469</ele>
        <time>2016-04-21T10:33:54Z</time>
      </trkpt>
      <trkpt lat="45.87894" lon="4.03359">
        <ele>470</ele>
        <time>2016-04-21T10:34:27Z</time>
      </trkpt>
      <trkpt lat="45.87859" lon="4.03362">
        <ele>471</ele>
        <time>2016-04-21T10:34:58Z</time>
      </trkpt>
      <trkpt lat="45.87793" lon="4.03378">
        <ele>473</ele>
        <time>2016-04-21T10:35:58Z</time>
      </trkpt>
      <trkpt lat="45.87784" lon="4.03383">
        <ele>473</ele>
        <time>2016-04-21T10:36:08Z</time>
      </trkpt>
      <trkpt lat="45.87775" lon="4.03375">
        <ele>473</ele>
        <time>2016-04-21T10:36:20Z</time>
      </trkpt>
      <trkpt lat="45.8776" lon="4.03377">
        <ele>473</ele>
        <time>2016-04-21T10:36:39Z</time>
      </trkpt>
      <trkpt lat="45.87759" lon="4.03381">
        <ele>473</ele>
        <time>2016-04-21T10:36:46Z</time>
      </trkpt>
      <trkpt lat="45.87753" lon="4.03383">
        <ele>473</ele>
        <time>2016-04-21T10:36:58Z</time>
      </trkpt>
      <trkpt lat="45.87752" lon="4.0339">
        <ele>473</ele>
        <time>2016-04-21T10:37:02Z</time>
      </trkpt>
      <trkpt lat="45.87752" lon="4.03412">
        <ele>473</ele>
        <time>2016-04-21T10:37:14Z</time>
      </trkpt>
      <trkpt lat="45.8775" lon="4.03413">
        <ele>474</ele>
        <time>2016-04-21T11:25:28Z</time>
      </trkpt>
      <trkpt lat="45.87747" lon="4.03428">
        <ele>473</ele>
        <time>2016-04-21T11:25:44Z</time>
      </trkpt>
      <trkpt lat="45.87746" lon="4.03435">
        <ele>473</ele>
        <time>2016-04-21T11:25:48Z</time>
      </trkpt>
      <trkpt lat="45.87747" lon="4.03442">
        <ele>473</ele>
        <time>2016-04-21T11:25:52Z</time>
      </trkpt>
      <trkpt lat="45.87737" lon="4.03479">
        <ele>471</ele>
        <time>2016-04-21T11:26:22Z</time>
      </trkpt>
      <trkpt lat="45.87733" lon="4.03507">
        <ele>469</ele>
        <time>2016-04-21T11:26:43Z</time>
      </trkpt>
      <trkpt lat="45.87716" lon="4.03537">
        <ele>467</ele>
        <time>2016-04-21T11:27:30Z</time>
      </trkpt>
      <trkpt lat="45.87712" lon="4.03551">
        <ele>465</ele>
        <time>2016-04-21T11:27:40Z</time>
      </trkpt>
      <trkpt lat="45.87708" lon="4.03555">
        <ele>465</ele>
        <time>2016-04-21T11:27:44Z</time>
      </trkpt>
      <trkpt lat="45.87691" lon="4.0359">
        <ele>461</ele>
        <time>2016-04-21T11:28:16Z</time>
      </trkpt>
      <trkpt lat="45.87666" lon="4.03625">
        <ele>458</ele>
        <time>2016-04-21T11:28:50Z</time>
      </trkpt>
      <trkpt lat="45.87622" lon="4.0367">
        <ele>455</ele>
        <time>2016-04-21T11:29:45Z</time>
      </trkpt>
      <trkpt lat="45.87619" lon="4.03677">
        <ele>455</ele>
        <time>2016-04-21T11:30:30Z</time>
      </trkpt>
      <trkpt lat="45.87571" lon="4.03704">
        <ele>451</ele>
        <time>2016-04-21T11:31:23Z</time>
      </trkpt>
      <trkpt lat="45.87565" lon="4.03705">
        <ele>451</ele>
        <time>2016-04-21T11:31:28Z</time>
      </trkpt>
      <trkpt lat="45.87532" lon="4.03722">
        <ele>447</ele>
        <time>2016-04-21T11:32:03Z</time>
      </trkpt>
      <trkpt lat="45.87502" lon="4.03729">
        <ele>444</ele>
        <time>2016-04-21T11:32:33Z</time>
      </trkpt>
      <trkpt lat="45.87474" lon="4.03741">
        <ele>439</ele>
        <time>2016-04-21T11:33:03Z</time>
      </trkpt>
      <trkpt lat="45.87461" lon="4.03762">
        <ele>436</ele>
        <time>2016-04-21T11:33:22Z</time>
      </trkpt>
      <trkpt lat="45.87457" lon="4.03788">
        <ele>434</ele>
        <time>2016-04-21T11:33:40Z</time>
      </trkpt>
      <trkpt lat="45.87453" lon="4.03792">
        <ele>434</ele>
        <time>2016-04-21T11:33:45Z</time>
      </trkpt>
      <trkpt lat="45.87443" lon="4.03795">
        <ele>432</ele>
        <time>2016-04-21T11:33:56Z</time>
      </trkpt>
      <trkpt lat="45.87438" lon="4.03793">
        <ele>432</ele>
        <time>2016-04-21T11:34:01Z</time>
      </trkpt>
      <trkpt lat="45.8741" lon="4.03797">
        <ele>427</ele>
        <time>2016-04-21T11:34:32Z</time>
      </trkpt>
      <trkpt lat="45.87381" lon="4.03825">
        <ele>423</ele>
        <time>2016-04-21T11:35:03Z</time>
      </trkpt>
      <trkpt lat="45.87339" lon="4.03898">
        <ele>419</ele>
        <time>2016-04-21T11:36:04Z</time>
      </trkpt>
      <trkpt lat="45.87336" lon="4.03903">
        <ele>419</ele>
        <time>2016-04-21T11:36:08Z</time>
      </trkpt>
      <trkpt lat="45.87313" lon="4.03943">
        <ele>418</ele>
        <time>2016-04-21T11:36:38Z</time>
      </trkpt>
      <trkpt lat="45.87308" lon="4.03955">
        <ele>417</ele>
        <time>2016-04-21T11:36:46Z</time>
      </trkpt>
      <trkpt lat="45.87299" lon="4.03971">
        <ele>417</ele>
        <time>2016-04-21T11:36:58Z</time>
      </trkpt>
      <trkpt lat="45.87287" lon="4.03984">
        <ele>417</ele>
        <time>2016-04-21T11:37:12Z</time>
      </trkpt>
      <trkpt lat="45.87289" lon="4.03989">
        <ele>416</ele>
        <time>2016-04-21T11:37:31Z</time>
      </trkpt>
      <trkpt lat="45.87288" lon="4.03997">
        <ele>416</ele>
        <time>2016-04-21T11:37:35Z</time>
      </trkpt>
      <trkpt lat="45.87281" lon="4.04014">
        <ele>416</ele>
        <time>2016-04-21T11:37:46Z</time>
      </trkpt>
      <trkpt lat="45.87241" lon="4.04079">
        <ele>414</ele>
        <time>2016-04-21T11:38:38Z</time>
      </trkpt>
      <trkpt lat="45.87192" lon="4.04178">
        <ele>419</ele>
        <time>2016-04-21T11:39:54Z</time>
      </trkpt>
      <trkpt lat="45.87182" lon="4.04201">
        <ele>419</ele>
        <time>2016-04-21T11:40:11Z</time>
      </trkpt>
      <trkpt lat="45.87152" lon="4.04221">
        <ele>419</ele>
        <time>2016-04-21T11:40:41Z</time>
      </trkpt>
      <trkpt lat="45.87142" lon="4.04223">
        <ele>419</ele>
        <time>2016-04-21T11:40:50Z</time>
      </trkpt>
      <trkpt lat="45.86869" lon="4.04336">
        <ele>415</ele>
        <time>2016-04-21T11:45:03Z</time>
      </trkpt>
      <trkpt lat="45.86862" lon="4.04346">
        <ele>414</ele>
        <time>2016-04-21T11:45:13Z</time>
      </trkpt>
      <trkpt lat="45.86848" lon="4.04353">
        <ele>415</ele>
        <time>2016-04-21T11:45:28Z</time>
      </trkpt>
      <trkpt lat="45.86769" lon="4.04385">
        <ele>415</ele>
        <time>2016-04-21T11:46:40Z</time>
      </trkpt>
      <trkpt lat="45.86764" lon="4.04388">
        <ele>415</ele>
        <time>2016-04-21T11:46:44Z</time>
      </trkpt>
      <trkpt lat="45.86648" lon="4.04432">
        <ele>414</ele>
        <time>2016-04-21T11:48:31Z</time>
      </trkpt>
      <trkpt lat="45.86616" lon="4.04448">
        <ele>415</ele>
        <time>2016-04-21T11:49:02Z</time>
      </trkpt>
      <trkpt lat="45.86607" lon="4.04449">
        <ele>415</ele>
        <time>2016-04-21T11:49:12Z</time>
      </trkpt>
      <trkpt lat="45.86581" lon="4.04455">
        <ele>416</ele>
        <time>2016-04-21T11:49:35Z</time>
      </trkpt>
      <trkpt lat="45.86572" lon="4.04462">
        <ele>420</ele>
        <time>2016-04-21T11:49:46Z</time>
      </trkpt>
      <trkpt lat="45.86562" lon="4.04465">
        <ele>420</ele>
        <time>2016-04-21T11:49:55Z</time>
      </trkpt>
      <trkpt lat="45.86557" lon="4.04464">
        <ele>418</ele>
        <time>2016-04-21T11:49:59Z</time>
      </trkpt>
      <trkpt lat="45.86548" lon="4.04466">
        <ele>417</ele>
        <time>2016-04-21T11:50:08Z</time>
      </trkpt>
      <trkpt lat="45.86534" lon="4.0447">
        <ele>417</ele>
        <time>2016-04-21T11:50:20Z</time>
      </trkpt>
      <trkpt lat="45.86433" lon="4.04521">
        <ele>417</ele>
        <time>2016-04-21T11:51:56Z</time>
      </trkpt>
      <trkpt lat="45.86393" lon="4.04536">
        <ele>415</ele>
        <time>2016-04-21T11:52:33Z</time>
      </trkpt>
      <trkpt lat="45.86359" lon="4.04562">
        <ele>413</ele>
        <time>2016-04-21T11:53:11Z</time>
      </trkpt>
      <trkpt lat="45.86354" lon="4.04566">
        <ele>413</ele>
        <time>2016-04-21T11:53:16Z</time>
      </trkpt>
      <trkpt lat="45.86341" lon="4.04575">
        <ele>413</ele>
        <time>2016-04-21T11:53:28Z</time>
      </trkpt>
      <trkpt lat="45.86273" lon="4.046">
        <ele>409</ele>
        <time>2016-04-21T11:54:33Z</time>
      </trkpt>
      <trkpt lat="45.86268" lon="4.046">
        <ele>409</ele>
        <time>2016-04-21T11:54:38Z</time>
      </trkpt>
      <trkpt lat="45.86238" lon="4.04604">
        <ele>408</ele>
        <time>2016-04-21T11:55:08Z</time>
      </trkpt>
      <trkpt lat="45.86175" lon="4.04598">
        <ele>407</ele>
        <time>2016-04-21T11:56:12Z</time>
      </trkpt>
      <trkpt lat="45.86118" lon="4.04601">
        <ele>405</ele>
        <time>2016-04-21T11:57:20Z</time>
      </trkpt>
      <trkpt lat="45.86099" lon="4.04599">
        <ele>404</ele>
        <time>2016-04-21T11:57:40Z</time>
      </trkpt>
      <trkpt lat="45.86093" lon="4.04605">
        <ele>405</ele>
        <time>2016-04-21T11:57:58Z</time>
      </trkpt>
      <trkpt lat="45.86089" lon="4.04607">
        <ele>405</ele>
        <time>2016-04-21T11:58:07Z</time>
      </trkpt>
      <trkpt lat="45.8607" lon="4.04599">
        <ele>404</ele>
        <time>2016-04-21T11:58:34Z</time>
      </trkpt>
      <trkpt lat="45.8604" lon="4.04597">
        <ele>403</ele>
        <time>2016-04-21T11:59:04Z</time>
      </trkpt>
      <trkpt lat="45.8603" lon="4.04595">
        <ele>403</ele>
        <time>2016-04-21T11:59:14Z</time>
      </trkpt>
      <trkpt lat="45.86027" lon="4.04595">
        <ele>403</ele>
        <time>2016-04-21T11:59:26Z</time>
      </trkpt>
      <trkpt lat="45.86023" lon="4.04595">
        <ele>403</ele>
        <time>2016-04-21T11:59:37Z</time>
      </trkpt>
      <trkpt lat="45.85979" lon="4.04595">
        <ele>400</ele>
        <time>2016-04-21T12:00:21Z</time>
      </trkpt>
      <trkpt lat="45.85974" lon="4.04596">
        <ele>400</ele>
        <time>2016-04-21T12:00:26Z</time>
      </trkpt>
      <trkpt lat="45.8596" lon="4.04592">
        <ele>401</ele>
        <time>2016-04-21T12:00:39Z</time>
      </trkpt>
      <trkpt lat="45.85945" lon="4.04586">
        <ele>400</ele>
        <time>2016-04-21T12:00:53Z</time>
      </trkpt>
      <trkpt lat="45.85941" lon="4.04585">
        <ele>400</ele>
        <time>2016-04-21T12:00:59Z</time>
      </trkpt>
      <trkpt lat="45.8592" lon="4.04584">
        <ele>401</ele>
        <time>2016-04-21T12:01:17Z</time>
      </trkpt>
      <trkpt lat="45.8591" lon="4.04586">
        <ele>399</ele>
        <time>2016-04-21T12:01:26Z</time>
      </trkpt>
      <trkpt lat="45.85895" lon="4.04582">
        <ele>398</ele>
        <time>2016-04-21T12:01:46Z</time>
      </trkpt>
      <trkpt lat="45.8589" lon="4.0458">
        <ele>399</ele>
        <time>2016-04-21T12:01:54Z</time>
      </trkpt>
      <trkpt lat="45.85886" lon="4.04583">
        <ele>400</ele>
        <time>2016-04-21T12:01:59Z</time>
      </trkpt>
      <trkpt lat="45.85858" lon="4.04581">
        <ele>397</ele>
        <time>2016-04-21T12:02:32Z</time>
      </trkpt>
      <trkpt lat="45.85856" lon="4.04584">
        <ele>397</ele>
        <time>2016-04-21T12:02:49Z</time>
      </trkpt>
      <trkpt lat="45.85852" lon="4.04587">
        <ele>397</ele>
        <time>2016-04-21T12:02:59Z</time>
      </trkpt>
      <trkpt lat="45.8585" lon="4.04587">
        <ele>397</ele>
        <time>2016-04-21T12:03:22Z</time>
      </trkpt>
      <trkpt lat="45.85839" lon="4.04585">
        <ele>397</ele>
        <time>2016-04-21T12:03:45Z</time>
      </trkpt>
      <trkpt lat="45.85828" lon="4.0458">
        <ele>396</ele>
        <time>2016-04-21T12:04:09Z</time>
      </trkpt>
      <trkpt lat="45.85823" lon="4.04579">
        <ele>396</ele>
        <time>2016-04-21T12:04:13Z</time>
      </trkpt>
      <trkpt lat="45.858" lon="4.04561">
        <ele>395</ele>
        <time>2016-04-21T12:04:33Z</time>
      </trkpt>
      <trkpt lat="45.85797" lon="4.0456">
        <ele>395</ele>
        <time>2016-04-21T12:04:41Z</time>
      </trkpt>
      <trkpt lat="45.85763" lon="4.04604">
        <ele>394</ele>
        <time>2016-04-21T12:05:26Z</time>
      </trkpt>
      <trkpt lat="45.85738" lon="4.04652">
        <ele>394</ele>
        <time>2016-04-21T12:06:03Z</time>
      </trkpt>
      <trkpt lat="45.85703" lon="4.04745">
        <ele>392</ele>
        <time>2016-04-21T12:07:10Z</time>
      </trkpt>
      <trkpt lat="45.85691" lon="4.0479">
        <ele>390</ele>
        <time>2016-04-21T12:07:40Z</time>
      </trkpt>
      <trkpt lat="45.85684" lon="4.04833">
        <ele>390</ele>
        <time>2016-04-21T12:08:10Z</time>
      </trkpt>
      <trkpt lat="45.85674" lon="4.04857">
        <ele>389</ele>
        <time>2016-04-21T12:08:41Z</time>
      </trkpt>
      <trkpt lat="45.85644" lon="4.04979">
        <ele>391</ele>
        <time>2016-04-21T12:10:09Z</time>
      </trkpt>
      <trkpt lat="45.8564" lon="4.05">
        <ele>392</ele>
        <time>2016-04-21T12:10:23Z</time>
      </trkpt>
      <trkpt lat="45.85639" lon="4.05029">
        <ele>393</ele>
        <time>2016-04-21T12:10:39Z</time>
      </trkpt>
      <trkpt lat="45.85602" lon="4.05194">
        <ele>390</ele>
        <time>2016-04-21T12:12:30Z</time>
      </trkpt>
      <trkpt lat="45.85602" lon="4.05217">
        <ele>390</ele>
        <time>2016-04-21T12:13:43Z</time>
      </trkpt>
      <trkpt lat="45.85576" lon="4.05315">
        <ele>389</ele>
        <time>2016-04-21T12:14:49Z</time>
      </trkpt>
      <trkpt lat="45.85561" lon="4.05408">
        <ele>388</ele>
        <time>2016-04-21T12:15:53Z</time>
      </trkpt>
      <trkpt lat="45.85563" lon="4.05414">
        <ele>388</ele>
        <time>2016-04-21T12:16:03Z</time>
      </trkpt>
      <trkpt lat="45.85557" lon="4.05514">
        <ele>388</ele>
        <time>2016-04-21T12:17:19Z</time>
      </trkpt>
      <trkpt lat="45.85552" lon="4.05508">
        <ele>388</ele>
        <time>2016-04-21T12:17:32Z</time>
      </trkpt>
      <trkpt lat="45.8555" lon="4.05505">
        <ele>387</ele>
        <time>2016-04-21T12:17:38Z</time>
      </trkpt>
      <trkpt lat="45.85537" lon="4.05493">
        <ele>387</ele>
        <time>2016-04-21T12:17:53Z</time>
      </trkpt>
      <trkpt lat="45.8553" lon="4.05465">
        <ele>386</ele>
        <time>2016-04-21T12:18:19Z</time>
      </trkpt>
      <trkpt lat="45.85521" lon="4.05461">
        <ele>386</ele>
        <time>2016-04-21T12:18:22Z</time>
      </trkpt>
      <trkpt lat="45.85488" lon="4.05457">
        <ele>386</ele>
        <time>2016-04-21T12:18:54Z</time>
      </trkpt>
      <trkpt lat="45.85483" lon="4.05459">
        <ele>386</ele>
        <time>2016-04-21T12:19:00Z</time>
      </trkpt>
      <trkpt lat="45.85485" lon="4.05461">
        <ele>386</ele>
        <time>2016-04-21T12:19:15Z</time>
      </trkpt>
      <trkpt lat="45.85488" lon="4.05461">
        <ele>386</ele>
        <time>2016-04-21T12:19:43Z</time>
      </trkpt>
      <trkpt lat="45.85483" lon="4.05457">
        <ele>385</ele>
        <time>2016-04-21T12:20:33Z</time>
      </trkpt>
      <trkpt lat="45.85482" lon="4.05456">
        <ele>385</ele>
        <time>2016-04-21T12:23:43Z</time>
      </trkpt>
      <trkpt lat="45.85484" lon="4.0546">
        <ele>378</ele>
        <time>2016-04-21T12:28:25Z</time>
      </trkpt>
      <trkpt lat="45.85483" lon="4.05452">
        <ele>378</ele>
        <time>2016-04-21T12:28:39Z</time>
      </trkpt>
      <trkpt lat="45.85482" lon="4.05445">
        <ele>378</ele>
        <time>2016-04-21T12:28:43Z</time>
      </trkpt>
      <trkpt lat="45.85473" lon="4.05422">
        <ele>374</ele>
        <time>2016-04-21T12:29:00Z</time>
      </trkpt>
      <trkpt lat="45.85468" lon="4.05418">
        <ele>373</ele>
        <time>2016-04-21T12:29:05Z</time>
      </trkpt>
      <trkpt lat="45.85466" lon="4.05411">
        <ele>373</ele>
        <time>2016-04-21T12:29:11Z</time>
      </trkpt>
      <trkpt lat="45.85466" lon="4.05404">
        <ele>374</ele>
        <time>2016-04-21T12:29:16Z</time>
      </trkpt>
      <trkpt lat="45.85461" lon="4.05384">
        <ele>382</ele>
        <time>2016-04-21T12:29:35Z</time>
      </trkpt>
      <trkpt lat="45.85456" lon="4.0538">
        <ele>383</ele>
        <time>2016-04-21T12:29:39Z</time>
      </trkpt>
      <trkpt lat="45.85447" lon="4.05355">
        <ele>389</ele>
        <time>2016-04-21T12:30:04Z</time>
      </trkpt>
      <trkpt lat="45.85443" lon="4.05335">
        <ele>392</ele>
        <time>2016-04-21T12:30:22Z</time>
      </trkpt>
      <trkpt lat="45.85439" lon="4.0533">
        <ele>392</ele>
        <time>2016-04-21T12:30:27Z</time>
      </trkpt>
      <trkpt lat="45.85437" lon="4.05323">
        <ele>391</ele>
        <time>2016-04-21T12:30:33Z</time>
      </trkpt>
      <trkpt lat="45.85424" lon="4.05304">
        <ele>391</ele>
        <time>2016-04-21T12:30:54Z</time>
      </trkpt>
      <trkpt lat="45.85422" lon="4.05297">
        <ele>392</ele>
        <time>2016-04-21T12:30:59Z</time>
      </trkpt>
      <trkpt lat="45.85418" lon="4.05293">
        <ele>392</ele>
        <time>2016-04-21T12:31:05Z</time>
      </trkpt>
      <trkpt lat="45.85416" lon="4.05286">
        <ele>392</ele>
        <time>2016-04-21T12:31:10Z</time>
      </trkpt>
      <trkpt lat="45.85392" lon="4.05259">
        <ele>394</ele>
        <time>2016-04-21T12:31:42Z</time>
      </trkpt>
      <trkpt lat="45.8539" lon="4.05251">
        <ele>394</ele>
        <time>2016-04-21T12:31:52Z</time>
      </trkpt>
      <trkpt lat="45.8538" lon="4.05236">
        <ele>395</ele>
        <time>2016-04-21T12:32:05Z</time>
      </trkpt>
      <trkpt lat="45.85376" lon="4.05233">
        <ele>395</ele>
        <time>2016-04-21T12:32:09Z</time>
      </trkpt>
      <trkpt lat="45.8536" lon="4.05215">
        <ele>392</ele>
        <time>2016-04-21T12:32:26Z</time>
      </trkpt>
      <trkpt lat="45.85354" lon="4.05204">
        <ele>393</ele>
        <time>2016-04-21T12:32:39Z</time>
      </trkpt>
      <trkpt lat="45.85279" lon="4.05101">
        <ele>387</ele>
        <time>2016-04-21T12:34:14Z</time>
      </trkpt>
      <trkpt lat="45.85257" lon="4.05062">
        <ele>385</ele>
        <time>2016-04-21T12:34:47Z</time>
      </trkpt>
      <trkpt lat="45.85233" lon="4.05027">
        <ele>385</ele>
        <time>2016-04-21T12:35:19Z</time>
      </trkpt>
      <trkpt lat="45.85231" lon="4.05021">
        <ele>385</ele>
        <time>2016-04-21T12:35:25Z</time>
      </trkpt>
      <trkpt lat="45.85227" lon="4.05016">
        <ele>385</ele>
        <time>2016-04-21T12:35:30Z</time>
      </trkpt>
      <trkpt lat="45.85127" lon="4.0488">
        <ele>384</ele>
        <time>2016-04-21T12:37:40Z</time>
      </trkpt>
      <trkpt lat="45.85042" lon="4.04786">
        <ele>383</ele>
        <time>2016-04-21T12:39:17Z</time>
      </trkpt>
      <trkpt lat="45.85028" lon="4.04765">
        <ele>382</ele>
        <time>2016-04-21T12:39:36Z</time>
      </trkpt>
      <trkpt lat="45.85023" lon="4.04765">
        <ele>382</ele>
        <time>2016-04-21T12:39:44Z</time>
      </trkpt>
      <trkpt lat="45.8502" lon="4.04759">
        <ele>381</ele>
        <time>2016-04-21T12:40:08Z</time>
      </trkpt>
      <trkpt lat="45.85018" lon="4.04753">
        <ele>381</ele>
        <time>2016-04-21T12:40:13Z</time>
      </trkpt>
      <trkpt lat="45.85012" lon="4.04741">
        <ele>381</ele>
        <time>2016-04-21T12:40:23Z</time>
      </trkpt>
      <trkpt lat="45.85008" lon="4.04737">
        <ele>381</ele>
        <time>2016-04-21T12:40:27Z</time>
      </trkpt>
      <trkpt lat="45.85002" lon="4.04733">
        <ele>381</ele>
        <time>2016-04-21T12:40:30Z</time>
      </trkpt>
      <trkpt lat="45.84986" lon="4.04715">
        <ele>381</ele>
        <time>2016-04-21T12:40:43Z</time>
      </trkpt>
      <trkpt lat="45.84958" lon="4.04669">
        <ele>379</ele>
        <time>2016-04-21T12:41:16Z</time>
      </trkpt>
      <trkpt lat="45.84935" lon="4.04622">
        <ele>377</ele>
        <time>2016-04-21T12:41:50Z</time>
      </trkpt>
      <trkpt lat="45.84888" lon="4.04552">
        <ele>374</ele>
        <time>2016-04-21T12:43:30Z</time>
      </trkpt>
      <trkpt lat="45.84883" lon="4.04551">
        <ele>373</ele>
        <time>2016-04-21T12:43:35Z</time>
      </trkpt>
      <trkpt lat="45.84879" lon="4.04555">
        <ele>373</ele>
        <time>2016-04-21T12:43:40Z</time>
      </trkpt>
      <trkpt lat="45.84864" lon="4.04574">
        <ele>373</ele>
        <time>2016-04-21T12:43:57Z</time>
      </trkpt>
      <trkpt lat="45.84861" lon="4.04579">
        <ele>373</ele>
        <time>2016-04-21T12:44:01Z</time>
      </trkpt>
      <trkpt lat="45.84672" lon="4.04804">
        <ele>372</ele>
        <time>2016-04-21T12:47:57Z</time>
      </trkpt>
      <trkpt lat="45.84623" lon="4.04853">
        <ele>369</ele>
        <time>2016-04-21T12:48:56Z</time>
      </trkpt>
      <trkpt lat="45.84619" lon="4.04857">
        <ele>369</ele>
        <time>2016-04-21T12:49:00Z</time>
      </trkpt>
      <trkpt lat="45.84429" lon="4.0506">
        <ele>371</ele>
        <time>2016-04-21T12:53:27Z</time>
      </trkpt>
      <trkpt lat="45.84415" lon="4.05078">
        <ele>371</ele>
        <time>2016-04-21T12:53:58Z</time>
      </trkpt>
      <trkpt lat="45.84373" lon="4.05119">
        <ele>370</ele>
        <time>2016-04-21T12:54:47Z</time>
      </trkpt>
      <trkpt lat="45.84368" lon="4.05115">
        <ele>370</ele>
        <time>2016-04-21T12:55:05Z</time>
      </trkpt>
      <trkpt lat="45.84365" lon="4.05109">
        <ele>370</ele>
        <time>2016-04-21T12:55:10Z</time>
      </trkpt>
      <trkpt lat="45.84343" lon="4.05076">
        <ele>369</ele>
        <time>2016-04-21T12:55:40Z</time>
      </trkpt>
      <trkpt lat="45.84314" lon="4.05048">
        <ele>369</ele>
        <time>2016-04-21T12:56:11Z</time>
      </trkpt>
      <trkpt lat="45.843" lon="4.05039">
        <ele>369</ele>
        <time>2016-04-21T12:56:26Z</time>
      </trkpt>
      <trkpt lat="45.84282" lon="4.05017">
        <ele>369</ele>
        <time>2016-04-21T12:57:13Z</time>
      </trkpt>
      <trkpt lat="45.84279" lon="4.05016">
        <ele>368</ele>
        <time>2016-04-21T12:58:40Z</time>
      </trkpt>
      <trkpt lat="45.84275" lon="4.05014">
        <ele>366</ele>
        <time>2016-04-21T12:59:53Z</time>
      </trkpt>
      <trkpt lat="45.84269" lon="4.05003">
        <ele>365</ele>
        <time>2016-04-21T13:00:03Z</time>
      </trkpt>
      <trkpt lat="45.84248" lon="4.0498">
        <ele>366</ele>
        <time>2016-04-21T13:00:29Z</time>
      </trkpt>
      <trkpt lat="45.84245" lon="4.04976">
        <ele>367</ele>
        <time>2016-04-21T13:01:04Z</time>
      </trkpt>
      <trkpt lat="45.84241" lon="4.04974">
        <ele>367</ele>
        <time>2016-04-21T13:01:10Z</time>
      </trkpt>
      <trkpt lat="45.84236" lon="4.04972">
        <ele>367</ele>
        <time>2016-04-21T13:01:14Z</time>
      </trkpt>
      <trkpt lat="45.84208" lon="4.04959">
        <ele>366</ele>
        <time>2016-04-21T13:01:48Z</time>
      </trkpt>
      <trkpt lat="45.84172" lon="4.04958">
        <ele>366</ele>
        <time>2016-04-21T13:02:23Z</time>
      </trkpt>
      <trkpt lat="45.84136" lon="4.04963">
        <ele>367</ele>
        <time>2016-04-21T13:02:55Z</time>
      </trkpt>
      <trkpt lat="45.84131" lon="4.04962">
        <ele>367</ele>
        <time>2016-04-21T13:03:00Z</time>
      </trkpt>
      <trkpt lat="45.84127" lon="4.04958">
        <ele>367</ele>
        <time>2016-04-21T13:03:05Z</time>
      </trkpt>
      <trkpt lat="45.84107" lon="4.04926">
        <ele>368</ele>
        <time>2016-04-21T13:03:37Z</time>
      </trkpt>
      <trkpt lat="45.84087" lon="4.04885">
        <ele>368</ele>
        <time>2016-04-21T13:04:10Z</time>
      </trkpt>
      <trkpt lat="45.84056" lon="4.04862">
        <ele>368</ele>
        <time>2016-04-21T13:04:43Z</time>
      </trkpt>
      <trkpt lat="45.84051" lon="4.04861">
        <ele>367</ele>
        <time>2016-04-21T13:04:47Z</time>
      </trkpt>
      <trkpt lat="45.84021" lon="4.04867">
        <ele>367</ele>
        <time>2016-04-21T13:05:13Z</time>
      </trkpt>
      <trkpt lat="45.83991" lon="4.0488">
        <ele>365</ele>
        <time>2016-04-21T13:05:44Z</time>
      </trkpt>
      <trkpt lat="45.83973" lon="4.04892">
        <ele>364</ele>
        <time>2016-04-21T13:06:04Z</time>
      </trkpt>
      <trkpt lat="45.83943" lon="4.04917">
        <ele>364</ele>
        <time>2016-04-21T13:06:35Z</time>
      </trkpt>
      <trkpt lat="45.8394" lon="4.04923">
        <ele>364</ele>
        <time>2016-04-21T13:06:40Z</time>
      </trkpt>
      <trkpt lat="45.83936" lon="4.04937">
        <ele>364</ele>
        <time>2016-04-21T13:06:50Z</time>
      </trkpt>
      <trkpt lat="45.83936" lon="4.04944">
        <ele>364</ele>
        <time>2016-04-21T13:06:55Z</time>
      </trkpt>
      <trkpt lat="45.83929" lon="4.04954">
        <ele>364</ele>
        <time>2016-04-21T13:07:05Z</time>
      </trkpt>
      <trkpt lat="45.83902" lon="4.0498">
        <ele>364</ele>
        <time>2016-04-21T13:07:38Z</time>
      </trkpt>
      <trkpt lat="45.83868" lon="4.04988">
        <ele>363</ele>
        <time>2016-04-21T13:08:13Z</time>
      </trkpt>
      <trkpt lat="45.83837" lon="4.05011">
        <ele>362</ele>
        <time>2016-04-21T13:08:45Z</time>
      </trkpt>
      <trkpt lat="45.83589" lon="4.05206">
        <ele>360</ele>
        <time>2016-04-21T13:13:11Z</time>
      </trkpt>
      <trkpt lat="45.83393" lon="4.05329">
        <ele>360</ele>
        <time>2016-04-21T13:16:46Z</time>
      </trkpt>
      <trkpt lat="45.8334" lon="4.05374">
        <ele>358</ele>
        <time>2016-04-21T13:17:43Z</time>
      </trkpt>
      <trkpt lat="45.83327" lon="4.05383">
        <ele>357</ele>
        <time>2016-04-21T13:17:58Z</time>
      </trkpt>
      <trkpt lat="45.83303" lon="4.05405">
        <ele>356</ele>
        <time>2016-04-21T13:18:32Z</time>
      </trkpt>
      <trkpt lat="45.83282" lon="4.05443">
        <ele>356</ele>
        <time>2016-04-21T13:19:04Z</time>
      </trkpt>
      <trkpt lat="45.83273" lon="4.05452">
        <ele>356</ele>
        <time>2016-04-21T13:19:14Z</time>
      </trkpt>
      <trkpt lat="45.83271" lon="4.05457">
        <ele>356</ele>
        <time>2016-04-21T13:19:18Z</time>
      </trkpt>
      <trkpt lat="45.83268" lon="4.05484">
        <ele>356</ele>
        <time>2016-04-21T13:19:35Z</time>
      </trkpt>
      <trkpt lat="45.83265" lon="4.0549">
        <ele>356</ele>
        <time>2016-04-21T13:19:40Z</time>
      </trkpt>
      <trkpt lat="45.83262" lon="4.05504">
        <ele>356</ele>
        <time>2016-04-21T13:19:49Z</time>
      </trkpt>
      <trkpt lat="45.83205" lon="4.05657">
        <ele>357</ele>
        <time>2016-04-21T13:21:40Z</time>
      </trkpt>
      <trkpt lat="45.83201" lon="4.05661">
        <ele>357</ele>
        <time>2016-04-21T13:21:58Z</time>
      </trkpt>
      <trkpt lat="45.83145" lon="4.05796">
        <ele>358</ele>
        <time>2016-04-21T13:23:42Z</time>
      </trkpt>
      <trkpt lat="45.83131" lon="4.05847">
        <ele>358</ele>
        <time>2016-04-21T13:24:23Z</time>
      </trkpt>
      <trkpt lat="45.83083" lon="4.06087">
        <ele>363</ele>
        <time>2016-04-21T13:27:14Z</time>
      </trkpt>
      <trkpt lat="45.83081" lon="4.06093">
        <ele>363</ele>
        <time>2016-04-21T13:27:19Z</time>
      </trkpt>
      <trkpt lat="45.83073" lon="4.06103">
        <ele>363</ele>
        <time>2016-04-21T13:27:31Z</time>
      </trkpt>
      <trkpt lat="45.83052" lon="4.06169">
        <ele>363</ele>
        <time>2016-04-21T13:28:21Z</time>
      </trkpt>
      <trkpt lat="45.83052" lon="4.06177">
        <ele>363</ele>
        <time>2016-04-21T13:28:27Z</time>
      </trkpt>
      <trkpt lat="45.8305" lon="4.0619">
        <ele>363</ele>
        <time>2016-04-21T13:28:38Z</time>
      </trkpt>
      <trkpt lat="45.83007" lon="4.06243">
        <ele>360</ele>
        <time>2016-04-21T13:29:46Z</time>
      </trkpt>
      <trkpt lat="45.83006" lon="4.06247">
        <ele>360</ele>
        <time>2016-04-21T13:29:59Z</time>
      </trkpt>
      <trkpt lat="45.83002" lon="4.06251">
        <ele>360</ele>
        <time>2016-04-21T13:30:04Z</time>
      </trkpt>
      <trkpt lat="45.82984" lon="4.06276">
        <ele>359</ele>
        <time>2016-04-21T13:30:33Z</time>
      </trkpt>
      <trkpt lat="45.82957" lon="4.06337">
        <ele>358</ele>
        <time>2016-04-21T13:31:39Z</time>
      </trkpt>
      <trkpt lat="45.82953" lon="4.0634">
        <ele>358</ele>
        <time>2016-04-21T13:31:44Z</time>
      </trkpt>
      <trkpt lat="45.82923" lon="4.06342">
        <ele>356</ele>
        <time>2016-04-21T13:32:15Z</time>
      </trkpt>
      <trkpt lat="45.82918" lon="4.06344">
        <ele>355</ele>
        <time>2016-04-21T13:32:20Z</time>
      </trkpt>
      <trkpt lat="45.82913" lon="4.06345">
        <ele>355</ele>
        <time>2016-04-21T13:32:25Z</time>
      </trkpt>
      <trkpt lat="45.82905" lon="4.06351">
        <ele>355</ele>
        <time>2016-04-21T13:32:36Z</time>
      </trkpt>
      <trkpt lat="45.82902" lon="4.06351">
        <ele>355</ele>
        <time>2016-04-21T13:33:19Z</time>
      </trkpt>
      <trkpt lat="45.829" lon="4.06353">
        <ele>355</ele>
        <time>2016-04-21T13:34:39Z</time>
      </trkpt>
      <trkpt lat="45.82901" lon="4.06358">
        <ele>355</ele>
        <time>2016-04-21T13:34:47Z</time>
      </trkpt>
      <trkpt lat="45.82902" lon="4.06361">
        <ele>355</ele>
        <time>2016-04-21T13:34:53Z</time>
      </trkpt>
      <trkpt lat="45.82903" lon="4.06366">
        <ele>356</ele>
        <time>2016-04-21T13:35:14Z</time>
      </trkpt>
      <trkpt lat="45.82905" lon="4.06366">
        <ele>356</ele>
        <time>2016-04-21T13:35:51Z</time>
      </trkpt>
      <trkpt lat="45.82906" lon="4.06359">
        <ele>357</ele>
        <time>2016-04-21T13:36:15Z</time>
      </trkpt>
      <trkpt lat="45.82906" lon="4.06354">
        <ele>357</ele>
        <time>2016-04-21T13:36:22Z</time>
      </trkpt>
      <trkpt lat="45.8291" lon="4.06354">
        <ele>356</ele>
        <time>2016-04-21T13:37:10Z</time>
      </trkpt>
      <trkpt lat="45.82906" lon="4.06362">
        <ele>356</ele>
        <time>2016-04-21T13:37:20Z</time>
      </trkpt>
      <trkpt lat="45.82903" lon="4.06374">
        <ele>357</ele>
        <time>2016-04-21T13:37:28Z</time>
      </trkpt>
      <trkpt lat="45.82907" lon="4.06384">
        <ele>357</ele>
        <time>2016-04-21T13:37:31Z</time>
      </trkpt>
      <trkpt lat="45.82907" lon="4.06389">
        <ele>357</ele>
        <time>2016-04-21T13:37:44Z</time>
      </trkpt>
      <trkpt lat="45.82906" lon="4.06386">
        <ele>358</ele>
        <time>2016-04-21T13:38:33Z</time>
      </trkpt>
      <trkpt lat="45.8291" lon="4.06384">
        <ele>358</ele>
        <time>2016-04-21T13:38:40Z</time>
      </trkpt>
      <trkpt lat="45.82915" lon="4.06386">
        <ele>358</ele>
        <time>2016-04-21T13:38:47Z</time>
      </trkpt>
      <trkpt lat="45.82918" lon="4.06388">
        <ele>358</ele>
        <time>2016-04-21T13:38:54Z</time>
      </trkpt>
      <trkpt lat="45.82917" lon="4.06396">
        <ele>359</ele>
        <time>2016-04-21T13:39:04Z</time>
      </trkpt>
      <trkpt lat="45.8292" lon="4.06413">
        <ele>360</ele>
        <time>2016-04-21T13:39:19Z</time>
      </trkpt>
      <trkpt lat="45.82919" lon="4.06439">
        <ele>357</ele>
        <time>2016-04-21T13:39:50Z</time>
      </trkpt>
      <trkpt lat="45.82909" lon="4.0646">
        <ele>352</ele>
        <time>2016-04-21T14:47:39Z</time>
      </trkpt>
      <trkpt lat="45.82916" lon="4.06463">
        <ele>351</ele>
        <time>2016-04-21T14:47:42Z</time>
      </trkpt>
      <trkpt lat="45.82427" lon="4.06785">
        <ele>338</ele>
        <time>2016-04-22T06:22:44Z</time>
      </trkpt>
      <trkpt lat="45.82422" lon="4.06784">
        <ele>338</ele>
        <time>2016-04-22T06:22:53Z</time>
      </trkpt>
      <trkpt lat="45.82413" lon="4.06778">
        <ele>337</ele>
        <time>2016-04-22T06:23:00Z</time>
      </trkpt>
      <trkpt lat="45.82404" lon="4.06786">
        <ele>338</ele>
        <time>2016-04-22T06:23:09Z</time>
      </trkpt>
      <trkpt lat="45.82388" lon="4.06803">
        <ele>338</ele>
        <time>2016-04-22T06:23:24Z</time>
      </trkpt>
      <trkpt lat="45.82291" lon="4.06878">
        <ele>341</ele>
        <time>2016-04-22T06:25:02Z</time>
      </trkpt>
      <trkpt lat="45.82254" lon="4.06896">
        <ele>340</ele>
        <time>2016-04-22T06:25:35Z</time>
      </trkpt>
      <trkpt lat="45.82236" lon="4.06892">
        <ele>341</ele>
        <time>2016-04-22T06:25:53Z</time>
      </trkpt>
      <trkpt lat="45.82232" lon="4.06893">
        <ele>342</ele>
        <time>2016-04-22T06:26:05Z</time>
      </trkpt>
      <trkpt lat="45.82182" lon="4.06886">
        <ele>341</ele>
        <time>2016-04-22T06:26:45Z</time>
      </trkpt>
      <trkpt lat="45.82068" lon="4.06881">
        <ele>343</ele>
        <time>2016-04-22T06:28:27Z</time>
      </trkpt>
      <trkpt lat="45.8205" lon="4.06886">
        <ele>344</ele>
        <time>2016-04-22T06:28:43Z</time>
      </trkpt>
      <trkpt lat="45.82035" lon="4.06916">
        <ele>344</ele>
        <time>2016-04-22T06:29:03Z</time>
      </trkpt>
      <trkpt lat="45.82018" lon="4.06968">
        <ele>344</ele>
        <time>2016-04-22T06:29:37Z</time>
      </trkpt>
      <trkpt lat="45.8201" lon="4.06985">
        <ele>344</ele>
        <time>2016-04-22T06:29:50Z</time>
      </trkpt>
      <trkpt lat="45.81593" lon="4.07307">
        <ele>349</ele>
        <time>2016-04-22T06:36:33Z</time>
      </trkpt>
      <trkpt lat="45.81588" lon="4.07309">
        <ele>348</ele>
        <time>2016-04-22T06:36:39Z</time>
      </trkpt>
      <trkpt lat="45.81584" lon="4.07312">
        <ele>348</ele>
        <time>2016-04-22T06:36:44Z</time>
      </trkpt>
      <trkpt lat="45.81389" lon="4.07464">
        <ele>354</ele>
        <time>2016-04-22T06:40:01Z</time>
      </trkpt>
      <trkpt lat="45.81383" lon="4.07464">
        <ele>354</ele>
        <time>2016-04-22T06:40:06Z</time>
      </trkpt>
      <trkpt lat="45.8138" lon="4.07457">
        <ele>353</ele>
        <time>2016-04-22T06:40:10Z</time>
      </trkpt>
      <trkpt lat="45.81367" lon="4.07372">
        <ele>349</ele>
        <time>2016-04-22T06:40:56Z</time>
      </trkpt>
      <trkpt lat="45.81361" lon="4.0736">
        <ele>348</ele>
        <time>2016-04-22T06:41:07Z</time>
      </trkpt>
      <trkpt lat="45.81338" lon="4.07324">
        <ele>348</ele>
        <time>2016-04-22T06:41:38Z</time>
      </trkpt>
      <trkpt lat="45.81282" lon="4.07198">
        <ele>350</ele>
        <time>2016-04-22T06:43:08Z</time>
      </trkpt>
      <trkpt lat="45.81253" lon="4.07164">
        <ele>350</ele>
        <time>2016-04-22T06:43:40Z</time>
      </trkpt>
      <trkpt lat="45.81218" lon="4.07138">
        <ele>351</ele>
        <time>2016-04-22T06:44:12Z</time>
      </trkpt>
      <trkpt lat="45.81186" lon="4.07107">
        <ele>351</ele>
        <time>2016-04-22T06:44:45Z</time>
      </trkpt>
      <trkpt lat="45.81011" lon="4.06901">
        <ele>354</ele>
        <time>2016-04-22T06:48:02Z</time>
      </trkpt>
      <trkpt lat="45.80983" lon="4.06872">
        <ele>355</ele>
        <time>2016-04-22T06:48:33Z</time>
      </trkpt>
      <trkpt lat="45.80953" lon="4.06847">
        <ele>355</ele>
        <time>2016-04-22T06:49:04Z</time>
      </trkpt>
      <trkpt lat="45.80881" lon="4.06798">
        <ele>355</ele>
        <time>2016-04-22T06:50:14Z</time>
      </trkpt>
      <trkpt lat="45.80824" lon="4.06736">
        <ele>354</ele>
        <time>2016-04-22T06:51:30Z</time>
      </trkpt>
      <trkpt lat="45.80821" lon="4.0673">
        <ele>353</ele>
        <time>2016-04-22T06:51:57Z</time>
      </trkpt>
      <trkpt lat="45.80817" lon="4.06725">
        <ele>354</ele>
        <time>2016-04-22T06:52:01Z</time>
      </trkpt>
      <trkpt lat="45.80797" lon="4.06703">
        <ele>353</ele>
        <time>2016-04-22T06:52:21Z</time>
      </trkpt>
      <trkpt lat="45.80764" lon="4.06648">
        <ele>351</ele>
        <time>2016-04-22T06:53:04Z</time>
      </trkpt>
      <trkpt lat="45.80759" lon="4.06644">
        <ele>351</ele>
        <time>2016-04-22T06:53:09Z</time>
      </trkpt>
      <trkpt lat="45.80686" lon="4.06678">
        <ele>353</ele>
        <time>2016-04-22T06:54:18Z</time>
      </trkpt>
      <trkpt lat="45.80665" lon="4.0669">
        <ele>354</ele>
        <time>2016-04-22T06:54:35Z</time>
      </trkpt>
      <trkpt lat="45.80637" lon="4.06702">
        <ele>353</ele>
        <time>2016-04-22T06:55:00Z</time>
      </trkpt>
      <trkpt lat="45.80599" lon="4.06723">
        <ele>353</ele>
        <time>2016-04-22T06:55:33Z</time>
      </trkpt>
      <trkpt lat="45.80595" lon="4.06725">
        <ele>354</ele>
        <time>2016-04-22T06:55:37Z</time>
      </trkpt>
      <trkpt lat="45.80337" lon="4.06857">
        <ele>354</ele>
        <time>2016-04-22T06:59:27Z</time>
      </trkpt>
      <trkpt lat="45.80322" lon="4.06861">
        <ele>353</ele>
        <time>2016-04-22T06:59:40Z</time>
      </trkpt>
      <trkpt lat="45.80307" lon="4.06854">
        <ele>352</ele>
        <time>2016-04-22T06:59:52Z</time>
      </trkpt>
      <trkpt lat="45.80272" lon="4.06791">
        <ele>353</ele>
        <time>2016-04-22T07:00:40Z</time>
      </trkpt>
      <trkpt lat="45.80258" lon="4.06788">
        <ele>353</ele>
        <time>2016-04-22T07:00:55Z</time>
      </trkpt>
      <trkpt lat="45.80253" lon="4.06788">
        <ele>353</ele>
        <time>2016-04-22T07:01:00Z</time>
      </trkpt>
      <trkpt lat="45.80233" lon="4.0678">
        <ele>352</ele>
        <time>2016-04-22T07:01:16Z</time>
      </trkpt>
      <trkpt lat="45.80226" lon="4.0677">
        <ele>352</ele>
        <time>2016-04-22T07:01:24Z</time>
      </trkpt>
      <trkpt lat="45.80206" lon="4.06614">
        <ele>350</ele>
        <time>2016-04-22T07:02:58Z</time>
      </trkpt>
      <trkpt lat="45.80197" lon="4.06584">
        <ele>350</ele>
        <time>2016-04-22T07:03:18Z</time>
      </trkpt>
      <trkpt lat="45.80188" lon="4.06534">
        <ele>349</ele>
        <time>2016-04-22T07:03:50Z</time>
      </trkpt>
      <trkpt lat="45.80176" lon="4.06356">
        <ele>347</ele>
        <time>2016-04-22T07:05:48Z</time>
      </trkpt>
      <trkpt lat="45.80174" lon="4.06347">
        <ele>348</ele>
        <time>2016-04-22T07:06:21Z</time>
      </trkpt>
      <trkpt lat="45.80169" lon="4.06263">
        <ele>350</ele>
        <time>2016-04-22T07:07:13Z</time>
      </trkpt>
      <trkpt lat="45.8017" lon="4.06257">
        <ele>350</ele>
        <time>2016-04-22T07:07:17Z</time>
      </trkpt>
      <trkpt lat="45.80173" lon="4.06202">
        <ele>348</ele>
        <time>2016-04-22T07:07:51Z</time>
      </trkpt>
      <trkpt lat="45.8017" lon="4.0618">
        <ele>348</ele>
        <time>2016-04-22T07:08:05Z</time>
      </trkpt>
      <trkpt lat="45.80165" lon="4.06162">
        <ele>348</ele>
        <time>2016-04-22T07:08:49Z</time>
      </trkpt>
      <trkpt lat="45.80163" lon="4.06159">
        <ele>349</ele>
        <time>2016-04-22T07:08:56Z</time>
      </trkpt>
      <trkpt lat="45.80159" lon="4.06133">
        <ele>349</ele>
        <time>2016-04-22T07:09:31Z</time>
      </trkpt>
      <trkpt lat="45.80157" lon="4.06126">
        <ele>349</ele>
        <time>2016-04-22T07:09:35Z</time>
      </trkpt>
      <trkpt lat="45.80122" lon="4.05915">
        <ele>349</ele>
        <time>2016-04-22T07:11:54Z</time>
      </trkpt>
      <trkpt lat="45.80035" lon="4.05583">
        <ele>353</ele>
        <time>2016-04-22T07:15:40Z</time>
      </trkpt>
      <trkpt lat="45.79999" lon="4.05342">
        <ele>353</ele>
        <time>2016-04-22T07:18:50Z</time>
      </trkpt>
      <trkpt lat="45.79987" lon="4.05124">
        <ele>356</ele>
        <time>2016-04-22T07:21:09Z</time>
      </trkpt>
      <trkpt lat="45.79987" lon="4.05109">
        <ele>356</ele>
        <time>2016-04-22T07:21:17Z</time>
      </trkpt>
      <trkpt lat="45.80025" lon="4.04793">
        <ele>360</ele>
        <time>2016-04-22T07:24:13Z</time>
      </trkpt>
      <trkpt lat="45.80024" lon="4.04775">
        <ele>359</ele>
        <time>2016-04-22T07:24:27Z</time>
      </trkpt>
      <trkpt lat="45.79998" lon="4.04741">
        <ele>359</ele>
        <time>2016-04-22T07:24:57Z</time>
      </trkpt>
      <trkpt lat="45.79907" lon="4.04653">
        <ele>358</ele>
        <time>2016-04-22T07:26:30Z</time>
      </trkpt>
      <trkpt lat="45.79878" lon="4.04613">
        <ele>358</ele>
        <time>2016-04-22T07:27:03Z</time>
      </trkpt>
      <trkpt lat="45.79853" lon="4.04567">
        <ele>358</ele>
        <time>2016-04-22T07:27:36Z</time>
      </trkpt>
      <trkpt lat="45.7982" lon="4.04467">
        <ele>358</ele>
        <time>2016-04-22T07:28:42Z</time>
      </trkpt>
      <trkpt lat="45.798" lon="4.04423">
        <ele>360</ele>
        <time>2016-04-22T07:29:15Z</time>
      </trkpt>
      <trkpt lat="45.79798" lon="4.04417">
        <ele>360</ele>
        <time>2016-04-22T07:29:20Z</time>
      </trkpt>
      <trkpt lat="45.79693" lon="4.04325">
        <ele>359</ele>
        <time>2016-04-22T07:31:12Z</time>
      </trkpt>
      <trkpt lat="45.79596" lon="4.04192">
        <ele>360</ele>
        <time>2016-04-22T07:33:09Z</time>
      </trkpt>
      <trkpt lat="45.79581" lon="4.04165">
        <ele>360</ele>
        <time>2016-04-22T07:33:33Z</time>
      </trkpt>
      <trkpt lat="45.79476" lon="4.03928">
        <ele>365</ele>
        <time>2016-04-22T07:36:28Z</time>
      </trkpt>
      <trkpt lat="45.79474" lon="4.0392">
        <ele>366</ele>
        <time>2016-04-22T07:37:01Z</time>
      </trkpt>
      <trkpt lat="45.7947" lon="4.03907">
        <ele>367</ele>
        <time>2016-04-22T07:37:11Z</time>
      </trkpt>
      <trkpt lat="45.79468" lon="4.03905">
        <ele>367</ele>
        <time>2016-04-22T07:37:17Z</time>
      </trkpt>
      <trkpt lat="45.79463" lon="4.03903">
        <ele>366</ele>
        <time>2016-04-22T07:37:32Z</time>
      </trkpt>
      <trkpt lat="45.79463" lon="4.03897">
        <ele>367</ele>
        <time>2016-04-22T07:38:06Z</time>
      </trkpt>
      <trkpt lat="45.79468" lon="4.03886">
        <ele>368</ele>
        <time>2016-04-22T07:38:16Z</time>
      </trkpt>
      <trkpt lat="45.79478" lon="4.03846">
        <ele>368</ele>
        <time>2016-04-22T07:38:45Z</time>
      </trkpt>
      <trkpt lat="45.79497" lon="4.03494">
        <ele>375</ele>
        <time>2016-04-22T07:42:24Z</time>
      </trkpt>
      <trkpt lat="45.795" lon="4.03496">
        <ele>375</ele>
        <time>2016-04-22T07:42:35Z</time>
      </trkpt>
      <trkpt lat="45.79494" lon="4.03492">
        <ele>377</ele>
        <time>2016-04-22T07:48:54Z</time>
      </trkpt>
      <trkpt lat="45.79488" lon="4.03491">
        <ele>378</ele>
        <time>2016-04-22T07:48:59Z</time>
      </trkpt>
      <trkpt lat="45.79485" lon="4.03486">
        <ele>379</ele>
        <time>2016-04-22T07:49:06Z</time>
      </trkpt>
      <trkpt lat="45.7948" lon="4.03485">
        <ele>379</ele>
        <time>2016-04-22T07:49:13Z</time>
      </trkpt>
      <trkpt lat="45.79475" lon="4.03488">
        <ele>379</ele>
        <time>2016-04-22T07:49:24Z</time>
      </trkpt>
      <trkpt lat="45.79456" lon="4.03491">
        <ele>379</ele>
        <time>2016-04-22T07:49:45Z</time>
      </trkpt>
      <trkpt lat="45.79446" lon="4.03487">
        <ele>379</ele>
        <time>2016-04-22T07:49:54Z</time>
      </trkpt>
      <trkpt lat="45.79441" lon="4.03485">
        <ele>380</ele>
        <time>2016-04-22T07:49:58Z</time>
      </trkpt>
      <trkpt lat="45.79437" lon="4.0348">
        <ele>380</ele>
        <time>2016-04-22T07:50:02Z</time>
      </trkpt>
      <trkpt lat="45.79432" lon="4.03468">
        <ele>380</ele>
        <time>2016-04-22T07:50:10Z</time>
      </trkpt>
      <trkpt lat="45.79436" lon="4.03463">
        <ele>381</ele>
        <time>2016-04-22T07:50:25Z</time>
      </trkpt>
      <trkpt lat="45.7944" lon="4.03453">
        <ele>380</ele>
        <time>2016-04-22T07:58:58Z</time>
      </trkpt>
      <trkpt lat="45.79435" lon="4.0344">
        <ele>380</ele>
        <time>2016-04-22T07:59:13Z</time>
      </trkpt>
      <trkpt lat="45.79446" lon="4.03438">
        <ele>381</ele>
        <time>2016-04-22T07:59:48Z</time>
      </trkpt>
      <trkpt lat="45.79437" lon="4.03425">
        <ele>382</ele>
        <time>2016-04-22T08:01:20Z</time>
      </trkpt>
      <trkpt lat="45.79435" lon="4.03418">
        <ele>382</ele>
        <time>2016-04-22T08:02:36Z</time>
      </trkpt>
      <trkpt lat="45.79426" lon="4.03423">
        <ele>382</ele>
        <time>2016-04-22T08:03:29Z</time>
      </trkpt>
      <trkpt lat="45.79431" lon="4.03435">
        <ele>382</ele>
        <time>2016-04-22T08:03:37Z</time>
      </trkpt>
      <trkpt lat="45.79429" lon="4.03446">
        <ele>382</ele>
        <time>2016-04-22T08:04:18Z</time>
      </trkpt>
      <trkpt lat="45.79425" lon="4.03444">
        <ele>382</ele>
        <time>2016-04-22T08:04:24Z</time>
      </trkpt>
      <trkpt lat="45.7942" lon="4.0344">
        <ele>381</ele>
        <time>2016-04-22T08:04:30Z</time>
      </trkpt>
      <trkpt lat="45.79415" lon="4.03439">
        <ele>382</ele>
        <time>2016-04-22T08:04:36Z</time>
      </trkpt>
      <trkpt lat="45.79397" lon="4.03427">
        <ele>381</ele>
        <time>2016-04-22T08:04:56Z</time>
      </trkpt>
      <trkpt lat="45.79386" lon="4.03425">
        <ele>381</ele>
        <time>2016-04-22T08:05:07Z</time>
      </trkpt>
      <trkpt lat="45.79372" lon="4.03405">
        <ele>384</ele>
        <time>2016-04-22T08:05:26Z</time>
      </trkpt>
      <trkpt lat="45.79369" lon="4.03399">
        <ele>384</ele>
        <time>2016-04-22T08:05:30Z</time>
      </trkpt>
      <trkpt lat="45.79339" lon="4.0336">
        <ele>384</ele>
        <time>2016-04-22T08:06:05Z</time>
      </trkpt>
      <trkpt lat="45.79337" lon="4.03354">
        <ele>382</ele>
        <time>2016-04-22T08:06:13Z</time>
      </trkpt>
      <trkpt lat="45.79326" lon="4.0334">
        <ele>380</ele>
        <time>2016-04-22T08:06:25Z</time>
      </trkpt>
      <trkpt lat="45.79328" lon="4.03336">
        <ele>381</ele>
        <time>2016-04-22T08:06:51Z</time>
      </trkpt>
      <trkpt lat="45.79324" lon="4.03332">
        <ele>382</ele>
        <time>2016-04-22T08:07:04Z</time>
      </trkpt>
      <trkpt lat="45.79323" lon="4.03326">
        <ele>383</ele>
        <time>2016-04-22T08:07:14Z</time>
      </trkpt>
      <trkpt lat="45.79325" lon="4.03291">
        <ele>385</ele>
        <time>2016-04-22T08:07:39Z</time>
      </trkpt>
      <trkpt lat="45.79329" lon="4.03286">
        <ele>385</ele>
        <time>2016-04-22T08:07:44Z</time>
      </trkpt>
      <trkpt lat="45.79333" lon="4.03286">
        <ele>383</ele>
        <time>2016-04-22T08:07:54Z</time>
      </trkpt>
      <trkpt lat="45.79334" lon="4.03293">
        <ele>383</ele>
        <time>2016-04-22T08:08:01Z</time>
      </trkpt>
      <trkpt lat="45.79336" lon="4.03301">
        <ele>380</ele>
        <time>2016-04-22T08:08:40Z</time>
      </trkpt>
      <trkpt lat="45.79334" lon="4.0329">
        <ele>379</ele>
        <time>2016-04-22T08:11:28Z</time>
      </trkpt>
      <trkpt lat="45.7933" lon="4.03294">
        <ele>379</ele>
        <time>2016-04-22T08:11:34Z</time>
      </trkpt>
      <trkpt lat="45.79324" lon="4.03304">
        <ele>381</ele>
        <time>2016-04-22T08:11:46Z</time>
      </trkpt>
      <trkpt lat="45.79325" lon="4.03312">
        <ele>381</ele>
        <time>2016-04-22T08:11:52Z</time>
      </trkpt>
      <trkpt lat="45.79325" lon="4.03319">
        <ele>381</ele>
        <time>2016-04-22T08:11:57Z</time>
      </trkpt>
      <trkpt lat="45.79327" lon="4.03325">
        <ele>381</ele>
        <time>2016-04-22T08:12:02Z</time>
      </trkpt>
      <trkpt lat="45.79324" lon="4.0333">
        <ele>381</ele>
        <time>2016-04-22T08:12:14Z</time>
      </trkpt>
      <trkpt lat="45.79311" lon="4.03325">
        <ele>383</ele>
        <time>2016-04-22T08:13:06Z</time>
      </trkpt>
      <trkpt lat="45.79279" lon="4.03292">
        <ele>384</ele>
        <time>2016-04-22T08:13:38Z</time>
      </trkpt>
      <trkpt lat="45.79206" lon="4.03254">
        <ele>386</ele>
        <time>2016-04-22T08:14:37Z</time>
      </trkpt>
      <trkpt lat="45.79201" lon="4.03251">
        <ele>386</ele>
        <time>2016-04-22T08:14:42Z</time>
      </trkpt>
      <trkpt lat="45.79163" lon="4.03236">
        <ele>386</ele>
        <time>2016-04-22T08:15:15Z</time>
      </trkpt>
      <trkpt lat="45.79134" lon="4.03231">
        <ele>386</ele>
        <time>2016-04-22T08:15:45Z</time>
      </trkpt>
      <trkpt lat="45.79125" lon="4.03236">
        <ele>386</ele>
        <time>2016-04-22T08:15:54Z</time>
      </trkpt>
      <trkpt lat="45.79088" lon="4.03255">
        <ele>386</ele>
        <time>2016-04-22T08:16:27Z</time>
      </trkpt>
      <trkpt lat="45.78974" lon="4.0334">
        <ele>387</ele>
        <time>2016-04-22T08:18:23Z</time>
      </trkpt>
      <trkpt lat="45.78944" lon="4.03355">
        <ele>387</ele>
        <time>2016-04-22T08:18:57Z</time>
      </trkpt>
      <trkpt lat="45.78939" lon="4.03358">
        <ele>388</ele>
        <time>2016-04-22T08:19:03Z</time>
      </trkpt>
      <trkpt lat="45.78904" lon="4.0337">
        <ele>388</ele>
        <time>2016-04-22T08:19:33Z</time>
      </trkpt>
      <trkpt lat="45.78891" lon="4.03378">
        <ele>390</ele>
        <time>2016-04-22T08:19:45Z</time>
      </trkpt>
      <trkpt lat="45.78866" lon="4.0338">
        <ele>390</ele>
        <time>2016-04-22T08:20:06Z</time>
      </trkpt>
      <trkpt lat="45.788" lon="4.03374">
        <ele>393</ele>
        <time>2016-04-22T08:21:00Z</time>
      </trkpt>
      <trkpt lat="45.78785" lon="4.03375">
        <ele>392</ele>
        <time>2016-04-22T08:21:16Z</time>
      </trkpt>
      <trkpt lat="45.78746" lon="4.03367">
        <ele>392</ele>
        <time>2016-04-22T08:21:51Z</time>
      </trkpt>
      <trkpt lat="45.78745" lon="4.03374">
        <ele>392</ele>
        <time>2016-04-22T08:22:00Z</time>
      </trkpt>
      <trkpt lat="45.78745" lon="4.03387">
        <ele>393</ele>
        <time>2016-04-22T08:22:07Z</time>
      </trkpt>
      <trkpt lat="45.78743" lon="4.03382">
        <ele>393</ele>
        <time>2016-04-22T08:23:25Z</time>
      </trkpt>
      <trkpt lat="45.78741" lon="4.03375">
        <ele>393</ele>
        <time>2016-04-22T08:23:29Z</time>
      </trkpt>
      <trkpt lat="45.78736" lon="4.0337">
        <ele>393</ele>
        <time>2016-04-22T08:23:33Z</time>
      </trkpt>
      <trkpt lat="45.78535" lon="4.03358">
        <ele>397</ele>
        <time>2016-04-22T08:26:19Z</time>
      </trkpt>
      <trkpt lat="45.7853" lon="4.03358">
        <ele>397</ele>
        <time>2016-04-22T08:26:23Z</time>
      </trkpt>
      <trkpt lat="45.78415" lon="4.03351">
        <ele>399</ele>
        <time>2016-04-22T08:28:00Z</time>
      </trkpt>
      <trkpt lat="45.7841" lon="4.0335">
        <ele>399</ele>
        <time>2016-04-22T08:28:04Z</time>
      </trkpt>
      <trkpt lat="45.78375" lon="4.03347">
        <ele>399</ele>
        <time>2016-04-22T08:28:35Z</time>
      </trkpt>
      <trkpt lat="45.78367" lon="4.03348">
        <ele>399</ele>
        <time>2016-04-22T08:28:47Z</time>
      </trkpt>
      <trkpt lat="45.78324" lon="4.03345">
        <ele>401</ele>
        <time>2016-04-22T08:29:23Z</time>
      </trkpt>
      <trkpt lat="45.78321" lon="4.03345">
        <ele>400</ele>
        <time>2016-04-22T08:29:31Z</time>
      </trkpt>
      <trkpt lat="45.78317" lon="4.03343">
        <ele>400</ele>
        <time>2016-04-22T08:29:36Z</time>
      </trkpt>
      <trkpt lat="45.77983" lon="4.03325">
        <ele>403</ele>
        <time>2016-04-22T08:34:33Z</time>
      </trkpt>
      <trkpt lat="45.7798" lon="4.0332">
        <ele>403</ele>
        <time>2016-04-22T08:35:03Z</time>
      </trkpt>
      <trkpt lat="45.77936" lon="4.03318">
        <ele>403</ele>
        <time>2016-04-22T08:35:39Z</time>
      </trkpt>
      <trkpt lat="45.77894" lon="4.03315">
        <ele>403</ele>
        <time>2016-04-22T08:36:12Z</time>
      </trkpt>
      <trkpt lat="45.77878" lon="4.03316">
        <ele>403</ele>
        <time>2016-04-22T08:36:25Z</time>
      </trkpt>
      <trkpt lat="45.77855" lon="4.03312">
        <ele>399</ele>
        <time>2016-04-22T08:36:46Z</time>
      </trkpt>
      <trkpt lat="45.77849" lon="4.03314">
        <ele>399</ele>
        <time>2016-04-22T08:37:41Z</time>
      </trkpt>
      <trkpt lat="45.77844" lon="4.03312">
        <ele>400</ele>
        <time>2016-04-22T08:37:45Z</time>
      </trkpt>
      <trkpt lat="45.77819" lon="4.03308">
        <ele>397</ele>
        <time>2016-04-22T08:38:05Z</time>
      </trkpt>
      <trkpt lat="45.77815" lon="4.03305">
        <ele>396</ele>
        <time>2016-04-22T08:38:09Z</time>
      </trkpt>
      <trkpt lat="45.7778" lon="4.03295">
        <ele>397</ele>
        <time>2016-04-22T08:38:40Z</time>
      </trkpt>
      <trkpt lat="45.77651" lon="4.03216">
        <ele>398</ele>
        <time>2016-04-22T08:40:40Z</time>
      </trkpt>
      <trkpt lat="45.77615" lon="4.03204">
        <ele>397</ele>
        <time>2016-04-22T08:41:11Z</time>
      </trkpt>
      <trkpt lat="45.77541" lon="4.03192">
        <ele>399</ele>
        <time>2016-04-22T08:42:15Z</time>
      </trkpt>
      <trkpt lat="45.7754" lon="4.03197">
        <ele>399</ele>
        <time>2016-04-22T08:42:36Z</time>
      </trkpt>
      <trkpt lat="45.77541" lon="4.03201">
        <ele>399</ele>
        <time>2016-04-22T08:42:46Z</time>
      </trkpt>
      <trkpt lat="45.77536" lon="4.03194">
        <ele>399</ele>
        <time>2016-04-22T08:49:09Z</time>
      </trkpt>
      <trkpt lat="45.77527" lon="4.03187">
        <ele>399</ele>
        <time>2016-04-22T08:49:22Z</time>
      </trkpt>
      <trkpt lat="45.77484" lon="4.03168">
        <ele>400</ele>
        <time>2016-04-22T08:50:13Z</time>
      </trkpt>
      <trkpt lat="45.7748" lon="4.03162">
        <ele>400</ele>
        <time>2016-04-22T08:50:19Z</time>
      </trkpt>
      <trkpt lat="45.77477" lon="4.03158">
        <ele>400</ele>
        <time>2016-04-22T08:50:23Z</time>
      </trkpt>
      <trkpt lat="45.77443" lon="4.03141">
        <ele>400</ele>
        <time>2016-04-22T08:50:56Z</time>
      </trkpt>
      <trkpt lat="45.77439" lon="4.03138">
        <ele>401</ele>
        <time>2016-04-22T08:51:02Z</time>
      </trkpt>
      <trkpt lat="45.7743" lon="4.03134">
        <ele>401</ele>
        <time>2016-04-22T08:53:24Z</time>
      </trkpt>
      <trkpt lat="45.77406" lon="4.03133">
        <ele>402</ele>
        <time>2016-04-22T08:53:54Z</time>
      </trkpt>
      <trkpt lat="45.77401" lon="4.0313">
        <ele>403</ele>
        <time>2016-04-22T08:53:59Z</time>
      </trkpt>
      <trkpt lat="45.77399" lon="4.03125">
        <ele>400</ele>
        <time>2016-04-22T08:54:45Z</time>
      </trkpt>
      <trkpt lat="45.77395" lon="4.03121">
        <ele>401</ele>
        <time>2016-04-22T08:56:59Z</time>
      </trkpt>
      <trkpt lat="45.7739" lon="4.03119">
        <ele>401</ele>
        <time>2016-04-22T08:57:04Z</time>
      </trkpt>
      <trkpt lat="45.77386" lon="4.03115">
        <ele>401</ele>
        <time>2016-04-22T08:57:11Z</time>
      </trkpt>
      <trkpt lat="45.77381" lon="4.0312">
        <ele>400</ele>
        <time>2016-04-22T08:57:26Z</time>
      </trkpt>
      <trkpt lat="45.77378" lon="4.03125">
        <ele>399</ele>
        <time>2016-04-22T08:57:36Z</time>
      </trkpt>
      <trkpt lat="45.77379" lon="4.03131">
        <ele>399</ele>
        <time>2016-04-22T08:58:19Z</time>
      </trkpt>
      <trkpt lat="45.77363" lon="4.03179">
        <ele>400</ele>
        <time>2016-04-22T08:59:07Z</time>
      </trkpt>
      <trkpt lat="45.77354" lon="4.03197">
        <ele>400</ele>
        <time>2016-04-22T08:59:20Z</time>
      </trkpt>
      <trkpt lat="45.77341" lon="4.03208">
        <ele>398</ele>
        <time>2016-04-22T08:59:33Z</time>
      </trkpt>
      <trkpt lat="45.77336" lon="4.03209">
        <ele>398</ele>
        <time>2016-04-22T08:59:38Z</time>
      </trkpt>
      <trkpt lat="45.77327" lon="4.03207">
        <ele>398</ele>
        <time>2016-04-22T08:59:46Z</time>
      </trkpt>
      <trkpt lat="45.77303" lon="4.03217">
        <ele>397</ele>
        <time>2016-04-22T09:00:07Z</time>
      </trkpt>
      <trkpt lat="45.77292" lon="4.03232">
        <ele>397</ele>
        <time>2016-04-22T09:00:20Z</time>
      </trkpt>
      <trkpt lat="45.77283" lon="4.03249">
        <ele>396</ele>
        <time>2016-04-22T09:00:36Z</time>
      </trkpt>
      <trkpt lat="45.77279" lon="4.0327">
        <ele>395</ele>
        <time>2016-04-22T09:00:55Z</time>
      </trkpt>
      <trkpt lat="45.77274" lon="4.03273">
        <ele>395</ele>
        <time>2016-04-22T09:01:00Z</time>
      </trkpt>
      <trkpt lat="45.77273" lon="4.03279">
        <ele>395</ele>
        <time>2016-04-22T09:01:04Z</time>
      </trkpt>
      <trkpt lat="45.7727" lon="4.0333">
        <ele>393</ele>
        <time>2016-04-22T09:01:35Z</time>
      </trkpt>
      <trkpt lat="45.77271" lon="4.03366">
        <ele>392</ele>
        <time>2016-04-22T09:01:57Z</time>
      </trkpt>
      <trkpt lat="45.77266" lon="4.03387">
        <ele>393</ele>
        <time>2016-04-22T09:02:10Z</time>
      </trkpt>
      <trkpt lat="45.77259" lon="4.03428">
        <ele>391</ele>
        <time>2016-04-22T09:02:35Z</time>
      </trkpt>
      <trkpt lat="45.77267" lon="4.03449">
        <ele>390</ele>
        <time>2016-04-22T09:02:54Z</time>
      </trkpt>
      <trkpt lat="45.77271" lon="4.03453">
        <ele>390</ele>
        <time>2016-04-22T09:02:58Z</time>
      </trkpt>
      <trkpt lat="45.77275" lon="4.03456">
        <ele>391</ele>
        <time>2016-04-22T09:03:02Z</time>
      </trkpt>
      <trkpt lat="45.7728" lon="4.03459">
        <ele>391</ele>
        <time>2016-04-22T09:03:06Z</time>
      </trkpt>
      <trkpt lat="45.77285" lon="4.03461">
        <ele>389</ele>
        <time>2016-04-22T09:03:10Z</time>
      </trkpt>
      <trkpt lat="45.77294" lon="4.03466">
        <ele>389</ele>
        <time>2016-04-22T09:03:18Z</time>
      </trkpt>
      <trkpt lat="45.77293" lon="4.03473">
        <ele>388</ele>
        <time>2016-04-22T09:03:22Z</time>
      </trkpt>
      <trkpt lat="45.77286" lon="4.03483">
        <ele>388</ele>
        <time>2016-04-22T09:03:30Z</time>
      </trkpt>
      <trkpt lat="45.77236" lon="4.03565">
        <ele>384</ele>
        <time>2016-04-22T09:04:33Z</time>
      </trkpt>
      <trkpt lat="45.77231" lon="4.03568">
        <ele>384</ele>
        <time>2016-04-22T09:04:38Z</time>
      </trkpt>
      <trkpt lat="45.77213" lon="4.03556">
        <ele>383</ele>
        <time>2016-04-22T09:04:55Z</time>
      </trkpt>
      <trkpt lat="45.77151" lon="4.03505">
        <ele>386</ele>
        <time>2016-04-22T09:06:00Z</time>
      </trkpt>
      <trkpt lat="45.77122" lon="4.03493">
        <ele>387</ele>
        <time>2016-04-22T09:06:26Z</time>
      </trkpt>
      <trkpt lat="45.77035" lon="4.03486">
        <ele>386</ele>
        <time>2016-04-22T09:07:42Z</time>
      </trkpt>
      <trkpt lat="45.7703" lon="4.03486">
        <ele>386</ele>
        <time>2016-04-22T09:07:47Z</time>
      </trkpt>
      <trkpt lat="45.77027" lon="4.03483">
        <ele>386</ele>
        <time>2016-04-22T09:07:55Z</time>
      </trkpt>
      <trkpt lat="45.77008" lon="4.03476">
        <ele>387</ele>
        <time>2016-04-22T09:08:43Z</time>
      </trkpt>
      <trkpt lat="45.77003" lon="4.03475">
        <ele>386</ele>
        <time>2016-04-22T09:08:47Z</time>
      </trkpt>
      <trkpt lat="45.76998" lon="4.03475">
        <ele>386</ele>
        <time>2016-04-22T09:08:51Z</time>
      </trkpt>
      <trkpt lat="45.76926" lon="4.03454">
        <ele>387</ele>
        <time>2016-04-22T09:09:55Z</time>
      </trkpt>
      <trkpt lat="45.76911" lon="4.03452">
        <ele>387</ele>
        <time>2016-04-22T09:10:08Z</time>
      </trkpt>
      <trkpt lat="45.76912" lon="4.03445">
        <ele>386</ele>
        <time>2016-04-22T09:10:19Z</time>
      </trkpt>
      <trkpt lat="45.7691" lon="4.03442">
        <ele>386</ele>
        <time>2016-04-22T09:10:36Z</time>
      </trkpt>
      <trkpt lat="45.76906" lon="4.03446">
        <ele>386</ele>
        <time>2016-04-22T09:10:40Z</time>
      </trkpt>
      <trkpt lat="45.76901" lon="4.03447">
        <ele>385</ele>
        <time>2016-04-22T09:10:44Z</time>
      </trkpt>
      <trkpt lat="45.76891" lon="4.03445">
        <ele>384</ele>
        <time>2016-04-22T09:10:52Z</time>
      </trkpt>
      <trkpt lat="45.76859" lon="4.0343">
        <ele>385</ele>
        <time>2016-04-22T09:11:23Z</time>
      </trkpt>
      <trkpt lat="45.76835" lon="4.03422">
        <ele>385</ele>
        <time>2016-04-22T09:11:45Z</time>
      </trkpt>
      <trkpt lat="45.7683" lon="4.03423">
        <ele>385</ele>
        <time>2016-04-22T09:11:51Z</time>
      </trkpt>
      <trkpt lat="45.76827" lon="4.03421">
        <ele>386</ele>
        <time>2016-04-22T09:12:03Z</time>
      </trkpt>
      <trkpt lat="45.76807" lon="4.03418">
        <ele>385</ele>
        <time>2016-04-22T09:12:20Z</time>
      </trkpt>
      <trkpt lat="45.76747" lon="4.03398">
        <ele>386</ele>
        <time>2016-04-22T09:13:09Z</time>
      </trkpt>
      <trkpt lat="45.76545" lon="4.03335">
        <ele>384</ele>
        <time>2016-04-22T09:16:02Z</time>
      </trkpt>
      <trkpt lat="45.76497" lon="4.03324">
        <ele>383</ele>
        <time>2016-04-22T09:16:43Z</time>
      </trkpt>
      <trkpt lat="45.76467" lon="4.03333">
        <ele>381</ele>
        <time>2016-04-22T09:17:08Z</time>
      </trkpt>
      <trkpt lat="45.76222" lon="4.03461">
        <ele>377</ele>
        <time>2016-04-22T09:20:48Z</time>
      </trkpt>
      <trkpt lat="45.76208" lon="4.03464">
        <ele>375</ele>
        <time>2016-04-22T09:21:03Z</time>
      </trkpt>
      <trkpt lat="45.76184" lon="4.03476">
        <ele>375</ele>
        <time>2016-04-22T09:21:24Z</time>
      </trkpt>
      <trkpt lat="45.76179" lon="4.03478">
        <ele>375</ele>
        <time>2016-04-22T09:21:29Z</time>
      </trkpt>
      <trkpt lat="45.76164" lon="4.03484">
        <ele>374</ele>
        <time>2016-04-22T09:21:42Z</time>
      </trkpt>
      <trkpt lat="45.7616" lon="4.03487">
        <ele>375</ele>
        <time>2016-04-22T09:21:46Z</time>
      </trkpt>
      <trkpt lat="45.76041" lon="4.03553">
        <ele>373</ele>
        <time>2016-04-22T09:23:29Z</time>
      </trkpt>
      <trkpt lat="45.76019" lon="4.03561">
        <ele>376</ele>
        <time>2016-04-22T09:23:48Z</time>
      </trkpt>
      <trkpt lat="45.76005" lon="4.03568">
        <ele>376</ele>
        <time>2016-04-22T09:24:06Z</time>
      </trkpt>
      <trkpt lat="45.75982" lon="4.03582">
        <ele>376</ele>
        <time>2016-04-22T09:24:36Z</time>
      </trkpt>
      <trkpt lat="45.75972" lon="4.03589">
        <ele>376</ele>
        <time>2016-04-22T09:24:43Z</time>
      </trkpt>
      <trkpt lat="45.75691" lon="4.0373">
        <ele>371</ele>
        <time>2016-04-22T09:28:49Z</time>
      </trkpt>
      <trkpt lat="45.75677" lon="4.03736">
        <ele>370</ele>
        <time>2016-04-22T09:29:02Z</time>
      </trkpt>
      <trkpt lat="45.75639" lon="4.03756">
        <ele>370</ele>
        <time>2016-04-22T09:29:33Z</time>
      </trkpt>
      <trkpt lat="45.75629" lon="4.03758">
        <ele>370</ele>
        <time>2016-04-22T09:29:44Z</time>
      </trkpt>
      <trkpt lat="45.75582" lon="4.03785">
        <ele>369</ele>
        <time>2016-04-22T09:30:26Z</time>
      </trkpt>
      <trkpt lat="45.75567" lon="4.0379">
        <ele>368</ele>
        <time>2016-04-22T09:30:41Z</time>
      </trkpt>
      <trkpt lat="45.75473" lon="4.03837">
        <ele>367</ele>
        <time>2016-04-22T09:32:22Z</time>
      </trkpt>
      <trkpt lat="45.75464" lon="4.03843">
        <ele>367</ele>
        <time>2016-04-22T09:32:31Z</time>
      </trkpt>
      <trkpt lat="45.75463" lon="4.03846">
        <ele>367</ele>
        <time>2016-04-22T09:32:43Z</time>
      </trkpt>
      <trkpt lat="45.75458" lon="4.03848">
        <ele>366</ele>
        <time>2016-04-22T09:32:49Z</time>
      </trkpt>
      <trkpt lat="45.75426" lon="4.03872">
        <ele>366</ele>
        <time>2016-04-22T09:33:23Z</time>
      </trkpt>
      <trkpt lat="45.75421" lon="4.03875">
        <ele>366</ele>
        <time>2016-04-22T09:33:29Z</time>
      </trkpt>
      <trkpt lat="45.75416" lon="4.03875">
        <ele>369</ele>
        <time>2016-04-22T09:33:37Z</time>
      </trkpt>
      <trkpt lat="45.75387" lon="4.03887">
        <ele>369</ele>
        <time>2016-04-22T09:34:07Z</time>
      </trkpt>
      <trkpt lat="45.75357" lon="4.03907">
        <ele>370</ele>
        <time>2016-04-22T09:34:38Z</time>
      </trkpt>
      <trkpt lat="45.75347" lon="4.03907">
        <ele>370</ele>
        <time>2016-04-22T09:34:50Z</time>
      </trkpt>
      <trkpt lat="45.75342" lon="4.0391">
        <ele>369</ele>
        <time>2016-04-22T09:34:57Z</time>
      </trkpt>
      <trkpt lat="45.75309" lon="4.03921">
        <ele>369</ele>
        <time>2016-04-22T09:35:30Z</time>
      </trkpt>
      <trkpt lat="45.75237" lon="4.03961">
        <ele>371</ele>
        <time>2016-04-22T09:36:42Z</time>
      </trkpt>
      <trkpt lat="45.75232" lon="4.03963">
        <ele>371</ele>
        <time>2016-04-22T09:36:47Z</time>
      </trkpt>
      <trkpt lat="45.7503" lon="4.04068">
        <ele>381</ele>
        <time>2016-04-22T09:40:09Z</time>
      </trkpt>
      <trkpt lat="45.7469" lon="4.04238">
        <ele>395</ele>
        <time>2016-04-22T09:45:37Z</time>
      </trkpt>
      <trkpt lat="45.74681" lon="4.04242">
        <ele>395</ele>
        <time>2016-04-22T09:45:45Z</time>
      </trkpt>
      <trkpt lat="45.74675" lon="4.04243">
        <ele>396</ele>
        <time>2016-04-22T09:45:50Z</time>
      </trkpt>
      <trkpt lat="45.74659" lon="4.04244">
        <ele>396</ele>
        <time>2016-04-22T09:46:09Z</time>
      </trkpt>
      <trkpt lat="45.74655" lon="4.04245">
        <ele>396</ele>
        <time>2016-04-22T09:46:13Z</time>
      </trkpt>
      <trkpt lat="45.74595" lon="4.0424">
        <ele>397</ele>
        <time>2016-04-22T09:47:29Z</time>
      </trkpt>
      <trkpt lat="45.74588" lon="4.0424">
        <ele>398</ele>
        <time>2016-04-22T09:47:45Z</time>
      </trkpt>
      <trkpt lat="45.7454" lon="4.04232">
        <ele>397</ele>
        <time>2016-04-22T09:50:55Z</time>
      </trkpt>
      <trkpt lat="45.7453" lon="4.04232">
        <ele>397</ele>
        <time>2016-04-22T09:51:06Z</time>
      </trkpt>
      <trkpt lat="45.74494" lon="4.04229">
        <ele>396</ele>
        <time>2016-04-22T09:51:37Z</time>
      </trkpt>
      <trkpt lat="45.74484" lon="4.04227">
        <ele>397</ele>
        <time>2016-04-22T09:51:46Z</time>
      </trkpt>
      <trkpt lat="45.74474" lon="4.04223">
        <ele>398</ele>
        <time>2016-04-22T09:51:56Z</time>
      </trkpt>
      <trkpt lat="45.74388" lon="4.04211">
        <ele>396</ele>
        <time>2016-04-22T09:53:14Z</time>
      </trkpt>
      <trkpt lat="45.74352" lon="4.0421">
        <ele>396</ele>
        <time>2016-04-22T09:53:44Z</time>
      </trkpt>
      <trkpt lat="45.74328" lon="4.04211">
        <ele>395</ele>
        <time>2016-04-22T09:54:05Z</time>
      </trkpt>
      <trkpt lat="45.74322" lon="4.04213">
        <ele>395</ele>
        <time>2016-04-22T09:54:09Z</time>
      </trkpt>
      <trkpt lat="45.74214" lon="4.04221">
        <ele>395</ele>
        <time>2016-04-22T09:55:43Z</time>
      </trkpt>
      <trkpt lat="45.74186" lon="4.04229">
        <ele>396</ele>
        <time>2016-04-22T09:56:38Z</time>
      </trkpt>
      <trkpt lat="45.74167" lon="4.04232">
        <ele>395</ele>
        <time>2016-04-22T09:56:55Z</time>
      </trkpt>
      <trkpt lat="45.74153" lon="4.04235">
        <ele>397</ele>
        <time>2016-04-22T09:57:07Z</time>
      </trkpt>
      <trkpt lat="45.74143" lon="4.04239">
        <ele>397</ele>
        <time>2016-04-22T09:57:15Z</time>
      </trkpt>
      <trkpt lat="45.74045" lon="4.04265">
        <ele>397</ele>
        <time>2016-04-22T09:58:38Z</time>
      </trkpt>
      <trkpt lat="45.7399" lon="4.04266">
        <ele>398</ele>
        <time>2016-04-22T09:59:23Z</time>
      </trkpt>
      <trkpt lat="45.7398" lon="4.04262">
        <ele>398</ele>
        <time>2016-04-22T09:59:33Z</time>
      </trkpt>
      <trkpt lat="45.73939" lon="4.04251">
        <ele>394</ele>
        <time>2016-04-22T10:00:06Z</time>
      </trkpt>
      <trkpt lat="45.73896" lon="4.04246">
        <ele>394</ele>
        <time>2016-04-22T10:00:43Z</time>
      </trkpt>
      <trkpt lat="45.73891" lon="4.04246">
        <ele>394</ele>
        <time>2016-04-22T10:00:47Z</time>
      </trkpt>
      <trkpt lat="45.73886" lon="4.04245">
        <ele>394</ele>
        <time>2016-04-22T10:00:51Z</time>
      </trkpt>
      <trkpt lat="45.73857" lon="4.04237">
        <ele>394</ele>
        <time>2016-04-22T10:01:17Z</time>
      </trkpt>
      <trkpt lat="45.73854" lon="4.04231">
        <ele>394</ele>
        <time>2016-04-22T10:01:22Z</time>
      </trkpt>
      <trkpt lat="45.73854" lon="4.04197">
        <ele>394</ele>
        <time>2016-04-22T10:01:42Z</time>
      </trkpt>
      <trkpt lat="45.73847" lon="4.04187">
        <ele>394</ele>
        <time>2016-04-22T10:01:51Z</time>
      </trkpt>
      <trkpt lat="45.73845" lon="4.04152">
        <ele>394</ele>
        <time>2016-04-22T10:02:13Z</time>
      </trkpt>
      <trkpt lat="45.7384" lon="4.04152">
        <ele>394</ele>
        <time>2016-04-22T10:02:18Z</time>
      </trkpt>
      <trkpt lat="45.73819" lon="4.04158">
        <ele>394</ele>
        <time>2016-04-22T10:02:37Z</time>
      </trkpt>
      <trkpt lat="45.73724" lon="4.0417">
        <ele>391</ele>
        <time>2016-04-22T10:03:56Z</time>
      </trkpt>
      <trkpt lat="45.73703" lon="4.04175">
        <ele>391</ele>
        <time>2016-04-22T10:04:14Z</time>
      </trkpt>
      <trkpt lat="45.737" lon="4.04181">
        <ele>391</ele>
        <time>2016-04-22T10:04:20Z</time>
      </trkpt>
      <trkpt lat="45.73696" lon="4.04193">
        <ele>390</ele>
        <time>2016-04-22T10:04:28Z</time>
      </trkpt>
      <trkpt lat="45.73692" lon="4.04197">
        <ele>390</ele>
        <time>2016-04-22T10:04:32Z</time>
      </trkpt>
      <trkpt lat="45.73685" lon="4.04229">
        <ele>390</ele>
        <time>2016-04-22T10:04:52Z</time>
      </trkpt>
      <trkpt lat="45.73684" lon="4.04251">
        <ele>391</ele>
        <time>2016-04-22T10:05:06Z</time>
      </trkpt>
      <trkpt lat="45.7367" lon="4.04371">
        <ele>395</ele>
        <time>2016-04-22T10:06:17Z</time>
      </trkpt>
      <trkpt lat="45.73675" lon="4.04612">
        <ele>394</ele>
        <time>2016-04-22T10:08:41Z</time>
      </trkpt>
      <trkpt lat="45.73623" lon="4.04904">
        <ele>393</ele>
        <time>2016-04-22T10:11:42Z</time>
      </trkpt>
      <trkpt lat="45.73582" lon="4.05033">
        <ele>392</ele>
        <time>2016-04-22T10:13:11Z</time>
      </trkpt>
      <trkpt lat="45.73579" lon="4.05039">
        <ele>392</ele>
        <time>2016-04-22T10:13:15Z</time>
      </trkpt>
      <trkpt lat="45.73577" lon="4.05045">
        <ele>392</ele>
        <time>2016-04-22T10:13:19Z</time>
      </trkpt>
      <trkpt lat="45.73533" lon="4.0515">
        <ele>391</ele>
        <time>2016-04-22T10:14:31Z</time>
      </trkpt>
      <trkpt lat="45.7345" lon="4.0539">
        <ele>393</ele>
        <time>2016-04-22T10:17:13Z</time>
      </trkpt>
      <trkpt lat="45.73448" lon="4.05433">
        <ele>394</ele>
        <time>2016-04-22T10:17:41Z</time>
      </trkpt>
      <trkpt lat="45.73442" lon="4.05451">
        <ele>394</ele>
        <time>2016-04-22T10:17:54Z</time>
      </trkpt>
      <trkpt lat="45.73435" lon="4.05523">
        <ele>396</ele>
        <time>2016-04-22T10:18:40Z</time>
      </trkpt>
      <trkpt lat="45.73431" lon="4.05544">
        <ele>395</ele>
        <time>2016-04-22T10:18:54Z</time>
      </trkpt>
      <trkpt lat="45.73427" lon="4.05548">
        <ele>395</ele>
        <time>2016-04-22T10:18:58Z</time>
      </trkpt>
      <trkpt lat="45.73422" lon="4.05547">
        <ele>394</ele>
        <time>2016-04-22T10:19:05Z</time>
      </trkpt>
      <trkpt lat="45.73394" lon="4.05554">
        <ele>391</ele>
        <time>2016-04-22T10:19:36Z</time>
      </trkpt>
      <trkpt lat="45.73389" lon="4.05557">
        <ele>391</ele>
        <time>2016-04-22T10:19:41Z</time>
      </trkpt>
      <trkpt lat="45.73419" lon="4.05586">
        <ele>391</ele>
        <time>2016-04-22T10:21:08Z</time>
      </trkpt>
      <trkpt lat="45.73416" lon="4.05581">
        <ele>391</ele>
        <time>2016-04-22T10:21:24Z</time>
      </trkpt>
      <trkpt lat="45.73389" lon="4.05561">
        <ele>390</ele>
        <time>2016-04-22T10:21:52Z</time>
      </trkpt>
      <trkpt lat="45.73387" lon="4.05557">
        <ele>390</ele>
        <time>2016-04-22T10:21:59Z</time>
      </trkpt>
      <trkpt lat="45.73383" lon="4.05558">
        <ele>390</ele>
        <time>2016-04-22T10:22:10Z</time>
      </trkpt>
      <trkpt lat="45.73356" lon="4.05589">
        <ele>391</ele>
        <time>2016-04-22T10:22:42Z</time>
      </trkpt>
      <trkpt lat="45.73349" lon="4.05608">
        <ele>391</ele>
        <time>2016-04-22T10:22:56Z</time>
      </trkpt>
      <trkpt lat="45.73338" lon="4.05618">
        <ele>391</ele>
        <time>2016-04-22T10:23:14Z</time>
      </trkpt>
      <trkpt lat="45.73336" lon="4.05624">
        <ele>391</ele>
        <time>2016-04-22T10:23:28Z</time>
      </trkpt>
      <trkpt lat="45.73336" lon="4.05631">
        <ele>390</ele>
        <time>2016-04-22T10:23:36Z</time>
      </trkpt>
      <trkpt lat="45.73336" lon="4.05631">
        <ele>391</ele>
        <time>2016-04-22T11:07:14Z</time>
      </trkpt>
      <trkpt lat="45.73331" lon="4.05619">
        <ele>391</ele>
        <time>2016-04-22T11:07:27Z</time>
      </trkpt>
      <trkpt lat="45.73326" lon="4.05619">
        <ele>388</ele>
        <time>2016-04-22T11:07:36Z</time>
      </trkpt>
      <trkpt lat="45.73322" lon="4.05623">
        <ele>387</ele>
        <time>2016-04-22T11:07:44Z</time>
      </trkpt>
      <trkpt lat="45.7332" lon="4.05629">
        <ele>386</ele>
        <time>2016-04-22T11:07:49Z</time>
      </trkpt>
      <trkpt lat="45.73307" lon="4.05713">
        <ele>387</ele>
        <time>2016-04-22T11:08:54Z</time>
      </trkpt>
      <trkpt lat="45.73305" lon="4.05714">
        <ele>387</ele>
        <time>2016-04-22T11:09:17Z</time>
      </trkpt>
      <trkpt lat="45.733" lon="4.05733">
        <ele>386</ele>
        <time>2016-04-22T11:09:48Z</time>
      </trkpt>
      <trkpt lat="45.7328" lon="4.05753">
        <ele>385</ele>
        <time>2016-04-22T11:10:12Z</time>
      </trkpt>
      <trkpt lat="45.73274" lon="4.05772">
        <ele>384</ele>
        <time>2016-04-22T11:10:28Z</time>
      </trkpt>
      <trkpt lat="45.73265" lon="4.05779">
        <ele>383</ele>
        <time>2016-04-22T11:10:41Z</time>
      </trkpt>
      <trkpt lat="45.73236" lon="4.0579">
        <ele>381</ele>
        <time>2016-04-22T11:11:14Z</time>
      </trkpt>
      <trkpt lat="45.73208" lon="4.05806">
        <ele>379</ele>
        <time>2016-04-22T11:11:49Z</time>
      </trkpt>
      <trkpt lat="45.73205" lon="4.05805">
        <ele>377</ele>
        <time>2016-04-22T11:12:29Z</time>
      </trkpt>
      <trkpt lat="45.73188" lon="4.0581">
        <ele>374</ele>
        <time>2016-04-22T11:13:00Z</time>
      </trkpt>
      <trkpt lat="45.73168" lon="4.0581">
        <ele>370</ele>
        <time>2016-04-22T11:13:38Z</time>
      </trkpt>
      <trkpt lat="45.73158" lon="4.05808">
        <ele>368</ele>
        <time>2016-04-22T11:13:48Z</time>
      </trkpt>
      <trkpt lat="45.73123" lon="4.05806">
        <ele>367</ele>
        <time>2016-04-22T11:14:21Z</time>
      </trkpt>
      <trkpt lat="45.73103" lon="4.05808">
        <ele>366</ele>
        <time>2016-04-22T11:14:41Z</time>
      </trkpt>
      <trkpt lat="45.73099" lon="4.05814">
        <ele>366</ele>
        <time>2016-04-22T11:14:47Z</time>
      </trkpt>
      <trkpt lat="45.73095" lon="4.05827">
        <ele>365</ele>
        <time>2016-04-22T11:15:00Z</time>
      </trkpt>
      <trkpt lat="45.73092" lon="4.05854">
        <ele>365</ele>
        <time>2016-04-22T11:15:27Z</time>
      </trkpt>
      <trkpt lat="45.73094" lon="4.05876">
        <ele>365</ele>
        <time>2016-04-22T11:15:41Z</time>
      </trkpt>
      <trkpt lat="45.73091" lon="4.05882">
        <ele>365</ele>
        <time>2016-04-22T11:15:45Z</time>
      </trkpt>
      <trkpt lat="45.73083" lon="4.05889">
        <ele>365</ele>
        <time>2016-04-22T11:15:54Z</time>
      </trkpt>
      <trkpt lat="45.73072" lon="4.05891">
        <ele>365</ele>
        <time>2016-04-22T11:16:04Z</time>
      </trkpt>
      <trkpt lat="45.73036" lon="4.05886">
        <ele>365</ele>
        <time>2016-04-22T11:16:37Z</time>
      </trkpt>
      <trkpt lat="45.7303" lon="4.05884">
        <ele>365</ele>
        <time>2016-04-22T11:16:42Z</time>
      </trkpt>
      <trkpt lat="45.73022" lon="4.0588">
        <ele>364</ele>
        <time>2016-04-22T11:17:16Z</time>
      </trkpt>
      <trkpt lat="45.7302" lon="4.05872">
        <ele>364</ele>
        <time>2016-04-22T11:18:19Z</time>
      </trkpt>
      <trkpt lat="45.73023" lon="4.05839">
        <ele>364</ele>
        <time>2016-04-22T11:18:40Z</time>
      </trkpt>
      <trkpt lat="45.73062" lon="4.05515">
        <ele>363</ele>
        <time>2016-04-22T11:22:05Z</time>
      </trkpt>
      <trkpt lat="45.73042" lon="4.05305">
        <ele>366</ele>
        <time>2016-04-22T11:24:37Z</time>
      </trkpt>
      <trkpt lat="45.73045" lon="4.05293">
        <ele>366</ele>
        <time>2016-04-22T11:24:45Z</time>
      </trkpt>
      <trkpt lat="45.73048" lon="4.05292">
        <ele>365</ele>
        <time>2016-04-22T11:25:41Z</time>
      </trkpt>
      <trkpt lat="45.73052" lon="4.05289">
        <ele>365</ele>
        <time>2016-04-22T11:25:56Z</time>
      </trkpt>
      <trkpt lat="45.73065" lon="4.05283">
        <ele>366</ele>
        <time>2016-04-22T11:26:10Z</time>
      </trkpt>
      <trkpt lat="45.73072" lon="4.05277">
        <ele>364</ele>
        <time>2016-04-22T11:26:31Z</time>
      </trkpt>
      <trkpt lat="45.73085" lon="4.05256">
        <ele>365</ele>
        <time>2016-04-22T11:26:51Z</time>
      </trkpt>
      <trkpt lat="45.73087" lon="4.05253">
        <ele>365</ele>
        <time>2016-04-22T11:26:59Z</time>
      </trkpt>
      <trkpt lat="45.73091" lon="4.05239">
        <ele>365</ele>
        <time>2016-04-22T11:27:11Z</time>
      </trkpt>
      <trkpt lat="45.73088" lon="4.05233">
        <ele>365</ele>
        <time>2016-04-22T11:27:21Z</time>
      </trkpt>
      <trkpt lat="45.73009" lon="4.05215">
        <ele>369</ele>
        <time>2016-04-22T11:28:35Z</time>
      </trkpt>
      <trkpt lat="45.72975" lon="4.05225">
        <ele>369</ele>
        <time>2016-04-22T11:29:08Z</time>
      </trkpt>
      <trkpt lat="45.72965" lon="4.05227">
        <ele>370</ele>
        <time>2016-04-22T11:29:19Z</time>
      </trkpt>
      <trkpt lat="45.72957" lon="4.05235">
        <ele>370</ele>
        <time>2016-04-22T11:29:27Z</time>
      </trkpt>
      <trkpt lat="45.72952" lon="4.05237">
        <ele>369</ele>
        <time>2016-04-22T11:29:32Z</time>
      </trkpt>
      <trkpt lat="45.72913" lon="4.0527">
        <ele>370</ele>
        <time>2016-04-22T11:30:11Z</time>
      </trkpt>
      <trkpt lat="45.72901" lon="4.05282">
        <ele>371</ele>
        <time>2016-04-22T11:30:25Z</time>
      </trkpt>
      <trkpt lat="45.72892" lon="4.05289">
        <ele>370</ele>
        <time>2016-04-22T11:30:33Z</time>
      </trkpt>
      <trkpt lat="45.72864" lon="4.05302">
        <ele>368</ele>
        <time>2016-04-22T11:31:02Z</time>
      </trkpt>
      <trkpt lat="45.7269" lon="4.05442">
        <ele>366</ele>
        <time>2016-04-22T11:33:55Z</time>
      </trkpt>
      <trkpt lat="45.72686" lon="4.05447">
        <ele>366</ele>
        <time>2016-04-22T11:34:00Z</time>
      </trkpt>
      <trkpt lat="45.72677" lon="4.05454">
        <ele>366</ele>
        <time>2016-04-22T11:34:09Z</time>
      </trkpt>
      <trkpt lat="45.72547" lon="4.05535">
        <ele>370</ele>
        <time>2016-04-22T11:36:18Z</time>
      </trkpt>
      <trkpt lat="45.72484" lon="4.05601">
        <ele>372</ele>
        <time>2016-04-22T11:37:22Z</time>
      </trkpt>
      <trkpt lat="45.72444" lon="4.05623">
        <ele>371</ele>
        <time>2016-04-22T11:37:59Z</time>
      </trkpt>
      <trkpt lat="45.72441" lon="4.05628">
        <ele>371</ele>
        <time>2016-04-22T11:38:04Z</time>
      </trkpt>
      <trkpt lat="45.72437" lon="4.05631">
        <ele>371</ele>
        <time>2016-04-22T11:38:09Z</time>
      </trkpt>
      <trkpt lat="45.72422" lon="4.05633">
        <ele>371</ele>
        <time>2016-04-22T11:38:21Z</time>
      </trkpt>
      <trkpt lat="45.72417" lon="4.05632">
        <ele>372</ele>
        <time>2016-04-22T11:38:26Z</time>
      </trkpt>
      <trkpt lat="45.72393" lon="4.0565">
        <ele>372</ele>
        <time>2016-04-22T11:38:45Z</time>
      </trkpt>
      <trkpt lat="45.72361" lon="4.05698">
        <ele>371</ele>
        <time>2016-04-22T11:39:20Z</time>
      </trkpt>
      <trkpt lat="45.72331" lon="4.05727">
        <ele>371</ele>
        <time>2016-04-22T11:39:51Z</time>
      </trkpt>
      <trkpt lat="45.72322" lon="4.05732">
        <ele>371</ele>
        <time>2016-04-22T11:40:00Z</time>
      </trkpt>
      <trkpt lat="45.72316" lon="4.05731">
        <ele>371</ele>
        <time>2016-04-22T11:40:05Z</time>
      </trkpt>
      <trkpt lat="45.72312" lon="4.05734">
        <ele>371</ele>
        <time>2016-04-22T11:40:10Z</time>
      </trkpt>
      <trkpt lat="45.72308" lon="4.0574">
        <ele>371</ele>
        <time>2016-04-22T11:40:15Z</time>
      </trkpt>
      <trkpt lat="45.72289" lon="4.05749">
        <ele>371</ele>
        <time>2016-04-22T11:40:33Z</time>
      </trkpt>
      <trkpt lat="45.72284" lon="4.05752">
        <ele>372</ele>
        <time>2016-04-22T11:40:37Z</time>
      </trkpt>
      <trkpt lat="45.72259" lon="4.05775">
        <ele>372</ele>
        <time>2016-04-22T11:41:07Z</time>
      </trkpt>
      <trkpt lat="45.72252" lon="4.05785">
        <ele>373</ele>
        <time>2016-04-22T11:41:16Z</time>
      </trkpt>
      <trkpt lat="45.72244" lon="4.05793">
        <ele>373</ele>
        <time>2016-04-22T11:41:24Z</time>
      </trkpt>
      <trkpt lat="45.72227" lon="4.0582">
        <ele>374</ele>
        <time>2016-04-22T11:41:47Z</time>
      </trkpt>
      <trkpt lat="45.72227" lon="4.05827">
        <ele>375</ele>
        <time>2016-04-22T11:41:51Z</time>
      </trkpt>
      <trkpt lat="45.72224" lon="4.05833">
        <ele>375</ele>
        <time>2016-04-22T11:41:55Z</time>
      </trkpt>
      <trkpt lat="45.72221" lon="4.05838">
        <ele>376</ele>
        <time>2016-04-22T11:41:59Z</time>
      </trkpt>
      <trkpt lat="45.72217" lon="4.05844">
        <ele>376</ele>
        <time>2016-04-22T11:42:04Z</time>
      </trkpt>
      <trkpt lat="45.72213" lon="4.0585">
        <ele>376</ele>
        <time>2016-04-22T11:42:09Z</time>
      </trkpt>
      <trkpt lat="45.72192" lon="4.05889">
        <ele>371</ele>
        <time>2016-04-22T11:42:41Z</time>
      </trkpt>
      <trkpt lat="45.72174" lon="4.05909">
        <ele>370</ele>
        <time>2016-04-22T11:43:04Z</time>
      </trkpt>
      <trkpt lat="45.72165" lon="4.05917">
        <ele>371</ele>
        <time>2016-04-22T11:43:32Z</time>
      </trkpt>
      <trkpt lat="45.72153" lon="4.05929">
        <ele>371</ele>
        <time>2016-04-22T11:43:45Z</time>
      </trkpt>
      <trkpt lat="45.72138" lon="4.05939">
        <ele>370</ele>
        <time>2016-04-22T11:43:59Z</time>
      </trkpt>
      <trkpt lat="45.72106" lon="4.05957">
        <ele>370</ele>
        <time>2016-04-22T11:44:30Z</time>
      </trkpt>
      <trkpt lat="45.72076" lon="4.05983">
        <ele>371</ele>
        <time>2016-04-22T11:45:01Z</time>
      </trkpt>
      <trkpt lat="45.72072" lon="4.05988">
        <ele>371</ele>
        <time>2016-04-22T11:45:05Z</time>
      </trkpt>
      <trkpt lat="45.72069" lon="4.05994">
        <ele>372</ele>
        <time>2016-04-22T11:45:10Z</time>
      </trkpt>
      <trkpt lat="45.72062" lon="4.06014">
        <ele>373</ele>
        <time>2016-04-22T11:45:24Z</time>
      </trkpt>
      <trkpt lat="45.72063" lon="4.06047">
        <ele>373</ele>
        <time>2016-04-22T11:45:44Z</time>
      </trkpt>
      <trkpt lat="45.72066" lon="4.0607">
        <ele>373</ele>
        <time>2016-04-22T11:45:57Z</time>
      </trkpt>
      <trkpt lat="45.72067" lon="4.06121">
        <ele>373</ele>
        <time>2016-04-22T11:46:31Z</time>
      </trkpt>
      <trkpt lat="45.72051" lon="4.06171">
        <ele>374</ele>
        <time>2016-04-22T11:47:04Z</time>
      </trkpt>
      <trkpt lat="45.72045" lon="4.06183">
        <ele>375</ele>
        <time>2016-04-22T11:47:14Z</time>
      </trkpt>
      <trkpt lat="45.72045" lon="4.06187">
        <ele>374</ele>
        <time>2016-04-22T11:47:36Z</time>
      </trkpt>
      <trkpt lat="45.72039" lon="4.06199">
        <ele>374</ele>
        <time>2016-04-22T11:47:45Z</time>
      </trkpt>
      <trkpt lat="45.72025" lon="4.06243">
        <ele>374</ele>
        <time>2016-04-22T11:48:14Z</time>
      </trkpt>
      <trkpt lat="45.71998" lon="4.06294">
        <ele>377</ele>
        <time>2016-04-22T11:48:54Z</time>
      </trkpt>
      <trkpt lat="45.71995" lon="4.06307">
        <ele>376</ele>
        <time>2016-04-22T11:49:02Z</time>
      </trkpt>
      <trkpt lat="45.72001" lon="4.06327">
        <ele>375</ele>
        <time>2016-04-22T11:49:14Z</time>
      </trkpt>
      <trkpt lat="45.7207" lon="4.06394">
        <ele>375</ele>
        <time>2016-04-22T11:50:27Z</time>
      </trkpt>
      <trkpt lat="45.72063" lon="4.06492">
        <ele>369</ele>
        <time>2016-04-22T11:51:30Z</time>
      </trkpt>
      <trkpt lat="45.72053" lon="4.06538">
        <ele>368</ele>
        <time>2016-04-22T11:52:04Z</time>
      </trkpt>
      <trkpt lat="45.7204" lon="4.06577">
        <ele>365</ele>
        <time>2016-04-22T11:52:35Z</time>
      </trkpt>
      <trkpt lat="45.72041" lon="4.06583">
        <ele>365</ele>
        <time>2016-04-22T11:52:41Z</time>
      </trkpt>
      <trkpt lat="45.72038" lon="4.06589">
        <ele>365</ele>
        <time>2016-04-22T11:52:48Z</time>
      </trkpt>
      <trkpt lat="45.72034" lon="4.0659">
        <ele>366</ele>
        <time>2016-04-22T11:53:56Z</time>
      </trkpt>
      <trkpt lat="45.7203" lon="4.06591">
        <ele>366</ele>
        <time>2016-04-22T11:54:05Z</time>
      </trkpt>
      <trkpt lat="45.72021" lon="4.06597">
        <ele>365</ele>
        <time>2016-04-22T11:54:21Z</time>
      </trkpt>
      <trkpt lat="45.72009" lon="4.06611">
        <ele>366</ele>
        <time>2016-04-22T11:54:34Z</time>
      </trkpt>
      <trkpt lat="45.71987" lon="4.06651">
        <ele>371</ele>
        <time>2016-04-22T11:55:09Z</time>
      </trkpt>
      <trkpt lat="45.71984" lon="4.06649">
        <ele>371</ele>
        <time>2016-04-22T11:55:16Z</time>
      </trkpt>
      <trkpt lat="45.71979" lon="4.06649">
        <ele>372</ele>
        <time>2016-04-22T11:55:39Z</time>
      </trkpt>
      <trkpt lat="45.71974" lon="4.06646">
        <ele>372</ele>
        <time>2016-04-22T11:55:44Z</time>
      </trkpt>
      <trkpt lat="45.7195" lon="4.06636">
        <ele>373</ele>
        <time>2016-04-22T11:56:08Z</time>
      </trkpt>
      <trkpt lat="45.71931" lon="4.06626">
        <ele>374</ele>
        <time>2016-04-22T11:56:28Z</time>
      </trkpt>
      <trkpt lat="45.71836" lon="4.06561">
        <ele>384</ele>
        <time>2016-04-22T11:58:15Z</time>
      </trkpt>
      <trkpt lat="45.71812" lon="4.06555">
        <ele>393</ele>
        <time>2016-04-22T11:58:49Z</time>
      </trkpt>
      <trkpt lat="45.71785" lon="4.06571">
        <ele>399</ele>
        <time>2016-04-22T11:59:26Z</time>
      </trkpt>
      <trkpt lat="45.71782" lon="4.06571">
        <ele>400</ele>
        <time>2016-04-22T11:59:32Z</time>
      </trkpt>
      <trkpt lat="45.71779" lon="4.06574">
        <ele>405</ele>
        <time>2016-04-22T12:02:00Z</time>
      </trkpt>
      <trkpt lat="45.71777" lon="4.0658">
        <ele>405</ele>
        <time>2016-04-22T12:02:06Z</time>
      </trkpt>
      <trkpt lat="45.71757" lon="4.06617">
        <ele>409</ele>
        <time>2016-04-22T12:02:41Z</time>
      </trkpt>
      <trkpt lat="45.71761" lon="4.06615">
        <ele>409</ele>
        <time>2016-04-22T12:02:54Z</time>
      </trkpt>
      <trkpt lat="45.71764" lon="4.06608">
        <ele>409</ele>
        <time>2016-04-22T12:03:01Z</time>
      </trkpt>
      <trkpt lat="45.71768" lon="4.06604">
        <ele>409</ele>
        <time>2016-04-22T12:03:07Z</time>
      </trkpt>
      <trkpt lat="45.71773" lon="4.06603">
        <ele>410</ele>
        <time>2016-04-22T12:03:13Z</time>
      </trkpt>
      <trkpt lat="45.71777" lon="4.066">
        <ele>410</ele>
        <time>2016-04-22T12:03:18Z</time>
      </trkpt>
      <trkpt lat="45.71779" lon="4.06596">
        <ele>411</ele>
        <time>2016-04-22T12:03:27Z</time>
      </trkpt>
      <trkpt lat="45.7178" lon="4.06606">
        <ele>411</ele>
        <time>2016-04-22T12:03:50Z</time>
      </trkpt>
      <trkpt lat="45.71785" lon="4.06604">
        <ele>412</ele>
        <time>2016-04-22T12:03:58Z</time>
      </trkpt>
      <trkpt lat="45.718" lon="4.06601">
        <ele>412</ele>
        <time>2016-04-22T12:04:13Z</time>
      </trkpt>
      <trkpt lat="45.71801" lon="4.06605">
        <ele>412</ele>
        <time>2016-04-22T12:05:23Z</time>
      </trkpt>
      <trkpt lat="45.71796" lon="4.06604">
        <ele>412</ele>
        <time>2016-04-22T12:05:29Z</time>
      </trkpt>
      <trkpt lat="45.71783" lon="4.06608">
        <ele>414</ele>
        <time>2016-04-22T12:05:48Z</time>
      </trkpt>
      <trkpt lat="45.7178" lon="4.06616">
        <ele>415</ele>
        <time>2016-04-22T12:06:19Z</time>
      </trkpt>
      <trkpt lat="45.71777" lon="4.06619">
        <ele>412</ele>
        <time>2016-04-22T12:06:32Z</time>
      </trkpt>
      <trkpt lat="45.71777" lon="4.06629">
        <ele>412</ele>
        <time>2016-04-22T12:07:00Z</time>
      </trkpt>
      <trkpt lat="45.71774" lon="4.06637">
        <ele>411</ele>
        <time>2016-04-22T12:07:34Z</time>
      </trkpt>
      <trkpt lat="45.71772" lon="4.06632">
        <ele>414</ele>
        <time>2016-04-22T12:10:17Z</time>
      </trkpt>
      <trkpt lat="45.71762" lon="4.06636">
        <ele>413</ele>
        <time>2016-04-22T12:10:49Z</time>
      </trkpt>
      <trkpt lat="45.71772" lon="4.06607">
        <ele>411</ele>
        <time>2016-04-23T06:44:12Z</time>
      </trkpt>
      <trkpt lat="45.71767" lon="4.06607">
        <ele>411</ele>
        <time>2016-04-23T06:44:20Z</time>
      </trkpt>
      <trkpt lat="45.71763" lon="4.06611">
        <ele>411</ele>
        <time>2016-04-23T06:44:25Z</time>
      </trkpt>
      <trkpt lat="45.71759" lon="4.06612">
        <ele>411</ele>
        <time>2016-04-23T06:44:37Z</time>
      </trkpt>
      <trkpt lat="45.71771" lon="4.06577">
        <ele>404</ele>
        <time>2016-04-23T06:44:57Z</time>
      </trkpt>
      <trkpt lat="45.71767" lon="4.06572">
        <ele>403</ele>
        <time>2016-04-23T06:45:02Z</time>
      </trkpt>
      <trkpt lat="45.71763" lon="4.06573">
        <ele>402</ele>
        <time>2016-04-23T06:45:06Z</time>
      </trkpt>
      <trkpt lat="45.71718" lon="4.06619">
        <ele>396</ele>
        <time>2016-04-23T06:45:44Z</time>
      </trkpt>
      <trkpt lat="45.71711" lon="4.06624">
        <ele>396</ele>
        <time>2016-04-23T06:45:49Z</time>
      </trkpt>
      <trkpt lat="45.71709" lon="4.0662">
        <ele>397</ele>
        <time>2016-04-23T06:45:57Z</time>
      </trkpt>
      <trkpt lat="45.71705" lon="4.06624">
        <ele>396</ele>
        <time>2016-04-23T06:46:03Z</time>
      </trkpt>
      <trkpt lat="45.71673" lon="4.0666">
        <ele>388</ele>
        <time>2016-04-23T06:46:35Z</time>
      </trkpt>
      <trkpt lat="45.71649" lon="4.06671">
        <ele>385</ele>
        <time>2016-04-23T06:46:53Z</time>
      </trkpt>
      <trkpt lat="45.7164" lon="4.06667">
        <ele>389</ele>
        <time>2016-04-23T06:47:02Z</time>
      </trkpt>
      <trkpt lat="45.71631" lon="4.06659">
        <ele>389</ele>
        <time>2016-04-23T06:47:13Z</time>
      </trkpt>
      <trkpt lat="45.71597" lon="4.0665">
        <ele>385</ele>
        <time>2016-04-23T06:47:43Z</time>
      </trkpt>
      <trkpt lat="45.71593" lon="4.06645">
        <ele>384</ele>
        <time>2016-04-23T06:47:49Z</time>
      </trkpt>
      <trkpt lat="45.71559" lon="4.06635">
        <ele>379</ele>
        <time>2016-04-23T06:48:20Z</time>
      </trkpt>
      <trkpt lat="45.71554" lon="4.06636">
        <ele>378</ele>
        <time>2016-04-23T06:48:26Z</time>
      </trkpt>
      <trkpt lat="45.71516" lon="4.0662">
        <ele>377</ele>
        <time>2016-04-23T06:49:02Z</time>
      </trkpt>
      <trkpt lat="45.71511" lon="4.06619">
        <ele>376</ele>
        <time>2016-04-23T06:49:09Z</time>
      </trkpt>
      <trkpt lat="45.71489" lon="4.06623">
        <ele>375</ele>
        <time>2016-04-23T06:49:25Z</time>
      </trkpt>
      <trkpt lat="45.7146" lon="4.06643">
        <ele>374</ele>
        <time>2016-04-23T06:49:50Z</time>
      </trkpt>
      <trkpt lat="45.71453" lon="4.0666">
        <ele>372</ele>
        <time>2016-04-23T06:50:08Z</time>
      </trkpt>
      <trkpt lat="45.71446" lon="4.06671">
        <ele>372</ele>
        <time>2016-04-23T06:50:16Z</time>
      </trkpt>
      <trkpt lat="45.71433" lon="4.06683">
        <ele>372</ele>
        <time>2016-04-23T06:50:29Z</time>
      </trkpt>
      <trkpt lat="45.71337" lon="4.06869">
        <ele>372</ele>
        <time>2016-04-23T06:52:42Z</time>
      </trkpt>
      <trkpt lat="45.71304" lon="4.06904">
        <ele>372</ele>
        <time>2016-04-23T06:53:16Z</time>
      </trkpt>
      <trkpt lat="45.71266" lon="4.0692">
        <ele>373</ele>
        <time>2016-04-23T06:53:49Z</time>
      </trkpt>
      <trkpt lat="45.71246" lon="4.06926">
        <ele>373</ele>
        <time>2016-04-23T06:54:05Z</time>
      </trkpt>
      <trkpt lat="45.71235" lon="4.06927">
        <ele>373</ele>
        <time>2016-04-23T06:54:15Z</time>
      </trkpt>
      <trkpt lat="45.71231" lon="4.06929">
        <ele>372</ele>
        <time>2016-04-23T06:54:20Z</time>
      </trkpt>
      <trkpt lat="45.71046" lon="4.07077">
        <ele>375</ele>
        <time>2016-04-23T06:57:12Z</time>
      </trkpt>
      <trkpt lat="45.71004" lon="4.07118">
        <ele>377</ele>
        <time>2016-04-23T06:57:54Z</time>
      </trkpt>
      <trkpt lat="45.70982" lon="4.07133">
        <ele>376</ele>
        <time>2016-04-23T06:58:17Z</time>
      </trkpt>
      <trkpt lat="45.70875" lon="4.07183">
        <ele>379</ele>
        <time>2016-04-23T06:59:52Z</time>
      </trkpt>
      <trkpt lat="45.70862" lon="4.07191">
        <ele>380</ele>
        <time>2016-04-23T07:00:04Z</time>
      </trkpt>
      <trkpt lat="45.70822" lon="4.07231">
        <ele>379</ele>
        <time>2016-04-23T07:00:50Z</time>
      </trkpt>
      <trkpt lat="45.70682" lon="4.07399">
        <ele>393</ele>
        <time>2016-04-23T07:03:57Z</time>
      </trkpt>
      <trkpt lat="45.70601" lon="4.07527">
        <ele>395</ele>
        <time>2016-04-23T07:05:43Z</time>
      </trkpt>
      <trkpt lat="45.70526" lon="4.07601">
        <ele>391</ele>
        <time>2016-04-23T07:07:05Z</time>
      </trkpt>
      <trkpt lat="45.70468" lon="4.07644">
        <ele>390</ele>
        <time>2016-04-23T07:08:05Z</time>
      </trkpt>
      <trkpt lat="45.7039" lon="4.07782">
        <ele>387</ele>
        <time>2016-04-23T07:09:53Z</time>
      </trkpt>
      <trkpt lat="45.70386" lon="4.07788">
        <ele>389</ele>
        <time>2016-04-23T07:09:57Z</time>
      </trkpt>
      <trkpt lat="45.70379" lon="4.07806">
        <ele>388</ele>
        <time>2016-04-23T07:10:09Z</time>
      </trkpt>
      <trkpt lat="45.70375" lon="4.07811">
        <ele>388</ele>
        <time>2016-04-23T07:10:14Z</time>
      </trkpt>
      <trkpt lat="45.7034" lon="4.07871">
        <ele>390</ele>
        <time>2016-04-23T07:10:57Z</time>
      </trkpt>
      <trkpt lat="45.70336" lon="4.07875">
        <ele>391</ele>
        <time>2016-04-23T07:11:01Z</time>
      </trkpt>
      <trkpt lat="45.70329" lon="4.07885">
        <ele>391</ele>
        <time>2016-04-23T07:11:10Z</time>
      </trkpt>
      <trkpt lat="45.70325" lon="4.07884">
        <ele>391</ele>
        <time>2016-04-23T07:11:15Z</time>
      </trkpt>
      <trkpt lat="45.70316" lon="4.07875">
        <ele>391</ele>
        <time>2016-04-23T07:11:25Z</time>
      </trkpt>
      <trkpt lat="45.70307" lon="4.07858">
        <ele>391</ele>
        <time>2016-04-23T07:11:40Z</time>
      </trkpt>
      <trkpt lat="45.70285" lon="4.07846">
        <ele>392</ele>
        <time>2016-04-23T07:12:07Z</time>
      </trkpt>
      <trkpt lat="45.70277" lon="4.07839">
        <ele>393</ele>
        <time>2016-04-23T07:12:19Z</time>
      </trkpt>
      <trkpt lat="45.70259" lon="4.07833">
        <ele>396</ele>
        <time>2016-04-23T07:12:35Z</time>
      </trkpt>
      <trkpt lat="45.70222" lon="4.0779">
        <ele>398</ele>
        <time>2016-04-23T07:13:19Z</time>
      </trkpt>
      <trkpt lat="45.7021" lon="4.07779">
        <ele>399</ele>
        <time>2016-04-23T07:13:31Z</time>
      </trkpt>
      <trkpt lat="45.70205" lon="4.07782">
        <ele>399</ele>
        <time>2016-04-23T07:13:39Z</time>
      </trkpt>
      <trkpt lat="45.70201" lon="4.07785">
        <ele>400</ele>
        <time>2016-04-23T07:13:45Z</time>
      </trkpt>
      <trkpt lat="45.70183" lon="4.0779">
        <ele>403</ele>
        <time>2016-04-23T07:14:26Z</time>
      </trkpt>
      <trkpt lat="45.70162" lon="4.07781">
        <ele>409</ele>
        <time>2016-04-23T07:14:48Z</time>
      </trkpt>
      <trkpt lat="45.70159" lon="4.07775">
        <ele>411</ele>
        <time>2016-04-23T07:14:55Z</time>
      </trkpt>
      <trkpt lat="45.70111" lon="4.0774">
        <ele>417</ele>
        <time>2016-04-23T07:15:51Z</time>
      </trkpt>
      <trkpt lat="45.70086" lon="4.07729">
        <ele>421</ele>
        <time>2016-04-23T07:16:23Z</time>
      </trkpt>
      <trkpt lat="45.70081" lon="4.07726">
        <ele>421</ele>
        <time>2016-04-23T07:16:29Z</time>
      </trkpt>
      <trkpt lat="45.70071" lon="4.07723">
        <ele>419</ele>
        <time>2016-04-23T07:16:38Z</time>
      </trkpt>
      <trkpt lat="45.70063" lon="4.07719">
        <ele>420</ele>
        <time>2016-04-23T07:16:53Z</time>
      </trkpt>
      <trkpt lat="45.70058" lon="4.07718">
        <ele>421</ele>
        <time>2016-04-23T07:16:58Z</time>
      </trkpt>
      <trkpt lat="45.70054" lon="4.07714">
        <ele>421</ele>
        <time>2016-04-23T07:17:03Z</time>
      </trkpt>
      <trkpt lat="45.70051" lon="4.07708">
        <ele>422</ele>
        <time>2016-04-23T07:17:09Z</time>
      </trkpt>
      <trkpt lat="45.7003" lon="4.07692">
        <ele>427</ele>
        <time>2016-04-23T07:17:45Z</time>
      </trkpt>
      <trkpt lat="45.70009" lon="4.07683">
        <ele>431</ele>
        <time>2016-04-23T07:18:29Z</time>
      </trkpt>
      <trkpt lat="45.70001" lon="4.07677">
        <ele>432</ele>
        <time>2016-04-23T07:18:41Z</time>
      </trkpt>
      <trkpt lat="45.69992" lon="4.07677">
        <ele>433</ele>
        <time>2016-04-23T07:18:51Z</time>
      </trkpt>
      <trkpt lat="45.69982" lon="4.07682">
        <ele>434</ele>
        <time>2016-04-23T07:19:02Z</time>
      </trkpt>
      <trkpt lat="45.69973" lon="4.077">
        <ele>440</ele>
        <time>2016-04-23T07:19:42Z</time>
      </trkpt>
      <trkpt lat="45.69964" lon="4.07707">
        <ele>441</ele>
        <time>2016-04-23T07:19:50Z</time>
      </trkpt>
      <trkpt lat="45.69967" lon="4.07702">
        <ele>441</ele>
        <time>2016-04-23T07:20:13Z</time>
      </trkpt>
      <trkpt lat="45.69957" lon="4.07708">
        <ele>441</ele>
        <time>2016-04-23T07:21:07Z</time>
      </trkpt>
      <trkpt lat="45.69938" lon="4.07711">
        <ele>439</ele>
        <time>2016-04-23T07:21:21Z</time>
      </trkpt>
      <trkpt lat="45.699" lon="4.07705">
        <ele>443</ele>
        <time>2016-04-23T07:21:55Z</time>
      </trkpt>
      <trkpt lat="45.69877" lon="4.07705">
        <ele>447</ele>
        <time>2016-04-23T07:22:30Z</time>
      </trkpt>
      <trkpt lat="45.69862" lon="4.07714">
        <ele>451</ele>
        <time>2016-04-23T07:23:02Z</time>
      </trkpt>
      <trkpt lat="45.69858" lon="4.07728">
        <ele>451</ele>
        <time>2016-04-23T07:23:21Z</time>
      </trkpt>
      <trkpt lat="45.69851" lon="4.07736">
        <ele>451</ele>
        <time>2016-04-23T07:23:33Z</time>
      </trkpt>
      <trkpt lat="45.69832" lon="4.07767">
        <ele>453</ele>
        <time>2016-04-23T07:24:03Z</time>
      </trkpt>
      <trkpt lat="45.69821" lon="4.0779">
        <ele>453</ele>
        <time>2016-04-23T07:24:19Z</time>
      </trkpt>
      <trkpt lat="45.69812" lon="4.07801">
        <ele>453</ele>
        <time>2016-04-23T07:24:46Z</time>
      </trkpt>
      <trkpt lat="45.69808" lon="4.07799">
        <ele>454</ele>
        <time>2016-04-23T07:25:05Z</time>
      </trkpt>
      <trkpt lat="45.69806" lon="4.07808">
        <ele>456</ele>
        <time>2016-04-23T07:25:18Z</time>
      </trkpt>
      <trkpt lat="45.69803" lon="4.07815">
        <ele>458</ele>
        <time>2016-04-23T07:25:24Z</time>
      </trkpt>
      <trkpt lat="45.69796" lon="4.07818">
        <ele>458</ele>
        <time>2016-04-23T07:25:31Z</time>
      </trkpt>
      <trkpt lat="45.69786" lon="4.07841">
        <ele>456</ele>
        <time>2016-04-23T07:25:53Z</time>
      </trkpt>
      <trkpt lat="45.69789" lon="4.07853">
        <ele>456</ele>
        <time>2016-04-23T07:26:10Z</time>
      </trkpt>
      <trkpt lat="45.69778" lon="4.0789">
        <ele>450</ele>
        <time>2016-04-23T07:26:47Z</time>
      </trkpt>
      <trkpt lat="45.69775" lon="4.07903">
        <ele>450</ele>
        <time>2016-04-23T07:26:56Z</time>
      </trkpt>
      <trkpt lat="45.69762" lon="4.07921">
        <ele>449</ele>
        <time>2016-04-23T07:27:11Z</time>
      </trkpt>
      <trkpt lat="45.69754" lon="4.07928">
        <ele>449</ele>
        <time>2016-04-23T07:27:18Z</time>
      </trkpt>
      <trkpt lat="45.69719" lon="4.0795">
        <ele>452</ele>
        <time>2016-04-23T07:27:50Z</time>
      </trkpt>
      <trkpt lat="45.69685" lon="4.07977">
        <ele>459</ele>
        <time>2016-04-23T07:28:24Z</time>
      </trkpt>
      <trkpt lat="45.69676" lon="4.07978">
        <ele>460</ele>
        <time>2016-04-23T07:28:32Z</time>
      </trkpt>
      <trkpt lat="45.69666" lon="4.07977">
        <ele>459</ele>
        <time>2016-04-23T07:28:40Z</time>
      </trkpt>
      <trkpt lat="45.69657" lon="4.07972">
        <ele>459</ele>
        <time>2016-04-23T07:28:49Z</time>
      </trkpt>
      <trkpt lat="45.69649" lon="4.07966">
        <ele>460</ele>
        <time>2016-04-23T07:28:56Z</time>
      </trkpt>
      <trkpt lat="45.69645" lon="4.07964">
        <ele>460</ele>
        <time>2016-04-23T07:29:00Z</time>
      </trkpt>
      <trkpt lat="45.6964" lon="4.07959">
        <ele>460</ele>
        <time>2016-04-23T07:29:04Z</time>
      </trkpt>
      <trkpt lat="45.69618" lon="4.07915">
        <ele>462</ele>
        <time>2016-04-23T07:29:42Z</time>
      </trkpt>
      <trkpt lat="45.69609" lon="4.07907">
        <ele>462</ele>
        <time>2016-04-23T07:29:53Z</time>
      </trkpt>
      <trkpt lat="45.69605" lon="4.07906">
        <ele>462</ele>
        <time>2016-04-23T07:29:59Z</time>
      </trkpt>
      <trkpt lat="45.69586" lon="4.07904">
        <ele>460</ele>
        <time>2016-04-23T07:30:21Z</time>
      </trkpt>
      <trkpt lat="45.69562" lon="4.0789">
        <ele>455</ele>
        <time>2016-04-23T07:30:52Z</time>
      </trkpt>
      <trkpt lat="45.69547" lon="4.07887">
        <ele>454</ele>
        <time>2016-04-23T07:31:06Z</time>
      </trkpt>
      <trkpt lat="45.69531" lon="4.07872">
        <ele>448</ele>
        <time>2016-04-23T07:31:28Z</time>
      </trkpt>
      <trkpt lat="45.69523" lon="4.07872">
        <ele>445</ele>
        <time>2016-04-23T07:31:44Z</time>
      </trkpt>
      <trkpt lat="45.69501" lon="4.07909">
        <ele>435</ele>
        <time>2016-04-23T07:32:26Z</time>
      </trkpt>
      <trkpt lat="45.69493" lon="4.07916">
        <ele>433</ele>
        <time>2016-04-23T07:32:40Z</time>
      </trkpt>
      <trkpt lat="45.69489" lon="4.07919">
        <ele>434</ele>
        <time>2016-04-23T07:32:48Z</time>
      </trkpt>
      <trkpt lat="45.69459" lon="4.07928">
        <ele>431</ele>
        <time>2016-04-23T07:33:19Z</time>
      </trkpt>
      <trkpt lat="45.69433" lon="4.0793">
        <ele>429</ele>
        <time>2016-04-23T07:33:40Z</time>
      </trkpt>
      <trkpt lat="45.69429" lon="4.07935">
        <ele>428</ele>
        <time>2016-04-23T07:33:44Z</time>
      </trkpt>
      <trkpt lat="45.69394" lon="4.07962">
        <ele>427</ele>
        <time>2016-04-23T07:34:19Z</time>
      </trkpt>
      <trkpt lat="45.69385" lon="4.07964">
        <ele>427</ele>
        <time>2016-04-23T07:34:25Z</time>
      </trkpt>
      <trkpt lat="45.69375" lon="4.07968">
        <ele>426</ele>
        <time>2016-04-23T07:34:32Z</time>
      </trkpt>
      <trkpt lat="45.69338" lon="4.07978">
        <ele>424</ele>
        <time>2016-04-23T07:35:04Z</time>
      </trkpt>
      <trkpt lat="45.69313" lon="4.07997">
        <ele>423</ele>
        <time>2016-04-23T07:35:30Z</time>
      </trkpt>
      <trkpt lat="45.69307" lon="4.07999">
        <ele>418</ele>
        <time>2016-04-23T07:35:45Z</time>
      </trkpt>
      <trkpt lat="45.693" lon="4.07997">
        <ele>417</ele>
        <time>2016-04-23T07:36:03Z</time>
      </trkpt>
      <trkpt lat="45.6929" lon="4.08005">
        <ele>413</ele>
        <time>2016-04-23T07:36:32Z</time>
      </trkpt>
      <trkpt lat="45.69286" lon="4.08018">
        <ele>412</ele>
        <time>2016-04-23T07:36:41Z</time>
      </trkpt>
      <trkpt lat="45.69213" lon="4.08112">
        <ele>410</ele>
        <time>2016-04-23T07:38:03Z</time>
      </trkpt>
      <trkpt lat="45.69205" lon="4.08121">
        <ele>409</ele>
        <time>2016-04-23T07:38:13Z</time>
      </trkpt>
      <trkpt lat="45.69198" lon="4.08131">
        <ele>408</ele>
        <time>2016-04-23T07:38:22Z</time>
      </trkpt>
      <trkpt lat="45.6918" lon="4.08147">
        <ele>402</ele>
        <time>2016-04-23T07:39:02Z</time>
      </trkpt>
      <trkpt lat="45.69166" lon="4.08155">
        <ele>401</ele>
        <time>2016-04-23T07:39:15Z</time>
      </trkpt>
      <trkpt lat="45.69116" lon="4.08162">
        <ele>405</ele>
        <time>2016-04-23T07:39:59Z</time>
      </trkpt>
      <trkpt lat="45.69066" lon="4.08159">
        <ele>415</ele>
        <time>2016-04-23T07:40:55Z</time>
      </trkpt>
      <trkpt lat="45.69061" lon="4.08157">
        <ele>415</ele>
        <time>2016-04-23T07:41:00Z</time>
      </trkpt>
      <trkpt lat="45.69056" lon="4.08155">
        <ele>414</ele>
        <time>2016-04-23T07:41:05Z</time>
      </trkpt>
      <trkpt lat="45.69051" lon="4.08153">
        <ele>414</ele>
        <time>2016-04-23T07:41:10Z</time>
      </trkpt>
      <trkpt lat="45.6902" lon="4.08129">
        <ele>421</ele>
        <time>2016-04-23T07:41:44Z</time>
      </trkpt>
      <trkpt lat="45.69002" lon="4.08105">
        <ele>424</ele>
        <time>2016-04-23T07:42:07Z</time>
      </trkpt>
      <trkpt lat="45.68977" lon="4.08088">
        <ele>426</ele>
        <time>2016-04-23T07:42:38Z</time>
      </trkpt>
      <trkpt lat="45.68973" lon="4.08085">
        <ele>427</ele>
        <time>2016-04-23T07:42:48Z</time>
      </trkpt>
      <trkpt lat="45.68975" lon="4.08068">
        <ele>427</ele>
        <time>2016-04-23T07:43:34Z</time>
      </trkpt>
      <trkpt lat="45.6897" lon="4.0801">
        <ele>427</ele>
        <time>2016-04-23T07:44:10Z</time>
      </trkpt>
      <trkpt lat="45.68969" lon="4.08002">
        <ele>426</ele>
        <time>2016-04-23T07:44:19Z</time>
      </trkpt>
      <trkpt lat="45.68967" lon="4.07995">
        <ele>426</ele>
        <time>2016-04-23T07:44:23Z</time>
      </trkpt>
      <trkpt lat="45.68948" lon="4.07963">
        <ele>429</ele>
        <time>2016-04-23T07:44:52Z</time>
      </trkpt>
      <trkpt lat="45.6892" lon="4.07925">
        <ele>431</ele>
        <time>2016-04-23T07:45:30Z</time>
      </trkpt>
      <trkpt lat="45.68915" lon="4.07921">
        <ele>430</ele>
        <time>2016-04-23T07:45:50Z</time>
      </trkpt>
      <trkpt lat="45.68912" lon="4.07915">
        <ele>430</ele>
        <time>2016-04-23T07:45:55Z</time>
      </trkpt>
      <trkpt lat="45.68897" lon="4.07897">
        <ele>431</ele>
        <time>2016-04-23T07:46:12Z</time>
      </trkpt>
      <trkpt lat="45.68885" lon="4.07873">
        <ele>430</ele>
        <time>2016-04-23T07:46:32Z</time>
      </trkpt>
      <trkpt lat="45.68859" lon="4.0784">
        <ele>431</ele>
        <time>2016-04-23T07:47:04Z</time>
      </trkpt>
      <trkpt lat="45.68831" lon="4.07818">
        <ele>432</ele>
        <time>2016-04-23T07:47:38Z</time>
      </trkpt>
      <trkpt lat="45.68829" lon="4.07815">
        <ele>432</ele>
        <time>2016-04-23T07:48:29Z</time>
      </trkpt>
      <trkpt lat="45.68825" lon="4.07814">
        <ele>432</ele>
        <time>2016-04-23T07:48:39Z</time>
      </trkpt>
      <trkpt lat="45.68819" lon="4.07808">
        <ele>432</ele>
        <time>2016-04-23T07:48:59Z</time>
      </trkpt>
      <trkpt lat="45.68803" lon="4.07803">
        <ele>434</ele>
        <time>2016-04-23T07:49:11Z</time>
      </trkpt>
      <trkpt lat="45.68802" lon="4.078">
        <ele>432</ele>
        <time>2016-04-23T07:49:50Z</time>
      </trkpt>
      <trkpt lat="45.688" lon="4.07792">
        <ele>432</ele>
        <time>2016-04-23T07:50:24Z</time>
      </trkpt>
      <trkpt lat="45.68786" lon="4.07778">
        <ele>436</ele>
        <time>2016-04-23T07:50:45Z</time>
      </trkpt>
      <trkpt lat="45.68782" lon="4.07773">
        <ele>433</ele>
        <time>2016-04-23T07:51:02Z</time>
      </trkpt>
      <trkpt lat="45.68778" lon="4.07769">
        <ele>434</ele>
        <time>2016-04-23T07:51:06Z</time>
      </trkpt>
      <trkpt lat="45.68774" lon="4.07765">
        <ele>433</ele>
        <time>2016-04-23T07:51:10Z</time>
      </trkpt>
      <trkpt lat="45.68766" lon="4.07756">
        <ele>433</ele>
        <time>2016-04-23T07:51:18Z</time>
      </trkpt>
      <trkpt lat="45.68761" lon="4.07753">
        <ele>433</ele>
        <time>2016-04-23T07:51:22Z</time>
      </trkpt>
      <trkpt lat="45.68735" lon="4.07724">
        <ele>431</ele>
        <time>2016-04-23T07:51:56Z</time>
      </trkpt>
      <trkpt lat="45.6872" lon="4.077">
        <ele>430</ele>
        <time>2016-04-23T07:52:12Z</time>
      </trkpt>
      <trkpt lat="45.68712" lon="4.0769">
        <ele>429</ele>
        <time>2016-04-23T07:52:20Z</time>
      </trkpt>
      <trkpt lat="45.68705" lon="4.07678">
        <ele>429</ele>
        <time>2016-04-23T07:52:28Z</time>
      </trkpt>
      <trkpt lat="45.687" lon="4.07626">
        <ele>427</ele>
        <time>2016-04-23T07:52:57Z</time>
      </trkpt>
      <trkpt lat="45.68698" lon="4.0762">
        <ele>427</ele>
        <time>2016-04-23T07:53:01Z</time>
      </trkpt>
      <trkpt lat="45.68688" lon="4.07596">
        <ele>428</ele>
        <time>2016-04-23T07:53:16Z</time>
      </trkpt>
      <trkpt lat="45.68685" lon="4.07591">
        <ele>427</ele>
        <time>2016-04-23T07:53:20Z</time>
      </trkpt>
      <trkpt lat="45.68676" lon="4.07584">
        <ele>427</ele>
        <time>2016-04-23T07:53:28Z</time>
      </trkpt>
      <trkpt lat="45.68662" lon="4.07585">
        <ele>426</ele>
        <time>2016-04-23T07:53:40Z</time>
      </trkpt>
      <trkpt lat="45.68657" lon="4.07587">
        <ele>426</ele>
        <time>2016-04-23T07:53:44Z</time>
      </trkpt>
      <trkpt lat="45.68652" lon="4.0759">
        <ele>426</ele>
        <time>2016-04-23T07:53:48Z</time>
      </trkpt>
      <trkpt lat="45.68617" lon="4.07594">
        <ele>427</ele>
        <time>2016-04-23T07:54:16Z</time>
      </trkpt>
      <trkpt lat="45.68606" lon="4.07593">
        <ele>427</ele>
        <time>2016-04-23T07:54:25Z</time>
      </trkpt>
      <trkpt lat="45.68596" lon="4.07591">
        <ele>427</ele>
        <time>2016-04-23T07:54:55Z</time>
      </trkpt>
      <trkpt lat="45.68591" lon="4.07589">
        <ele>427</ele>
        <time>2016-04-23T07:55:15Z</time>
      </trkpt>
      <trkpt lat="45.68586" lon="4.07587">
        <ele>427</ele>
        <time>2016-04-23T07:55:19Z</time>
      </trkpt>
      <trkpt lat="45.6848" lon="4.07519">
        <ele>424</ele>
        <time>2016-04-23T07:56:52Z</time>
      </trkpt>
      <trkpt lat="45.6847" lon="4.07515">
        <ele>424</ele>
        <time>2016-04-23T07:57:01Z</time>
      </trkpt>
      <trkpt lat="45.68415" lon="4.07478">
        <ele>427</ele>
        <time>2016-04-23T07:57:50Z</time>
      </trkpt>
      <trkpt lat="45.68402" lon="4.07466">
        <ele>427</ele>
        <time>2016-04-23T07:58:03Z</time>
      </trkpt>
      <trkpt lat="45.68398" lon="4.07461">
        <ele>426</ele>
        <time>2016-04-23T07:58:07Z</time>
      </trkpt>
      <trkpt lat="45.68366" lon="4.07436">
        <ele>426</ele>
        <time>2016-04-23T07:58:40Z</time>
      </trkpt>
      <trkpt lat="45.68362" lon="4.07433">
        <ele>426</ele>
        <time>2016-04-23T07:58:44Z</time>
      </trkpt>
      <trkpt lat="45.68346" lon="4.07432">
        <ele>425</ele>
        <time>2016-04-23T07:58:55Z</time>
      </trkpt>
      <trkpt lat="45.68326" lon="4.07424">
        <ele>425</ele>
        <time>2016-04-23T07:59:12Z</time>
      </trkpt>
      <trkpt lat="45.68315" lon="4.07423">
        <ele>424</ele>
        <time>2016-04-23T07:59:22Z</time>
      </trkpt>
      <trkpt lat="45.68305" lon="4.07421">
        <ele>425</ele>
        <time>2016-04-23T07:59:31Z</time>
      </trkpt>
      <trkpt lat="45.68266" lon="4.07384">
        <ele>424</ele>
        <time>2016-04-23T08:00:08Z</time>
      </trkpt>
      <trkpt lat="45.68248" lon="4.07373">
        <ele>424</ele>
        <time>2016-04-23T08:00:24Z</time>
      </trkpt>
      <trkpt lat="45.68231" lon="4.07355">
        <ele>421</ele>
        <time>2016-04-23T08:00:39Z</time>
      </trkpt>
      <trkpt lat="45.68226" lon="4.07353">
        <ele>421</ele>
        <time>2016-04-23T08:00:43Z</time>
      </trkpt>
      <trkpt lat="45.68201" lon="4.07349">
        <ele>424</ele>
        <time>2016-04-23T08:01:03Z</time>
      </trkpt>
      <trkpt lat="45.68181" lon="4.07342">
        <ele>425</ele>
        <time>2016-04-23T08:01:20Z</time>
      </trkpt>
      <trkpt lat="45.68171" lon="4.07336">
        <ele>425</ele>
        <time>2016-04-23T08:01:28Z</time>
      </trkpt>
      <trkpt lat="45.68161" lon="4.07335">
        <ele>426</ele>
        <time>2016-04-23T08:01:37Z</time>
      </trkpt>
      <trkpt lat="45.68156" lon="4.07333">
        <ele>426</ele>
        <time>2016-04-23T08:01:42Z</time>
      </trkpt>
      <trkpt lat="45.6815" lon="4.0733">
        <ele>426</ele>
        <time>2016-04-23T08:01:53Z</time>
      </trkpt>
      <trkpt lat="45.68145" lon="4.07328">
        <ele>426</ele>
        <time>2016-04-23T08:01:58Z</time>
      </trkpt>
      <trkpt lat="45.68129" lon="4.07322">
        <ele>424</ele>
        <time>2016-04-23T08:02:10Z</time>
      </trkpt>
      <trkpt lat="45.68089" lon="4.07318">
        <ele>423</ele>
        <time>2016-04-23T08:02:44Z</time>
      </trkpt>
      <trkpt lat="45.68027" lon="4.07316">
        <ele>424</ele>
        <time>2016-04-23T08:03:34Z</time>
      </trkpt>
      <trkpt lat="45.68001" lon="4.0732">
        <ele>426</ele>
        <time>2016-04-23T08:03:57Z</time>
      </trkpt>
      <trkpt lat="45.67971" lon="4.07317">
        <ele>425</ele>
        <time>2016-04-23T08:04:21Z</time>
      </trkpt>
      <trkpt lat="45.67966" lon="4.07316">
        <ele>424</ele>
        <time>2016-04-23T08:04:25Z</time>
      </trkpt>
      <trkpt lat="45.67962" lon="4.07315">
        <ele>424</ele>
        <time>2016-04-23T08:04:29Z</time>
      </trkpt>
      <trkpt lat="45.67918" lon="4.07307">
        <ele>423</ele>
        <time>2016-04-23T08:05:07Z</time>
      </trkpt>
      <trkpt lat="45.67874" lon="4.07312">
        <ele>423</ele>
        <time>2016-04-23T08:05:44Z</time>
      </trkpt>
      <trkpt lat="45.67869" lon="4.07311">
        <ele>424</ele>
        <time>2016-04-23T08:05:48Z</time>
      </trkpt>
      <trkpt lat="45.67824" lon="4.07314">
        <ele>425</ele>
        <time>2016-04-23T08:06:36Z</time>
      </trkpt>
      <trkpt lat="45.67787" lon="4.0731">
        <ele>424</ele>
        <time>2016-04-23T08:07:06Z</time>
      </trkpt>
      <trkpt lat="45.67701" lon="4.07274">
        <ele>423</ele>
        <time>2016-04-23T08:08:22Z</time>
      </trkpt>
      <trkpt lat="45.67663" lon="4.07263">
        <ele>421</ele>
        <time>2016-04-23T08:08:55Z</time>
      </trkpt>
      <trkpt lat="45.67658" lon="4.07262">
        <ele>420</ele>
        <time>2016-04-23T08:08:59Z</time>
      </trkpt>
      <trkpt lat="45.6765" lon="4.07261">
        <ele>419</ele>
        <time>2016-04-23T08:09:12Z</time>
      </trkpt>
      <trkpt lat="45.67645" lon="4.07258">
        <ele>419</ele>
        <time>2016-04-23T08:09:40Z</time>
      </trkpt>
      <trkpt lat="45.67577" lon="4.07238">
        <ele>417</ele>
        <time>2016-04-23T08:10:37Z</time>
      </trkpt>
      <trkpt lat="45.67521" lon="4.0723">
        <ele>417</ele>
        <time>2016-04-23T08:11:20Z</time>
      </trkpt>
      <trkpt lat="45.67467" lon="4.07212">
        <ele>414</ele>
        <time>2016-04-23T08:12:05Z</time>
      </trkpt>
      <trkpt lat="45.67463" lon="4.07209">
        <ele>414</ele>
        <time>2016-04-23T08:12:10Z</time>
      </trkpt>
      <trkpt lat="45.67428" lon="4.07179">
        <ele>411</ele>
        <time>2016-04-23T08:12:42Z</time>
      </trkpt>
      <trkpt lat="45.67403" lon="4.07135">
        <ele>409</ele>
        <time>2016-04-23T08:13:14Z</time>
      </trkpt>
      <trkpt lat="45.67371" lon="4.07099">
        <ele>406</ele>
        <time>2016-04-23T08:13:47Z</time>
      </trkpt>
      <trkpt lat="45.6736" lon="4.07084">
        <ele>404</ele>
        <time>2016-04-23T08:13:59Z</time>
      </trkpt>
      <trkpt lat="45.67347" lon="4.07044">
        <ele>402</ele>
        <time>2016-04-23T08:14:25Z</time>
      </trkpt>
      <trkpt lat="45.67342" lon="4.07046">
        <ele>402</ele>
        <time>2016-04-23T08:14:33Z</time>
      </trkpt>
      <trkpt lat="45.67325" lon="4.07059">
        <ele>402</ele>
        <time>2016-04-23T08:14:48Z</time>
      </trkpt>
      <trkpt lat="45.67319" lon="4.07059">
        <ele>401</ele>
        <time>2016-04-23T08:14:52Z</time>
      </trkpt>
      <trkpt lat="45.67313" lon="4.0706">
        <ele>401</ele>
        <time>2016-04-23T08:14:56Z</time>
      </trkpt>
      <trkpt lat="45.67308" lon="4.07062">
        <ele>402</ele>
        <time>2016-04-23T08:15:00Z</time>
      </trkpt>
      <trkpt lat="45.67291" lon="4.07073">
        <ele>401</ele>
        <time>2016-04-23T08:15:17Z</time>
      </trkpt>
      <trkpt lat="45.67289" lon="4.07067">
        <ele>401</ele>
        <time>2016-04-23T08:15:27Z</time>
      </trkpt>
      <trkpt lat="45.67283" lon="4.07071">
        <ele>401</ele>
        <time>2016-04-23T08:15:39Z</time>
      </trkpt>
      <trkpt lat="45.67285" lon="4.07075">
        <ele>401</ele>
        <time>2016-04-23T08:17:42Z</time>
      </trkpt>
      <trkpt lat="45.67281" lon="4.07077">
        <ele>401</ele>
        <time>2016-04-23T08:17:45Z</time>
      </trkpt>
      <trkpt lat="45.67283" lon="4.07073">
        <ele>400</ele>
        <time>2016-04-23T08:18:32Z</time>
      </trkpt>
      <trkpt lat="45.67285" lon="4.07071">
        <ele>399</ele>
        <time>2016-04-23T08:19:33Z</time>
      </trkpt>
      <trkpt lat="45.67279" lon="4.0707">
        <ele>398</ele>
        <time>2016-04-23T08:19:53Z</time>
      </trkpt>
      <trkpt lat="45.67273" lon="4.07071">
        <ele>396</ele>
        <time>2016-04-23T08:20:02Z</time>
      </trkpt>
      <trkpt lat="45.67268" lon="4.07073">
        <ele>396</ele>
        <time>2016-04-23T08:20:07Z</time>
      </trkpt>
      <trkpt lat="45.67261" lon="4.07084">
        <ele>396</ele>
        <time>2016-04-23T08:20:15Z</time>
      </trkpt>
      <trkpt lat="45.67257" lon="4.07088">
        <ele>395</ele>
        <time>2016-04-23T08:20:20Z</time>
      </trkpt>
      <trkpt lat="45.67247" lon="4.07093">
        <ele>395</ele>
        <time>2016-04-23T08:20:30Z</time>
      </trkpt>
      <trkpt lat="45.67242" lon="4.07093">
        <ele>395</ele>
        <time>2016-04-23T08:20:36Z</time>
      </trkpt>
      <trkpt lat="45.67233" lon="4.07097">
        <ele>395</ele>
        <time>2016-04-23T08:20:46Z</time>
      </trkpt>
      <trkpt lat="45.67237" lon="4.07077">
        <ele>392</ele>
        <time>2016-04-23T08:21:10Z</time>
      </trkpt>
      <trkpt lat="45.67237" lon="4.07061">
        <ele>391</ele>
        <time>2016-04-23T08:21:17Z</time>
      </trkpt>
      <trkpt lat="45.67244" lon="4.07051">
        <ele>391</ele>
        <time>2016-04-23T08:21:21Z</time>
      </trkpt>
      <trkpt lat="45.67246" lon="4.07035">
        <ele>390</ele>
        <time>2016-04-23T08:21:32Z</time>
      </trkpt>
      <trkpt lat="45.67241" lon="4.07033">
        <ele>390</ele>
        <time>2016-04-23T08:21:34Z</time>
      </trkpt>
      <trkpt lat="45.67228" lon="4.07022">
        <ele>389</ele>
        <time>2016-04-23T08:21:42Z</time>
      </trkpt>
      <trkpt lat="45.67217" lon="4.06981">
        <ele>388</ele>
        <time>2016-04-23T08:22:06Z</time>
      </trkpt>
      <trkpt lat="45.67208" lon="4.06926">
        <ele>385</ele>
        <time>2016-04-23T08:22:37Z</time>
      </trkpt>
      <trkpt lat="45.67205" lon="4.0692">
        <ele>384</ele>
        <time>2016-04-23T08:22:44Z</time>
      </trkpt>
      <trkpt lat="45.67196" lon="4.06904">
        <ele>383</ele>
        <time>2016-04-23T08:23:01Z</time>
      </trkpt>
      <trkpt lat="45.67197" lon="4.06897">
        <ele>383</ele>
        <time>2016-04-23T08:23:04Z</time>
      </trkpt>
      <trkpt lat="45.67194" lon="4.06884">
        <ele>382</ele>
        <time>2016-04-23T08:23:10Z</time>
      </trkpt>
      <trkpt lat="45.67191" lon="4.06879">
        <ele>381</ele>
        <time>2016-04-23T08:23:16Z</time>
      </trkpt>
      <trkpt lat="45.67146" lon="4.06789">
        <ele>378</ele>
        <time>2016-04-23T08:24:26Z</time>
      </trkpt>
      <trkpt lat="45.67141" lon="4.06785">
        <ele>378</ele>
        <time>2016-04-23T08:24:32Z</time>
      </trkpt>
      <trkpt lat="45.67125" lon="4.06786">
        <ele>379</ele>
        <time>2016-04-23T08:24:50Z</time>
      </trkpt>
      <trkpt lat="45.67124" lon="4.06781">
        <ele>386</ele>
        <time>2016-04-23T08:25:55Z</time>
      </trkpt>
      <trkpt lat="45.67124" lon="4.06775">
        <ele>386</ele>
        <time>2016-04-23T08:26:05Z</time>
      </trkpt>
      <trkpt lat="45.67115" lon="4.06777">
        <ele>386</ele>
        <time>2016-04-23T08:26:48Z</time>
      </trkpt>
      <trkpt lat="45.67111" lon="4.06778">
        <ele>385</ele>
        <time>2016-04-23T08:26:52Z</time>
      </trkpt>
      <trkpt lat="45.67106" lon="4.06776">
        <ele>385</ele>
        <time>2016-04-23T08:26:57Z</time>
      </trkpt>
      <trkpt lat="45.67068" lon="4.06735">
        <ele>385</ele>
        <time>2016-04-23T08:27:34Z</time>
      </trkpt>
      <trkpt lat="45.67032" lon="4.06705">
        <ele>385</ele>
        <time>2016-04-23T08:28:06Z</time>
      </trkpt>
      <trkpt lat="45.66747" lon="4.06513">
        <ele>389</ele>
        <time>2016-04-23T08:32:02Z</time>
      </trkpt>
      <trkpt lat="45.66679" lon="4.06442">
        <ele>388</ele>
        <time>2016-04-23T08:33:07Z</time>
      </trkpt>
      <trkpt lat="45.66641" lon="4.06393">
        <ele>385</ele>
        <time>2016-04-23T08:33:52Z</time>
      </trkpt>
      <trkpt lat="45.66615" lon="4.0634">
        <ele>384</ele>
        <time>2016-04-23T08:34:29Z</time>
      </trkpt>
      <trkpt lat="45.66596" lon="4.06288">
        <ele>383</ele>
        <time>2016-04-23T08:35:01Z</time>
      </trkpt>
      <trkpt lat="45.66571" lon="4.06111">
        <ele>383</ele>
        <time>2016-04-23T08:36:48Z</time>
      </trkpt>
      <trkpt lat="45.6657" lon="4.06047">
        <ele>385</ele>
        <time>2016-04-23T08:37:25Z</time>
      </trkpt>
      <trkpt lat="45.66565" lon="4.06025">
        <ele>385</ele>
        <time>2016-04-23T08:37:37Z</time>
      </trkpt>
      <trkpt lat="45.66562" lon="4.06019">
        <ele>385</ele>
        <time>2016-04-23T08:37:41Z</time>
      </trkpt>
      <trkpt lat="45.66504" lon="4.05909">
        <ele>385</ele>
        <time>2016-04-23T08:39:02Z</time>
      </trkpt>
      <trkpt lat="45.66483" lon="4.05888">
        <ele>383</ele>
        <time>2016-04-23T08:39:23Z</time>
      </trkpt>
      <trkpt lat="45.66419" lon="4.05873">
        <ele>385</ele>
        <time>2016-04-23T08:40:15Z</time>
      </trkpt>
      <trkpt lat="45.66414" lon="4.0587">
        <ele>386</ele>
        <time>2016-04-23T08:40:20Z</time>
      </trkpt>
      <trkpt lat="45.66405" lon="4.05862">
        <ele>386</ele>
        <time>2016-04-23T08:40:28Z</time>
      </trkpt>
      <trkpt lat="45.66394" lon="4.05838">
        <ele>386</ele>
        <time>2016-04-23T08:40:46Z</time>
      </trkpt>
      <trkpt lat="45.66388" lon="4.05818">
        <ele>388</ele>
        <time>2016-04-23T08:41:00Z</time>
      </trkpt>
      <trkpt lat="45.66381" lon="4.05809">
        <ele>387</ele>
        <time>2016-04-23T08:41:09Z</time>
      </trkpt>
      <trkpt lat="45.66285" lon="4.05737">
        <ele>385</ele>
        <time>2016-04-23T08:42:37Z</time>
      </trkpt>
      <trkpt lat="45.66221" lon="4.05697">
        <ele>386</ele>
        <time>2016-04-23T08:43:34Z</time>
      </trkpt>
      <trkpt lat="45.66085" lon="4.05656">
        <ele>385</ele>
        <time>2016-04-23T08:45:38Z</time>
      </trkpt>
      <trkpt lat="45.6608" lon="4.05656">
        <ele>385</ele>
        <time>2016-04-23T08:46:05Z</time>
      </trkpt>
      <trkpt lat="45.6606" lon="4.0565">
        <ele>387</ele>
        <time>2016-04-23T08:46:21Z</time>
      </trkpt>
      <trkpt lat="45.6605" lon="4.05648">
        <ele>385</ele>
        <time>2016-04-23T08:46:30Z</time>
      </trkpt>
      <trkpt lat="45.66011" lon="4.05635">
        <ele>384</ele>
        <time>2016-04-23T08:47:04Z</time>
      </trkpt>
      <trkpt lat="45.65977" lon="4.0563">
        <ele>382</ele>
        <time>2016-04-23T08:47:32Z</time>
      </trkpt>
      <trkpt lat="45.65972" lon="4.05631">
        <ele>382</ele>
        <time>2016-04-23T08:47:36Z</time>
      </trkpt>
      <trkpt lat="45.65967" lon="4.05633">
        <ele>382</ele>
        <time>2016-04-23T08:47:40Z</time>
      </trkpt>
      <trkpt lat="45.65952" lon="4.05634">
        <ele>384</ele>
        <time>2016-04-23T08:47:53Z</time>
      </trkpt>
      <trkpt lat="45.65947" lon="4.05632">
        <ele>385</ele>
        <time>2016-04-23T08:47:58Z</time>
      </trkpt>
      <trkpt lat="45.65943" lon="4.05628">
        <ele>385</ele>
        <time>2016-04-23T08:48:04Z</time>
      </trkpt>
      <trkpt lat="45.65938" lon="4.05628">
        <ele>385</ele>
        <time>2016-04-23T08:48:08Z</time>
      </trkpt>
      <trkpt lat="45.65913" lon="4.0562">
        <ele>384</ele>
        <time>2016-04-23T08:48:28Z</time>
      </trkpt>
      <trkpt lat="45.65903" lon="4.05619">
        <ele>385</ele>
        <time>2016-04-23T08:48:43Z</time>
      </trkpt>
      <trkpt lat="45.65888" lon="4.05616">
        <ele>383</ele>
        <time>2016-04-23T08:48:55Z</time>
      </trkpt>
      <trkpt lat="45.65848" lon="4.05578">
        <ele>384</ele>
        <time>2016-04-23T08:49:35Z</time>
      </trkpt>
      <trkpt lat="45.65819" lon="4.05563">
        <ele>385</ele>
        <time>2016-04-23T08:50:02Z</time>
      </trkpt>
      <trkpt lat="45.65815" lon="4.05558">
        <ele>385</ele>
        <time>2016-04-23T08:50:06Z</time>
      </trkpt>
      <trkpt lat="45.65813" lon="4.05552">
        <ele>385</ele>
        <time>2016-04-23T08:50:18Z</time>
      </trkpt>
      <trkpt lat="45.65736" lon="4.05477">
        <ele>379</ele>
        <time>2016-04-23T08:51:36Z</time>
      </trkpt>
      <trkpt lat="45.65727" lon="4.0547">
        <ele>380</ele>
        <time>2016-04-23T08:51:45Z</time>
      </trkpt>
      <trkpt lat="45.65599" lon="4.05305">
        <ele>381</ele>
        <time>2016-04-23T08:54:12Z</time>
      </trkpt>
      <trkpt lat="45.65595" lon="4.05302">
        <ele>381</ele>
        <time>2016-04-23T08:54:16Z</time>
      </trkpt>
      <trkpt lat="45.65589" lon="4.05301">
        <ele>381</ele>
        <time>2016-04-23T08:54:21Z</time>
      </trkpt>
      <trkpt lat="45.6557" lon="4.05306">
        <ele>381</ele>
        <time>2016-04-23T08:54:39Z</time>
      </trkpt>
      <trkpt lat="45.65565" lon="4.05309">
        <ele>382</ele>
        <time>2016-04-23T08:54:44Z</time>
      </trkpt>
      <trkpt lat="45.65545" lon="4.05316">
        <ele>382</ele>
        <time>2016-04-23T08:55:02Z</time>
      </trkpt>
      <trkpt lat="45.65504" lon="4.05309">
        <ele>382</ele>
        <time>2016-04-23T08:55:41Z</time>
      </trkpt>
      <trkpt lat="45.6543" lon="4.05287">
        <ele>383</ele>
        <time>2016-04-23T08:56:46Z</time>
      </trkpt>
      <trkpt lat="45.6537" lon="4.05274">
        <ele>385</ele>
        <time>2016-04-23T08:57:37Z</time>
      </trkpt>
      <trkpt lat="45.65361" lon="4.05271">
        <ele>385</ele>
        <time>2016-04-23T08:57:45Z</time>
      </trkpt>
      <trkpt lat="45.65353" lon="4.05263">
        <ele>386</ele>
        <time>2016-04-23T08:57:53Z</time>
      </trkpt>
      <trkpt lat="45.65341" lon="4.05232">
        <ele>383</ele>
        <time>2016-04-23T08:58:14Z</time>
      </trkpt>
      <trkpt lat="45.65337" lon="4.05227">
        <ele>383</ele>
        <time>2016-04-23T08:58:18Z</time>
      </trkpt>
      <trkpt lat="45.65298" lon="4.05217">
        <ele>385</ele>
        <time>2016-04-23T08:58:53Z</time>
      </trkpt>
      <trkpt lat="45.65278" lon="4.05216">
        <ele>386</ele>
        <time>2016-04-23T08:59:10Z</time>
      </trkpt>
      <trkpt lat="45.65274" lon="4.05217">
        <ele>386</ele>
        <time>2016-04-23T08:59:14Z</time>
      </trkpt>
      <trkpt lat="45.65259" lon="4.05216">
        <ele>387</ele>
        <time>2016-04-23T08:59:28Z</time>
      </trkpt>
      <trkpt lat="45.65249" lon="4.05212">
        <ele>388</ele>
        <time>2016-04-23T08:59:38Z</time>
      </trkpt>
      <trkpt lat="45.65246" lon="4.05207">
        <ele>389</ele>
        <time>2016-04-23T08:59:43Z</time>
      </trkpt>
      <trkpt lat="45.65238" lon="4.05188">
        <ele>389</ele>
        <time>2016-04-23T08:59:56Z</time>
      </trkpt>
      <trkpt lat="45.65207" lon="4.05144">
        <ele>387</ele>
        <time>2016-04-23T09:00:28Z</time>
      </trkpt>
      <trkpt lat="45.65203" lon="4.05141">
        <ele>387</ele>
        <time>2016-04-23T09:00:32Z</time>
      </trkpt>
      <trkpt lat="45.65169" lon="4.05105">
        <ele>388</ele>
        <time>2016-04-23T09:01:04Z</time>
      </trkpt>
      <trkpt lat="45.65164" lon="4.05106">
        <ele>388</ele>
        <time>2016-04-23T09:01:08Z</time>
      </trkpt>
      <trkpt lat="45.65154" lon="4.05105">
        <ele>386</ele>
        <time>2016-04-23T09:01:51Z</time>
      </trkpt>
      <trkpt lat="45.65144" lon="4.05102">
        <ele>385</ele>
        <time>2016-04-23T09:02:00Z</time>
      </trkpt>
      <trkpt lat="45.65138" lon="4.05091">
        <ele>385</ele>
        <time>2016-04-23T09:02:08Z</time>
      </trkpt>
      <trkpt lat="45.65136" lon="4.05084">
        <ele>385</ele>
        <time>2016-04-23T09:02:13Z</time>
      </trkpt>
      <trkpt lat="45.65135" lon="4.05078">
        <ele>385</ele>
        <time>2016-04-23T09:02:17Z</time>
      </trkpt>
      <trkpt lat="45.65135" lon="4.05057">
        <ele>384</ele>
        <time>2016-04-23T09:02:32Z</time>
      </trkpt>
      <trkpt lat="45.65133" lon="4.0505">
        <ele>384</ele>
        <time>2016-04-23T09:02:37Z</time>
      </trkpt>
      <trkpt lat="45.65129" lon="4.05045">
        <ele>385</ele>
        <time>2016-04-23T09:02:41Z</time>
      </trkpt>
      <trkpt lat="45.6512" lon="4.0504">
        <ele>385</ele>
        <time>2016-04-23T09:02:49Z</time>
      </trkpt>
      <trkpt lat="45.65102" lon="4.05042">
        <ele>387</ele>
        <time>2016-04-23T09:03:18Z</time>
      </trkpt>
      <trkpt lat="45.65097" lon="4.05045">
        <ele>386</ele>
        <time>2016-04-23T09:03:23Z</time>
      </trkpt>
      <trkpt lat="45.65063" lon="4.05054">
        <ele>387</ele>
        <time>2016-04-23T09:03:56Z</time>
      </trkpt>
      <trkpt lat="45.65028" lon="4.05058">
        <ele>388</ele>
        <time>2016-04-23T09:04:27Z</time>
      </trkpt>
      <trkpt lat="45.65018" lon="4.0506">
        <ele>388</ele>
        <time>2016-04-23T09:04:35Z</time>
      </trkpt>
      <trkpt lat="45.64987" lon="4.05063">
        <ele>390</ele>
        <time>2016-04-23T09:05:06Z</time>
      </trkpt>
      <trkpt lat="45.64867" lon="4.05075">
        <ele>396</ele>
        <time>2016-04-23T09:06:51Z</time>
      </trkpt>
      <trkpt lat="45.64847" lon="4.05079">
        <ele>398</ele>
        <time>2016-04-23T09:07:07Z</time>
      </trkpt>
      <trkpt lat="45.64806" lon="4.05086">
        <ele>398</ele>
        <time>2016-04-23T09:07:40Z</time>
      </trkpt>
      <trkpt lat="45.64775" lon="4.05095">
        <ele>399</ele>
        <time>2016-04-23T09:08:05Z</time>
      </trkpt>
      <trkpt lat="45.6476" lon="4.05095">
        <ele>398</ele>
        <time>2016-04-23T09:08:17Z</time>
      </trkpt>
      <trkpt lat="45.64747" lon="4.05103">
        <ele>399</ele>
        <time>2016-04-23T09:08:29Z</time>
      </trkpt>
      <trkpt lat="45.64702" lon="4.0511">
        <ele>399</ele>
        <time>2016-04-23T09:09:08Z</time>
      </trkpt>
      <trkpt lat="45.64686" lon="4.05111">
        <ele>400</ele>
        <time>2016-04-23T09:09:21Z</time>
      </trkpt>
      <trkpt lat="45.64683" lon="4.05104">
        <ele>400</ele>
        <time>2016-04-23T09:09:26Z</time>
      </trkpt>
      <trkpt lat="45.64686" lon="4.05091">
        <ele>401</ele>
        <time>2016-04-23T09:09:34Z</time>
      </trkpt>
      <trkpt lat="45.64688" lon="4.0507">
        <ele>401</ele>
        <time>2016-04-23T09:09:48Z</time>
      </trkpt>
      <trkpt lat="45.6469" lon="4.05063">
        <ele>402</ele>
        <time>2016-04-23T09:10:02Z</time>
      </trkpt>
      <trkpt lat="45.64685" lon="4.05038">
        <ele>403</ele>
        <time>2016-04-23T09:10:15Z</time>
      </trkpt>
      <trkpt lat="45.6468" lon="4.05037">
        <ele>403</ele>
        <time>2016-04-23T09:10:21Z</time>
      </trkpt>
      <trkpt lat="45.64675" lon="4.0504">
        <ele>403</ele>
        <time>2016-04-23T09:10:25Z</time>
      </trkpt>
      <trkpt lat="45.64666" lon="4.0504">
        <ele>401</ele>
        <time>2016-04-23T09:10:35Z</time>
      </trkpt>
      <trkpt lat="45.64657" lon="4.05045">
        <ele>403</ele>
        <time>2016-04-23T09:10:43Z</time>
      </trkpt>
      <trkpt lat="45.64647" lon="4.05049">
        <ele>401</ele>
        <time>2016-04-23T09:10:52Z</time>
      </trkpt>
      <trkpt lat="45.64643" lon="4.05052">
        <ele>400</ele>
        <time>2016-04-23T09:10:56Z</time>
      </trkpt>
      <trkpt lat="45.6462" lon="4.05062">
        <ele>404</ele>
        <time>2016-04-23T09:11:16Z</time>
      </trkpt>
      <trkpt lat="45.64617" lon="4.05056">
        <ele>404</ele>
        <time>2016-04-23T09:11:20Z</time>
      </trkpt>
      <trkpt lat="45.64616" lon="4.05047">
        <ele>404</ele>
        <time>2016-04-23T09:11:32Z</time>
      </trkpt>
      <trkpt lat="45.64616" lon="4.05041">
        <ele>404</ele>
        <time>2016-04-23T09:11:36Z</time>
      </trkpt>
      <trkpt lat="45.64631" lon="4.04981">
        <ele>404</ele>
        <time>2016-04-23T09:12:12Z</time>
      </trkpt>
      <trkpt lat="45.64637" lon="4.04943">
        <ele>403</ele>
        <time>2016-04-23T09:13:00Z</time>
      </trkpt>
      <trkpt lat="45.64639" lon="4.04937">
        <ele>403</ele>
        <time>2016-04-23T09:13:04Z</time>
      </trkpt>
      <trkpt lat="45.64639" lon="4.04928">
        <ele>403</ele>
        <time>2016-04-23T09:13:08Z</time>
      </trkpt>
      <trkpt lat="45.64641" lon="4.04918">
        <ele>404</ele>
        <time>2016-04-23T09:13:14Z</time>
      </trkpt>
      <trkpt lat="45.64643" lon="4.04912">
        <ele>404</ele>
        <time>2016-04-23T09:13:19Z</time>
      </trkpt>
      <trkpt lat="45.64662" lon="4.04836">
        <ele>405</ele>
        <time>2016-04-23T09:14:54Z</time>
      </trkpt>
      <trkpt lat="45.64662" lon="4.04828">
        <ele>406</ele>
        <time>2016-04-23T09:14:58Z</time>
      </trkpt>
      <trkpt lat="45.64667" lon="4.04777">
        <ele>407</ele>
        <time>2016-04-23T09:15:25Z</time>
      </trkpt>
      <trkpt lat="45.64669" lon="4.0477">
        <ele>406</ele>
        <time>2016-04-23T09:15:29Z</time>
      </trkpt>
      <trkpt lat="45.64672" lon="4.04764">
        <ele>406</ele>
        <time>2016-04-23T09:15:33Z</time>
      </trkpt>
      <trkpt lat="45.64681" lon="4.04716">
        <ele>407</ele>
        <time>2016-04-23T09:16:02Z</time>
      </trkpt>
      <trkpt lat="45.64677" lon="4.0471">
        <ele>406</ele>
        <time>2016-04-23T09:16:40Z</time>
      </trkpt>
      <trkpt lat="45.64667" lon="4.04705">
        <ele>405</ele>
        <time>2016-04-23T09:16:49Z</time>
      </trkpt>
      <trkpt lat="45.64663" lon="4.04705">
        <ele>404</ele>
        <time>2016-04-23T09:16:52Z</time>
      </trkpt>
      <trkpt lat="45.64624" lon="4.04695">
        <ele>404</ele>
        <time>2016-04-23T09:17:24Z</time>
      </trkpt>
      <trkpt lat="45.6461" lon="4.04686">
        <ele>404</ele>
        <time>2016-04-23T09:17:41Z</time>
      </trkpt>
      <trkpt lat="45.646" lon="4.04685">
        <ele>404</ele>
        <time>2016-04-23T09:18:07Z</time>
      </trkpt>
      <trkpt lat="45.64566" lon="4.04672">
        <ele>403</ele>
        <time>2016-04-23T09:18:40Z</time>
      </trkpt>
      <trkpt lat="45.64556" lon="4.0467">
        <ele>403</ele>
        <time>2016-04-23T09:18:49Z</time>
      </trkpt>
      <trkpt lat="45.6455" lon="4.04662">
        <ele>403</ele>
        <time>2016-04-23T09:19:02Z</time>
      </trkpt>
      <trkpt lat="45.64547" lon="4.04656">
        <ele>402</ele>
        <time>2016-04-23T09:19:10Z</time>
      </trkpt>
      <trkpt lat="45.64531" lon="4.04649">
        <ele>394</ele>
        <time>2016-04-23T09:19:27Z</time>
      </trkpt>
      <trkpt lat="45.64525" lon="4.04648">
        <ele>394</ele>
        <time>2016-04-23T09:19:31Z</time>
      </trkpt>
      <trkpt lat="45.64512" lon="4.04638">
        <ele>398</ele>
        <time>2016-04-23T09:19:44Z</time>
      </trkpt>
      <trkpt lat="45.64511" lon="4.04634">
        <ele>401</ele>
        <time>2016-04-23T09:19:52Z</time>
      </trkpt>
      <trkpt lat="45.64511" lon="4.04628">
        <ele>401</ele>
        <time>2016-04-23T09:20:28Z</time>
      </trkpt>
      <trkpt lat="45.64507" lon="4.04623">
        <ele>401</ele>
        <time>2016-04-23T09:20:32Z</time>
      </trkpt>
      <trkpt lat="45.64506" lon="4.04615">
        <ele>401</ele>
        <time>2016-04-23T09:20:35Z</time>
      </trkpt>
      <trkpt lat="45.64507" lon="4.04608">
        <ele>401</ele>
        <time>2016-04-23T09:20:39Z</time>
      </trkpt>
      <trkpt lat="45.64515" lon="4.04598">
        <ele>402</ele>
        <time>2016-04-23T09:20:48Z</time>
      </trkpt>
      <trkpt lat="45.64522" lon="4.04577">
        <ele>400</ele>
        <time>2016-04-23T09:21:16Z</time>
      </trkpt>
      <trkpt lat="45.64527" lon="4.04542">
        <ele>400</ele>
        <time>2016-04-23T09:21:39Z</time>
      </trkpt>
      <trkpt lat="45.64528" lon="4.04535">
        <ele>399</ele>
        <time>2016-04-23T09:21:44Z</time>
      </trkpt>
      <trkpt lat="45.64525" lon="4.0453">
        <ele>399</ele>
        <time>2016-04-23T09:21:49Z</time>
      </trkpt>
      <trkpt lat="45.64524" lon="4.04527">
        <ele>401</ele>
        <time>2016-04-23T09:22:06Z</time>
      </trkpt>
      <trkpt lat="45.64519" lon="4.04525">
        <ele>402</ele>
        <time>2016-04-23T09:22:12Z</time>
      </trkpt>
      <trkpt lat="45.64514" lon="4.04524">
        <ele>401</ele>
        <time>2016-04-23T09:22:17Z</time>
      </trkpt>
      <trkpt lat="45.64491" lon="4.04534">
        <ele>401</ele>
        <time>2016-04-23T09:22:32Z</time>
      </trkpt>
      <trkpt lat="45.64489" lon="4.04527">
        <ele>403</ele>
        <time>2016-04-23T09:23:20Z</time>
      </trkpt>
      <trkpt lat="45.64484" lon="4.04524">
        <ele>402</ele>
        <time>2016-04-23T09:23:21Z</time>
      </trkpt>
      <trkpt lat="45.6448" lon="4.04519">
        <ele>402</ele>
        <time>2016-04-23T09:23:22Z</time>
      </trkpt>
      <trkpt lat="45.64468" lon="4.04523">
        <ele>401</ele>
        <time>2016-04-23T09:23:29Z</time>
      </trkpt>
      <trkpt lat="45.64451" lon="4.04556">
        <ele>405</ele>
        <time>2016-04-23T09:23:51Z</time>
      </trkpt>
      <trkpt lat="45.64444" lon="4.04546">
        <ele>407</ele>
        <time>2016-04-23T09:23:57Z</time>
      </trkpt>
      <trkpt lat="45.64444" lon="4.0453">
        <ele>407</ele>
        <time>2016-04-23T09:24:06Z</time>
      </trkpt>
      <trkpt lat="45.64441" lon="4.04526">
        <ele>404</ele>
        <time>2016-04-23T09:25:02Z</time>
      </trkpt>
      <trkpt lat="45.64437" lon="4.04531">
        <ele>404</ele>
        <time>2016-04-23T09:33:45Z</time>
      </trkpt>
      <trkpt lat="45.64432" lon="4.04518">
        <ele>404</ele>
        <time>2016-04-23T09:34:15Z</time>
      </trkpt>
      <trkpt lat="45.64439" lon="4.04524">
        <ele>404</ele>
        <time>2016-04-23T09:36:36Z</time>
      </trkpt>
      <trkpt lat="45.64441" lon="4.04537">
        <ele>404</ele>
        <time>2016-04-23T09:36:51Z</time>
      </trkpt>
      <trkpt lat="45.64438" lon="4.04536">
        <ele>404</ele>
        <time>2016-04-23T09:37:09Z</time>
      </trkpt>
      <trkpt lat="45.64437" lon="4.04529">
        <ele>404</ele>
        <time>2016-04-23T09:37:28Z</time>
      </trkpt>
      <trkpt lat="45.64437" lon="4.04526">
        <ele>404</ele>
        <time>2016-04-23T09:37:40Z</time>
      </trkpt>
      <trkpt lat="45.64437" lon="4.04518">
        <ele>404</ele>
        <time>2016-04-23T09:37:51Z</time>
      </trkpt>
      <trkpt lat="45.64435" lon="4.04519">
        <ele>404</ele>
        <time>2016-04-23T09:38:03Z</time>
      </trkpt>
      <trkpt lat="45.64431" lon="4.04524">
        <ele>404</ele>
        <time>2016-04-23T09:38:10Z</time>
      </trkpt>
      <trkpt lat="45.64428" lon="4.04538">
        <ele>404</ele>
        <time>2016-04-23T09:38:21Z</time>
      </trkpt>
      <trkpt lat="45.64426" lon="4.04535">
        <ele>404</ele>
        <time>2016-04-23T09:38:44Z</time>
      </trkpt>
      <trkpt lat="45.64431" lon="4.04522">
        <ele>404</ele>
        <time>2016-04-23T09:38:59Z</time>
      </trkpt>
      <trkpt lat="45.64435" lon="4.04525">
        <ele>405</ele>
        <time>2016-04-23T09:39:03Z</time>
      </trkpt>
      <trkpt lat="45.64438" lon="4.04531">
        <ele>404</ele>
        <time>2016-04-23T09:39:06Z</time>
      </trkpt>
      <trkpt lat="45.64445" lon="4.0456">
        <ele>404</ele>
        <time>2016-04-23T09:46:30Z</time>
      </trkpt>
      <trkpt lat="45.64445" lon="4.04548">
        <ele>402</ele>
        <time>2016-04-23T09:46:33Z</time>
      </trkpt>
      <trkpt lat="45.64447" lon="4.04541">
        <ele>399</ele>
        <time>2016-04-23T09:46:36Z</time>
      </trkpt>
      <trkpt lat="45.64451" lon="4.04537">
        <ele>397</ele>
        <time>2016-04-23T09:46:40Z</time>
      </trkpt>
      <trkpt lat="45.64455" lon="4.04531">
        <ele>397</ele>
        <time>2016-04-23T09:46:44Z</time>
      </trkpt>
      <trkpt lat="45.64458" lon="4.04531">
        <ele>397</ele>
        <time>2016-04-23T09:46:51Z</time>
      </trkpt>
      <trkpt lat="45.64463" lon="4.04533">
        <ele>397</ele>
        <time>2016-04-23T09:47:02Z</time>
      </trkpt>
      <trkpt lat="45.64467" lon="4.04536">
        <ele>397</ele>
        <time>2016-04-23T09:47:09Z</time>
      </trkpt>
      <trkpt lat="45.64473" lon="4.04535">
        <ele>398</ele>
        <time>2016-04-23T09:47:15Z</time>
      </trkpt>
      <trkpt lat="45.64475" lon="4.04542">
        <ele>401</ele>
        <time>2016-04-23T09:47:21Z</time>
      </trkpt>
      <trkpt lat="45.64473" lon="4.04549">
        <ele>402</ele>
        <time>2016-04-23T09:47:26Z</time>
      </trkpt>
      <trkpt lat="45.64469" lon="4.04559">
        <ele>405</ele>
        <time>2016-04-23T09:47:40Z</time>
      </trkpt>
      <trkpt lat="45.64471" lon="4.04563">
        <ele>405</ele>
        <time>2016-04-23T09:47:58Z</time>
      </trkpt>
      <trkpt lat="45.64469" lon="4.04567">
        <ele>404</ele>
        <time>2016-04-23T09:48:09Z</time>
      </trkpt>
      <trkpt lat="45.64451" lon="4.04538">
        <ele>404</ele>
        <time>2016-04-23T09:48:30Z</time>
      </trkpt>
      <trkpt lat="45.64446" lon="4.04551">
        <ele>404</ele>
        <time>2016-04-23T09:48:33Z</time>
      </trkpt>
      <trkpt lat="45.6445" lon="4.04563">
        <ele>403</ele>
        <time>2016-04-23T09:48:45Z</time>
      </trkpt>
      <trkpt lat="45.6446" lon="4.04549">
        <ele>403</ele>
        <time>2016-04-23T09:49:41Z</time>
      </trkpt>
      <trkpt lat="45.64459" lon="4.04556">
        <ele>403</ele>
        <time>2016-04-23T09:49:47Z</time>
      </trkpt>
      <trkpt lat="45.64465" lon="4.04557">
        <ele>402</ele>
        <time>2016-04-23T09:49:50Z</time>
      </trkpt>
      <trkpt lat="45.64469" lon="4.04553">
        <ele>399</ele>
        <time>2016-04-23T09:49:54Z</time>
      </trkpt>
      <trkpt lat="45.64473" lon="4.04533">
        <ele>394</ele>
        <time>2016-04-23T09:50:09Z</time>
      </trkpt>
      <trkpt lat="45.64469" lon="4.0453">
        <ele>395</ele>
        <time>2016-04-23T09:50:13Z</time>
      </trkpt>
      <trkpt lat="45.64464" lon="4.04529">
        <ele>395</ele>
        <time>2016-04-23T09:50:16Z</time>
      </trkpt>
      <trkpt lat="45.64449" lon="4.04534">
        <ele>398</ele>
        <time>2016-04-23T09:50:29Z</time>
      </trkpt>
      <trkpt lat="45.64423" lon="4.04527">
        <ele>405</ele>
        <time>2016-04-23T09:50:54Z</time>
      </trkpt>
      <trkpt lat="45.64423" lon="4.04527">
        <ele>404</ele>
        <time>2016-04-23T09:51:24Z</time>
      </trkpt>
      <trkpt lat="45.64424" lon="4.0452">
        <ele>404</ele>
        <time>2016-04-23T09:51:29Z</time>
      </trkpt>
      <trkpt lat="45.6442" lon="4.04516">
        <ele>404</ele>
        <time>2016-04-23T09:51:33Z</time>
      </trkpt>
      <trkpt lat="45.64411" lon="4.04515">
        <ele>401</ele>
        <time>2016-04-23T09:51:40Z</time>
      </trkpt>
      <trkpt lat="45.64395" lon="4.04518">
        <ele>397</ele>
        <time>2016-04-23T09:51:54Z</time>
      </trkpt>
      <trkpt lat="45.64404" lon="4.04517">
        <ele>403</ele>
        <time>2016-04-23T09:53:59Z</time>
      </trkpt>
      <trkpt lat="45.64444" lon="4.04526">
        <ele>399</ele>
        <time>2016-04-23T09:54:35Z</time>
      </trkpt>
      <trkpt lat="45.64448" lon="4.04526">
        <ele>399</ele>
        <time>2016-04-23T09:54:39Z</time>
      </trkpt>
      <trkpt lat="45.64453" lon="4.04529">
        <ele>399</ele>
        <time>2016-04-23T09:54:46Z</time>
      </trkpt>
      <trkpt lat="45.64458" lon="4.0453">
        <ele>399</ele>
        <time>2016-04-23T09:54:51Z</time>
      </trkpt>
      <trkpt lat="45.64463" lon="4.0453">
        <ele>399</ele>
        <time>2016-04-23T09:54:55Z</time>
      </trkpt>
      <trkpt lat="45.64468" lon="4.04527">
        <ele>399</ele>
        <time>2016-04-23T09:54:59Z</time>
      </trkpt>
      <trkpt lat="45.64473" lon="4.04528">
        <ele>399</ele>
        <time>2016-04-23T09:55:03Z</time>
      </trkpt>
      <trkpt lat="45.64482" lon="4.04522">
        <ele>399</ele>
        <time>2016-04-23T09:55:10Z</time>
      </trkpt>
      <trkpt lat="45.64491" lon="4.04521">
        <ele>398</ele>
        <time>2016-04-23T09:55:16Z</time>
      </trkpt>
      <trkpt lat="45.64506" lon="4.04521">
        <ele>397</ele>
        <time>2016-04-23T09:55:37Z</time>
      </trkpt>
      <trkpt lat="45.64505" lon="4.04525">
        <ele>397</ele>
        <time>2016-04-23T09:55:43Z</time>
      </trkpt>
      <trkpt lat="45.64515" lon="4.04523">
        <ele>398</ele>
        <time>2016-04-23T09:55:56Z</time>
      </trkpt>
      <trkpt lat="45.64524" lon="4.04522">
        <ele>400</ele>
        <time>2016-04-23T09:56:02Z</time>
      </trkpt>
      <trkpt lat="45.64527" lon="4.04527">
        <ele>401</ele>
        <time>2016-04-23T09:56:05Z</time>
      </trkpt>
      <trkpt lat="45.64529" lon="4.04535">
        <ele>402</ele>
        <time>2016-04-23T09:56:08Z</time>
      </trkpt>
      <trkpt lat="45.64529" lon="4.04542">
        <ele>402</ele>
        <time>2016-04-23T09:56:12Z</time>
      </trkpt>
      <trkpt lat="45.64518" lon="4.04568">
        <ele>398</ele>
        <time>2016-04-23T09:56:28Z</time>
      </trkpt>
      <trkpt lat="45.64511" lon="4.04595">
        <ele>400</ele>
        <time>2016-04-23T09:56:44Z</time>
      </trkpt>
      <trkpt lat="45.64508" lon="4.04602">
        <ele>401</ele>
        <time>2016-04-23T09:56:49Z</time>
      </trkpt>
      <trkpt lat="45.64507" lon="4.04609">
        <ele>400</ele>
        <time>2016-04-23T09:56:54Z</time>
      </trkpt>
      <trkpt lat="45.64506" lon="4.04615">
        <ele>399</ele>
        <time>2016-04-23T09:56:59Z</time>
      </trkpt>
      <trkpt lat="45.645" lon="4.04614">
        <ele>397</ele>
        <time>2016-04-23T09:57:07Z</time>
      </trkpt>
      <trkpt lat="45.64496" lon="4.04612">
        <ele>397</ele>
        <time>2016-04-23T09:57:12Z</time>
      </trkpt>
      <trkpt lat="45.64477" lon="4.04623">
        <ele>396</ele>
        <time>2016-04-23T09:57:31Z</time>
      </trkpt>
      <trkpt lat="45.64472" lon="4.04624">
        <ele>396</ele>
        <time>2016-04-23T09:57:37Z</time>
      </trkpt>
      <trkpt lat="45.64467" lon="4.04625">
        <ele>397</ele>
        <time>2016-04-23T09:57:41Z</time>
      </trkpt>
      <trkpt lat="45.64441" lon="4.04624">
        <ele>396</ele>
        <time>2016-04-23T09:58:03Z</time>
      </trkpt>
      <trkpt lat="45.64431" lon="4.0462">
        <ele>397</ele>
        <time>2016-04-23T09:58:12Z</time>
      </trkpt>
      <trkpt lat="45.64427" lon="4.04615">
        <ele>397</ele>
        <time>2016-04-23T09:58:17Z</time>
      </trkpt>
      <trkpt lat="45.64418" lon="4.04613">
        <ele>397</ele>
        <time>2016-04-23T09:58:25Z</time>
      </trkpt>
      <trkpt lat="45.64408" lon="4.04609">
        <ele>398</ele>
        <time>2016-04-23T09:58:33Z</time>
      </trkpt>
      <trkpt lat="45.64404" lon="4.04605">
        <ele>398</ele>
        <time>2016-04-23T09:58:38Z</time>
      </trkpt>
      <trkpt lat="45.6438" lon="4.04593">
        <ele>399</ele>
        <time>2016-04-23T09:59:02Z</time>
      </trkpt>
      <trkpt lat="45.64367" lon="4.04601">
        <ele>400</ele>
        <time>2016-04-23T09:59:16Z</time>
      </trkpt>
      <trkpt lat="45.64363" lon="4.04604">
        <ele>400</ele>
        <time>2016-04-23T09:59:20Z</time>
      </trkpt>
      <trkpt lat="45.64353" lon="4.04606">
        <ele>401</ele>
        <time>2016-04-23T09:59:28Z</time>
      </trkpt>
      <trkpt lat="45.64348" lon="4.04607">
        <ele>400</ele>
        <time>2016-04-23T09:59:33Z</time>
      </trkpt>
      <trkpt lat="45.64328" lon="4.04608">
        <ele>402</ele>
        <time>2016-04-23T09:59:53Z</time>
      </trkpt>
      <trkpt lat="45.64324" lon="4.04613">
        <ele>402</ele>
        <time>2016-04-23T09:59:58Z</time>
      </trkpt>
      <trkpt lat="45.64317" lon="4.04647">
        <ele>401</ele>
        <time>2016-04-23T10:00:22Z</time>
      </trkpt>
      <trkpt lat="45.64309" lon="4.04655">
        <ele>399</ele>
        <time>2016-04-23T10:00:38Z</time>
      </trkpt>
      <trkpt lat="45.64289" lon="4.04657">
        <ele>397</ele>
        <time>2016-04-23T10:00:55Z</time>
      </trkpt>
      <trkpt lat="45.64225" lon="4.04632">
        <ele>391</ele>
        <time>2016-04-23T10:01:53Z</time>
      </trkpt>
      <trkpt lat="45.64221" lon="4.0463">
        <ele>391</ele>
        <time>2016-04-23T10:01:57Z</time>
      </trkpt>
      <trkpt lat="45.64197" lon="4.04626">
        <ele>395</ele>
        <time>2016-04-23T10:02:18Z</time>
      </trkpt>
      <trkpt lat="45.64192" lon="4.04629">
        <ele>396</ele>
        <time>2016-04-23T10:02:22Z</time>
      </trkpt>
      <trkpt lat="45.64175" lon="4.04664">
        <ele>390</ele>
        <time>2016-04-23T10:02:51Z</time>
      </trkpt>
      <trkpt lat="45.64174" lon="4.04671">
        <ele>391</ele>
        <time>2016-04-23T10:02:56Z</time>
      </trkpt>
      <trkpt lat="45.64174" lon="4.04678">
        <ele>393</ele>
        <time>2016-04-23T10:03:06Z</time>
      </trkpt>
      <trkpt lat="45.64159" lon="4.04745">
        <ele>395</ele>
        <time>2016-04-23T10:03:50Z</time>
      </trkpt>
      <trkpt lat="45.64155" lon="4.04749">
        <ele>395</ele>
        <time>2016-04-23T10:04:05Z</time>
      </trkpt>
      <trkpt lat="45.64154" lon="4.04758">
        <ele>395</ele>
        <time>2016-04-23T10:04:14Z</time>
      </trkpt>
      <trkpt lat="45.64132" lon="4.04828">
        <ele>395</ele>
        <time>2016-04-23T10:05:00Z</time>
      </trkpt>
      <trkpt lat="45.64104" lon="4.04859">
        <ele>396</ele>
        <time>2016-04-23T10:05:33Z</time>
      </trkpt>
      <trkpt lat="45.64075" lon="4.0487">
        <ele>396</ele>
        <time>2016-04-23T10:06:01Z</time>
      </trkpt>
      <trkpt lat="45.64012" lon="4.04888">
        <ele>398</ele>
        <time>2016-04-23T10:07:12Z</time>
      </trkpt>
      <trkpt lat="45.64005" lon="4.04888">
        <ele>399</ele>
        <time>2016-04-23T10:07:45Z</time>
      </trkpt>
      <trkpt lat="45.63995" lon="4.04889">
        <ele>400</ele>
        <time>2016-04-23T10:07:59Z</time>
      </trkpt>
      <trkpt lat="45.63989" lon="4.04889">
        <ele>400</ele>
        <time>2016-04-23T10:08:03Z</time>
      </trkpt>
      <trkpt lat="45.63967" lon="4.04895">
        <ele>398</ele>
        <time>2016-04-23T10:08:20Z</time>
      </trkpt>
      <trkpt lat="45.63962" lon="4.04895">
        <ele>398</ele>
        <time>2016-04-23T10:08:24Z</time>
      </trkpt>
      <trkpt lat="45.63957" lon="4.04894">
        <ele>398</ele>
        <time>2016-04-23T10:08:29Z</time>
      </trkpt>
      <trkpt lat="45.63951" lon="4.04891">
        <ele>398</ele>
        <time>2016-04-23T10:08:40Z</time>
      </trkpt>
      <trkpt lat="45.63947" lon="4.04889">
        <ele>400</ele>
        <time>2016-04-23T10:08:46Z</time>
      </trkpt>
      <trkpt lat="45.63944" lon="4.04885">
        <ele>400</ele>
        <time>2016-04-23T10:08:51Z</time>
      </trkpt>
      <trkpt lat="45.6394" lon="4.04881">
        <ele>400</ele>
        <time>2016-04-23T10:08:56Z</time>
      </trkpt>
      <trkpt lat="45.63938" lon="4.04877">
        <ele>400</ele>
        <time>2016-04-23T10:09:03Z</time>
      </trkpt>
      <trkpt lat="45.63941" lon="4.04877">
        <ele>398</ele>
        <time>2016-04-23T10:20:50Z</time>
      </trkpt>
      <trkpt lat="45.63942" lon="4.04871">
        <ele>396</ele>
        <time>2016-04-23T10:36:24Z</time>
      </trkpt>
      <trkpt lat="45.63939" lon="4.04868">
        <ele>396</ele>
        <time>2016-04-23T10:42:54Z</time>
      </trkpt>
      <trkpt lat="45.6394" lon="4.04872">
        <ele>396</ele>
        <time>2016-04-23T10:47:14Z</time>
      </trkpt>
      <trkpt lat="45.63939" lon="4.04877">
        <ele>396</ele>
        <time>2016-04-23T10:49:53Z</time>
      </trkpt>
      <trkpt lat="45.63919" lon="4.0488">
        <ele>393</ele>
        <time>2016-04-23T10:50:07Z</time>
      </trkpt>
      <trkpt lat="45.63913" lon="4.04881">
        <ele>393</ele>
        <time>2016-04-23T10:50:12Z</time>
      </trkpt>
      <trkpt lat="45.63898" lon="4.04887">
        <ele>397</ele>
        <time>2016-04-23T10:50:25Z</time>
      </trkpt>
      <trkpt lat="45.63894" lon="4.04889">
        <ele>397</ele>
        <time>2016-04-23T10:50:29Z</time>
      </trkpt>
      <trkpt lat="45.63819" lon="4.04958">
        <ele>401</ele>
        <time>2016-04-23T10:51:46Z</time>
      </trkpt>
      <trkpt lat="45.63801" lon="4.04968">
        <ele>399</ele>
        <time>2016-04-23T10:52:03Z</time>
      </trkpt>
      <trkpt lat="45.63715" lon="4.05037">
        <ele>401</ele>
        <time>2016-04-23T10:53:27Z</time>
      </trkpt>
      <trkpt lat="45.63581" lon="4.05198">
        <ele>400</ele>
        <time>2016-04-23T10:55:59Z</time>
      </trkpt>
      <trkpt lat="45.63569" lon="4.05222">
        <ele>392</ele>
        <time>2016-04-23T10:56:19Z</time>
      </trkpt>
      <trkpt lat="45.6355" lon="4.05246">
        <ele>392</ele>
        <time>2016-04-23T10:56:40Z</time>
      </trkpt>
      <trkpt lat="45.63521" lon="4.05274">
        <ele>391</ele>
        <time>2016-04-23T10:57:09Z</time>
      </trkpt>
      <trkpt lat="45.63514" lon="4.05292">
        <ele>394</ele>
        <time>2016-04-23T10:57:23Z</time>
      </trkpt>
      <trkpt lat="45.63509" lon="4.05296">
        <ele>394</ele>
        <time>2016-04-23T10:57:28Z</time>
      </trkpt>
      <trkpt lat="45.63485" lon="4.05296">
        <ele>393</ele>
        <time>2016-04-23T10:57:49Z</time>
      </trkpt>
      <trkpt lat="45.63465" lon="4.05292">
        <ele>392</ele>
        <time>2016-04-23T10:58:06Z</time>
      </trkpt>
      <trkpt lat="45.6345" lon="4.05294">
        <ele>393</ele>
        <time>2016-04-23T10:58:19Z</time>
      </trkpt>
      <trkpt lat="45.63411" lon="4.05305">
        <ele>394</ele>
        <time>2016-04-23T10:58:54Z</time>
      </trkpt>
      <trkpt lat="45.63392" lon="4.05314">
        <ele>394</ele>
        <time>2016-04-23T10:59:11Z</time>
      </trkpt>
      <trkpt lat="45.63357" lon="4.05324">
        <ele>399</ele>
        <time>2016-04-23T10:59:41Z</time>
      </trkpt>
      <trkpt lat="45.63205" lon="4.05412">
        <ele>397</ele>
        <time>2016-04-23T11:02:02Z</time>
      </trkpt>
      <trkpt lat="45.6315" lon="4.0545">
        <ele>396</ele>
        <time>2016-04-23T11:02:53Z</time>
      </trkpt>
      <trkpt lat="45.62996" lon="4.05576">
        <ele>397</ele>
        <time>2016-04-23T11:05:23Z</time>
      </trkpt>
      <trkpt lat="45.62993" lon="4.05581">
        <ele>397</ele>
        <time>2016-04-23T11:05:27Z</time>
      </trkpt>
      <trkpt lat="45.62989" lon="4.05587">
        <ele>397</ele>
        <time>2016-04-23T11:05:32Z</time>
      </trkpt>
      <trkpt lat="45.62945" lon="4.05638">
        <ele>402</ele>
        <time>2016-04-23T11:06:18Z</time>
      </trkpt>
      <trkpt lat="45.62933" lon="4.05648">
        <ele>404</ele>
        <time>2016-04-23T11:06:30Z</time>
      </trkpt>
      <trkpt lat="45.62916" lon="4.05664">
        <ele>402</ele>
        <time>2016-04-23T11:06:47Z</time>
      </trkpt>
      <trkpt lat="45.62859" lon="4.05707">
        <ele>400</ele>
        <time>2016-04-23T11:07:40Z</time>
      </trkpt>
      <trkpt lat="45.62752" lon="4.05772">
        <ele>399</ele>
        <time>2016-04-23T11:09:13Z</time>
      </trkpt>
      <trkpt lat="45.62724" lon="4.05785">
        <ele>399</ele>
        <time>2016-04-23T11:09:37Z</time>
      </trkpt>
      <trkpt lat="45.62694" lon="4.05794">
        <ele>399</ele>
        <time>2016-04-23T11:10:01Z</time>
      </trkpt>
      <trkpt lat="45.62598" lon="4.05804">
        <ele>401</ele>
        <time>2016-04-23T11:11:18Z</time>
      </trkpt>
      <trkpt lat="45.62593" lon="4.05805">
        <ele>401</ele>
        <time>2016-04-23T11:11:22Z</time>
      </trkpt>
      <trkpt lat="45.62579" lon="4.0581">
        <ele>401</ele>
        <time>2016-04-23T11:11:34Z</time>
      </trkpt>
      <trkpt lat="45.62566" lon="4.05819">
        <ele>399</ele>
        <time>2016-04-23T11:11:46Z</time>
      </trkpt>
      <trkpt lat="45.62561" lon="4.05822">
        <ele>399</ele>
        <time>2016-04-23T11:11:50Z</time>
      </trkpt>
      <trkpt lat="45.62527" lon="4.0585">
        <ele>399</ele>
        <time>2016-04-23T11:12:24Z</time>
      </trkpt>
      <trkpt lat="45.6243" lon="4.05956">
        <ele>399</ele>
        <time>2016-04-23T11:14:12Z</time>
      </trkpt>
      <trkpt lat="45.62425" lon="4.05959">
        <ele>400</ele>
        <time>2016-04-23T11:14:16Z</time>
      </trkpt>
      <trkpt lat="45.62415" lon="4.05963">
        <ele>399</ele>
        <time>2016-04-23T11:14:24Z</time>
      </trkpt>
      <trkpt lat="45.62411" lon="4.05967">
        <ele>400</ele>
        <time>2016-04-23T11:14:28Z</time>
      </trkpt>
      <trkpt lat="45.62396" lon="4.05977">
        <ele>401</ele>
        <time>2016-04-23T11:14:40Z</time>
      </trkpt>
      <trkpt lat="45.62391" lon="4.05979">
        <ele>400</ele>
        <time>2016-04-23T11:14:44Z</time>
      </trkpt>
      <trkpt lat="45.6235" lon="4.05989">
        <ele>402</ele>
        <time>2016-04-23T11:15:17Z</time>
      </trkpt>
      <trkpt lat="45.62267" lon="4.0599">
        <ele>404</ele>
        <time>2016-04-23T11:16:27Z</time>
      </trkpt>
      <trkpt lat="45.62202" lon="4.05997">
        <ele>405</ele>
        <time>2016-04-23T11:17:23Z</time>
      </trkpt>
      <trkpt lat="45.62128" lon="4.06017">
        <ele>406</ele>
        <time>2016-04-23T11:18:28Z</time>
      </trkpt>
      <trkpt lat="45.62064" lon="4.06078">
        <ele>404</ele>
        <time>2016-04-23T11:19:34Z</time>
      </trkpt>
      <trkpt lat="45.62034" lon="4.06113">
        <ele>403</ele>
        <time>2016-04-23T11:20:06Z</time>
      </trkpt>
      <trkpt lat="45.6203" lon="4.06118">
        <ele>402</ele>
        <time>2016-04-23T11:20:11Z</time>
      </trkpt>
      <trkpt lat="45.61966" lon="4.06181">
        <ele>401</ele>
        <time>2016-04-23T11:21:16Z</time>
      </trkpt>
      <trkpt lat="45.61962" lon="4.06186">
        <ele>400</ele>
        <time>2016-04-23T11:21:20Z</time>
      </trkpt>
      <trkpt lat="45.61932" lon="4.06212">
        <ele>400</ele>
        <time>2016-04-23T11:21:50Z</time>
      </trkpt>
      <trkpt lat="45.6189" lon="4.06236">
        <ele>402</ele>
        <time>2016-04-23T11:22:27Z</time>
      </trkpt>
      <trkpt lat="45.6178" lon="4.06316">
        <ele>396</ele>
        <time>2016-04-23T11:24:08Z</time>
      </trkpt>
      <trkpt lat="45.61664" lon="4.06427">
        <ele>396</ele>
        <time>2016-04-23T11:26:03Z</time>
      </trkpt>
      <trkpt lat="45.61663" lon="4.06432">
        <ele>396</ele>
        <time>2016-04-23T11:26:12Z</time>
      </trkpt>
      <trkpt lat="45.61661" lon="4.06434">
        <ele>395</ele>
        <time>2016-04-23T11:26:29Z</time>
      </trkpt>
      <trkpt lat="45.61656" lon="4.06433">
        <ele>395</ele>
        <time>2016-04-23T11:26:33Z</time>
      </trkpt>
      <trkpt lat="45.61647" lon="4.06439">
        <ele>394</ele>
        <time>2016-04-23T11:26:42Z</time>
      </trkpt>
      <trkpt lat="45.61642" lon="4.06438">
        <ele>394</ele>
        <time>2016-04-23T11:26:46Z</time>
      </trkpt>
      <trkpt lat="45.61637" lon="4.06436">
        <ele>394</ele>
        <time>2016-04-23T11:26:49Z</time>
      </trkpt>
      <trkpt lat="45.61564" lon="4.06432">
        <ele>384</ele>
        <time>2016-04-23T11:27:50Z</time>
      </trkpt>
      <trkpt lat="45.61559" lon="4.0643">
        <ele>385</ele>
        <time>2016-04-23T11:27:54Z</time>
      </trkpt>
      <trkpt lat="45.61544" lon="4.06431">
        <ele>383</ele>
        <time>2016-04-23T11:28:07Z</time>
      </trkpt>
      <trkpt lat="45.61514" lon="4.06428">
        <ele>382</ele>
        <time>2016-04-23T11:28:35Z</time>
      </trkpt>
      <trkpt lat="45.61504" lon="4.06431">
        <ele>383</ele>
        <time>2016-04-23T11:28:43Z</time>
      </trkpt>
      <trkpt lat="45.61444" lon="4.06425">
        <ele>386</ele>
        <time>2016-04-23T11:29:35Z</time>
      </trkpt>
      <trkpt lat="45.6144" lon="4.06421">
        <ele>386</ele>
        <time>2016-04-23T11:29:40Z</time>
      </trkpt>
      <trkpt lat="45.6143" lon="4.06425">
        <ele>386</ele>
        <time>2016-04-23T11:29:48Z</time>
      </trkpt>
      <trkpt lat="45.61415" lon="4.06427">
        <ele>386</ele>
        <time>2016-04-23T11:30:01Z</time>
      </trkpt>
      <trkpt lat="45.61379" lon="4.06427">
        <ele>381</ele>
        <time>2016-04-23T11:30:41Z</time>
      </trkpt>
      <trkpt lat="45.61365" lon="4.06424">
        <ele>384</ele>
        <time>2016-04-23T11:30:53Z</time>
      </trkpt>
      <trkpt lat="45.61361" lon="4.06419">
        <ele>384</ele>
        <time>2016-04-23T11:30:58Z</time>
      </trkpt>
      <trkpt lat="45.61357" lon="4.06418">
        <ele>384</ele>
        <time>2016-04-23T11:31:02Z</time>
      </trkpt>
      <trkpt lat="45.61351" lon="4.06422">
        <ele>384</ele>
        <time>2016-04-23T11:31:06Z</time>
      </trkpt>
      <trkpt lat="45.61346" lon="4.06419">
        <ele>384</ele>
        <time>2016-04-23T11:31:11Z</time>
      </trkpt>
      <trkpt lat="45.61324" lon="4.06435">
        <ele>388</ele>
        <time>2016-04-23T11:31:30Z</time>
      </trkpt>
      <trkpt lat="45.613" lon="4.06437">
        <ele>388</ele>
        <time>2016-04-23T11:31:51Z</time>
      </trkpt>
      <trkpt lat="45.61294" lon="4.06439">
        <ele>388</ele>
        <time>2016-04-23T11:31:56Z</time>
      </trkpt>
      <trkpt lat="45.61277" lon="4.06449">
        <ele>384</ele>
        <time>2016-04-23T11:32:15Z</time>
      </trkpt>
      <trkpt lat="45.61237" lon="4.06454">
        <ele>384</ele>
        <time>2016-04-23T11:32:47Z</time>
      </trkpt>
      <trkpt lat="45.61228" lon="4.06452">
        <ele>384</ele>
        <time>2016-04-23T11:32:55Z</time>
      </trkpt>
      <trkpt lat="45.61213" lon="4.06459">
        <ele>384</ele>
        <time>2016-04-23T11:33:07Z</time>
      </trkpt>
      <trkpt lat="45.61208" lon="4.06458">
        <ele>384</ele>
        <time>2016-04-23T11:33:10Z</time>
      </trkpt>
      <trkpt lat="45.61199" lon="4.06457">
        <ele>384</ele>
        <time>2016-04-23T11:33:19Z</time>
      </trkpt>
      <trkpt lat="45.61194" lon="4.06454">
        <ele>384</ele>
        <time>2016-04-23T11:33:23Z</time>
      </trkpt>
      <trkpt lat="45.61182" lon="4.06452">
        <ele>384</ele>
        <time>2016-04-23T11:33:31Z</time>
      </trkpt>
      <trkpt lat="45.61167" lon="4.06459">
        <ele>384</ele>
        <time>2016-04-23T11:33:52Z</time>
      </trkpt>
      <trkpt lat="45.61163" lon="4.06456">
        <ele>384</ele>
        <time>2016-04-23T11:33:59Z</time>
      </trkpt>
      <trkpt lat="45.61152" lon="4.06453">
        <ele>385</ele>
        <time>2016-04-23T11:34:09Z</time>
      </trkpt>
      <trkpt lat="45.61147" lon="4.06455">
        <ele>385</ele>
        <time>2016-04-23T11:34:14Z</time>
      </trkpt>
      <trkpt lat="45.61144" lon="4.06462">
        <ele>385</ele>
        <time>2016-04-23T11:34:19Z</time>
      </trkpt>
      <trkpt lat="45.61144" lon="4.06469">
        <ele>385</ele>
        <time>2016-04-23T11:34:23Z</time>
      </trkpt>
      <trkpt lat="45.61135" lon="4.06529">
        <ele>384</ele>
        <time>2016-04-23T11:35:09Z</time>
      </trkpt>
      <trkpt lat="45.6113" lon="4.06528">
        <ele>385</ele>
        <time>2016-04-23T11:35:20Z</time>
      </trkpt>
      <trkpt lat="45.61119" lon="4.06526">
        <ele>386</ele>
        <time>2016-04-23T11:35:27Z</time>
      </trkpt>
      <trkpt lat="45.61115" lon="4.0653">
        <ele>387</ele>
        <time>2016-04-23T11:35:31Z</time>
      </trkpt>
      <trkpt lat="45.61091" lon="4.06556">
        <ele>394</ele>
        <time>2016-04-23T11:36:03Z</time>
      </trkpt>
      <trkpt lat="45.61086" lon="4.06558">
        <ele>394</ele>
        <time>2016-04-23T11:36:07Z</time>
      </trkpt>
      <trkpt lat="45.61078" lon="4.06571">
        <ele>397</ele>
        <time>2016-04-23T11:36:24Z</time>
      </trkpt>
      <trkpt lat="45.61063" lon="4.06589">
        <ele>399</ele>
        <time>2016-04-23T11:36:39Z</time>
      </trkpt>
      <trkpt lat="45.61059" lon="4.06602">
        <ele>399</ele>
        <time>2016-04-23T11:36:48Z</time>
      </trkpt>
      <trkpt lat="45.61059" lon="4.0661">
        <ele>399</ele>
        <time>2016-04-23T11:36:52Z</time>
      </trkpt>
      <trkpt lat="45.61061" lon="4.06617">
        <ele>400</ele>
        <time>2016-04-23T11:36:56Z</time>
      </trkpt>
      <trkpt lat="45.6106" lon="4.06631">
        <ele>400</ele>
        <time>2016-04-23T11:37:03Z</time>
      </trkpt>
      <trkpt lat="45.61062" lon="4.06644">
        <ele>400</ele>
        <time>2016-04-23T11:37:12Z</time>
      </trkpt>
      <trkpt lat="45.61061" lon="4.06652">
        <ele>400</ele>
        <time>2016-04-23T11:37:16Z</time>
      </trkpt>
      <trkpt lat="45.61053" lon="4.06701">
        <ele>399</ele>
        <time>2016-04-23T11:37:45Z</time>
      </trkpt>
      <trkpt lat="45.61054" lon="4.06708">
        <ele>398</ele>
        <time>2016-04-23T11:37:50Z</time>
      </trkpt>
      <trkpt lat="45.61051" lon="4.06715">
        <ele>397</ele>
        <time>2016-04-23T11:37:54Z</time>
      </trkpt>
      <trkpt lat="45.61048" lon="4.06728">
        <ele>394</ele>
        <time>2016-04-23T11:38:02Z</time>
      </trkpt>
      <trkpt lat="45.61029" lon="4.0676">
        <ele>391</ele>
        <time>2016-04-23T11:38:29Z</time>
      </trkpt>
      <trkpt lat="45.61025" lon="4.06765">
        <ele>391</ele>
        <time>2016-04-23T11:38:33Z</time>
      </trkpt>
      <trkpt lat="45.61021" lon="4.0677">
        <ele>391</ele>
        <time>2016-04-23T11:38:38Z</time>
      </trkpt>
      <trkpt lat="45.61017" lon="4.06768">
        <ele>390</ele>
        <time>2016-04-23T11:38:44Z</time>
      </trkpt>
      <trkpt lat="45.61014" lon="4.06763">
        <ele>390</ele>
        <time>2016-04-23T11:38:48Z</time>
      </trkpt>
      <trkpt lat="45.61011" lon="4.06761">
        <ele>388</ele>
        <time>2016-04-23T11:38:55Z</time>
      </trkpt>
      <trkpt lat="45.61007" lon="4.06766">
        <ele>383</ele>
        <time>2016-04-23T11:39:06Z</time>
      </trkpt>
      <trkpt lat="45.61002" lon="4.06769">
        <ele>385</ele>
        <time>2016-04-23T11:39:10Z</time>
      </trkpt>
      <trkpt lat="45.60997" lon="4.06771">
        <ele>384</ele>
        <time>2016-04-23T11:39:14Z</time>
      </trkpt>
      <trkpt lat="45.60988" lon="4.06779">
        <ele>385</ele>
        <time>2016-04-23T11:39:22Z</time>
      </trkpt>
      <trkpt lat="45.60956" lon="4.06795">
        <ele>380</ele>
        <time>2016-04-23T11:39:55Z</time>
      </trkpt>
      <trkpt lat="45.6094" lon="4.06796">
        <ele>381</ele>
        <time>2016-04-23T11:40:10Z</time>
      </trkpt>
      <trkpt lat="45.60915" lon="4.06792">
        <ele>382</ele>
        <time>2016-04-23T11:40:34Z</time>
      </trkpt>
      <trkpt lat="45.60905" lon="4.06793">
        <ele>383</ele>
        <time>2016-04-23T11:40:44Z</time>
      </trkpt>
      <trkpt lat="45.60903" lon="4.06796">
        <ele>384</ele>
        <time>2016-04-23T11:40:55Z</time>
      </trkpt>
      <trkpt lat="45.60898" lon="4.06809">
        <ele>385</ele>
        <time>2016-04-23T11:41:04Z</time>
      </trkpt>
      <trkpt lat="45.60893" lon="4.0681">
        <ele>385</ele>
        <time>2016-04-23T11:41:09Z</time>
      </trkpt>
      <trkpt lat="45.60862" lon="4.06813">
        <ele>387</ele>
        <time>2016-04-23T11:41:45Z</time>
      </trkpt>
      <trkpt lat="45.60856" lon="4.06814">
        <ele>387</ele>
        <time>2016-04-23T11:41:53Z</time>
      </trkpt>
      <trkpt lat="45.60851" lon="4.06813">
        <ele>387</ele>
        <time>2016-04-23T11:41:58Z</time>
      </trkpt>
      <trkpt lat="45.60847" lon="4.0681">
        <ele>387</ele>
        <time>2016-04-23T11:42:02Z</time>
      </trkpt>
      <trkpt lat="45.60851" lon="4.06817">
        <ele>389</ele>
        <time>2016-04-23T11:42:26Z</time>
      </trkpt>
      <trkpt lat="45.60852" lon="4.06824">
        <ele>389</ele>
        <time>2016-04-23T11:42:37Z</time>
      </trkpt>
      <trkpt lat="45.60839" lon="4.06853">
        <ele>389</ele>
        <time>2016-04-23T11:43:03Z</time>
      </trkpt>
      <trkpt lat="45.60833" lon="4.06864">
        <ele>388</ele>
        <time>2016-04-23T11:43:11Z</time>
      </trkpt>
      <trkpt lat="45.60831" lon="4.06871">
        <ele>388</ele>
        <time>2016-04-23T11:43:15Z</time>
      </trkpt>
      <trkpt lat="45.60821" lon="4.06893">
        <ele>388</ele>
        <time>2016-04-23T11:43:32Z</time>
      </trkpt>
      <trkpt lat="45.60818" lon="4.06891">
        <ele>388</ele>
        <time>2016-04-23T11:46:03Z</time>
      </trkpt>
      <trkpt lat="45.60815" lon="4.06894">
        <ele>390</ele>
        <time>2016-04-23T11:48:46Z</time>
      </trkpt>
      <trkpt lat="45.60817" lon="4.06898">
        <ele>390</ele>
        <time>2016-04-23T11:49:05Z</time>
      </trkpt>
      <trkpt lat="45.60819" lon="4.06904">
        <ele>389</ele>
        <time>2016-04-23T11:49:21Z</time>
      </trkpt>
      <trkpt lat="45.60818" lon="4.0692">
        <ele>383</ele>
        <time>2016-04-23T11:49:29Z</time>
      </trkpt>
      <trkpt lat="45.60819" lon="4.06942">
        <ele>389</ele>
        <time>2016-04-23T11:49:49Z</time>
      </trkpt>
      <trkpt lat="45.60814" lon="4.06963">
        <ele>379</ele>
        <time>2016-04-23T11:50:01Z</time>
      </trkpt>
      <trkpt lat="45.60801" lon="4.06987">
        <ele>389</ele>
        <time>2016-04-23T11:50:20Z</time>
      </trkpt>
      <trkpt lat="45.60794" lon="4.07003">
        <ele>384</ele>
        <time>2016-04-23T11:50:32Z</time>
      </trkpt>
      <trkpt lat="45.6079" lon="4.07009">
        <ele>384</ele>
        <time>2016-04-23T11:50:37Z</time>
      </trkpt>
      <trkpt lat="45.60777" lon="4.0702">
        <ele>388</ele>
        <time>2016-04-23T11:50:50Z</time>
      </trkpt>
      <trkpt lat="45.60775" lon="4.07023">
        <ele>387</ele>
        <time>2016-04-23T11:50:56Z</time>
      </trkpt>
      <trkpt lat="45.60782" lon="4.07034">
        <ele>385</ele>
        <time>2016-04-23T11:51:47Z</time>
      </trkpt>
      <trkpt lat="45.60809" lon="4.0711">
        <ele>383</ele>
        <time>2016-04-23T11:52:36Z</time>
      </trkpt>
      <trkpt lat="45.60811" lon="4.07107">
        <ele>383</ele>
        <time>2016-04-23T11:53:12Z</time>
      </trkpt>
      <trkpt lat="45.60815" lon="4.0711">
        <ele>383</ele>
        <time>2016-04-23T11:53:18Z</time>
      </trkpt>
      <trkpt lat="45.6083" lon="4.07114">
        <ele>383</ele>
        <time>2016-04-23T11:53:31Z</time>
      </trkpt>
      <trkpt lat="45.60841" lon="4.07112">
        <ele>384</ele>
        <time>2016-04-23T11:53:42Z</time>
      </trkpt>
      <trkpt lat="45.60845" lon="4.07114">
        <ele>384</ele>
        <time>2016-04-23T11:53:46Z</time>
      </trkpt>
      <trkpt lat="45.60851" lon="4.07113">
        <ele>384</ele>
        <time>2016-04-23T11:53:52Z</time>
      </trkpt>
      <trkpt lat="45.6083" lon="4.0711">
        <ele>384</ele>
        <time>2016-04-23T11:54:32Z</time>
      </trkpt>
      <trkpt lat="45.60828" lon="4.07103">
        <ele>384</ele>
        <time>2016-04-23T11:54:41Z</time>
      </trkpt>
      <trkpt lat="45.60824" lon="4.07099">
        <ele>384</ele>
        <time>2016-04-23T11:54:45Z</time>
      </trkpt>
      <trkpt lat="45.6081" lon="4.07102">
        <ele>383</ele>
        <time>2016-04-23T11:55:00Z</time>
      </trkpt>
      <trkpt lat="45.60806" lon="4.07111">
        <ele>383</ele>
        <time>2016-04-23T11:55:18Z</time>
      </trkpt>
      <trkpt lat="45.60808" lon="4.07118">
        <ele>383</ele>
        <time>2016-04-23T11:55:22Z</time>
      </trkpt>
      <trkpt lat="45.60807" lon="4.07142">
        <ele>387</ele>
        <time>2016-04-23T11:55:37Z</time>
      </trkpt>
      <trkpt lat="45.60808" lon="4.07156">
        <ele>386</ele>
        <time>2016-04-23T11:55:46Z</time>
      </trkpt>
      <trkpt lat="45.60807" lon="4.07162">
        <ele>386</ele>
        <time>2016-04-23T11:55:50Z</time>
      </trkpt>
      <trkpt lat="45.60808" lon="4.07169">
        <ele>386</ele>
        <time>2016-04-23T11:55:54Z</time>
      </trkpt>
      <trkpt lat="45.60811" lon="4.0718">
        <ele>387</ele>
        <time>2016-04-23T11:56:07Z</time>
      </trkpt>
      <trkpt lat="45.60813" lon="4.07179">
        <ele>386</ele>
        <time>2016-04-23T11:56:35Z</time>
      </trkpt>
      <trkpt lat="45.60816" lon="4.07173">
        <ele>386</ele>
        <time>2016-04-23T11:56:57Z</time>
      </trkpt>
      <trkpt lat="45.60818" lon="4.07173">
        <ele>386</ele>
        <time>2016-04-23T11:57:09Z</time>
      </trkpt>
      <trkpt lat="45.60815" lon="4.07173">
        <ele>384</ele>
        <time>2016-04-23T12:07:55Z</time>
      </trkpt>
      <trkpt lat="45.60812" lon="4.07168">
        <ele>384</ele>
        <time>2016-04-23T12:08:02Z</time>
      </trkpt>
      <trkpt lat="45.60809" lon="4.07119">
        <ele>390</ele>
        <time>2016-04-23T12:08:40Z</time>
      </trkpt>
      <trkpt lat="45.60794" lon="4.07044">
        <ele>387</ele>
        <time>2016-04-23T12:09:32Z</time>
      </trkpt>
      <trkpt lat="45.60794" lon="4.07036">
        <ele>387</ele>
        <time>2016-04-23T12:09:37Z</time>
      </trkpt>
      <trkpt lat="45.60803" lon="4.06989">
        <ele>390</ele>
        <time>2016-04-23T12:10:10Z</time>
      </trkpt>
      <trkpt lat="45.60822" lon="4.06943">
        <ele>389</ele>
        <time>2016-04-23T12:10:44Z</time>
      </trkpt>
      <trkpt lat="45.60823" lon="4.06891">
        <ele>392</ele>
        <time>2016-04-23T12:11:16Z</time>
      </trkpt>
      <trkpt lat="45.60825" lon="4.06885">
        <ele>392</ele>
        <time>2016-04-23T12:11:20Z</time>
      </trkpt>
      <trkpt lat="45.60826" lon="4.06878">
        <ele>392</ele>
        <time>2016-04-23T12:11:25Z</time>
      </trkpt>
      <trkpt lat="45.60833" lon="4.06867">
        <ele>392</ele>
        <time>2016-04-23T12:11:34Z</time>
      </trkpt>
      <trkpt lat="45.6084" lon="4.06849">
        <ele>392</ele>
        <time>2016-04-23T12:11:47Z</time>
      </trkpt>
      <trkpt lat="45.6085" lon="4.06834">
        <ele>393</ele>
        <time>2016-04-23T12:11:59Z</time>
      </trkpt>
      <trkpt lat="45.60852" lon="4.06828">
        <ele>393</ele>
        <time>2016-04-23T12:12:04Z</time>
      </trkpt>
      <trkpt lat="45.60851" lon="4.06821">
        <ele>393</ele>
        <time>2016-04-23T12:12:09Z</time>
      </trkpt>
      <trkpt lat="45.60807" lon="4.07121">
        <ele>386</ele>
        <time>2016-04-24T06:42:51Z</time>
      </trkpt>
      <trkpt lat="45.6081" lon="4.07113">
        <ele>386</ele>
        <time>2016-04-24T06:43:03Z</time>
      </trkpt>
      <trkpt lat="45.60812" lon="4.0711">
        <ele>386</ele>
        <time>2016-04-24T06:43:04Z</time>
      </trkpt>
      <trkpt lat="45.60812" lon="4.07102">
        <ele>386</ele>
        <time>2016-04-24T06:43:10Z</time>
      </trkpt>
      <trkpt lat="45.60808" lon="4.07096">
        <ele>386</ele>
        <time>2016-04-24T06:43:14Z</time>
      </trkpt>
      <trkpt lat="45.60794" lon="4.07058">
        <ele>388</ele>
        <time>2016-04-24T06:43:39Z</time>
      </trkpt>
      <trkpt lat="45.60791" lon="4.07045">
        <ele>389</ele>
        <time>2016-04-24T06:43:47Z</time>
      </trkpt>
      <trkpt lat="45.60786" lon="4.07042">
        <ele>389</ele>
        <time>2016-04-24T06:43:51Z</time>
      </trkpt>
      <trkpt lat="45.60776" lon="4.07039">
        <ele>389</ele>
        <time>2016-04-24T06:44:00Z</time>
      </trkpt>
      <trkpt lat="45.60767" lon="4.07048">
        <ele>388</ele>
        <time>2016-04-24T06:44:10Z</time>
      </trkpt>
      <trkpt lat="45.60724" lon="4.07081">
        <ele>390</ele>
        <time>2016-04-24T06:44:49Z</time>
      </trkpt>
      <trkpt lat="45.60719" lon="4.07082">
        <ele>390</ele>
        <time>2016-04-24T06:44:52Z</time>
      </trkpt>
      <trkpt lat="45.60714" lon="4.07078">
        <ele>390</ele>
        <time>2016-04-24T06:44:56Z</time>
      </trkpt>
      <trkpt lat="45.60708" lon="4.07067">
        <ele>389</ele>
        <time>2016-04-24T06:45:04Z</time>
      </trkpt>
      <trkpt lat="45.60698" lon="4.07066">
        <ele>389</ele>
        <time>2016-04-24T06:45:12Z</time>
      </trkpt>
      <trkpt lat="45.60703" lon="4.07055">
        <ele>389</ele>
        <time>2016-04-24T06:45:20Z</time>
      </trkpt>
      <trkpt lat="45.60698" lon="4.07043">
        <ele>389</ele>
        <time>2016-04-24T06:45:26Z</time>
      </trkpt>
      <trkpt lat="45.60694" lon="4.07017">
        <ele>388</ele>
        <time>2016-04-24T06:45:42Z</time>
      </trkpt>
      <trkpt lat="45.6069" lon="4.07005">
        <ele>388</ele>
        <time>2016-04-24T06:45:49Z</time>
      </trkpt>
      <trkpt lat="45.60688" lon="4.06978">
        <ele>392</ele>
        <time>2016-04-24T06:46:05Z</time>
      </trkpt>
      <trkpt lat="45.60682" lon="4.06967">
        <ele>394</ele>
        <time>2016-04-24T06:46:12Z</time>
      </trkpt>
      <trkpt lat="45.60673" lon="4.06965">
        <ele>394</ele>
        <time>2016-04-24T06:46:17Z</time>
      </trkpt>
      <trkpt lat="45.60662" lon="4.06943">
        <ele>394</ele>
        <time>2016-04-24T06:46:32Z</time>
      </trkpt>
      <trkpt lat="45.60647" lon="4.069">
        <ele>394</ele>
        <time>2016-04-24T06:47:06Z</time>
      </trkpt>
      <trkpt lat="45.60644" lon="4.06901">
        <ele>394</ele>
        <time>2016-04-24T06:47:14Z</time>
      </trkpt>
      <trkpt lat="45.60639" lon="4.06901">
        <ele>394</ele>
        <time>2016-04-24T06:47:16Z</time>
      </trkpt>
      <trkpt lat="45.60633" lon="4.06899">
        <ele>393</ele>
        <time>2016-04-24T06:47:20Z</time>
      </trkpt>
      <trkpt lat="45.60631" lon="4.06893">
        <ele>393</ele>
        <time>2016-04-24T06:47:25Z</time>
      </trkpt>
      <trkpt lat="45.60626" lon="4.0689">
        <ele>392</ele>
        <time>2016-04-24T06:47:31Z</time>
      </trkpt>
      <trkpt lat="45.60586" lon="4.06891">
        <ele>392</ele>
        <time>2016-04-24T06:48:05Z</time>
      </trkpt>
      <trkpt lat="45.60571" lon="4.06889">
        <ele>392</ele>
        <time>2016-04-24T06:48:18Z</time>
      </trkpt>
      <trkpt lat="45.60552" lon="4.06881">
        <ele>393</ele>
        <time>2016-04-24T06:48:34Z</time>
      </trkpt>
      <trkpt lat="45.60544" lon="4.06874">
        <ele>393</ele>
        <time>2016-04-24T06:48:41Z</time>
      </trkpt>
      <trkpt lat="45.6051" lon="4.0685">
        <ele>394</ele>
        <time>2016-04-24T06:49:11Z</time>
      </trkpt>
      <trkpt lat="45.60499" lon="4.06836">
        <ele>392</ele>
        <time>2016-04-24T06:49:24Z</time>
      </trkpt>
      <trkpt lat="45.60494" lon="4.06835">
        <ele>392</ele>
        <time>2016-04-24T06:49:28Z</time>
      </trkpt>
      <trkpt lat="45.6049" lon="4.06833">
        <ele>391</ele>
        <time>2016-04-24T06:49:32Z</time>
      </trkpt>
      <trkpt lat="45.60485" lon="4.06832">
        <ele>391</ele>
        <time>2016-04-24T06:49:36Z</time>
      </trkpt>
      <trkpt lat="45.60481" lon="4.06834">
        <ele>391</ele>
        <time>2016-04-24T06:49:40Z</time>
      </trkpt>
      <trkpt lat="45.60476" lon="4.06837">
        <ele>392</ele>
        <time>2016-04-24T06:49:45Z</time>
      </trkpt>
      <trkpt lat="45.6046" lon="4.06852">
        <ele>392</ele>
        <time>2016-04-24T06:50:05Z</time>
      </trkpt>
      <trkpt lat="45.60458" lon="4.06858">
        <ele>392</ele>
        <time>2016-04-24T06:50:10Z</time>
      </trkpt>
      <trkpt lat="45.60454" lon="4.06861">
        <ele>392</ele>
        <time>2016-04-24T06:50:15Z</time>
      </trkpt>
      <trkpt lat="45.60444" lon="4.06863">
        <ele>392</ele>
        <time>2016-04-24T06:50:23Z</time>
      </trkpt>
      <trkpt lat="45.60436" lon="4.06871">
        <ele>392</ele>
        <time>2016-04-24T06:50:31Z</time>
      </trkpt>
      <trkpt lat="45.60434" lon="4.06878">
        <ele>392</ele>
        <time>2016-04-24T06:50:35Z</time>
      </trkpt>
      <trkpt lat="45.60433" lon="4.06886">
        <ele>393</ele>
        <time>2016-04-24T06:50:39Z</time>
      </trkpt>
      <trkpt lat="45.6043" lon="4.06892">
        <ele>394</ele>
        <time>2016-04-24T06:50:44Z</time>
      </trkpt>
      <trkpt lat="45.60426" lon="4.06895">
        <ele>396</ele>
        <time>2016-04-24T06:50:48Z</time>
      </trkpt>
      <trkpt lat="45.60415" lon="4.06895">
        <ele>397</ele>
        <time>2016-04-24T06:50:58Z</time>
      </trkpt>
      <trkpt lat="45.60403" lon="4.06902">
        <ele>397</ele>
        <time>2016-04-24T06:51:10Z</time>
      </trkpt>
      <trkpt lat="45.60379" lon="4.06931">
        <ele>396</ele>
        <time>2016-04-24T06:51:37Z</time>
      </trkpt>
      <trkpt lat="45.60376" lon="4.06918">
        <ele>396</ele>
        <time>2016-04-24T06:51:48Z</time>
      </trkpt>
      <trkpt lat="45.60372" lon="4.06915">
        <ele>396</ele>
        <time>2016-04-24T06:51:54Z</time>
      </trkpt>
      <trkpt lat="45.60367" lon="4.06915">
        <ele>397</ele>
        <time>2016-04-24T06:51:59Z</time>
      </trkpt>
      <trkpt lat="45.60376" lon="4.06925">
        <ele>398</ele>
        <time>2016-04-24T06:52:46Z</time>
      </trkpt>
      <trkpt lat="45.60379" lon="4.06935">
        <ele>398</ele>
        <time>2016-04-24T06:53:09Z</time>
      </trkpt>
      <trkpt lat="45.60387" lon="4.06938">
        <ele>403</ele>
        <time>2016-04-24T06:53:16Z</time>
      </trkpt>
      <trkpt lat="45.60384" lon="4.06946">
        <ele>398</ele>
        <time>2016-04-24T06:54:47Z</time>
      </trkpt>
      <trkpt lat="45.60371" lon="4.06947">
        <ele>400</ele>
        <time>2016-04-24T06:55:16Z</time>
      </trkpt>
      <trkpt lat="45.60343" lon="4.06958">
        <ele>413</ele>
        <time>2016-04-24T06:55:30Z</time>
      </trkpt>
      <trkpt lat="45.60331" lon="4.0696">
        <ele>413</ele>
        <time>2016-04-24T06:55:48Z</time>
      </trkpt>
      <trkpt lat="45.60326" lon="4.06965">
        <ele>412</ele>
        <time>2016-04-24T06:55:53Z</time>
      </trkpt>
      <trkpt lat="45.60271" lon="4.06981">
        <ele>405</ele>
        <time>2016-04-24T06:56:52Z</time>
      </trkpt>
      <trkpt lat="45.60262" lon="4.06986">
        <ele>405</ele>
        <time>2016-04-24T06:57:00Z</time>
      </trkpt>
      <trkpt lat="45.60243" lon="4.06994">
        <ele>407</ele>
        <time>2016-04-24T06:57:16Z</time>
      </trkpt>
      <trkpt lat="45.60236" lon="4.06984">
        <ele>408</ele>
        <time>2016-04-24T06:57:32Z</time>
      </trkpt>
      <trkpt lat="45.60227" lon="4.06986">
        <ele>407</ele>
        <time>2016-04-24T06:57:40Z</time>
      </trkpt>
      <trkpt lat="45.60218" lon="4.06991">
        <ele>406</ele>
        <time>2016-04-24T06:57:45Z</time>
      </trkpt>
      <trkpt lat="45.60209" lon="4.06997">
        <ele>406</ele>
        <time>2016-04-24T06:57:51Z</time>
      </trkpt>
      <trkpt lat="45.60164" lon="4.0702">
        <ele>412</ele>
        <time>2016-04-24T06:58:27Z</time>
      </trkpt>
      <trkpt lat="45.60159" lon="4.0702">
        <ele>412</ele>
        <time>2016-04-24T06:58:31Z</time>
      </trkpt>
      <trkpt lat="45.6009" lon="4.07035">
        <ele>407</ele>
        <time>2016-04-24T06:59:31Z</time>
      </trkpt>
      <trkpt lat="45.60061" lon="4.07046">
        <ele>414</ele>
        <time>2016-04-24T06:59:57Z</time>
      </trkpt>
      <trkpt lat="45.60055" lon="4.07041">
        <ele>412</ele>
        <time>2016-04-24T07:00:08Z</time>
      </trkpt>
      <trkpt lat="45.6005" lon="4.07042">
        <ele>411</ele>
        <time>2016-04-24T07:00:13Z</time>
      </trkpt>
      <trkpt lat="45.60025" lon="4.0705">
        <ele>410</ele>
        <time>2016-04-24T07:00:34Z</time>
      </trkpt>
      <trkpt lat="45.59998" lon="4.07063">
        <ele>410</ele>
        <time>2016-04-24T07:00:54Z</time>
      </trkpt>
      <trkpt lat="45.59988" lon="4.07065">
        <ele>409</ele>
        <time>2016-04-24T07:01:03Z</time>
      </trkpt>
      <trkpt lat="45.59983" lon="4.07066">
        <ele>409</ele>
        <time>2016-04-24T07:01:07Z</time>
      </trkpt>
      <trkpt lat="45.59978" lon="4.07065">
        <ele>409</ele>
        <time>2016-04-24T07:01:11Z</time>
      </trkpt>
      <trkpt lat="45.59956" lon="4.0707">
        <ele>409</ele>
        <time>2016-04-24T07:01:26Z</time>
      </trkpt>
      <trkpt lat="45.59946" lon="4.07075">
        <ele>410</ele>
        <time>2016-04-24T07:01:33Z</time>
      </trkpt>
      <trkpt lat="45.59936" lon="4.07076">
        <ele>410</ele>
        <time>2016-04-24T07:01:44Z</time>
      </trkpt>
      <trkpt lat="45.59743" lon="4.07116">
        <ele>401</ele>
        <time>2016-04-24T07:04:23Z</time>
      </trkpt>
      <trkpt lat="45.59735" lon="4.07111">
        <ele>400</ele>
        <time>2016-04-24T07:04:49Z</time>
      </trkpt>
      <trkpt lat="45.59715" lon="4.07114">
        <ele>398</ele>
        <time>2016-04-24T07:05:05Z</time>
      </trkpt>
      <trkpt lat="45.59695" lon="4.07123">
        <ele>399</ele>
        <time>2016-04-24T07:05:19Z</time>
      </trkpt>
      <trkpt lat="45.59666" lon="4.07131">
        <ele>399</ele>
        <time>2016-04-24T07:05:43Z</time>
      </trkpt>
      <trkpt lat="45.59661" lon="4.07129">
        <ele>399</ele>
        <time>2016-04-24T07:05:48Z</time>
      </trkpt>
      <trkpt lat="45.59544" lon="4.07154">
        <ele>400</ele>
        <time>2016-04-24T07:07:25Z</time>
      </trkpt>
      <trkpt lat="45.59539" lon="4.07157">
        <ele>400</ele>
        <time>2016-04-24T07:07:29Z</time>
      </trkpt>
      <trkpt lat="45.59519" lon="4.0716">
        <ele>398</ele>
        <time>2016-04-24T07:07:46Z</time>
      </trkpt>
      <trkpt lat="45.59496" lon="4.0717">
        <ele>398</ele>
        <time>2016-04-24T07:08:11Z</time>
      </trkpt>
      <trkpt lat="45.59491" lon="4.07168">
        <ele>398</ele>
        <time>2016-04-24T07:08:23Z</time>
      </trkpt>
      <trkpt lat="45.59486" lon="4.07171">
        <ele>398</ele>
        <time>2016-04-24T07:08:27Z</time>
      </trkpt>
      <trkpt lat="45.5945" lon="4.07178">
        <ele>400</ele>
        <time>2016-04-24T07:08:56Z</time>
      </trkpt>
      <trkpt lat="45.59422" lon="4.07177">
        <ele>399</ele>
        <time>2016-04-24T07:09:23Z</time>
      </trkpt>
      <trkpt lat="45.59401" lon="4.07184">
        <ele>400</ele>
        <time>2016-04-24T07:09:40Z</time>
      </trkpt>
      <trkpt lat="45.59382" lon="4.07189">
        <ele>401</ele>
        <time>2016-04-24T07:09:55Z</time>
      </trkpt>
      <trkpt lat="45.59373" lon="4.07186">
        <ele>402</ele>
        <time>2016-04-24T07:10:05Z</time>
      </trkpt>
      <trkpt lat="45.59334" lon="4.07204">
        <ele>403</ele>
        <time>2016-04-24T07:10:36Z</time>
      </trkpt>
      <trkpt lat="45.59318" lon="4.07206">
        <ele>404</ele>
        <time>2016-04-24T07:10:51Z</time>
      </trkpt>
      <trkpt lat="45.5932" lon="4.072">
        <ele>404</ele>
        <time>2016-04-24T07:11:05Z</time>
      </trkpt>
      <trkpt lat="45.59316" lon="4.07187">
        <ele>405</ele>
        <time>2016-04-24T07:11:13Z</time>
      </trkpt>
      <trkpt lat="45.59316" lon="4.0718">
        <ele>405</ele>
        <time>2016-04-24T07:11:17Z</time>
      </trkpt>
      <trkpt lat="45.59322" lon="4.07167">
        <ele>406</ele>
        <time>2016-04-24T07:11:25Z</time>
      </trkpt>
      <trkpt lat="45.59329" lon="4.07124">
        <ele>408</ele>
        <time>2016-04-24T07:11:54Z</time>
      </trkpt>
      <trkpt lat="45.59326" lon="4.07118">
        <ele>408</ele>
        <time>2016-04-24T07:11:58Z</time>
      </trkpt>
      <trkpt lat="45.59319" lon="4.07084">
        <ele>410</ele>
        <time>2016-04-24T07:12:21Z</time>
      </trkpt>
      <trkpt lat="45.59314" lon="4.07017">
        <ele>406</ele>
        <time>2016-04-24T07:13:02Z</time>
      </trkpt>
      <trkpt lat="45.59308" lon="4.06989">
        <ele>406</ele>
        <time>2016-04-24T07:13:19Z</time>
      </trkpt>
      <trkpt lat="45.59306" lon="4.06983">
        <ele>407</ele>
        <time>2016-04-24T07:13:24Z</time>
      </trkpt>
      <trkpt lat="45.59302" lon="4.0698">
        <ele>407</ele>
        <time>2016-04-24T07:13:29Z</time>
      </trkpt>
      <trkpt lat="45.59297" lon="4.0698">
        <ele>408</ele>
        <time>2016-04-24T07:13:35Z</time>
      </trkpt>
      <trkpt lat="45.59291" lon="4.06985">
        <ele>408</ele>
        <time>2016-04-24T07:13:46Z</time>
      </trkpt>
      <trkpt lat="45.59267" lon="4.0702">
        <ele>411</ele>
        <time>2016-04-24T07:14:20Z</time>
      </trkpt>
      <trkpt lat="45.59264" lon="4.07026">
        <ele>411</ele>
        <time>2016-04-24T07:14:24Z</time>
      </trkpt>
      <trkpt lat="45.59257" lon="4.07036">
        <ele>410</ele>
        <time>2016-04-24T07:14:35Z</time>
      </trkpt>
      <trkpt lat="45.59244" lon="4.07074">
        <ele>410</ele>
        <time>2016-04-24T07:15:00Z</time>
      </trkpt>
      <trkpt lat="45.59239" lon="4.07078">
        <ele>410</ele>
        <time>2016-04-24T07:15:04Z</time>
      </trkpt>
      <trkpt lat="45.59234" lon="4.07078">
        <ele>409</ele>
        <time>2016-04-24T07:15:08Z</time>
      </trkpt>
      <trkpt lat="45.5923" lon="4.07074">
        <ele>409</ele>
        <time>2016-04-24T07:15:12Z</time>
      </trkpt>
      <trkpt lat="45.59229" lon="4.0708">
        <ele>409</ele>
        <time>2016-04-24T07:15:29Z</time>
      </trkpt>
      <trkpt lat="45.59233" lon="4.07086">
        <ele>409</ele>
        <time>2016-04-24T07:15:33Z</time>
      </trkpt>
      <trkpt lat="45.59233" lon="4.07092">
        <ele>409</ele>
        <time>2016-04-24T07:15:56Z</time>
      </trkpt>
      <trkpt lat="45.59231" lon="4.07097">
        <ele>409</ele>
        <time>2016-04-24T07:16:00Z</time>
      </trkpt>
      <trkpt lat="45.59206" lon="4.07135">
        <ele>408</ele>
        <time>2016-04-24T07:16:30Z</time>
      </trkpt>
      <trkpt lat="45.59206" lon="4.07142">
        <ele>408</ele>
        <time>2016-04-24T07:16:35Z</time>
      </trkpt>
      <trkpt lat="45.59218" lon="4.07178">
        <ele>406</ele>
        <time>2016-04-24T07:17:35Z</time>
      </trkpt>
      <trkpt lat="45.59219" lon="4.07185">
        <ele>406</ele>
        <time>2016-04-24T07:17:40Z</time>
      </trkpt>
      <trkpt lat="45.59215" lon="4.07189">
        <ele>406</ele>
        <time>2016-04-24T07:17:45Z</time>
      </trkpt>
      <trkpt lat="45.5921" lon="4.0719">
        <ele>406</ele>
        <time>2016-04-24T07:17:49Z</time>
      </trkpt>
      <trkpt lat="45.5918" lon="4.07202">
        <ele>407</ele>
        <time>2016-04-24T07:18:16Z</time>
      </trkpt>
      <trkpt lat="45.59184" lon="4.07206">
        <ele>408</ele>
        <time>2016-04-24T07:19:07Z</time>
      </trkpt>
      <trkpt lat="45.59198" lon="4.07218">
        <ele>407</ele>
        <time>2016-04-24T07:19:19Z</time>
      </trkpt>
      <trkpt lat="45.59201" lon="4.07224">
        <ele>407</ele>
        <time>2016-04-24T07:19:24Z</time>
      </trkpt>
      <trkpt lat="45.59205" lon="4.07225">
        <ele>407</ele>
        <time>2016-04-24T07:19:29Z</time>
      </trkpt>
      <trkpt lat="45.59211" lon="4.07225">
        <ele>407</ele>
        <time>2016-04-24T07:19:34Z</time>
      </trkpt>
      <trkpt lat="45.59215" lon="4.07229">
        <ele>406</ele>
        <time>2016-04-24T07:19:39Z</time>
      </trkpt>
      <trkpt lat="45.5922" lon="4.07232">
        <ele>407</ele>
        <time>2016-04-24T07:19:44Z</time>
      </trkpt>
      <trkpt lat="45.59255" lon="4.07221">
        <ele>405</ele>
        <time>2016-04-24T07:20:13Z</time>
      </trkpt>
      <trkpt lat="45.5926" lon="4.07225">
        <ele>405</ele>
        <time>2016-04-24T07:20:19Z</time>
      </trkpt>
      <trkpt lat="45.59262" lon="4.07232">
        <ele>405</ele>
        <time>2016-04-24T07:20:23Z</time>
      </trkpt>
      <trkpt lat="45.59262" lon="4.07239">
        <ele>404</ele>
        <time>2016-04-24T07:20:27Z</time>
      </trkpt>
      <trkpt lat="45.59261" lon="4.07281">
        <ele>404</ele>
        <time>2016-04-24T07:21:07Z</time>
      </trkpt>
      <trkpt lat="45.59265" lon="4.07317">
        <ele>404</ele>
        <time>2016-04-24T07:21:27Z</time>
      </trkpt>
      <trkpt lat="45.59261" lon="4.07346">
        <ele>403</ele>
        <time>2016-04-24T07:21:45Z</time>
      </trkpt>
      <trkpt lat="45.59266" lon="4.0736">
        <ele>403</ele>
        <time>2016-04-24T07:21:53Z</time>
      </trkpt>
      <trkpt lat="45.59266" lon="4.07373">
        <ele>403</ele>
        <time>2016-04-24T07:22:02Z</time>
      </trkpt>
      <trkpt lat="45.59269" lon="4.07378">
        <ele>403</ele>
        <time>2016-04-24T07:22:06Z</time>
      </trkpt>
      <trkpt lat="45.59272" lon="4.07399">
        <ele>402</ele>
        <time>2016-04-24T07:22:20Z</time>
      </trkpt>
      <trkpt lat="45.59269" lon="4.07419">
        <ele>403</ele>
        <time>2016-04-24T07:22:41Z</time>
      </trkpt>
      <trkpt lat="45.5927" lon="4.07436">
        <ele>403</ele>
        <time>2016-04-24T07:22:56Z</time>
      </trkpt>
      <trkpt lat="45.59275" lon="4.07449">
        <ele>402</ele>
        <time>2016-04-24T07:23:04Z</time>
      </trkpt>
      <trkpt lat="45.59274" lon="4.07457">
        <ele>401</ele>
        <time>2016-04-24T07:23:08Z</time>
      </trkpt>
      <trkpt lat="45.59277" lon="4.07492">
        <ele>400</ele>
        <time>2016-04-24T07:23:30Z</time>
      </trkpt>
      <trkpt lat="45.59282" lon="4.07503">
        <ele>400</ele>
        <time>2016-04-24T07:23:36Z</time>
      </trkpt>
      <trkpt lat="45.5928" lon="4.07529">
        <ele>400</ele>
        <time>2016-04-24T07:23:57Z</time>
      </trkpt>
      <trkpt lat="45.59286" lon="4.07553">
        <ele>400</ele>
        <time>2016-04-24T07:24:11Z</time>
      </trkpt>
      <trkpt lat="45.59292" lon="4.07563">
        <ele>400</ele>
        <time>2016-04-24T07:24:24Z</time>
      </trkpt>
      <trkpt lat="45.59287" lon="4.0757">
        <ele>400</ele>
        <time>2016-04-24T07:24:50Z</time>
      </trkpt>
      <trkpt lat="45.59283" lon="4.07575">
        <ele>400</ele>
        <time>2016-04-24T07:24:54Z</time>
      </trkpt>
      <trkpt lat="45.59278" lon="4.07577">
        <ele>400</ele>
        <time>2016-04-24T07:25:00Z</time>
      </trkpt>
      <trkpt lat="45.59273" lon="4.07576">
        <ele>400</ele>
        <time>2016-04-24T07:25:04Z</time>
      </trkpt>
      <trkpt lat="45.59223" lon="4.07577">
        <ele>399</ele>
        <time>2016-04-24T07:25:46Z</time>
      </trkpt>
      <trkpt lat="45.59154" lon="4.07566">
        <ele>397</ele>
        <time>2016-04-24T07:26:43Z</time>
      </trkpt>
      <trkpt lat="45.59138" lon="4.07568">
        <ele>398</ele>
        <time>2016-04-24T07:26:56Z</time>
      </trkpt>
      <trkpt lat="45.59104" lon="4.07599">
        <ele>397</ele>
        <time>2016-04-24T07:27:31Z</time>
      </trkpt>
      <trkpt lat="45.59098" lon="4.07601">
        <ele>397</ele>
        <time>2016-04-24T07:27:36Z</time>
      </trkpt>
      <trkpt lat="45.59062" lon="4.07622">
        <ele>398</ele>
        <time>2016-04-24T07:28:06Z</time>
      </trkpt>
      <trkpt lat="45.59017" lon="4.07663">
        <ele>399</ele>
        <time>2016-04-24T07:28:51Z</time>
      </trkpt>
      <trkpt lat="45.5899" lon="4.07681">
        <ele>397</ele>
        <time>2016-04-24T07:29:17Z</time>
      </trkpt>
      <trkpt lat="45.58962" lon="4.07688">
        <ele>397</ele>
        <time>2016-04-24T07:29:41Z</time>
      </trkpt>
      <trkpt lat="45.58952" lon="4.07694">
        <ele>398</ele>
        <time>2016-04-24T07:29:49Z</time>
      </trkpt>
      <trkpt lat="45.58922" lon="4.07746">
        <ele>400</ele>
        <time>2016-04-24T07:30:28Z</time>
      </trkpt>
      <trkpt lat="45.58889" lon="4.07774">
        <ele>398</ele>
        <time>2016-04-24T07:31:01Z</time>
      </trkpt>
      <trkpt lat="45.58879" lon="4.07779">
        <ele>398</ele>
        <time>2016-04-24T07:31:09Z</time>
      </trkpt>
      <trkpt lat="45.58841" lon="4.07814">
        <ele>399</ele>
        <time>2016-04-24T07:31:46Z</time>
      </trkpt>
      <trkpt lat="45.58832" lon="4.0782">
        <ele>399</ele>
        <time>2016-04-24T07:31:54Z</time>
      </trkpt>
      <trkpt lat="45.58818" lon="4.07839">
        <ele>399</ele>
        <time>2016-04-24T07:32:10Z</time>
      </trkpt>
      <trkpt lat="45.58782" lon="4.07854">
        <ele>399</ele>
        <time>2016-04-24T07:32:45Z</time>
      </trkpt>
      <trkpt lat="45.58738" lon="4.07846">
        <ele>400</ele>
        <time>2016-04-24T07:33:50Z</time>
      </trkpt>
      <trkpt lat="45.5868" lon="4.07863">
        <ele>399</ele>
        <time>2016-04-24T07:34:38Z</time>
      </trkpt>
      <trkpt lat="45.58589" lon="4.07905">
        <ele>399</ele>
        <time>2016-04-24T07:35:56Z</time>
      </trkpt>
      <trkpt lat="45.58561" lon="4.07923">
        <ele>401</ele>
        <time>2016-04-24T07:36:21Z</time>
      </trkpt>
      <trkpt lat="45.58533" lon="4.07931">
        <ele>402</ele>
        <time>2016-04-24T07:36:48Z</time>
      </trkpt>
      <trkpt lat="45.58529" lon="4.07936">
        <ele>402</ele>
        <time>2016-04-24T07:36:52Z</time>
      </trkpt>
      <trkpt lat="45.58521" lon="4.07955">
        <ele>403</ele>
        <time>2016-04-24T07:37:04Z</time>
      </trkpt>
      <trkpt lat="45.58518" lon="4.07961">
        <ele>403</ele>
        <time>2016-04-24T07:37:08Z</time>
      </trkpt>
      <trkpt lat="45.58454" lon="4.0816">
        <ele>403</ele>
        <time>2016-04-24T07:39:19Z</time>
      </trkpt>
      <trkpt lat="45.58447" lon="4.08169">
        <ele>403</ele>
        <time>2016-04-24T07:39:27Z</time>
      </trkpt>
      <trkpt lat="45.58438" lon="4.08174">
        <ele>403</ele>
        <time>2016-04-24T07:39:35Z</time>
      </trkpt>
      <trkpt lat="45.58428" lon="4.08177">
        <ele>404</ele>
        <time>2016-04-24T07:39:43Z</time>
      </trkpt>
      <trkpt lat="45.58359" lon="4.08137">
        <ele>408</ele>
        <time>2016-04-24T07:40:44Z</time>
      </trkpt>
      <trkpt lat="45.58355" lon="4.08133">
        <ele>408</ele>
        <time>2016-04-24T07:40:48Z</time>
      </trkpt>
      <trkpt lat="45.58343" lon="4.0812">
        <ele>408</ele>
        <time>2016-04-24T07:41:02Z</time>
      </trkpt>
      <trkpt lat="45.58329" lon="4.08093">
        <ele>410</ele>
        <time>2016-04-24T07:41:22Z</time>
      </trkpt>
      <trkpt lat="45.58316" lon="4.08054">
        <ele>411</ele>
        <time>2016-04-24T07:41:50Z</time>
      </trkpt>
      <trkpt lat="45.58307" lon="4.08049">
        <ele>411</ele>
        <time>2016-04-24T07:41:58Z</time>
      </trkpt>
      <trkpt lat="45.58267" lon="4.08046">
        <ele>413</ele>
        <time>2016-04-24T07:42:31Z</time>
      </trkpt>
      <trkpt lat="45.58262" lon="4.08043">
        <ele>414</ele>
        <time>2016-04-24T07:42:36Z</time>
      </trkpt>
      <trkpt lat="45.5821" lon="4.07939">
        <ele>418</ele>
        <time>2016-04-24T07:43:56Z</time>
      </trkpt>
      <trkpt lat="45.58198" lon="4.07923">
        <ele>419</ele>
        <time>2016-04-24T07:44:17Z</time>
      </trkpt>
      <trkpt lat="45.58183" lon="4.07907">
        <ele>421</ele>
        <time>2016-04-24T07:44:39Z</time>
      </trkpt>
      <trkpt lat="45.58179" lon="4.07898">
        <ele>421</ele>
        <time>2016-04-24T07:46:19Z</time>
      </trkpt>
      <trkpt lat="45.5815" lon="4.07871">
        <ele>427</ele>
        <time>2016-04-24T07:46:53Z</time>
      </trkpt>
      <trkpt lat="45.58145" lon="4.07872">
        <ele>428</ele>
        <time>2016-04-24T07:46:57Z</time>
      </trkpt>
      <trkpt lat="45.58086" lon="4.07952">
        <ele>423</ele>
        <time>2016-04-24T07:48:06Z</time>
      </trkpt>
      <trkpt lat="45.58075" lon="4.07952">
        <ele>423</ele>
        <time>2016-04-24T07:48:15Z</time>
      </trkpt>
      <trkpt lat="45.58073" lon="4.07953">
        <ele>425</ele>
        <time>2016-04-24T07:48:42Z</time>
      </trkpt>
      <trkpt lat="45.58058" lon="4.07973">
        <ele>423</ele>
        <time>2016-04-24T07:49:01Z</time>
      </trkpt>
      <trkpt lat="45.58054" lon="4.07979">
        <ele>423</ele>
        <time>2016-04-24T07:49:06Z</time>
      </trkpt>
      <trkpt lat="45.58046" lon="4.07973">
        <ele>423</ele>
        <time>2016-04-24T07:49:14Z</time>
      </trkpt>
      <trkpt lat="45.58043" lon="4.07967">
        <ele>422</ele>
        <time>2016-04-24T07:49:18Z</time>
      </trkpt>
      <trkpt lat="45.58039" lon="4.07953">
        <ele>423</ele>
        <time>2016-04-24T07:49:28Z</time>
      </trkpt>
      <trkpt lat="45.58031" lon="4.07947">
        <ele>423</ele>
        <time>2016-04-24T07:49:36Z</time>
      </trkpt>
      <trkpt lat="45.58026" lon="4.07945">
        <ele>424</ele>
        <time>2016-04-24T07:49:53Z</time>
      </trkpt>
      <trkpt lat="45.58011" lon="4.07948">
        <ele>424</ele>
        <time>2016-04-24T07:50:06Z</time>
      </trkpt>
      <trkpt lat="45.58002" lon="4.07955">
        <ele>424</ele>
        <time>2016-04-24T07:50:14Z</time>
      </trkpt>
      <trkpt lat="45.57974" lon="4.07969">
        <ele>427</ele>
        <time>2016-04-24T07:50:44Z</time>
      </trkpt>
      <trkpt lat="45.57842" lon="4.07996">
        <ele>436</ele>
        <time>2016-04-24T07:52:33Z</time>
      </trkpt>
      <trkpt lat="45.57796" lon="4.08031">
        <ele>435</ele>
        <time>2016-04-24T07:53:19Z</time>
      </trkpt>
      <trkpt lat="45.57771" lon="4.08037">
        <ele>436</ele>
        <time>2016-04-24T07:53:44Z</time>
      </trkpt>
      <trkpt lat="45.5774" lon="4.08059">
        <ele>439</ele>
        <time>2016-04-24T07:54:18Z</time>
      </trkpt>
      <trkpt lat="45.57654" lon="4.08141">
        <ele>440</ele>
        <time>2016-04-24T07:55:43Z</time>
      </trkpt>
      <trkpt lat="45.57627" lon="4.0818">
        <ele>440</ele>
        <time>2016-04-24T07:56:16Z</time>
      </trkpt>
      <trkpt lat="45.57596" lon="4.08204">
        <ele>437</ele>
        <time>2016-04-24T07:56:49Z</time>
      </trkpt>
      <trkpt lat="45.57568" lon="4.08193">
        <ele>435</ele>
        <time>2016-04-24T07:57:15Z</time>
      </trkpt>
      <trkpt lat="45.57551" lon="4.08181">
        <ele>436</ele>
        <time>2016-04-24T07:57:35Z</time>
      </trkpt>
      <trkpt lat="45.57516" lon="4.0813">
        <ele>437</ele>
        <time>2016-04-24T07:58:12Z</time>
      </trkpt>
      <trkpt lat="45.57498" lon="4.08094">
        <ele>438</ele>
        <time>2016-04-24T07:58:36Z</time>
      </trkpt>
      <trkpt lat="45.57495" lon="4.08093">
        <ele>439</ele>
        <time>2016-04-24T07:58:43Z</time>
      </trkpt>
      <trkpt lat="45.57491" lon="4.08083">
        <ele>437</ele>
        <time>2016-04-24T07:59:53Z</time>
      </trkpt>
      <trkpt lat="45.57486" lon="4.0807">
        <ele>440</ele>
        <time>2016-04-24T08:00:07Z</time>
      </trkpt>
      <trkpt lat="45.57479" lon="4.08062">
        <ele>441</ele>
        <time>2016-04-24T08:00:18Z</time>
      </trkpt>
      <trkpt lat="45.57468" lon="4.08041">
        <ele>441</ele>
        <time>2016-04-24T08:00:40Z</time>
      </trkpt>
      <trkpt lat="45.57451" lon="4.08027">
        <ele>440</ele>
        <time>2016-04-24T08:00:58Z</time>
      </trkpt>
      <trkpt lat="45.57442" lon="4.08021">
        <ele>437</ele>
        <time>2016-04-24T08:01:06Z</time>
      </trkpt>
      <trkpt lat="45.57429" lon="4.0801">
        <ele>436</ele>
        <time>2016-04-24T08:01:19Z</time>
      </trkpt>
      <trkpt lat="45.57426" lon="4.08005">
        <ele>438</ele>
        <time>2016-04-24T08:01:26Z</time>
      </trkpt>
      <trkpt lat="45.5742" lon="4.08002">
        <ele>440</ele>
        <time>2016-04-24T08:02:00Z</time>
      </trkpt>
      <trkpt lat="45.57416" lon="4.07997">
        <ele>440</ele>
        <time>2016-04-24T08:02:03Z</time>
      </trkpt>
      <trkpt lat="45.57411" lon="4.07984">
        <ele>441</ele>
        <time>2016-04-24T08:02:11Z</time>
      </trkpt>
      <trkpt lat="45.57409" lon="4.07977">
        <ele>441</ele>
        <time>2016-04-24T08:02:16Z</time>
      </trkpt>
      <trkpt lat="45.57409" lon="4.07967">
        <ele>442</ele>
        <time>2016-04-24T08:02:21Z</time>
      </trkpt>
      <trkpt lat="45.57415" lon="4.07948">
        <ele>442</ele>
        <time>2016-04-24T08:02:33Z</time>
      </trkpt>
      <trkpt lat="45.57422" lon="4.07906">
        <ele>445</ele>
        <time>2016-04-24T08:03:01Z</time>
      </trkpt>
      <trkpt lat="45.5742" lon="4.07893">
        <ele>445</ele>
        <time>2016-04-24T08:03:09Z</time>
      </trkpt>
      <trkpt lat="45.57413" lon="4.07883">
        <ele>445</ele>
        <time>2016-04-24T08:03:16Z</time>
      </trkpt>
      <trkpt lat="45.57384" lon="4.07872">
        <ele>446</ele>
        <time>2016-04-24T08:03:44Z</time>
      </trkpt>
      <trkpt lat="45.57347" lon="4.07878">
        <ele>448</ele>
        <time>2016-04-24T08:04:19Z</time>
      </trkpt>
      <trkpt lat="45.5732" lon="4.07872">
        <ele>449</ele>
        <time>2016-04-24T08:04:38Z</time>
      </trkpt>
      <trkpt lat="45.57311" lon="4.07879">
        <ele>450</ele>
        <time>2016-04-24T08:04:50Z</time>
      </trkpt>
      <trkpt lat="45.57308" lon="4.07877">
        <ele>450</ele>
        <time>2016-04-24T08:04:57Z</time>
      </trkpt>
      <trkpt lat="45.57304" lon="4.07874">
        <ele>450</ele>
        <time>2016-04-24T08:05:03Z</time>
      </trkpt>
      <trkpt lat="45.57298" lon="4.07874">
        <ele>451</ele>
        <time>2016-04-24T08:05:07Z</time>
      </trkpt>
      <trkpt lat="45.57294" lon="4.0787">
        <ele>451</ele>
        <time>2016-04-24T08:05:11Z</time>
      </trkpt>
      <trkpt lat="45.57289" lon="4.07866">
        <ele>449</ele>
        <time>2016-04-24T08:05:15Z</time>
      </trkpt>
      <trkpt lat="45.57286" lon="4.0786">
        <ele>448</ele>
        <time>2016-04-24T08:05:19Z</time>
      </trkpt>
      <trkpt lat="45.57251" lon="4.07825">
        <ele>451</ele>
        <time>2016-04-24T08:05:55Z</time>
      </trkpt>
      <trkpt lat="45.57242" lon="4.07821">
        <ele>451</ele>
        <time>2016-04-24T08:06:03Z</time>
      </trkpt>
      <trkpt lat="45.57238" lon="4.07821">
        <ele>451</ele>
        <time>2016-04-24T08:06:07Z</time>
      </trkpt>
      <trkpt lat="45.57116" lon="4.07791">
        <ele>454</ele>
        <time>2016-04-24T08:07:52Z</time>
      </trkpt>
      <trkpt lat="45.57108" lon="4.07782">
        <ele>454</ele>
        <time>2016-04-24T08:08:01Z</time>
      </trkpt>
      <trkpt lat="45.57103" lon="4.07781">
        <ele>454</ele>
        <time>2016-04-24T08:08:06Z</time>
      </trkpt>
      <trkpt lat="45.57084" lon="4.0778">
        <ele>455</ele>
        <time>2016-04-24T08:08:25Z</time>
      </trkpt>
      <trkpt lat="45.57063" lon="4.07777">
        <ele>457</ele>
        <time>2016-04-24T08:08:44Z</time>
      </trkpt>
      <trkpt lat="45.57015" lon="4.07788">
        <ele>459</ele>
        <time>2016-04-24T08:09:28Z</time>
      </trkpt>
      <trkpt lat="45.56981" lon="4.078">
        <ele>460</ele>
        <time>2016-04-24T08:09:59Z</time>
      </trkpt>
      <trkpt lat="45.56974" lon="4.07819">
        <ele>460</ele>
        <time>2016-04-24T08:10:14Z</time>
      </trkpt>
      <trkpt lat="45.56934" lon="4.0789">
        <ele>460</ele>
        <time>2016-04-24T08:11:52Z</time>
      </trkpt>
      <trkpt lat="45.56929" lon="4.07895">
        <ele>460</ele>
        <time>2016-04-24T08:11:57Z</time>
      </trkpt>
      <trkpt lat="45.56899" lon="4.07901">
        <ele>462</ele>
        <time>2016-04-24T08:12:28Z</time>
      </trkpt>
      <trkpt lat="45.56894" lon="4.07902">
        <ele>462</ele>
        <time>2016-04-24T08:12:33Z</time>
      </trkpt>
      <trkpt lat="45.5685" lon="4.0791">
        <ele>465</ele>
        <time>2016-04-24T08:13:17Z</time>
      </trkpt>
      <trkpt lat="45.56833" lon="4.07928">
        <ele>466</ele>
        <time>2016-04-24T08:13:36Z</time>
      </trkpt>
      <trkpt lat="45.56829" lon="4.0793">
        <ele>466</ele>
        <time>2016-04-24T08:13:40Z</time>
      </trkpt>
      <trkpt lat="45.56782" lon="4.0797">
        <ele>467</ele>
        <time>2016-04-24T08:14:30Z</time>
      </trkpt>
      <trkpt lat="45.56778" lon="4.07975">
        <ele>467</ele>
        <time>2016-04-24T08:14:34Z</time>
      </trkpt>
      <trkpt lat="45.56762" lon="4.07989">
        <ele>467</ele>
        <time>2016-04-24T08:14:50Z</time>
      </trkpt>
      <trkpt lat="45.56758" lon="4.07991">
        <ele>468</ele>
        <time>2016-04-24T08:15:07Z</time>
      </trkpt>
      <trkpt lat="45.56749" lon="4.07997">
        <ele>467</ele>
        <time>2016-04-24T08:15:16Z</time>
      </trkpt>
      <trkpt lat="45.56742" lon="4.08006">
        <ele>468</ele>
        <time>2016-04-24T08:15:27Z</time>
      </trkpt>
      <trkpt lat="45.56739" lon="4.08011">
        <ele>469</ele>
        <time>2016-04-24T08:15:33Z</time>
      </trkpt>
      <trkpt lat="45.56742" lon="4.08024">
        <ele>468</ele>
        <time>2016-04-24T08:16:58Z</time>
      </trkpt>
      <trkpt lat="45.56739" lon="4.08033">
        <ele>468</ele>
        <time>2016-04-24T08:17:39Z</time>
      </trkpt>
      <trkpt lat="45.56741" lon="4.08023">
        <ele>468</ele>
        <time>2016-04-24T08:18:14Z</time>
      </trkpt>
      <trkpt lat="45.56754" lon="4.08029">
        <ele>468</ele>
        <time>2016-04-24T08:18:25Z</time>
      </trkpt>
      <trkpt lat="45.56762" lon="4.08037">
        <ele>469</ele>
        <time>2016-04-24T08:18:42Z</time>
      </trkpt>
      <trkpt lat="45.56755" lon="4.08037">
        <ele>469</ele>
        <time>2016-04-24T08:19:17Z</time>
      </trkpt>
      <trkpt lat="45.56748" lon="4.08038">
        <ele>468</ele>
        <time>2016-04-24T08:19:33Z</time>
      </trkpt>
      <trkpt lat="45.56738" lon="4.08033">
        <ele>464</ele>
        <time>2016-04-24T08:24:28Z</time>
      </trkpt>
      <trkpt lat="45.56735" lon="4.08024">
        <ele>464</ele>
        <time>2016-04-24T08:24:47Z</time>
      </trkpt>
      <trkpt lat="45.56724" lon="4.08011">
        <ele>467</ele>
        <time>2016-04-24T08:25:04Z</time>
      </trkpt>
      <trkpt lat="45.56703" lon="4.08009">
        <ele>467</ele>
        <time>2016-04-24T08:25:19Z</time>
      </trkpt>
      <trkpt lat="45.56699" lon="4.08012">
        <ele>467</ele>
        <time>2016-04-24T08:25:24Z</time>
      </trkpt>
      <trkpt lat="45.56694" lon="4.08011">
        <ele>468</ele>
        <time>2016-04-24T08:25:30Z</time>
      </trkpt>
      <trkpt lat="45.56688" lon="4.08005">
        <ele>470</ele>
        <time>2016-04-24T08:25:42Z</time>
      </trkpt>
      <trkpt lat="45.56683" lon="4.08006">
        <ele>468</ele>
        <time>2016-04-24T08:26:02Z</time>
      </trkpt>
      <trkpt lat="45.56659" lon="4.08002">
        <ele>472</ele>
        <time>2016-04-24T08:26:28Z</time>
      </trkpt>
      <trkpt lat="45.56647" lon="4.0799">
        <ele>472</ele>
        <time>2016-04-24T08:26:47Z</time>
      </trkpt>
      <trkpt lat="45.56639" lon="4.07983">
        <ele>473</ele>
        <time>2016-04-24T08:26:59Z</time>
      </trkpt>
      <trkpt lat="45.56603" lon="4.07916">
        <ele>482</ele>
        <time>2016-04-24T08:28:18Z</time>
      </trkpt>
      <trkpt lat="45.56599" lon="4.07912">
        <ele>480</ele>
        <time>2016-04-24T08:28:23Z</time>
      </trkpt>
      <trkpt lat="45.56596" lon="4.07906">
        <ele>480</ele>
        <time>2016-04-24T08:28:28Z</time>
      </trkpt>
      <trkpt lat="45.5659" lon="4.07899">
        <ele>480</ele>
        <time>2016-04-24T08:28:41Z</time>
      </trkpt>
      <trkpt lat="45.56564" lon="4.07876">
        <ele>483</ele>
        <time>2016-04-24T08:29:09Z</time>
      </trkpt>
      <trkpt lat="45.56398" lon="4.07764">
        <ele>498</ele>
        <time>2016-04-24T08:31:55Z</time>
      </trkpt>
      <trkpt lat="45.56388" lon="4.07761">
        <ele>498</ele>
        <time>2016-04-24T08:32:04Z</time>
      </trkpt>
      <trkpt lat="45.56367" lon="4.07746">
        <ele>501</ele>
        <time>2016-04-24T08:32:38Z</time>
      </trkpt>
      <trkpt lat="45.56336" lon="4.07713">
        <ele>503</ele>
        <time>2016-04-24T08:33:11Z</time>
      </trkpt>
      <trkpt lat="45.56272" lon="4.07672">
        <ele>506</ele>
        <time>2016-04-24T08:34:14Z</time>
      </trkpt>
      <trkpt lat="45.56238" lon="4.07643">
        <ele>507</ele>
        <time>2016-04-24T08:34:47Z</time>
      </trkpt>
      <trkpt lat="45.56214" lon="4.07631">
        <ele>507</ele>
        <time>2016-04-24T08:35:11Z</time>
      </trkpt>
      <trkpt lat="45.5621" lon="4.07634">
        <ele>507</ele>
        <time>2016-04-24T08:35:17Z</time>
      </trkpt>
      <trkpt lat="45.56203" lon="4.07643">
        <ele>507</ele>
        <time>2016-04-24T08:35:27Z</time>
      </trkpt>
      <trkpt lat="45.56191" lon="4.07665">
        <ele>506</ele>
        <time>2016-04-24T08:35:47Z</time>
      </trkpt>
      <trkpt lat="45.56184" lon="4.07681">
        <ele>507</ele>
        <time>2016-04-24T08:36:06Z</time>
      </trkpt>
      <trkpt lat="45.5618" lon="4.07685">
        <ele>505</ele>
        <time>2016-04-24T08:37:26Z</time>
      </trkpt>
      <trkpt lat="45.56179" lon="4.07693">
        <ele>505</ele>
        <time>2016-04-24T08:37:33Z</time>
      </trkpt>
      <trkpt lat="45.56147" lon="4.07736">
        <ele>504</ele>
        <time>2016-04-24T08:38:10Z</time>
      </trkpt>
      <trkpt lat="45.56119" lon="4.07764">
        <ele>504</ele>
        <time>2016-04-24T08:38:40Z</time>
      </trkpt>
      <trkpt lat="45.56116" lon="4.07779">
        <ele>504</ele>
        <time>2016-04-24T08:38:57Z</time>
      </trkpt>
      <trkpt lat="45.56116" lon="4.07786">
        <ele>504</ele>
        <time>2016-04-24T08:39:02Z</time>
      </trkpt>
      <trkpt lat="45.56113" lon="4.0779">
        <ele>504</ele>
        <time>2016-04-24T08:39:06Z</time>
      </trkpt>
      <trkpt lat="45.56092" lon="4.07797">
        <ele>504</ele>
        <time>2016-04-24T08:39:27Z</time>
      </trkpt>
      <trkpt lat="45.56079" lon="4.07807">
        <ele>506</ele>
        <time>2016-04-24T08:39:43Z</time>
      </trkpt>
      <trkpt lat="45.56076" lon="4.07814">
        <ele>507</ele>
        <time>2016-04-24T08:39:56Z</time>
      </trkpt>
      <trkpt lat="45.56072" lon="4.07818">
        <ele>507</ele>
        <time>2016-04-24T08:40:00Z</time>
      </trkpt>
      <trkpt lat="45.56069" lon="4.07823">
        <ele>507</ele>
        <time>2016-04-24T08:40:05Z</time>
      </trkpt>
      <trkpt lat="45.56067" lon="4.07829">
        <ele>508</ele>
        <time>2016-04-24T08:40:10Z</time>
      </trkpt>
      <trkpt lat="45.56042" lon="4.07858">
        <ele>508</ele>
        <time>2016-04-24T08:40:39Z</time>
      </trkpt>
      <trkpt lat="45.56032" lon="4.07865">
        <ele>509</ele>
        <time>2016-04-24T08:40:49Z</time>
      </trkpt>
      <trkpt lat="45.56009" lon="4.07871">
        <ele>513</ele>
        <time>2016-04-24T08:41:19Z</time>
      </trkpt>
      <trkpt lat="45.55959" lon="4.07833">
        <ele>520</ele>
        <time>2016-04-24T08:42:25Z</time>
      </trkpt>
      <trkpt lat="45.55951" lon="4.0783">
        <ele>521</ele>
        <time>2016-04-24T08:42:36Z</time>
      </trkpt>
      <trkpt lat="45.55947" lon="4.07825">
        <ele>523</ele>
        <time>2016-04-24T08:43:08Z</time>
      </trkpt>
      <trkpt lat="45.55943" lon="4.07823">
        <ele>522</ele>
        <time>2016-04-24T08:43:12Z</time>
      </trkpt>
      <trkpt lat="45.55939" lon="4.07818">
        <ele>522</ele>
        <time>2016-04-24T08:43:16Z</time>
      </trkpt>
      <trkpt lat="45.55935" lon="4.07815">
        <ele>523</ele>
        <time>2016-04-24T08:43:21Z</time>
      </trkpt>
      <trkpt lat="45.55927" lon="4.07803">
        <ele>524</ele>
        <time>2016-04-24T08:43:36Z</time>
      </trkpt>
      <trkpt lat="45.55924" lon="4.07797">
        <ele>524</ele>
        <time>2016-04-24T08:43:41Z</time>
      </trkpt>
      <trkpt lat="45.55917" lon="4.07788">
        <ele>524</ele>
        <time>2016-04-24T08:43:56Z</time>
      </trkpt>
      <trkpt lat="45.55908" lon="4.07784">
        <ele>524</ele>
        <time>2016-04-24T08:44:10Z</time>
      </trkpt>
      <trkpt lat="45.55903" lon="4.07786">
        <ele>526</ele>
        <time>2016-04-24T08:44:27Z</time>
      </trkpt>
      <trkpt lat="45.55901" lon="4.07791">
        <ele>529</ele>
        <time>2016-04-24T08:45:13Z</time>
      </trkpt>
      <trkpt lat="45.55899" lon="4.07793">
        <ele>529</ele>
        <time>2016-04-24T08:45:31Z</time>
      </trkpt>
      <trkpt lat="45.55895" lon="4.07791">
        <ele>529</ele>
        <time>2016-04-24T08:45:50Z</time>
      </trkpt>
      <trkpt lat="45.55894" lon="4.07796">
        <ele>528</ele>
        <time>2016-04-24T08:46:08Z</time>
      </trkpt>
      <trkpt lat="45.55891" lon="4.078">
        <ele>525</ele>
        <time>2016-04-24T08:46:17Z</time>
      </trkpt>
      <trkpt lat="45.55889" lon="4.07805">
        <ele>525</ele>
        <time>2016-04-24T08:48:47Z</time>
      </trkpt>
      <trkpt lat="45.55888" lon="4.07811">
        <ele>524</ele>
        <time>2016-04-24T08:48:52Z</time>
      </trkpt>
      <trkpt lat="45.55897" lon="4.07829">
        <ele>521</ele>
        <time>2016-04-24T08:49:04Z</time>
      </trkpt>
      <trkpt lat="45.55898" lon="4.07837">
        <ele>522</ele>
        <time>2016-04-24T08:49:09Z</time>
      </trkpt>
      <trkpt lat="45.55893" lon="4.07841">
        <ele>522</ele>
        <time>2016-04-24T08:49:13Z</time>
      </trkpt>
      <trkpt lat="45.55868" lon="4.07845">
        <ele>520</ele>
        <time>2016-04-24T08:49:33Z</time>
      </trkpt>
      <trkpt lat="45.55858" lon="4.0785">
        <ele>520</ele>
        <time>2016-04-24T08:49:42Z</time>
      </trkpt>
      <trkpt lat="45.55854" lon="4.07852">
        <ele>520</ele>
        <time>2016-04-24T08:49:47Z</time>
      </trkpt>
      <trkpt lat="45.55849" lon="4.07855">
        <ele>520</ele>
        <time>2016-04-24T08:49:53Z</time>
      </trkpt>
      <trkpt lat="45.55825" lon="4.0787">
        <ele>515</ele>
        <time>2016-04-24T08:50:26Z</time>
      </trkpt>
      <trkpt lat="45.55821" lon="4.07872">
        <ele>515</ele>
        <time>2016-04-24T08:50:30Z</time>
      </trkpt>
      <trkpt lat="45.55807" lon="4.07893">
        <ele>513</ele>
        <time>2016-04-24T08:50:54Z</time>
      </trkpt>
      <trkpt lat="45.55802" lon="4.07892">
        <ele>512</ele>
        <time>2016-04-24T08:51:00Z</time>
      </trkpt>
      <trkpt lat="45.55777" lon="4.07881">
        <ele>509</ele>
        <time>2016-04-24T08:51:25Z</time>
      </trkpt>
      <trkpt lat="45.55778" lon="4.07886">
        <ele>508</ele>
        <time>2016-04-24T08:51:37Z</time>
      </trkpt>
      <trkpt lat="45.55787" lon="4.07903">
        <ele>507</ele>
        <time>2016-04-24T08:51:50Z</time>
      </trkpt>
      <trkpt lat="45.55786" lon="4.0791">
        <ele>507</ele>
        <time>2016-04-24T08:51:56Z</time>
      </trkpt>
      <trkpt lat="45.55769" lon="4.07908">
        <ele>505</ele>
        <time>2016-04-24T08:52:15Z</time>
      </trkpt>
      <trkpt lat="45.55767" lon="4.0791">
        <ele>505</ele>
        <time>2016-04-24T08:52:26Z</time>
      </trkpt>
      <trkpt lat="45.55763" lon="4.07915">
        <ele>505</ele>
        <time>2016-04-24T08:52:32Z</time>
      </trkpt>
      <trkpt lat="45.55756" lon="4.07943">
        <ele>502</ele>
        <time>2016-04-24T08:52:49Z</time>
      </trkpt>
      <trkpt lat="45.55757" lon="4.0795">
        <ele>501</ele>
        <time>2016-04-24T08:52:53Z</time>
      </trkpt>
      <trkpt lat="45.55766" lon="4.07969">
        <ele>501</ele>
        <time>2016-04-24T08:53:05Z</time>
      </trkpt>
      <trkpt lat="45.5577" lon="4.07973">
        <ele>500</ele>
        <time>2016-04-24T08:53:09Z</time>
      </trkpt>
      <trkpt lat="45.55787" lon="4.07989">
        <ele>503</ele>
        <time>2016-04-24T08:53:25Z</time>
      </trkpt>
      <trkpt lat="45.5579" lon="4.07995">
        <ele>503</ele>
        <time>2016-04-24T08:53:29Z</time>
      </trkpt>
      <trkpt lat="45.55804" lon="4.08048">
        <ele>501</ele>
        <time>2016-04-24T08:54:02Z</time>
      </trkpt>
      <trkpt lat="45.55834" lon="4.08221">
        <ele>491</ele>
        <time>2016-04-24T08:55:56Z</time>
      </trkpt>
      <trkpt lat="45.5584" lon="4.08232">
        <ele>489</ele>
        <time>2016-04-24T08:56:04Z</time>
      </trkpt>
      <trkpt lat="45.55866" lon="4.08351">
        <ele>481</ele>
        <time>2016-04-24T08:57:15Z</time>
      </trkpt>
      <trkpt lat="45.55892" lon="4.08422">
        <ele>475</ele>
        <time>2016-04-24T08:58:10Z</time>
      </trkpt>
      <trkpt lat="45.55895" lon="4.0844">
        <ele>475</ele>
        <time>2016-04-24T08:58:29Z</time>
      </trkpt>
      <trkpt lat="45.55899" lon="4.08452">
        <ele>475</ele>
        <time>2016-04-24T08:58:37Z</time>
      </trkpt>
      <trkpt lat="45.55908" lon="4.08642">
        <ele>470</ele>
        <time>2016-04-24T09:00:25Z</time>
      </trkpt>
      <trkpt lat="45.55957" lon="4.08845">
        <ele>467</ele>
        <time>2016-04-24T09:02:26Z</time>
      </trkpt>
      <trkpt lat="45.55958" lon="4.08852">
        <ele>467</ele>
        <time>2016-04-24T09:02:30Z</time>
      </trkpt>
      <trkpt lat="45.55977" lon="4.08917">
        <ele>464</ele>
        <time>2016-04-24T09:03:10Z</time>
      </trkpt>
      <trkpt lat="45.55981" lon="4.08972">
        <ele>460</ele>
        <time>2016-04-24T09:03:43Z</time>
      </trkpt>
      <trkpt lat="45.56044" lon="4.09154">
        <ele>444</ele>
        <time>2016-04-24T09:05:55Z</time>
      </trkpt>
      <trkpt lat="45.56038" lon="4.09171">
        <ele>441</ele>
        <time>2016-04-24T09:06:26Z</time>
      </trkpt>
      <trkpt lat="45.55898" lon="4.09285">
        <ele>432</ele>
        <time>2016-04-24T09:08:47Z</time>
      </trkpt>
      <trkpt lat="45.55879" lon="4.09294">
        <ele>431</ele>
        <time>2016-04-24T09:09:03Z</time>
      </trkpt>
      <trkpt lat="45.55863" lon="4.09299">
        <ele>428</ele>
        <time>2016-04-24T09:09:18Z</time>
      </trkpt>
      <trkpt lat="45.55854" lon="4.09307">
        <ele>429</ele>
        <time>2016-04-24T09:09:29Z</time>
      </trkpt>
      <trkpt lat="45.55849" lon="4.0931">
        <ele>429</ele>
        <time>2016-04-24T09:09:33Z</time>
      </trkpt>
      <trkpt lat="45.55844" lon="4.0931">
        <ele>429</ele>
        <time>2016-04-24T09:09:38Z</time>
      </trkpt>
      <trkpt lat="45.5583" lon="4.09318">
        <ele>429</ele>
        <time>2016-04-24T09:09:51Z</time>
      </trkpt>
      <trkpt lat="45.55827" lon="4.09324">
        <ele>430</ele>
        <time>2016-04-24T09:09:57Z</time>
      </trkpt>
      <trkpt lat="45.55827" lon="4.09331">
        <ele>430</ele>
        <time>2016-04-24T09:10:03Z</time>
      </trkpt>
      <trkpt lat="45.55839" lon="4.09378">
        <ele>425</ele>
        <time>2016-04-24T09:10:48Z</time>
      </trkpt>
      <trkpt lat="45.55837" lon="4.09383">
        <ele>421</ele>
        <time>2016-04-24T09:12:39Z</time>
      </trkpt>
      <trkpt lat="45.55841" lon="4.09399">
        <ele>422</ele>
        <time>2016-04-24T09:13:11Z</time>
      </trkpt>
      <trkpt lat="45.55845" lon="4.09404">
        <ele>421</ele>
        <time>2016-04-24T09:13:19Z</time>
      </trkpt>
      <trkpt lat="45.55844" lon="4.09412">
        <ele>420</ele>
        <time>2016-04-24T09:13:24Z</time>
      </trkpt>
      <trkpt lat="45.55845" lon="4.09418">
        <ele>420</ele>
        <time>2016-04-24T09:13:29Z</time>
      </trkpt>
      <trkpt lat="45.55843" lon="4.09421">
        <ele>420</ele>
        <time>2016-04-24T09:13:42Z</time>
      </trkpt>
      <trkpt lat="45.55841" lon="4.09427">
        <ele>420</ele>
        <time>2016-04-24T09:13:54Z</time>
      </trkpt>
      <trkpt lat="45.55844" lon="4.09456">
        <ele>421</ele>
        <time>2016-04-24T09:14:18Z</time>
      </trkpt>
      <trkpt lat="45.55832" lon="4.09469">
        <ele>423</ele>
        <time>2016-04-24T09:14:34Z</time>
      </trkpt>
      <trkpt lat="45.55823" lon="4.09473">
        <ele>423</ele>
        <time>2016-04-24T09:14:46Z</time>
      </trkpt>
      <trkpt lat="45.55816" lon="4.09482">
        <ele>424</ele>
        <time>2016-04-24T09:14:55Z</time>
      </trkpt>
      <trkpt lat="45.55797" lon="4.09497">
        <ele>428</ele>
        <time>2016-04-24T09:15:24Z</time>
      </trkpt>
      <trkpt lat="45.55796" lon="4.09504">
        <ele>429</ele>
        <time>2016-04-24T09:15:31Z</time>
      </trkpt>
      <trkpt lat="45.55792" lon="4.09509">
        <ele>430</ele>
        <time>2016-04-24T09:15:37Z</time>
      </trkpt>
      <trkpt lat="45.55791" lon="4.09518">
        <ele>431</ele>
        <time>2016-04-24T09:16:06Z</time>
      </trkpt>
      <trkpt lat="45.55793" lon="4.09525">
        <ele>434</ele>
        <time>2016-04-24T09:16:12Z</time>
      </trkpt>
      <trkpt lat="45.55798" lon="4.09528">
        <ele>434</ele>
        <time>2016-04-24T09:16:17Z</time>
      </trkpt>
      <trkpt lat="45.55803" lon="4.09525">
        <ele>433</ele>
        <time>2016-04-24T09:16:23Z</time>
      </trkpt>
      <trkpt lat="45.55816" lon="4.09515">
        <ele>432</ele>
        <time>2016-04-24T09:16:37Z</time>
      </trkpt>
      <trkpt lat="45.55833" lon="4.09513">
        <ele>430</ele>
        <time>2016-04-24T09:16:59Z</time>
      </trkpt>
      <trkpt lat="45.55838" lon="4.09518">
        <ele>429</ele>
        <time>2016-04-24T09:17:48Z</time>
      </trkpt>
      <trkpt lat="45.55837" lon="4.09524">
        <ele>430</ele>
        <time>2016-04-24T09:17:53Z</time>
      </trkpt>
      <trkpt lat="45.55834" lon="4.09531">
        <ele>430</ele>
        <time>2016-04-24T09:17:58Z</time>
      </trkpt>
      <trkpt lat="45.55833" lon="4.09544">
        <ele>431</ele>
        <time>2016-04-24T09:18:07Z</time>
      </trkpt>
      <trkpt lat="45.55813" lon="4.09625">
        <ele>438</ele>
        <time>2016-04-24T09:19:07Z</time>
      </trkpt>
      <trkpt lat="45.55789" lon="4.09662">
        <ele>442</ele>
        <time>2016-04-24T09:19:40Z</time>
      </trkpt>
      <trkpt lat="45.55775" lon="4.09678">
        <ele>444</ele>
        <time>2016-04-24T09:20:01Z</time>
      </trkpt>
      <trkpt lat="45.55765" lon="4.09694">
        <ele>444</ele>
        <time>2016-04-24T09:20:18Z</time>
      </trkpt>
      <trkpt lat="45.55762" lon="4.097">
        <ele>445</ele>
        <time>2016-04-24T09:20:26Z</time>
      </trkpt>
      <trkpt lat="45.55748" lon="4.09738">
        <ele>449</ele>
        <time>2016-04-24T09:20:56Z</time>
      </trkpt>
      <trkpt lat="45.5571" lon="4.09799">
        <ele>450</ele>
        <time>2016-04-24T09:21:48Z</time>
      </trkpt>
      <trkpt lat="45.55708" lon="4.09805">
        <ele>450</ele>
        <time>2016-04-24T09:21:55Z</time>
      </trkpt>
      <trkpt lat="45.55671" lon="4.09864">
        <ele>452</ele>
        <time>2016-04-24T09:22:48Z</time>
      </trkpt>
      <trkpt lat="45.55659" lon="4.09875">
        <ele>453</ele>
        <time>2016-04-24T09:23:00Z</time>
      </trkpt>
      <trkpt lat="45.55654" lon="4.09877">
        <ele>453</ele>
        <time>2016-04-24T09:23:04Z</time>
      </trkpt>
      <trkpt lat="45.55637" lon="4.09892">
        <ele>452</ele>
        <time>2016-04-24T09:23:35Z</time>
      </trkpt>
      <trkpt lat="45.55628" lon="4.09896">
        <ele>451</ele>
        <time>2016-04-24T09:23:43Z</time>
      </trkpt>
      <trkpt lat="45.55624" lon="4.099">
        <ele>451</ele>
        <time>2016-04-24T09:23:48Z</time>
      </trkpt>
      <trkpt lat="45.55614" lon="4.09905">
        <ele>453</ele>
        <time>2016-04-24T09:23:58Z</time>
      </trkpt>
      <trkpt lat="45.55609" lon="4.09906">
        <ele>453</ele>
        <time>2016-04-24T09:24:03Z</time>
      </trkpt>
      <trkpt lat="45.556" lon="4.09911">
        <ele>452</ele>
        <time>2016-04-24T09:24:12Z</time>
      </trkpt>
      <trkpt lat="45.55591" lon="4.09919">
        <ele>452</ele>
        <time>2016-04-24T09:24:21Z</time>
      </trkpt>
      <trkpt lat="45.55562" lon="4.0992">
        <ele>454</ele>
        <time>2016-04-24T09:24:45Z</time>
      </trkpt>
      <trkpt lat="45.55557" lon="4.0992">
        <ele>455</ele>
        <time>2016-04-24T09:24:50Z</time>
      </trkpt>
      <trkpt lat="45.55551" lon="4.09921">
        <ele>455</ele>
        <time>2016-04-24T09:24:55Z</time>
      </trkpt>
      <trkpt lat="45.55479" lon="4.09915">
        <ele>457</ele>
        <time>2016-04-24T09:25:54Z</time>
      </trkpt>
      <trkpt lat="45.5546" lon="4.09908">
        <ele>458</ele>
        <time>2016-04-24T09:26:12Z</time>
      </trkpt>
      <trkpt lat="45.55456" lon="4.09907">
        <ele>459</ele>
        <time>2016-04-24T09:26:32Z</time>
      </trkpt>
      <trkpt lat="45.5546" lon="4.09908">
        <ele>459</ele>
        <time>2016-04-24T09:33:36Z</time>
      </trkpt>
      <trkpt lat="45.55459" lon="4.09914">
        <ele>458</ele>
        <time>2016-04-24T09:37:18Z</time>
      </trkpt>
      <trkpt lat="45.55459" lon="4.09921">
        <ele>458</ele>
        <time>2016-04-24T09:37:23Z</time>
      </trkpt>
      <trkpt lat="45.55455" lon="4.09927">
        <ele>457</ele>
        <time>2016-04-24T09:37:47Z</time>
      </trkpt>
      <trkpt lat="45.55459" lon="4.09938">
        <ele>457</ele>
        <time>2016-04-24T09:39:23Z</time>
      </trkpt>
      <trkpt lat="45.55457" lon="4.0993">
        <ele>457</ele>
        <time>2016-04-24T09:40:30Z</time>
      </trkpt>
      <trkpt lat="45.55458" lon="4.09917">
        <ele>457</ele>
        <time>2016-04-24T09:41:04Z</time>
      </trkpt>
      <trkpt lat="45.55459" lon="4.09922">
        <ele>457</ele>
        <time>2016-04-24T09:41:32Z</time>
      </trkpt>
      <trkpt lat="45.55453" lon="4.09933">
        <ele>457</ele>
        <time>2016-04-24T09:41:42Z</time>
      </trkpt>
      <trkpt lat="45.55457" lon="4.09931">
        <ele>456</ele>
        <time>2016-04-24T09:42:39Z</time>
      </trkpt>
      <trkpt lat="45.5546" lon="4.0992">
        <ele>455</ele>
        <time>2016-04-24T09:43:26Z</time>
      </trkpt>
      <trkpt lat="45.5546" lon="4.09913">
        <ele>455</ele>
        <time>2016-04-24T09:43:30Z</time>
      </trkpt>
      <trkpt lat="45.55457" lon="4.09907">
        <ele>455</ele>
        <time>2016-04-24T09:43:35Z</time>
      </trkpt>
      <trkpt lat="45.55448" lon="4.09899">
        <ele>455</ele>
        <time>2016-04-24T09:43:48Z</time>
      </trkpt>
      <trkpt lat="45.55448" lon="4.09885">
        <ele>457</ele>
        <time>2016-04-24T09:44:21Z</time>
      </trkpt>
      <trkpt lat="45.55443" lon="4.09883">
        <ele>457</ele>
        <time>2016-04-24T09:44:38Z</time>
      </trkpt>
      <trkpt lat="45.55428" lon="4.09883">
        <ele>459</ele>
        <time>2016-04-24T09:44:51Z</time>
      </trkpt>
      <trkpt lat="45.55424" lon="4.09878">
        <ele>459</ele>
        <time>2016-04-24T09:44:57Z</time>
      </trkpt>
      <trkpt lat="45.55413" lon="4.09876">
        <ele>458</ele>
        <time>2016-04-24T09:45:06Z</time>
      </trkpt>
      <trkpt lat="45.55405" lon="4.09868">
        <ele>459</ele>
        <time>2016-04-24T09:45:24Z</time>
      </trkpt>
      <trkpt lat="45.55386" lon="4.09838">
        <ele>458</ele>
        <time>2016-04-24T09:45:56Z</time>
      </trkpt>
      <trkpt lat="45.55387" lon="4.09832">
        <ele>458</ele>
        <time>2016-04-24T09:46:01Z</time>
      </trkpt>
      <trkpt lat="45.55383" lon="4.09818">
        <ele>459</ele>
        <time>2016-04-24T09:46:12Z</time>
      </trkpt>
      <trkpt lat="45.55382" lon="4.09803">
        <ele>459</ele>
        <time>2016-04-24T09:46:19Z</time>
      </trkpt>
      <trkpt lat="45.55374" lon="4.09785">
        <ele>460</ele>
        <time>2016-04-24T09:46:31Z</time>
      </trkpt>
      <trkpt lat="45.5537" lon="4.09778">
        <ele>460</ele>
        <time>2016-04-24T09:46:36Z</time>
      </trkpt>
      <trkpt lat="45.55367" lon="4.09771">
        <ele>460</ele>
        <time>2016-04-24T09:46:40Z</time>
      </trkpt>
      <trkpt lat="45.55357" lon="4.09725">
        <ele>462</ele>
        <time>2016-04-24T09:47:10Z</time>
      </trkpt>
      <trkpt lat="45.5532" lon="4.09654">
        <ele>465</ele>
        <time>2016-04-24T09:48:00Z</time>
      </trkpt>
      <trkpt lat="45.55318" lon="4.09647">
        <ele>466</ele>
        <time>2016-04-24T09:48:05Z</time>
      </trkpt>
      <trkpt lat="45.55259" lon="4.09598">
        <ele>469</ele>
        <time>2016-04-24T09:49:13Z</time>
      </trkpt>
      <trkpt lat="45.55228" lon="4.09563">
        <ele>471</ele>
        <time>2016-04-24T09:49:50Z</time>
      </trkpt>
      <trkpt lat="45.55217" lon="4.09549">
        <ele>472</ele>
        <time>2016-04-24T09:50:04Z</time>
      </trkpt>
      <trkpt lat="45.55209" lon="4.0953">
        <ele>473</ele>
        <time>2016-04-24T09:50:15Z</time>
      </trkpt>
      <trkpt lat="45.55172" lon="4.09511">
        <ele>475</ele>
        <time>2016-04-24T09:50:56Z</time>
      </trkpt>
      <trkpt lat="45.55143" lon="4.09487">
        <ele>475</ele>
        <time>2016-04-24T09:51:26Z</time>
      </trkpt>
      <trkpt lat="45.55074" lon="4.09439">
        <ele>476</ele>
        <time>2016-04-24T09:52:31Z</time>
      </trkpt>
      <trkpt lat="45.55034" lon="4.09394">
        <ele>477</ele>
        <time>2016-04-24T09:53:16Z</time>
      </trkpt>
      <trkpt lat="45.55029" lon="4.09395">
        <ele>477</ele>
        <time>2016-04-24T09:53:20Z</time>
      </trkpt>
      <trkpt lat="45.55023" lon="4.09394">
        <ele>478</ele>
        <time>2016-04-24T09:53:25Z</time>
      </trkpt>
      <trkpt lat="45.54963" lon="4.09324">
        <ele>480</ele>
        <time>2016-04-24T09:54:30Z</time>
      </trkpt>
      <trkpt lat="45.54948" lon="4.09303">
        <ele>481</ele>
        <time>2016-04-24T09:54:48Z</time>
      </trkpt>
      <trkpt lat="45.54945" lon="4.09301">
        <ele>482</ele>
        <time>2016-04-24T09:54:56Z</time>
      </trkpt>
      <trkpt lat="45.5494" lon="4.09296">
        <ele>482</ele>
        <time>2016-04-24T09:55:02Z</time>
      </trkpt>
      <trkpt lat="45.54944" lon="4.09292">
        <ele>482</ele>
        <time>2016-04-24T09:55:13Z</time>
      </trkpt>
      <trkpt lat="45.54944" lon="4.09284">
        <ele>483</ele>
        <time>2016-04-24T09:55:18Z</time>
      </trkpt>
      <trkpt lat="45.54941" lon="4.09278">
        <ele>483</ele>
        <time>2016-04-24T09:55:23Z</time>
      </trkpt>
      <trkpt lat="45.54938" lon="4.09272">
        <ele>484</ele>
        <time>2016-04-24T09:55:28Z</time>
      </trkpt>
      <trkpt lat="45.5492" lon="4.09221">
        <ele>486</ele>
        <time>2016-04-24T09:56:01Z</time>
      </trkpt>
      <trkpt lat="45.54838" lon="4.09096">
        <ele>489</ele>
        <time>2016-04-24T09:57:47Z</time>
      </trkpt>
      <trkpt lat="45.54776" lon="4.08972">
        <ele>492</ele>
        <time>2016-04-24T09:59:48Z</time>
      </trkpt>
      <trkpt lat="45.54752" lon="4.08936">
        <ele>492</ele>
        <time>2016-04-24T10:00:18Z</time>
      </trkpt>
      <trkpt lat="45.5474" lon="4.08922">
        <ele>492</ele>
        <time>2016-04-24T10:00:31Z</time>
      </trkpt>
      <trkpt lat="45.54734" lon="4.08913">
        <ele>492</ele>
        <time>2016-04-24T10:00:43Z</time>
      </trkpt>
      <trkpt lat="45.5473" lon="4.08899">
        <ele>493</ele>
        <time>2016-04-24T10:00:56Z</time>
      </trkpt>
      <trkpt lat="45.54728" lon="4.08885">
        <ele>493</ele>
        <time>2016-04-24T10:01:05Z</time>
      </trkpt>
      <trkpt lat="45.54726" lon="4.08879">
        <ele>494</ele>
        <time>2016-04-24T10:01:11Z</time>
      </trkpt>
      <trkpt lat="45.54692" lon="4.0881">
        <ele>496</ele>
        <time>2016-04-24T10:02:04Z</time>
      </trkpt>
      <trkpt lat="45.54647" lon="4.08707">
        <ele>503</ele>
        <time>2016-04-24T10:03:17Z</time>
      </trkpt>
      <trkpt lat="45.54619" lon="4.08693">
        <ele>506</ele>
        <time>2016-04-24T10:03:48Z</time>
      </trkpt>
      <trkpt lat="45.54597" lon="4.08675">
        <ele>508</ele>
        <time>2016-04-24T10:04:11Z</time>
      </trkpt>
      <trkpt lat="45.54494" lon="4.08615">
        <ele>513</ele>
        <time>2016-04-24T10:06:17Z</time>
      </trkpt>
      <trkpt lat="45.54371" lon="4.08475">
        <ele>523</ele>
        <time>2016-04-24T10:08:39Z</time>
      </trkpt>
      <trkpt lat="45.54358" lon="4.08465">
        <ele>524</ele>
        <time>2016-04-24T10:09:12Z</time>
      </trkpt>
      <trkpt lat="45.5433" lon="4.08437">
        <ele>527</ele>
        <time>2016-04-24T10:09:42Z</time>
      </trkpt>
      <trkpt lat="45.543" lon="4.08412">
        <ele>531</ele>
        <time>2016-04-24T10:10:16Z</time>
      </trkpt>
      <trkpt lat="45.54257" lon="4.08383">
        <ele>536</ele>
        <time>2016-04-24T10:11:33Z</time>
      </trkpt>
      <trkpt lat="45.54252" lon="4.08381">
        <ele>536</ele>
        <time>2016-04-24T10:11:39Z</time>
      </trkpt>
      <trkpt lat="45.54247" lon="4.08384">
        <ele>537</ele>
        <time>2016-04-24T10:11:43Z</time>
      </trkpt>
      <trkpt lat="45.54233" lon="4.08404">
        <ele>537</ele>
        <time>2016-04-24T10:12:02Z</time>
      </trkpt>
      <trkpt lat="45.54228" lon="4.08405">
        <ele>538</ele>
        <time>2016-04-24T10:12:07Z</time>
      </trkpt>
      <trkpt lat="45.54218" lon="4.08397">
        <ele>538</ele>
        <time>2016-04-24T10:13:08Z</time>
      </trkpt>
      <trkpt lat="45.54199" lon="4.08379">
        <ele>539</ele>
        <time>2016-04-24T10:13:25Z</time>
      </trkpt>
      <trkpt lat="45.54193" lon="4.08378">
        <ele>540</ele>
        <time>2016-04-24T10:13:32Z</time>
      </trkpt>
      <trkpt lat="45.54189" lon="4.0838">
        <ele>541</ele>
        <time>2016-04-24T10:13:37Z</time>
      </trkpt>
      <trkpt lat="45.54182" lon="4.08379">
        <ele>541</ele>
        <time>2016-04-24T10:13:51Z</time>
      </trkpt>
      <trkpt lat="45.54162" lon="4.08383">
        <ele>542</ele>
        <time>2016-04-24T10:14:13Z</time>
      </trkpt>
      <trkpt lat="45.54106" lon="4.08387">
        <ele>547</ele>
        <time>2016-04-24T10:15:14Z</time>
      </trkpt>
      <trkpt lat="45.54083" lon="4.08386">
        <ele>550</ele>
        <time>2016-04-24T10:15:45Z</time>
      </trkpt>
      <trkpt lat="45.54054" lon="4.08401">
        <ele>551</ele>
        <time>2016-04-24T10:16:49Z</time>
      </trkpt>
      <trkpt lat="45.5403" lon="4.08408">
        <ele>552</ele>
        <time>2016-04-24T10:17:20Z</time>
      </trkpt>
      <trkpt lat="45.54025" lon="4.0841">
        <ele>553</ele>
        <time>2016-04-24T10:17:25Z</time>
      </trkpt>
      <trkpt lat="45.53996" lon="4.08439">
        <ele>555</ele>
        <time>2016-04-24T10:17:57Z</time>
      </trkpt>
      <trkpt lat="45.53962" lon="4.08466">
        <ele>556</ele>
        <time>2016-04-24T10:18:29Z</time>
      </trkpt>
      <trkpt lat="45.53947" lon="4.08469">
        <ele>557</ele>
        <time>2016-04-24T10:18:42Z</time>
      </trkpt>
      <trkpt lat="45.53937" lon="4.08468">
        <ele>558</ele>
        <time>2016-04-24T10:18:51Z</time>
      </trkpt>
      <trkpt lat="45.53933" lon="4.08465">
        <ele>559</ele>
        <time>2016-04-24T10:18:56Z</time>
      </trkpt>
      <trkpt lat="45.53911" lon="4.08436">
        <ele>564</ele>
        <time>2016-04-24T10:19:31Z</time>
      </trkpt>
      <trkpt lat="45.53882" lon="4.08406">
        <ele>569</ele>
        <time>2016-04-24T10:20:06Z</time>
      </trkpt>
      <trkpt lat="45.53878" lon="4.084">
        <ele>569</ele>
        <time>2016-04-24T10:20:18Z</time>
      </trkpt>
      <trkpt lat="45.53819" lon="4.08336">
        <ele>578</ele>
        <time>2016-04-24T10:21:43Z</time>
      </trkpt>
      <trkpt lat="45.53818" lon="4.08324">
        <ele>580</ele>
        <time>2016-04-24T10:21:58Z</time>
      </trkpt>
      <trkpt lat="45.53823" lon="4.08309">
        <ele>582</ele>
        <time>2016-04-24T10:22:24Z</time>
      </trkpt>
      <trkpt lat="45.53827" lon="4.08304">
        <ele>583</ele>
        <time>2016-04-24T10:22:31Z</time>
      </trkpt>
      <trkpt lat="45.53834" lon="4.083">
        <ele>583</ele>
        <time>2016-04-24T10:22:38Z</time>
      </trkpt>
      <trkpt lat="45.53836" lon="4.083">
        <ele>583</ele>
        <time>2016-04-24T10:22:39Z</time>
      </trkpt>
      <trkpt lat="45.5384" lon="4.08295">
        <ele>583</ele>
        <time>2016-04-24T10:22:45Z</time>
      </trkpt>
      <trkpt lat="45.53854" lon="4.08265">
        <ele>585</ele>
        <time>2016-04-24T10:23:10Z</time>
      </trkpt>
      <trkpt lat="45.53858" lon="4.08261">
        <ele>585</ele>
        <time>2016-04-24T10:23:16Z</time>
      </trkpt>
      <trkpt lat="45.53867" lon="4.08228">
        <ele>587</ele>
        <time>2016-04-24T10:23:45Z</time>
      </trkpt>
      <trkpt lat="45.53865" lon="4.08221">
        <ele>588</ele>
        <time>2016-04-24T10:23:51Z</time>
      </trkpt>
      <trkpt lat="45.53867" lon="4.08201">
        <ele>590</ele>
        <time>2016-04-24T10:24:10Z</time>
      </trkpt>
      <trkpt lat="45.5387" lon="4.08187">
        <ele>590</ele>
        <time>2016-04-24T10:24:20Z</time>
      </trkpt>
      <trkpt lat="45.53869" lon="4.08173">
        <ele>590</ele>
        <time>2016-04-24T10:24:29Z</time>
      </trkpt>
      <trkpt lat="45.5387" lon="4.08166">
        <ele>591</ele>
        <time>2016-04-24T10:24:34Z</time>
      </trkpt>
      <trkpt lat="45.5387" lon="4.0811">
        <ele>594</ele>
        <time>2016-04-24T10:25:15Z</time>
      </trkpt>
      <trkpt lat="45.5388" lon="4.08061">
        <ele>595</ele>
        <time>2016-04-24T10:25:48Z</time>
      </trkpt>
      <trkpt lat="45.53878" lon="4.08026">
        <ele>597</ele>
        <time>2016-04-24T10:26:20Z</time>
      </trkpt>
      <trkpt lat="45.53873" lon="4.08006">
        <ele>600</ele>
        <time>2016-04-24T10:26:35Z</time>
      </trkpt>
      <trkpt lat="45.53866" lon="4.07994">
        <ele>601</ele>
        <time>2016-04-24T10:26:45Z</time>
      </trkpt>
      <trkpt lat="45.53831" lon="4.07946">
        <ele>606</ele>
        <time>2016-04-24T10:27:35Z</time>
      </trkpt>
      <trkpt lat="45.53812" lon="4.07935">
        <ele>606</ele>
        <time>2016-04-24T10:27:53Z</time>
      </trkpt>
      <trkpt lat="45.53791" lon="4.07932">
        <ele>606</ele>
        <time>2016-04-24T10:28:15Z</time>
      </trkpt>
      <trkpt lat="45.53763" lon="4.07942">
        <ele>608</ele>
        <time>2016-04-24T10:28:49Z</time>
      </trkpt>
      <trkpt lat="45.53743" lon="4.0796">
        <ele>612</ele>
        <time>2016-04-24T10:29:21Z</time>
      </trkpt>
      <trkpt lat="45.5372" lon="4.07987">
        <ele>616</ele>
        <time>2016-04-24T10:29:54Z</time>
      </trkpt>
      <trkpt lat="45.53708" lon="4.08011">
        <ele>618</ele>
        <time>2016-04-24T10:30:23Z</time>
      </trkpt>
      <trkpt lat="45.53699" lon="4.08045">
        <ele>620</ele>
        <time>2016-04-24T10:30:54Z</time>
      </trkpt>
      <trkpt lat="45.53699" lon="4.08058">
        <ele>621</ele>
        <time>2016-04-24T10:31:04Z</time>
      </trkpt>
      <trkpt lat="45.537" lon="4.08067">
        <ele>620</ele>
        <time>2016-04-24T10:31:33Z</time>
      </trkpt>
      <trkpt lat="45.53699" lon="4.08073">
        <ele>620</ele>
        <time>2016-04-24T10:31:39Z</time>
      </trkpt>
      <trkpt lat="45.53703" lon="4.08092">
        <ele>622</ele>
        <time>2016-04-24T10:31:57Z</time>
      </trkpt>
      <trkpt lat="45.53705" lon="4.08151">
        <ele>622</ele>
        <time>2016-04-24T10:34:09Z</time>
      </trkpt>
      <trkpt lat="45.53701" lon="4.08154">
        <ele>622</ele>
        <time>2016-04-24T10:36:05Z</time>
      </trkpt>
      <trkpt lat="45.53699" lon="4.0816">
        <ele>621</ele>
        <time>2016-04-24T10:36:13Z</time>
      </trkpt>
      <trkpt lat="45.53697" lon="4.08152">
        <ele>621</ele>
        <time>2016-04-24T10:36:59Z</time>
      </trkpt>
      <trkpt lat="45.53699" lon="4.08148">
        <ele>621</ele>
        <time>2016-04-24T10:37:12Z</time>
      </trkpt>
      <trkpt lat="45.53702" lon="4.0815">
        <ele>622</ele>
        <time>2016-04-24T10:37:45Z</time>
      </trkpt>
      <trkpt lat="45.537" lon="4.08156">
        <ele>622</ele>
        <time>2016-04-24T10:37:52Z</time>
      </trkpt>
      <trkpt lat="45.537" lon="4.08155">
        <ele>622</ele>
        <time>2016-04-24T10:38:17Z</time>
      </trkpt>
      <trkpt lat="45.53701" lon="4.08149">
        <ele>622</ele>
        <time>2016-04-24T10:38:24Z</time>
      </trkpt>
      <trkpt lat="45.53701" lon="4.08129">
        <ele>623</ele>
        <time>2016-04-24T10:38:36Z</time>
      </trkpt>
      <trkpt lat="45.53699" lon="4.08122">
        <ele>623</ele>
        <time>2016-04-24T10:38:40Z</time>
      </trkpt>
      <trkpt lat="45.53699" lon="4.0808">
        <ele>623</ele>
        <time>2016-04-24T10:39:08Z</time>
      </trkpt>
      <trkpt lat="45.53697" lon="4.08073">
        <ele>622</ele>
        <time>2016-04-24T10:39:12Z</time>
      </trkpt>
      <trkpt lat="45.537" lon="4.08052">
        <ele>621</ele>
        <time>2016-04-24T10:39:24Z</time>
      </trkpt>
      <trkpt lat="45.53705" lon="4.08048">
        <ele>621</ele>
        <time>2016-04-24T10:39:28Z</time>
      </trkpt>
      <trkpt lat="45.53744" lon="4.0803">
        <ele>628</ele>
        <time>2016-04-24T10:40:01Z</time>
      </trkpt>
      <trkpt lat="45.53763" lon="4.08038">
        <ele>630</ele>
        <time>2016-04-24T10:40:19Z</time>
      </trkpt>
      <trkpt lat="45.53782" lon="4.08059">
        <ele>633</ele>
        <time>2016-04-24T10:40:40Z</time>
      </trkpt>
      <trkpt lat="45.5379" lon="4.08109">
        <ele>637</ele>
        <time>2016-04-24T10:41:12Z</time>
      </trkpt>
      <trkpt lat="45.53787" lon="4.08148">
        <ele>641</ele>
        <time>2016-04-24T10:41:42Z</time>
      </trkpt>
      <trkpt lat="45.53782" lon="4.08149">
        <ele>639</ele>
        <time>2016-04-24T10:43:20Z</time>
      </trkpt>
      <trkpt lat="45.53777" lon="4.08139">
        <ele>638</ele>
        <time>2016-04-24T10:43:46Z</time>
      </trkpt>
      <trkpt lat="45.53776" lon="4.08137">
        <ele>638</ele>
        <time>2016-04-24T10:43:47Z</time>
      </trkpt>
      <trkpt lat="45.5376" lon="4.08126">
        <ele>643</ele>
        <time>2016-04-24T10:44:23Z</time>
      </trkpt>
      <trkpt lat="45.53764" lon="4.08129">
        <ele>643</ele>
        <time>2016-04-24T10:44:30Z</time>
      </trkpt>
      <trkpt lat="45.53769" lon="4.08129">
        <ele>643</ele>
        <time>2016-04-24T10:44:34Z</time>
      </trkpt>
      <trkpt lat="45.53771" lon="4.08132">
        <ele>642</ele>
        <time>2016-04-24T10:44:40Z</time>
      </trkpt>
      <trkpt lat="45.53778" lon="4.08142">
        <ele>640</ele>
        <time>2016-04-24T10:44:52Z</time>
      </trkpt>
      <trkpt lat="45.53778" lon="4.08148">
        <ele>639</ele>
        <time>2016-04-24T10:44:56Z</time>
      </trkpt>
      <trkpt lat="45.53775" lon="4.08154">
        <ele>639</ele>
        <time>2016-04-24T10:45:00Z</time>
      </trkpt>
      <trkpt lat="45.5371" lon="4.08177">
        <ele>626</ele>
        <time>2016-04-24T10:46:20Z</time>
      </trkpt>
      <trkpt lat="45.53707" lon="4.08172">
        <ele>625</ele>
        <time>2016-04-24T10:46:49Z</time>
      </trkpt>
      <trkpt lat="45.53707" lon="4.08158">
        <ele>625</ele>
        <time>2016-04-24T10:46:57Z</time>
      </trkpt>
      <trkpt lat="45.53702" lon="4.08144">
        <ele>625</ele>
        <time>2016-04-24T10:47:08Z</time>
      </trkpt>
      <trkpt lat="45.53704" lon="4.08121">
        <ele>625</ele>
        <time>2016-04-24T10:47:38Z</time>
      </trkpt>
      <trkpt lat="45.53702" lon="4.08128">
        <ele>626</ele>
        <time>2016-04-24T10:48:18Z</time>
      </trkpt>
      <trkpt lat="45.53702" lon="4.08143">
        <ele>626</ele>
        <time>2016-04-24T10:48:31Z</time>
      </trkpt>
      <trkpt lat="45.53701" lon="4.08151">
        <ele>625</ele>
        <time>2016-04-24T10:48:36Z</time>
      </trkpt>
      <trkpt lat="45.537" lon="4.08155">
        <ele>624</ele>
        <time>2016-04-24T10:48:43Z</time>
      </trkpt>
      <trkpt lat="45.53699" lon="4.08161">
        <ele>624</ele>
        <time>2016-04-24T10:49:22Z</time>
      </trkpt>
      <trkpt lat="45.53698" lon="4.0817">
        <ele>622</ele>
        <time>2016-04-24T11:29:05Z</time>
      </trkpt>
      <trkpt lat="45.53697" lon="4.08162">
        <ele>622</ele>
        <time>2016-04-24T11:31:14Z</time>
      </trkpt>
      <trkpt lat="45.53701" lon="4.08161">
        <ele>622</ele>
        <time>2016-04-24T11:31:46Z</time>
      </trkpt>
      <trkpt lat="45.53702" lon="4.08165">
        <ele>622</ele>
        <time>2016-04-24T11:32:56Z</time>
      </trkpt>
      <trkpt lat="45.53698" lon="4.08168">
        <ele>622</ele>
        <time>2016-04-24T11:34:45Z</time>
      </trkpt>
      <trkpt lat="45.53698" lon="4.08162">
        <ele>622</ele>
        <time>2016-04-24T11:43:51Z</time>
      </trkpt>
      <trkpt lat="45.53701" lon="4.08157">
        <ele>622</ele>
        <time>2016-04-24T11:43:58Z</time>
      </trkpt>
      <trkpt lat="45.53703" lon="4.08161">
        <ele>622</ele>
        <time>2016-04-24T11:44:09Z</time>
      </trkpt>
      <trkpt lat="45.537" lon="4.08163">
        <ele>623</ele>
        <time>2016-04-24T11:46:23Z</time>
      </trkpt>
      <trkpt lat="45.53697" lon="4.08178">
        <ele>620</ele>
        <time>2016-04-24T11:47:30Z</time>
      </trkpt>
      <trkpt lat="45.53693" lon="4.08177">
        <ele>618</ele>
        <time>2016-04-24T11:47:47Z</time>
      </trkpt>
      <trkpt lat="45.53685" lon="4.08164">
        <ele>618</ele>
        <time>2016-04-24T11:48:04Z</time>
      </trkpt>
      <trkpt lat="45.5368" lon="4.08144">
        <ele>619</ele>
        <time>2016-04-24T11:48:18Z</time>
      </trkpt>
      <trkpt lat="45.53676" lon="4.08145">
        <ele>619</ele>
        <time>2016-04-24T11:48:28Z</time>
      </trkpt>
      <trkpt lat="45.53672" lon="4.08181">
        <ele>616</ele>
        <time>2016-04-24T11:49:04Z</time>
      </trkpt>
      <trkpt lat="45.5367" lon="4.08189">
        <ele>615</ele>
        <time>2016-04-24T11:49:09Z</time>
      </trkpt>
      <trkpt lat="45.53667" lon="4.08194">
        <ele>614</ele>
        <time>2016-04-24T11:49:15Z</time>
      </trkpt>
      <trkpt lat="45.53661" lon="4.08195">
        <ele>612</ele>
        <time>2016-04-24T11:49:21Z</time>
      </trkpt>
      <trkpt lat="45.53647" lon="4.08196">
        <ele>607</ele>
        <time>2016-04-24T11:49:40Z</time>
      </trkpt>
      <trkpt lat="45.53645" lon="4.0819">
        <ele>606</ele>
        <time>2016-04-24T11:49:44Z</time>
      </trkpt>
      <trkpt lat="45.53643" lon="4.08183">
        <ele>606</ele>
        <time>2016-04-24T11:49:49Z</time>
      </trkpt>
      <trkpt lat="45.53621" lon="4.08126">
        <ele>604</ele>
        <time>2016-04-24T11:50:41Z</time>
      </trkpt>
      <trkpt lat="45.5362" lon="4.08119">
        <ele>603</ele>
        <time>2016-04-24T11:50:47Z</time>
      </trkpt>
      <trkpt lat="45.5359" lon="4.08024">
        <ele>593</ele>
        <time>2016-04-24T11:51:55Z</time>
      </trkpt>
      <trkpt lat="45.53582" lon="4.08007">
        <ele>590</ele>
        <time>2016-04-24T11:52:09Z</time>
      </trkpt>
      <trkpt lat="45.53576" lon="4.08009">
        <ele>590</ele>
        <time>2016-04-24T11:52:14Z</time>
      </trkpt>
      <trkpt lat="45.53506" lon="4.0805">
        <ele>583</ele>
        <time>2016-04-24T11:53:21Z</time>
      </trkpt>
      <trkpt lat="45.53376" lon="4.08027">
        <ele>579</ele>
        <time>2016-04-24T11:55:17Z</time>
      </trkpt>
      <trkpt lat="45.53377" lon="4.08023">
        <ele>579</ele>
        <time>2016-04-24T11:55:29Z</time>
      </trkpt>
      <trkpt lat="45.53272" lon="4.08001">
        <ele>581</ele>
        <time>2016-04-24T11:57:18Z</time>
      </trkpt>
      <trkpt lat="45.53263" lon="4.07997">
        <ele>582</ele>
        <time>2016-04-24T11:57:28Z</time>
      </trkpt>
      <trkpt lat="45.53259" lon="4.07991">
        <ele>581</ele>
        <time>2016-04-24T11:58:07Z</time>
      </trkpt>
      <trkpt lat="45.53226" lon="4.07969">
        <ele>585</ele>
        <time>2016-04-24T11:58:38Z</time>
      </trkpt>
      <trkpt lat="45.53222" lon="4.07965">
        <ele>586</ele>
        <time>2016-04-24T11:58:43Z</time>
      </trkpt>
      <trkpt lat="45.53213" lon="4.07959">
        <ele>586</ele>
        <time>2016-04-24T11:58:52Z</time>
      </trkpt>
      <trkpt lat="45.53202" lon="4.07955">
        <ele>587</ele>
        <time>2016-04-24T11:59:05Z</time>
      </trkpt>
      <trkpt lat="45.53197" lon="4.07954">
        <ele>588</ele>
        <time>2016-04-24T11:59:13Z</time>
      </trkpt>
      <trkpt lat="45.53183" lon="4.07933">
        <ele>588</ele>
        <time>2016-04-24T11:59:33Z</time>
      </trkpt>
      <trkpt lat="45.53179" lon="4.0793">
        <ele>589</ele>
        <time>2016-04-24T11:59:38Z</time>
      </trkpt>
      <trkpt lat="45.53175" lon="4.07926">
        <ele>589</ele>
        <time>2016-04-24T11:59:43Z</time>
      </trkpt>
      <trkpt lat="45.53136" lon="4.07916">
        <ele>595</ele>
        <time>2016-04-24T12:00:20Z</time>
      </trkpt>
      <trkpt lat="45.53112" lon="4.07922">
        <ele>595</ele>
        <time>2016-04-24T12:00:45Z</time>
      </trkpt>
      <trkpt lat="45.53097" lon="4.07916">
        <ele>596</ele>
        <time>2016-04-24T12:00:58Z</time>
      </trkpt>
      <trkpt lat="45.53079" lon="4.07906">
        <ele>596</ele>
        <time>2016-04-24T12:01:16Z</time>
      </trkpt>
      <trkpt lat="45.53045" lon="4.07906">
        <ele>598</ele>
        <time>2016-04-24T12:01:47Z</time>
      </trkpt>
      <trkpt lat="45.5304" lon="4.07905">
        <ele>599</ele>
        <time>2016-04-24T12:01:51Z</time>
      </trkpt>
      <trkpt lat="45.53033" lon="4.07896">
        <ele>599</ele>
        <time>2016-04-24T12:02:01Z</time>
      </trkpt>
      <trkpt lat="45.5303" lon="4.07893">
        <ele>598</ele>
        <time>2016-04-24T12:02:09Z</time>
      </trkpt>
      <trkpt lat="45.53002" lon="4.07878">
        <ele>598</ele>
        <time>2016-04-24T12:02:40Z</time>
      </trkpt>
      <trkpt lat="45.52979" lon="4.07862">
        <ele>598</ele>
        <time>2016-04-24T12:03:05Z</time>
      </trkpt>
      <trkpt lat="45.52966" lon="4.07851">
        <ele>598</ele>
        <time>2016-04-24T12:03:19Z</time>
      </trkpt>
      <trkpt lat="45.52938" lon="4.07811">
        <ele>598</ele>
        <time>2016-04-24T12:03:54Z</time>
      </trkpt>
      <trkpt lat="45.52926" lon="4.07802">
        <ele>598</ele>
        <time>2016-04-24T12:04:06Z</time>
      </trkpt>
      <trkpt lat="45.52903" lon="4.07762">
        <ele>595</ele>
        <time>2016-04-24T12:04:39Z</time>
      </trkpt>
      <trkpt lat="45.52894" lon="4.07731">
        <ele>593</ele>
        <time>2016-04-24T12:05:06Z</time>
      </trkpt>
      <trkpt lat="45.52892" lon="4.0771">
        <ele>593</ele>
        <time>2016-04-24T12:05:20Z</time>
      </trkpt>
      <trkpt lat="45.52895" lon="4.07705">
        <ele>593</ele>
        <time>2016-04-24T12:05:26Z</time>
      </trkpt>
      <trkpt lat="45.52895" lon="4.07696">
        <ele>593</ele>
        <time>2016-04-24T12:05:54Z</time>
      </trkpt>
      <trkpt lat="45.52896" lon="4.07682">
        <ele>593</ele>
        <time>2016-04-24T12:06:03Z</time>
      </trkpt>
      <trkpt lat="45.52899" lon="4.0767">
        <ele>592</ele>
        <time>2016-04-24T12:06:12Z</time>
      </trkpt>
      <trkpt lat="45.52901" lon="4.07663">
        <ele>593</ele>
        <time>2016-04-24T12:06:17Z</time>
      </trkpt>
      <trkpt lat="45.52902" lon="4.07656">
        <ele>593</ele>
        <time>2016-04-24T12:06:23Z</time>
      </trkpt>
      <trkpt lat="45.52888" lon="4.07648">
        <ele>594</ele>
        <time>2016-04-24T12:06:38Z</time>
      </trkpt>
      <trkpt lat="45.52832" lon="4.07472">
        <ele>604</ele>
        <time>2016-04-24T12:08:56Z</time>
      </trkpt>
      <trkpt lat="45.5283" lon="4.07465">
        <ele>604</ele>
        <time>2016-04-24T12:09:01Z</time>
      </trkpt>
      <trkpt lat="45.52801" lon="4.07383">
        <ele>608</ele>
        <time>2016-04-24T12:10:03Z</time>
      </trkpt>
      <trkpt lat="45.52785" lon="4.07365">
        <ele>610</ele>
        <time>2016-04-24T12:10:22Z</time>
      </trkpt>
      <trkpt lat="45.52736" lon="4.0723">
        <ele>616</ele>
        <time>2016-04-24T12:11:56Z</time>
      </trkpt>
      <trkpt lat="45.52716" lon="4.07171">
        <ele>620</ele>
        <time>2016-04-24T12:12:50Z</time>
      </trkpt>
      <trkpt lat="45.52655" lon="4.07023">
        <ele>628</ele>
        <time>2016-04-24T12:14:35Z</time>
      </trkpt>
      <trkpt lat="45.5265" lon="4.07022">
        <ele>628</ele>
        <time>2016-04-24T12:14:39Z</time>
      </trkpt>
      <trkpt lat="45.52646" lon="4.07025">
        <ele>628</ele>
        <time>2016-04-24T12:14:43Z</time>
      </trkpt>
      <trkpt lat="45.52622" lon="4.07059">
        <ele>628</ele>
        <time>2016-04-24T12:15:17Z</time>
      </trkpt>
      <trkpt lat="45.52605" lon="4.07076">
        <ele>628</ele>
        <time>2016-04-24T12:15:36Z</time>
      </trkpt>
      <trkpt lat="45.526" lon="4.0708">
        <ele>628</ele>
        <time>2016-04-24T12:15:41Z</time>
      </trkpt>
      <trkpt lat="45.526" lon="4.07084">
        <ele>627</ele>
        <time>2016-04-24T12:15:57Z</time>
      </trkpt>
      <trkpt lat="45.52595" lon="4.07084">
        <ele>627</ele>
        <time>2016-04-24T12:16:25Z</time>
      </trkpt>
      <trkpt lat="45.5258" lon="4.07081">
        <ele>627</ele>
        <time>2016-04-24T12:16:37Z</time>
      </trkpt>
      <trkpt lat="45.52576" lon="4.07078">
        <ele>627</ele>
        <time>2016-04-24T12:16:42Z</time>
      </trkpt>
      <trkpt lat="45.52564" lon="4.07022">
        <ele>630</ele>
        <time>2016-04-24T12:17:22Z</time>
      </trkpt>
      <trkpt lat="45.52558" lon="4.06759">
        <ele>641</ele>
        <time>2016-04-24T12:20:11Z</time>
      </trkpt>
      <trkpt lat="45.52548" lon="4.06716">
        <ele>642</ele>
        <time>2016-04-24T12:20:44Z</time>
      </trkpt>
      <trkpt lat="45.52538" lon="4.067">
        <ele>643</ele>
        <time>2016-04-24T12:20:58Z</time>
      </trkpt>
      <trkpt lat="45.5254" lon="4.06701">
        <ele>643</ele>
        <time>2016-04-24T12:21:05Z</time>
      </trkpt>
      <trkpt lat="45.52562" lon="4.06687">
        <ele>642</ele>
        <time>2016-04-24T12:21:35Z</time>
      </trkpt>
      <trkpt lat="45.52556" lon="4.06685">
        <ele>643</ele>
        <time>2016-04-24T12:26:13Z</time>
      </trkpt>
      <trkpt lat="45.5255" lon="4.06683">
        <ele>643</ele>
        <time>2016-04-24T12:26:18Z</time>
      </trkpt>
      <trkpt lat="45.52545" lon="4.06681">
        <ele>643</ele>
        <time>2016-04-24T12:26:23Z</time>
      </trkpt>
      <trkpt lat="45.52485" lon="4.06636">
        <ele>643</ele>
        <time>2016-04-24T12:27:29Z</time>
      </trkpt>
      <trkpt lat="45.5248" lon="4.06632">
        <ele>644</ele>
        <time>2016-04-24T12:27:36Z</time>
      </trkpt>
      <trkpt lat="45.52461" lon="4.06628">
        <ele>644</ele>
        <time>2016-04-24T12:27:55Z</time>
      </trkpt>
      <trkpt lat="45.52455" lon="4.0664">
        <ele>644</ele>
        <time>2016-04-24T12:28:06Z</time>
      </trkpt>
      <trkpt lat="45.52452" lon="4.06651">
        <ele>645</ele>
        <time>2016-04-24T12:28:26Z</time>
      </trkpt>
      <trkpt lat="45.52444" lon="4.06653">
        <ele>647</ele>
        <time>2016-04-24T12:29:19Z</time>
      </trkpt>
      <trkpt lat="45.52446" lon="4.06663">
        <ele>647</ele>
        <time>2016-04-24T12:30:41Z</time>
      </trkpt>
      <trkpt lat="45.52442" lon="4.06671">
        <ele>647</ele>
        <time>2016-04-24T12:31:47Z</time>
      </trkpt>
      <trkpt lat="45.52437" lon="4.0667">
        <ele>647</ele>
        <time>2016-04-24T12:31:58Z</time>
      </trkpt>
      <trkpt lat="45.52441" lon="4.06657">
        <ele>647</ele>
        <time>2016-04-24T12:32:13Z</time>
      </trkpt>
      <trkpt lat="45.52451" lon="4.06652">
        <ele>648</ele>
        <time>2016-04-24T12:33:03Z</time>
      </trkpt>
      <trkpt lat="45.52453" lon="4.06646">
        <ele>648</ele>
        <time>2016-04-24T12:33:07Z</time>
      </trkpt>
      <trkpt lat="45.52456" lon="4.06641">
        <ele>649</ele>
        <time>2016-04-24T12:33:14Z</time>
      </trkpt>
      <trkpt lat="45.52459" lon="4.06635">
        <ele>649</ele>
        <time>2016-04-24T12:33:19Z</time>
      </trkpt>
      <trkpt lat="45.52463" lon="4.06632">
        <ele>649</ele>
        <time>2016-04-24T12:33:25Z</time>
      </trkpt>
      <trkpt lat="45.52463" lon="4.06639">
        <ele>648</ele>
        <time>2016-04-24T12:33:30Z</time>
      </trkpt>
      <trkpt lat="45.52461" lon="4.06647">
        <ele>647</ele>
        <time>2016-04-24T12:33:35Z</time>
      </trkpt>
      <trkpt lat="45.52419" lon="4.06737">
        <ele>642</ele>
        <time>2016-04-24T12:34:43Z</time>
      </trkpt>
      <trkpt lat="45.52409" lon="4.06753">
        <ele>643</ele>
        <time>2016-04-24T12:34:56Z</time>
      </trkpt>
      <trkpt lat="45.524" lon="4.06754">
        <ele>643</ele>
        <time>2016-04-24T12:35:05Z</time>
      </trkpt>
      <trkpt lat="45.52322" lon="4.06722">
        <ele>646</ele>
        <time>2016-04-24T12:36:13Z</time>
      </trkpt>
      <trkpt lat="45.52292" lon="4.06695">
        <ele>647</ele>
        <time>2016-04-24T12:36:45Z</time>
      </trkpt>
      <trkpt lat="45.52264" lon="4.06663">
        <ele>648</ele>
        <time>2016-04-24T12:37:15Z</time>
      </trkpt>
      <trkpt lat="45.52225" lon="4.06652">
        <ele>647</ele>
        <time>2016-04-24T12:37:50Z</time>
      </trkpt>
      <trkpt lat="45.52197" lon="4.06629">
        <ele>647</ele>
        <time>2016-04-24T12:38:19Z</time>
      </trkpt>
      <trkpt lat="45.52195" lon="4.06615">
        <ele>647</ele>
        <time>2016-04-24T12:38:27Z</time>
      </trkpt>
      <trkpt lat="45.52196" lon="4.06601">
        <ele>646</ele>
        <time>2016-04-24T12:38:35Z</time>
      </trkpt>
      <trkpt lat="45.52193" lon="4.06596">
        <ele>646</ele>
        <time>2016-04-24T12:38:44Z</time>
      </trkpt>
      <trkpt lat="45.52188" lon="4.06592">
        <ele>646</ele>
        <time>2016-04-24T12:38:48Z</time>
      </trkpt>
      <trkpt lat="45.52179" lon="4.06588">
        <ele>644</ele>
        <time>2016-04-24T12:39:24Z</time>
      </trkpt>
      <trkpt lat="45.52166" lon="4.0658">
        <ele>644</ele>
        <time>2016-04-24T12:39:36Z</time>
      </trkpt>
      <trkpt lat="45.52106" lon="4.06559">
        <ele>642</ele>
        <time>2016-04-24T12:40:31Z</time>
      </trkpt>
      <trkpt lat="45.52076" lon="4.06538">
        <ele>640</ele>
        <time>2016-04-24T12:41:02Z</time>
      </trkpt>
      <trkpt lat="45.52046" lon="4.06508">
        <ele>640</ele>
        <time>2016-04-24T12:41:33Z</time>
      </trkpt>
      <trkpt lat="45.52014" lon="4.06485">
        <ele>640</ele>
        <time>2016-04-24T12:42:05Z</time>
      </trkpt>
      <trkpt lat="45.51964" lon="4.06436">
        <ele>636</ele>
        <time>2016-04-24T12:43:03Z</time>
      </trkpt>
      <trkpt lat="45.5193" lon="4.06426">
        <ele>634</ele>
        <time>2016-04-24T12:43:34Z</time>
      </trkpt>
      <trkpt lat="45.5191" lon="4.06423">
        <ele>633</ele>
        <time>2016-04-24T12:43:51Z</time>
      </trkpt>
      <trkpt lat="45.51906" lon="4.06418">
        <ele>633</ele>
        <time>2016-04-24T12:43:55Z</time>
      </trkpt>
      <trkpt lat="45.51906" lon="4.06412">
        <ele>633</ele>
        <time>2016-04-24T12:43:59Z</time>
      </trkpt>
      <trkpt lat="45.51908" lon="4.06384">
        <ele>634</ele>
        <time>2016-04-24T12:44:15Z</time>
      </trkpt>
      <trkpt lat="45.51907" lon="4.06377">
        <ele>633</ele>
        <time>2016-04-24T12:44:20Z</time>
      </trkpt>
      <trkpt lat="45.51904" lon="4.06372">
        <ele>633</ele>
        <time>2016-04-24T12:44:25Z</time>
      </trkpt>
      <trkpt lat="45.519" lon="4.06369">
        <ele>633</ele>
        <time>2016-04-24T12:44:30Z</time>
      </trkpt>
      <trkpt lat="45.51839" lon="4.06365">
        <ele>633</ele>
        <time>2016-04-24T12:45:27Z</time>
      </trkpt>
      <trkpt lat="45.51828" lon="4.06362">
        <ele>633</ele>
        <time>2016-04-24T12:45:37Z</time>
      </trkpt>
      <trkpt lat="45.51809" lon="4.06349">
        <ele>634</ele>
        <time>2016-04-24T12:45:57Z</time>
      </trkpt>
      <trkpt lat="45.51775" lon="4.06306">
        <ele>636</ele>
        <time>2016-04-24T12:46:36Z</time>
      </trkpt>
      <trkpt lat="45.51723" lon="4.06276">
        <ele>639</ele>
        <time>2016-04-24T12:47:40Z</time>
      </trkpt>
      <trkpt lat="45.51719" lon="4.06271">
        <ele>639</ele>
        <time>2016-04-24T12:47:46Z</time>
      </trkpt>
      <trkpt lat="45.51711" lon="4.06262">
        <ele>639</ele>
        <time>2016-04-24T12:47:58Z</time>
      </trkpt>
      <trkpt lat="45.51705" lon="4.0625">
        <ele>640</ele>
        <time>2016-04-24T12:48:10Z</time>
      </trkpt>
      <trkpt lat="45.51701" lon="4.06246">
        <ele>640</ele>
        <time>2016-04-24T12:48:15Z</time>
      </trkpt>
      <trkpt lat="45.51687" lon="4.06218">
        <ele>641</ele>
        <time>2016-04-24T12:48:46Z</time>
      </trkpt>
      <trkpt lat="45.51659" lon="4.06208">
        <ele>644</ele>
        <time>2016-04-24T12:49:30Z</time>
      </trkpt>
      <trkpt lat="45.51629" lon="4.06201">
        <ele>641</ele>
        <time>2016-04-24T12:50:02Z</time>
      </trkpt>
      <trkpt lat="45.51619" lon="4.06196">
        <ele>641</ele>
        <time>2016-04-24T12:50:13Z</time>
      </trkpt>
      <trkpt lat="45.51614" lon="4.06197">
        <ele>641</ele>
        <time>2016-04-24T12:50:18Z</time>
      </trkpt>
      <trkpt lat="45.51591" lon="4.06188">
        <ele>641</ele>
        <time>2016-04-24T12:50:42Z</time>
      </trkpt>
      <trkpt lat="45.51586" lon="4.06188">
        <ele>641</ele>
        <time>2016-04-24T12:50:48Z</time>
      </trkpt>
      <trkpt lat="45.51576" lon="4.06197">
        <ele>641</ele>
        <time>2016-04-24T12:51:22Z</time>
      </trkpt>
      <trkpt lat="45.51561" lon="4.06206">
        <ele>640</ele>
        <time>2016-04-24T12:51:34Z</time>
      </trkpt>
      <trkpt lat="45.51507" lon="4.06195">
        <ele>641</ele>
        <time>2016-04-24T12:52:25Z</time>
      </trkpt>
      <trkpt lat="45.51498" lon="4.06199">
        <ele>641</ele>
        <time>2016-04-24T12:52:33Z</time>
      </trkpt>
      <trkpt lat="45.51434" lon="4.06236">
        <ele>641</ele>
        <time>2016-04-24T12:53:33Z</time>
      </trkpt>
      <trkpt lat="45.51413" lon="4.06242">
        <ele>640</ele>
        <time>2016-04-24T12:53:54Z</time>
      </trkpt>
      <trkpt lat="45.51409" lon="4.06239">
        <ele>640</ele>
        <time>2016-04-24T12:53:58Z</time>
      </trkpt>
      <trkpt lat="45.51381" lon="4.06209">
        <ele>638</ele>
        <time>2016-04-24T12:54:32Z</time>
      </trkpt>
      <trkpt lat="45.51365" lon="4.0618">
        <ele>635</ele>
        <time>2016-04-24T12:54:58Z</time>
      </trkpt>
      <trkpt lat="45.51358" lon="4.06161">
        <ele>635</ele>
        <time>2016-04-24T12:55:12Z</time>
      </trkpt>
      <trkpt lat="45.51358" lon="4.06154">
        <ele>636</ele>
        <time>2016-04-24T12:55:16Z</time>
      </trkpt>
      <trkpt lat="45.51345" lon="4.06086">
        <ele>635</ele>
        <time>2016-04-24T12:55:59Z</time>
      </trkpt>
      <trkpt lat="45.51341" lon="4.06072">
        <ele>634</ele>
        <time>2016-04-24T12:56:09Z</time>
      </trkpt>
      <trkpt lat="45.51337" lon="4.06069">
        <ele>633</ele>
        <time>2016-04-24T12:56:13Z</time>
      </trkpt>
      <trkpt lat="45.51332" lon="4.0607">
        <ele>633</ele>
        <time>2016-04-24T12:56:18Z</time>
      </trkpt>
      <trkpt lat="45.51285" lon="4.06092">
        <ele>632</ele>
        <time>2016-04-24T12:56:59Z</time>
      </trkpt>
      <trkpt lat="45.51246" lon="4.06107">
        <ele>630</ele>
        <time>2016-04-24T12:57:33Z</time>
      </trkpt>
      <trkpt lat="45.51238" lon="4.06105">
        <ele>629</ele>
        <time>2016-04-24T12:57:45Z</time>
      </trkpt>
      <trkpt lat="45.51242" lon="4.061">
        <ele>627</ele>
        <time>2016-04-24T12:58:14Z</time>
      </trkpt>
      <trkpt lat="45.51244" lon="4.06078">
        <ele>627</ele>
        <time>2016-04-24T12:58:27Z</time>
      </trkpt>
      <trkpt lat="45.51254" lon="4.06045">
        <ele>627</ele>
        <time>2016-04-24T12:58:49Z</time>
      </trkpt>
      <trkpt lat="45.51259" lon="4.0601">
        <ele>625</ele>
        <time>2016-04-24T12:59:10Z</time>
      </trkpt>
      <trkpt lat="45.51262" lon="4.06004">
        <ele>625</ele>
        <time>2016-04-24T12:59:15Z</time>
      </trkpt>
      <trkpt lat="45.51265" lon="4.05991">
        <ele>625</ele>
        <time>2016-04-24T12:59:30Z</time>
      </trkpt>
      <trkpt lat="45.51267" lon="4.05986">
        <ele>625</ele>
        <time>2016-04-24T12:59:53Z</time>
      </trkpt>
      <trkpt lat="45.51273" lon="4.0596">
        <ele>625</ele>
        <time>2016-04-24T13:00:36Z</time>
      </trkpt>
      <trkpt lat="45.51279" lon="4.05915">
        <ele>624</ele>
        <time>2016-04-24T13:01:11Z</time>
      </trkpt>
      <trkpt lat="45.51285" lon="4.05894">
        <ele>623</ele>
        <time>2016-04-24T13:01:25Z</time>
      </trkpt>
      <trkpt lat="45.51287" lon="4.05888">
        <ele>624</ele>
        <time>2016-04-24T13:01:29Z</time>
      </trkpt>
      <trkpt lat="45.51289" lon="4.05882">
        <ele>623</ele>
        <time>2016-04-24T13:01:33Z</time>
      </trkpt>
      <trkpt lat="45.51297" lon="4.05804">
        <ele>624</ele>
        <time>2016-04-24T13:02:24Z</time>
      </trkpt>
      <trkpt lat="45.51301" lon="4.05754">
        <ele>625</ele>
        <time>2016-04-24T13:02:55Z</time>
      </trkpt>
      <trkpt lat="45.5129" lon="4.05708">
        <ele>628</ele>
        <time>2016-04-24T13:03:26Z</time>
      </trkpt>
      <trkpt lat="45.51287" lon="4.0561">
        <ele>631</ele>
        <time>2016-04-24T13:04:32Z</time>
      </trkpt>
      <trkpt lat="45.51281" lon="4.05591">
        <ele>633</ele>
        <time>2016-04-24T13:04:47Z</time>
      </trkpt>
      <trkpt lat="45.51227" lon="4.05535">
        <ele>644</ele>
        <time>2016-04-24T13:06:10Z</time>
      </trkpt>
      <trkpt lat="45.51225" lon="4.05528">
        <ele>645</ele>
        <time>2016-04-24T13:06:15Z</time>
      </trkpt>
      <trkpt lat="45.51218" lon="4.05514">
        <ele>642</ele>
        <time>2016-04-24T13:06:37Z</time>
      </trkpt>
      <trkpt lat="45.51209" lon="4.05505">
        <ele>642</ele>
        <time>2016-04-24T13:06:46Z</time>
      </trkpt>
      <trkpt lat="45.51198" lon="4.05487">
        <ele>644</ele>
        <time>2016-04-24T13:07:11Z</time>
      </trkpt>
      <trkpt lat="45.51192" lon="4.05469">
        <ele>646</ele>
        <time>2016-04-24T13:07:27Z</time>
      </trkpt>
      <trkpt lat="45.51178" lon="4.05449">
        <ele>650</ele>
        <time>2016-04-24T13:07:48Z</time>
      </trkpt>
      <trkpt lat="45.5117" lon="4.0544">
        <ele>650</ele>
        <time>2016-04-24T13:07:58Z</time>
      </trkpt>
      <trkpt lat="45.51154" lon="4.05405">
        <ele>649</ele>
        <time>2016-04-24T13:08:25Z</time>
      </trkpt>
      <trkpt lat="45.51129" lon="4.05369">
        <ele>648</ele>
        <time>2016-04-24T13:08:59Z</time>
      </trkpt>
      <trkpt lat="45.51088" lon="4.0526">
        <ele>645</ele>
        <time>2016-04-24T13:10:27Z</time>
      </trkpt>
      <trkpt lat="45.51077" lon="4.0524">
        <ele>645</ele>
        <time>2016-04-24T13:10:57Z</time>
      </trkpt>
      <trkpt lat="45.5107" lon="4.05231">
        <ele>645</ele>
        <time>2016-04-24T13:11:07Z</time>
      </trkpt>
      <trkpt lat="45.5106" lon="4.05208">
        <ele>643</ele>
        <time>2016-04-24T13:11:29Z</time>
      </trkpt>
      <trkpt lat="45.51057" lon="4.05204">
        <ele>643</ele>
        <time>2016-04-24T13:11:33Z</time>
      </trkpt>
      <trkpt lat="45.51051" lon="4.05192">
        <ele>642</ele>
        <time>2016-04-24T13:11:43Z</time>
      </trkpt>
      <trkpt lat="45.51041" lon="4.05147">
        <ele>638</ele>
        <time>2016-04-24T13:12:16Z</time>
      </trkpt>
      <trkpt lat="45.51041" lon="4.05136">
        <ele>637</ele>
        <time>2016-04-24T13:12:28Z</time>
      </trkpt>
      <trkpt lat="45.51044" lon="4.05129">
        <ele>637</ele>
        <time>2016-04-24T13:12:39Z</time>
      </trkpt>
      <trkpt lat="45.51041" lon="4.05081">
        <ele>640</ele>
        <time>2016-04-24T13:13:37Z</time>
      </trkpt>
      <trkpt lat="45.5104" lon="4.05074">
        <ele>639</ele>
        <time>2016-04-24T13:13:42Z</time>
      </trkpt>
      <trkpt lat="45.51041" lon="4.05067">
        <ele>639</ele>
        <time>2016-04-24T13:13:46Z</time>
      </trkpt>
      <trkpt lat="45.51038" lon="4.05053">
        <ele>640</ele>
        <time>2016-04-24T13:14:05Z</time>
      </trkpt>
      <trkpt lat="45.51039" lon="4.05046">
        <ele>640</ele>
        <time>2016-04-24T13:14:10Z</time>
      </trkpt>
      <trkpt lat="45.51034" lon="4.05019">
        <ele>642</ele>
        <time>2016-04-24T13:14:30Z</time>
      </trkpt>
      <trkpt lat="45.51032" lon="4.05013">
        <ele>643</ele>
        <time>2016-04-24T13:14:35Z</time>
      </trkpt>
      <trkpt lat="45.50993" lon="4.04952">
        <ele>651</ele>
        <time>2016-04-24T13:15:38Z</time>
      </trkpt>
      <trkpt lat="45.50982" lon="4.04903">
        <ele>657</ele>
        <time>2016-04-24T13:16:11Z</time>
      </trkpt>
      <trkpt lat="45.50979" lon="4.04898">
        <ele>657</ele>
        <time>2016-04-24T13:16:16Z</time>
      </trkpt>
      <trkpt lat="45.50971" lon="4.0488">
        <ele>658</ele>
        <time>2016-04-24T13:16:31Z</time>
      </trkpt>
      <trkpt lat="45.50952" lon="4.04847">
        <ele>662</ele>
        <time>2016-04-24T13:17:02Z</time>
      </trkpt>
      <trkpt lat="45.5095" lon="4.04841">
        <ele>663</ele>
        <time>2016-04-24T13:17:09Z</time>
      </trkpt>
      <trkpt lat="45.50947" lon="4.0484">
        <ele>663</ele>
        <time>2016-04-24T13:17:26Z</time>
      </trkpt>
      <trkpt lat="45.50904" lon="4.04786">
        <ele>669</ele>
        <time>2016-04-24T13:18:36Z</time>
      </trkpt>
      <trkpt lat="45.5087" lon="4.04763">
        <ele>674</ele>
        <time>2016-04-24T13:19:22Z</time>
      </trkpt>
      <trkpt lat="45.50862" lon="4.04759">
        <ele>675</ele>
        <time>2016-04-24T13:19:30Z</time>
      </trkpt>
      <trkpt lat="45.50837" lon="4.04745">
        <ele>677</ele>
        <time>2016-04-24T13:20:01Z</time>
      </trkpt>
      <trkpt lat="45.5083" lon="4.04734">
        <ele>678</ele>
        <time>2016-04-24T13:20:11Z</time>
      </trkpt>
      <trkpt lat="45.50824" lon="4.04709">
        <ele>680</ele>
        <time>2016-04-24T13:20:35Z</time>
      </trkpt>
      <trkpt lat="45.50814" lon="4.04701">
        <ele>681</ele>
        <time>2016-04-24T13:20:51Z</time>
      </trkpt>
      <trkpt lat="45.50737" lon="4.0462">
        <ele>689</ele>
        <time>2016-04-24T13:22:42Z</time>
      </trkpt>
      <trkpt lat="45.50715" lon="4.04586">
        <ele>690</ele>
        <time>2016-04-24T13:23:52Z</time>
      </trkpt>
      <trkpt lat="45.50661" lon="4.04519">
        <ele>694</ele>
        <time>2016-04-24T13:24:58Z</time>
      </trkpt>
      <trkpt lat="45.50659" lon="4.04513">
        <ele>694</ele>
        <time>2016-04-24T13:25:04Z</time>
      </trkpt>
      <trkpt lat="45.5066" lon="4.04506">
        <ele>694</ele>
        <time>2016-04-24T13:25:09Z</time>
      </trkpt>
      <trkpt lat="45.5067" lon="4.04474">
        <ele>695</ele>
        <time>2016-04-24T13:25:37Z</time>
      </trkpt>
      <trkpt lat="45.50662" lon="4.04448">
        <ele>696</ele>
        <time>2016-04-24T13:25:59Z</time>
      </trkpt>
      <trkpt lat="45.50658" lon="4.04443">
        <ele>697</ele>
        <time>2016-04-24T13:26:04Z</time>
      </trkpt>
      <trkpt lat="45.50647" lon="4.0443">
        <ele>697</ele>
        <time>2016-04-24T13:26:19Z</time>
      </trkpt>
      <trkpt lat="45.50642" lon="4.04427">
        <ele>696</ele>
        <time>2016-04-24T13:26:25Z</time>
      </trkpt>
      <trkpt lat="45.5063" lon="4.04411">
        <ele>698</ele>
        <time>2016-04-24T13:27:07Z</time>
      </trkpt>
      <trkpt lat="45.50608" lon="4.04345">
        <ele>704</ele>
        <time>2016-04-24T13:28:02Z</time>
      </trkpt>
      <trkpt lat="45.50596" lon="4.04335">
        <ele>705</ele>
        <time>2016-04-24T13:28:15Z</time>
      </trkpt>
      <trkpt lat="45.50556" lon="4.04285">
        <ele>707</ele>
        <time>2016-04-24T13:29:10Z</time>
      </trkpt>
      <trkpt lat="45.50523" lon="4.04271">
        <ele>707</ele>
        <time>2016-04-24T13:29:43Z</time>
      </trkpt>
      <trkpt lat="45.50496" lon="4.04231">
        <ele>711</ele>
        <time>2016-04-24T13:30:26Z</time>
      </trkpt>
      <trkpt lat="45.50484" lon="4.04219">
        <ele>711</ele>
        <time>2016-04-24T13:30:43Z</time>
      </trkpt>
      <trkpt lat="45.50471" lon="4.04198">
        <ele>715</ele>
        <time>2016-04-24T13:31:11Z</time>
      </trkpt>
      <trkpt lat="45.50471" lon="4.04193">
        <ele>717</ele>
        <time>2016-04-24T13:31:19Z</time>
      </trkpt>
      <trkpt lat="45.50465" lon="4.0418">
        <ele>718</ele>
        <time>2016-04-24T13:31:32Z</time>
      </trkpt>
      <trkpt lat="45.50462" lon="4.04178">
        <ele>719</ele>
        <time>2016-04-24T13:31:38Z</time>
      </trkpt>
      <trkpt lat="45.50457" lon="4.04166">
        <ele>720</ele>
        <time>2016-04-24T13:31:51Z</time>
      </trkpt>
      <trkpt lat="45.50454" lon="4.04165">
        <ele>720</ele>
        <time>2016-04-24T13:31:57Z</time>
      </trkpt>
      <trkpt lat="45.50441" lon="4.04122">
        <ele>727</ele>
        <time>2016-04-24T13:32:39Z</time>
      </trkpt>
      <trkpt lat="45.50438" lon="4.04116">
        <ele>729</ele>
        <time>2016-04-24T13:32:47Z</time>
      </trkpt>
      <trkpt lat="45.50429" lon="4.04099">
        <ele>731</ele>
        <time>2016-04-24T13:33:17Z</time>
      </trkpt>
      <trkpt lat="45.50407" lon="4.0407">
        <ele>737</ele>
        <time>2016-04-24T13:33:50Z</time>
      </trkpt>
      <trkpt lat="45.50372" lon="4.04045">
        <ele>743</ele>
        <time>2016-04-24T13:34:43Z</time>
      </trkpt>
      <trkpt lat="45.50366" lon="4.04043">
        <ele>744</ele>
        <time>2016-04-24T13:35:16Z</time>
      </trkpt>
      <trkpt lat="45.50361" lon="4.04042">
        <ele>744</ele>
        <time>2016-04-24T13:35:22Z</time>
      </trkpt>
      <trkpt lat="45.50334" lon="4.04014">
        <ele>750</ele>
        <time>2016-04-24T13:36:07Z</time>
      </trkpt>
      <trkpt lat="45.50319" lon="4.03994">
        <ele>752</ele>
        <time>2016-04-24T13:36:57Z</time>
      </trkpt>
      <trkpt lat="45.50319" lon="4.03987">
        <ele>752</ele>
        <time>2016-04-24T13:37:03Z</time>
      </trkpt>
      <trkpt lat="45.50317" lon="4.03981">
        <ele>752</ele>
        <time>2016-04-24T13:37:08Z</time>
      </trkpt>
      <trkpt lat="45.50313" lon="4.03975">
        <ele>754</ele>
        <time>2016-04-24T13:37:14Z</time>
      </trkpt>
      <trkpt lat="45.50316" lon="4.0397">
        <ele>756</ele>
        <time>2016-04-24T13:37:24Z</time>
      </trkpt>
      <trkpt lat="45.5032" lon="4.0397">
        <ele>757</ele>
        <time>2016-04-24T13:37:39Z</time>
      </trkpt>
      <trkpt lat="45.50326" lon="4.03967">
        <ele>757</ele>
        <time>2016-04-24T13:37:51Z</time>
      </trkpt>
      <trkpt lat="45.5033" lon="4.03963">
        <ele>757</ele>
        <time>2016-04-24T13:37:56Z</time>
      </trkpt>
      <trkpt lat="45.50337" lon="4.03958">
        <ele>759</ele>
        <time>2016-04-24T13:38:10Z</time>
      </trkpt>
      <trkpt lat="45.50342" lon="4.03956">
        <ele>759</ele>
        <time>2016-04-24T13:38:18Z</time>
      </trkpt>
      <trkpt lat="45.50347" lon="4.03955">
        <ele>759</ele>
        <time>2016-04-24T13:38:25Z</time>
      </trkpt>
      <trkpt lat="45.50352" lon="4.03955">
        <ele>758</ele>
        <time>2016-04-24T13:38:30Z</time>
      </trkpt>
      <trkpt lat="45.50357" lon="4.03954">
        <ele>758</ele>
        <time>2016-04-24T13:38:35Z</time>
      </trkpt>
      <trkpt lat="45.50369" lon="4.03952">
        <ele>758</ele>
        <time>2016-04-24T13:38:45Z</time>
      </trkpt>
      <trkpt lat="45.50378" lon="4.03944">
        <ele>757</ele>
        <time>2016-04-24T13:38:55Z</time>
      </trkpt>
      <trkpt lat="45.50382" lon="4.03941">
        <ele>757</ele>
        <time>2016-04-24T13:39:00Z</time>
      </trkpt>
      <trkpt lat="45.5039" lon="4.03932">
        <ele>757</ele>
        <time>2016-04-24T13:39:11Z</time>
      </trkpt>
      <trkpt lat="45.50402" lon="4.0391">
        <ele>762</ele>
        <time>2016-04-24T13:39:33Z</time>
      </trkpt>
      <trkpt lat="45.50402" lon="4.03908">
        <ele>760</ele>
        <time>2016-04-24T13:40:09Z</time>
      </trkpt>
      <trkpt lat="45.50398" lon="4.03906">
        <ele>759</ele>
        <time>2016-04-24T13:42:05Z</time>
      </trkpt>
      <trkpt lat="45.50393" lon="4.03909">
        <ele>757</ele>
        <time>2016-04-24T13:43:28Z</time>
      </trkpt>
      <trkpt lat="45.50403" lon="4.03895">
        <ele>759</ele>
        <time>2016-04-24T13:54:41Z</time>
      </trkpt>
      <trkpt lat="45.50399" lon="4.03899">
        <ele>760</ele>
        <time>2016-04-24T13:54:52Z</time>
      </trkpt>
      <trkpt lat="45.5039" lon="4.03926">
        <ele>758</ele>
        <time>2016-04-24T14:04:23Z</time>
      </trkpt>
      <trkpt lat="45.50389" lon="4.03932">
        <ele>758</ele>
        <time>2016-04-24T14:04:26Z</time>
      </trkpt>
      <trkpt lat="45.50371" lon="4.03949">
        <ele>763</ele>
        <time>2016-04-24T14:05:05Z</time>
      </trkpt>
      <trkpt lat="45.50367" lon="4.03954">
        <ele>762</ele>
        <time>2016-04-24T14:05:09Z</time>
      </trkpt>
      <trkpt lat="45.50362" lon="4.03955">
        <ele>761</ele>
        <time>2016-04-24T14:05:13Z</time>
      </trkpt>
      <trkpt lat="45.50352" lon="4.03954">
        <ele>760</ele>
        <time>2016-04-24T14:05:21Z</time>
      </trkpt>
      <trkpt lat="45.50343" lon="4.03953">
        <ele>760</ele>
        <time>2016-04-24T14:05:30Z</time>
      </trkpt>
      <trkpt lat="45.50343" lon="4.0396">
        <ele>761</ele>
        <time>2016-04-24T14:05:35Z</time>
      </trkpt>
      <trkpt lat="45.50347" lon="4.03976">
        <ele>756</ele>
        <time>2016-04-24T14:06:48Z</time>
      </trkpt>
      <trkpt lat="45.50348" lon="4.0399">
        <ele>755</ele>
        <time>2016-04-24T14:06:55Z</time>
      </trkpt>
      <trkpt lat="45.5033" lon="4.03991">
        <ele>754</ele>
        <time>2016-04-24T14:13:12Z</time>
      </trkpt>
      <trkpt lat="45.50337" lon="4.03989">
        <ele>754</ele>
        <time>2016-04-24T14:13:20Z</time>
      </trkpt>
      <trkpt lat="45.50342" lon="4.03986">
        <ele>755</ele>
        <time>2016-04-24T14:13:25Z</time>
      </trkpt>
      <trkpt lat="45.50347" lon="4.03987">
        <ele>757</ele>
        <time>2016-04-24T14:13:35Z</time>
      </trkpt>
      <trkpt lat="45.5035" lon="4.03988">
        <ele>756</ele>
        <time>2016-04-24T14:13:45Z</time>
      </trkpt>
      <trkpt lat="45.50349" lon="4.04">
        <ele>755</ele>
        <time>2016-04-24T14:14:02Z</time>
      </trkpt>
      <trkpt lat="45.50329" lon="4.03998">
        <ele>754</ele>
        <time>2016-04-24T14:19:16Z</time>
      </trkpt>
      <trkpt lat="45.50338" lon="4.03994">
        <ele>755</ele>
        <time>2016-04-24T14:19:21Z</time>
      </trkpt>
      <trkpt lat="45.50334" lon="4.03986">
        <ele>756</ele>
        <time>2016-04-24T14:20:40Z</time>
      </trkpt>
      <trkpt lat="45.50335" lon="4.03975">
        <ele>756</ele>
        <time>2016-04-24T14:21:20Z</time>
      </trkpt>
      <trkpt lat="45.50338" lon="4.03964">
        <ele>757</ele>
        <time>2016-04-24T14:21:28Z</time>
      </trkpt>
      <trkpt lat="45.50334" lon="4.03962">
        <ele>759</ele>
        <time>2016-04-24T14:21:45Z</time>
      </trkpt>
      <trkpt lat="45.5033" lon="4.03963">
        <ele>763</ele>
        <time>2016-04-24T14:21:53Z</time>
      </trkpt>
      <trkpt lat="45.5032" lon="4.03944">
        <ele>763</ele>
        <time>2016-04-24T14:22:20Z</time>
      </trkpt>
      <trkpt lat="45.50317" lon="4.03953">
        <ele>763</ele>
        <time>2016-04-24T14:22:32Z</time>
      </trkpt>
      <trkpt lat="45.50315" lon="4.03966">
        <ele>762</ele>
        <time>2016-04-24T14:22:41Z</time>
      </trkpt>
      <trkpt lat="45.50302" lon="4.03973">
        <ele>762</ele>
        <time>2016-04-24T14:22:55Z</time>
      </trkpt>
      <trkpt lat="45.50299" lon="4.03979">
        <ele>762</ele>
        <time>2016-04-24T14:22:59Z</time>
      </trkpt>
      <trkpt lat="45.50294" lon="4.03976">
        <ele>761</ele>
        <time>2016-04-24T14:23:03Z</time>
      </trkpt>
      <trkpt lat="45.50284" lon="4.03974">
        <ele>760</ele>
        <time>2016-04-24T14:23:14Z</time>
      </trkpt>
      <trkpt lat="45.50279" lon="4.03976">
        <ele>760</ele>
        <time>2016-04-24T14:23:19Z</time>
      </trkpt>
      <trkpt lat="45.50276" lon="4.03982">
        <ele>760</ele>
        <time>2016-04-24T14:23:23Z</time>
      </trkpt>
      <trkpt lat="45.50272" lon="4.03986">
        <ele>760</ele>
        <time>2016-04-24T14:23:28Z</time>
      </trkpt>
      <trkpt lat="45.50257" lon="4.03989">
        <ele>764</ele>
        <time>2016-04-24T14:23:43Z</time>
      </trkpt>
      <trkpt lat="45.50252" lon="4.03992">
        <ele>764</ele>
        <time>2016-04-24T14:23:48Z</time>
      </trkpt>
      <trkpt lat="45.50247" lon="4.03992">
        <ele>761</ele>
        <time>2016-04-24T14:23:54Z</time>
      </trkpt>
      <trkpt lat="45.50237" lon="4.0399">
        <ele>759</ele>
        <time>2016-04-24T14:24:03Z</time>
      </trkpt>
      <trkpt lat="45.50227" lon="4.03993">
        <ele>759</ele>
        <time>2016-04-24T14:24:13Z</time>
      </trkpt>
      <trkpt lat="45.50217" lon="4.03999">
        <ele>759</ele>
        <time>2016-04-24T14:24:23Z</time>
      </trkpt>
      <trkpt lat="45.5018" lon="4.04013">
        <ele>758</ele>
        <time>2016-04-24T14:25:05Z</time>
      </trkpt>
      <trkpt lat="45.50174" lon="4.04025">
        <ele>757</ele>
        <time>2016-04-24T14:25:15Z</time>
      </trkpt>
      <trkpt lat="45.50166" lon="4.04033">
        <ele>756</ele>
        <time>2016-04-24T14:25:25Z</time>
      </trkpt>
      <trkpt lat="45.50159" lon="4.04042">
        <ele>755</ele>
        <time>2016-04-24T14:25:34Z</time>
      </trkpt>
      <trkpt lat="45.50138" lon="4.04081">
        <ele>755</ele>
        <time>2016-04-24T14:26:07Z</time>
      </trkpt>
      <trkpt lat="45.50076" lon="4.04304">
        <ele>763</ele>
        <time>2016-04-24T14:28:42Z</time>
      </trkpt>
      <trkpt lat="45.50055" lon="4.04351">
        <ele>766</ele>
        <time>2016-04-24T14:29:15Z</time>
      </trkpt>
      <trkpt lat="45.50051" lon="4.04355">
        <ele>765</ele>
        <time>2016-04-24T14:29:23Z</time>
      </trkpt>
      <trkpt lat="45.50048" lon="4.0436">
        <ele>765</ele>
        <time>2016-04-24T14:29:30Z</time>
      </trkpt>
      <trkpt lat="45.50041" lon="4.04379">
        <ele>770</ele>
        <time>2016-04-24T14:29:52Z</time>
      </trkpt>
      <trkpt lat="45.5003" lon="4.04402">
        <ele>768</ele>
        <time>2016-04-24T14:30:17Z</time>
      </trkpt>
      <trkpt lat="45.50029" lon="4.04409">
        <ele>768</ele>
        <time>2016-04-24T14:30:24Z</time>
      </trkpt>
      <trkpt lat="45.50029" lon="4.04417">
        <ele>768</ele>
        <time>2016-04-24T14:30:30Z</time>
      </trkpt>
      <trkpt lat="45.50027" lon="4.04422">
        <ele>767</ele>
        <time>2016-04-24T14:31:43Z</time>
      </trkpt>
      <trkpt lat="45.50023" lon="4.04426">
        <ele>767</ele>
        <time>2016-04-24T14:31:50Z</time>
      </trkpt>
      <trkpt lat="45.50021" lon="4.04433">
        <ele>766</ele>
        <time>2016-04-24T14:32:02Z</time>
      </trkpt>
      <trkpt lat="45.50013" lon="4.0447">
        <ele>767</ele>
        <time>2016-04-24T14:32:21Z</time>
      </trkpt>
      <trkpt lat="45.49999" lon="4.04511">
        <ele>768</ele>
        <time>2016-04-24T14:32:45Z</time>
      </trkpt>
      <trkpt lat="45.4997" lon="4.04529">
        <ele>767</ele>
        <time>2016-04-24T14:33:13Z</time>
      </trkpt>
      <trkpt lat="45.49956" lon="4.04529">
        <ele>767</ele>
        <time>2016-04-24T14:33:29Z</time>
      </trkpt>
      <trkpt lat="45.49958" lon="4.04531">
        <ele>767</ele>
        <time>2016-04-24T14:33:55Z</time>
      </trkpt>
      <trkpt lat="45.49961" lon="4.04536">
        <ele>767</ele>
        <time>2016-04-24T14:34:03Z</time>
      </trkpt>
      <trkpt lat="45.49958" lon="4.04537">
        <ele>766</ele>
        <time>2016-04-24T14:34:35Z</time>
      </trkpt>
      <trkpt lat="45.49947" lon="4.04536">
        <ele>765</ele>
        <time>2016-04-24T14:35:09Z</time>
      </trkpt>
      <trkpt lat="45.49938" lon="4.0454">
        <ele>764</ele>
        <time>2016-04-24T14:35:18Z</time>
      </trkpt>
      <trkpt lat="45.49928" lon="4.04539">
        <ele>764</ele>
        <time>2016-04-24T14:35:27Z</time>
      </trkpt>
      <trkpt lat="45.49912" lon="4.04542">
        <ele>764</ele>
        <time>2016-04-24T14:35:40Z</time>
      </trkpt>
      <trkpt lat="45.49894" lon="4.04551">
        <ele>765</ele>
        <time>2016-04-24T14:35:57Z</time>
      </trkpt>
      <trkpt lat="45.49889" lon="4.04553">
        <ele>766</ele>
        <time>2016-04-24T14:36:01Z</time>
      </trkpt>
      <trkpt lat="45.49887" lon="4.04554">
        <ele>766</ele>
        <time>2016-04-24T14:36:13Z</time>
      </trkpt>
      <trkpt lat="45.4989" lon="4.04554">
        <ele>764</ele>
        <time>2016-04-24T14:37:24Z</time>
      </trkpt>
      <trkpt lat="45.49898" lon="4.04546">
        <ele>764</ele>
        <time>2016-04-24T14:37:35Z</time>
      </trkpt>
      <trkpt lat="45.49903" lon="4.04544">
        <ele>765</ele>
        <time>2016-04-24T14:37:40Z</time>
      </trkpt>
      <trkpt lat="45.49908" lon="4.04543">
        <ele>766</ele>
        <time>2016-04-24T14:37:45Z</time>
      </trkpt>
      <trkpt lat="45.49913" lon="4.0454">
        <ele>765</ele>
        <time>2016-04-24T14:37:48Z</time>
      </trkpt>
      <trkpt lat="45.49918" lon="4.04538">
        <ele>765</ele>
        <time>2016-04-24T14:37:53Z</time>
      </trkpt>
      <trkpt lat="45.49946" lon="4.04534">
        <ele>765</ele>
        <time>2016-04-24T14:38:18Z</time>
      </trkpt>
      <trkpt lat="45.49951" lon="4.04531">
        <ele>765</ele>
        <time>2016-04-24T14:38:22Z</time>
      </trkpt>
      <trkpt lat="45.49952" lon="4.04534">
        <ele>765</ele>
        <time>2016-04-24T14:38:32Z</time>
      </trkpt>
      <trkpt lat="45.49956" lon="4.04535">
        <ele>765</ele>
        <time>2016-04-24T14:38:35Z</time>
      </trkpt>
      <trkpt lat="45.49964" lon="4.04543">
        <ele>765</ele>
        <time>2016-04-24T14:38:44Z</time>
      </trkpt>
      <trkpt lat="45.49955" lon="4.04549">
        <ele>765</ele>
        <time>2016-04-24T14:39:13Z</time>
      </trkpt>
      <trkpt lat="45.49937" lon="4.04558">
        <ele>767</ele>
        <time>2016-04-24T14:39:21Z</time>
      </trkpt>
      <trkpt lat="45.49943" lon="4.04552">
        <ele>767</ele>
        <time>2016-04-24T14:42:21Z</time>
      </trkpt>
      <trkpt lat="45.49958" lon="4.04535">
        <ele>767</ele>
        <time>2016-04-24T14:42:32Z</time>
      </trkpt>
      <trkpt lat="45.49961" lon="4.0454">
        <ele>767</ele>
        <time>2016-04-24T14:42:43Z</time>
      </trkpt>
      <trkpt lat="45.49964" lon="4.04547">
        <ele>767</ele>
        <time>2016-04-24T14:42:57Z</time>
      </trkpt>
      <trkpt lat="45.4996" lon="4.04549">
        <ele>767</ele>
        <time>2016-04-24T14:44:28Z</time>
      </trkpt>
      <trkpt lat="45.49953" lon="4.04549">
        <ele>767</ele>
        <time>2016-04-24T14:44:44Z</time>
      </trkpt>
      <trkpt lat="45.49953" lon="4.04506">
        <ele>762</ele>
        <time>2016-04-25T06:36:53Z</time>
      </trkpt>
      <trkpt lat="45.49951" lon="4.04499">
        <ele>762</ele>
        <time>2016-04-25T06:37:01Z</time>
      </trkpt>
      <trkpt lat="45.49932" lon="4.04406">
        <ele>767</ele>
        <time>2016-04-25T06:37:53Z</time>
      </trkpt>
      <trkpt lat="45.49933" lon="4.04368">
        <ele>770</ele>
        <time>2016-04-25T06:38:14Z</time>
      </trkpt>
      <trkpt lat="45.49929" lon="4.04362">
        <ele>770</ele>
        <time>2016-04-25T06:38:18Z</time>
      </trkpt>
      <trkpt lat="45.49925" lon="4.04358">
        <ele>770</ele>
        <time>2016-04-25T06:38:22Z</time>
      </trkpt>
      <trkpt lat="45.4991" lon="4.0432">
        <ele>771</ele>
        <time>2016-04-25T06:38:46Z</time>
      </trkpt>
      <trkpt lat="45.49883" lon="4.0428">
        <ele>774</ele>
        <time>2016-04-25T06:39:18Z</time>
      </trkpt>
      <trkpt lat="45.49847" lon="4.04254">
        <ele>775</ele>
        <time>2016-04-25T06:39:52Z</time>
      </trkpt>
      <trkpt lat="45.49814" lon="4.04235">
        <ele>776</ele>
        <time>2016-04-25T06:40:20Z</time>
      </trkpt>
      <trkpt lat="45.49775" lon="4.04203">
        <ele>778</ele>
        <time>2016-04-25T06:40:59Z</time>
      </trkpt>
      <trkpt lat="45.4977" lon="4.042">
        <ele>778</ele>
        <time>2016-04-25T06:41:04Z</time>
      </trkpt>
      <trkpt lat="45.49765" lon="4.04199">
        <ele>778</ele>
        <time>2016-04-25T06:41:08Z</time>
      </trkpt>
      <trkpt lat="45.4973" lon="4.04173">
        <ele>781</ele>
        <time>2016-04-25T06:41:40Z</time>
      </trkpt>
      <trkpt lat="45.497" lon="4.04135">
        <ele>782</ele>
        <time>2016-04-25T06:42:16Z</time>
      </trkpt>
      <trkpt lat="45.49686" lon="4.04104">
        <ele>781</ele>
        <time>2016-04-25T06:42:37Z</time>
      </trkpt>
      <trkpt lat="45.49687" lon="4.04098">
        <ele>782</ele>
        <time>2016-04-25T06:42:41Z</time>
      </trkpt>
      <trkpt lat="45.49686" lon="4.04091">
        <ele>782</ele>
        <time>2016-04-25T06:42:45Z</time>
      </trkpt>
      <trkpt lat="45.49659" lon="4.04048">
        <ele>782</ele>
        <time>2016-04-25T06:43:17Z</time>
      </trkpt>
      <trkpt lat="45.49652" lon="4.04012">
        <ele>782</ele>
        <time>2016-04-25T06:43:37Z</time>
      </trkpt>
      <trkpt lat="45.49647" lon="4.03957">
        <ele>783</ele>
        <time>2016-04-25T06:44:09Z</time>
      </trkpt>
      <trkpt lat="45.49639" lon="4.03941">
        <ele>783</ele>
        <time>2016-04-25T06:44:21Z</time>
      </trkpt>
      <trkpt lat="45.49635" lon="4.03938">
        <ele>783</ele>
        <time>2016-04-25T06:44:25Z</time>
      </trkpt>
      <trkpt lat="45.4963" lon="4.03935">
        <ele>783</ele>
        <time>2016-04-25T06:44:29Z</time>
      </trkpt>
      <trkpt lat="45.49625" lon="4.03934">
        <ele>784</ele>
        <time>2016-04-25T06:44:33Z</time>
      </trkpt>
      <trkpt lat="45.4962" lon="4.03933">
        <ele>784</ele>
        <time>2016-04-25T06:44:38Z</time>
      </trkpt>
      <trkpt lat="45.4961" lon="4.03937">
        <ele>785</ele>
        <time>2016-04-25T06:44:46Z</time>
      </trkpt>
      <trkpt lat="45.49607" lon="4.03931">
        <ele>786</ele>
        <time>2016-04-25T06:44:52Z</time>
      </trkpt>
      <trkpt lat="45.49608" lon="4.03924">
        <ele>786</ele>
        <time>2016-04-25T06:44:56Z</time>
      </trkpt>
      <trkpt lat="45.49609" lon="4.03917">
        <ele>786</ele>
        <time>2016-04-25T06:45:01Z</time>
      </trkpt>
      <trkpt lat="45.49606" lon="4.03907">
        <ele>786</ele>
        <time>2016-04-25T06:45:13Z</time>
      </trkpt>
      <trkpt lat="45.49597" lon="4.03901">
        <ele>786</ele>
        <time>2016-04-25T06:45:23Z</time>
      </trkpt>
      <trkpt lat="45.49588" lon="4.03899">
        <ele>787</ele>
        <time>2016-04-25T06:45:32Z</time>
      </trkpt>
      <trkpt lat="45.49582" lon="4.03894">
        <ele>789</ele>
        <time>2016-04-25T06:45:43Z</time>
      </trkpt>
      <trkpt lat="45.49578" lon="4.03891">
        <ele>789</ele>
        <time>2016-04-25T06:45:47Z</time>
      </trkpt>
      <trkpt lat="45.49574" lon="4.03887">
        <ele>790</ele>
        <time>2016-04-25T06:45:52Z</time>
      </trkpt>
      <trkpt lat="45.49561" lon="4.03878">
        <ele>791</ele>
        <time>2016-04-25T06:46:11Z</time>
      </trkpt>
      <trkpt lat="45.49537" lon="4.03876">
        <ele>797</ele>
        <time>2016-04-25T06:46:40Z</time>
      </trkpt>
      <trkpt lat="45.49519" lon="4.03849">
        <ele>801</ele>
        <time>2016-04-25T06:47:13Z</time>
      </trkpt>
      <trkpt lat="45.49508" lon="4.03838">
        <ele>802</ele>
        <time>2016-04-25T06:47:29Z</time>
      </trkpt>
      <trkpt lat="45.49504" lon="4.03829">
        <ele>805</ele>
        <time>2016-04-25T06:48:24Z</time>
      </trkpt>
      <trkpt lat="45.495" lon="4.03825">
        <ele>805</ele>
        <time>2016-04-25T06:48:32Z</time>
      </trkpt>
      <trkpt lat="45.49497" lon="4.03819">
        <ele>807</ele>
        <time>2016-04-25T06:48:37Z</time>
      </trkpt>
      <trkpt lat="45.49484" lon="4.03798">
        <ele>809</ele>
        <time>2016-04-25T06:49:01Z</time>
      </trkpt>
      <trkpt lat="45.49467" lon="4.0378">
        <ele>815</ele>
        <time>2016-04-25T06:49:36Z</time>
      </trkpt>
      <trkpt lat="45.49461" lon="4.03775">
        <ele>817</ele>
        <time>2016-04-25T06:49:47Z</time>
      </trkpt>
      <trkpt lat="45.49451" lon="4.03752">
        <ele>823</ele>
        <time>2016-04-25T06:50:20Z</time>
      </trkpt>
      <trkpt lat="45.49436" lon="4.03734">
        <ele>826</ele>
        <time>2016-04-25T06:50:40Z</time>
      </trkpt>
      <trkpt lat="45.49431" lon="4.03732">
        <ele>827</ele>
        <time>2016-04-25T06:50:46Z</time>
      </trkpt>
      <trkpt lat="45.49424" lon="4.03723">
        <ele>828</ele>
        <time>2016-04-25T06:50:55Z</time>
      </trkpt>
      <trkpt lat="45.49422" lon="4.03711">
        <ele>829</ele>
        <time>2016-04-25T06:51:04Z</time>
      </trkpt>
      <trkpt lat="45.49411" lon="4.03689">
        <ele>833</ele>
        <time>2016-04-25T06:51:25Z</time>
      </trkpt>
      <trkpt lat="45.49395" lon="4.03637">
        <ele>833</ele>
        <time>2016-04-25T06:52:17Z</time>
      </trkpt>
      <trkpt lat="45.49375" lon="4.0361">
        <ele>835</ele>
        <time>2016-04-25T06:52:42Z</time>
      </trkpt>
      <trkpt lat="45.49341" lon="4.03601">
        <ele>837</ele>
        <time>2016-04-25T06:53:08Z</time>
      </trkpt>
      <trkpt lat="45.49338" lon="4.03596">
        <ele>837</ele>
        <time>2016-04-25T06:53:12Z</time>
      </trkpt>
      <trkpt lat="45.49337" lon="4.0359">
        <ele>836</ele>
        <time>2016-04-25T06:53:22Z</time>
      </trkpt>
      <trkpt lat="45.49337" lon="4.0359">
        <ele>836</ele>
        <time>2016-04-25T06:53:34Z</time>
      </trkpt>
      <trkpt lat="45.49324" lon="4.03602">
        <ele>836</ele>
        <time>2016-04-25T06:53:47Z</time>
      </trkpt>
      <trkpt lat="45.49211" lon="4.03672">
        <ele>828</ele>
        <time>2016-04-25T06:55:25Z</time>
      </trkpt>
      <trkpt lat="45.49201" lon="4.03681">
        <ele>827</ele>
        <time>2016-04-25T06:55:34Z</time>
      </trkpt>
      <trkpt lat="45.49197" lon="4.03681">
        <ele>826</ele>
        <time>2016-04-25T06:55:39Z</time>
      </trkpt>
      <trkpt lat="45.49183" lon="4.03671">
        <ele>825</ele>
        <time>2016-04-25T06:55:53Z</time>
      </trkpt>
      <trkpt lat="45.49182" lon="4.03668">
        <ele>824</ele>
        <time>2016-04-25T06:56:14Z</time>
      </trkpt>
      <trkpt lat="45.49177" lon="4.03666">
        <ele>823</ele>
        <time>2016-04-25T06:56:20Z</time>
      </trkpt>
      <trkpt lat="45.49172" lon="4.03667">
        <ele>822</ele>
        <time>2016-04-25T06:56:23Z</time>
      </trkpt>
      <trkpt lat="45.49142" lon="4.03657">
        <ele>819</ele>
        <time>2016-04-25T06:56:47Z</time>
      </trkpt>
      <trkpt lat="45.49138" lon="4.03656">
        <ele>819</ele>
        <time>2016-04-25T06:56:52Z</time>
      </trkpt>
      <trkpt lat="45.49136" lon="4.03654">
        <ele>819</ele>
        <time>2016-04-25T06:56:58Z</time>
      </trkpt>
      <trkpt lat="45.49131" lon="4.03652">
        <ele>819</ele>
        <time>2016-04-25T06:57:04Z</time>
      </trkpt>
      <trkpt lat="45.49063" lon="4.03692">
        <ele>819</ele>
        <time>2016-04-25T06:58:05Z</time>
      </trkpt>
      <trkpt lat="45.49038" lon="4.03712">
        <ele>817</ele>
        <time>2016-04-25T06:58:38Z</time>
      </trkpt>
      <trkpt lat="45.49012" lon="4.03727">
        <ele>818</ele>
        <time>2016-04-25T06:58:59Z</time>
      </trkpt>
      <trkpt lat="45.49003" lon="4.03733">
        <ele>818</ele>
        <time>2016-04-25T06:59:05Z</time>
      </trkpt>
      <trkpt lat="45.48903" lon="4.03771">
        <ele>824</ele>
        <time>2016-04-25T07:00:49Z</time>
      </trkpt>
      <trkpt lat="45.48876" lon="4.03784">
        <ele>818</ele>
        <time>2016-04-25T07:01:16Z</time>
      </trkpt>
      <trkpt lat="45.48839" lon="4.03796">
        <ele>818</ele>
        <time>2016-04-25T07:01:49Z</time>
      </trkpt>
      <trkpt lat="45.4881" lon="4.03797">
        <ele>819</ele>
        <time>2016-04-25T07:02:10Z</time>
      </trkpt>
      <trkpt lat="45.48801" lon="4.03788">
        <ele>820</ele>
        <time>2016-04-25T07:02:20Z</time>
      </trkpt>
      <trkpt lat="45.48791" lon="4.03783">
        <ele>822</ele>
        <time>2016-04-25T07:02:27Z</time>
      </trkpt>
      <trkpt lat="45.48786" lon="4.03772">
        <ele>823</ele>
        <time>2016-04-25T07:02:34Z</time>
      </trkpt>
      <trkpt lat="45.48784" lon="4.03765">
        <ele>824</ele>
        <time>2016-04-25T07:02:42Z</time>
      </trkpt>
      <trkpt lat="45.48781" lon="4.0376">
        <ele>824</ele>
        <time>2016-04-25T07:02:47Z</time>
      </trkpt>
      <trkpt lat="45.48776" lon="4.03749">
        <ele>824</ele>
        <time>2016-04-25T07:02:56Z</time>
      </trkpt>
      <trkpt lat="45.48771" lon="4.03727">
        <ele>825</ele>
        <time>2016-04-25T07:03:11Z</time>
      </trkpt>
      <trkpt lat="45.48754" lon="4.03701">
        <ele>826</ele>
        <time>2016-04-25T07:03:35Z</time>
      </trkpt>
      <trkpt lat="45.48746" lon="4.03694">
        <ele>826</ele>
        <time>2016-04-25T07:03:43Z</time>
      </trkpt>
      <trkpt lat="45.48732" lon="4.03675">
        <ele>825</ele>
        <time>2016-04-25T07:04:03Z</time>
      </trkpt>
      <trkpt lat="45.48713" lon="4.03646">
        <ele>826</ele>
        <time>2016-04-25T07:04:32Z</time>
      </trkpt>
      <trkpt lat="45.48704" lon="4.03636">
        <ele>825</ele>
        <time>2016-04-25T07:05:09Z</time>
      </trkpt>
      <trkpt lat="45.48687" lon="4.036">
        <ele>825</ele>
        <time>2016-04-25T07:05:53Z</time>
      </trkpt>
      <trkpt lat="45.48666" lon="4.03512">
        <ele>823</ele>
        <time>2016-04-25T07:06:45Z</time>
      </trkpt>
      <trkpt lat="45.48656" lon="4.03495">
        <ele>825</ele>
        <time>2016-04-25T07:07:04Z</time>
      </trkpt>
      <trkpt lat="45.48657" lon="4.0349">
        <ele>825</ele>
        <time>2016-04-25T07:07:20Z</time>
      </trkpt>
      <trkpt lat="45.48656" lon="4.03484">
        <ele>825</ele>
        <time>2016-04-25T07:07:29Z</time>
      </trkpt>
      <trkpt lat="45.48655" lon="4.03486">
        <ele>821</ele>
        <time>2016-04-25T07:08:26Z</time>
      </trkpt>
      <trkpt lat="45.48649" lon="4.03483">
        <ele>821</ele>
        <time>2016-04-25T07:08:47Z</time>
      </trkpt>
      <trkpt lat="45.48647" lon="4.03485">
        <ele>821</ele>
        <time>2016-04-25T07:09:04Z</time>
      </trkpt>
      <trkpt lat="45.48644" lon="4.0349">
        <ele>821</ele>
        <time>2016-04-25T07:09:10Z</time>
      </trkpt>
      <trkpt lat="45.48639" lon="4.0349">
        <ele>820</ele>
        <time>2016-04-25T07:09:15Z</time>
      </trkpt>
      <trkpt lat="45.4863" lon="4.03495">
        <ele>821</ele>
        <time>2016-04-25T07:09:24Z</time>
      </trkpt>
      <trkpt lat="45.48623" lon="4.03505">
        <ele>823</ele>
        <time>2016-04-25T07:09:35Z</time>
      </trkpt>
      <trkpt lat="45.48624" lon="4.03519">
        <ele>824</ele>
        <time>2016-04-25T07:09:46Z</time>
      </trkpt>
      <trkpt lat="45.48622" lon="4.03539">
        <ele>825</ele>
        <time>2016-04-25T07:10:04Z</time>
      </trkpt>
      <trkpt lat="45.48609" lon="4.03562">
        <ele>826</ele>
        <time>2016-04-25T07:10:28Z</time>
      </trkpt>
      <trkpt lat="45.48592" lon="4.03574">
        <ele>830</ele>
        <time>2016-04-25T07:10:47Z</time>
      </trkpt>
      <trkpt lat="45.4857" lon="4.03596">
        <ele>832</ele>
        <time>2016-04-25T07:11:17Z</time>
      </trkpt>
      <trkpt lat="45.48551" lon="4.03599">
        <ele>834</ele>
        <time>2016-04-25T07:11:38Z</time>
      </trkpt>
      <trkpt lat="45.48541" lon="4.03598">
        <ele>836</ele>
        <time>2016-04-25T07:11:50Z</time>
      </trkpt>
      <trkpt lat="45.48531" lon="4.03613">
        <ele>839</ele>
        <time>2016-04-25T07:12:21Z</time>
      </trkpt>
      <trkpt lat="45.48514" lon="4.03624">
        <ele>843</ele>
        <time>2016-04-25T07:12:46Z</time>
      </trkpt>
      <trkpt lat="45.48507" lon="4.03633">
        <ele>844</ele>
        <time>2016-04-25T07:12:55Z</time>
      </trkpt>
      <trkpt lat="45.48481" lon="4.03655">
        <ele>849</ele>
        <time>2016-04-25T07:13:32Z</time>
      </trkpt>
      <trkpt lat="45.48472" lon="4.03659">
        <ele>850</ele>
        <time>2016-04-25T07:13:43Z</time>
      </trkpt>
      <trkpt lat="45.48469" lon="4.03662">
        <ele>852</ele>
        <time>2016-04-25T07:13:54Z</time>
      </trkpt>
      <trkpt lat="45.48465" lon="4.03664">
        <ele>853</ele>
        <time>2016-04-25T07:14:00Z</time>
      </trkpt>
      <trkpt lat="45.48447" lon="4.0369">
        <ele>864</ele>
        <time>2016-04-25T07:14:23Z</time>
      </trkpt>
      <trkpt lat="45.48441" lon="4.03703">
        <ele>860</ele>
        <time>2016-04-25T07:14:50Z</time>
      </trkpt>
      <trkpt lat="45.48424" lon="4.03765">
        <ele>861</ele>
        <time>2016-04-25T07:15:31Z</time>
      </trkpt>
      <trkpt lat="45.4841" lon="4.03785">
        <ele>861</ele>
        <time>2016-04-25T07:15:49Z</time>
      </trkpt>
      <trkpt lat="45.48405" lon="4.03787">
        <ele>861</ele>
        <time>2016-04-25T07:15:54Z</time>
      </trkpt>
      <trkpt lat="45.48378" lon="4.0377">
        <ele>863</ele>
        <time>2016-04-25T07:16:26Z</time>
      </trkpt>
      <trkpt lat="45.48345" lon="4.03758">
        <ele>864</ele>
        <time>2016-04-25T07:17:00Z</time>
      </trkpt>
      <trkpt lat="45.48276" lon="4.03761">
        <ele>872</ele>
        <time>2016-04-25T07:18:13Z</time>
      </trkpt>
      <trkpt lat="45.48244" lon="4.03737">
        <ele>869</ele>
        <time>2016-04-25T07:18:45Z</time>
      </trkpt>
      <trkpt lat="45.4824" lon="4.03731">
        <ele>868</ele>
        <time>2016-04-25T07:18:50Z</time>
      </trkpt>
      <trkpt lat="45.48236" lon="4.0373">
        <ele>868</ele>
        <time>2016-04-25T07:18:55Z</time>
      </trkpt>
      <trkpt lat="45.48231" lon="4.03733">
        <ele>868</ele>
        <time>2016-04-25T07:18:59Z</time>
      </trkpt>
      <trkpt lat="45.48228" lon="4.03737">
        <ele>867</ele>
        <time>2016-04-25T07:19:03Z</time>
      </trkpt>
      <trkpt lat="45.48223" lon="4.03773">
        <ele>871</ele>
        <time>2016-04-25T07:19:32Z</time>
      </trkpt>
      <trkpt lat="45.48219" lon="4.03779">
        <ele>871</ele>
        <time>2016-04-25T07:19:37Z</time>
      </trkpt>
      <trkpt lat="45.48182" lon="4.03811">
        <ele>867</ele>
        <time>2016-04-25T07:20:13Z</time>
      </trkpt>
      <trkpt lat="45.48174" lon="4.03818">
        <ele>867</ele>
        <time>2016-04-25T07:20:20Z</time>
      </trkpt>
      <trkpt lat="45.48153" lon="4.0386">
        <ele>865</ele>
        <time>2016-04-25T07:20:48Z</time>
      </trkpt>
      <trkpt lat="45.48123" lon="4.03949">
        <ele>855</ele>
        <time>2016-04-25T07:22:11Z</time>
      </trkpt>
      <trkpt lat="45.48121" lon="4.03974">
        <ele>850</ele>
        <time>2016-04-25T07:23:18Z</time>
      </trkpt>
      <trkpt lat="45.4812" lon="4.03981">
        <ele>851</ele>
        <time>2016-04-25T07:23:23Z</time>
      </trkpt>
      <trkpt lat="45.48118" lon="4.03986">
        <ele>851</ele>
        <time>2016-04-25T07:23:25Z</time>
      </trkpt>
      <trkpt lat="45.48114" lon="4.04002">
        <ele>853</ele>
        <time>2016-04-25T07:23:35Z</time>
      </trkpt>
      <trkpt lat="45.48078" lon="4.04061">
        <ele>852</ele>
        <time>2016-04-25T07:24:23Z</time>
      </trkpt>
      <trkpt lat="45.48052" lon="4.0412">
        <ele>853</ele>
        <time>2016-04-25T07:25:06Z</time>
      </trkpt>
      <trkpt lat="45.48051" lon="4.04141">
        <ele>851</ele>
        <time>2016-04-25T07:25:18Z</time>
      </trkpt>
      <trkpt lat="45.4803" lon="4.04197">
        <ele>852</ele>
        <time>2016-04-25T07:25:57Z</time>
      </trkpt>
      <trkpt lat="45.4803" lon="4.04204">
        <ele>853</ele>
        <time>2016-04-25T07:26:09Z</time>
      </trkpt>
      <trkpt lat="45.48018" lon="4.04221">
        <ele>852</ele>
        <time>2016-04-25T07:26:23Z</time>
      </trkpt>
      <trkpt lat="45.47995" lon="4.04251">
        <ele>853</ele>
        <time>2016-04-25T07:26:49Z</time>
      </trkpt>
      <trkpt lat="45.47959" lon="4.04287">
        <ele>850</ele>
        <time>2016-04-25T07:27:30Z</time>
      </trkpt>
      <trkpt lat="45.47952" lon="4.04296">
        <ele>852</ele>
        <time>2016-04-25T07:27:44Z</time>
      </trkpt>
      <trkpt lat="45.47948" lon="4.04298">
        <ele>851</ele>
        <time>2016-04-25T07:27:48Z</time>
      </trkpt>
      <trkpt lat="45.479" lon="4.04321">
        <ele>849</ele>
        <time>2016-04-25T07:28:32Z</time>
      </trkpt>
      <trkpt lat="45.47895" lon="4.04323">
        <ele>849</ele>
        <time>2016-04-25T07:28:36Z</time>
      </trkpt>
      <trkpt lat="45.47887" lon="4.04331">
        <ele>849</ele>
        <time>2016-04-25T07:28:44Z</time>
      </trkpt>
      <trkpt lat="45.4785" lon="4.04397">
        <ele>842</ele>
        <time>2016-04-25T07:29:53Z</time>
      </trkpt>
      <trkpt lat="45.47852" lon="4.04403">
        <ele>839</ele>
        <time>2016-04-25T07:30:20Z</time>
      </trkpt>
      <trkpt lat="45.47861" lon="4.0442">
        <ele>841</ele>
        <time>2016-04-25T07:30:32Z</time>
      </trkpt>
      <trkpt lat="45.47864" lon="4.04425">
        <ele>842</ele>
        <time>2016-04-25T07:30:40Z</time>
      </trkpt>
      <trkpt lat="45.47877" lon="4.04464">
        <ele>842</ele>
        <time>2016-04-25T07:31:05Z</time>
      </trkpt>
      <trkpt lat="45.47877" lon="4.04471">
        <ele>841</ele>
        <time>2016-04-25T07:31:14Z</time>
      </trkpt>
      <trkpt lat="45.47881" lon="4.04486">
        <ele>840</ele>
        <time>2016-04-25T07:31:30Z</time>
      </trkpt>
      <trkpt lat="45.47879" lon="4.04491">
        <ele>840</ele>
        <time>2016-04-25T07:31:38Z</time>
      </trkpt>
      <trkpt lat="45.47875" lon="4.04487">
        <ele>840</ele>
        <time>2016-04-25T07:31:44Z</time>
      </trkpt>
      <trkpt lat="45.47876" lon="4.04493">
        <ele>836</ele>
        <time>2016-04-25T07:34:09Z</time>
      </trkpt>
      <trkpt lat="45.47873" lon="4.04508">
        <ele>839</ele>
        <time>2016-04-25T07:34:18Z</time>
      </trkpt>
      <trkpt lat="45.47869" lon="4.04514">
        <ele>838</ele>
        <time>2016-04-25T07:34:22Z</time>
      </trkpt>
      <trkpt lat="45.47842" lon="4.04537">
        <ele>834</ele>
        <time>2016-04-25T07:34:57Z</time>
      </trkpt>
      <trkpt lat="45.47841" lon="4.04547">
        <ele>835</ele>
        <time>2016-04-25T07:35:08Z</time>
      </trkpt>
      <trkpt lat="45.47839" lon="4.0455">
        <ele>833</ele>
        <time>2016-04-25T07:35:40Z</time>
      </trkpt>
      <trkpt lat="45.47834" lon="4.04552">
        <ele>833</ele>
        <time>2016-04-25T07:35:47Z</time>
      </trkpt>
      <trkpt lat="45.47834" lon="4.04545">
        <ele>834</ele>
        <time>2016-04-25T07:36:11Z</time>
      </trkpt>
      <trkpt lat="45.47832" lon="4.04538">
        <ele>834</ele>
        <time>2016-04-25T07:36:25Z</time>
      </trkpt>
      <trkpt lat="45.47827" lon="4.0454">
        <ele>834</ele>
        <time>2016-04-25T07:36:31Z</time>
      </trkpt>
      <trkpt lat="45.47822" lon="4.04543">
        <ele>834</ele>
        <time>2016-04-25T07:36:36Z</time>
      </trkpt>
      <trkpt lat="45.47817" lon="4.0454">
        <ele>833</ele>
        <time>2016-04-25T07:36:48Z</time>
      </trkpt>
      <trkpt lat="45.47807" lon="4.04529">
        <ele>833</ele>
        <time>2016-04-25T07:36:58Z</time>
      </trkpt>
      <trkpt lat="45.47806" lon="4.04521">
        <ele>833</ele>
        <time>2016-04-25T07:37:02Z</time>
      </trkpt>
      <trkpt lat="45.47809" lon="4.04492">
        <ele>833</ele>
        <time>2016-04-25T07:37:19Z</time>
      </trkpt>
      <trkpt lat="45.47812" lon="4.04488">
        <ele>834</ele>
        <time>2016-04-25T07:37:39Z</time>
      </trkpt>
      <trkpt lat="45.47817" lon="4.04488">
        <ele>834</ele>
        <time>2016-04-25T07:37:44Z</time>
      </trkpt>
      <trkpt lat="45.47821" lon="4.04485">
        <ele>836</ele>
        <time>2016-04-25T07:37:50Z</time>
      </trkpt>
      <trkpt lat="45.47823" lon="4.04483">
        <ele>835</ele>
        <time>2016-04-25T07:38:52Z</time>
      </trkpt>
      <trkpt lat="45.47836" lon="4.04512">
        <ele>835</ele>
        <time>2016-04-25T07:40:11Z</time>
      </trkpt>
      <trkpt lat="45.4783" lon="4.04494">
        <ele>834</ele>
        <time>2016-04-25T07:46:16Z</time>
      </trkpt>
      <trkpt lat="45.47828" lon="4.04481">
        <ele>834</ele>
        <time>2016-04-25T07:46:20Z</time>
      </trkpt>
      <trkpt lat="45.47829" lon="4.04473">
        <ele>834</ele>
        <time>2016-04-25T07:46:24Z</time>
      </trkpt>
      <trkpt lat="45.47832" lon="4.04467">
        <ele>834</ele>
        <time>2016-04-25T07:46:29Z</time>
      </trkpt>
      <trkpt lat="45.47835" lon="4.04464">
        <ele>836</ele>
        <time>2016-04-25T07:46:57Z</time>
      </trkpt>
      <trkpt lat="45.47831" lon="4.04466">
        <ele>836</ele>
        <time>2016-04-25T07:47:21Z</time>
      </trkpt>
      <trkpt lat="45.47826" lon="4.04465">
        <ele>836</ele>
        <time>2016-04-25T07:47:25Z</time>
      </trkpt>
      <trkpt lat="45.47823" lon="4.04472">
        <ele>836</ele>
        <time>2016-04-25T07:47:28Z</time>
      </trkpt>
      <trkpt lat="45.47822" lon="4.0448">
        <ele>836</ele>
        <time>2016-04-25T07:47:31Z</time>
      </trkpt>
      <trkpt lat="45.4782" lon="4.04487">
        <ele>836</ele>
        <time>2016-04-25T07:47:34Z</time>
      </trkpt>
      <trkpt lat="45.47821" lon="4.04501">
        <ele>836</ele>
        <time>2016-04-25T07:47:42Z</time>
      </trkpt>
      <trkpt lat="45.47825" lon="4.04514">
        <ele>836</ele>
        <time>2016-04-25T07:47:59Z</time>
      </trkpt>
      <trkpt lat="45.47827" lon="4.0452">
        <ele>836</ele>
        <time>2016-04-25T07:48:05Z</time>
      </trkpt>
      <trkpt lat="45.47831" lon="4.04523">
        <ele>836</ele>
        <time>2016-04-25T07:48:20Z</time>
      </trkpt>
      <trkpt lat="45.47838" lon="4.04497">
        <ele>836</ele>
        <time>2016-04-25T07:48:42Z</time>
      </trkpt>
      <trkpt lat="45.47843" lon="4.04487">
        <ele>837</ele>
        <time>2016-04-25T07:48:53Z</time>
      </trkpt>
      <trkpt lat="45.47841" lon="4.04478">
        <ele>837</ele>
        <time>2016-04-25T07:48:59Z</time>
      </trkpt>
      <trkpt lat="45.47837" lon="4.04465">
        <ele>837</ele>
        <time>2016-04-25T07:49:07Z</time>
      </trkpt>
      <trkpt lat="45.47854" lon="4.04414">
        <ele>842</ele>
        <time>2016-04-25T07:49:51Z</time>
      </trkpt>
      <trkpt lat="45.47852" lon="4.04407">
        <ele>842</ele>
        <time>2016-04-25T07:49:55Z</time>
      </trkpt>
      <trkpt lat="45.47848" lon="4.04401">
        <ele>842</ele>
        <time>2016-04-25T07:49:59Z</time>
      </trkpt>
      <trkpt lat="45.47832" lon="4.04355">
        <ele>844</ele>
        <time>2016-04-25T07:50:31Z</time>
      </trkpt>
      <trkpt lat="45.47833" lon="4.04341">
        <ele>845</ele>
        <time>2016-04-25T07:50:42Z</time>
      </trkpt>
      <trkpt lat="45.47835" lon="4.04333">
        <ele>846</ele>
        <time>2016-04-25T07:50:58Z</time>
      </trkpt>
      <trkpt lat="45.47836" lon="4.04319">
        <ele>847</ele>
        <time>2016-04-25T07:51:13Z</time>
      </trkpt>
      <trkpt lat="45.47839" lon="4.04314">
        <ele>847</ele>
        <time>2016-04-25T07:51:18Z</time>
      </trkpt>
      <trkpt lat="45.47849" lon="4.04318">
        <ele>850</ele>
        <time>2016-04-25T07:51:31Z</time>
      </trkpt>
      <trkpt lat="45.47851" lon="4.04319">
        <ele>851</ele>
        <time>2016-04-25T07:51:54Z</time>
      </trkpt>
      <trkpt lat="45.47848" lon="4.04318">
        <ele>852</ele>
        <time>2016-04-25T07:52:47Z</time>
      </trkpt>
      <trkpt lat="45.47844" lon="4.0432">
        <ele>851</ele>
        <time>2016-04-25T07:52:52Z</time>
      </trkpt>
      <trkpt lat="45.47841" lon="4.04315">
        <ele>850</ele>
        <time>2016-04-25T07:52:59Z</time>
      </trkpt>
      <trkpt lat="45.47837" lon="4.04319">
        <ele>851</ele>
        <time>2016-04-25T07:53:05Z</time>
      </trkpt>
      <trkpt lat="45.47832" lon="4.04351">
        <ele>846</ele>
        <time>2016-04-25T07:53:45Z</time>
      </trkpt>
      <trkpt lat="45.47828" lon="4.04348">
        <ele>846</ele>
        <time>2016-04-25T07:53:49Z</time>
      </trkpt>
      <trkpt lat="45.47825" lon="4.04341">
        <ele>846</ele>
        <time>2016-04-25T07:53:53Z</time>
      </trkpt>
      <trkpt lat="45.47822" lon="4.04219">
        <ele>852</ele>
        <time>2016-04-25T07:55:06Z</time>
      </trkpt>
      <trkpt lat="45.47823" lon="4.04212">
        <ele>853</ele>
        <time>2016-04-25T07:55:26Z</time>
      </trkpt>
      <trkpt lat="45.47822" lon="4.04204">
        <ele>853</ele>
        <time>2016-04-25T07:56:06Z</time>
      </trkpt>
      <trkpt lat="45.47823" lon="4.04196">
        <ele>853</ele>
        <time>2016-04-25T07:56:12Z</time>
      </trkpt>
      <trkpt lat="45.47815" lon="4.04169">
        <ele>856</ele>
        <time>2016-04-25T07:56:28Z</time>
      </trkpt>
      <trkpt lat="45.47766" lon="4.04122">
        <ele>863</ele>
        <time>2016-04-25T07:57:34Z</time>
      </trkpt>
      <trkpt lat="45.47741" lon="4.04112">
        <ele>864</ele>
        <time>2016-04-25T07:57:54Z</time>
      </trkpt>
      <trkpt lat="45.47737" lon="4.04114">
        <ele>864</ele>
        <time>2016-04-25T07:57:59Z</time>
      </trkpt>
      <trkpt lat="45.4772" lon="4.04128">
        <ele>867</ele>
        <time>2016-04-25T07:58:24Z</time>
      </trkpt>
      <trkpt lat="45.47711" lon="4.04131">
        <ele>865</ele>
        <time>2016-04-25T07:58:53Z</time>
      </trkpt>
      <trkpt lat="45.47691" lon="4.0414">
        <ele>865</ele>
        <time>2016-04-25T07:59:22Z</time>
      </trkpt>
      <trkpt lat="45.47682" lon="4.04134">
        <ele>865</ele>
        <time>2016-04-25T07:59:30Z</time>
      </trkpt>
      <trkpt lat="45.4765" lon="4.0407">
        <ele>867</ele>
        <time>2016-04-25T08:00:42Z</time>
      </trkpt>
      <trkpt lat="45.47645" lon="4.04057">
        <ele>869</ele>
        <time>2016-04-25T08:00:50Z</time>
      </trkpt>
      <trkpt lat="45.47583" lon="4.03938">
        <ele>879</ele>
        <time>2016-04-25T08:02:22Z</time>
      </trkpt>
      <trkpt lat="45.47579" lon="4.03911">
        <ele>882</ele>
        <time>2016-04-25T08:02:44Z</time>
      </trkpt>
      <trkpt lat="45.47564" lon="4.03886">
        <ele>893</ele>
        <time>2016-04-25T08:03:24Z</time>
      </trkpt>
      <trkpt lat="45.47559" lon="4.03865">
        <ele>897</ele>
        <time>2016-04-25T08:03:39Z</time>
      </trkpt>
      <trkpt lat="45.47573" lon="4.03795">
        <ele>904</ele>
        <time>2016-04-25T08:04:25Z</time>
      </trkpt>
      <trkpt lat="45.47574" lon="4.0378">
        <ele>904</ele>
        <time>2016-04-25T08:04:35Z</time>
      </trkpt>
      <trkpt lat="45.47572" lon="4.03772">
        <ele>905</ele>
        <time>2016-04-25T08:04:46Z</time>
      </trkpt>
      <trkpt lat="45.47573" lon="4.03765">
        <ele>904</ele>
        <time>2016-04-25T08:04:51Z</time>
      </trkpt>
      <trkpt lat="45.47571" lon="4.03751">
        <ele>904</ele>
        <time>2016-04-25T08:05:02Z</time>
      </trkpt>
      <trkpt lat="45.47566" lon="4.03692">
        <ele>910</ele>
        <time>2016-04-25T08:05:37Z</time>
      </trkpt>
      <trkpt lat="45.47565" lon="4.03685">
        <ele>911</ele>
        <time>2016-04-25T08:05:42Z</time>
      </trkpt>
      <trkpt lat="45.47565" lon="4.03678">
        <ele>909</ele>
        <time>2016-04-25T08:06:06Z</time>
      </trkpt>
      <trkpt lat="45.4756" lon="4.03636">
        <ele>912</ele>
        <time>2016-04-25T08:06:37Z</time>
      </trkpt>
      <trkpt lat="45.47549" lon="4.03597">
        <ele>920</ele>
        <time>2016-04-25T08:07:08Z</time>
      </trkpt>
      <trkpt lat="45.47518" lon="4.03579">
        <ele>924</ele>
        <time>2016-04-25T08:07:43Z</time>
      </trkpt>
      <trkpt lat="45.47495" lon="4.03573">
        <ele>929</ele>
        <time>2016-04-25T08:08:13Z</time>
      </trkpt>
      <trkpt lat="45.4749" lon="4.03571">
        <ele>929</ele>
        <time>2016-04-25T08:09:00Z</time>
      </trkpt>
      <trkpt lat="45.47485" lon="4.03568">
        <ele>928</ele>
        <time>2016-04-25T08:09:06Z</time>
      </trkpt>
      <trkpt lat="45.47481" lon="4.0357">
        <ele>928</ele>
        <time>2016-04-25T08:09:11Z</time>
      </trkpt>
      <trkpt lat="45.47463" lon="4.03563">
        <ele>930</ele>
        <time>2016-04-25T08:09:30Z</time>
      </trkpt>
      <trkpt lat="45.47455" lon="4.03557">
        <ele>932</ele>
        <time>2016-04-25T08:09:40Z</time>
      </trkpt>
      <trkpt lat="45.47448" lon="4.03533">
        <ele>933</ele>
        <time>2016-04-25T08:10:08Z</time>
      </trkpt>
      <trkpt lat="45.47445" lon="4.03529">
        <ele>934</ele>
        <time>2016-04-25T08:10:18Z</time>
      </trkpt>
      <trkpt lat="45.4744" lon="4.03527">
        <ele>935</ele>
        <time>2016-04-25T08:10:21Z</time>
      </trkpt>
      <trkpt lat="45.47422" lon="4.03501">
        <ele>942</ele>
        <time>2016-04-25T08:10:51Z</time>
      </trkpt>
      <trkpt lat="45.47405" lon="4.03484">
        <ele>943</ele>
        <time>2016-04-25T08:11:09Z</time>
      </trkpt>
      <trkpt lat="45.474" lon="4.0348">
        <ele>943</ele>
        <time>2016-04-25T08:11:14Z</time>
      </trkpt>
      <trkpt lat="45.4739" lon="4.03477">
        <ele>944</ele>
        <time>2016-04-25T08:11:24Z</time>
      </trkpt>
      <trkpt lat="45.47379" lon="4.03463">
        <ele>946</ele>
        <time>2016-04-25T08:11:38Z</time>
      </trkpt>
      <trkpt lat="45.47377" lon="4.03449">
        <ele>948</ele>
        <time>2016-04-25T08:11:50Z</time>
      </trkpt>
      <trkpt lat="45.47381" lon="4.03437">
        <ele>948</ele>
        <time>2016-04-25T08:12:01Z</time>
      </trkpt>
      <trkpt lat="45.47385" lon="4.03397">
        <ele>948</ele>
        <time>2016-04-25T08:12:27Z</time>
      </trkpt>
      <trkpt lat="45.47381" lon="4.03385">
        <ele>947</ele>
        <time>2016-04-25T08:12:44Z</time>
      </trkpt>
      <trkpt lat="45.47386" lon="4.03359">
        <ele>946</ele>
        <time>2016-04-25T08:13:06Z</time>
      </trkpt>
      <trkpt lat="45.47392" lon="4.03348">
        <ele>946</ele>
        <time>2016-04-25T08:13:14Z</time>
      </trkpt>
      <trkpt lat="45.47395" lon="4.03343">
        <ele>946</ele>
        <time>2016-04-25T08:13:18Z</time>
      </trkpt>
      <trkpt lat="45.47399" lon="4.03334">
        <ele>947</ele>
        <time>2016-04-25T08:13:31Z</time>
      </trkpt>
      <trkpt lat="45.47403" lon="4.03332">
        <ele>949</ele>
        <time>2016-04-25T08:13:54Z</time>
      </trkpt>
      <trkpt lat="45.47411" lon="4.03324">
        <ele>950</ele>
        <time>2016-04-25T08:14:03Z</time>
      </trkpt>
      <trkpt lat="45.47426" lon="4.03287">
        <ele>956</ele>
        <time>2016-04-25T08:14:37Z</time>
      </trkpt>
      <trkpt lat="45.4745" lon="4.03258">
        <ele>960</ele>
        <time>2016-04-25T08:15:11Z</time>
      </trkpt>
      <trkpt lat="45.47458" lon="4.03251">
        <ele>961</ele>
        <time>2016-04-25T08:15:22Z</time>
      </trkpt>
      <trkpt lat="45.47473" lon="4.03214">
        <ele>967</ele>
        <time>2016-04-25T08:15:54Z</time>
      </trkpt>
      <trkpt lat="45.47482" lon="4.03185">
        <ele>971</ele>
        <time>2016-04-25T08:16:23Z</time>
      </trkpt>
      <trkpt lat="45.47482" lon="4.03178">
        <ele>971</ele>
        <time>2016-04-25T08:16:30Z</time>
      </trkpt>
      <trkpt lat="45.47476" lon="4.03161">
        <ele>974</ele>
        <time>2016-04-25T08:16:54Z</time>
      </trkpt>
      <trkpt lat="45.47474" lon="4.03159">
        <ele>974</ele>
        <time>2016-04-25T08:17:01Z</time>
      </trkpt>
      <trkpt lat="45.47473" lon="4.03155">
        <ele>974</ele>
        <time>2016-04-25T08:17:28Z</time>
      </trkpt>
      <trkpt lat="45.47469" lon="4.03153">
        <ele>974</ele>
        <time>2016-04-25T08:17:35Z</time>
      </trkpt>
      <trkpt lat="45.47464" lon="4.03154">
        <ele>974</ele>
        <time>2016-04-25T08:17:39Z</time>
      </trkpt>
      <trkpt lat="45.47453" lon="4.03148">
        <ele>974</ele>
        <time>2016-04-25T08:18:02Z</time>
      </trkpt>
      <trkpt lat="45.47448" lon="4.0315">
        <ele>973</ele>
        <time>2016-04-25T08:18:08Z</time>
      </trkpt>
      <trkpt lat="45.47444" lon="4.03152">
        <ele>972</ele>
        <time>2016-04-25T08:18:14Z</time>
      </trkpt>
      <trkpt lat="45.47433" lon="4.03147">
        <ele>973</ele>
        <time>2016-04-25T08:18:22Z</time>
      </trkpt>
      <trkpt lat="45.47429" lon="4.03144">
        <ele>973</ele>
        <time>2016-04-25T08:18:25Z</time>
      </trkpt>
      <trkpt lat="45.47398" lon="4.03124">
        <ele>973</ele>
        <time>2016-04-25T08:18:55Z</time>
      </trkpt>
      <trkpt lat="45.47371" lon="4.03085">
        <ele>977</ele>
        <time>2016-04-25T08:19:35Z</time>
      </trkpt>
      <trkpt lat="45.47351" lon="4.03081">
        <ele>979</ele>
        <time>2016-04-25T08:19:52Z</time>
      </trkpt>
      <trkpt lat="45.47337" lon="4.03099">
        <ele>981</ele>
        <time>2016-04-25T08:20:07Z</time>
      </trkpt>
      <trkpt lat="45.47299" lon="4.03107">
        <ele>982</ele>
        <time>2016-04-25T08:20:41Z</time>
      </trkpt>
      <trkpt lat="45.47282" lon="4.03116">
        <ele>983</ele>
        <time>2016-04-25T08:20:59Z</time>
      </trkpt>
      <trkpt lat="45.47273" lon="4.03114">
        <ele>983</ele>
        <time>2016-04-25T08:21:07Z</time>
      </trkpt>
      <trkpt lat="45.47263" lon="4.03107">
        <ele>980</ele>
        <time>2016-04-25T08:21:22Z</time>
      </trkpt>
      <trkpt lat="45.4727" lon="4.03108">
        <ele>980</ele>
        <time>2016-04-25T08:21:38Z</time>
      </trkpt>
      <trkpt lat="45.47285" lon="4.03105">
        <ele>976</ele>
        <time>2016-04-25T08:21:51Z</time>
      </trkpt>
      <trkpt lat="45.47305" lon="4.03098">
        <ele>975</ele>
        <time>2016-04-25T08:22:11Z</time>
      </trkpt>
      <trkpt lat="45.4731" lon="4.03095">
        <ele>975</ele>
        <time>2016-04-25T08:22:16Z</time>
      </trkpt>
      <trkpt lat="45.47314" lon="4.03095">
        <ele>975</ele>
        <time>2016-04-25T08:22:20Z</time>
      </trkpt>
      <trkpt lat="45.47313" lon="4.03098">
        <ele>975</ele>
        <time>2016-04-25T08:22:37Z</time>
      </trkpt>
      <trkpt lat="45.47319" lon="4.03098">
        <ele>976</ele>
        <time>2016-04-25T08:23:05Z</time>
      </trkpt>
      <trkpt lat="45.47359" lon="4.03085">
        <ele>975</ele>
        <time>2016-04-25T08:23:40Z</time>
      </trkpt>
      <trkpt lat="45.47374" lon="4.03086">
        <ele>977</ele>
        <time>2016-04-25T08:23:55Z</time>
      </trkpt>
      <trkpt lat="45.47385" lon="4.03098">
        <ele>977</ele>
        <time>2016-04-25T08:24:04Z</time>
      </trkpt>
      <trkpt lat="45.47395" lon="4.03116">
        <ele>978</ele>
        <time>2016-04-25T08:24:18Z</time>
      </trkpt>
      <trkpt lat="45.47403" lon="4.03125">
        <ele>976</ele>
        <time>2016-04-25T08:24:27Z</time>
      </trkpt>
      <trkpt lat="45.47407" lon="4.03128">
        <ele>976</ele>
        <time>2016-04-25T08:24:34Z</time>
      </trkpt>
      <trkpt lat="45.47438" lon="4.03138">
        <ele>977</ele>
        <time>2016-04-25T08:24:55Z</time>
      </trkpt>
      <trkpt lat="45.47458" lon="4.03153">
        <ele>975</ele>
        <time>2016-04-25T08:25:17Z</time>
      </trkpt>
      <trkpt lat="45.47462" lon="4.03154">
        <ele>975</ele>
        <time>2016-04-25T08:25:21Z</time>
      </trkpt>
      <trkpt lat="45.47473" lon="4.03151">
        <ele>976</ele>
        <time>2016-04-25T08:25:30Z</time>
      </trkpt>
      <trkpt lat="45.47467" lon="4.03141">
        <ele>977</ele>
        <time>2016-04-25T08:25:39Z</time>
      </trkpt>
      <trkpt lat="45.47465" lon="4.03127">
        <ele>977</ele>
        <time>2016-04-25T08:25:51Z</time>
      </trkpt>
      <trkpt lat="45.47458" lon="4.03118">
        <ele>977</ele>
        <time>2016-04-25T08:26:00Z</time>
      </trkpt>
      <trkpt lat="45.47419" lon="4.03045">
        <ele>981</ele>
        <time>2016-04-25T08:27:07Z</time>
      </trkpt>
      <trkpt lat="45.47408" lon="4.03004">
        <ele>983</ele>
        <time>2016-04-25T08:27:49Z</time>
      </trkpt>
      <trkpt lat="45.47385" lon="4.02963">
        <ele>987</ele>
        <time>2016-04-25T08:28:28Z</time>
      </trkpt>
      <trkpt lat="45.47378" lon="4.02954">
        <ele>989</ele>
        <time>2016-04-25T08:28:46Z</time>
      </trkpt>
      <trkpt lat="45.47354" lon="4.02944">
        <ele>993</ele>
        <time>2016-04-25T08:29:25Z</time>
      </trkpt>
      <trkpt lat="45.47322" lon="4.02917">
        <ele>999</ele>
        <time>2016-04-25T08:30:13Z</time>
      </trkpt>
      <trkpt lat="45.4732" lon="4.02917">
        <ele>999</ele>
        <time>2016-04-25T08:30:30Z</time>
      </trkpt>
      <trkpt lat="45.47304" lon="4.02896">
        <ele>1003</ele>
        <time>2016-04-25T08:31:11Z</time>
      </trkpt>
      <trkpt lat="45.47304" lon="4.02882">
        <ele>1008</ele>
        <time>2016-04-25T08:31:24Z</time>
      </trkpt>
      <trkpt lat="45.47296" lon="4.02845">
        <ele>1011</ele>
        <time>2016-04-25T08:31:57Z</time>
      </trkpt>
      <trkpt lat="45.47295" lon="4.02839">
        <ele>1012</ele>
        <time>2016-04-25T08:32:03Z</time>
      </trkpt>
      <trkpt lat="45.4729" lon="4.0282">
        <ele>1006</ele>
        <time>2016-04-25T08:32:20Z</time>
      </trkpt>
      <trkpt lat="45.47291" lon="4.02805">
        <ele>1007</ele>
        <time>2016-04-25T08:32:31Z</time>
      </trkpt>
      <trkpt lat="45.47289" lon="4.02799">
        <ele>1008</ele>
        <time>2016-04-25T08:32:37Z</time>
      </trkpt>
      <trkpt lat="45.47286" lon="4.02795">
        <ele>1009</ele>
        <time>2016-04-25T08:32:48Z</time>
      </trkpt>
      <trkpt lat="45.47286" lon="4.0279">
        <ele>1009</ele>
        <time>2016-04-25T08:32:58Z</time>
      </trkpt>
      <trkpt lat="45.47284" lon="4.02786">
        <ele>1010</ele>
        <time>2016-04-25T08:33:06Z</time>
      </trkpt>
      <trkpt lat="45.47283" lon="4.02782">
        <ele>1011</ele>
        <time>2016-04-25T08:33:18Z</time>
      </trkpt>
      <trkpt lat="45.47282" lon="4.02776">
        <ele>1011</ele>
        <time>2016-04-25T08:33:28Z</time>
      </trkpt>
      <trkpt lat="45.47285" lon="4.0277">
        <ele>1012</ele>
        <time>2016-04-25T08:33:35Z</time>
      </trkpt>
      <trkpt lat="45.47281" lon="4.02766">
        <ele>1013</ele>
        <time>2016-04-25T08:33:40Z</time>
      </trkpt>
      <trkpt lat="45.47281" lon="4.02758">
        <ele>1014</ele>
        <time>2016-04-25T08:34:01Z</time>
      </trkpt>
      <trkpt lat="45.4728" lon="4.02752">
        <ele>1014</ele>
        <time>2016-04-25T08:34:06Z</time>
      </trkpt>
      <trkpt lat="45.47281" lon="4.02747">
        <ele>1015</ele>
        <time>2016-04-25T08:34:17Z</time>
      </trkpt>
      <trkpt lat="45.47278" lon="4.02741">
        <ele>1015</ele>
        <time>2016-04-25T08:34:30Z</time>
      </trkpt>
      <trkpt lat="45.47275" lon="4.02736">
        <ele>1015</ele>
        <time>2016-04-25T08:34:36Z</time>
      </trkpt>
      <trkpt lat="45.47274" lon="4.02729">
        <ele>1015</ele>
        <time>2016-04-25T08:34:41Z</time>
      </trkpt>
      <trkpt lat="45.47276" lon="4.02687">
        <ele>1032</ele>
        <time>2016-04-25T08:35:18Z</time>
      </trkpt>
      <trkpt lat="45.47273" lon="4.02673">
        <ele>1034</ele>
        <time>2016-04-25T08:35:31Z</time>
      </trkpt>
      <trkpt lat="45.47274" lon="4.02666">
        <ele>1035</ele>
        <time>2016-04-25T08:35:37Z</time>
      </trkpt>
      <trkpt lat="45.47266" lon="4.02616">
        <ele>1039</ele>
        <time>2016-04-25T08:36:13Z</time>
      </trkpt>
      <trkpt lat="45.47266" lon="4.02602">
        <ele>1035</ele>
        <time>2016-04-25T08:36:23Z</time>
      </trkpt>
      <trkpt lat="45.47261" lon="4.02591">
        <ele>1034</ele>
        <time>2016-04-25T08:36:34Z</time>
      </trkpt>
      <trkpt lat="45.47256" lon="4.02579">
        <ele>1034</ele>
        <time>2016-04-25T08:36:44Z</time>
      </trkpt>
      <trkpt lat="45.47261" lon="4.02524">
        <ele>1030</ele>
        <time>2016-04-25T08:37:17Z</time>
      </trkpt>
      <trkpt lat="45.47276" lon="4.02478">
        <ele>1029</ele>
        <time>2016-04-25T08:37:47Z</time>
      </trkpt>
      <trkpt lat="45.47282" lon="4.02443">
        <ele>1029</ele>
        <time>2016-04-25T08:38:08Z</time>
      </trkpt>
      <trkpt lat="45.4731" lon="4.02366">
        <ele>1034</ele>
        <time>2016-04-25T08:39:06Z</time>
      </trkpt>
      <trkpt lat="45.47341" lon="4.02293">
        <ele>1034</ele>
        <time>2016-04-25T08:39:59Z</time>
      </trkpt>
      <trkpt lat="45.47354" lon="4.02247">
        <ele>1035</ele>
        <time>2016-04-25T08:40:30Z</time>
      </trkpt>
      <trkpt lat="45.4736" lon="4.02198">
        <ele>1037</ele>
        <time>2016-04-25T08:41:07Z</time>
      </trkpt>
      <trkpt lat="45.47362" lon="4.02197">
        <ele>1045</ele>
        <time>2016-04-25T08:43:26Z</time>
      </trkpt>
      <trkpt lat="45.4736" lon="4.02198">
        <ele>1043</ele>
        <time>2016-04-25T08:45:05Z</time>
      </trkpt>
      <trkpt lat="45.47362" lon="4.02198">
        <ele>1042</ele>
        <time>2016-04-25T08:47:14Z</time>
      </trkpt>
      <trkpt lat="45.47363" lon="4.02191">
        <ele>1042</ele>
        <time>2016-04-25T08:47:23Z</time>
      </trkpt>
      <trkpt lat="45.47362" lon="4.02183">
        <ele>1041</ele>
        <time>2016-04-25T08:47:27Z</time>
      </trkpt>
      <trkpt lat="45.47359" lon="4.02175">
        <ele>1041</ele>
        <time>2016-04-25T08:47:37Z</time>
      </trkpt>
      <trkpt lat="45.47319" lon="4.02146">
        <ele>1043</ele>
        <time>2016-04-25T08:48:18Z</time>
      </trkpt>
      <trkpt lat="45.47314" lon="4.02146">
        <ele>1044</ele>
        <time>2016-04-25T08:48:25Z</time>
      </trkpt>
      <trkpt lat="45.47311" lon="4.02096">
        <ele>1044</ele>
        <time>2016-04-25T08:49:10Z</time>
      </trkpt>
      <trkpt lat="45.47305" lon="4.02086">
        <ele>1044</ele>
        <time>2016-04-25T08:49:20Z</time>
      </trkpt>
      <trkpt lat="45.47284" lon="4.02059">
        <ele>1047</ele>
        <time>2016-04-25T08:49:58Z</time>
      </trkpt>
      <trkpt lat="45.47281" lon="4.02053">
        <ele>1048</ele>
        <time>2016-04-25T08:50:03Z</time>
      </trkpt>
      <trkpt lat="45.47306" lon="4.02026">
        <ele>1052</ele>
        <time>2016-04-25T08:50:32Z</time>
      </trkpt>
      <trkpt lat="45.4733" lon="4.02033">
        <ele>1056</ele>
        <time>2016-04-25T08:51:02Z</time>
      </trkpt>
      <trkpt lat="45.47335" lon="4.0203">
        <ele>1057</ele>
        <time>2016-04-25T08:51:07Z</time>
      </trkpt>
      <trkpt lat="45.47355" lon="4.02">
        <ele>1059</ele>
        <time>2016-04-25T08:51:35Z</time>
      </trkpt>
      <trkpt lat="45.47353" lon="4.01993">
        <ele>1059</ele>
        <time>2016-04-25T08:51:40Z</time>
      </trkpt>
      <trkpt lat="45.47357" lon="4.01972">
        <ele>1062</ele>
        <time>2016-04-25T08:51:57Z</time>
      </trkpt>
      <trkpt lat="45.47361" lon="4.01919">
        <ele>1066</ele>
        <time>2016-04-25T08:52:36Z</time>
      </trkpt>
      <trkpt lat="45.47382" lon="4.01874">
        <ele>1070</ele>
        <time>2016-04-25T08:53:14Z</time>
      </trkpt>
      <trkpt lat="45.47385" lon="4.01836">
        <ele>1073</ele>
        <time>2016-04-25T08:53:49Z</time>
      </trkpt>
      <trkpt lat="45.47387" lon="4.01823">
        <ele>1074</ele>
        <time>2016-04-25T08:53:58Z</time>
      </trkpt>
      <trkpt lat="45.47382" lon="4.01798">
        <ele>1076</ele>
        <time>2016-04-25T08:54:16Z</time>
      </trkpt>
      <trkpt lat="45.47384" lon="4.01785">
        <ele>1077</ele>
        <time>2016-04-25T08:54:25Z</time>
      </trkpt>
      <trkpt lat="45.47382" lon="4.01779">
        <ele>1077</ele>
        <time>2016-04-25T08:54:33Z</time>
      </trkpt>
      <trkpt lat="45.47379" lon="4.01774">
        <ele>1078</ele>
        <time>2016-04-25T08:54:38Z</time>
      </trkpt>
      <trkpt lat="45.47371" lon="4.01766">
        <ele>1079</ele>
        <time>2016-04-25T08:54:49Z</time>
      </trkpt>
      <trkpt lat="45.47351" lon="4.0173">
        <ele>1082</ele>
        <time>2016-04-25T08:55:30Z</time>
      </trkpt>
      <trkpt lat="45.47343" lon="4.01722">
        <ele>1082</ele>
        <time>2016-04-25T08:55:38Z</time>
      </trkpt>
      <trkpt lat="45.47335" lon="4.01698">
        <ele>1084</ele>
        <time>2016-04-25T08:55:57Z</time>
      </trkpt>
      <trkpt lat="45.47311" lon="4.01677">
        <ele>1087</ele>
        <time>2016-04-25T08:56:36Z</time>
      </trkpt>
      <trkpt lat="45.47294" lon="4.01646">
        <ele>1091</ele>
        <time>2016-04-25T08:57:10Z</time>
      </trkpt>
      <trkpt lat="45.47294" lon="4.0162">
        <ele>1094</ele>
        <time>2016-04-25T08:57:36Z</time>
      </trkpt>
      <trkpt lat="45.47301" lon="4.01604">
        <ele>1096</ele>
        <time>2016-04-25T08:58:01Z</time>
      </trkpt>
      <trkpt lat="45.4731" lon="4.01566">
        <ele>1101</ele>
        <time>2016-04-25T08:58:36Z</time>
      </trkpt>
      <trkpt lat="45.47346" lon="4.0148">
        <ele>1111</ele>
        <time>2016-04-25T09:00:19Z</time>
      </trkpt>
      <trkpt lat="45.47357" lon="4.01475">
        <ele>1112</ele>
        <time>2016-04-25T09:00:34Z</time>
      </trkpt>
      <trkpt lat="45.4736" lon="4.01467">
        <ele>1113</ele>
        <time>2016-04-25T09:01:05Z</time>
      </trkpt>
      <trkpt lat="45.47361" lon="4.01461">
        <ele>1114</ele>
        <time>2016-04-25T09:01:32Z</time>
      </trkpt>
      <trkpt lat="45.47366" lon="4.01451">
        <ele>1115</ele>
        <time>2016-04-25T09:02:05Z</time>
      </trkpt>
      <trkpt lat="45.4737" lon="4.01433">
        <ele>1116</ele>
        <time>2016-04-25T09:02:55Z</time>
      </trkpt>
      <trkpt lat="45.47398" lon="4.01395">
        <ele>1121</ele>
        <time>2016-04-25T09:03:31Z</time>
      </trkpt>
      <trkpt lat="45.47427" lon="4.01337">
        <ele>1123</ele>
        <time>2016-04-25T09:04:24Z</time>
      </trkpt>
      <trkpt lat="45.47427" lon="4.01323">
        <ele>1124</ele>
        <time>2016-04-25T09:04:35Z</time>
      </trkpt>
      <trkpt lat="45.47436" lon="4.01293">
        <ele>1128</ele>
        <time>2016-04-25T09:05:16Z</time>
      </trkpt>
      <trkpt lat="45.47436" lon="4.01287">
        <ele>1129</ele>
        <time>2016-04-25T09:05:24Z</time>
      </trkpt>
      <trkpt lat="45.47437" lon="4.0128">
        <ele>1130</ele>
        <time>2016-04-25T09:05:31Z</time>
      </trkpt>
      <trkpt lat="45.47443" lon="4.0126">
        <ele>1132</ele>
        <time>2016-04-25T09:05:49Z</time>
      </trkpt>
      <trkpt lat="45.47447" lon="4.01256">
        <ele>1133</ele>
        <time>2016-04-25T09:05:56Z</time>
      </trkpt>
      <trkpt lat="45.47448" lon="4.01242">
        <ele>1135</ele>
        <time>2016-04-25T09:06:08Z</time>
      </trkpt>
      <trkpt lat="45.4745" lon="4.01236">
        <ele>1136</ele>
        <time>2016-04-25T09:06:14Z</time>
      </trkpt>
      <trkpt lat="45.47449" lon="4.01229">
        <ele>1136</ele>
        <time>2016-04-25T09:06:21Z</time>
      </trkpt>
      <trkpt lat="45.47464" lon="4.01193">
        <ele>1140</ele>
        <time>2016-04-25T09:06:54Z</time>
      </trkpt>
      <trkpt lat="45.47473" lon="4.01181">
        <ele>1141</ele>
        <time>2016-04-25T09:07:14Z</time>
      </trkpt>
      <trkpt lat="45.47471" lon="4.01179">
        <ele>1141</ele>
        <time>2016-04-25T09:07:20Z</time>
      </trkpt>
      <trkpt lat="45.47473" lon="4.01173">
        <ele>1142</ele>
        <time>2016-04-25T09:07:27Z</time>
      </trkpt>
      <trkpt lat="45.47486" lon="4.01156">
        <ele>1142</ele>
        <time>2016-04-25T09:08:00Z</time>
      </trkpt>
      <trkpt lat="45.47515" lon="4.01131">
        <ele>1142</ele>
        <time>2016-04-25T09:08:31Z</time>
      </trkpt>
      <trkpt lat="45.47538" lon="4.01094">
        <ele>1143</ele>
        <time>2016-04-25T09:09:01Z</time>
      </trkpt>
      <trkpt lat="45.47568" lon="4.01062">
        <ele>1143</ele>
        <time>2016-04-25T09:09:36Z</time>
      </trkpt>
      <trkpt lat="45.47578" lon="4.01061">
        <ele>1143</ele>
        <time>2016-04-25T09:09:42Z</time>
      </trkpt>
      <trkpt lat="45.47582" lon="4.01051">
        <ele>1143</ele>
        <time>2016-04-25T09:10:00Z</time>
      </trkpt>
      <trkpt lat="45.47566" lon="4.00999">
        <ele>1149</ele>
        <time>2016-04-25T09:10:54Z</time>
      </trkpt>
      <trkpt lat="45.47563" lon="4.00973">
        <ele>1151</ele>
        <time>2016-04-25T09:11:12Z</time>
      </trkpt>
      <trkpt lat="45.47545" lon="4.00922">
        <ele>1155</ele>
        <time>2016-04-25T09:12:23Z</time>
      </trkpt>
      <trkpt lat="45.47509" lon="4.00877">
        <ele>1156</ele>
        <time>2016-04-25T09:13:05Z</time>
      </trkpt>
      <trkpt lat="45.47501" lon="4.0087">
        <ele>1157</ele>
        <time>2016-04-25T09:13:17Z</time>
      </trkpt>
      <trkpt lat="45.47497" lon="4.00857">
        <ele>1157</ele>
        <time>2016-04-25T09:13:26Z</time>
      </trkpt>
      <trkpt lat="45.47497" lon="4.00844">
        <ele>1158</ele>
        <time>2016-04-25T09:13:45Z</time>
      </trkpt>
      <trkpt lat="45.47493" lon="4.00818">
        <ele>1159</ele>
        <time>2016-04-25T09:14:01Z</time>
      </trkpt>
      <trkpt lat="45.4748" lon="4.00799">
        <ele>1160</ele>
        <time>2016-04-25T09:14:20Z</time>
      </trkpt>
      <trkpt lat="45.47469" lon="4.00763">
        <ele>1163</ele>
        <time>2016-04-25T09:14:57Z</time>
      </trkpt>
      <trkpt lat="45.47463" lon="4.00753">
        <ele>1164</ele>
        <time>2016-04-25T09:15:05Z</time>
      </trkpt>
      <trkpt lat="45.4746" lon="4.00739">
        <ele>1165</ele>
        <time>2016-04-25T09:15:15Z</time>
      </trkpt>
      <trkpt lat="45.47439" lon="4.00696">
        <ele>1166</ele>
        <time>2016-04-25T09:15:49Z</time>
      </trkpt>
      <trkpt lat="45.47425" lon="4.00655">
        <ele>1168</ele>
        <time>2016-04-25T09:16:27Z</time>
      </trkpt>
      <trkpt lat="45.4742" lon="4.00626">
        <ele>1169</ele>
        <time>2016-04-25T09:18:18Z</time>
      </trkpt>
      <trkpt lat="45.47419" lon="4.00583">
        <ele>1171</ele>
        <time>2016-04-25T09:18:48Z</time>
      </trkpt>
      <trkpt lat="45.47421" lon="4.00575">
        <ele>1171</ele>
        <time>2016-04-25T09:18:52Z</time>
      </trkpt>
      <trkpt lat="45.47416" lon="4.00516">
        <ele>1172</ele>
        <time>2016-04-25T09:19:25Z</time>
      </trkpt>
      <trkpt lat="45.47403" lon="4.00471">
        <ele>1171</ele>
        <time>2016-04-25T09:19:54Z</time>
      </trkpt>
      <trkpt lat="45.47397" lon="4.00436">
        <ele>1168</ele>
        <time>2016-04-25T09:20:18Z</time>
      </trkpt>
      <trkpt lat="45.4739" lon="4.00415">
        <ele>1168</ele>
        <time>2016-04-25T09:20:34Z</time>
      </trkpt>
      <trkpt lat="45.47391" lon="4.00394">
        <ele>1167</ele>
        <time>2016-04-25T09:20:53Z</time>
      </trkpt>
      <trkpt lat="45.47395" lon="4.00391">
        <ele>1166</ele>
        <time>2016-04-25T09:20:59Z</time>
      </trkpt>
      <trkpt lat="45.47404" lon="4.00381">
        <ele>1167</ele>
        <time>2016-04-25T09:21:29Z</time>
      </trkpt>
      <trkpt lat="45.47414" lon="4.00357">
        <ele>1166</ele>
        <time>2016-04-25T09:22:02Z</time>
      </trkpt>
      <trkpt lat="45.47429" lon="4.0035">
        <ele>1166</ele>
        <time>2016-04-25T09:22:15Z</time>
      </trkpt>
      <trkpt lat="45.47439" lon="4.00337">
        <ele>1166</ele>
        <time>2016-04-25T09:22:26Z</time>
      </trkpt>
      <trkpt lat="45.47437" lon="4.00332">
        <ele>1166</ele>
        <time>2016-04-25T09:22:54Z</time>
      </trkpt>
      <trkpt lat="45.47398" lon="4.00335">
        <ele>1162</ele>
        <time>2016-04-25T09:23:28Z</time>
      </trkpt>
      <trkpt lat="45.47393" lon="4.00337">
        <ele>1162</ele>
        <time>2016-04-25T09:23:33Z</time>
      </trkpt>
      <trkpt lat="45.47355" lon="4.00322">
        <ele>1161</ele>
        <time>2016-04-25T09:24:02Z</time>
      </trkpt>
      <trkpt lat="45.47347" lon="4.00316">
        <ele>1161</ele>
        <time>2016-04-25T09:24:14Z</time>
      </trkpt>
      <trkpt lat="45.47317" lon="4.00283">
        <ele>1160</ele>
        <time>2016-04-25T09:24:50Z</time>
      </trkpt>
      <trkpt lat="45.47283" lon="4.0026">
        <ele>1158</ele>
        <time>2016-04-25T09:25:19Z</time>
      </trkpt>
      <trkpt lat="45.47275" lon="4.00251">
        <ele>1157</ele>
        <time>2016-04-25T09:25:32Z</time>
      </trkpt>
      <trkpt lat="45.47244" lon="4.00221">
        <ele>1154</ele>
        <time>2016-04-25T09:26:07Z</time>
      </trkpt>
      <trkpt lat="45.47236" lon="4.00215">
        <ele>1153</ele>
        <time>2016-04-25T09:26:16Z</time>
      </trkpt>
      <trkpt lat="45.47198" lon="4.00161">
        <ele>1148</ele>
        <time>2016-04-25T09:27:27Z</time>
      </trkpt>
      <trkpt lat="45.47194" lon="4.00155">
        <ele>1148</ele>
        <time>2016-04-25T09:27:35Z</time>
      </trkpt>
      <trkpt lat="45.47192" lon="4.00153">
        <ele>1148</ele>
        <time>2016-04-25T09:27:42Z</time>
      </trkpt>
      <trkpt lat="45.47175" lon="4.00152">
        <ele>1148</ele>
        <time>2016-04-25T09:28:02Z</time>
      </trkpt>
      <trkpt lat="45.47161" lon="4.00143">
        <ele>1147</ele>
        <time>2016-04-25T09:28:15Z</time>
      </trkpt>
      <trkpt lat="45.47089" lon="4.00118">
        <ele>1144</ele>
        <time>2016-04-25T09:29:22Z</time>
      </trkpt>
      <trkpt lat="45.47089" lon="4.0012">
        <ele>1144</ele>
        <time>2016-04-25T09:29:38Z</time>
      </trkpt>
      <trkpt lat="45.47074" lon="4.0012">
        <ele>1143</ele>
        <time>2016-04-25T09:29:55Z</time>
      </trkpt>
      <trkpt lat="45.4707" lon="4.00116">
        <ele>1143</ele>
        <time>2016-04-25T09:29:59Z</time>
      </trkpt>
      <trkpt lat="45.47056" lon="4.00114">
        <ele>1143</ele>
        <time>2016-04-25T09:30:15Z</time>
      </trkpt>
      <trkpt lat="45.47053" lon="4.00115">
        <ele>1143</ele>
        <time>2016-04-25T09:30:27Z</time>
      </trkpt>
      <trkpt lat="45.46983" lon="4.00093">
        <ele>1142</ele>
        <time>2016-04-25T09:31:58Z</time>
      </trkpt>
      <trkpt lat="45.4698" lon="4.0009">
        <ele>1142</ele>
        <time>2016-04-25T09:32:07Z</time>
      </trkpt>
      <trkpt lat="45.46975" lon="4.00089">
        <ele>1141</ele>
        <time>2016-04-25T09:32:12Z</time>
      </trkpt>
      <trkpt lat="45.46928" lon="4.00041">
        <ele>1139</ele>
        <time>2016-04-25T09:33:14Z</time>
      </trkpt>
      <trkpt lat="45.46894" lon="4.00011">
        <ele>1137</ele>
        <time>2016-04-25T09:33:49Z</time>
      </trkpt>
      <trkpt lat="45.46883" lon="3.99997">
        <ele>1137</ele>
        <time>2016-04-25T09:34:06Z</time>
      </trkpt>
      <trkpt lat="45.46868" lon="3.99989">
        <ele>1136</ele>
        <time>2016-04-25T09:34:16Z</time>
      </trkpt>
      <trkpt lat="45.46844" lon="3.99964">
        <ele>1136</ele>
        <time>2016-04-25T09:34:48Z</time>
      </trkpt>
      <trkpt lat="45.4682" lon="3.99949">
        <ele>1137</ele>
        <time>2016-04-25T09:35:11Z</time>
      </trkpt>
      <trkpt lat="45.46808" lon="3.99923">
        <ele>1136</ele>
        <time>2016-04-25T09:35:28Z</time>
      </trkpt>
      <trkpt lat="45.46782" lon="3.99902">
        <ele>1134</ele>
        <time>2016-04-25T09:35:52Z</time>
      </trkpt>
      <trkpt lat="45.46741" lon="3.99862">
        <ele>1132</ele>
        <time>2016-04-25T09:36:39Z</time>
      </trkpt>
      <trkpt lat="45.46737" lon="3.9986">
        <ele>1132</ele>
        <time>2016-04-25T09:36:43Z</time>
      </trkpt>
      <trkpt lat="45.46693" lon="3.99807">
        <ele>1129</ele>
        <time>2016-04-25T09:37:49Z</time>
      </trkpt>
      <trkpt lat="45.46656" lon="3.99782">
        <ele>1126</ele>
        <time>2016-04-25T09:38:22Z</time>
      </trkpt>
      <trkpt lat="45.46615" lon="3.99776">
        <ele>1126</ele>
        <time>2016-04-25T09:38:54Z</time>
      </trkpt>
      <trkpt lat="45.46575" lon="3.99761">
        <ele>1125</ele>
        <time>2016-04-25T09:39:25Z</time>
      </trkpt>
      <trkpt lat="45.46541" lon="3.9976">
        <ele>1125</ele>
        <time>2016-04-25T09:39:55Z</time>
      </trkpt>
      <trkpt lat="45.465" lon="3.99747">
        <ele>1124</ele>
        <time>2016-04-25T09:40:28Z</time>
      </trkpt>
      <trkpt lat="45.46464" lon="3.99742">
        <ele>1123</ele>
        <time>2016-04-25T09:40:58Z</time>
      </trkpt>
      <trkpt lat="45.46425" lon="3.99728">
        <ele>1122</ele>
        <time>2016-04-25T09:41:31Z</time>
      </trkpt>
      <trkpt lat="45.46385" lon="3.99722">
        <ele>1122</ele>
        <time>2016-04-25T09:42:04Z</time>
      </trkpt>
      <trkpt lat="45.46349" lon="3.99712">
        <ele>1123</ele>
        <time>2016-04-25T09:42:35Z</time>
      </trkpt>
      <trkpt lat="45.46344" lon="3.99709">
        <ele>1123</ele>
        <time>2016-04-25T09:42:39Z</time>
      </trkpt>
      <trkpt lat="45.46298" lon="3.99699">
        <ele>1124</ele>
        <time>2016-04-25T09:43:16Z</time>
      </trkpt>
      <trkpt lat="45.46223" lon="3.99705">
        <ele>1125</ele>
        <time>2016-04-25T09:44:21Z</time>
      </trkpt>
      <trkpt lat="45.46115" lon="3.99757">
        <ele>1131</ele>
        <time>2016-04-25T09:46:00Z</time>
      </trkpt>
      <trkpt lat="45.4611" lon="3.9976">
        <ele>1131</ele>
        <time>2016-04-25T09:46:05Z</time>
      </trkpt>
      <trkpt lat="45.46105" lon="3.9976">
        <ele>1131</ele>
        <time>2016-04-25T09:46:10Z</time>
      </trkpt>
      <trkpt lat="45.46098" lon="3.99755">
        <ele>1131</ele>
        <time>2016-04-25T09:46:23Z</time>
      </trkpt>
      <trkpt lat="45.46099" lon="3.99751">
        <ele>1132</ele>
        <time>2016-04-25T09:46:56Z</time>
      </trkpt>
      <trkpt lat="45.46074" lon="3.99706">
        <ele>1133</ele>
        <time>2016-04-25T09:47:55Z</time>
      </trkpt>
      <trkpt lat="45.4601" lon="3.99662">
        <ele>1136</ele>
        <time>2016-04-25T09:48:57Z</time>
      </trkpt>
      <trkpt lat="45.45988" lon="3.99639">
        <ele>1137</ele>
        <time>2016-04-25T09:49:37Z</time>
      </trkpt>
      <trkpt lat="45.45984" lon="3.99633">
        <ele>1136</ele>
        <time>2016-04-25T09:49:41Z</time>
      </trkpt>
      <trkpt lat="45.45941" lon="3.99587">
        <ele>1141</ele>
        <time>2016-04-25T09:50:34Z</time>
      </trkpt>
      <trkpt lat="45.45946" lon="3.99568">
        <ele>1142</ele>
        <time>2016-04-25T09:50:51Z</time>
      </trkpt>
      <trkpt lat="45.45942" lon="3.99574">
        <ele>1142</ele>
        <time>2016-04-25T09:51:33Z</time>
      </trkpt>
      <trkpt lat="45.45942" lon="3.99578">
        <ele>1142</ele>
        <time>2016-04-25T09:51:39Z</time>
      </trkpt>
      <trkpt lat="45.45924" lon="3.99616">
        <ele>1141</ele>
        <time>2016-04-25T09:52:17Z</time>
      </trkpt>
      <trkpt lat="45.45925" lon="3.99626">
        <ele>1142</ele>
        <time>2016-04-25T09:52:37Z</time>
      </trkpt>
      <trkpt lat="45.45931" lon="3.99625">
        <ele>1142</ele>
        <time>2016-04-25T09:53:07Z</time>
      </trkpt>
      <trkpt lat="45.4593" lon="3.99613">
        <ele>1142</ele>
        <time>2016-04-25T09:53:51Z</time>
      </trkpt>
      <trkpt lat="45.45936" lon="3.99599">
        <ele>1141</ele>
        <time>2016-04-25T09:54:03Z</time>
      </trkpt>
      <trkpt lat="45.45932" lon="3.99586">
        <ele>1144</ele>
        <time>2016-04-25T09:54:48Z</time>
      </trkpt>
      <trkpt lat="45.45928" lon="3.99583">
        <ele>1145</ele>
        <time>2016-04-25T09:54:57Z</time>
      </trkpt>
      <trkpt lat="45.4593" lon="3.99587">
        <ele>1145</ele>
        <time>2016-04-25T09:55:27Z</time>
      </trkpt>
      <trkpt lat="45.45928" lon="3.99591">
        <ele>1144</ele>
        <time>2016-04-25T09:55:49Z</time>
      </trkpt>
      <trkpt lat="45.45926" lon="3.99593">
        <ele>1143</ele>
        <time>2016-04-25T09:56:11Z</time>
      </trkpt>
      <trkpt lat="45.45891" lon="3.99609">
        <ele>1142</ele>
        <time>2016-04-25T09:56:44Z</time>
      </trkpt>
      <trkpt lat="45.45885" lon="3.99608">
        <ele>1142</ele>
        <time>2016-04-25T09:56:49Z</time>
      </trkpt>
      <trkpt lat="45.45876" lon="3.99602">
        <ele>1142</ele>
        <time>2016-04-25T09:56:58Z</time>
      </trkpt>
      <trkpt lat="45.45847" lon="3.99594">
        <ele>1143</ele>
        <time>2016-04-25T09:57:30Z</time>
      </trkpt>
      <trkpt lat="45.45837" lon="3.9959">
        <ele>1143</ele>
        <time>2016-04-25T09:57:40Z</time>
      </trkpt>
      <trkpt lat="45.45813" lon="3.99577">
        <ele>1139</ele>
        <time>2016-04-25T09:58:10Z</time>
      </trkpt>
      <trkpt lat="45.45807" lon="3.99567">
        <ele>1138</ele>
        <time>2016-04-25T09:58:18Z</time>
      </trkpt>
      <trkpt lat="45.45804" lon="3.99552">
        <ele>1138</ele>
        <time>2016-04-25T09:58:28Z</time>
      </trkpt>
      <trkpt lat="45.45802" lon="3.99549">
        <ele>1139</ele>
        <time>2016-04-25T09:58:57Z</time>
      </trkpt>
      <trkpt lat="45.45802" lon="3.99545">
        <ele>1140</ele>
        <time>2016-04-25T09:59:11Z</time>
      </trkpt>
      <trkpt lat="45.45798" lon="3.99542">
        <ele>1139</ele>
        <time>2016-04-25T09:59:52Z</time>
      </trkpt>
      <trkpt lat="45.45796" lon="3.99536">
        <ele>1139</ele>
        <time>2016-04-25T09:59:56Z</time>
      </trkpt>
      <trkpt lat="45.45795" lon="3.99529">
        <ele>1138</ele>
        <time>2016-04-25T10:00:01Z</time>
      </trkpt>
      <trkpt lat="45.45798" lon="3.99526">
        <ele>1138</ele>
        <time>2016-04-25T10:00:18Z</time>
      </trkpt>
      <trkpt lat="45.45801" lon="3.99518">
        <ele>1137</ele>
        <time>2016-04-25T10:01:45Z</time>
      </trkpt>
      <trkpt lat="45.458" lon="3.99511">
        <ele>1137</ele>
        <time>2016-04-25T10:01:50Z</time>
      </trkpt>
      <trkpt lat="45.458" lon="3.99496">
        <ele>1137</ele>
        <time>2016-04-25T10:02:01Z</time>
      </trkpt>
      <trkpt lat="45.45804" lon="3.99471">
        <ele>1137</ele>
        <time>2016-04-25T10:02:23Z</time>
      </trkpt>
      <trkpt lat="45.45818" lon="3.9948">
        <ele>1139</ele>
        <time>2016-04-25T10:02:48Z</time>
      </trkpt>
      <trkpt lat="45.45831" lon="3.99482">
        <ele>1143</ele>
        <time>2016-04-25T10:03:12Z</time>
      </trkpt>
      <trkpt lat="45.45831" lon="3.99475">
        <ele>1144</ele>
        <time>2016-04-25T10:03:21Z</time>
      </trkpt>
      <trkpt lat="45.45833" lon="3.99488">
        <ele>1145</ele>
        <time>2016-04-25T10:04:10Z</time>
      </trkpt>
      <trkpt lat="45.45836" lon="3.99494">
        <ele>1146</ele>
        <time>2016-04-25T10:04:33Z</time>
      </trkpt>
      <trkpt lat="45.45843" lon="3.99518">
        <ele>1148</ele>
        <time>2016-04-25T10:05:00Z</time>
      </trkpt>
      <trkpt lat="45.45837" lon="3.99533">
        <ele>1149</ele>
        <time>2016-04-25T10:05:11Z</time>
      </trkpt>
      <trkpt lat="45.45835" lon="3.99539">
        <ele>1149</ele>
        <time>2016-04-25T10:05:20Z</time>
      </trkpt>
      <trkpt lat="45.45837" lon="3.9954">
        <ele>1150</ele>
        <time>2016-04-25T10:08:17Z</time>
      </trkpt>
      <trkpt lat="45.45841" lon="3.99538">
        <ele>1150</ele>
        <time>2016-04-25T10:08:41Z</time>
      </trkpt>
      <trkpt lat="45.45843" lon="3.9954">
        <ele>1150</ele>
        <time>2016-04-25T10:08:56Z</time>
      </trkpt>
      <trkpt lat="45.45846" lon="3.99536">
        <ele>1153</ele>
        <time>2016-04-25T10:12:00Z</time>
      </trkpt>
      <trkpt lat="45.45855" lon="3.99546">
        <ele>1154</ele>
        <time>2016-04-25T10:12:52Z</time>
      </trkpt>
      <trkpt lat="45.45853" lon="3.99578">
        <ele>1154</ele>
        <time>2016-04-25T10:13:24Z</time>
      </trkpt>
      <trkpt lat="45.45843" lon="3.9955">
        <ele>1154</ele>
        <time>2016-04-25T10:14:38Z</time>
      </trkpt>
      <trkpt lat="45.45841" lon="3.9954">
        <ele>1153</ele>
        <time>2016-04-25T10:20:36Z</time>
      </trkpt>
      <trkpt lat="45.45842" lon="3.99542">
        <ele>1156</ele>
        <time>2016-04-25T10:32:48Z</time>
      </trkpt>
      <trkpt lat="45.45839" lon="3.99544">
        <ele>1155</ele>
        <time>2016-04-25T10:33:07Z</time>
      </trkpt>
      <trkpt lat="45.45839" lon="3.99529">
        <ele>1155</ele>
        <time>2016-04-25T10:33:16Z</time>
      </trkpt>
      <trkpt lat="45.45841" lon="3.99523">
        <ele>1151</ele>
        <time>2016-04-25T10:33:21Z</time>
      </trkpt>
      <trkpt lat="45.45839" lon="3.99508">
        <ele>1150</ele>
        <time>2016-04-25T10:33:31Z</time>
      </trkpt>
      <trkpt lat="45.45837" lon="3.99502">
        <ele>1150</ele>
        <time>2016-04-25T10:33:35Z</time>
      </trkpt>
      <trkpt lat="45.45829" lon="3.99482">
        <ele>1148</ele>
        <time>2016-04-25T10:33:51Z</time>
      </trkpt>
      <trkpt lat="45.4582" lon="3.99481">
        <ele>1147</ele>
        <time>2016-04-25T10:34:02Z</time>
      </trkpt>
      <trkpt lat="45.45805" lon="3.99476">
        <ele>1144</ele>
        <time>2016-04-25T10:34:17Z</time>
      </trkpt>
      <trkpt lat="45.45803" lon="3.99473">
        <ele>1142</ele>
        <time>2016-04-25T10:35:43Z</time>
      </trkpt>
      <trkpt lat="45.458" lon="3.99477">
        <ele>1142</ele>
        <time>2016-04-25T10:35:59Z</time>
      </trkpt>
      <trkpt lat="45.45796" lon="3.99482">
        <ele>1141</ele>
        <time>2016-04-25T10:36:06Z</time>
      </trkpt>
      <trkpt lat="45.45791" lon="3.99493">
        <ele>1138</ele>
        <time>2016-04-25T10:36:50Z</time>
      </trkpt>
      <trkpt lat="45.45787" lon="3.99497">
        <ele>1138</ele>
        <time>2016-04-25T10:36:57Z</time>
      </trkpt>
      <trkpt lat="45.45783" lon="3.99509">
        <ele>1136</ele>
        <time>2016-04-25T10:37:10Z</time>
      </trkpt>
      <trkpt lat="45.45778" lon="3.99507">
        <ele>1136</ele>
        <time>2016-04-25T10:37:20Z</time>
      </trkpt>
      <trkpt lat="45.45772" lon="3.99496">
        <ele>1133</ele>
        <time>2016-04-25T10:37:28Z</time>
      </trkpt>
      <trkpt lat="45.45758" lon="3.99462">
        <ele>1126</ele>
        <time>2016-04-25T10:38:04Z</time>
      </trkpt>
      <trkpt lat="45.45747" lon="3.99417">
        <ele>1121</ele>
        <time>2016-04-25T10:38:36Z</time>
      </trkpt>
      <trkpt lat="45.45745" lon="3.99411">
        <ele>1121</ele>
        <time>2016-04-25T10:38:43Z</time>
      </trkpt>
      <trkpt lat="45.4574" lon="3.99412">
        <ele>1120</ele>
        <time>2016-04-25T10:38:50Z</time>
      </trkpt>
      <trkpt lat="45.45724" lon="3.99427">
        <ele>1117</ele>
        <time>2016-04-25T10:39:08Z</time>
      </trkpt>
      <trkpt lat="45.45714" lon="3.99439">
        <ele>1116</ele>
        <time>2016-04-25T10:39:24Z</time>
      </trkpt>
      <trkpt lat="45.457" lon="3.99443">
        <ele>1113</ele>
        <time>2016-04-25T10:39:43Z</time>
      </trkpt>
      <trkpt lat="45.457" lon="3.99448">
        <ele>1112</ele>
        <time>2016-04-25T10:39:50Z</time>
      </trkpt>
      <trkpt lat="45.45688" lon="3.99486">
        <ele>1108</ele>
        <time>2016-04-25T10:40:39Z</time>
      </trkpt>
      <trkpt lat="45.45663" lon="3.99627">
        <ele>1095</ele>
        <time>2016-04-25T10:42:14Z</time>
      </trkpt>
      <trkpt lat="45.45655" lon="3.99633">
        <ele>1093</ele>
        <time>2016-04-25T10:42:22Z</time>
      </trkpt>
      <trkpt lat="45.45653" lon="3.99638">
        <ele>1093</ele>
        <time>2016-04-25T10:42:26Z</time>
      </trkpt>
      <trkpt lat="45.45648" lon="3.99677">
        <ele>1088</ele>
        <time>2016-04-25T10:42:49Z</time>
      </trkpt>
      <trkpt lat="45.45644" lon="3.99679">
        <ele>1086</ele>
        <time>2016-04-25T10:42:58Z</time>
      </trkpt>
      <trkpt lat="45.45641" lon="3.99674">
        <ele>1086</ele>
        <time>2016-04-25T10:43:08Z</time>
      </trkpt>
      <trkpt lat="45.45609" lon="3.99641">
        <ele>1076</ele>
        <time>2016-04-25T10:43:41Z</time>
      </trkpt>
      <trkpt lat="45.45596" lon="3.99631">
        <ele>1074</ele>
        <time>2016-04-25T10:43:54Z</time>
      </trkpt>
      <trkpt lat="45.45587" lon="3.99633">
        <ele>1073</ele>
        <time>2016-04-25T10:44:02Z</time>
      </trkpt>
      <trkpt lat="45.45563" lon="3.99669">
        <ele>1069</ele>
        <time>2016-04-25T10:44:34Z</time>
      </trkpt>
      <trkpt lat="45.45538" lon="3.99685">
        <ele>1065</ele>
        <time>2016-04-25T10:45:05Z</time>
      </trkpt>
      <trkpt lat="45.45519" lon="3.99688">
        <ele>1060</ele>
        <time>2016-04-25T10:45:29Z</time>
      </trkpt>
      <trkpt lat="45.45508" lon="3.99696">
        <ele>1058</ele>
        <time>2016-04-25T10:45:47Z</time>
      </trkpt>
      <trkpt lat="45.45477" lon="3.99691">
        <ele>1053</ele>
        <time>2016-04-25T10:46:18Z</time>
      </trkpt>
      <trkpt lat="45.45463" lon="3.99692">
        <ele>1048</ele>
        <time>2016-04-25T10:47:06Z</time>
      </trkpt>
      <trkpt lat="45.45458" lon="3.99694">
        <ele>1048</ele>
        <time>2016-04-25T10:47:10Z</time>
      </trkpt>
      <trkpt lat="45.45421" lon="3.99716">
        <ele>1043</ele>
        <time>2016-04-25T10:47:49Z</time>
      </trkpt>
      <trkpt lat="45.45423" lon="3.99712">
        <ele>1043</ele>
        <time>2016-04-25T10:47:58Z</time>
      </trkpt>
      <trkpt lat="45.4542" lon="3.9971">
        <ele>1043</ele>
        <time>2016-04-25T10:48:24Z</time>
      </trkpt>
      <trkpt lat="45.45415" lon="3.99709">
        <ele>1043</ele>
        <time>2016-04-25T10:48:28Z</time>
      </trkpt>
      <trkpt lat="45.45376" lon="3.99693">
        <ele>1037</ele>
        <time>2016-04-25T10:49:00Z</time>
      </trkpt>
      <trkpt lat="45.45356" lon="3.99687">
        <ele>1034</ele>
        <time>2016-04-25T10:49:17Z</time>
      </trkpt>
      <trkpt lat="45.45356" lon="3.99672">
        <ele>1034</ele>
        <time>2016-04-25T10:49:40Z</time>
      </trkpt>
      <trkpt lat="45.45353" lon="3.9965">
        <ele>1032</ele>
        <time>2016-04-25T10:49:52Z</time>
      </trkpt>
      <trkpt lat="45.45345" lon="3.99641">
        <ele>1029</ele>
        <time>2016-04-25T10:50:01Z</time>
      </trkpt>
      <trkpt lat="45.45306" lon="3.99635">
        <ele>1025</ele>
        <time>2016-04-25T10:50:35Z</time>
      </trkpt>
      <trkpt lat="45.45294" lon="3.99623">
        <ele>1024</ele>
        <time>2016-04-25T10:50:47Z</time>
      </trkpt>
      <trkpt lat="45.4529" lon="3.99586">
        <ele>1020</ele>
        <time>2016-04-25T10:51:22Z</time>
      </trkpt>
      <trkpt lat="45.45325" lon="3.99422">
        <ele>1012</ele>
        <time>2016-04-25T10:53:02Z</time>
      </trkpt>
      <trkpt lat="45.45328" lon="3.99414">
        <ele>1011</ele>
        <time>2016-04-25T10:53:07Z</time>
      </trkpt>
      <trkpt lat="45.45328" lon="3.99379">
        <ele>1009</ele>
        <time>2016-04-25T10:53:28Z</time>
      </trkpt>
      <trkpt lat="45.4531" lon="3.99305">
        <ele>1006</ele>
        <time>2016-04-25T10:54:13Z</time>
      </trkpt>
      <trkpt lat="45.45308" lon="3.99299">
        <ele>1006</ele>
        <time>2016-04-25T10:54:17Z</time>
      </trkpt>
      <trkpt lat="45.45235" lon="3.9919">
        <ele>992</ele>
        <time>2016-04-25T10:55:48Z</time>
      </trkpt>
      <trkpt lat="45.45233" lon="3.99183">
        <ele>991</ele>
        <time>2016-04-25T10:55:52Z</time>
      </trkpt>
      <trkpt lat="45.4523" lon="3.99141">
        <ele>988</ele>
        <time>2016-04-25T10:56:16Z</time>
      </trkpt>
      <trkpt lat="45.45248" lon="3.99078">
        <ele>979</ele>
        <time>2016-04-25T10:57:17Z</time>
      </trkpt>
      <trkpt lat="45.45251" lon="3.99072">
        <ele>978</ele>
        <time>2016-04-25T10:57:22Z</time>
      </trkpt>
      <trkpt lat="45.45252" lon="3.99065">
        <ele>978</ele>
        <time>2016-04-25T10:57:27Z</time>
      </trkpt>
      <trkpt lat="45.45251" lon="3.9906">
        <ele>977</ele>
        <time>2016-04-25T10:57:35Z</time>
      </trkpt>
      <trkpt lat="45.45247" lon="3.99046">
        <ele>976</ele>
        <time>2016-04-25T10:57:49Z</time>
      </trkpt>
      <trkpt lat="45.45246" lon="3.99036">
        <ele>975</ele>
        <time>2016-04-25T10:58:02Z</time>
      </trkpt>
      <trkpt lat="45.45255" lon="3.99018">
        <ele>974</ele>
        <time>2016-04-25T10:58:30Z</time>
      </trkpt>
      <trkpt lat="45.45256" lon="3.99011">
        <ele>973</ele>
        <time>2016-04-25T10:58:34Z</time>
      </trkpt>
      <trkpt lat="45.45247" lon="3.98964">
        <ele>969</ele>
        <time>2016-04-25T10:59:02Z</time>
      </trkpt>
      <trkpt lat="45.45234" lon="3.98936">
        <ele>967</ele>
        <time>2016-04-25T10:59:22Z</time>
      </trkpt>
      <trkpt lat="45.45205" lon="3.98895">
        <ele>967</ele>
        <time>2016-04-25T10:59:55Z</time>
      </trkpt>
      <trkpt lat="45.45189" lon="3.98852">
        <ele>968</ele>
        <time>2016-04-25T11:00:25Z</time>
      </trkpt>
      <trkpt lat="45.45172" lon="3.98682">
        <ele>975</ele>
        <time>2016-04-25T11:02:08Z</time>
      </trkpt>
      <trkpt lat="45.4517" lon="3.98676">
        <ele>975</ele>
        <time>2016-04-25T11:02:15Z</time>
      </trkpt>
      <trkpt lat="45.45167" lon="3.9868">
        <ele>975</ele>
        <time>2016-04-25T11:02:25Z</time>
      </trkpt>
      <trkpt lat="45.45163" lon="3.98679">
        <ele>975</ele>
        <time>2016-04-25T11:02:34Z</time>
      </trkpt>
      <trkpt lat="45.45133" lon="3.98683">
        <ele>974</ele>
        <time>2016-04-25T11:03:06Z</time>
      </trkpt>
      <trkpt lat="45.45125" lon="3.98677">
        <ele>974</ele>
        <time>2016-04-25T11:03:14Z</time>
      </trkpt>
      <trkpt lat="45.45119" lon="3.98669">
        <ele>974</ele>
        <time>2016-04-25T11:03:36Z</time>
      </trkpt>
      <trkpt lat="45.45114" lon="3.98666">
        <ele>973</ele>
        <time>2016-04-25T11:04:03Z</time>
      </trkpt>
      <trkpt lat="45.4511" lon="3.98668">
        <ele>974</ele>
        <time>2016-04-25T11:11:48Z</time>
      </trkpt>
      <trkpt lat="45.45105" lon="3.98657">
        <ele>973</ele>
        <time>2016-04-25T11:20:58Z</time>
      </trkpt>
      <trkpt lat="45.45108" lon="3.98654">
        <ele>973</ele>
        <time>2016-04-25T11:24:06Z</time>
      </trkpt>
      <trkpt lat="45.45111" lon="3.98657">
        <ele>973</ele>
        <time>2016-04-25T11:24:55Z</time>
      </trkpt>
      <trkpt lat="45.45109" lon="3.98662">
        <ele>973</ele>
        <time>2016-04-25T11:26:11Z</time>
      </trkpt>
      <trkpt lat="45.45107" lon="3.98666">
        <ele>973</ele>
        <time>2016-04-25T11:27:05Z</time>
      </trkpt>
      <trkpt lat="45.45109" lon="3.98669">
        <ele>973</ele>
        <time>2016-04-25T11:27:54Z</time>
      </trkpt>
      <trkpt lat="45.45109" lon="3.98664">
        <ele>973</ele>
        <time>2016-04-25T11:30:38Z</time>
      </trkpt>
      <trkpt lat="45.45108" lon="3.98656">
        <ele>974</ele>
        <time>2016-04-25T11:31:26Z</time>
      </trkpt>
      <trkpt lat="45.45104" lon="3.98653">
        <ele>975</ele>
        <time>2016-04-25T11:31:31Z</time>
      </trkpt>
      <trkpt lat="45.45099" lon="3.98651">
        <ele>975</ele>
        <time>2016-04-25T11:31:38Z</time>
      </trkpt>
      <trkpt lat="45.45074" lon="3.98663">
        <ele>971</ele>
        <time>2016-04-25T11:32:10Z</time>
      </trkpt>
      <trkpt lat="45.45041" lon="3.98684">
        <ele>969</ele>
        <time>2016-04-25T11:32:42Z</time>
      </trkpt>
      <trkpt lat="45.45015" lon="3.98719">
        <ele>970</ele>
        <time>2016-04-25T11:33:14Z</time>
      </trkpt>
      <trkpt lat="45.4501" lon="3.98723">
        <ele>970</ele>
        <time>2016-04-25T11:33:19Z</time>
      </trkpt>
      <trkpt lat="45.44932" lon="3.9877">
        <ele>971</ele>
        <time>2016-04-25T11:34:41Z</time>
      </trkpt>
      <trkpt lat="45.44928" lon="3.98772">
        <ele>970</ele>
        <time>2016-04-25T11:34:47Z</time>
      </trkpt>
      <trkpt lat="45.44922" lon="3.98776">
        <ele>970</ele>
        <time>2016-04-25T11:34:59Z</time>
      </trkpt>
      <trkpt lat="45.44892" lon="3.98777">
        <ele>970</ele>
        <time>2016-04-25T11:35:36Z</time>
      </trkpt>
      <trkpt lat="45.44893" lon="3.9878">
        <ele>970</ele>
        <time>2016-04-25T11:37:12Z</time>
      </trkpt>
      <trkpt lat="45.44887" lon="3.98784">
        <ele>970</ele>
        <time>2016-04-25T11:37:55Z</time>
      </trkpt>
      <trkpt lat="45.44885" lon="3.98791">
        <ele>971</ele>
        <time>2016-04-25T11:38:15Z</time>
      </trkpt>
      <trkpt lat="45.4488" lon="3.98797">
        <ele>970</ele>
        <time>2016-04-25T11:38:26Z</time>
      </trkpt>
      <trkpt lat="45.44874" lon="3.9881">
        <ele>971</ele>
        <time>2016-04-25T11:38:35Z</time>
      </trkpt>
      <trkpt lat="45.44861" lon="3.98829">
        <ele>971</ele>
        <time>2016-04-25T11:39:04Z</time>
      </trkpt>
      <trkpt lat="45.44857" lon="3.98833">
        <ele>970</ele>
        <time>2016-04-25T11:39:09Z</time>
      </trkpt>
      <trkpt lat="45.44853" lon="3.98838">
        <ele>970</ele>
        <time>2016-04-25T11:39:15Z</time>
      </trkpt>
      <trkpt lat="45.44848" lon="3.98851">
        <ele>971</ele>
        <time>2016-04-25T11:39:23Z</time>
      </trkpt>
      <trkpt lat="45.44803" lon="3.99028">
        <ele>982</ele>
        <time>2016-04-25T11:41:58Z</time>
      </trkpt>
      <trkpt lat="45.44789" lon="3.99067">
        <ele>991</ele>
        <time>2016-04-25T11:42:27Z</time>
      </trkpt>
      <trkpt lat="45.44779" lon="3.99084">
        <ele>989</ele>
        <time>2016-04-25T11:42:59Z</time>
      </trkpt>
      <trkpt lat="45.44759" lon="3.99104">
        <ele>992</ele>
        <time>2016-04-25T11:43:27Z</time>
      </trkpt>
      <trkpt lat="45.44754" lon="3.99104">
        <ele>993</ele>
        <time>2016-04-25T11:43:32Z</time>
      </trkpt>
      <trkpt lat="45.44664" lon="3.99066">
        <ele>1008</ele>
        <time>2016-04-25T11:45:41Z</time>
      </trkpt>
      <trkpt lat="45.44626" lon="3.99067">
        <ele>1012</ele>
        <time>2016-04-25T11:46:16Z</time>
      </trkpt>
      <trkpt lat="45.4461" lon="3.99076">
        <ele>1013</ele>
        <time>2016-04-25T11:46:30Z</time>
      </trkpt>
      <trkpt lat="45.44602" lon="3.99092">
        <ele>1013</ele>
        <time>2016-04-25T11:46:40Z</time>
      </trkpt>
      <trkpt lat="45.44593" lon="3.99096">
        <ele>1013</ele>
        <time>2016-04-25T11:46:49Z</time>
      </trkpt>
      <trkpt lat="45.44582" lon="3.99097">
        <ele>1013</ele>
        <time>2016-04-25T11:46:57Z</time>
      </trkpt>
      <trkpt lat="45.44578" lon="3.991">
        <ele>1014</ele>
        <time>2016-04-25T11:47:01Z</time>
      </trkpt>
      <trkpt lat="45.44501" lon="3.99139">
        <ele>1013</ele>
        <time>2016-04-25T11:48:09Z</time>
      </trkpt>
      <trkpt lat="45.44456" lon="3.99152">
        <ele>1012</ele>
        <time>2016-04-25T11:48:44Z</time>
      </trkpt>
      <trkpt lat="45.4444" lon="3.99154">
        <ele>1012</ele>
        <time>2016-04-25T11:48:56Z</time>
      </trkpt>
      <trkpt lat="45.44401" lon="3.99142">
        <ele>1009</ele>
        <time>2016-04-25T11:49:28Z</time>
      </trkpt>
      <trkpt lat="45.44388" lon="3.99131">
        <ele>1008</ele>
        <time>2016-04-25T11:49:39Z</time>
      </trkpt>
      <trkpt lat="45.44385" lon="3.99126">
        <ele>1008</ele>
        <time>2016-04-25T11:49:43Z</time>
      </trkpt>
      <trkpt lat="45.44374" lon="3.99085">
        <ele>1010</ele>
        <time>2016-04-25T11:50:09Z</time>
      </trkpt>
      <trkpt lat="45.44361" lon="3.99065">
        <ele>1009</ele>
        <time>2016-04-25T11:50:21Z</time>
      </trkpt>
      <trkpt lat="45.44357" lon="3.9906">
        <ele>1010</ele>
        <time>2016-04-25T11:50:25Z</time>
      </trkpt>
      <trkpt lat="45.44315" lon="3.99048">
        <ele>1008</ele>
        <time>2016-04-25T11:50:57Z</time>
      </trkpt>
      <trkpt lat="45.4431" lon="3.99045">
        <ele>1008</ele>
        <time>2016-04-25T11:51:01Z</time>
      </trkpt>
      <trkpt lat="45.4428" lon="3.99037">
        <ele>997</ele>
        <time>2016-04-25T11:51:32Z</time>
      </trkpt>
      <trkpt lat="45.44275" lon="3.99037">
        <ele>997</ele>
        <time>2016-04-25T11:51:36Z</time>
      </trkpt>
      <trkpt lat="45.4426" lon="3.99033">
        <ele>998</ele>
        <time>2016-04-25T11:51:49Z</time>
      </trkpt>
      <trkpt lat="45.44246" lon="3.99027">
        <ele>1004</ele>
        <time>2016-04-25T11:52:02Z</time>
      </trkpt>
      <trkpt lat="45.44203" lon="3.99023">
        <ele>1005</ele>
        <time>2016-04-25T11:52:34Z</time>
      </trkpt>
      <trkpt lat="45.44157" lon="3.99052">
        <ele>1010</ele>
        <time>2016-04-25T11:53:19Z</time>
      </trkpt>
      <trkpt lat="45.44152" lon="3.99053">
        <ele>1010</ele>
        <time>2016-04-25T11:53:25Z</time>
      </trkpt>
      <trkpt lat="45.4411" lon="3.99038">
        <ele>1013</ele>
        <time>2016-04-25T11:54:05Z</time>
      </trkpt>
      <trkpt lat="45.44103" lon="3.99029">
        <ele>1014</ele>
        <time>2016-04-25T11:54:13Z</time>
      </trkpt>
      <trkpt lat="45.44092" lon="3.99006">
        <ele>1017</ele>
        <time>2016-04-25T11:54:33Z</time>
      </trkpt>
      <trkpt lat="45.44089" lon="3.99001">
        <ele>1017</ele>
        <time>2016-04-25T11:54:37Z</time>
      </trkpt>
      <trkpt lat="45.44086" lon="3.98997">
        <ele>1017</ele>
        <time>2016-04-25T11:54:41Z</time>
      </trkpt>
      <trkpt lat="45.44083" lon="3.98991">
        <ele>1017</ele>
        <time>2016-04-25T11:54:46Z</time>
      </trkpt>
      <trkpt lat="45.4408" lon="3.98986">
        <ele>1017</ele>
        <time>2016-04-25T11:54:50Z</time>
      </trkpt>
      <trkpt lat="45.44059" lon="3.98963">
        <ele>1021</ele>
        <time>2016-04-25T11:55:13Z</time>
      </trkpt>
      <trkpt lat="45.44051" lon="3.98955">
        <ele>1021</ele>
        <time>2016-04-25T11:55:21Z</time>
      </trkpt>
      <trkpt lat="45.44015" lon="3.98911">
        <ele>1024</ele>
        <time>2016-04-25T11:56:05Z</time>
      </trkpt>
      <trkpt lat="45.44001" lon="3.98907">
        <ele>1021</ele>
        <time>2016-04-25T11:56:26Z</time>
      </trkpt>
      <trkpt lat="45.43976" lon="3.98904">
        <ele>1020</ele>
        <time>2016-04-25T11:56:49Z</time>
      </trkpt>
      <trkpt lat="45.43971" lon="3.98905">
        <ele>1021</ele>
        <time>2016-04-25T11:56:54Z</time>
      </trkpt>
      <trkpt lat="45.43966" lon="3.98906">
        <ele>1021</ele>
        <time>2016-04-25T11:56:58Z</time>
      </trkpt>
      <trkpt lat="45.43933" lon="3.98921">
        <ele>1020</ele>
        <time>2016-04-25T11:57:29Z</time>
      </trkpt>
      <trkpt lat="45.43928" lon="3.98922">
        <ele>1021</ele>
        <time>2016-04-25T11:57:33Z</time>
      </trkpt>
      <trkpt lat="45.43898" lon="3.98923">
        <ele>1021</ele>
        <time>2016-04-25T11:57:59Z</time>
      </trkpt>
      <trkpt lat="45.43887" lon="3.98926">
        <ele>1020</ele>
        <time>2016-04-25T11:58:15Z</time>
      </trkpt>
      <trkpt lat="45.43881" lon="3.98929">
        <ele>1021</ele>
        <time>2016-04-25T11:58:24Z</time>
      </trkpt>
      <trkpt lat="45.43862" lon="3.98951">
        <ele>1020</ele>
        <time>2016-04-25T11:58:44Z</time>
      </trkpt>
      <trkpt lat="45.4384" lon="3.98991">
        <ele>1022</ele>
        <time>2016-04-25T11:59:16Z</time>
      </trkpt>
      <trkpt lat="45.43804" lon="3.99028">
        <ele>1023</ele>
        <time>2016-04-25T11:59:50Z</time>
      </trkpt>
      <trkpt lat="45.43775" lon="3.99053">
        <ele>1023</ele>
        <time>2016-04-25T12:00:26Z</time>
      </trkpt>
      <trkpt lat="45.43761" lon="3.99061">
        <ele>1024</ele>
        <time>2016-04-25T12:00:38Z</time>
      </trkpt>
      <trkpt lat="45.43753" lon="3.99067">
        <ele>1025</ele>
        <time>2016-04-25T12:00:52Z</time>
      </trkpt>
      <trkpt lat="45.43709" lon="3.99086">
        <ele>1027</ele>
        <time>2016-04-25T12:01:31Z</time>
      </trkpt>
      <trkpt lat="45.43624" lon="3.99102">
        <ele>1025</ele>
        <time>2016-04-25T12:02:41Z</time>
      </trkpt>
      <trkpt lat="45.4362" lon="3.99101">
        <ele>1024</ele>
        <time>2016-04-25T12:02:45Z</time>
      </trkpt>
      <trkpt lat="45.4358" lon="3.99089">
        <ele>1023</ele>
        <time>2016-04-25T12:03:17Z</time>
      </trkpt>
      <trkpt lat="45.43557" lon="3.99073">
        <ele>1022</ele>
        <time>2016-04-25T12:03:37Z</time>
      </trkpt>
      <trkpt lat="45.43554" lon="3.99068">
        <ele>1023</ele>
        <time>2016-04-25T12:03:41Z</time>
      </trkpt>
      <trkpt lat="45.4352" lon="3.9903">
        <ele>1021</ele>
        <time>2016-04-25T12:04:13Z</time>
      </trkpt>
      <trkpt lat="45.43485" lon="3.99026">
        <ele>1020</ele>
        <time>2016-04-25T12:04:43Z</time>
      </trkpt>
      <trkpt lat="45.43449" lon="3.99016">
        <ele>1020</ele>
        <time>2016-04-25T12:05:13Z</time>
      </trkpt>
      <trkpt lat="45.43445" lon="3.99013">
        <ele>1020</ele>
        <time>2016-04-25T12:05:16Z</time>
      </trkpt>
      <trkpt lat="45.43412" lon="3.98983">
        <ele>1022</ele>
        <time>2016-04-25T12:05:49Z</time>
      </trkpt>
      <trkpt lat="45.43376" lon="3.98943">
        <ele>1024</ele>
        <time>2016-04-25T12:06:29Z</time>
      </trkpt>
      <trkpt lat="45.43371" lon="3.98939">
        <ele>1024</ele>
        <time>2016-04-25T12:06:33Z</time>
      </trkpt>
      <trkpt lat="45.43305" lon="3.98841">
        <ele>1027</ele>
        <time>2016-04-25T12:08:25Z</time>
      </trkpt>
      <trkpt lat="45.43275" lon="3.98807">
        <ele>1025</ele>
        <time>2016-04-25T12:08:59Z</time>
      </trkpt>
      <trkpt lat="45.43238" lon="3.98777">
        <ele>1024</ele>
        <time>2016-04-25T12:09:34Z</time>
      </trkpt>
      <trkpt lat="45.43208" lon="3.98737">
        <ele>1025</ele>
        <time>2016-04-25T12:10:06Z</time>
      </trkpt>
      <trkpt lat="45.43184" lon="3.98691">
        <ele>1026</ele>
        <time>2016-04-25T12:10:38Z</time>
      </trkpt>
      <trkpt lat="45.43147" lon="3.98667">
        <ele>1026</ele>
        <time>2016-04-25T12:11:12Z</time>
      </trkpt>
      <trkpt lat="45.43103" lon="3.98609">
        <ele>1023</ele>
        <time>2016-04-25T12:12:00Z</time>
      </trkpt>
      <trkpt lat="45.431" lon="3.98604">
        <ele>1023</ele>
        <time>2016-04-25T12:12:04Z</time>
      </trkpt>
      <trkpt lat="45.43096" lon="3.98599">
        <ele>1023</ele>
        <time>2016-04-25T12:12:08Z</time>
      </trkpt>
      <trkpt lat="45.43093" lon="3.98593">
        <ele>1023</ele>
        <time>2016-04-25T12:12:12Z</time>
      </trkpt>
      <trkpt lat="45.43062" lon="3.98557">
        <ele>1022</ele>
        <time>2016-04-25T12:12:44Z</time>
      </trkpt>
      <trkpt lat="45.43048" lon="3.98548">
        <ele>1022</ele>
        <time>2016-04-25T12:12:56Z</time>
      </trkpt>
      <trkpt lat="45.43014" lon="3.98519">
        <ele>1018</ele>
        <time>2016-04-25T12:13:28Z</time>
      </trkpt>
      <trkpt lat="45.42979" lon="3.98479">
        <ele>1014</ele>
        <time>2016-04-25T12:14:05Z</time>
      </trkpt>
      <trkpt lat="45.42969" lon="3.98448">
        <ele>1011</ele>
        <time>2016-04-25T12:14:26Z</time>
      </trkpt>
      <trkpt lat="45.42965" lon="3.98393">
        <ele>1009</ele>
        <time>2016-04-25T12:14:59Z</time>
      </trkpt>
      <trkpt lat="45.4295" lon="3.98358">
        <ele>1009</ele>
        <time>2016-04-25T12:15:23Z</time>
      </trkpt>
      <trkpt lat="45.4282" lon="3.98216">
        <ele>1006</ele>
        <time>2016-04-25T12:17:32Z</time>
      </trkpt>
      <trkpt lat="45.42785" lon="3.98187">
        <ele>1005</ele>
        <time>2016-04-25T12:18:05Z</time>
      </trkpt>
      <trkpt lat="45.42685" lon="3.98084">
        <ele>996</ele>
        <time>2016-04-25T12:19:47Z</time>
      </trkpt>
      <trkpt lat="45.42681" lon="3.98078">
        <ele>995</ele>
        <time>2016-04-25T12:19:52Z</time>
      </trkpt>
      <trkpt lat="45.4265" lon="3.98042">
        <ele>994</ele>
        <time>2016-04-25T12:20:25Z</time>
      </trkpt>
      <trkpt lat="45.42633" lon="3.98027">
        <ele>994</ele>
        <time>2016-04-25T12:20:42Z</time>
      </trkpt>
      <trkpt lat="45.42605" lon="3.98011">
        <ele>993</ele>
        <time>2016-04-25T12:21:12Z</time>
      </trkpt>
      <trkpt lat="45.42575" lon="3.97972">
        <ele>994</ele>
        <time>2016-04-25T12:21:48Z</time>
      </trkpt>
      <trkpt lat="45.42551" lon="3.97928">
        <ele>995</ele>
        <time>2016-04-25T12:22:25Z</time>
      </trkpt>
      <trkpt lat="45.42509" lon="3.97828">
        <ele>994</ele>
        <time>2016-04-25T12:23:30Z</time>
      </trkpt>
      <trkpt lat="45.42503" lon="3.97817">
        <ele>994</ele>
        <time>2016-04-25T12:23:38Z</time>
      </trkpt>
      <trkpt lat="45.42496" lon="3.97797">
        <ele>995</ele>
        <time>2016-04-25T12:23:51Z</time>
      </trkpt>
      <trkpt lat="45.42351" lon="3.97553">
        <ele>992</ele>
        <time>2016-04-25T12:27:05Z</time>
      </trkpt>
      <trkpt lat="45.42346" lon="3.97541">
        <ele>992</ele>
        <time>2016-04-25T12:27:14Z</time>
      </trkpt>
      <trkpt lat="45.42321" lon="3.97498">
        <ele>991</ele>
        <time>2016-04-25T12:27:46Z</time>
      </trkpt>
      <trkpt lat="45.42319" lon="3.97491">
        <ele>991</ele>
        <time>2016-04-25T12:27:50Z</time>
      </trkpt>
      <trkpt lat="45.42274" lon="3.97408">
        <ele>997</ele>
        <time>2016-04-25T12:28:57Z</time>
      </trkpt>
      <trkpt lat="45.4227" lon="3.97405">
        <ele>998</ele>
        <time>2016-04-25T12:29:03Z</time>
      </trkpt>
      <trkpt lat="45.42266" lon="3.974">
        <ele>998</ele>
        <time>2016-04-25T12:29:09Z</time>
      </trkpt>
      <trkpt lat="45.42256" lon="3.97399">
        <ele>999</ele>
        <time>2016-04-25T12:29:19Z</time>
      </trkpt>
      <trkpt lat="45.42248" lon="3.97395">
        <ele>1000</ele>
        <time>2016-04-25T12:29:25Z</time>
      </trkpt>
      <trkpt lat="45.42238" lon="3.97394">
        <ele>1000</ele>
        <time>2016-04-25T12:29:31Z</time>
      </trkpt>
      <trkpt lat="45.42234" lon="3.97391">
        <ele>1000</ele>
        <time>2016-04-25T12:29:36Z</time>
      </trkpt>
      <trkpt lat="45.42234" lon="3.97383">
        <ele>1001</ele>
        <time>2016-04-25T12:29:42Z</time>
      </trkpt>
      <trkpt lat="45.42229" lon="3.9738">
        <ele>1000</ele>
        <time>2016-04-25T12:29:46Z</time>
      </trkpt>
      <trkpt lat="45.42212" lon="3.97361">
        <ele>998</ele>
        <time>2016-04-25T12:30:03Z</time>
      </trkpt>
      <trkpt lat="45.42152" lon="3.97247">
        <ele>1002</ele>
        <time>2016-04-25T12:31:23Z</time>
      </trkpt>
      <trkpt lat="45.42097" lon="3.97165">
        <ele>998</ele>
        <time>2016-04-25T12:33:24Z</time>
      </trkpt>
      <trkpt lat="45.42094" lon="3.97156">
        <ele>997</ele>
        <time>2016-04-25T12:33:41Z</time>
      </trkpt>
      <trkpt lat="45.42086" lon="3.97138">
        <ele>996</ele>
        <time>2016-04-25T12:34:37Z</time>
      </trkpt>
      <trkpt lat="45.42083" lon="3.97133">
        <ele>996</ele>
        <time>2016-04-25T12:34:41Z</time>
      </trkpt>
      <trkpt lat="45.42058" lon="3.97086">
        <ele>994</ele>
        <time>2016-04-25T12:35:14Z</time>
      </trkpt>
      <trkpt lat="45.42052" lon="3.97077">
        <ele>994</ele>
        <time>2016-04-25T12:35:22Z</time>
      </trkpt>
      <trkpt lat="45.42034" lon="3.97063">
        <ele>995</ele>
        <time>2016-04-25T12:35:42Z</time>
      </trkpt>
      <trkpt lat="45.4203" lon="3.97062">
        <ele>994</ele>
        <time>2016-04-25T12:36:02Z</time>
      </trkpt>
      <trkpt lat="45.4202" lon="3.97058">
        <ele>995</ele>
        <time>2016-04-25T12:36:19Z</time>
      </trkpt>
      <trkpt lat="45.42018" lon="3.97053">
        <ele>995</ele>
        <time>2016-04-25T12:36:24Z</time>
      </trkpt>
      <trkpt lat="45.41997" lon="3.97047">
        <ele>997</ele>
        <time>2016-04-25T12:36:46Z</time>
      </trkpt>
      <trkpt lat="45.41992" lon="3.97046">
        <ele>998</ele>
        <time>2016-04-25T12:36:52Z</time>
      </trkpt>
      <trkpt lat="45.41968" lon="3.97018">
        <ele>1000</ele>
        <time>2016-04-25T12:37:25Z</time>
      </trkpt>
      <trkpt lat="45.41962" lon="3.97013">
        <ele>1001</ele>
        <time>2016-04-25T12:37:39Z</time>
      </trkpt>
      <trkpt lat="45.41957" lon="3.97011">
        <ele>1001</ele>
        <time>2016-04-25T12:37:47Z</time>
      </trkpt>
      <trkpt lat="45.41945" lon="3.96998">
        <ele>1001</ele>
        <time>2016-04-25T12:37:57Z</time>
      </trkpt>
      <trkpt lat="45.41914" lon="3.96977">
        <ele>1004</ele>
        <time>2016-04-25T12:38:27Z</time>
      </trkpt>
      <trkpt lat="45.41899" lon="3.96972">
        <ele>1005</ele>
        <time>2016-04-25T12:38:39Z</time>
      </trkpt>
      <trkpt lat="45.41894" lon="3.96972">
        <ele>1005</ele>
        <time>2016-04-25T12:38:45Z</time>
      </trkpt>
      <trkpt lat="45.41856" lon="3.96965">
        <ele>1004</ele>
        <time>2016-04-25T12:39:22Z</time>
      </trkpt>
      <trkpt lat="45.41837" lon="3.96964">
        <ele>1003</ele>
        <time>2016-04-25T12:39:38Z</time>
      </trkpt>
      <trkpt lat="45.41828" lon="3.96959">
        <ele>1003</ele>
        <time>2016-04-25T12:39:47Z</time>
      </trkpt>
      <trkpt lat="45.4179" lon="3.96954">
        <ele>1003</ele>
        <time>2016-04-25T12:40:20Z</time>
      </trkpt>
      <trkpt lat="45.41785" lon="3.96954">
        <ele>1002</ele>
        <time>2016-04-25T12:40:24Z</time>
      </trkpt>
      <trkpt lat="45.41774" lon="3.96951">
        <ele>1002</ele>
        <time>2016-04-25T12:40:33Z</time>
      </trkpt>
      <trkpt lat="45.4177" lon="3.96945">
        <ele>1002</ele>
        <time>2016-04-25T12:40:38Z</time>
      </trkpt>
      <trkpt lat="45.41757" lon="3.96907">
        <ele>998</ele>
        <time>2016-04-25T12:41:02Z</time>
      </trkpt>
      <trkpt lat="45.41763" lon="3.96868">
        <ele>998</ele>
        <time>2016-04-25T12:41:37Z</time>
      </trkpt>
      <trkpt lat="45.41759" lon="3.96835">
        <ele>995</ele>
        <time>2016-04-25T12:41:58Z</time>
      </trkpt>
      <trkpt lat="45.41739" lon="3.96795">
        <ele>992</ele>
        <time>2016-04-25T12:42:29Z</time>
      </trkpt>
      <trkpt lat="45.41732" lon="3.96762">
        <ele>989</ele>
        <time>2016-04-25T12:42:52Z</time>
      </trkpt>
      <trkpt lat="45.41683" lon="3.96722">
        <ele>984</ele>
        <time>2016-04-25T12:43:44Z</time>
      </trkpt>
      <trkpt lat="45.41678" lon="3.96717">
        <ele>984</ele>
        <time>2016-04-25T12:43:49Z</time>
      </trkpt>
      <trkpt lat="45.41643" lon="3.96667">
        <ele>982</ele>
        <time>2016-04-25T12:44:31Z</time>
      </trkpt>
      <trkpt lat="45.41632" lon="3.96655">
        <ele>982</ele>
        <time>2016-04-25T12:44:44Z</time>
      </trkpt>
      <trkpt lat="45.41625" lon="3.96653">
        <ele>982</ele>
        <time>2016-04-25T12:45:16Z</time>
      </trkpt>
      <trkpt lat="45.41614" lon="3.96639">
        <ele>983</ele>
        <time>2016-04-25T12:45:26Z</time>
      </trkpt>
      <trkpt lat="45.41605" lon="3.96634">
        <ele>982</ele>
        <time>2016-04-25T12:45:35Z</time>
      </trkpt>
      <trkpt lat="45.41575" lon="3.96609">
        <ele>982</ele>
        <time>2016-04-25T12:46:08Z</time>
      </trkpt>
      <trkpt lat="45.41542" lon="3.96594">
        <ele>985</ele>
        <time>2016-04-25T12:46:41Z</time>
      </trkpt>
      <trkpt lat="45.41537" lon="3.9659">
        <ele>985</ele>
        <time>2016-04-25T12:46:46Z</time>
      </trkpt>
      <trkpt lat="45.41523" lon="3.96584">
        <ele>985</ele>
        <time>2016-04-25T12:47:00Z</time>
      </trkpt>
      <trkpt lat="45.4152" lon="3.96579">
        <ele>984</ele>
        <time>2016-04-25T12:47:05Z</time>
      </trkpt>
      <trkpt lat="45.41489" lon="3.96578">
        <ele>982</ele>
        <time>2016-04-25T12:47:34Z</time>
      </trkpt>
      <trkpt lat="45.41485" lon="3.96575">
        <ele>982</ele>
        <time>2016-04-25T12:47:39Z</time>
      </trkpt>
      <trkpt lat="45.41452" lon="3.96556">
        <ele>980</ele>
        <time>2016-04-25T12:48:12Z</time>
      </trkpt>
      <trkpt lat="45.41418" lon="3.96502">
        <ele>976</ele>
        <time>2016-04-25T12:49:03Z</time>
      </trkpt>
      <trkpt lat="45.41416" lon="3.96497">
        <ele>970</ele>
        <time>2016-04-25T12:49:29Z</time>
      </trkpt>
      <trkpt lat="45.41408" lon="3.96488">
        <ele>973</ele>
        <time>2016-04-25T12:49:47Z</time>
      </trkpt>
      <trkpt lat="45.41404" lon="3.96489">
        <ele>973</ele>
        <time>2016-04-25T12:50:09Z</time>
      </trkpt>
      <trkpt lat="45.41401" lon="3.96482">
        <ele>972</ele>
        <time>2016-04-25T12:50:21Z</time>
      </trkpt>
      <trkpt lat="45.41395" lon="3.96485">
        <ele>972</ele>
        <time>2016-04-25T12:50:26Z</time>
      </trkpt>
      <trkpt lat="45.4139" lon="3.96483">
        <ele>972</ele>
        <time>2016-04-25T12:50:30Z</time>
      </trkpt>
      <trkpt lat="45.41385" lon="3.96478">
        <ele>970</ele>
        <time>2016-04-25T12:50:42Z</time>
      </trkpt>
      <trkpt lat="45.4138" lon="3.96477">
        <ele>970</ele>
        <time>2016-04-25T12:50:51Z</time>
      </trkpt>
      <trkpt lat="45.41374" lon="3.96479">
        <ele>970</ele>
        <time>2016-04-25T12:50:57Z</time>
      </trkpt>
      <trkpt lat="45.41369" lon="3.96477">
        <ele>969</ele>
        <time>2016-04-25T12:51:04Z</time>
      </trkpt>
      <trkpt lat="45.41365" lon="3.96474">
        <ele>968</ele>
        <time>2016-04-25T12:51:10Z</time>
      </trkpt>
      <trkpt lat="45.41362" lon="3.96469">
        <ele>968</ele>
        <time>2016-04-25T12:51:16Z</time>
      </trkpt>
      <trkpt lat="45.41357" lon="3.96452">
        <ele>959</ele>
        <time>2016-04-25T12:51:59Z</time>
      </trkpt>
      <trkpt lat="45.41363" lon="3.96374">
        <ele>955</ele>
        <time>2016-04-25T12:52:58Z</time>
      </trkpt>
      <trkpt lat="45.41362" lon="3.96351">
        <ele>951</ele>
        <time>2016-04-25T12:53:10Z</time>
      </trkpt>
      <trkpt lat="45.41365" lon="3.9633">
        <ele>949</ele>
        <time>2016-04-25T12:53:23Z</time>
      </trkpt>
      <trkpt lat="45.4136" lon="3.96316">
        <ele>948</ele>
        <time>2016-04-25T12:53:31Z</time>
      </trkpt>
      <trkpt lat="45.41355" lon="3.96305">
        <ele>946</ele>
        <time>2016-04-25T12:53:39Z</time>
      </trkpt>
      <trkpt lat="45.41346" lon="3.96297">
        <ele>944</ele>
        <time>2016-04-25T12:53:49Z</time>
      </trkpt>
      <trkpt lat="45.41341" lon="3.96297">
        <ele>944</ele>
        <time>2016-04-25T12:53:56Z</time>
      </trkpt>
      <trkpt lat="45.41342" lon="3.96292">
        <ele>943</ele>
        <time>2016-04-25T12:54:17Z</time>
      </trkpt>
      <trkpt lat="45.41339" lon="3.96286">
        <ele>943</ele>
        <time>2016-04-25T12:54:34Z</time>
      </trkpt>
      <trkpt lat="45.41332" lon="3.96278">
        <ele>942</ele>
        <time>2016-04-25T12:54:41Z</time>
      </trkpt>
      <trkpt lat="45.41318" lon="3.9627">
        <ele>942</ele>
        <time>2016-04-25T12:54:53Z</time>
      </trkpt>
      <trkpt lat="45.41272" lon="3.96216">
        <ele>942</ele>
        <time>2016-04-25T12:55:41Z</time>
      </trkpt>
      <trkpt lat="45.41267" lon="3.96195">
        <ele>942</ele>
        <time>2016-04-25T12:55:53Z</time>
      </trkpt>
      <trkpt lat="45.41263" lon="3.96146">
        <ele>941</ele>
        <time>2016-04-25T12:56:21Z</time>
      </trkpt>
      <trkpt lat="45.41259" lon="3.96141">
        <ele>941</ele>
        <time>2016-04-25T12:56:25Z</time>
      </trkpt>
      <trkpt lat="45.41253" lon="3.9614">
        <ele>941</ele>
        <time>2016-04-25T12:56:29Z</time>
      </trkpt>
      <trkpt lat="45.41239" lon="3.96145">
        <ele>940</ele>
        <time>2016-04-25T12:56:41Z</time>
      </trkpt>
      <trkpt lat="45.41234" lon="3.96144">
        <ele>939</ele>
        <time>2016-04-25T12:56:46Z</time>
      </trkpt>
      <trkpt lat="45.41223" lon="3.96144">
        <ele>940</ele>
        <time>2016-04-25T12:56:54Z</time>
      </trkpt>
      <trkpt lat="45.41213" lon="3.96143">
        <ele>940</ele>
        <time>2016-04-25T12:57:02Z</time>
      </trkpt>
      <trkpt lat="45.41173" lon="3.96145">
        <ele>938</ele>
        <time>2016-04-25T12:57:34Z</time>
      </trkpt>
      <trkpt lat="45.41134" lon="3.96131">
        <ele>934</ele>
        <time>2016-04-25T12:58:06Z</time>
      </trkpt>
      <trkpt lat="45.4112" lon="3.96127">
        <ele>932</ele>
        <time>2016-04-25T12:58:18Z</time>
      </trkpt>
      <trkpt lat="45.4111" lon="3.96123">
        <ele>932</ele>
        <time>2016-04-25T12:58:26Z</time>
      </trkpt>
      <trkpt lat="45.41036" lon="3.96098">
        <ele>927</ele>
        <time>2016-04-25T13:00:27Z</time>
      </trkpt>
      <trkpt lat="45.41032" lon="3.96094">
        <ele>926</ele>
        <time>2016-04-25T13:00:31Z</time>
      </trkpt>
      <trkpt lat="45.4103" lon="3.96088">
        <ele>926</ele>
        <time>2016-04-25T13:00:35Z</time>
      </trkpt>
      <trkpt lat="45.41028" lon="3.96054">
        <ele>922</ele>
        <time>2016-04-25T13:01:02Z</time>
      </trkpt>
      <trkpt lat="45.41043" lon="3.95957">
        <ele>915</ele>
        <time>2016-04-25T13:02:00Z</time>
      </trkpt>
      <trkpt lat="45.41047" lon="3.95944">
        <ele>915</ele>
        <time>2016-04-25T13:02:09Z</time>
      </trkpt>
      <trkpt lat="45.41046" lon="3.95938">
        <ele>915</ele>
        <time>2016-04-25T13:02:14Z</time>
      </trkpt>
      <trkpt lat="45.41042" lon="3.95933">
        <ele>916</ele>
        <time>2016-04-25T13:02:18Z</time>
      </trkpt>
      <trkpt lat="45.41038" lon="3.9593">
        <ele>915</ele>
        <time>2016-04-25T13:02:23Z</time>
      </trkpt>
      <trkpt lat="45.41029" lon="3.95922">
        <ele>915</ele>
        <time>2016-04-25T13:02:33Z</time>
      </trkpt>
      <trkpt lat="45.41027" lon="3.95917">
        <ele>916</ele>
        <time>2016-04-25T13:02:38Z</time>
      </trkpt>
      <trkpt lat="45.41024" lon="3.9591">
        <ele>916</ele>
        <time>2016-04-25T13:02:44Z</time>
      </trkpt>
      <trkpt lat="45.41025" lon="3.95896">
        <ele>916</ele>
        <time>2016-04-25T13:02:54Z</time>
      </trkpt>
      <trkpt lat="45.41027" lon="3.95889">
        <ele>916</ele>
        <time>2016-04-25T13:02:58Z</time>
      </trkpt>
      <trkpt lat="45.4104" lon="3.95745">
        <ele>920</ele>
        <time>2016-04-25T13:04:34Z</time>
      </trkpt>
      <trkpt lat="45.41045" lon="3.95727">
        <ele>921</ele>
        <time>2016-04-25T13:04:46Z</time>
      </trkpt>
      <trkpt lat="45.41047" lon="3.95697">
        <ele>921</ele>
        <time>2016-04-25T13:05:02Z</time>
      </trkpt>
      <trkpt lat="45.41045" lon="3.95675">
        <ele>923</ele>
        <time>2016-04-25T13:05:18Z</time>
      </trkpt>
      <trkpt lat="45.41048" lon="3.95663">
        <ele>925</ele>
        <time>2016-04-25T13:05:32Z</time>
      </trkpt>
      <trkpt lat="45.4105" lon="3.95649">
        <ele>926</ele>
        <time>2016-04-25T13:05:43Z</time>
      </trkpt>
      <trkpt lat="45.41054" lon="3.95637">
        <ele>925</ele>
        <time>2016-04-25T13:05:54Z</time>
      </trkpt>
      <trkpt lat="45.41053" lon="3.95623">
        <ele>925</ele>
        <time>2016-04-25T13:06:03Z</time>
      </trkpt>
      <trkpt lat="45.41094" lon="3.95434">
        <ele>931</ele>
        <time>2016-04-25T13:08:04Z</time>
      </trkpt>
      <trkpt lat="45.41087" lon="3.95249">
        <ele>938</ele>
        <time>2016-04-25T13:10:10Z</time>
      </trkpt>
      <trkpt lat="45.41085" lon="3.95236">
        <ele>939</ele>
        <time>2016-04-25T13:10:27Z</time>
      </trkpt>
      <trkpt lat="45.4109" lon="3.95206">
        <ele>941</ele>
        <time>2016-04-25T13:11:00Z</time>
      </trkpt>
      <trkpt lat="45.41103" lon="3.95161">
        <ele>941</ele>
        <time>2016-04-25T13:11:45Z</time>
      </trkpt>
      <trkpt lat="45.41107" lon="3.95163">
        <ele>941</ele>
        <time>2016-04-25T13:12:01Z</time>
      </trkpt>
      <trkpt lat="45.41112" lon="3.95162">
        <ele>941</ele>
        <time>2016-04-25T13:12:06Z</time>
      </trkpt>
      <trkpt lat="45.41116" lon="3.95165">
        <ele>941</ele>
        <time>2016-04-25T13:12:16Z</time>
      </trkpt>
      <trkpt lat="45.41121" lon="3.95165">
        <ele>941</ele>
        <time>2016-04-25T13:12:21Z</time>
      </trkpt>
      <trkpt lat="45.41135" lon="3.95155">
        <ele>939</ele>
        <time>2016-04-25T13:12:38Z</time>
      </trkpt>
      <trkpt lat="45.41138" lon="3.95152">
        <ele>938</ele>
        <time>2016-04-25T13:12:57Z</time>
      </trkpt>
      <trkpt lat="45.41142" lon="3.95164">
        <ele>938</ele>
        <time>2016-04-25T13:14:17Z</time>
      </trkpt>
      <trkpt lat="45.41145" lon="3.95156">
        <ele>938</ele>
        <time>2016-04-25T13:14:33Z</time>
      </trkpt>
      <trkpt lat="45.41141" lon="3.95154">
        <ele>938</ele>
        <time>2016-04-25T13:15:29Z</time>
      </trkpt>
      <trkpt lat="45.41138" lon="3.95158">
        <ele>938</ele>
        <time>2016-04-25T13:16:01Z</time>
      </trkpt>
      <trkpt lat="45.41133" lon="3.9516">
        <ele>938</ele>
        <time>2016-04-25T13:16:06Z</time>
      </trkpt>
      <trkpt lat="45.4112" lon="3.95169">
        <ele>940</ele>
        <time>2016-04-25T13:16:18Z</time>
      </trkpt>
      <trkpt lat="45.41117" lon="3.95175">
        <ele>941</ele>
        <time>2016-04-25T13:16:25Z</time>
      </trkpt>
      <trkpt lat="45.41118" lon="3.95181">
        <ele>940</ele>
        <time>2016-04-25T13:16:34Z</time>
      </trkpt>
      <trkpt lat="45.41115" lon="3.95177">
        <ele>939</ele>
        <time>2016-04-25T13:17:20Z</time>
      </trkpt>
      <trkpt lat="45.41119" lon="3.95173">
        <ele>939</ele>
        <time>2016-04-25T13:17:26Z</time>
      </trkpt>
      <trkpt lat="45.41117" lon="3.95167">
        <ele>941</ele>
        <time>2016-04-25T13:17:54Z</time>
      </trkpt>
      <trkpt lat="45.41113" lon="3.95165">
        <ele>942</ele>
        <time>2016-04-25T13:18:03Z</time>
      </trkpt>
      <trkpt lat="45.4111" lon="3.95162">
        <ele>944</ele>
        <time>2016-04-25T13:19:09Z</time>
      </trkpt>
      <trkpt lat="45.41107" lon="3.95163">
        <ele>942</ele>
        <time>2016-04-25T13:20:19Z</time>
      </trkpt>
      <trkpt lat="45.41105" lon="3.95135">
        <ele>943</ele>
        <time>2016-04-25T13:20:39Z</time>
      </trkpt>
      <trkpt lat="45.41106" lon="3.95128">
        <ele>944</ele>
        <time>2016-04-25T13:20:44Z</time>
      </trkpt>
      <trkpt lat="45.41104" lon="3.95122">
        <ele>945</ele>
        <time>2016-04-25T13:20:49Z</time>
      </trkpt>
      <trkpt lat="45.41091" lon="3.95088">
        <ele>950</ele>
        <time>2016-04-25T13:21:24Z</time>
      </trkpt>
      <trkpt lat="45.41088" lon="3.95087">
        <ele>950</ele>
        <time>2016-04-25T13:21:31Z</time>
      </trkpt>
      <trkpt lat="45.41092" lon="3.95082">
        <ele>950</ele>
        <time>2016-04-25T13:21:40Z</time>
      </trkpt>
      <trkpt lat="45.41091" lon="3.9508">
        <ele>951</ele>
        <time>2016-04-25T13:21:56Z</time>
      </trkpt>
      <trkpt lat="45.41086" lon="3.95083">
        <ele>951</ele>
        <time>2016-04-25T13:22:00Z</time>
      </trkpt>
      <trkpt lat="45.41081" lon="3.95083">
        <ele>951</ele>
        <time>2016-04-25T13:22:04Z</time>
      </trkpt>
      <trkpt lat="45.41058" lon="3.95066">
        <ele>951</ele>
        <time>2016-04-25T13:22:25Z</time>
      </trkpt>
      <trkpt lat="45.41054" lon="3.95061">
        <ele>951</ele>
        <time>2016-04-25T13:22:30Z</time>
      </trkpt>
      <trkpt lat="45.41051" lon="3.95048">
        <ele>950</ele>
        <time>2016-04-25T13:22:40Z</time>
      </trkpt>
      <trkpt lat="45.41048" lon="3.95042">
        <ele>949</ele>
        <time>2016-04-25T13:22:45Z</time>
      </trkpt>
      <trkpt lat="45.41039" lon="3.95034">
        <ele>949</ele>
        <time>2016-04-25T13:22:53Z</time>
      </trkpt>
      <trkpt lat="45.41002" lon="3.95029">
        <ele>944</ele>
        <time>2016-04-25T13:23:26Z</time>
      </trkpt>
      <trkpt lat="45.40961" lon="3.9503">
        <ele>937</ele>
        <time>2016-04-25T13:24:04Z</time>
      </trkpt>
      <trkpt lat="45.40956" lon="3.95028">
        <ele>937</ele>
        <time>2016-04-25T13:24:08Z</time>
      </trkpt>
      <trkpt lat="45.40952" lon="3.95027">
        <ele>936</ele>
        <time>2016-04-25T13:24:12Z</time>
      </trkpt>
      <trkpt lat="45.40927" lon="3.95017">
        <ele>932</ele>
        <time>2016-04-25T13:24:43Z</time>
      </trkpt>
      <trkpt lat="45.40908" lon="3.95022">
        <ele>931</ele>
        <time>2016-04-25T13:24:59Z</time>
      </trkpt>
      <trkpt lat="45.40873" lon="3.95048">
        <ele>932</ele>
        <time>2016-04-25T13:25:31Z</time>
      </trkpt>
      <trkpt lat="45.40864" lon="3.95053">
        <ele>932</ele>
        <time>2016-04-25T13:25:40Z</time>
      </trkpt>
      <trkpt lat="45.40829" lon="3.95066">
        <ele>928</ele>
        <time>2016-04-25T13:26:14Z</time>
      </trkpt>
      <trkpt lat="45.40814" lon="3.95069">
        <ele>928</ele>
        <time>2016-04-25T13:26:52Z</time>
      </trkpt>
      <trkpt lat="45.40776" lon="3.95066">
        <ele>928</ele>
        <time>2016-04-25T13:27:26Z</time>
      </trkpt>
      <trkpt lat="45.40743" lon="3.95049">
        <ele>928</ele>
        <time>2016-04-25T13:27:58Z</time>
      </trkpt>
      <trkpt lat="45.40703" lon="3.9504">
        <ele>928</ele>
        <time>2016-04-25T13:28:32Z</time>
      </trkpt>
      <trkpt lat="45.40662" lon="3.95047">
        <ele>926</ele>
        <time>2016-04-25T13:29:06Z</time>
      </trkpt>
      <trkpt lat="45.40621" lon="3.95043">
        <ele>923</ele>
        <time>2016-04-25T13:29:39Z</time>
      </trkpt>
      <trkpt lat="45.40582" lon="3.95034">
        <ele>922</ele>
        <time>2016-04-25T13:30:12Z</time>
      </trkpt>
      <trkpt lat="45.40556" lon="3.95032">
        <ele>920</ele>
        <time>2016-04-25T13:30:35Z</time>
      </trkpt>
      <trkpt lat="45.40541" lon="3.95028">
        <ele>918</ele>
        <time>2016-04-25T13:30:49Z</time>
      </trkpt>
      <trkpt lat="45.40514" lon="3.94997">
        <ele>917</ele>
        <time>2016-04-25T13:31:18Z</time>
      </trkpt>
      <trkpt lat="45.40466" lon="3.94974">
        <ele>916</ele>
        <time>2016-04-25T13:32:01Z</time>
      </trkpt>
      <trkpt lat="45.40425" lon="3.94966">
        <ele>916</ele>
        <time>2016-04-25T13:32:35Z</time>
      </trkpt>
      <trkpt lat="45.40416" lon="3.94963">
        <ele>916</ele>
        <time>2016-04-25T13:32:43Z</time>
      </trkpt>
      <trkpt lat="45.404" lon="3.94952">
        <ele>918</ele>
        <time>2016-04-25T13:34:44Z</time>
      </trkpt>
      <trkpt lat="45.40396" lon="3.94948">
        <ele>918</ele>
        <time>2016-04-25T13:34:48Z</time>
      </trkpt>
      <trkpt lat="45.40388" lon="3.94936">
        <ele>918</ele>
        <time>2016-04-25T13:34:56Z</time>
      </trkpt>
      <trkpt lat="45.40376" lon="3.94926">
        <ele>918</ele>
        <time>2016-04-25T13:35:08Z</time>
      </trkpt>
      <trkpt lat="45.40354" lon="3.94905">
        <ele>917</ele>
        <time>2016-04-25T13:35:29Z</time>
      </trkpt>
      <trkpt lat="45.40347" lon="3.94894">
        <ele>916</ele>
        <time>2016-04-25T13:35:37Z</time>
      </trkpt>
      <trkpt lat="45.40329" lon="3.94879">
        <ele>916</ele>
        <time>2016-04-25T13:35:53Z</time>
      </trkpt>
      <trkpt lat="45.4027" lon="3.94851">
        <ele>919</ele>
        <time>2016-04-25T13:36:46Z</time>
      </trkpt>
      <trkpt lat="45.40266" lon="3.94847">
        <ele>919</ele>
        <time>2016-04-25T13:36:50Z</time>
      </trkpt>
      <trkpt lat="45.4022" lon="3.9483">
        <ele>920</ele>
        <time>2016-04-25T13:37:26Z</time>
      </trkpt>
      <trkpt lat="45.40215" lon="3.94827">
        <ele>919</ele>
        <time>2016-04-25T13:37:30Z</time>
      </trkpt>
      <trkpt lat="45.4014" lon="3.94768">
        <ele>922</ele>
        <time>2016-04-25T13:38:34Z</time>
      </trkpt>
      <trkpt lat="45.40106" lon="3.94729">
        <ele>923</ele>
        <time>2016-04-25T13:39:06Z</time>
      </trkpt>
      <trkpt lat="45.40095" lon="3.94711">
        <ele>921</ele>
        <time>2016-04-25T13:39:18Z</time>
      </trkpt>
      <trkpt lat="45.40017" lon="3.94608">
        <ele>918</ele>
        <time>2016-04-25T13:40:37Z</time>
      </trkpt>
      <trkpt lat="45.40001" lon="3.9459">
        <ele>918</ele>
        <time>2016-04-25T13:40:53Z</time>
      </trkpt>
      <trkpt lat="45.39972" lon="3.94548">
        <ele>919</ele>
        <time>2016-04-25T13:41:24Z</time>
      </trkpt>
      <trkpt lat="45.39937" lon="3.94518">
        <ele>919</ele>
        <time>2016-04-25T13:41:55Z</time>
      </trkpt>
      <trkpt lat="45.39909" lon="3.945">
        <ele>919</ele>
        <time>2016-04-25T13:42:19Z</time>
      </trkpt>
      <trkpt lat="45.39904" lon="3.94498">
        <ele>919</ele>
        <time>2016-04-25T13:42:23Z</time>
      </trkpt>
      <trkpt lat="45.39894" lon="3.94495">
        <ele>920</ele>
        <time>2016-04-25T13:42:31Z</time>
      </trkpt>
      <trkpt lat="45.39883" lon="3.94494">
        <ele>918</ele>
        <time>2016-04-25T13:42:39Z</time>
      </trkpt>
      <trkpt lat="45.39878" lon="3.94494">
        <ele>918</ele>
        <time>2016-04-25T13:42:43Z</time>
      </trkpt>
      <trkpt lat="45.39669" lon="3.94538">
        <ele>925</ele>
        <time>2016-04-25T13:45:54Z</time>
      </trkpt>
      <trkpt lat="45.39639" lon="3.9454">
        <ele>923</ele>
        <time>2016-04-25T13:46:27Z</time>
      </trkpt>
      <trkpt lat="45.39635" lon="3.94541">
        <ele>923</ele>
        <time>2016-04-25T13:46:32Z</time>
      </trkpt>
      <trkpt lat="45.39622" lon="3.94553">
        <ele>923</ele>
        <time>2016-04-25T13:46:43Z</time>
      </trkpt>
      <trkpt lat="45.39617" lon="3.94552">
        <ele>923</ele>
        <time>2016-04-25T13:46:48Z</time>
      </trkpt>
      <trkpt lat="45.39614" lon="3.94547">
        <ele>923</ele>
        <time>2016-04-25T13:46:54Z</time>
      </trkpt>
      <trkpt lat="45.39616" lon="3.9454">
        <ele>923</ele>
        <time>2016-04-25T13:46:59Z</time>
      </trkpt>
      <trkpt lat="45.39613" lon="3.94535">
        <ele>925</ele>
        <time>2016-04-25T13:47:38Z</time>
      </trkpt>
      <trkpt lat="45.39603" lon="3.94533">
        <ele>924</ele>
        <time>2016-04-25T13:47:46Z</time>
      </trkpt>
      <trkpt lat="45.39594" lon="3.94525">
        <ele>922</ele>
        <time>2016-04-25T13:47:55Z</time>
      </trkpt>
      <trkpt lat="45.39548" lon="3.94469">
        <ele>924</ele>
        <time>2016-04-25T13:48:43Z</time>
      </trkpt>
      <trkpt lat="45.39543" lon="3.94465">
        <ele>924</ele>
        <time>2016-04-25T13:48:47Z</time>
      </trkpt>
      <trkpt lat="45.39491" lon="3.94439">
        <ele>926</ele>
        <time>2016-04-25T13:49:32Z</time>
      </trkpt>
      <trkpt lat="45.39458" lon="3.94427">
        <ele>925</ele>
        <time>2016-04-25T13:50:05Z</time>
      </trkpt>
      <trkpt lat="45.39428" lon="3.94423">
        <ele>929</ele>
        <time>2016-04-25T13:50:36Z</time>
      </trkpt>
      <trkpt lat="45.39423" lon="3.94423">
        <ele>929</ele>
        <time>2016-04-25T13:50:41Z</time>
      </trkpt>
      <trkpt lat="45.39393" lon="3.94428">
        <ele>931</ele>
        <time>2016-04-25T13:51:12Z</time>
      </trkpt>
      <trkpt lat="45.39371" lon="3.94427">
        <ele>931</ele>
        <time>2016-04-25T13:51:29Z</time>
      </trkpt>
      <trkpt lat="45.39366" lon="3.94427">
        <ele>931</ele>
        <time>2016-04-25T13:51:33Z</time>
      </trkpt>
      <trkpt lat="45.39351" lon="3.94424">
        <ele>932</ele>
        <time>2016-04-25T13:51:46Z</time>
      </trkpt>
      <trkpt lat="45.39346" lon="3.94422">
        <ele>932</ele>
        <time>2016-04-25T13:51:50Z</time>
      </trkpt>
      <trkpt lat="45.39313" lon="3.94404">
        <ele>931</ele>
        <time>2016-04-25T13:52:21Z</time>
      </trkpt>
      <trkpt lat="45.39282" lon="3.94376">
        <ele>931</ele>
        <time>2016-04-25T13:52:54Z</time>
      </trkpt>
      <trkpt lat="45.39275" lon="3.94368">
        <ele>931</ele>
        <time>2016-04-25T13:53:02Z</time>
      </trkpt>
      <trkpt lat="45.39267" lon="3.94358">
        <ele>931</ele>
        <time>2016-04-25T13:53:10Z</time>
      </trkpt>
      <trkpt lat="45.3926" lon="3.94346">
        <ele>931</ele>
        <time>2016-04-25T13:53:18Z</time>
      </trkpt>
      <trkpt lat="45.39243" lon="3.94329">
        <ele>930</ele>
        <time>2016-04-25T13:53:38Z</time>
      </trkpt>
      <trkpt lat="45.3924" lon="3.94323">
        <ele>931</ele>
        <time>2016-04-25T13:53:43Z</time>
      </trkpt>
      <trkpt lat="45.39227" lon="3.94293">
        <ele>930</ele>
        <time>2016-04-25T13:54:05Z</time>
      </trkpt>
      <trkpt lat="45.39222" lon="3.94289">
        <ele>930</ele>
        <time>2016-04-25T13:54:10Z</time>
      </trkpt>
      <trkpt lat="45.39199" lon="3.94279">
        <ele>929</ele>
        <time>2016-04-25T13:54:31Z</time>
      </trkpt>
      <trkpt lat="45.39181" lon="3.94266">
        <ele>929</ele>
        <time>2016-04-25T13:54:47Z</time>
      </trkpt>
      <trkpt lat="45.39135" lon="3.94245">
        <ele>928</ele>
        <time>2016-04-25T13:55:30Z</time>
      </trkpt>
      <trkpt lat="45.3912" lon="3.94241">
        <ele>929</ele>
        <time>2016-04-25T13:55:44Z</time>
      </trkpt>
      <trkpt lat="45.39096" lon="3.94228">
        <ele>925</ele>
        <time>2016-04-25T13:56:12Z</time>
      </trkpt>
      <trkpt lat="45.39093" lon="3.94224">
        <ele>925</ele>
        <time>2016-04-25T13:56:36Z</time>
      </trkpt>
      <trkpt lat="45.39078" lon="3.94225">
        <ele>924</ele>
        <time>2016-04-25T13:56:49Z</time>
      </trkpt>
      <trkpt lat="45.39071" lon="3.94231">
        <ele>924</ele>
        <time>2016-04-25T13:56:55Z</time>
      </trkpt>
      <trkpt lat="45.3904" lon="3.94228">
        <ele>924</ele>
        <time>2016-04-25T13:57:19Z</time>
      </trkpt>
      <trkpt lat="45.39036" lon="3.94232">
        <ele>924</ele>
        <time>2016-04-25T13:57:23Z</time>
      </trkpt>
      <trkpt lat="45.39026" lon="3.9423">
        <ele>924</ele>
        <time>2016-04-25T13:57:32Z</time>
      </trkpt>
      <trkpt lat="45.39021" lon="3.94226">
        <ele>924</ele>
        <time>2016-04-25T13:57:36Z</time>
      </trkpt>
      <trkpt lat="45.39018" lon="3.94231">
        <ele>923</ele>
        <time>2016-04-25T13:57:41Z</time>
      </trkpt>
      <trkpt lat="45.39013" lon="3.94231">
        <ele>922</ele>
        <time>2016-04-25T13:57:46Z</time>
      </trkpt>
      <trkpt lat="45.39003" lon="3.94226">
        <ele>921</ele>
        <time>2016-04-25T13:57:55Z</time>
      </trkpt>
      <trkpt lat="45.3899" lon="3.94214">
        <ele>921</ele>
        <time>2016-04-25T13:58:07Z</time>
      </trkpt>
      <trkpt lat="45.38987" lon="3.94209">
        <ele>921</ele>
        <time>2016-04-25T13:58:11Z</time>
      </trkpt>
      <trkpt lat="45.38974" lon="3.94197">
        <ele>919</ele>
        <time>2016-04-25T13:58:24Z</time>
      </trkpt>
      <trkpt lat="45.38957" lon="3.94193">
        <ele>916</ele>
        <time>2016-04-25T13:58:41Z</time>
      </trkpt>
      <trkpt lat="45.38944" lon="3.94181">
        <ele>913</ele>
        <time>2016-04-25T13:58:57Z</time>
      </trkpt>
      <trkpt lat="45.38942" lon="3.94174">
        <ele>912</ele>
        <time>2016-04-25T13:59:01Z</time>
      </trkpt>
      <trkpt lat="45.38938" lon="3.94136">
        <ele>913</ele>
        <time>2016-04-25T13:59:26Z</time>
      </trkpt>
      <trkpt lat="45.38937" lon="3.9413">
        <ele>914</ele>
        <time>2016-04-25T13:59:31Z</time>
      </trkpt>
      <trkpt lat="45.38933" lon="3.94126">
        <ele>915</ele>
        <time>2016-04-25T13:59:36Z</time>
      </trkpt>
      <trkpt lat="45.38928" lon="3.94126">
        <ele>916</ele>
        <time>2016-04-25T13:59:42Z</time>
      </trkpt>
      <trkpt lat="45.38923" lon="3.9413">
        <ele>921</ele>
        <time>2016-04-25T14:00:05Z</time>
      </trkpt>
      <trkpt lat="45.3892" lon="3.9413">
        <ele>922</ele>
        <time>2016-04-25T14:00:34Z</time>
      </trkpt>
      <trkpt lat="45.38918" lon="3.94142">
        <ele>922</ele>
        <time>2016-04-25T14:01:13Z</time>
      </trkpt>
      <trkpt lat="45.38917" lon="3.94155">
        <ele>921</ele>
        <time>2016-04-25T14:01:23Z</time>
      </trkpt>
      <trkpt lat="45.38918" lon="3.94163">
        <ele>919</ele>
        <time>2016-04-25T14:01:57Z</time>
      </trkpt>
      <trkpt lat="45.38939" lon="3.94174">
        <ele>920</ele>
        <time>2016-04-25T14:02:48Z</time>
      </trkpt>
      <trkpt lat="45.38934" lon="3.94172">
        <ele>922</ele>
        <time>2016-04-25T14:03:29Z</time>
      </trkpt>
      <trkpt lat="45.38931" lon="3.94184">
        <ele>922</ele>
        <time>2016-04-25T14:03:34Z</time>
      </trkpt>
      <trkpt lat="45.38936" lon="3.9419">
        <ele>922</ele>
        <time>2016-04-25T14:04:08Z</time>
      </trkpt>
      <trkpt lat="45.38935" lon="3.94182">
        <ele>921</ele>
        <time>2016-04-25T14:04:19Z</time>
      </trkpt>
      <trkpt lat="45.38932" lon="3.9417">
        <ele>923</ele>
        <time>2016-04-25T14:04:30Z</time>
      </trkpt>
      <trkpt lat="45.38922" lon="3.9417">
        <ele>921</ele>
        <time>2016-04-25T14:04:37Z</time>
      </trkpt>
      <trkpt lat="45.3892" lon="3.94162">
        <ele>922</ele>
        <time>2016-04-25T14:05:04Z</time>
      </trkpt>
      <trkpt lat="45.38924" lon="3.94155">
        <ele>922</ele>
        <time>2016-04-25T14:05:21Z</time>
      </trkpt>
      <trkpt lat="45.38953" lon="3.94149">
        <ele>921</ele>
        <time>2016-04-25T14:06:04Z</time>
      </trkpt>
      <trkpt lat="45.38939" lon="3.94169">
        <ele>921</ele>
        <time>2016-04-25T14:06:23Z</time>
      </trkpt>
      <trkpt lat="45.38915" lon="3.94156">
        <ele>920</ele>
        <time>2016-04-25T14:06:28Z</time>
      </trkpt>
      <trkpt lat="45.38911" lon="3.94156">
        <ele>922</ele>
        <time>2016-04-25T14:07:36Z</time>
      </trkpt>
      <trkpt lat="45.3891" lon="3.94138">
        <ele>922</ele>
        <time>2016-04-25T14:08:09Z</time>
      </trkpt>
      <trkpt lat="45.38915" lon="3.94136">
        <ele>923</ele>
        <time>2016-04-25T14:13:06Z</time>
      </trkpt>
      <trkpt lat="45.38921" lon="3.9414">
        <ele>923</ele>
        <time>2016-04-25T14:13:23Z</time>
      </trkpt>
      <trkpt lat="45.38926" lon="3.94149">
        <ele>923</ele>
        <time>2016-04-25T14:14:58Z</time>
      </trkpt>
      <trkpt lat="45.38929" lon="3.94128">
        <ele>924</ele>
        <time>2016-04-25T14:29:24Z</time>
      </trkpt>
      <trkpt lat="45.38918" lon="3.94117">
        <ele>924</ele>
        <time>2016-04-25T14:29:36Z</time>
      </trkpt>
      <trkpt lat="45.38913" lon="3.94119">
        <ele>925</ele>
        <time>2016-04-25T14:29:54Z</time>
      </trkpt>
      <trkpt lat="45.38908" lon="3.94119">
        <ele>925</ele>
        <time>2016-04-25T14:30:12Z</time>
      </trkpt>
      <trkpt lat="45.38911" lon="3.94113">
        <ele>925</ele>
        <time>2016-04-25T14:30:19Z</time>
      </trkpt>
      <trkpt lat="45.3891" lon="3.94106">
        <ele>925</ele>
        <time>2016-04-25T14:30:26Z</time>
      </trkpt>
      <trkpt lat="45.38907" lon="3.94099">
        <ele>925</ele>
        <time>2016-04-25T14:30:39Z</time>
      </trkpt>
      <trkpt lat="45.38908" lon="3.94088">
        <ele>925</ele>
        <time>2016-04-25T14:30:50Z</time>
      </trkpt>
      <trkpt lat="45.38911" lon="3.94088">
        <ele>925</ele>
        <time>2016-04-25T14:31:02Z</time>
      </trkpt>
      <trkpt lat="45.38914" lon="3.94083">
        <ele>924</ele>
        <time>2016-04-25T14:32:52Z</time>
      </trkpt>
      <trkpt lat="45.38914" lon="3.9408">
        <ele>924</ele>
        <time>2016-04-25T14:33:42Z</time>
      </trkpt>
      <trkpt lat="45.38913" lon="3.94074">
        <ele>920</ele>
        <time>2016-04-25T14:39:37Z</time>
      </trkpt>
      <trkpt lat="45.38918" lon="3.94072">
        <ele>919</ele>
        <time>2016-04-25T14:39:41Z</time>
      </trkpt>
      <trkpt lat="45.38922" lon="3.94068">
        <ele>919</ele>
        <time>2016-04-25T14:39:45Z</time>
      </trkpt>
      <trkpt lat="45.38925" lon="3.94063">
        <ele>918</ele>
        <time>2016-04-25T14:39:49Z</time>
      </trkpt>
      <trkpt lat="45.38935" lon="3.94056">
        <ele>919</ele>
        <time>2016-04-25T14:39:57Z</time>
      </trkpt>
      <trkpt lat="45.3894" lon="3.94055">
        <ele>919</ele>
        <time>2016-04-25T14:40:00Z</time>
      </trkpt>
      <trkpt lat="45.38937" lon="3.94053">
        <ele>918</ele>
        <time>2016-04-25T14:41:21Z</time>
      </trkpt>
      <trkpt lat="45.38934" lon="3.94059">
        <ele>919</ele>
        <time>2016-04-25T14:41:26Z</time>
      </trkpt>
      <trkpt lat="45.38932" lon="3.94066">
        <ele>921</ele>
        <time>2016-04-25T14:41:30Z</time>
      </trkpt>
      <trkpt lat="45.38924" lon="3.94085">
        <ele>923</ele>
        <time>2016-04-25T14:41:43Z</time>
      </trkpt>
      <trkpt lat="45.3892" lon="3.94087">
        <ele>923</ele>
        <time>2016-04-25T14:41:46Z</time>
      </trkpt>
      <trkpt lat="45.38912" lon="3.94095">
        <ele>922</ele>
        <time>2016-04-25T14:42:16Z</time>
      </trkpt>
      <trkpt lat="45.38907" lon="3.94094">
        <ele>923</ele>
        <time>2016-04-25T14:42:21Z</time>
      </trkpt>
      <trkpt lat="45.38906" lon="3.94091">
        <ele>922</ele>
        <time>2016-04-25T14:42:40Z</time>
      </trkpt>
      <trkpt lat="45.38905" lon="3.94084">
        <ele>922</ele>
        <time>2016-04-25T14:42:45Z</time>
      </trkpt>
      <trkpt lat="45.38901" lon="3.94079">
        <ele>922</ele>
        <time>2016-04-25T14:42:49Z</time>
      </trkpt>
      <trkpt lat="45.38893" lon="3.94073">
        <ele>922</ele>
        <time>2016-04-25T14:43:00Z</time>
      </trkpt>
      <trkpt lat="45.38833" lon="3.94045">
        <ele>922</ele>
        <time>2016-04-25T14:43:58Z</time>
      </trkpt>
      <trkpt lat="45.38828" lon="3.94041">
        <ele>922</ele>
        <time>2016-04-25T14:44:10Z</time>
      </trkpt>
      <trkpt lat="45.38824" lon="3.94036">
        <ele>922</ele>
        <time>2016-04-25T14:44:15Z</time>
      </trkpt>
      <trkpt lat="45.38813" lon="3.94022">
        <ele>922</ele>
        <time>2016-04-25T14:44:27Z</time>
      </trkpt>
      <trkpt lat="45.38775" lon="3.94013">
        <ele>922</ele>
        <time>2016-04-25T14:45:01Z</time>
      </trkpt>
      <trkpt lat="45.38743" lon="3.93998">
        <ele>922</ele>
        <time>2016-04-25T14:45:31Z</time>
      </trkpt>
      <trkpt lat="45.38668" lon="3.93939">
        <ele>911</ele>
        <time>2016-04-25T14:46:48Z</time>
      </trkpt>
      <trkpt lat="45.38645" lon="3.93927">
        <ele>910</ele>
        <time>2016-04-25T14:47:09Z</time>
      </trkpt>
      <trkpt lat="45.3864" lon="3.93927">
        <ele>910</ele>
        <time>2016-04-25T14:47:14Z</time>
      </trkpt>
      <trkpt lat="45.38603" lon="3.9392">
        <ele>910</ele>
        <time>2016-04-25T14:47:45Z</time>
      </trkpt>
      <trkpt lat="45.38579" lon="3.93919">
        <ele>910</ele>
        <time>2016-04-25T14:48:09Z</time>
      </trkpt>
      <trkpt lat="45.38571" lon="3.93925">
        <ele>910</ele>
        <time>2016-04-25T14:49:27Z</time>
      </trkpt>
      <trkpt lat="45.3855" lon="3.93906">
        <ele>909</ele>
        <time>2016-04-25T14:49:50Z</time>
      </trkpt>
      <trkpt lat="45.38547" lon="3.93903">
        <ele>909</ele>
        <time>2016-04-25T14:50:01Z</time>
      </trkpt>
      <trkpt lat="45.38543" lon="3.93906">
        <ele>908</ele>
        <time>2016-04-25T14:50:20Z</time>
      </trkpt>
      <trkpt lat="45.38542" lon="3.93909">
        <ele>908</ele>
        <time>2016-04-25T14:50:32Z</time>
      </trkpt>
      <trkpt lat="45.38538" lon="3.93914">
        <ele>907</ele>
        <time>2016-04-25T14:50:38Z</time>
      </trkpt>
      <trkpt lat="45.38536" lon="3.93921">
        <ele>907</ele>
        <time>2016-04-25T14:50:43Z</time>
      </trkpt>
      <trkpt lat="45.38533" lon="3.93926">
        <ele>906</ele>
        <time>2016-04-25T14:50:50Z</time>
      </trkpt>
      <trkpt lat="45.38525" lon="3.93951">
        <ele>906</ele>
        <time>2016-04-25T14:51:12Z</time>
      </trkpt>
      <trkpt lat="45.3852" lon="3.93954">
        <ele>905</ele>
        <time>2016-04-25T14:51:17Z</time>
      </trkpt>
      <trkpt lat="45.38516" lon="3.93955">
        <ele>906</ele>
        <time>2016-04-25T14:51:21Z</time>
      </trkpt>
      <trkpt lat="45.38506" lon="3.9396">
        <ele>906</ele>
        <time>2016-04-25T14:51:31Z</time>
      </trkpt>
      <trkpt lat="45.38502" lon="3.93962">
        <ele>905</ele>
        <time>2016-04-25T14:51:37Z</time>
      </trkpt>
      <trkpt lat="45.38497" lon="3.93957">
        <ele>903</ele>
        <time>2016-04-25T14:52:42Z</time>
      </trkpt>
      <trkpt lat="45.38495" lon="3.93951">
        <ele>903</ele>
        <time>2016-04-25T14:52:46Z</time>
      </trkpt>
      <trkpt lat="45.38495" lon="3.93904">
        <ele>900</ele>
        <time>2016-04-25T14:53:18Z</time>
      </trkpt>
      <trkpt lat="45.3849" lon="3.93894">
        <ele>899</ele>
        <time>2016-04-25T14:53:26Z</time>
      </trkpt>
      <trkpt lat="45.3848" lon="3.93888">
        <ele>897</ele>
        <time>2016-04-25T14:53:36Z</time>
      </trkpt>
      <trkpt lat="45.38447" lon="3.93877">
        <ele>900</ele>
        <time>2016-04-25T14:54:05Z</time>
      </trkpt>
      <trkpt lat="45.38433" lon="3.93868">
        <ele>898</ele>
        <time>2016-04-25T14:54:18Z</time>
      </trkpt>
      <trkpt lat="45.38326" lon="3.93755">
        <ele>886</ele>
        <time>2016-04-25T14:56:34Z</time>
      </trkpt>
      <trkpt lat="45.3832" lon="3.93752">
        <ele>886</ele>
        <time>2016-04-25T14:58:05Z</time>
      </trkpt>
      <trkpt lat="45.38316" lon="3.93748">
        <ele>885</ele>
        <time>2016-04-25T14:58:08Z</time>
      </trkpt>
      <trkpt lat="45.3831" lon="3.93745">
        <ele>885</ele>
        <time>2016-04-25T14:58:12Z</time>
      </trkpt>
      <trkpt lat="45.38283" lon="3.93726">
        <ele>887</ele>
        <time>2016-04-25T14:58:38Z</time>
      </trkpt>
      <trkpt lat="45.38271" lon="3.93714">
        <ele>885</ele>
        <time>2016-04-25T14:58:50Z</time>
      </trkpt>
      <trkpt lat="45.38265" lon="3.93712">
        <ele>885</ele>
        <time>2016-04-25T14:58:55Z</time>
      </trkpt>
      <trkpt lat="45.38232" lon="3.93739">
        <ele>883</ele>
        <time>2016-04-25T14:59:27Z</time>
      </trkpt>
      <trkpt lat="45.38223" lon="3.93744">
        <ele>884</ele>
        <time>2016-04-25T14:59:35Z</time>
      </trkpt>
      <trkpt lat="45.38211" lon="3.93755">
        <ele>884</ele>
        <time>2016-04-25T14:59:47Z</time>
      </trkpt>
      <trkpt lat="45.38181" lon="3.93775">
        <ele>883</ele>
        <time>2016-04-25T15:00:19Z</time>
      </trkpt>
      <trkpt lat="45.38176" lon="3.93777">
        <ele>883</ele>
        <time>2016-04-25T15:00:23Z</time>
      </trkpt>
      <trkpt lat="45.3814" lon="3.93792">
        <ele>884</ele>
        <time>2016-04-25T15:00:55Z</time>
      </trkpt>
      <trkpt lat="45.38108" lon="3.93802">
        <ele>884</ele>
        <time>2016-04-25T15:01:28Z</time>
      </trkpt>
      <trkpt lat="45.38099" lon="3.93807">
        <ele>884</ele>
        <time>2016-04-25T15:01:36Z</time>
      </trkpt>
      <trkpt lat="45.3806" lon="3.9382">
        <ele>883</ele>
        <time>2016-04-25T15:02:08Z</time>
      </trkpt>
      <trkpt lat="45.38034" lon="3.93825">
        <ele>882</ele>
        <time>2016-04-25T15:02:29Z</time>
      </trkpt>
      <trkpt lat="45.3793" lon="3.93858">
        <ele>879</ele>
        <time>2016-04-25T15:04:07Z</time>
      </trkpt>
      <trkpt lat="45.3791" lon="3.9385">
        <ele>880</ele>
        <time>2016-04-25T15:04:24Z</time>
      </trkpt>
      <trkpt lat="45.37908" lon="3.93846">
        <ele>880</ele>
        <time>2016-04-25T15:05:42Z</time>
      </trkpt>
      <trkpt lat="45.37893" lon="3.93842">
        <ele>878</ele>
        <time>2016-04-25T15:05:56Z</time>
      </trkpt>
      <trkpt lat="45.37889" lon="3.9384">
        <ele>878</ele>
        <time>2016-04-25T15:06:01Z</time>
      </trkpt>
      <trkpt lat="45.37876" lon="3.93826">
        <ele>878</ele>
        <time>2016-04-25T15:06:16Z</time>
      </trkpt>
      <trkpt lat="45.37855" lon="3.9381">
        <ele>881</ele>
        <time>2016-04-25T15:06:38Z</time>
      </trkpt>
      <trkpt lat="45.37838" lon="3.93805">
        <ele>881</ele>
        <time>2016-04-25T15:06:51Z</time>
      </trkpt>
      <trkpt lat="45.37804" lon="3.93789">
        <ele>883</ele>
        <time>2016-04-25T15:07:23Z</time>
      </trkpt>
      <trkpt lat="45.37769" lon="3.93765">
        <ele>886</ele>
        <time>2016-04-25T15:07:58Z</time>
      </trkpt>
      <trkpt lat="45.37742" lon="3.93753">
        <ele>889</ele>
        <time>2016-04-25T15:08:29Z</time>
      </trkpt>
      <trkpt lat="45.37714" lon="3.93738">
        <ele>894</ele>
        <time>2016-04-25T15:08:59Z</time>
      </trkpt>
      <trkpt lat="45.37688" lon="3.93706">
        <ele>899</ele>
        <time>2016-04-25T15:09:34Z</time>
      </trkpt>
      <trkpt lat="45.37667" lon="3.93674">
        <ele>902</ele>
        <time>2016-04-25T15:10:03Z</time>
      </trkpt>
      <trkpt lat="45.37663" lon="3.93665">
        <ele>905</ele>
        <time>2016-04-25T15:10:17Z</time>
      </trkpt>
      <trkpt lat="45.37623" lon="3.93603">
        <ele>914</ele>
        <time>2016-04-25T15:11:22Z</time>
      </trkpt>
      <trkpt lat="45.37611" lon="3.93591">
        <ele>916</ele>
        <time>2016-04-25T15:11:39Z</time>
      </trkpt>
      <trkpt lat="45.37607" lon="3.93594">
        <ele>917</ele>
        <time>2016-04-25T15:11:45Z</time>
      </trkpt>
      <trkpt lat="45.37507" lon="3.93797">
        <ele>921</ele>
        <time>2016-04-25T15:14:21Z</time>
      </trkpt>
      <trkpt lat="45.37498" lon="3.93806">
        <ele>921</ele>
        <time>2016-04-25T15:14:29Z</time>
      </trkpt>
      <trkpt lat="45.37486" lon="3.93807">
        <ele>917</ele>
        <time>2016-04-25T15:14:46Z</time>
      </trkpt>
      <trkpt lat="45.37477" lon="3.93804">
        <ele>913</ele>
        <time>2016-04-25T15:14:54Z</time>
      </trkpt>
      <trkpt lat="45.37472" lon="3.93803">
        <ele>913</ele>
        <time>2016-04-25T15:14:58Z</time>
      </trkpt>
      <trkpt lat="45.37439" lon="3.93787">
        <ele>915</ele>
        <time>2016-04-25T15:15:33Z</time>
      </trkpt>
      <trkpt lat="45.37403" lon="3.93764">
        <ele>916</ele>
        <time>2016-04-25T15:16:10Z</time>
      </trkpt>
      <trkpt lat="45.37378" lon="3.93766">
        <ele>917</ele>
        <time>2016-04-25T15:16:31Z</time>
      </trkpt>
      <trkpt lat="45.37355" lon="3.93776">
        <ele>919</ele>
        <time>2016-04-25T15:16:58Z</time>
      </trkpt>
      <trkpt lat="45.37345" lon="3.93777">
        <ele>920</ele>
        <time>2016-04-25T15:17:07Z</time>
      </trkpt>
      <trkpt lat="45.37321" lon="3.93786">
        <ele>922</ele>
        <time>2016-04-25T15:17:36Z</time>
      </trkpt>
      <trkpt lat="45.37316" lon="3.93784">
        <ele>922</ele>
        <time>2016-04-25T15:17:41Z</time>
      </trkpt>
      <trkpt lat="45.37299" lon="3.93773">
        <ele>923</ele>
        <time>2016-04-25T15:18:04Z</time>
      </trkpt>
      <trkpt lat="45.37275" lon="3.93781">
        <ele>925</ele>
        <time>2016-04-25T15:18:27Z</time>
      </trkpt>
      <trkpt lat="45.3727" lon="3.93782">
        <ele>926</ele>
        <time>2016-04-25T15:18:35Z</time>
      </trkpt>
      <trkpt lat="45.3726" lon="3.93786">
        <ele>927</ele>
        <time>2016-04-25T15:18:44Z</time>
      </trkpt>
      <trkpt lat="45.37255" lon="3.93787">
        <ele>927</ele>
        <time>2016-04-25T15:18:48Z</time>
      </trkpt>
      <trkpt lat="45.3725" lon="3.93787">
        <ele>927</ele>
        <time>2016-04-25T15:18:52Z</time>
      </trkpt>
      <trkpt lat="45.37222" lon="3.93801">
        <ele>928</ele>
        <time>2016-04-25T15:19:21Z</time>
      </trkpt>
      <trkpt lat="45.37217" lon="3.93799">
        <ele>928</ele>
        <time>2016-04-25T15:19:28Z</time>
      </trkpt>
      <trkpt lat="45.37187" lon="3.93803">
        <ele>927</ele>
        <time>2016-04-25T15:19:59Z</time>
      </trkpt>
      <trkpt lat="45.37183" lon="3.93806">
        <ele>926</ele>
        <time>2016-04-25T15:20:03Z</time>
      </trkpt>
      <trkpt lat="45.37178" lon="3.93807">
        <ele>926</ele>
        <time>2016-04-25T15:20:08Z</time>
      </trkpt>
      <trkpt lat="45.37118" lon="3.9385">
        <ele>931</ele>
        <time>2016-04-25T15:20:59Z</time>
      </trkpt>
      <trkpt lat="45.37048" lon="3.93882">
        <ele>927</ele>
        <time>2016-04-25T15:22:05Z</time>
      </trkpt>
      <trkpt lat="45.37043" lon="3.93881">
        <ele>926</ele>
        <time>2016-04-25T15:22:32Z</time>
      </trkpt>
      <trkpt lat="45.37038" lon="3.93881">
        <ele>926</ele>
        <time>2016-04-25T15:22:37Z</time>
      </trkpt>
      <trkpt lat="45.37033" lon="3.93883">
        <ele>926</ele>
        <time>2016-04-25T15:22:42Z</time>
      </trkpt>
      <trkpt lat="45.37012" lon="3.93886">
        <ele>924</ele>
        <time>2016-04-25T15:23:01Z</time>
      </trkpt>
      <trkpt lat="45.37007" lon="3.93888">
        <ele>923</ele>
        <time>2016-04-25T15:23:05Z</time>
      </trkpt>
      <trkpt lat="45.37003" lon="3.93889">
        <ele>923</ele>
        <time>2016-04-25T15:23:09Z</time>
      </trkpt>
      <trkpt lat="45.36999" lon="3.93893">
        <ele>923</ele>
        <time>2016-04-25T15:23:14Z</time>
      </trkpt>
      <trkpt lat="45.36996" lon="3.93899">
        <ele>923</ele>
        <time>2016-04-25T15:23:18Z</time>
      </trkpt>
      <trkpt lat="45.36991" lon="3.9392">
        <ele>919</ele>
        <time>2016-04-25T15:23:33Z</time>
      </trkpt>
      <trkpt lat="45.36988" lon="3.93927">
        <ele>919</ele>
        <time>2016-04-25T15:24:17Z</time>
      </trkpt>
      <trkpt lat="45.36986" lon="3.93944">
        <ele>918</ele>
        <time>2016-04-25T15:24:26Z</time>
      </trkpt>
      <trkpt lat="45.36984" lon="3.93949">
        <ele>917</ele>
        <time>2016-04-25T15:24:30Z</time>
      </trkpt>
      <trkpt lat="45.36978" lon="3.93999">
        <ele>917</ele>
        <time>2016-04-25T15:25:01Z</time>
      </trkpt>
      <trkpt lat="45.36979" lon="3.94006">
        <ele>917</ele>
        <time>2016-04-25T15:25:05Z</time>
      </trkpt>
      <trkpt lat="45.36974" lon="3.94041">
        <ele>917</ele>
        <time>2016-04-25T15:25:32Z</time>
      </trkpt>
      <trkpt lat="45.36981" lon="3.94098">
        <ele>919</ele>
        <time>2016-04-25T15:26:04Z</time>
      </trkpt>
      <trkpt lat="45.36983" lon="3.94104">
        <ele>919</ele>
        <time>2016-04-25T15:26:07Z</time>
      </trkpt>
      <trkpt lat="45.36981" lon="3.94112">
        <ele>918</ele>
        <time>2016-04-25T15:26:12Z</time>
      </trkpt>
      <trkpt lat="45.36976" lon="3.94172">
        <ele>918</ele>
        <time>2016-04-25T15:26:44Z</time>
      </trkpt>
      <trkpt lat="45.3698" lon="3.94192">
        <ele>918</ele>
        <time>2016-04-25T15:26:55Z</time>
      </trkpt>
      <trkpt lat="45.36976" lon="3.94228">
        <ele>917</ele>
        <time>2016-04-25T15:27:17Z</time>
      </trkpt>
      <trkpt lat="45.36981" lon="3.94249">
        <ele>917</ele>
        <time>2016-04-25T15:27:29Z</time>
      </trkpt>
      <trkpt lat="45.36984" lon="3.9427">
        <ele>919</ele>
        <time>2016-04-25T15:27:41Z</time>
      </trkpt>
      <trkpt lat="45.36979" lon="3.94319">
        <ele>919</ele>
        <time>2016-04-25T15:28:12Z</time>
      </trkpt>
      <trkpt lat="45.36964" lon="3.9437">
        <ele>920</ele>
        <time>2016-04-25T15:28:44Z</time>
      </trkpt>
      <trkpt lat="45.36944" lon="3.94416">
        <ele>922</ele>
        <time>2016-04-25T15:29:17Z</time>
      </trkpt>
      <trkpt lat="45.36914" lon="3.94443">
        <ele>924</ele>
        <time>2016-04-25T15:29:47Z</time>
      </trkpt>
      <trkpt lat="45.36892" lon="3.94489">
        <ele>925</ele>
        <time>2016-04-25T15:30:21Z</time>
      </trkpt>
      <trkpt lat="45.36889" lon="3.94492">
        <ele>925</ele>
        <time>2016-04-25T15:30:29Z</time>
      </trkpt>
      <trkpt lat="45.36878" lon="3.94514">
        <ele>926</ele>
        <time>2016-04-25T15:30:48Z</time>
      </trkpt>
      <trkpt lat="45.36847" lon="3.94561">
        <ele>927</ele>
        <time>2016-04-25T15:31:34Z</time>
      </trkpt>
      <trkpt lat="45.3684" lon="3.94569">
        <ele>928</ele>
        <time>2016-04-25T15:31:44Z</time>
      </trkpt>
      <trkpt lat="45.36834" lon="3.94569">
        <ele>928</ele>
        <time>2016-04-25T15:31:49Z</time>
      </trkpt>
      <trkpt lat="45.36829" lon="3.94567">
        <ele>930</ele>
        <time>2016-04-25T15:31:54Z</time>
      </trkpt>
      <trkpt lat="45.36828" lon="3.9456">
        <ele>930</ele>
        <time>2016-04-25T15:32:00Z</time>
      </trkpt>
      <trkpt lat="45.36824" lon="3.94562">
        <ele>930</ele>
        <time>2016-04-25T15:32:04Z</time>
      </trkpt>
      <trkpt lat="45.36809" lon="3.9458">
        <ele>930</ele>
        <time>2016-04-25T15:32:21Z</time>
      </trkpt>
      <trkpt lat="45.36807" lon="3.94586">
        <ele>930</ele>
        <time>2016-04-25T15:32:25Z</time>
      </trkpt>
      <trkpt lat="45.36796" lon="3.94642">
        <ele>930</ele>
        <time>2016-04-25T15:33:03Z</time>
      </trkpt>
      <trkpt lat="45.36793" lon="3.94648">
        <ele>930</ele>
        <time>2016-04-25T15:33:08Z</time>
      </trkpt>
      <trkpt lat="45.36788" lon="3.94681">
        <ele>931</ele>
        <time>2016-04-25T15:33:37Z</time>
      </trkpt>
      <trkpt lat="45.36783" lon="3.94694">
        <ele>929</ele>
        <time>2016-04-25T15:33:52Z</time>
      </trkpt>
      <trkpt lat="45.3678" lon="3.94697">
        <ele>929</ele>
        <time>2016-04-25T15:34:00Z</time>
      </trkpt>
      <trkpt lat="45.36779" lon="3.94703">
        <ele>929</ele>
        <time>2016-04-25T15:34:07Z</time>
      </trkpt>
      <trkpt lat="45.36775" lon="3.94708">
        <ele>928</ele>
        <time>2016-04-25T15:34:11Z</time>
      </trkpt>
      <trkpt lat="45.3677" lon="3.94711">
        <ele>928</ele>
        <time>2016-04-25T15:34:16Z</time>
      </trkpt>
      <trkpt lat="45.36736" lon="3.94761">
        <ele>927</ele>
        <time>2016-04-25T15:34:56Z</time>
      </trkpt>
      <trkpt lat="45.36734" lon="3.94766">
        <ele>926</ele>
        <time>2016-04-25T15:35:00Z</time>
      </trkpt>
      <trkpt lat="45.36732" lon="3.94772">
        <ele>926</ele>
        <time>2016-04-25T15:35:04Z</time>
      </trkpt>
      <trkpt lat="45.36731" lon="3.94779">
        <ele>925</ele>
        <time>2016-04-25T15:35:09Z</time>
      </trkpt>
      <trkpt lat="45.36723" lon="3.94802">
        <ele>924</ele>
        <time>2016-04-25T15:35:43Z</time>
      </trkpt>
      <trkpt lat="45.36717" lon="3.94814">
        <ele>923</ele>
        <time>2016-04-25T15:35:51Z</time>
      </trkpt>
      <trkpt lat="45.36716" lon="3.9482">
        <ele>923</ele>
        <time>2016-04-25T15:35:55Z</time>
      </trkpt>
      <trkpt lat="45.3669" lon="3.94863">
        <ele>918</ele>
        <time>2016-04-25T15:36:25Z</time>
      </trkpt>
      <trkpt lat="45.36617" lon="3.94935">
        <ele>910</ele>
        <time>2016-04-25T15:37:30Z</time>
      </trkpt>
      <trkpt lat="45.36586" lon="3.94959">
        <ele>909</ele>
        <time>2016-04-25T15:38:02Z</time>
      </trkpt>
      <trkpt lat="45.36554" lon="3.94977">
        <ele>907</ele>
        <time>2016-04-25T15:38:33Z</time>
      </trkpt>
      <trkpt lat="45.36519" lon="3.94987">
        <ele>904</ele>
        <time>2016-04-25T15:39:06Z</time>
      </trkpt>
      <trkpt lat="45.36494" lon="3.94997">
        <ele>904</ele>
        <time>2016-04-25T15:39:26Z</time>
      </trkpt>
      <trkpt lat="45.36489" lon="3.94999">
        <ele>903</ele>
        <time>2016-04-25T15:39:31Z</time>
      </trkpt>
      <trkpt lat="45.36469" lon="3.95012">
        <ele>902</ele>
        <time>2016-04-25T15:39:48Z</time>
      </trkpt>
      <trkpt lat="45.36454" lon="3.95015">
        <ele>901</ele>
        <time>2016-04-25T15:40:02Z</time>
      </trkpt>
      <trkpt lat="45.36438" lon="3.95015">
        <ele>900</ele>
        <time>2016-04-25T15:40:15Z</time>
      </trkpt>
      <trkpt lat="45.36399" lon="3.9501">
        <ele>897</ele>
        <time>2016-04-25T15:40:46Z</time>
      </trkpt>
      <trkpt lat="45.36394" lon="3.95008">
        <ele>897</ele>
        <time>2016-04-25T15:40:50Z</time>
      </trkpt>
      <trkpt lat="45.36389" lon="3.95007">
        <ele>897</ele>
        <time>2016-04-25T15:40:55Z</time>
      </trkpt>
      <trkpt lat="45.36357" lon="3.95027">
        <ele>895</ele>
        <time>2016-04-25T15:41:23Z</time>
      </trkpt>
      <trkpt lat="45.36323" lon="3.95058">
        <ele>890</ele>
        <time>2016-04-25T15:41:55Z</time>
      </trkpt>
      <trkpt lat="45.36295" lon="3.95098">
        <ele>888</ele>
        <time>2016-04-25T15:42:27Z</time>
      </trkpt>
      <trkpt lat="45.36148" lon="3.95201">
        <ele>880</ele>
        <time>2016-04-25T15:44:50Z</time>
      </trkpt>
      <trkpt lat="45.36112" lon="3.95232">
        <ele>878</ele>
        <time>2016-04-25T15:45:23Z</time>
      </trkpt>
      <trkpt lat="45.36106" lon="3.95235">
        <ele>876</ele>
        <time>2016-04-25T15:45:58Z</time>
      </trkpt>
      <trkpt lat="45.36084" lon="3.95256">
        <ele>877</ele>
        <time>2016-04-25T15:46:18Z</time>
      </trkpt>
      <trkpt lat="45.36053" lon="3.95277">
        <ele>879</ele>
        <time>2016-04-25T15:46:48Z</time>
      </trkpt>
      <trkpt lat="45.36048" lon="3.9528">
        <ele>879</ele>
        <time>2016-04-25T15:46:53Z</time>
      </trkpt>
      <trkpt lat="45.36039" lon="3.95285">
        <ele>879</ele>
        <time>2016-04-25T15:47:01Z</time>
      </trkpt>
      <trkpt lat="45.36016" lon="3.95301">
        <ele>878</ele>
        <time>2016-04-25T15:47:23Z</time>
      </trkpt>
      <trkpt lat="45.35987" lon="3.95307">
        <ele>880</ele>
        <time>2016-04-25T15:47:50Z</time>
      </trkpt>
      <trkpt lat="45.35984" lon="3.95312">
        <ele>879</ele>
        <time>2016-04-25T15:47:56Z</time>
      </trkpt>
      <trkpt lat="45.35981" lon="3.95314">
        <ele>880</ele>
        <time>2016-04-25T15:48:04Z</time>
      </trkpt>
      <trkpt lat="45.3598" lon="3.95308">
        <ele>880</ele>
        <time>2016-04-25T15:48:11Z</time>
      </trkpt>
      <trkpt lat="45.35975" lon="3.95308">
        <ele>879</ele>
        <time>2016-04-25T15:48:15Z</time>
      </trkpt>
      <trkpt lat="45.3597" lon="3.9531">
        <ele>878</ele>
        <time>2016-04-25T15:48:21Z</time>
      </trkpt>
      <trkpt lat="45.35961" lon="3.95316">
        <ele>877</ele>
        <time>2016-04-25T15:48:29Z</time>
      </trkpt>
      <trkpt lat="45.35858" lon="3.95357">
        <ele>869</ele>
        <time>2016-04-25T15:50:13Z</time>
      </trkpt>
      <trkpt lat="45.35853" lon="3.95358">
        <ele>868</ele>
        <time>2016-04-25T15:50:17Z</time>
      </trkpt>
      <trkpt lat="45.35839" lon="3.95363">
        <ele>868</ele>
        <time>2016-04-25T15:50:29Z</time>
      </trkpt>
      <trkpt lat="45.35802" lon="3.95386">
        <ele>867</ele>
        <time>2016-04-25T15:51:00Z</time>
      </trkpt>
      <trkpt lat="45.35785" lon="3.95403">
        <ele>867</ele>
        <time>2016-04-25T15:51:18Z</time>
      </trkpt>
      <trkpt lat="45.35767" lon="3.95417">
        <ele>864</ele>
        <time>2016-04-25T15:51:40Z</time>
      </trkpt>
      <trkpt lat="45.35725" lon="3.95487">
        <ele>868</ele>
        <time>2016-04-25T15:52:43Z</time>
      </trkpt>
      <trkpt lat="45.35718" lon="3.95497">
        <ele>869</ele>
        <time>2016-04-25T15:52:55Z</time>
      </trkpt>
      <trkpt lat="45.35711" lon="3.95497">
        <ele>872</ele>
        <time>2016-04-25T15:53:08Z</time>
      </trkpt>
      <trkpt lat="45.35708" lon="3.95493">
        <ele>872</ele>
        <time>2016-04-25T15:53:14Z</time>
      </trkpt>
      <trkpt lat="45.35706" lon="3.95499">
        <ele>873</ele>
        <time>2016-04-25T15:53:21Z</time>
      </trkpt>
      <trkpt lat="45.35707" lon="3.95541">
        <ele>877</ele>
        <time>2016-04-25T15:53:52Z</time>
      </trkpt>
      <trkpt lat="45.35704" lon="3.95547">
        <ele>878</ele>
        <time>2016-04-25T15:53:59Z</time>
      </trkpt>
      <trkpt lat="45.35705" lon="3.95562">
        <ele>879</ele>
        <time>2016-04-25T15:54:09Z</time>
      </trkpt>
      <trkpt lat="45.35707" lon="3.95568">
        <ele>880</ele>
        <time>2016-04-25T15:54:13Z</time>
      </trkpt>
      <trkpt lat="45.35712" lon="3.9559">
        <ele>884</ele>
        <time>2016-04-25T15:54:50Z</time>
      </trkpt>
      <trkpt lat="45.35713" lon="3.95618">
        <ele>886</ele>
        <time>2016-04-25T15:55:08Z</time>
      </trkpt>
      <trkpt lat="45.35709" lon="3.9563">
        <ele>887</ele>
        <time>2016-04-25T15:55:17Z</time>
      </trkpt>
      <trkpt lat="45.35709" lon="3.95638">
        <ele>888</ele>
        <time>2016-04-25T15:55:24Z</time>
      </trkpt>
      <trkpt lat="45.35704" lon="3.95665">
        <ele>890</ele>
        <time>2016-04-25T15:55:46Z</time>
      </trkpt>
      <trkpt lat="45.35698" lon="3.95666">
        <ele>891</ele>
        <time>2016-04-25T15:56:03Z</time>
      </trkpt>
      <trkpt lat="45.35693" lon="3.95665">
        <ele>892</ele>
        <time>2016-04-25T15:56:20Z</time>
      </trkpt>
      <trkpt lat="45.35688" lon="3.95667">
        <ele>892</ele>
        <time>2016-04-25T15:56:26Z</time>
      </trkpt>
      <trkpt lat="45.3568" lon="3.9566">
        <ele>893</ele>
        <time>2016-04-25T15:56:49Z</time>
      </trkpt>
      <trkpt lat="45.35666" lon="3.95653">
        <ele>894</ele>
        <time>2016-04-25T15:57:01Z</time>
      </trkpt>
      <trkpt lat="45.35661" lon="3.95652">
        <ele>894</ele>
        <time>2016-04-25T15:57:04Z</time>
      </trkpt>
      <trkpt lat="45.35654" lon="3.95644">
        <ele>895</ele>
        <time>2016-04-25T15:57:14Z</time>
      </trkpt>
      <trkpt lat="45.35655" lon="3.95636">
        <ele>896</ele>
        <time>2016-04-25T15:57:32Z</time>
      </trkpt>
      <trkpt lat="45.35573" lon="3.95686">
        <ele>880</ele>
        <time>2016-04-26T07:20:02Z</time>
      </trkpt>
      <trkpt lat="45.35574" lon="3.95682">
        <ele>880</ele>
        <time>2016-04-26T07:20:22Z</time>
      </trkpt>
      <trkpt lat="45.3557" lon="3.95679">
        <ele>880</ele>
        <time>2016-04-26T07:20:27Z</time>
      </trkpt>
      <trkpt lat="45.35566" lon="3.95674">
        <ele>880</ele>
        <time>2016-04-26T07:20:31Z</time>
      </trkpt>
      <trkpt lat="45.35564" lon="3.95667">
        <ele>879</ele>
        <time>2016-04-26T07:20:36Z</time>
      </trkpt>
      <trkpt lat="45.35559" lon="3.95663">
        <ele>878</ele>
        <time>2016-04-26T07:20:41Z</time>
      </trkpt>
      <trkpt lat="45.35578" lon="3.95683">
        <ele>880</ele>
        <time>2016-04-26T07:21:22Z</time>
      </trkpt>
      <trkpt lat="45.35576" lon="3.9569">
        <ele>883</ele>
        <time>2016-04-26T07:21:45Z</time>
      </trkpt>
      <trkpt lat="45.35561" lon="3.95707">
        <ele>883</ele>
        <time>2016-04-26T07:22:01Z</time>
      </trkpt>
      <trkpt lat="45.35528" lon="3.95729">
        <ele>884</ele>
        <time>2016-04-26T07:22:33Z</time>
      </trkpt>
      <trkpt lat="45.35512" lon="3.95748">
        <ele>883</ele>
        <time>2016-04-26T07:22:50Z</time>
      </trkpt>
      <trkpt lat="45.3547" lon="3.95835">
        <ele>885</ele>
        <time>2016-04-26T07:24:03Z</time>
      </trkpt>
      <trkpt lat="45.35463" lon="3.95844">
        <ele>886</ele>
        <time>2016-04-26T07:24:14Z</time>
      </trkpt>
      <trkpt lat="45.35425" lon="3.95921">
        <ele>892</ele>
        <time>2016-04-26T07:25:29Z</time>
      </trkpt>
      <trkpt lat="45.35397" lon="3.95954">
        <ele>896</ele>
        <time>2016-04-26T07:26:01Z</time>
      </trkpt>
      <trkpt lat="45.35374" lon="3.95972">
        <ele>898</ele>
        <time>2016-04-26T07:26:27Z</time>
      </trkpt>
      <trkpt lat="45.35372" lon="3.95978">
        <ele>899</ele>
        <time>2016-04-26T07:26:37Z</time>
      </trkpt>
      <trkpt lat="45.35366" lon="3.95989">
        <ele>898</ele>
        <time>2016-04-26T07:26:54Z</time>
      </trkpt>
      <trkpt lat="45.35334" lon="3.96025">
        <ele>901</ele>
        <time>2016-04-26T07:27:36Z</time>
      </trkpt>
      <trkpt lat="45.35329" lon="3.96028">
        <ele>902</ele>
        <time>2016-04-26T07:27:43Z</time>
      </trkpt>
      <trkpt lat="45.3532" lon="3.9604">
        <ele>904</ele>
        <time>2016-04-26T07:28:36Z</time>
      </trkpt>
      <trkpt lat="45.35318" lon="3.96047">
        <ele>903</ele>
        <time>2016-04-26T07:28:43Z</time>
      </trkpt>
      <trkpt lat="45.35313" lon="3.9605">
        <ele>903</ele>
        <time>2016-04-26T07:28:50Z</time>
      </trkpt>
      <trkpt lat="45.35311" lon="3.96056">
        <ele>903</ele>
        <time>2016-04-26T07:28:55Z</time>
      </trkpt>
      <trkpt lat="45.35302" lon="3.96102">
        <ele>906</ele>
        <time>2016-04-26T07:29:38Z</time>
      </trkpt>
      <trkpt lat="45.35282" lon="3.96156">
        <ele>909</ele>
        <time>2016-04-26T07:30:24Z</time>
      </trkpt>
      <trkpt lat="45.35267" lon="3.96184">
        <ele>909</ele>
        <time>2016-04-26T07:30:45Z</time>
      </trkpt>
      <trkpt lat="45.3526" lon="3.96194">
        <ele>911</ele>
        <time>2016-04-26T07:30:55Z</time>
      </trkpt>
      <trkpt lat="45.35231" lon="3.96223">
        <ele>913</ele>
        <time>2016-04-26T07:31:29Z</time>
      </trkpt>
      <trkpt lat="45.35205" lon="3.96256">
        <ele>916</ele>
        <time>2016-04-26T07:32:07Z</time>
      </trkpt>
      <trkpt lat="45.35157" lon="3.96302">
        <ele>920</ele>
        <time>2016-04-26T07:33:07Z</time>
      </trkpt>
      <trkpt lat="45.35114" lon="3.96369">
        <ele>934</ele>
        <time>2016-04-26T07:34:32Z</time>
      </trkpt>
      <trkpt lat="45.35111" lon="3.96376">
        <ele>936</ele>
        <time>2016-04-26T07:35:16Z</time>
      </trkpt>
      <trkpt lat="45.35064" lon="3.96434">
        <ele>946</ele>
        <time>2016-04-26T07:36:19Z</time>
      </trkpt>
      <trkpt lat="45.35056" lon="3.96442">
        <ele>948</ele>
        <time>2016-04-26T07:36:28Z</time>
      </trkpt>
      <trkpt lat="45.35054" lon="3.96445">
        <ele>948</ele>
        <time>2016-04-26T07:36:49Z</time>
      </trkpt>
      <trkpt lat="45.35036" lon="3.96456">
        <ele>949</ele>
        <time>2016-04-26T07:37:10Z</time>
      </trkpt>
      <trkpt lat="45.35023" lon="3.96468">
        <ele>950</ele>
        <time>2016-04-26T07:37:23Z</time>
      </trkpt>
      <trkpt lat="45.34983" lon="3.96499">
        <ele>952</ele>
        <time>2016-04-26T07:38:07Z</time>
      </trkpt>
      <trkpt lat="45.34927" lon="3.96526">
        <ele>953</ele>
        <time>2016-04-26T07:38:57Z</time>
      </trkpt>
      <trkpt lat="45.34903" lon="3.96546">
        <ele>954</ele>
        <time>2016-04-26T07:39:21Z</time>
      </trkpt>
      <trkpt lat="45.34895" lon="3.96557">
        <ele>953</ele>
        <time>2016-04-26T07:39:31Z</time>
      </trkpt>
      <trkpt lat="45.3489" lon="3.96559">
        <ele>953</ele>
        <time>2016-04-26T07:39:36Z</time>
      </trkpt>
      <trkpt lat="45.34882" lon="3.96567">
        <ele>953</ele>
        <time>2016-04-26T07:39:46Z</time>
      </trkpt>
      <trkpt lat="45.34828" lon="3.96566">
        <ele>959</ele>
        <time>2016-04-26T07:40:48Z</time>
      </trkpt>
      <trkpt lat="45.34818" lon="3.96565">
        <ele>959</ele>
        <time>2016-04-26T07:40:58Z</time>
      </trkpt>
      <trkpt lat="45.34804" lon="3.96561">
        <ele>959</ele>
        <time>2016-04-26T07:41:11Z</time>
      </trkpt>
      <trkpt lat="45.34799" lon="3.96558">
        <ele>959</ele>
        <time>2016-04-26T07:41:16Z</time>
      </trkpt>
      <trkpt lat="45.34775" lon="3.96565">
        <ele>960</ele>
        <time>2016-04-26T07:41:38Z</time>
      </trkpt>
      <trkpt lat="45.34747" lon="3.96598">
        <ele>964</ele>
        <time>2016-04-26T07:42:11Z</time>
      </trkpt>
      <trkpt lat="45.34744" lon="3.96602">
        <ele>964</ele>
        <time>2016-04-26T07:42:15Z</time>
      </trkpt>
      <trkpt lat="45.3474" lon="3.96606">
        <ele>964</ele>
        <time>2016-04-26T07:42:19Z</time>
      </trkpt>
      <trkpt lat="45.34735" lon="3.96609">
        <ele>965</ele>
        <time>2016-04-26T07:42:23Z</time>
      </trkpt>
      <trkpt lat="45.34725" lon="3.96614">
        <ele>966</ele>
        <time>2016-04-26T07:42:31Z</time>
      </trkpt>
      <trkpt lat="45.34686" lon="3.96616">
        <ele>965</ele>
        <time>2016-04-26T07:43:04Z</time>
      </trkpt>
      <trkpt lat="45.34648" lon="3.96633">
        <ele>964</ele>
        <time>2016-04-26T07:43:37Z</time>
      </trkpt>
      <trkpt lat="45.34646" lon="3.96638">
        <ele>965</ele>
        <time>2016-04-26T07:43:41Z</time>
      </trkpt>
      <trkpt lat="45.34601" lon="3.96697">
        <ele>962</ele>
        <time>2016-04-26T07:44:35Z</time>
      </trkpt>
      <trkpt lat="45.34593" lon="3.96705">
        <ele>962</ele>
        <time>2016-04-26T07:44:43Z</time>
      </trkpt>
      <trkpt lat="45.34563" lon="3.9674">
        <ele>959</ele>
        <time>2016-04-26T07:45:16Z</time>
      </trkpt>
      <trkpt lat="45.3453" lon="3.96768">
        <ele>956</ele>
        <time>2016-04-26T07:45:48Z</time>
      </trkpt>
      <trkpt lat="45.34292" lon="3.96916">
        <ele>942</ele>
        <time>2016-04-26T07:49:24Z</time>
      </trkpt>
      <trkpt lat="45.34287" lon="3.96916">
        <ele>942</ele>
        <time>2016-04-26T07:49:30Z</time>
      </trkpt>
      <trkpt lat="45.34281" lon="3.96911">
        <ele>942</ele>
        <time>2016-04-26T07:49:57Z</time>
      </trkpt>
      <trkpt lat="45.34271" lon="3.96912">
        <ele>941</ele>
        <time>2016-04-26T07:50:06Z</time>
      </trkpt>
      <trkpt lat="45.34257" lon="3.96902">
        <ele>940</ele>
        <time>2016-04-26T07:50:22Z</time>
      </trkpt>
      <trkpt lat="45.34252" lon="3.969">
        <ele>941</ele>
        <time>2016-04-26T07:50:27Z</time>
      </trkpt>
      <trkpt lat="45.34247" lon="3.96897">
        <ele>941</ele>
        <time>2016-04-26T07:50:32Z</time>
      </trkpt>
      <trkpt lat="45.34219" lon="3.96884">
        <ele>939</ele>
        <time>2016-04-26T07:51:22Z</time>
      </trkpt>
      <trkpt lat="45.34214" lon="3.96883">
        <ele>939</ele>
        <time>2016-04-26T07:51:26Z</time>
      </trkpt>
      <trkpt lat="45.34173" lon="3.96876">
        <ele>937</ele>
        <time>2016-04-26T07:51:59Z</time>
      </trkpt>
      <trkpt lat="45.34137" lon="3.96877">
        <ele>935</ele>
        <time>2016-04-26T07:52:31Z</time>
      </trkpt>
      <trkpt lat="45.341" lon="3.96898">
        <ele>932</ele>
        <time>2016-04-26T07:53:04Z</time>
      </trkpt>
      <trkpt lat="45.34059" lon="3.96906">
        <ele>931</ele>
        <time>2016-04-26T07:53:38Z</time>
      </trkpt>
      <trkpt lat="45.34054" lon="3.96907">
        <ele>931</ele>
        <time>2016-04-26T07:53:42Z</time>
      </trkpt>
      <trkpt lat="45.3405" lon="3.96908">
        <ele>931</ele>
        <time>2016-04-26T07:53:46Z</time>
      </trkpt>
      <trkpt lat="45.34047" lon="3.96904">
        <ele>930</ele>
        <time>2016-04-26T07:53:57Z</time>
      </trkpt>
      <trkpt lat="45.34043" lon="3.96907">
        <ele>930</ele>
        <time>2016-04-26T07:54:16Z</time>
      </trkpt>
      <trkpt lat="45.34038" lon="3.96907">
        <ele>929</ele>
        <time>2016-04-26T07:54:20Z</time>
      </trkpt>
      <trkpt lat="45.34023" lon="3.96906">
        <ele>929</ele>
        <time>2016-04-26T07:54:32Z</time>
      </trkpt>
      <trkpt lat="45.34018" lon="3.96905">
        <ele>929</ele>
        <time>2016-04-26T07:54:36Z</time>
      </trkpt>
      <trkpt lat="45.34013" lon="3.96907">
        <ele>929</ele>
        <time>2016-04-26T07:54:39Z</time>
      </trkpt>
      <trkpt lat="45.34007" lon="3.9691">
        <ele>929</ele>
        <time>2016-04-26T07:54:44Z</time>
      </trkpt>
      <trkpt lat="45.34003" lon="3.96911">
        <ele>929</ele>
        <time>2016-04-26T07:54:49Z</time>
      </trkpt>
      <trkpt lat="45.33989" lon="3.96919">
        <ele>929</ele>
        <time>2016-04-26T07:55:01Z</time>
      </trkpt>
      <trkpt lat="45.33871" lon="3.96965">
        <ele>923</ele>
        <time>2016-04-26T07:56:42Z</time>
      </trkpt>
      <trkpt lat="45.33832" lon="3.96974">
        <ele>922</ele>
        <time>2016-04-26T07:57:15Z</time>
      </trkpt>
      <trkpt lat="45.33792" lon="3.96975">
        <ele>923</ele>
        <time>2016-04-26T07:57:48Z</time>
      </trkpt>
      <trkpt lat="45.33787" lon="3.96974">
        <ele>923</ele>
        <time>2016-04-26T07:57:52Z</time>
      </trkpt>
      <trkpt lat="45.33751" lon="3.96965">
        <ele>921</ele>
        <time>2016-04-26T07:58:24Z</time>
      </trkpt>
      <trkpt lat="45.33712" lon="3.96971">
        <ele>919</ele>
        <time>2016-04-26T07:58:57Z</time>
      </trkpt>
      <trkpt lat="45.33677" lon="3.96986">
        <ele>917</ele>
        <time>2016-04-26T07:59:26Z</time>
      </trkpt>
      <trkpt lat="45.33644" lon="3.96997">
        <ele>914</ele>
        <time>2016-04-26T07:59:57Z</time>
      </trkpt>
      <trkpt lat="45.33615" lon="3.96995">
        <ele>912</ele>
        <time>2016-04-26T08:00:20Z</time>
      </trkpt>
      <trkpt lat="45.3361" lon="3.96995">
        <ele>913</ele>
        <time>2016-04-26T08:00:24Z</time>
      </trkpt>
      <trkpt lat="45.336" lon="3.96996">
        <ele>914</ele>
        <time>2016-04-26T08:00:32Z</time>
      </trkpt>
      <trkpt lat="45.3358" lon="3.96996">
        <ele>912</ele>
        <time>2016-04-26T08:00:49Z</time>
      </trkpt>
      <trkpt lat="45.33541" lon="3.97009">
        <ele>907</ele>
        <time>2016-04-26T08:01:23Z</time>
      </trkpt>
      <trkpt lat="45.33519" lon="3.97028">
        <ele>906</ele>
        <time>2016-04-26T08:01:46Z</time>
      </trkpt>
      <trkpt lat="45.33506" lon="3.9705">
        <ele>904</ele>
        <time>2016-04-26T08:02:02Z</time>
      </trkpt>
      <trkpt lat="45.33425" lon="3.97109">
        <ele>896</ele>
        <time>2016-04-26T08:03:15Z</time>
      </trkpt>
      <trkpt lat="45.33416" lon="3.97114">
        <ele>895</ele>
        <time>2016-04-26T08:03:23Z</time>
      </trkpt>
      <trkpt lat="45.33361" lon="3.97165">
        <ele>893</ele>
        <time>2016-04-26T08:04:16Z</time>
      </trkpt>
      <trkpt lat="45.3335" lon="3.97171">
        <ele>892</ele>
        <time>2016-04-26T08:04:31Z</time>
      </trkpt>
      <trkpt lat="45.33211" lon="3.97337">
        <ele>877</ele>
        <time>2016-04-26T08:07:05Z</time>
      </trkpt>
      <trkpt lat="45.33145" lon="3.97398">
        <ele>873</ele>
        <time>2016-04-26T08:08:10Z</time>
      </trkpt>
      <trkpt lat="45.33131" lon="3.97405">
        <ele>873</ele>
        <time>2016-04-26T08:08:22Z</time>
      </trkpt>
      <trkpt lat="45.33127" lon="3.97408">
        <ele>872</ele>
        <time>2016-04-26T08:08:26Z</time>
      </trkpt>
      <trkpt lat="45.33019" lon="3.97506">
        <ele>869</ele>
        <time>2016-04-26T08:10:14Z</time>
      </trkpt>
      <trkpt lat="45.32844" lon="3.97656">
        <ele>862</ele>
        <time>2016-04-26T08:12:59Z</time>
      </trkpt>
      <trkpt lat="45.32814" lon="3.97677">
        <ele>860</ele>
        <time>2016-04-26T08:13:32Z</time>
      </trkpt>
      <trkpt lat="45.32809" lon="3.97679">
        <ele>860</ele>
        <time>2016-04-26T08:14:03Z</time>
      </trkpt>
      <trkpt lat="45.32795" lon="3.9769">
        <ele>860</ele>
        <time>2016-04-26T08:14:54Z</time>
      </trkpt>
      <trkpt lat="45.32792" lon="3.97694">
        <ele>861</ele>
        <time>2016-04-26T08:15:03Z</time>
      </trkpt>
      <trkpt lat="45.32787" lon="3.97697">
        <ele>860</ele>
        <time>2016-04-26T08:15:21Z</time>
      </trkpt>
      <trkpt lat="45.32714" lon="3.97793">
        <ele>861</ele>
        <time>2016-04-26T08:16:56Z</time>
      </trkpt>
      <trkpt lat="45.32709" lon="3.97795">
        <ele>861</ele>
        <time>2016-04-26T08:17:03Z</time>
      </trkpt>
      <trkpt lat="45.32704" lon="3.97799">
        <ele>861</ele>
        <time>2016-04-26T08:17:08Z</time>
      </trkpt>
      <trkpt lat="45.32672" lon="3.97871">
        <ele>858</ele>
        <time>2016-04-26T08:18:01Z</time>
      </trkpt>
      <trkpt lat="45.3267" lon="3.97877">
        <ele>857</ele>
        <time>2016-04-26T08:18:05Z</time>
      </trkpt>
      <trkpt lat="45.32663" lon="3.97895">
        <ele>857</ele>
        <time>2016-04-26T08:18:19Z</time>
      </trkpt>
      <trkpt lat="45.32663" lon="3.97902">
        <ele>856</ele>
        <time>2016-04-26T08:18:24Z</time>
      </trkpt>
      <trkpt lat="45.32662" lon="3.97909">
        <ele>855</ele>
        <time>2016-04-26T08:18:29Z</time>
      </trkpt>
      <trkpt lat="45.32662" lon="3.97924">
        <ele>855</ele>
        <time>2016-04-26T08:18:38Z</time>
      </trkpt>
      <trkpt lat="45.32656" lon="3.97957">
        <ele>853</ele>
        <time>2016-04-26T08:19:00Z</time>
      </trkpt>
      <trkpt lat="45.32644" lon="3.97971">
        <ele>853</ele>
        <time>2016-04-26T08:19:13Z</time>
      </trkpt>
      <trkpt lat="45.32634" lon="3.97987">
        <ele>853</ele>
        <time>2016-04-26T08:19:27Z</time>
      </trkpt>
      <trkpt lat="45.32633" lon="3.97995">
        <ele>853</ele>
        <time>2016-04-26T08:19:32Z</time>
      </trkpt>
      <trkpt lat="45.3263" lon="3.98001">
        <ele>852</ele>
        <time>2016-04-26T08:19:36Z</time>
      </trkpt>
      <trkpt lat="45.32625" lon="3.98005">
        <ele>853</ele>
        <time>2016-04-26T08:19:40Z</time>
      </trkpt>
      <trkpt lat="45.32619" lon="3.98032">
        <ele>855</ele>
        <time>2016-04-26T08:19:58Z</time>
      </trkpt>
      <trkpt lat="45.3261" lon="3.98038">
        <ele>855</ele>
        <time>2016-04-26T08:20:06Z</time>
      </trkpt>
      <trkpt lat="45.32552" lon="3.98112">
        <ele>863</ele>
        <time>2016-04-26T08:21:28Z</time>
      </trkpt>
      <trkpt lat="45.32527" lon="3.98133">
        <ele>868</ele>
        <time>2016-04-26T08:22:11Z</time>
      </trkpt>
      <trkpt lat="45.32516" lon="3.98149">
        <ele>871</ele>
        <time>2016-04-26T08:22:29Z</time>
      </trkpt>
      <trkpt lat="45.32494" lon="3.98168">
        <ele>877</ele>
        <time>2016-04-26T08:23:05Z</time>
      </trkpt>
      <trkpt lat="45.3249" lon="3.98172">
        <ele>878</ele>
        <time>2016-04-26T08:23:11Z</time>
      </trkpt>
      <trkpt lat="45.32485" lon="3.98172">
        <ele>879</ele>
        <time>2016-04-26T08:23:16Z</time>
      </trkpt>
      <trkpt lat="45.32481" lon="3.98176">
        <ele>879</ele>
        <time>2016-04-26T08:23:22Z</time>
      </trkpt>
      <trkpt lat="45.3247" lon="3.98193">
        <ele>882</ele>
        <time>2016-04-26T08:23:54Z</time>
      </trkpt>
      <trkpt lat="45.32447" lon="3.98217">
        <ele>887</ele>
        <time>2016-04-26T08:24:28Z</time>
      </trkpt>
      <trkpt lat="45.32443" lon="3.98219">
        <ele>887</ele>
        <time>2016-04-26T08:24:34Z</time>
      </trkpt>
      <trkpt lat="45.32438" lon="3.98219">
        <ele>887</ele>
        <time>2016-04-26T08:24:38Z</time>
      </trkpt>
      <trkpt lat="45.32433" lon="3.98222">
        <ele>887</ele>
        <time>2016-04-26T08:24:44Z</time>
      </trkpt>
      <trkpt lat="45.32428" lon="3.98223">
        <ele>888</ele>
        <time>2016-04-26T08:24:49Z</time>
      </trkpt>
      <trkpt lat="45.32423" lon="3.98222">
        <ele>888</ele>
        <time>2016-04-26T08:24:53Z</time>
      </trkpt>
      <trkpt lat="45.3242" lon="3.98227">
        <ele>888</ele>
        <time>2016-04-26T08:24:59Z</time>
      </trkpt>
      <trkpt lat="45.32415" lon="3.98226">
        <ele>889</ele>
        <time>2016-04-26T08:25:05Z</time>
      </trkpt>
      <trkpt lat="45.3241" lon="3.98221">
        <ele>892</ele>
        <time>2016-04-26T08:25:18Z</time>
      </trkpt>
      <trkpt lat="45.32405" lon="3.98222">
        <ele>892</ele>
        <time>2016-04-26T08:25:22Z</time>
      </trkpt>
      <trkpt lat="45.324" lon="3.98235">
        <ele>892</ele>
        <time>2016-04-26T08:25:31Z</time>
      </trkpt>
      <trkpt lat="45.32395" lon="3.98237">
        <ele>892</ele>
        <time>2016-04-26T08:25:35Z</time>
      </trkpt>
      <trkpt lat="45.32377" lon="3.98252">
        <ele>893</ele>
        <time>2016-04-26T08:25:52Z</time>
      </trkpt>
      <trkpt lat="45.32372" lon="3.98251">
        <ele>893</ele>
        <time>2016-04-26T08:25:56Z</time>
      </trkpt>
      <trkpt lat="45.32367" lon="3.98254">
        <ele>893</ele>
        <time>2016-04-26T08:26:02Z</time>
      </trkpt>
      <trkpt lat="45.32339" lon="3.98266">
        <ele>894</ele>
        <time>2016-04-26T08:26:40Z</time>
      </trkpt>
      <trkpt lat="45.3234" lon="3.98258">
        <ele>894</ele>
        <time>2016-04-26T08:27:13Z</time>
      </trkpt>
      <trkpt lat="45.32342" lon="3.98251">
        <ele>894</ele>
        <time>2016-04-26T08:27:18Z</time>
      </trkpt>
      <trkpt lat="45.3235" lon="3.98243">
        <ele>894</ele>
        <time>2016-04-26T08:27:26Z</time>
      </trkpt>
      <trkpt lat="45.32343" lon="3.98238">
        <ele>894</ele>
        <time>2016-04-26T08:27:57Z</time>
      </trkpt>
      <trkpt lat="45.32338" lon="3.98238">
        <ele>894</ele>
        <time>2016-04-26T08:28:09Z</time>
      </trkpt>
      <trkpt lat="45.32344" lon="3.9825">
        <ele>894</ele>
        <time>2016-04-26T08:28:23Z</time>
      </trkpt>
      <trkpt lat="45.32343" lon="3.98254">
        <ele>898</ele>
        <time>2016-04-26T08:32:15Z</time>
      </trkpt>
      <trkpt lat="45.32338" lon="3.98255">
        <ele>900</ele>
        <time>2016-04-26T08:32:19Z</time>
      </trkpt>
      <trkpt lat="45.32333" lon="3.98256">
        <ele>901</ele>
        <time>2016-04-26T08:32:24Z</time>
      </trkpt>
      <trkpt lat="45.32326" lon="3.98236">
        <ele>894</ele>
        <time>2016-04-26T08:32:44Z</time>
      </trkpt>
      <trkpt lat="45.32322" lon="3.98231">
        <ele>894</ele>
        <time>2016-04-26T08:32:51Z</time>
      </trkpt>
      <trkpt lat="45.32318" lon="3.98229">
        <ele>895</ele>
        <time>2016-04-26T08:32:56Z</time>
      </trkpt>
      <trkpt lat="45.32309" lon="3.9823">
        <ele>895</ele>
        <time>2016-04-26T08:33:05Z</time>
      </trkpt>
      <trkpt lat="45.32166" lon="3.98172">
        <ele>884</ele>
        <time>2016-04-26T08:35:37Z</time>
      </trkpt>
      <trkpt lat="45.32161" lon="3.98169">
        <ele>884</ele>
        <time>2016-04-26T08:35:42Z</time>
      </trkpt>
      <trkpt lat="45.32115" lon="3.98152">
        <ele>881</ele>
        <time>2016-04-26T08:36:19Z</time>
      </trkpt>
      <trkpt lat="45.32091" lon="3.98155">
        <ele>881</ele>
        <time>2016-04-26T08:36:40Z</time>
      </trkpt>
      <trkpt lat="45.32053" lon="3.98176">
        <ele>877</ele>
        <time>2016-04-26T08:37:12Z</time>
      </trkpt>
      <trkpt lat="45.32014" lon="3.98188">
        <ele>875</ele>
        <time>2016-04-26T08:37:45Z</time>
      </trkpt>
      <trkpt lat="45.31973" lon="3.98195">
        <ele>872</ele>
        <time>2016-04-26T08:38:17Z</time>
      </trkpt>
      <trkpt lat="45.31935" lon="3.98214">
        <ele>867</ele>
        <time>2016-04-26T08:38:48Z</time>
      </trkpt>
      <trkpt lat="45.31847" lon="3.98287">
        <ele>861</ele>
        <time>2016-04-26T08:40:39Z</time>
      </trkpt>
      <trkpt lat="45.31842" lon="3.9829">
        <ele>861</ele>
        <time>2016-04-26T08:40:44Z</time>
      </trkpt>
      <trkpt lat="45.31835" lon="3.98298">
        <ele>861</ele>
        <time>2016-04-26T08:40:54Z</time>
      </trkpt>
      <trkpt lat="45.31807" lon="3.98314">
        <ele>861</ele>
        <time>2016-04-26T08:41:20Z</time>
      </trkpt>
      <trkpt lat="45.31784" lon="3.9833">
        <ele>863</ele>
        <time>2016-04-26T08:41:43Z</time>
      </trkpt>
      <trkpt lat="45.3173" lon="3.98387">
        <ele>867</ele>
        <time>2016-04-26T08:42:46Z</time>
      </trkpt>
      <trkpt lat="45.31708" lon="3.98403">
        <ele>868</ele>
        <time>2016-04-26T08:43:11Z</time>
      </trkpt>
      <trkpt lat="45.31703" lon="3.98403">
        <ele>869</ele>
        <time>2016-04-26T08:43:19Z</time>
      </trkpt>
      <trkpt lat="45.31693" lon="3.98405">
        <ele>870</ele>
        <time>2016-04-26T08:43:30Z</time>
      </trkpt>
      <trkpt lat="45.31448" lon="3.98485">
        <ele>871</ele>
        <time>2016-04-26T08:47:09Z</time>
      </trkpt>
      <trkpt lat="45.31367" lon="3.98522">
        <ele>865</ele>
        <time>2016-04-26T08:48:20Z</time>
      </trkpt>
      <trkpt lat="45.31326" lon="3.98533">
        <ele>865</ele>
        <time>2016-04-26T08:48:51Z</time>
      </trkpt>
      <trkpt lat="45.31308" lon="3.98548">
        <ele>867</ele>
        <time>2016-04-26T08:49:08Z</time>
      </trkpt>
      <trkpt lat="45.31301" lon="3.98556">
        <ele>867</ele>
        <time>2016-04-26T08:49:17Z</time>
      </trkpt>
      <trkpt lat="45.31175" lon="3.98679">
        <ele>870</ele>
        <time>2016-04-26T08:51:25Z</time>
      </trkpt>
      <trkpt lat="45.31146" lon="3.98706">
        <ele>871</ele>
        <time>2016-04-26T08:51:56Z</time>
      </trkpt>
      <trkpt lat="45.31078" lon="3.98777">
        <ele>871</ele>
        <time>2016-04-26T08:53:07Z</time>
      </trkpt>
      <trkpt lat="45.31026" lon="3.98821">
        <ele>874</ele>
        <time>2016-04-26T08:54:00Z</time>
      </trkpt>
      <trkpt lat="45.31021" lon="3.98824">
        <ele>874</ele>
        <time>2016-04-26T08:54:06Z</time>
      </trkpt>
      <trkpt lat="45.30996" lon="3.98847">
        <ele>875</ele>
        <time>2016-04-26T08:54:32Z</time>
      </trkpt>
      <trkpt lat="45.30987" lon="3.98851">
        <ele>875</ele>
        <time>2016-04-26T08:54:46Z</time>
      </trkpt>
      <trkpt lat="45.30982" lon="3.98853">
        <ele>876</ele>
        <time>2016-04-26T08:54:54Z</time>
      </trkpt>
      <trkpt lat="45.30937" lon="3.98882">
        <ele>876</ele>
        <time>2016-04-26T08:55:36Z</time>
      </trkpt>
      <trkpt lat="45.30896" lon="3.98881">
        <ele>876</ele>
        <time>2016-04-26T08:56:09Z</time>
      </trkpt>
      <trkpt lat="45.30832" lon="3.98863">
        <ele>874</ele>
        <time>2016-04-26T08:57:02Z</time>
      </trkpt>
      <trkpt lat="45.30822" lon="3.98859">
        <ele>875</ele>
        <time>2016-04-26T08:57:10Z</time>
      </trkpt>
      <trkpt lat="45.30802" lon="3.98848">
        <ele>876</ele>
        <time>2016-04-26T08:57:26Z</time>
      </trkpt>
      <trkpt lat="45.30778" lon="3.98838">
        <ele>876</ele>
        <time>2016-04-26T08:57:46Z</time>
      </trkpt>
      <trkpt lat="45.30744" lon="3.98835">
        <ele>875</ele>
        <time>2016-04-26T08:58:17Z</time>
      </trkpt>
      <trkpt lat="45.30739" lon="3.98835">
        <ele>875</ele>
        <time>2016-04-26T08:58:21Z</time>
      </trkpt>
      <trkpt lat="45.30708" lon="3.9884">
        <ele>876</ele>
        <time>2016-04-26T08:58:46Z</time>
      </trkpt>
      <trkpt lat="45.30658" lon="3.98856">
        <ele>876</ele>
        <time>2016-04-26T08:59:27Z</time>
      </trkpt>
      <trkpt lat="45.30568" lon="3.98869">
        <ele>876</ele>
        <time>2016-04-26T09:00:46Z</time>
      </trkpt>
      <trkpt lat="45.30554" lon="3.98874">
        <ele>876</ele>
        <time>2016-04-26T09:00:58Z</time>
      </trkpt>
      <trkpt lat="45.30548" lon="3.98876">
        <ele>876</ele>
        <time>2016-04-26T09:01:03Z</time>
      </trkpt>
      <trkpt lat="45.30528" lon="3.98874">
        <ele>877</ele>
        <time>2016-04-26T09:01:24Z</time>
      </trkpt>
      <trkpt lat="45.30497" lon="3.98882">
        <ele>878</ele>
        <time>2016-04-26T09:01:54Z</time>
      </trkpt>
      <trkpt lat="45.30479" lon="3.98893">
        <ele>878</ele>
        <time>2016-04-26T09:02:10Z</time>
      </trkpt>
      <trkpt lat="45.30477" lon="3.989">
        <ele>877</ele>
        <time>2016-04-26T09:02:16Z</time>
      </trkpt>
      <trkpt lat="45.30476" lon="3.98904">
        <ele>877</ele>
        <time>2016-04-26T09:02:24Z</time>
      </trkpt>
      <trkpt lat="45.30477" lon="3.98908">
        <ele>877</ele>
        <time>2016-04-26T09:02:31Z</time>
      </trkpt>
      <trkpt lat="45.30477" lon="3.98911">
        <ele>877</ele>
        <time>2016-04-26T09:03:16Z</time>
      </trkpt>
      <trkpt lat="45.30482" lon="3.98918">
        <ele>878</ele>
        <time>2016-04-26T09:05:50Z</time>
      </trkpt>
      <trkpt lat="45.3048" lon="3.98921">
        <ele>881</ele>
        <time>2016-04-26T09:06:18Z</time>
      </trkpt>
      <trkpt lat="45.30476" lon="3.98919">
        <ele>880</ele>
        <time>2016-04-26T09:06:25Z</time>
      </trkpt>
      <trkpt lat="45.30473" lon="3.98915">
        <ele>878</ele>
        <time>2016-04-26T09:06:35Z</time>
      </trkpt>
      <trkpt lat="45.30475" lon="3.9891">
        <ele>882</ele>
        <time>2016-04-26T09:15:36Z</time>
      </trkpt>
      <trkpt lat="45.30477" lon="3.98909">
        <ele>882</ele>
        <time>2016-04-26T09:16:11Z</time>
      </trkpt>
      <trkpt lat="45.30472" lon="3.98903">
        <ele>882</ele>
        <time>2016-04-26T09:16:36Z</time>
      </trkpt>
      <trkpt lat="45.30471" lon="3.98897">
        <ele>885</ele>
        <time>2016-04-26T09:16:41Z</time>
      </trkpt>
      <trkpt lat="45.30472" lon="3.98884">
        <ele>886</ele>
        <time>2016-04-26T09:16:50Z</time>
      </trkpt>
      <trkpt lat="45.30446" lon="3.9884">
        <ele>886</ele>
        <time>2016-04-26T09:17:26Z</time>
      </trkpt>
      <trkpt lat="45.30428" lon="3.98799">
        <ele>887</ele>
        <time>2016-04-26T09:17:58Z</time>
      </trkpt>
      <trkpt lat="45.30426" lon="3.98785">
        <ele>887</ele>
        <time>2016-04-26T09:18:07Z</time>
      </trkpt>
      <trkpt lat="45.30424" lon="3.98779">
        <ele>887</ele>
        <time>2016-04-26T09:18:12Z</time>
      </trkpt>
      <trkpt lat="45.30419" lon="3.98776">
        <ele>886</ele>
        <time>2016-04-26T09:18:17Z</time>
      </trkpt>
      <trkpt lat="45.3041" lon="3.98776">
        <ele>885</ele>
        <time>2016-04-26T09:18:25Z</time>
      </trkpt>
      <trkpt lat="45.30405" lon="3.98774">
        <ele>884</ele>
        <time>2016-04-26T09:18:29Z</time>
      </trkpt>
      <trkpt lat="45.30396" lon="3.98774">
        <ele>883</ele>
        <time>2016-04-26T09:18:40Z</time>
      </trkpt>
      <trkpt lat="45.30394" lon="3.98781">
        <ele>883</ele>
        <time>2016-04-26T09:18:45Z</time>
      </trkpt>
      <trkpt lat="45.30394" lon="3.98788">
        <ele>882</ele>
        <time>2016-04-26T09:18:49Z</time>
      </trkpt>
      <trkpt lat="45.30393" lon="3.98786">
        <ele>882</ele>
        <time>2016-04-26T09:19:04Z</time>
      </trkpt>
      <trkpt lat="45.30394" lon="3.98772">
        <ele>882</ele>
        <time>2016-04-26T09:19:13Z</time>
      </trkpt>
      <trkpt lat="45.30389" lon="3.9876">
        <ele>882</ele>
        <time>2016-04-26T09:19:22Z</time>
      </trkpt>
      <trkpt lat="45.30391" lon="3.98752">
        <ele>881</ele>
        <time>2016-04-26T09:19:26Z</time>
      </trkpt>
      <trkpt lat="45.30392" lon="3.98745">
        <ele>881</ele>
        <time>2016-04-26T09:19:31Z</time>
      </trkpt>
      <trkpt lat="45.30389" lon="3.98739">
        <ele>880</ele>
        <time>2016-04-26T09:19:36Z</time>
      </trkpt>
      <trkpt lat="45.30381" lon="3.9873">
        <ele>880</ele>
        <time>2016-04-26T09:19:47Z</time>
      </trkpt>
      <trkpt lat="45.30379" lon="3.98726">
        <ele>879</ele>
        <time>2016-04-26T09:19:56Z</time>
      </trkpt>
      <trkpt lat="45.30373" lon="3.98711">
        <ele>878</ele>
        <time>2016-04-26T09:20:20Z</time>
      </trkpt>
      <trkpt lat="45.30371" lon="3.98683">
        <ele>877</ele>
        <time>2016-04-26T09:20:39Z</time>
      </trkpt>
      <trkpt lat="45.30368" lon="3.98676">
        <ele>877</ele>
        <time>2016-04-26T09:20:44Z</time>
      </trkpt>
      <trkpt lat="45.30343" lon="3.98666">
        <ele>874</ele>
        <time>2016-04-26T09:21:05Z</time>
      </trkpt>
      <trkpt lat="45.30334" lon="3.98672">
        <ele>873</ele>
        <time>2016-04-26T09:21:14Z</time>
      </trkpt>
      <trkpt lat="45.30324" lon="3.98671">
        <ele>873</ele>
        <time>2016-04-26T09:21:23Z</time>
      </trkpt>
      <trkpt lat="45.3031" lon="3.98664">
        <ele>872</ele>
        <time>2016-04-26T09:21:34Z</time>
      </trkpt>
      <trkpt lat="45.30269" lon="3.9865">
        <ele>869</ele>
        <time>2016-04-26T09:22:07Z</time>
      </trkpt>
      <trkpt lat="45.30238" lon="3.98628">
        <ele>866</ele>
        <time>2016-04-26T09:22:38Z</time>
      </trkpt>
      <trkpt lat="45.30127" lon="3.98519">
        <ele>866</ele>
        <time>2016-04-26T09:24:32Z</time>
      </trkpt>
      <trkpt lat="45.30122" lon="3.98517">
        <ele>866</ele>
        <time>2016-04-26T09:24:36Z</time>
      </trkpt>
      <trkpt lat="45.30112" lon="3.98514">
        <ele>865</ele>
        <time>2016-04-26T09:24:44Z</time>
      </trkpt>
      <trkpt lat="45.30072" lon="3.98509">
        <ele>866</ele>
        <time>2016-04-26T09:25:18Z</time>
      </trkpt>
      <trkpt lat="45.30001" lon="3.98488">
        <ele>866</ele>
        <time>2016-04-26T09:26:20Z</time>
      </trkpt>
      <trkpt lat="45.29972" lon="3.98488">
        <ele>864</ele>
        <time>2016-04-26T09:26:44Z</time>
      </trkpt>
      <trkpt lat="45.29969" lon="3.98493">
        <ele>863</ele>
        <time>2016-04-26T09:28:00Z</time>
      </trkpt>
      <trkpt lat="45.29965" lon="3.98495">
        <ele>862</ele>
        <time>2016-04-26T09:28:10Z</time>
      </trkpt>
      <trkpt lat="45.2996" lon="3.98493">
        <ele>861</ele>
        <time>2016-04-26T09:28:14Z</time>
      </trkpt>
      <trkpt lat="45.29931" lon="3.98495">
        <ele>854</ele>
        <time>2016-04-26T09:28:47Z</time>
      </trkpt>
      <trkpt lat="45.2991" lon="3.98499">
        <ele>852</ele>
        <time>2016-04-26T09:29:12Z</time>
      </trkpt>
      <trkpt lat="45.29878" lon="3.9852">
        <ele>851</ele>
        <time>2016-04-26T09:29:42Z</time>
      </trkpt>
      <trkpt lat="45.29842" lon="3.98539">
        <ele>849</ele>
        <time>2016-04-26T09:30:14Z</time>
      </trkpt>
      <trkpt lat="45.29825" lon="3.98545">
        <ele>848</ele>
        <time>2016-04-26T09:30:34Z</time>
      </trkpt>
      <trkpt lat="45.29787" lon="3.98563">
        <ele>844</ele>
        <time>2016-04-26T09:31:06Z</time>
      </trkpt>
      <trkpt lat="45.29755" lon="3.98583">
        <ele>840</ele>
        <time>2016-04-26T09:31:37Z</time>
      </trkpt>
      <trkpt lat="45.29726" lon="3.98573">
        <ele>836</ele>
        <time>2016-04-26T09:32:03Z</time>
      </trkpt>
      <trkpt lat="45.29721" lon="3.98578">
        <ele>835</ele>
        <time>2016-04-26T09:32:08Z</time>
      </trkpt>
      <trkpt lat="45.2972" lon="3.98581">
        <ele>835</ele>
        <time>2016-04-26T09:32:15Z</time>
      </trkpt>
      <trkpt lat="45.29715" lon="3.9858">
        <ele>835</ele>
        <time>2016-04-26T09:32:28Z</time>
      </trkpt>
      <trkpt lat="45.29706" lon="3.98574">
        <ele>835</ele>
        <time>2016-04-26T09:32:37Z</time>
      </trkpt>
      <trkpt lat="45.29684" lon="3.98543">
        <ele>834</ele>
        <time>2016-04-26T09:33:01Z</time>
      </trkpt>
      <trkpt lat="45.29681" lon="3.98538">
        <ele>834</ele>
        <time>2016-04-26T09:33:05Z</time>
      </trkpt>
      <trkpt lat="45.29667" lon="3.98483">
        <ele>832</ele>
        <time>2016-04-26T09:33:35Z</time>
      </trkpt>
      <trkpt lat="45.29637" lon="3.9845">
        <ele>833</ele>
        <time>2016-04-26T09:34:10Z</time>
      </trkpt>
      <trkpt lat="45.29627" lon="3.98447">
        <ele>834</ele>
        <time>2016-04-26T09:34:22Z</time>
      </trkpt>
      <trkpt lat="45.29626" lon="3.98444">
        <ele>835</ele>
        <time>2016-04-26T09:34:29Z</time>
      </trkpt>
      <trkpt lat="45.29593" lon="3.98409">
        <ele>835</ele>
        <time>2016-04-26T09:35:01Z</time>
      </trkpt>
      <trkpt lat="45.29556" lon="3.98387">
        <ele>837</ele>
        <time>2016-04-26T09:35:34Z</time>
      </trkpt>
      <trkpt lat="45.29528" lon="3.98325">
        <ele>836</ele>
        <time>2016-04-26T09:37:13Z</time>
      </trkpt>
      <trkpt lat="45.29526" lon="3.98318">
        <ele>835</ele>
        <time>2016-04-26T09:37:21Z</time>
      </trkpt>
      <trkpt lat="45.2953" lon="3.98297">
        <ele>830</ele>
        <time>2016-04-26T09:37:34Z</time>
      </trkpt>
      <trkpt lat="45.29494" lon="3.98181">
        <ele>822</ele>
        <time>2016-04-26T09:38:46Z</time>
      </trkpt>
      <trkpt lat="45.29491" lon="3.98181">
        <ele>821</ele>
        <time>2016-04-26T09:39:02Z</time>
      </trkpt>
      <trkpt lat="45.29488" lon="3.9818">
        <ele>821</ele>
        <time>2016-04-26T09:39:26Z</time>
      </trkpt>
      <trkpt lat="45.29461" lon="3.9812">
        <ele>812</ele>
        <time>2016-04-26T09:40:09Z</time>
      </trkpt>
      <trkpt lat="45.29448" lon="3.98035">
        <ele>806</ele>
        <time>2016-04-26T09:41:00Z</time>
      </trkpt>
      <trkpt lat="45.29446" lon="3.98032">
        <ele>806</ele>
        <time>2016-04-26T09:41:10Z</time>
      </trkpt>
      <trkpt lat="45.29443" lon="3.98019">
        <ele>806</ele>
        <time>2016-04-26T09:41:19Z</time>
      </trkpt>
      <trkpt lat="45.29418" lon="3.97996">
        <ele>802</ele>
        <time>2016-04-26T09:41:43Z</time>
      </trkpt>
      <trkpt lat="45.2941" lon="3.97993">
        <ele>801</ele>
        <time>2016-04-26T09:42:15Z</time>
      </trkpt>
      <trkpt lat="45.29391" lon="3.97991">
        <ele>800</ele>
        <time>2016-04-26T09:42:47Z</time>
      </trkpt>
      <trkpt lat="45.29356" lon="3.97979">
        <ele>796</ele>
        <time>2016-04-26T09:43:19Z</time>
      </trkpt>
      <trkpt lat="45.29352" lon="3.97977">
        <ele>796</ele>
        <time>2016-04-26T09:43:24Z</time>
      </trkpt>
      <trkpt lat="45.2933" lon="3.9797">
        <ele>791</ele>
        <time>2016-04-26T09:43:40Z</time>
      </trkpt>
      <trkpt lat="45.29326" lon="3.97966">
        <ele>791</ele>
        <time>2016-04-26T09:43:43Z</time>
      </trkpt>
      <trkpt lat="45.29318" lon="3.9796">
        <ele>790</ele>
        <time>2016-04-26T09:43:49Z</time>
      </trkpt>
      <trkpt lat="45.29314" lon="3.97959">
        <ele>789</ele>
        <time>2016-04-26T09:43:53Z</time>
      </trkpt>
      <trkpt lat="45.29308" lon="3.97958">
        <ele>790</ele>
        <time>2016-04-26T09:43:57Z</time>
      </trkpt>
      <trkpt lat="45.29245" lon="3.97943">
        <ele>782</ele>
        <time>2016-04-26T09:44:52Z</time>
      </trkpt>
      <trkpt lat="45.29208" lon="3.97949">
        <ele>778</ele>
        <time>2016-04-26T09:45:25Z</time>
      </trkpt>
      <trkpt lat="45.29194" lon="3.97944">
        <ele>778</ele>
        <time>2016-04-26T09:45:39Z</time>
      </trkpt>
      <trkpt lat="45.29171" lon="3.97929">
        <ele>775</ele>
        <time>2016-04-26T09:46:03Z</time>
      </trkpt>
      <trkpt lat="45.29158" lon="3.97937">
        <ele>771</ele>
        <time>2016-04-26T09:46:15Z</time>
      </trkpt>
      <trkpt lat="45.2915" lon="3.97946">
        <ele>770</ele>
        <time>2016-04-26T09:46:22Z</time>
      </trkpt>
      <trkpt lat="45.29145" lon="3.97958">
        <ele>769</ele>
        <time>2016-04-26T09:46:30Z</time>
      </trkpt>
      <trkpt lat="45.29134" lon="3.97972">
        <ele>769</ele>
        <time>2016-04-26T09:46:44Z</time>
      </trkpt>
      <trkpt lat="45.29117" lon="3.97986">
        <ele>770</ele>
        <time>2016-04-26T09:47:01Z</time>
      </trkpt>
      <trkpt lat="45.29111" lon="3.97985">
        <ele>770</ele>
        <time>2016-04-26T09:47:06Z</time>
      </trkpt>
      <trkpt lat="45.29072" lon="3.97955">
        <ele>765</ele>
        <time>2016-04-26T09:47:59Z</time>
      </trkpt>
      <trkpt lat="45.29071" lon="3.97955">
        <ele>761</ele>
        <time>2016-04-26T09:48:42Z</time>
      </trkpt>
      <trkpt lat="45.29067" lon="3.9795">
        <ele>761</ele>
        <time>2016-04-26T09:48:48Z</time>
      </trkpt>
      <trkpt lat="45.2906" lon="3.97939">
        <ele>758</ele>
        <time>2016-04-26T09:49:01Z</time>
      </trkpt>
      <trkpt lat="45.29056" lon="3.97935">
        <ele>758</ele>
        <time>2016-04-26T09:49:05Z</time>
      </trkpt>
      <trkpt lat="45.29027" lon="3.97911">
        <ele>751</ele>
        <time>2016-04-26T09:49:35Z</time>
      </trkpt>
      <trkpt lat="45.28992" lon="3.97901">
        <ele>745</ele>
        <time>2016-04-26T09:50:06Z</time>
      </trkpt>
      <trkpt lat="45.28974" lon="3.97892">
        <ele>746</ele>
        <time>2016-04-26T09:50:20Z</time>
      </trkpt>
      <trkpt lat="45.28938" lon="3.97888">
        <ele>741</ele>
        <time>2016-04-26T09:50:51Z</time>
      </trkpt>
      <trkpt lat="45.28933" lon="3.97889">
        <ele>740</ele>
        <time>2016-04-26T09:50:55Z</time>
      </trkpt>
      <trkpt lat="45.28915" lon="3.97901">
        <ele>736</ele>
        <time>2016-04-26T09:51:12Z</time>
      </trkpt>
      <trkpt lat="45.28906" lon="3.97919">
        <ele>735</ele>
        <time>2016-04-26T09:51:24Z</time>
      </trkpt>
      <trkpt lat="45.28892" lon="3.97926">
        <ele>732</ele>
        <time>2016-04-26T09:51:41Z</time>
      </trkpt>
      <trkpt lat="45.28889" lon="3.97931">
        <ele>732</ele>
        <time>2016-04-26T09:51:47Z</time>
      </trkpt>
      <trkpt lat="45.28888" lon="3.97936">
        <ele>732</ele>
        <time>2016-04-26T09:51:55Z</time>
      </trkpt>
      <trkpt lat="45.28882" lon="3.97933">
        <ele>732</ele>
        <time>2016-04-26T09:52:21Z</time>
      </trkpt>
      <trkpt lat="45.28877" lon="3.97932">
        <ele>732</ele>
        <time>2016-04-26T09:52:25Z</time>
      </trkpt>
      <trkpt lat="45.28874" lon="3.97937">
        <ele>732</ele>
        <time>2016-04-26T09:52:29Z</time>
      </trkpt>
      <trkpt lat="45.2887" lon="3.97942">
        <ele>732</ele>
        <time>2016-04-26T09:52:34Z</time>
      </trkpt>
      <trkpt lat="45.28839" lon="3.97959">
        <ele>726</ele>
        <time>2016-04-26T09:53:04Z</time>
      </trkpt>
      <trkpt lat="45.28836" lon="3.97965">
        <ele>726</ele>
        <time>2016-04-26T09:53:07Z</time>
      </trkpt>
      <trkpt lat="45.28832" lon="3.97968">
        <ele>726</ele>
        <time>2016-04-26T09:53:10Z</time>
      </trkpt>
      <trkpt lat="45.28826" lon="3.9797">
        <ele>725</ele>
        <time>2016-04-26T09:53:14Z</time>
      </trkpt>
      <trkpt lat="45.28816" lon="3.97965">
        <ele>724</ele>
        <time>2016-04-26T09:53:24Z</time>
      </trkpt>
      <trkpt lat="45.28802" lon="3.97956">
        <ele>724</ele>
        <time>2016-04-26T09:53:36Z</time>
      </trkpt>
      <trkpt lat="45.28778" lon="3.97958">
        <ele>719</ele>
        <time>2016-04-26T09:53:59Z</time>
      </trkpt>
      <trkpt lat="45.28774" lon="3.97961">
        <ele>718</ele>
        <time>2016-04-26T09:54:03Z</time>
      </trkpt>
      <trkpt lat="45.28773" lon="3.97969">
        <ele>717</ele>
        <time>2016-04-26T09:54:07Z</time>
      </trkpt>
      <trkpt lat="45.28774" lon="3.97976">
        <ele>717</ele>
        <time>2016-04-26T09:54:12Z</time>
      </trkpt>
      <trkpt lat="45.28775" lon="3.97983">
        <ele>717</ele>
        <time>2016-04-26T09:54:18Z</time>
      </trkpt>
      <trkpt lat="45.28774" lon="3.97989">
        <ele>717</ele>
        <time>2016-04-26T09:54:25Z</time>
      </trkpt>
      <trkpt lat="45.28769" lon="3.97992">
        <ele>716</ele>
        <time>2016-04-26T09:54:32Z</time>
      </trkpt>
      <trkpt lat="45.28764" lon="3.97988">
        <ele>716</ele>
        <time>2016-04-26T09:54:36Z</time>
      </trkpt>
      <trkpt lat="45.28761" lon="3.97984">
        <ele>716</ele>
        <time>2016-04-26T09:54:39Z</time>
      </trkpt>
      <trkpt lat="45.28735" lon="3.97955">
        <ele>710</ele>
        <time>2016-04-26T09:55:07Z</time>
      </trkpt>
      <trkpt lat="45.2873" lon="3.97937">
        <ele>706</ele>
        <time>2016-04-26T09:55:38Z</time>
      </trkpt>
      <trkpt lat="45.28726" lon="3.97942">
        <ele>707</ele>
        <time>2016-04-26T09:55:44Z</time>
      </trkpt>
      <trkpt lat="45.28722" lon="3.97954">
        <ele>705</ele>
        <time>2016-04-26T09:56:25Z</time>
      </trkpt>
      <trkpt lat="45.28718" lon="3.97958">
        <ele>705</ele>
        <time>2016-04-26T09:56:33Z</time>
      </trkpt>
      <trkpt lat="45.28714" lon="3.97952">
        <ele>705</ele>
        <time>2016-04-26T09:56:39Z</time>
      </trkpt>
      <trkpt lat="45.28712" lon="3.97946">
        <ele>704</ele>
        <time>2016-04-26T09:56:44Z</time>
      </trkpt>
      <trkpt lat="45.28712" lon="3.97924">
        <ele>702</ele>
        <time>2016-04-26T09:56:59Z</time>
      </trkpt>
      <trkpt lat="45.28716" lon="3.9791">
        <ele>700</ele>
        <time>2016-04-26T09:57:09Z</time>
      </trkpt>
      <trkpt lat="45.2875" lon="3.9786">
        <ele>692</ele>
        <time>2016-04-26T09:57:55Z</time>
      </trkpt>
      <trkpt lat="45.2875" lon="3.97853">
        <ele>692</ele>
        <time>2016-04-26T09:58:00Z</time>
      </trkpt>
      <trkpt lat="45.28741" lon="3.97852">
        <ele>689</ele>
        <time>2016-04-26T09:58:08Z</time>
      </trkpt>
      <trkpt lat="45.28738" lon="3.97845">
        <ele>687</ele>
        <time>2016-04-26T09:58:22Z</time>
      </trkpt>
      <trkpt lat="45.28741" lon="3.9784">
        <ele>686</ele>
        <time>2016-04-26T09:58:28Z</time>
      </trkpt>
      <trkpt lat="45.28768" lon="3.97821">
        <ele>675</ele>
        <time>2016-04-26T09:59:01Z</time>
      </trkpt>
      <trkpt lat="45.28773" lon="3.97819">
        <ele>675</ele>
        <time>2016-04-26T09:59:04Z</time>
      </trkpt>
      <trkpt lat="45.28824" lon="3.97806">
        <ele>672</ele>
        <time>2016-04-26T09:59:36Z</time>
      </trkpt>
      <trkpt lat="45.28844" lon="3.97785">
        <ele>665</ele>
        <time>2016-04-26T10:00:10Z</time>
      </trkpt>
      <trkpt lat="45.28847" lon="3.97783">
        <ele>664</ele>
        <time>2016-04-26T10:00:21Z</time>
      </trkpt>
      <trkpt lat="45.28848" lon="3.9778">
        <ele>668</ele>
        <time>2016-04-26T10:00:26Z</time>
      </trkpt>
      <trkpt lat="45.28852" lon="3.97777">
        <ele>669</ele>
        <time>2016-04-26T10:00:32Z</time>
      </trkpt>
      <trkpt lat="45.28855" lon="3.97772">
        <ele>669</ele>
        <time>2016-04-26T10:00:37Z</time>
      </trkpt>
      <trkpt lat="45.28873" lon="3.9773">
        <ele>664</ele>
        <time>2016-04-26T10:01:11Z</time>
      </trkpt>
      <trkpt lat="45.28899" lon="3.97695">
        <ele>658</ele>
        <time>2016-04-26T10:01:43Z</time>
      </trkpt>
      <trkpt lat="45.28915" lon="3.97661">
        <ele>653</ele>
        <time>2016-04-26T10:02:11Z</time>
      </trkpt>
      <trkpt lat="45.28913" lon="3.97653">
        <ele>651</ele>
        <time>2016-04-26T10:02:29Z</time>
      </trkpt>
      <trkpt lat="45.28909" lon="3.97656">
        <ele>650</ele>
        <time>2016-04-26T10:02:40Z</time>
      </trkpt>
      <trkpt lat="45.28884" lon="3.97684">
        <ele>646</ele>
        <time>2016-04-26T10:03:10Z</time>
      </trkpt>
      <trkpt lat="45.28869" lon="3.97694">
        <ele>644</ele>
        <time>2016-04-26T10:03:22Z</time>
      </trkpt>
      <trkpt lat="45.28865" lon="3.97698">
        <ele>645</ele>
        <time>2016-04-26T10:03:26Z</time>
      </trkpt>
      <trkpt lat="45.28861" lon="3.97703">
        <ele>644</ele>
        <time>2016-04-26T10:03:30Z</time>
      </trkpt>
      <trkpt lat="45.28856" lon="3.97706">
        <ele>644</ele>
        <time>2016-04-26T10:03:35Z</time>
      </trkpt>
      <trkpt lat="45.28826" lon="3.97711">
        <ele>645</ele>
        <time>2016-04-26T10:04:01Z</time>
      </trkpt>
      <trkpt lat="45.28805" lon="3.97718">
        <ele>644</ele>
        <time>2016-04-26T10:04:19Z</time>
      </trkpt>
      <trkpt lat="45.28799" lon="3.97719">
        <ele>644</ele>
        <time>2016-04-26T10:04:24Z</time>
      </trkpt>
      <trkpt lat="45.2879" lon="3.97717">
        <ele>645</ele>
        <time>2016-04-26T10:04:32Z</time>
      </trkpt>
      <trkpt lat="45.2878" lon="3.9772">
        <ele>645</ele>
        <time>2016-04-26T10:04:41Z</time>
      </trkpt>
      <trkpt lat="45.28776" lon="3.97723">
        <ele>645</ele>
        <time>2016-04-26T10:04:46Z</time>
      </trkpt>
      <trkpt lat="45.28773" lon="3.97724">
        <ele>645</ele>
        <time>2016-04-26T10:04:52Z</time>
      </trkpt>
      <trkpt lat="45.28769" lon="3.97727">
        <ele>645</ele>
        <time>2016-04-26T10:04:56Z</time>
      </trkpt>
      <trkpt lat="45.2874" lon="3.97734">
        <ele>642</ele>
        <time>2016-04-26T10:05:26Z</time>
      </trkpt>
      <trkpt lat="45.28704" lon="3.97722">
        <ele>638</ele>
        <time>2016-04-26T10:05:59Z</time>
      </trkpt>
      <trkpt lat="45.28695" lon="3.9773">
        <ele>636</ele>
        <time>2016-04-26T10:06:09Z</time>
      </trkpt>
      <trkpt lat="45.28692" lon="3.97731">
        <ele>634</ele>
        <time>2016-04-26T10:06:17Z</time>
      </trkpt>
      <trkpt lat="45.28692" lon="3.97738">
        <ele>633</ele>
        <time>2016-04-26T10:06:43Z</time>
      </trkpt>
      <trkpt lat="45.28683" lon="3.97778">
        <ele>625</ele>
        <time>2016-04-26T10:07:17Z</time>
      </trkpt>
      <trkpt lat="45.28672" lon="3.97801">
        <ele>621</ele>
        <time>2016-04-26T10:07:40Z</time>
      </trkpt>
      <trkpt lat="45.28657" lon="3.97807">
        <ele>618</ele>
        <time>2016-04-26T10:07:55Z</time>
      </trkpt>
      <trkpt lat="45.28634" lon="3.97829">
        <ele>614</ele>
        <time>2016-04-26T10:08:25Z</time>
      </trkpt>
      <trkpt lat="45.28631" lon="3.97828">
        <ele>614</ele>
        <time>2016-04-26T10:08:41Z</time>
      </trkpt>
      <trkpt lat="45.28626" lon="3.97835">
        <ele>614</ele>
        <time>2016-04-26T10:08:55Z</time>
      </trkpt>
      <trkpt lat="45.28618" lon="3.97842">
        <ele>614</ele>
        <time>2016-04-26T10:09:10Z</time>
      </trkpt>
      <trkpt lat="45.28599" lon="3.97847">
        <ele>613</ele>
        <time>2016-04-26T10:09:30Z</time>
      </trkpt>
      <trkpt lat="45.28591" lon="3.97852">
        <ele>614</ele>
        <time>2016-04-26T10:10:11Z</time>
      </trkpt>
      <trkpt lat="45.28587" lon="3.97856">
        <ele>614</ele>
        <time>2016-04-26T10:10:18Z</time>
      </trkpt>
      <trkpt lat="45.28583" lon="3.9786">
        <ele>615</ele>
        <time>2016-04-26T10:10:28Z</time>
      </trkpt>
      <trkpt lat="45.2858" lon="3.97855">
        <ele>615</ele>
        <time>2016-04-26T10:10:42Z</time>
      </trkpt>
      <trkpt lat="45.28581" lon="3.97859">
        <ele>616</ele>
        <time>2016-04-26T10:11:06Z</time>
      </trkpt>
      <trkpt lat="45.28587" lon="3.97857">
        <ele>615</ele>
        <time>2016-04-26T10:11:15Z</time>
      </trkpt>
      <trkpt lat="45.28592" lon="3.97849">
        <ele>614</ele>
        <time>2016-04-26T10:11:27Z</time>
      </trkpt>
      <trkpt lat="45.2859" lon="3.97849">
        <ele>614</ele>
        <time>2016-04-26T10:11:57Z</time>
      </trkpt>
      <trkpt lat="45.2858" lon="3.97852">
        <ele>614</ele>
        <time>2016-04-26T10:12:08Z</time>
      </trkpt>
      <trkpt lat="45.28576" lon="3.97844">
        <ele>614</ele>
        <time>2016-04-26T10:12:21Z</time>
      </trkpt>
      <trkpt lat="45.28575" lon="3.9784">
        <ele>615</ele>
        <time>2016-04-26T10:12:37Z</time>
      </trkpt>
      <trkpt lat="45.28566" lon="3.97821">
        <ele>615</ele>
        <time>2016-04-26T10:12:59Z</time>
      </trkpt>
      <trkpt lat="45.2856" lon="3.9782">
        <ele>614</ele>
        <time>2016-04-26T10:13:32Z</time>
      </trkpt>
      <trkpt lat="45.28548" lon="3.97821">
        <ele>614</ele>
        <time>2016-04-26T10:13:40Z</time>
      </trkpt>
      <trkpt lat="45.28544" lon="3.97823">
        <ele>614</ele>
        <time>2016-04-26T10:13:45Z</time>
      </trkpt>
      <trkpt lat="45.28537" lon="3.97828">
        <ele>615</ele>
        <time>2016-04-26T10:13:58Z</time>
      </trkpt>
      <trkpt lat="45.28535" lon="3.97824">
        <ele>616</ele>
        <time>2016-04-26T10:14:48Z</time>
      </trkpt>
      <trkpt lat="45.28529" lon="3.97827">
        <ele>616</ele>
        <time>2016-04-26T10:15:42Z</time>
      </trkpt>
      <trkpt lat="45.28521" lon="3.97826">
        <ele>616</ele>
        <time>2016-04-26T10:16:28Z</time>
      </trkpt>
      <trkpt lat="45.28492" lon="3.97836">
        <ele>622</ele>
        <time>2016-04-26T10:17:00Z</time>
      </trkpt>
      <trkpt lat="45.28487" lon="3.97837">
        <ele>623</ele>
        <time>2016-04-26T10:17:06Z</time>
      </trkpt>
      <trkpt lat="45.28488" lon="3.97836">
        <ele>631</ele>
        <time>2016-04-26T10:17:43Z</time>
      </trkpt>
      <trkpt lat="45.28507" lon="3.97804">
        <ele>631</ele>
        <time>2016-04-26T10:18:19Z</time>
      </trkpt>
      <trkpt lat="45.28511" lon="3.97805">
        <ele>632</ele>
        <time>2016-04-26T10:18:25Z</time>
      </trkpt>
      <trkpt lat="45.28513" lon="3.97803">
        <ele>632</ele>
        <time>2016-04-26T10:18:42Z</time>
      </trkpt>
      <trkpt lat="45.28514" lon="3.97795">
        <ele>632</ele>
        <time>2016-04-26T10:18:55Z</time>
      </trkpt>
      <trkpt lat="45.2852" lon="3.97784">
        <ele>633</ele>
        <time>2016-04-26T10:19:08Z</time>
      </trkpt>
      <trkpt lat="45.28524" lon="3.97769">
        <ele>635</ele>
        <time>2016-04-26T10:19:39Z</time>
      </trkpt>
      <trkpt lat="45.28525" lon="3.97762">
        <ele>635</ele>
        <time>2016-04-26T10:19:44Z</time>
      </trkpt>
      <trkpt lat="45.28533" lon="3.97746">
        <ele>634</ele>
        <time>2016-04-26T10:19:59Z</time>
      </trkpt>
      <trkpt lat="45.28553" lon="3.97708">
        <ele>639</ele>
        <time>2016-04-26T10:20:37Z</time>
      </trkpt>
      <trkpt lat="45.28555" lon="3.97701">
        <ele>640</ele>
        <time>2016-04-26T10:20:42Z</time>
      </trkpt>
      <trkpt lat="45.28556" lon="3.97695">
        <ele>640</ele>
        <time>2016-04-26T10:20:47Z</time>
      </trkpt>
      <trkpt lat="45.28552" lon="3.97691">
        <ele>640</ele>
        <time>2016-04-26T10:20:53Z</time>
      </trkpt>
      <trkpt lat="45.28547" lon="3.9769">
        <ele>641</ele>
        <time>2016-04-26T10:20:57Z</time>
      </trkpt>
      <trkpt lat="45.28542" lon="3.97691">
        <ele>641</ele>
        <time>2016-04-26T10:21:01Z</time>
      </trkpt>
      <trkpt lat="45.28522" lon="3.97702">
        <ele>652</ele>
        <time>2016-04-26T10:21:38Z</time>
      </trkpt>
      <trkpt lat="45.28518" lon="3.97704">
        <ele>654</ele>
        <time>2016-04-26T10:21:53Z</time>
      </trkpt>
      <trkpt lat="45.28517" lon="3.97711">
        <ele>658</ele>
        <time>2016-04-26T10:22:02Z</time>
      </trkpt>
      <trkpt lat="45.28511" lon="3.97722">
        <ele>658</ele>
        <time>2016-04-26T10:22:14Z</time>
      </trkpt>
      <trkpt lat="45.28453" lon="3.97777">
        <ele>664</ele>
        <time>2016-04-26T10:23:25Z</time>
      </trkpt>
      <trkpt lat="45.2845" lon="3.97782">
        <ele>664</ele>
        <time>2016-04-26T10:23:46Z</time>
      </trkpt>
      <trkpt lat="45.28436" lon="3.97787">
        <ele>665</ele>
        <time>2016-04-26T10:24:09Z</time>
      </trkpt>
      <trkpt lat="45.28424" lon="3.978">
        <ele>668</ele>
        <time>2016-04-26T10:24:22Z</time>
      </trkpt>
      <trkpt lat="45.2842" lon="3.97813">
        <ele>670</ele>
        <time>2016-04-26T10:24:30Z</time>
      </trkpt>
      <trkpt lat="45.2841" lon="3.97827">
        <ele>673</ele>
        <time>2016-04-26T10:24:47Z</time>
      </trkpt>
      <trkpt lat="45.28399" lon="3.97859">
        <ele>679</ele>
        <time>2016-04-26T10:25:20Z</time>
      </trkpt>
      <trkpt lat="45.28389" lon="3.97875">
        <ele>681</ele>
        <time>2016-04-26T10:25:36Z</time>
      </trkpt>
      <trkpt lat="45.28387" lon="3.97882">
        <ele>681</ele>
        <time>2016-04-26T10:25:41Z</time>
      </trkpt>
      <trkpt lat="45.28383" lon="3.97934">
        <ele>687</ele>
        <time>2016-04-26T10:26:22Z</time>
      </trkpt>
      <trkpt lat="45.28377" lon="3.97952">
        <ele>689</ele>
        <time>2016-04-26T10:27:23Z</time>
      </trkpt>
      <trkpt lat="45.28381" lon="3.97958">
        <ele>689</ele>
        <time>2016-04-26T10:27:40Z</time>
      </trkpt>
      <trkpt lat="45.28379" lon="3.97971">
        <ele>684</ele>
        <time>2016-04-26T10:28:12Z</time>
      </trkpt>
      <trkpt lat="45.28363" lon="3.98006">
        <ele>679</ele>
        <time>2016-04-26T10:28:46Z</time>
      </trkpt>
      <trkpt lat="45.28353" lon="3.98021">
        <ele>676</ele>
        <time>2016-04-26T10:29:06Z</time>
      </trkpt>
      <trkpt lat="45.28351" lon="3.98028">
        <ele>676</ele>
        <time>2016-04-26T10:29:11Z</time>
      </trkpt>
      <trkpt lat="45.28349" lon="3.98034">
        <ele>675</ele>
        <time>2016-04-26T10:29:16Z</time>
      </trkpt>
      <trkpt lat="45.2834" lon="3.98046">
        <ele>673</ele>
        <time>2016-04-26T10:29:34Z</time>
      </trkpt>
      <trkpt lat="45.2834" lon="3.98053">
        <ele>672</ele>
        <time>2016-04-26T10:30:01Z</time>
      </trkpt>
      <trkpt lat="45.28347" lon="3.98071">
        <ele>670</ele>
        <time>2016-04-26T10:30:14Z</time>
      </trkpt>
      <trkpt lat="45.28344" lon="3.98084">
        <ele>668</ele>
        <time>2016-04-26T10:30:24Z</time>
      </trkpt>
      <trkpt lat="45.28341" lon="3.9809">
        <ele>666</ele>
        <time>2016-04-26T10:30:29Z</time>
      </trkpt>
      <trkpt lat="45.28329" lon="3.98108">
        <ele>665</ele>
        <time>2016-04-26T10:30:57Z</time>
      </trkpt>
      <trkpt lat="45.28328" lon="3.98115">
        <ele>664</ele>
        <time>2016-04-26T10:31:01Z</time>
      </trkpt>
      <trkpt lat="45.28328" lon="3.98125">
        <ele>663</ele>
        <time>2016-04-26T10:31:12Z</time>
      </trkpt>
      <trkpt lat="45.28328" lon="3.98133">
        <ele>663</ele>
        <time>2016-04-26T10:31:22Z</time>
      </trkpt>
      <trkpt lat="45.28332" lon="3.98146">
        <ele>662</ele>
        <time>2016-04-26T10:31:32Z</time>
      </trkpt>
      <trkpt lat="45.28329" lon="3.98152">
        <ele>662</ele>
        <time>2016-04-26T10:31:37Z</time>
      </trkpt>
      <trkpt lat="45.28324" lon="3.98187">
        <ele>660</ele>
        <time>2016-04-26T10:32:06Z</time>
      </trkpt>
      <trkpt lat="45.28318" lon="3.98206">
        <ele>659</ele>
        <time>2016-04-26T10:32:24Z</time>
      </trkpt>
      <trkpt lat="45.28319" lon="3.98213">
        <ele>659</ele>
        <time>2016-04-26T10:32:29Z</time>
      </trkpt>
      <trkpt lat="45.28326" lon="3.98231">
        <ele>660</ele>
        <time>2016-04-26T10:33:02Z</time>
      </trkpt>
      <trkpt lat="45.28336" lon="3.98237">
        <ele>658</ele>
        <time>2016-04-26T10:33:12Z</time>
      </trkpt>
      <trkpt lat="45.28345" lon="3.98239">
        <ele>657</ele>
        <time>2016-04-26T10:33:23Z</time>
      </trkpt>
      <trkpt lat="45.28348" lon="3.98244">
        <ele>657</ele>
        <time>2016-04-26T10:33:28Z</time>
      </trkpt>
      <trkpt lat="45.2836" lon="3.98294">
        <ele>658</ele>
        <time>2016-04-26T10:34:28Z</time>
      </trkpt>
      <trkpt lat="45.28369" lon="3.98299">
        <ele>661</ele>
        <time>2016-04-26T10:34:44Z</time>
      </trkpt>
      <trkpt lat="45.28366" lon="3.98309">
        <ele>662</ele>
        <time>2016-04-26T10:35:30Z</time>
      </trkpt>
      <trkpt lat="45.28366" lon="3.98319">
        <ele>664</ele>
        <time>2016-04-26T10:35:42Z</time>
      </trkpt>
      <trkpt lat="45.28368" lon="3.98314">
        <ele>664</ele>
        <time>2016-04-26T10:36:02Z</time>
      </trkpt>
      <trkpt lat="45.28369" lon="3.98307">
        <ele>664</ele>
        <time>2016-04-26T10:36:09Z</time>
      </trkpt>
      <trkpt lat="45.2837" lon="3.98304">
        <ele>665</ele>
        <time>2016-04-26T10:36:15Z</time>
      </trkpt>
      <trkpt lat="45.28374" lon="3.98305">
        <ele>667</ele>
        <time>2016-04-26T10:36:28Z</time>
      </trkpt>
      <trkpt lat="45.28379" lon="3.98309">
        <ele>668</ele>
        <time>2016-04-26T10:36:50Z</time>
      </trkpt>
      <trkpt lat="45.28381" lon="3.98318">
        <ele>672</ele>
        <time>2016-04-26T10:37:05Z</time>
      </trkpt>
      <trkpt lat="45.28381" lon="3.98324">
        <ele>673</ele>
        <time>2016-04-26T10:37:18Z</time>
      </trkpt>
      <trkpt lat="45.28377" lon="3.98327">
        <ele>674</ele>
        <time>2016-04-26T10:37:41Z</time>
      </trkpt>
      <trkpt lat="45.2838" lon="3.98331">
        <ele>674</ele>
        <time>2016-04-26T10:38:27Z</time>
      </trkpt>
      <trkpt lat="45.28382" lon="3.98324">
        <ele>674</ele>
        <time>2016-04-26T10:39:35Z</time>
      </trkpt>
      <trkpt lat="45.28383" lon="3.98317">
        <ele>673</ele>
        <time>2016-04-26T10:39:42Z</time>
      </trkpt>
      <trkpt lat="45.2838" lon="3.98316">
        <ele>667</ele>
        <time>2016-04-26T10:40:19Z</time>
      </trkpt>
      <trkpt lat="45.28379" lon="3.98322">
        <ele>665</ele>
        <time>2016-04-26T10:40:29Z</time>
      </trkpt>
      <trkpt lat="45.28376" lon="3.98322">
        <ele>664</ele>
        <time>2016-04-26T10:40:35Z</time>
      </trkpt>
      <trkpt lat="45.28373" lon="3.98301">
        <ele>660</ele>
        <time>2016-04-26T10:40:53Z</time>
      </trkpt>
      <trkpt lat="45.28367" lon="3.983">
        <ele>661</ele>
        <time>2016-04-26T10:41:03Z</time>
      </trkpt>
      <trkpt lat="45.28363" lon="3.98298">
        <ele>661</ele>
        <time>2016-04-26T10:41:08Z</time>
      </trkpt>
      <trkpt lat="45.28359" lon="3.9827">
        <ele>658</ele>
        <time>2016-04-26T10:43:15Z</time>
      </trkpt>
      <trkpt lat="45.28356" lon="3.98264">
        <ele>658</ele>
        <time>2016-04-26T10:43:20Z</time>
      </trkpt>
      <trkpt lat="45.28354" lon="3.98257">
        <ele>658</ele>
        <time>2016-04-26T10:43:26Z</time>
      </trkpt>
      <trkpt lat="45.28353" lon="3.9825">
        <ele>658</ele>
        <time>2016-04-26T10:43:31Z</time>
      </trkpt>
      <trkpt lat="45.28346" lon="3.9824">
        <ele>658</ele>
        <time>2016-04-26T10:43:41Z</time>
      </trkpt>
      <trkpt lat="45.28339" lon="3.98237">
        <ele>658</ele>
        <time>2016-04-26T10:44:09Z</time>
      </trkpt>
      <trkpt lat="45.28334" lon="3.98236">
        <ele>658</ele>
        <time>2016-04-26T10:44:15Z</time>
      </trkpt>
      <trkpt lat="45.28322" lon="3.98224">
        <ele>660</ele>
        <time>2016-04-26T10:44:32Z</time>
      </trkpt>
      <trkpt lat="45.28321" lon="3.98217">
        <ele>661</ele>
        <time>2016-04-26T10:44:37Z</time>
      </trkpt>
      <trkpt lat="45.28323" lon="3.98196">
        <ele>661</ele>
        <time>2016-04-26T10:44:52Z</time>
      </trkpt>
      <trkpt lat="45.28328" lon="3.98194">
        <ele>661</ele>
        <time>2016-04-26T10:44:58Z</time>
      </trkpt>
      <trkpt lat="45.2833" lon="3.98188">
        <ele>661</ele>
        <time>2016-04-26T10:45:03Z</time>
      </trkpt>
      <trkpt lat="45.28331" lon="3.9818">
        <ele>661</ele>
        <time>2016-04-26T10:45:07Z</time>
      </trkpt>
      <trkpt lat="45.2833" lon="3.98174">
        <ele>662</ele>
        <time>2016-04-26T10:45:10Z</time>
      </trkpt>
      <trkpt lat="45.2833" lon="3.98167">
        <ele>662</ele>
        <time>2016-04-26T10:45:15Z</time>
      </trkpt>
      <trkpt lat="45.28333" lon="3.98161">
        <ele>662</ele>
        <time>2016-04-26T10:45:19Z</time>
      </trkpt>
      <trkpt lat="45.28332" lon="3.98146">
        <ele>662</ele>
        <time>2016-04-26T10:45:29Z</time>
      </trkpt>
      <trkpt lat="45.2833" lon="3.98139">
        <ele>663</ele>
        <time>2016-04-26T10:45:34Z</time>
      </trkpt>
      <trkpt lat="45.28329" lon="3.98132">
        <ele>663</ele>
        <time>2016-04-26T10:45:39Z</time>
      </trkpt>
      <trkpt lat="45.28327" lon="3.98129">
        <ele>664</ele>
        <time>2016-04-26T10:45:46Z</time>
      </trkpt>
      <trkpt lat="45.28313" lon="3.98126">
        <ele>665</ele>
        <time>2016-04-26T10:46:00Z</time>
      </trkpt>
      <trkpt lat="45.28304" lon="3.98131">
        <ele>667</ele>
        <time>2016-04-26T10:46:11Z</time>
      </trkpt>
      <trkpt lat="45.28295" lon="3.98138">
        <ele>668</ele>
        <time>2016-04-26T10:46:21Z</time>
      </trkpt>
      <trkpt lat="45.28288" lon="3.98136">
        <ele>669</ele>
        <time>2016-04-26T10:46:43Z</time>
      </trkpt>
      <trkpt lat="45.28283" lon="3.98132">
        <ele>669</ele>
        <time>2016-04-26T10:46:49Z</time>
      </trkpt>
      <trkpt lat="45.28271" lon="3.98102">
        <ele>673</ele>
        <time>2016-04-26T10:47:14Z</time>
      </trkpt>
      <trkpt lat="45.28267" lon="3.98075">
        <ele>677</ele>
        <time>2016-04-26T10:47:35Z</time>
      </trkpt>
      <trkpt lat="45.28256" lon="3.98045">
        <ele>677</ele>
        <time>2016-04-26T10:48:01Z</time>
      </trkpt>
      <trkpt lat="45.28254" lon="3.98042">
        <ele>678</ele>
        <time>2016-04-26T10:48:08Z</time>
      </trkpt>
      <trkpt lat="45.2825" lon="3.98037">
        <ele>678</ele>
        <time>2016-04-26T10:48:16Z</time>
      </trkpt>
      <trkpt lat="45.28249" lon="3.98031">
        <ele>678</ele>
        <time>2016-04-26T10:48:22Z</time>
      </trkpt>
      <trkpt lat="45.28242" lon="3.9802">
        <ele>676</ele>
        <time>2016-04-26T10:48:32Z</time>
      </trkpt>
      <trkpt lat="45.28218" lon="3.98022">
        <ele>677</ele>
        <time>2016-04-26T10:49:03Z</time>
      </trkpt>
      <trkpt lat="45.28223" lon="3.98022">
        <ele>677</ele>
        <time>2016-04-26T10:49:11Z</time>
      </trkpt>
      <trkpt lat="45.28228" lon="3.98023">
        <ele>677</ele>
        <time>2016-04-26T10:49:17Z</time>
      </trkpt>
      <trkpt lat="45.28238" lon="3.98022">
        <ele>676</ele>
        <time>2016-04-26T10:49:30Z</time>
      </trkpt>
      <trkpt lat="45.28242" lon="3.98025">
        <ele>676</ele>
        <time>2016-04-26T10:49:35Z</time>
      </trkpt>
      <trkpt lat="45.28247" lon="3.98029">
        <ele>676</ele>
        <time>2016-04-26T10:49:40Z</time>
      </trkpt>
      <trkpt lat="45.2825" lon="3.98029">
        <ele>677</ele>
        <time>2016-04-26T10:49:49Z</time>
      </trkpt>
      <trkpt lat="45.28251" lon="3.98013">
        <ele>679</ele>
        <time>2016-04-26T10:50:11Z</time>
      </trkpt>
      <trkpt lat="45.28254" lon="3.98006">
        <ele>679</ele>
        <time>2016-04-26T10:50:16Z</time>
      </trkpt>
      <trkpt lat="45.28261" lon="3.97997">
        <ele>681</ele>
        <time>2016-04-26T10:50:26Z</time>
      </trkpt>
      <trkpt lat="45.28263" lon="3.97991">
        <ele>682</ele>
        <time>2016-04-26T10:50:32Z</time>
      </trkpt>
      <trkpt lat="45.28261" lon="3.97985">
        <ele>682</ele>
        <time>2016-04-26T10:50:39Z</time>
      </trkpt>
      <trkpt lat="45.28233" lon="3.97972">
        <ele>687</ele>
        <time>2016-04-26T10:51:13Z</time>
      </trkpt>
      <trkpt lat="45.28231" lon="3.97966">
        <ele>689</ele>
        <time>2016-04-26T10:51:20Z</time>
      </trkpt>
      <trkpt lat="45.28228" lon="3.97962">
        <ele>690</ele>
        <time>2016-04-26T10:51:26Z</time>
      </trkpt>
      <trkpt lat="45.28225" lon="3.97957">
        <ele>692</ele>
        <time>2016-04-26T10:51:35Z</time>
      </trkpt>
      <trkpt lat="45.28223" lon="3.97937">
        <ele>695</ele>
        <time>2016-04-26T10:51:56Z</time>
      </trkpt>
      <trkpt lat="45.28221" lon="3.97931">
        <ele>694</ele>
        <time>2016-04-26T10:52:02Z</time>
      </trkpt>
      <trkpt lat="45.28214" lon="3.97889">
        <ele>703</ele>
        <time>2016-04-26T10:53:53Z</time>
      </trkpt>
      <trkpt lat="45.28211" lon="3.97883">
        <ele>703</ele>
        <time>2016-04-26T10:54:00Z</time>
      </trkpt>
      <trkpt lat="45.28204" lon="3.97864">
        <ele>705</ele>
        <time>2016-04-26T10:54:14Z</time>
      </trkpt>
      <trkpt lat="45.28193" lon="3.9785">
        <ele>703</ele>
        <time>2016-04-26T10:54:42Z</time>
      </trkpt>
      <trkpt lat="45.28189" lon="3.97839">
        <ele>703</ele>
        <time>2016-04-26T10:54:53Z</time>
      </trkpt>
      <trkpt lat="45.28161" lon="3.97806">
        <ele>705</ele>
        <time>2016-04-26T10:55:28Z</time>
      </trkpt>
      <trkpt lat="45.28157" lon="3.97803">
        <ele>706</ele>
        <time>2016-04-26T10:55:34Z</time>
      </trkpt>
      <trkpt lat="45.28128" lon="3.97775">
        <ele>709</ele>
        <time>2016-04-26T10:56:13Z</time>
      </trkpt>
      <trkpt lat="45.28121" lon="3.97754">
        <ele>710</ele>
        <time>2016-04-26T10:56:28Z</time>
      </trkpt>
      <trkpt lat="45.28117" lon="3.97727">
        <ele>712</ele>
        <time>2016-04-26T10:56:52Z</time>
      </trkpt>
      <trkpt lat="45.28118" lon="3.97713">
        <ele>713</ele>
        <time>2016-04-26T10:57:02Z</time>
      </trkpt>
      <trkpt lat="45.28115" lon="3.97656">
        <ele>717</ele>
        <time>2016-04-26T10:57:42Z</time>
      </trkpt>
      <trkpt lat="45.28109" lon="3.9764">
        <ele>719</ele>
        <time>2016-04-26T10:58:01Z</time>
      </trkpt>
      <trkpt lat="45.28105" lon="3.97636">
        <ele>720</ele>
        <time>2016-04-26T10:58:07Z</time>
      </trkpt>
      <trkpt lat="45.28098" lon="3.97619">
        <ele>724</ele>
        <time>2016-04-26T10:58:27Z</time>
      </trkpt>
      <trkpt lat="45.28094" lon="3.97615">
        <ele>726</ele>
        <time>2016-04-26T10:58:42Z</time>
      </trkpt>
      <trkpt lat="45.28085" lon="3.97598">
        <ele>725</ele>
        <time>2016-04-26T10:59:00Z</time>
      </trkpt>
      <trkpt lat="45.28077" lon="3.97588">
        <ele>727</ele>
        <time>2016-04-26T10:59:10Z</time>
      </trkpt>
      <trkpt lat="45.28077" lon="3.9758">
        <ele>728</ele>
        <time>2016-04-26T10:59:15Z</time>
      </trkpt>
      <trkpt lat="45.28065" lon="3.97556">
        <ele>732</ele>
        <time>2016-04-26T10:59:37Z</time>
      </trkpt>
      <trkpt lat="45.28061" lon="3.97551">
        <ele>732</ele>
        <time>2016-04-26T10:59:42Z</time>
      </trkpt>
      <trkpt lat="45.28031" lon="3.97524">
        <ele>736</ele>
        <time>2016-04-26T11:00:14Z</time>
      </trkpt>
      <trkpt lat="45.28026" lon="3.97525">
        <ele>736</ele>
        <time>2016-04-26T11:00:19Z</time>
      </trkpt>
      <trkpt lat="45.28021" lon="3.97525">
        <ele>736</ele>
        <time>2016-04-26T11:00:24Z</time>
      </trkpt>
      <trkpt lat="45.28007" lon="3.97531">
        <ele>739</ele>
        <time>2016-04-26T11:00:38Z</time>
      </trkpt>
      <trkpt lat="45.27997" lon="3.97544">
        <ele>741</ele>
        <time>2016-04-26T11:00:52Z</time>
      </trkpt>
      <trkpt lat="45.27996" lon="3.97553">
        <ele>741</ele>
        <time>2016-04-26T11:02:16Z</time>
      </trkpt>
      <trkpt lat="45.27996" lon="3.97549">
        <ele>741</ele>
        <time>2016-04-26T11:02:28Z</time>
      </trkpt>
      <trkpt lat="45.27996" lon="3.97544">
        <ele>741</ele>
        <time>2016-04-26T11:02:36Z</time>
      </trkpt>
      <trkpt lat="45.28001" lon="3.97546">
        <ele>741</ele>
        <time>2016-04-26T11:03:06Z</time>
      </trkpt>
      <trkpt lat="45.27993" lon="3.97548">
        <ele>741</ele>
        <time>2016-04-26T11:04:32Z</time>
      </trkpt>
      <trkpt lat="45.27989" lon="3.97551">
        <ele>741</ele>
        <time>2016-04-26T11:04:36Z</time>
      </trkpt>
      <trkpt lat="45.27969" lon="3.97553">
        <ele>754</ele>
        <time>2016-04-26T11:04:58Z</time>
      </trkpt>
      <trkpt lat="45.27966" lon="3.97551">
        <ele>757</ele>
        <time>2016-04-26T11:05:07Z</time>
      </trkpt>
      <trkpt lat="45.27963" lon="3.97554">
        <ele>752</ele>
        <time>2016-04-26T11:05:51Z</time>
      </trkpt>
      <trkpt lat="45.27934" lon="3.97555">
        <ele>759</ele>
        <time>2016-04-26T11:06:18Z</time>
      </trkpt>
      <trkpt lat="45.27915" lon="3.97552">
        <ele>761</ele>
        <time>2016-04-26T11:06:37Z</time>
      </trkpt>
      <trkpt lat="45.27906" lon="3.9755">
        <ele>761</ele>
        <time>2016-04-26T11:06:48Z</time>
      </trkpt>
      <trkpt lat="45.27864" lon="3.97546">
        <ele>767</ele>
        <time>2016-04-26T11:07:42Z</time>
      </trkpt>
      <trkpt lat="45.27859" lon="3.97546">
        <ele>767</ele>
        <time>2016-04-26T11:07:48Z</time>
      </trkpt>
      <trkpt lat="45.27855" lon="3.97546">
        <ele>767</ele>
        <time>2016-04-26T11:07:53Z</time>
      </trkpt>
      <trkpt lat="45.27803" lon="3.97514">
        <ele>776</ele>
        <time>2016-04-26T11:09:18Z</time>
      </trkpt>
      <trkpt lat="45.27782" lon="3.97494">
        <ele>776</ele>
        <time>2016-04-26T11:09:48Z</time>
      </trkpt>
      <trkpt lat="45.27763" lon="3.97492">
        <ele>777</ele>
        <time>2016-04-26T11:10:08Z</time>
      </trkpt>
      <trkpt lat="45.27765" lon="3.9749">
        <ele>778</ele>
        <time>2016-04-26T11:10:44Z</time>
      </trkpt>
      <trkpt lat="45.2777" lon="3.97489">
        <ele>778</ele>
        <time>2016-04-26T11:10:49Z</time>
      </trkpt>
      <trkpt lat="45.27785" lon="3.97492">
        <ele>782</ele>
        <time>2016-04-26T11:11:06Z</time>
      </trkpt>
      <trkpt lat="45.27794" lon="3.97497">
        <ele>783</ele>
        <time>2016-04-26T11:11:19Z</time>
      </trkpt>
      <trkpt lat="45.27798" lon="3.97502">
        <ele>783</ele>
        <time>2016-04-26T11:11:25Z</time>
      </trkpt>
      <trkpt lat="45.27799" lon="3.97505">
        <ele>783</ele>
        <time>2016-04-26T11:11:31Z</time>
      </trkpt>
      <trkpt lat="45.27793" lon="3.97501">
        <ele>780</ele>
        <time>2016-04-26T11:11:59Z</time>
      </trkpt>
      <trkpt lat="45.27789" lon="3.97497">
        <ele>782</ele>
        <time>2016-04-26T11:12:04Z</time>
      </trkpt>
      <trkpt lat="45.2776" lon="3.97486">
        <ele>786</ele>
        <time>2016-04-26T11:12:35Z</time>
      </trkpt>
      <trkpt lat="45.27756" lon="3.97489">
        <ele>786</ele>
        <time>2016-04-26T11:12:41Z</time>
      </trkpt>
      <trkpt lat="45.27751" lon="3.9749">
        <ele>786</ele>
        <time>2016-04-26T11:12:49Z</time>
      </trkpt>
      <trkpt lat="45.2771" lon="3.97475">
        <ele>791</ele>
        <time>2016-04-26T11:14:00Z</time>
      </trkpt>
      <trkpt lat="45.27693" lon="3.97459">
        <ele>796</ele>
        <time>2016-04-26T11:14:24Z</time>
      </trkpt>
      <trkpt lat="45.27682" lon="3.97445">
        <ele>796</ele>
        <time>2016-04-26T11:14:39Z</time>
      </trkpt>
      <trkpt lat="45.27665" lon="3.97429">
        <ele>799</ele>
        <time>2016-04-26T11:15:03Z</time>
      </trkpt>
      <trkpt lat="45.27661" lon="3.97426">
        <ele>794</ele>
        <time>2016-04-26T11:15:09Z</time>
      </trkpt>
      <trkpt lat="45.27656" lon="3.97424">
        <ele>794</ele>
        <time>2016-04-26T11:15:15Z</time>
      </trkpt>
      <trkpt lat="45.27646" lon="3.97425">
        <ele>794</ele>
        <time>2016-04-26T11:15:29Z</time>
      </trkpt>
      <trkpt lat="45.27596" lon="3.974">
        <ele>802</ele>
        <time>2016-04-26T11:16:31Z</time>
      </trkpt>
      <trkpt lat="45.27567" lon="3.97394">
        <ele>803</ele>
        <time>2016-04-26T11:17:03Z</time>
      </trkpt>
      <trkpt lat="45.27494" lon="3.97349">
        <ele>812</ele>
        <time>2016-04-26T11:18:32Z</time>
      </trkpt>
      <trkpt lat="45.27482" lon="3.97335">
        <ele>813</ele>
        <time>2016-04-26T11:18:53Z</time>
      </trkpt>
      <trkpt lat="45.27479" lon="3.97328">
        <ele>815</ele>
        <time>2016-04-26T11:19:18Z</time>
      </trkpt>
      <trkpt lat="45.27476" lon="3.97324">
        <ele>815</ele>
        <time>2016-04-26T11:19:26Z</time>
      </trkpt>
      <trkpt lat="45.2747" lon="3.97313">
        <ele>818</ele>
        <time>2016-04-26T11:19:57Z</time>
      </trkpt>
      <trkpt lat="45.27461" lon="3.9729">
        <ele>822</ele>
        <time>2016-04-26T11:21:36Z</time>
      </trkpt>
      <trkpt lat="45.27462" lon="3.97286">
        <ele>825</ele>
        <time>2016-04-26T11:22:28Z</time>
      </trkpt>
      <trkpt lat="45.2746" lon="3.97284">
        <ele>825</ele>
        <time>2016-04-26T11:22:46Z</time>
      </trkpt>
      <trkpt lat="45.27448" lon="3.97229">
        <ele>826</ele>
        <time>2016-04-26T11:23:26Z</time>
      </trkpt>
      <trkpt lat="45.27434" lon="3.97192">
        <ele>827</ele>
        <time>2016-04-26T11:24:01Z</time>
      </trkpt>
      <trkpt lat="45.27397" lon="3.97127">
        <ele>831</ele>
        <time>2016-04-26T11:25:04Z</time>
      </trkpt>
      <trkpt lat="45.27393" lon="3.97122">
        <ele>831</ele>
        <time>2016-04-26T11:25:09Z</time>
      </trkpt>
      <trkpt lat="45.27389" lon="3.9712">
        <ele>832</ele>
        <time>2016-04-26T11:25:18Z</time>
      </trkpt>
      <trkpt lat="45.27343" lon="3.97093">
        <ele>836</ele>
        <time>2016-04-26T11:26:20Z</time>
      </trkpt>
      <trkpt lat="45.27319" lon="3.97072">
        <ele>838</ele>
        <time>2016-04-26T11:26:51Z</time>
      </trkpt>
      <trkpt lat="45.27305" lon="3.97065">
        <ele>839</ele>
        <time>2016-04-26T11:27:08Z</time>
      </trkpt>
      <trkpt lat="45.273" lon="3.97054">
        <ele>840</ele>
        <time>2016-04-26T11:27:20Z</time>
      </trkpt>
      <trkpt lat="45.273" lon="3.97046">
        <ele>841</ele>
        <time>2016-04-26T11:27:25Z</time>
      </trkpt>
      <trkpt lat="45.27306" lon="3.97029">
        <ele>842</ele>
        <time>2016-04-26T11:28:26Z</time>
      </trkpt>
      <trkpt lat="45.27299" lon="3.97051">
        <ele>841</ele>
        <time>2016-04-26T11:29:16Z</time>
      </trkpt>
      <trkpt lat="45.27308" lon="3.97048">
        <ele>841</ele>
        <time>2016-04-26T11:29:19Z</time>
      </trkpt>
      <trkpt lat="45.27317" lon="3.97052">
        <ele>841</ele>
        <time>2016-04-26T11:29:26Z</time>
      </trkpt>
      <trkpt lat="45.27315" lon="3.9705">
        <ele>840</ele>
        <time>2016-04-26T11:29:57Z</time>
      </trkpt>
      <trkpt lat="45.27315" lon="3.97035">
        <ele>840</ele>
        <time>2016-04-26T11:30:04Z</time>
      </trkpt>
      <trkpt lat="45.27322" lon="3.9704">
        <ele>840</ele>
        <time>2016-04-26T11:30:25Z</time>
      </trkpt>
      <trkpt lat="45.27323" lon="3.97051">
        <ele>840</ele>
        <time>2016-04-26T11:30:44Z</time>
      </trkpt>
      <trkpt lat="45.27318" lon="3.97052">
        <ele>840</ele>
        <time>2016-04-26T11:31:39Z</time>
      </trkpt>
      <trkpt lat="45.2732" lon="3.97038">
        <ele>840</ele>
        <time>2016-04-26T11:31:49Z</time>
      </trkpt>
      <trkpt lat="45.27317" lon="3.97026">
        <ele>840</ele>
        <time>2016-04-26T11:32:04Z</time>
      </trkpt>
      <trkpt lat="45.27309" lon="3.97024">
        <ele>841</ele>
        <time>2016-04-26T11:33:46Z</time>
      </trkpt>
      <trkpt lat="45.27303" lon="3.97019">
        <ele>840</ele>
        <time>2016-04-26T11:35:17Z</time>
      </trkpt>
      <trkpt lat="45.27303" lon="3.97034">
        <ele>840</ele>
        <time>2016-04-26T11:35:31Z</time>
      </trkpt>
      <trkpt lat="45.27308" lon="3.97047">
        <ele>840</ele>
        <time>2016-04-26T11:35:39Z</time>
      </trkpt>
      <trkpt lat="45.27312" lon="3.97052">
        <ele>839</ele>
        <time>2016-04-26T11:35:43Z</time>
      </trkpt>
      <trkpt lat="45.27316" lon="3.97053">
        <ele>839</ele>
        <time>2016-04-26T11:35:48Z</time>
      </trkpt>
      <trkpt lat="45.2733" lon="3.97046">
        <ele>840</ele>
        <time>2016-04-26T11:36:10Z</time>
      </trkpt>
      <trkpt lat="45.27326" lon="3.97037">
        <ele>840</ele>
        <time>2016-04-26T11:36:27Z</time>
      </trkpt>
      <trkpt lat="45.27323" lon="3.97031">
        <ele>839</ele>
        <time>2016-04-26T11:36:32Z</time>
      </trkpt>
      <trkpt lat="45.27321" lon="3.97025">
        <ele>839</ele>
        <time>2016-04-26T11:36:36Z</time>
      </trkpt>
      <trkpt lat="45.27321" lon="3.97019">
        <ele>838</ele>
        <time>2016-04-26T11:36:41Z</time>
      </trkpt>
      <trkpt lat="45.27325" lon="3.97014">
        <ele>838</ele>
        <time>2016-04-26T11:36:48Z</time>
      </trkpt>
      <trkpt lat="45.27334" lon="3.97007">
        <ele>838</ele>
        <time>2016-04-26T11:36:57Z</time>
      </trkpt>
      <trkpt lat="45.27335" lon="3.97003">
        <ele>837</ele>
        <time>2016-04-26T11:37:19Z</time>
      </trkpt>
      <trkpt lat="45.27335" lon="3.96994">
        <ele>837</ele>
        <time>2016-04-26T11:37:34Z</time>
      </trkpt>
      <trkpt lat="45.27334" lon="3.96987">
        <ele>837</ele>
        <time>2016-04-26T11:37:42Z</time>
      </trkpt>
      <trkpt lat="45.27343" lon="3.96988">
        <ele>838</ele>
        <time>2016-04-26T11:39:14Z</time>
      </trkpt>
      <trkpt lat="45.27345" lon="3.9698">
        <ele>838</ele>
        <time>2016-04-26T12:08:11Z</time>
      </trkpt>
      <trkpt lat="45.27349" lon="3.96983">
        <ele>838</ele>
        <time>2016-04-26T12:31:49Z</time>
      </trkpt>
      <trkpt lat="45.27342" lon="3.96994">
        <ele>838</ele>
        <time>2016-04-26T12:32:07Z</time>
      </trkpt>
      <trkpt lat="45.27337" lon="3.96992">
        <ele>838</ele>
        <time>2016-04-26T12:33:03Z</time>
      </trkpt>
      <trkpt lat="45.27342" lon="3.96989">
        <ele>838</ele>
        <time>2016-04-26T12:37:38Z</time>
      </trkpt>
      <trkpt lat="45.27331" lon="3.96983">
        <ele>838</ele>
        <time>2016-04-26T12:41:07Z</time>
      </trkpt>
      <trkpt lat="45.27353" lon="3.96994">
        <ele>838</ele>
        <time>2016-04-26T12:41:59Z</time>
      </trkpt>
      <trkpt lat="45.27326" lon="3.96988">
        <ele>837</ele>
        <time>2016-04-26T12:42:45Z</time>
      </trkpt>
      <trkpt lat="45.27322" lon="3.96993">
        <ele>837</ele>
        <time>2016-04-26T12:42:54Z</time>
      </trkpt>
      <trkpt lat="45.27317" lon="3.96993">
        <ele>837</ele>
        <time>2016-04-26T12:43:01Z</time>
      </trkpt>
      <trkpt lat="45.27309" lon="3.97">
        <ele>837</ele>
        <time>2016-04-26T12:43:11Z</time>
      </trkpt>
      <trkpt lat="45.27303" lon="3.97012">
        <ele>837</ele>
        <time>2016-04-26T12:43:22Z</time>
      </trkpt>
      <trkpt lat="45.27305" lon="3.97016">
        <ele>837</ele>
        <time>2016-04-26T12:43:55Z</time>
      </trkpt>
      <trkpt lat="45.27307" lon="3.97017">
        <ele>837</ele>
        <time>2016-04-26T12:44:28Z</time>
      </trkpt>
      <trkpt lat="45.27308" lon="3.97021">
        <ele>835</ele>
        <time>2016-04-26T12:45:13Z</time>
      </trkpt>
      <trkpt lat="45.27306" lon="3.97029">
        <ele>835</ele>
        <time>2016-04-26T12:45:15Z</time>
      </trkpt>
      <trkpt lat="45.27314" lon="3.9704">
        <ele>835</ele>
        <time>2016-04-26T12:45:26Z</time>
      </trkpt>
      <trkpt lat="45.2733" lon="3.97032">
        <ele>835</ele>
        <time>2016-04-26T12:45:32Z</time>
      </trkpt>
      <trkpt lat="45.27312" lon="3.97023">
        <ele>835</ele>
        <time>2016-04-26T12:46:10Z</time>
      </trkpt>
      <trkpt lat="45.27301" lon="3.9701">
        <ele>836</ele>
        <time>2016-04-26T12:46:27Z</time>
      </trkpt>
      <trkpt lat="45.27295" lon="3.97006">
        <ele>836</ele>
        <time>2016-04-26T12:46:32Z</time>
      </trkpt>
      <trkpt lat="45.27297" lon="3.97009">
        <ele>836</ele>
        <time>2016-04-26T12:46:46Z</time>
      </trkpt>
      <trkpt lat="45.27301" lon="3.97013">
        <ele>836</ele>
        <time>2016-04-26T12:46:50Z</time>
      </trkpt>
      <trkpt lat="45.27306" lon="3.97015">
        <ele>836</ele>
        <time>2016-04-26T12:46:56Z</time>
      </trkpt>
      <trkpt lat="45.27311" lon="3.97014">
        <ele>836</ele>
        <time>2016-04-26T12:47:01Z</time>
      </trkpt>
      <trkpt lat="45.27308" lon="3.97018">
        <ele>836</ele>
        <time>2016-04-26T12:47:40Z</time>
      </trkpt>
      <trkpt lat="45.2731" lon="3.97018">
        <ele>838</ele>
        <time>2016-04-26T12:48:58Z</time>
      </trkpt>
      <trkpt lat="45.27317" lon="3.97006">
        <ele>838</ele>
        <time>2016-04-26T12:49:22Z</time>
      </trkpt>
      <trkpt lat="45.2732" lon="3.97004">
        <ele>839</ele>
        <time>2016-04-26T12:49:29Z</time>
      </trkpt>
      <trkpt lat="45.27321" lon="3.96997">
        <ele>839</ele>
        <time>2016-04-26T12:49:34Z</time>
      </trkpt>
      <trkpt lat="45.27325" lon="3.96992">
        <ele>839</ele>
        <time>2016-04-26T12:49:38Z</time>
      </trkpt>
      <trkpt lat="45.27328" lon="3.96985">
        <ele>839</ele>
        <time>2016-04-26T12:49:42Z</time>
      </trkpt>
      <trkpt lat="45.27329" lon="3.96962">
        <ele>840</ele>
        <time>2016-04-26T12:49:57Z</time>
      </trkpt>
      <trkpt lat="45.27327" lon="3.96956">
        <ele>841</ele>
        <time>2016-04-26T12:50:03Z</time>
      </trkpt>
      <trkpt lat="45.27293" lon="3.96917">
        <ele>840</ele>
        <time>2016-04-26T12:50:39Z</time>
      </trkpt>
      <trkpt lat="45.27291" lon="3.96911">
        <ele>840</ele>
        <time>2016-04-26T12:50:44Z</time>
      </trkpt>
      <trkpt lat="45.27289" lon="3.96897">
        <ele>840</ele>
        <time>2016-04-26T12:50:52Z</time>
      </trkpt>
      <trkpt lat="45.27281" lon="3.9688">
        <ele>840</ele>
        <time>2016-04-26T12:51:06Z</time>
      </trkpt>
      <trkpt lat="45.27278" lon="3.96873">
        <ele>839</ele>
        <time>2016-04-26T12:51:12Z</time>
      </trkpt>
      <trkpt lat="45.2728" lon="3.96859">
        <ele>839</ele>
        <time>2016-04-26T12:51:20Z</time>
      </trkpt>
      <trkpt lat="45.27281" lon="3.96852">
        <ele>839</ele>
        <time>2016-04-26T12:51:26Z</time>
      </trkpt>
      <trkpt lat="45.27281" lon="3.96846">
        <ele>839</ele>
        <time>2016-04-26T12:51:32Z</time>
      </trkpt>
      <trkpt lat="45.27285" lon="3.96842">
        <ele>840</ele>
        <time>2016-04-26T12:51:37Z</time>
      </trkpt>
      <trkpt lat="45.27287" lon="3.96835">
        <ele>840</ele>
        <time>2016-04-26T12:51:44Z</time>
      </trkpt>
      <trkpt lat="45.27285" lon="3.96828">
        <ele>839</ele>
        <time>2016-04-26T12:51:49Z</time>
      </trkpt>
      <trkpt lat="45.27284" lon="3.96813">
        <ele>839</ele>
        <time>2016-04-26T12:52:01Z</time>
      </trkpt>
      <trkpt lat="45.27288" lon="3.96751">
        <ele>833</ele>
        <time>2016-04-26T12:53:03Z</time>
      </trkpt>
      <trkpt lat="45.27284" lon="3.96738">
        <ele>833</ele>
        <time>2016-04-26T12:53:11Z</time>
      </trkpt>
      <trkpt lat="45.27278" lon="3.96727">
        <ele>835</ele>
        <time>2016-04-26T12:53:19Z</time>
      </trkpt>
      <trkpt lat="45.27262" lon="3.96684">
        <ele>835</ele>
        <time>2016-04-26T12:53:49Z</time>
      </trkpt>
      <trkpt lat="45.2726" lon="3.96671">
        <ele>835</ele>
        <time>2016-04-26T12:53:57Z</time>
      </trkpt>
      <trkpt lat="45.27254" lon="3.96653">
        <ele>836</ele>
        <time>2016-04-26T12:54:14Z</time>
      </trkpt>
      <trkpt lat="45.27251" lon="3.96575">
        <ele>834</ele>
        <time>2016-04-26T12:55:07Z</time>
      </trkpt>
      <trkpt lat="45.2724" lon="3.96551">
        <ele>835</ele>
        <time>2016-04-26T12:55:27Z</time>
      </trkpt>
      <trkpt lat="45.27151" lon="3.9642">
        <ele>832</ele>
        <time>2016-04-26T12:57:36Z</time>
      </trkpt>
      <trkpt lat="45.27137" lon="3.96403">
        <ele>831</ele>
        <time>2016-04-26T12:57:55Z</time>
      </trkpt>
      <trkpt lat="45.27132" lon="3.96391">
        <ele>831</ele>
        <time>2016-04-26T12:58:04Z</time>
      </trkpt>
      <trkpt lat="45.27123" lon="3.96349">
        <ele>835</ele>
        <time>2016-04-26T12:58:35Z</time>
      </trkpt>
      <trkpt lat="45.27117" lon="3.9633">
        <ele>837</ele>
        <time>2016-04-26T12:58:50Z</time>
      </trkpt>
      <trkpt lat="45.27094" lon="3.96293">
        <ele>837</ele>
        <time>2016-04-26T12:59:25Z</time>
      </trkpt>
      <trkpt lat="45.27074" lon="3.96272">
        <ele>837</ele>
        <time>2016-04-26T12:59:49Z</time>
      </trkpt>
      <trkpt lat="45.2707" lon="3.9627">
        <ele>837</ele>
        <time>2016-04-26T12:59:54Z</time>
      </trkpt>
      <trkpt lat="45.27054" lon="3.96254">
        <ele>838</ele>
        <time>2016-04-26T13:00:14Z</time>
      </trkpt>
      <trkpt lat="45.27048" lon="3.96254">
        <ele>838</ele>
        <time>2016-04-26T13:00:19Z</time>
      </trkpt>
      <trkpt lat="45.27034" lon="3.96236">
        <ele>839</ele>
        <time>2016-04-26T13:00:41Z</time>
      </trkpt>
      <trkpt lat="45.27028" lon="3.96232">
        <ele>839</ele>
        <time>2016-04-26T13:00:59Z</time>
      </trkpt>
      <trkpt lat="45.27013" lon="3.96214">
        <ele>839</ele>
        <time>2016-04-26T13:01:17Z</time>
      </trkpt>
      <trkpt lat="45.27001" lon="3.96202">
        <ele>841</ele>
        <time>2016-04-26T13:01:28Z</time>
      </trkpt>
      <trkpt lat="45.26975" lon="3.96172">
        <ele>841</ele>
        <time>2016-04-26T13:02:05Z</time>
      </trkpt>
      <trkpt lat="45.26966" lon="3.96156">
        <ele>841</ele>
        <time>2016-04-26T13:02:18Z</time>
      </trkpt>
      <trkpt lat="45.26952" lon="3.96145">
        <ele>841</ele>
        <time>2016-04-26T13:02:34Z</time>
      </trkpt>
      <trkpt lat="45.26949" lon="3.96146">
        <ele>841</ele>
        <time>2016-04-26T13:02:42Z</time>
      </trkpt>
      <trkpt lat="45.26925" lon="3.96117">
        <ele>839</ele>
        <time>2016-04-26T13:03:14Z</time>
      </trkpt>
      <trkpt lat="45.26915" lon="3.96101">
        <ele>839</ele>
        <time>2016-04-26T13:03:29Z</time>
      </trkpt>
      <trkpt lat="45.269" lon="3.96066">
        <ele>838</ele>
        <time>2016-04-26T13:03:55Z</time>
      </trkpt>
      <trkpt lat="45.26893" lon="3.96055">
        <ele>837</ele>
        <time>2016-04-26T13:04:05Z</time>
      </trkpt>
      <trkpt lat="45.2687" lon="3.96029">
        <ele>837</ele>
        <time>2016-04-26T13:04:35Z</time>
      </trkpt>
      <trkpt lat="45.26856" lon="3.96">
        <ele>835</ele>
        <time>2016-04-26T13:04:57Z</time>
      </trkpt>
      <trkpt lat="45.26848" lon="3.95991">
        <ele>836</ele>
        <time>2016-04-26T13:05:06Z</time>
      </trkpt>
      <trkpt lat="45.26812" lon="3.95975">
        <ele>833</ele>
        <time>2016-04-26T13:05:40Z</time>
      </trkpt>
      <trkpt lat="45.26777" lon="3.9597">
        <ele>829</ele>
        <time>2016-04-26T13:06:13Z</time>
      </trkpt>
      <trkpt lat="45.26772" lon="3.95968">
        <ele>829</ele>
        <time>2016-04-26T13:06:20Z</time>
      </trkpt>
      <trkpt lat="45.26762" lon="3.95966">
        <ele>828</ele>
        <time>2016-04-26T13:06:29Z</time>
      </trkpt>
      <trkpt lat="45.26758" lon="3.95965">
        <ele>828</ele>
        <time>2016-04-26T13:06:33Z</time>
      </trkpt>
      <trkpt lat="45.26722" lon="3.95959">
        <ele>824</ele>
        <time>2016-04-26T13:07:07Z</time>
      </trkpt>
      <trkpt lat="45.26708" lon="3.95953">
        <ele>823</ele>
        <time>2016-04-26T13:07:21Z</time>
      </trkpt>
      <trkpt lat="45.26698" lon="3.95935">
        <ele>821</ele>
        <time>2016-04-26T13:07:36Z</time>
      </trkpt>
      <trkpt lat="45.26697" lon="3.95928">
        <ele>821</ele>
        <time>2016-04-26T13:07:41Z</time>
      </trkpt>
      <trkpt lat="45.26704" lon="3.9588">
        <ele>817</ele>
        <time>2016-04-26T13:08:12Z</time>
      </trkpt>
      <trkpt lat="45.267" lon="3.95855">
        <ele>814</ele>
        <time>2016-04-26T13:08:34Z</time>
      </trkpt>
      <trkpt lat="45.26692" lon="3.9583">
        <ele>811</ele>
        <time>2016-04-26T13:08:51Z</time>
      </trkpt>
      <trkpt lat="45.26692" lon="3.95823">
        <ele>811</ele>
        <time>2016-04-26T13:08:55Z</time>
      </trkpt>
      <trkpt lat="45.2669" lon="3.95816">
        <ele>810</ele>
        <time>2016-04-26T13:09:00Z</time>
      </trkpt>
      <trkpt lat="45.26687" lon="3.95789">
        <ele>807</ele>
        <time>2016-04-26T13:09:20Z</time>
      </trkpt>
      <trkpt lat="45.26687" lon="3.95742">
        <ele>803</ele>
        <time>2016-04-26T13:09:51Z</time>
      </trkpt>
      <trkpt lat="45.26682" lon="3.95701">
        <ele>798</ele>
        <time>2016-04-26T13:10:26Z</time>
      </trkpt>
      <trkpt lat="45.26666" lon="3.95676">
        <ele>794</ele>
        <time>2016-04-26T13:10:49Z</time>
      </trkpt>
      <trkpt lat="45.2666" lon="3.95679">
        <ele>794</ele>
        <time>2016-04-26T13:10:54Z</time>
      </trkpt>
      <trkpt lat="45.26656" lon="3.95683">
        <ele>793</ele>
        <time>2016-04-26T13:10:59Z</time>
      </trkpt>
      <trkpt lat="45.26654" lon="3.95689">
        <ele>793</ele>
        <time>2016-04-26T13:11:04Z</time>
      </trkpt>
      <trkpt lat="45.26655" lon="3.95695">
        <ele>792</ele>
        <time>2016-04-26T13:11:09Z</time>
      </trkpt>
      <trkpt lat="45.26656" lon="3.95703">
        <ele>792</ele>
        <time>2016-04-26T13:11:14Z</time>
      </trkpt>
      <trkpt lat="45.26651" lon="3.95738">
        <ele>789</ele>
        <time>2016-04-26T13:11:42Z</time>
      </trkpt>
      <trkpt lat="45.26646" lon="3.95749">
        <ele>789</ele>
        <time>2016-04-26T13:11:52Z</time>
      </trkpt>
      <trkpt lat="45.26645" lon="3.95763">
        <ele>789</ele>
        <time>2016-04-26T13:12:14Z</time>
      </trkpt>
      <trkpt lat="45.26643" lon="3.95765">
        <ele>789</ele>
        <time>2016-04-26T13:12:20Z</time>
      </trkpt>
      <trkpt lat="45.2664" lon="3.95762">
        <ele>789</ele>
        <time>2016-04-26T13:12:34Z</time>
      </trkpt>
      <trkpt lat="45.26636" lon="3.95764">
        <ele>792</ele>
        <time>2016-04-26T13:12:41Z</time>
      </trkpt>
      <trkpt lat="45.26633" lon="3.95769">
        <ele>793</ele>
        <time>2016-04-26T13:12:45Z</time>
      </trkpt>
      <trkpt lat="45.26628" lon="3.95781">
        <ele>790</ele>
        <time>2016-04-26T13:12:57Z</time>
      </trkpt>
      <trkpt lat="45.26622" lon="3.95787">
        <ele>793</ele>
        <time>2016-04-26T13:13:15Z</time>
      </trkpt>
      <trkpt lat="45.26612" lon="3.95792">
        <ele>794</ele>
        <time>2016-04-26T13:13:31Z</time>
      </trkpt>
      <trkpt lat="45.26608" lon="3.95795">
        <ele>794</ele>
        <time>2016-04-26T13:13:36Z</time>
      </trkpt>
      <trkpt lat="45.26603" lon="3.95796">
        <ele>795</ele>
        <time>2016-04-26T13:13:42Z</time>
      </trkpt>
      <trkpt lat="45.26598" lon="3.95795">
        <ele>795</ele>
        <time>2016-04-26T13:13:49Z</time>
      </trkpt>
      <trkpt lat="45.26596" lon="3.95789">
        <ele>797</ele>
        <time>2016-04-26T13:13:55Z</time>
      </trkpt>
      <trkpt lat="45.26593" lon="3.95783">
        <ele>797</ele>
        <time>2016-04-26T13:14:04Z</time>
      </trkpt>
      <trkpt lat="45.26592" lon="3.95776">
        <ele>798</ele>
        <time>2016-04-26T13:14:11Z</time>
      </trkpt>
      <trkpt lat="45.26592" lon="3.95769">
        <ele>799</ele>
        <time>2016-04-26T13:14:18Z</time>
      </trkpt>
      <trkpt lat="45.2659" lon="3.95762">
        <ele>799</ele>
        <time>2016-04-26T13:14:25Z</time>
      </trkpt>
      <trkpt lat="45.26583" lon="3.95754">
        <ele>800</ele>
        <time>2016-04-26T13:14:39Z</time>
      </trkpt>
      <trkpt lat="45.26564" lon="3.95744">
        <ele>803</ele>
        <time>2016-04-26T13:15:08Z</time>
      </trkpt>
      <trkpt lat="45.26555" lon="3.95746">
        <ele>805</ele>
        <time>2016-04-26T13:15:20Z</time>
      </trkpt>
      <trkpt lat="45.2655" lon="3.95746">
        <ele>806</ele>
        <time>2016-04-26T13:15:26Z</time>
      </trkpt>
      <trkpt lat="45.2653" lon="3.95749">
        <ele>808</ele>
        <time>2016-04-26T13:15:59Z</time>
      </trkpt>
      <trkpt lat="45.26523" lon="3.95748">
        <ele>808</ele>
        <time>2016-04-26T13:16:13Z</time>
      </trkpt>
      <trkpt lat="45.26506" lon="3.95749">
        <ele>809</ele>
        <time>2016-04-26T13:16:48Z</time>
      </trkpt>
      <trkpt lat="45.26473" lon="3.95745">
        <ele>813</ele>
        <time>2016-04-26T13:17:39Z</time>
      </trkpt>
      <trkpt lat="45.26467" lon="3.95745">
        <ele>814</ele>
        <time>2016-04-26T13:17:55Z</time>
      </trkpt>
      <trkpt lat="45.26448" lon="3.95738">
        <ele>819</ele>
        <time>2016-04-26T13:18:22Z</time>
      </trkpt>
      <trkpt lat="45.26444" lon="3.95735">
        <ele>819</ele>
        <time>2016-04-26T13:18:27Z</time>
      </trkpt>
      <trkpt lat="45.26439" lon="3.95734">
        <ele>820</ele>
        <time>2016-04-26T13:18:36Z</time>
      </trkpt>
      <trkpt lat="45.26429" lon="3.95734">
        <ele>819</ele>
        <time>2016-04-26T13:18:47Z</time>
      </trkpt>
      <trkpt lat="45.2642" lon="3.95736">
        <ele>819</ele>
        <time>2016-04-26T13:19:01Z</time>
      </trkpt>
      <trkpt lat="45.26415" lon="3.95736">
        <ele>819</ele>
        <time>2016-04-26T13:19:09Z</time>
      </trkpt>
      <trkpt lat="45.26393" lon="3.95745">
        <ele>822</ele>
        <time>2016-04-26T13:19:40Z</time>
      </trkpt>
      <trkpt lat="45.26343" lon="3.9575">
        <ele>831</ele>
        <time>2016-04-26T13:21:00Z</time>
      </trkpt>
      <trkpt lat="45.26316" lon="3.95761">
        <ele>835</ele>
        <time>2016-04-26T13:21:34Z</time>
      </trkpt>
      <trkpt lat="45.26288" lon="3.95769">
        <ele>838</ele>
        <time>2016-04-26T13:22:04Z</time>
      </trkpt>
      <trkpt lat="45.26283" lon="3.95771">
        <ele>839</ele>
        <time>2016-04-26T13:22:09Z</time>
      </trkpt>
      <trkpt lat="45.26278" lon="3.9577">
        <ele>839</ele>
        <time>2016-04-26T13:22:14Z</time>
      </trkpt>
      <trkpt lat="45.26276" lon="3.95772">
        <ele>840</ele>
        <time>2016-04-26T13:22:53Z</time>
      </trkpt>
      <trkpt lat="45.26261" lon="3.95773">
        <ele>841</ele>
        <time>2016-04-26T13:23:12Z</time>
      </trkpt>
      <trkpt lat="45.26257" lon="3.95778">
        <ele>841</ele>
        <time>2016-04-26T13:23:17Z</time>
      </trkpt>
      <trkpt lat="45.26231" lon="3.95782">
        <ele>842</ele>
        <time>2016-04-26T13:23:51Z</time>
      </trkpt>
      <trkpt lat="45.26227" lon="3.95779">
        <ele>843</ele>
        <time>2016-04-26T13:24:38Z</time>
      </trkpt>
      <trkpt lat="45.26227" lon="3.95782">
        <ele>845</ele>
        <time>2016-04-26T13:24:54Z</time>
      </trkpt>
      <trkpt lat="45.2622" lon="3.95782">
        <ele>845</ele>
        <time>2016-04-26T13:25:12Z</time>
      </trkpt>
      <trkpt lat="45.26215" lon="3.95783">
        <ele>845</ele>
        <time>2016-04-26T13:25:17Z</time>
      </trkpt>
      <trkpt lat="45.26211" lon="3.95784">
        <ele>845</ele>
        <time>2016-04-26T13:25:22Z</time>
      </trkpt>
      <trkpt lat="45.26186" lon="3.95782">
        <ele>847</ele>
        <time>2016-04-26T13:25:51Z</time>
      </trkpt>
      <trkpt lat="45.26181" lon="3.95783">
        <ele>847</ele>
        <time>2016-04-26T13:25:56Z</time>
      </trkpt>
      <trkpt lat="45.26161" lon="3.95782">
        <ele>849</ele>
        <time>2016-04-26T13:26:17Z</time>
      </trkpt>
      <trkpt lat="45.26142" lon="3.95776">
        <ele>849</ele>
        <time>2016-04-26T13:26:38Z</time>
      </trkpt>
      <trkpt lat="45.26087" lon="3.95744">
        <ele>853</ele>
        <time>2016-04-26T13:27:55Z</time>
      </trkpt>
      <trkpt lat="45.26081" lon="3.95744">
        <ele>854</ele>
        <time>2016-04-26T13:28:00Z</time>
      </trkpt>
      <trkpt lat="45.25962" lon="3.95756">
        <ele>855</ele>
        <time>2016-04-26T13:30:07Z</time>
      </trkpt>
      <trkpt lat="45.25928" lon="3.95755">
        <ele>855</ele>
        <time>2016-04-26T13:30:42Z</time>
      </trkpt>
      <trkpt lat="45.25901" lon="3.95739">
        <ele>855</ele>
        <time>2016-04-26T13:31:13Z</time>
      </trkpt>
      <trkpt lat="45.25874" lon="3.95718">
        <ele>857</ele>
        <time>2016-04-26T13:31:46Z</time>
      </trkpt>
      <trkpt lat="45.25869" lon="3.95716">
        <ele>857</ele>
        <time>2016-04-26T13:31:51Z</time>
      </trkpt>
      <trkpt lat="45.25843" lon="3.95692">
        <ele>860</ele>
        <time>2016-04-26T13:32:21Z</time>
      </trkpt>
      <trkpt lat="45.25823" lon="3.95665">
        <ele>864</ele>
        <time>2016-04-26T13:33:04Z</time>
      </trkpt>
      <trkpt lat="45.25819" lon="3.95662">
        <ele>864</ele>
        <time>2016-04-26T13:33:10Z</time>
      </trkpt>
      <trkpt lat="45.25816" lon="3.95657">
        <ele>864</ele>
        <time>2016-04-26T13:33:16Z</time>
      </trkpt>
      <trkpt lat="45.25805" lon="3.95644">
        <ele>867</ele>
        <time>2016-04-26T13:33:34Z</time>
      </trkpt>
      <trkpt lat="45.258" lon="3.95642">
        <ele>867</ele>
        <time>2016-04-26T13:33:40Z</time>
      </trkpt>
      <trkpt lat="45.258" lon="3.95634">
        <ele>868</ele>
        <time>2016-04-26T13:33:55Z</time>
      </trkpt>
      <trkpt lat="45.25795" lon="3.95635">
        <ele>869</ele>
        <time>2016-04-26T13:34:17Z</time>
      </trkpt>
      <trkpt lat="45.25789" lon="3.9563">
        <ele>869</ele>
        <time>2016-04-26T13:34:30Z</time>
      </trkpt>
      <trkpt lat="45.25785" lon="3.95624">
        <ele>869</ele>
        <time>2016-04-26T13:34:35Z</time>
      </trkpt>
      <trkpt lat="45.25755" lon="3.95601">
        <ele>873</ele>
        <time>2016-04-26T13:35:09Z</time>
      </trkpt>
      <trkpt lat="45.25724" lon="3.95587">
        <ele>878</ele>
        <time>2016-04-26T13:35:43Z</time>
      </trkpt>
      <trkpt lat="45.25719" lon="3.95588">
        <ele>874</ele>
        <time>2016-04-26T13:36:26Z</time>
      </trkpt>
      <trkpt lat="45.2572" lon="3.95592">
        <ele>874</ele>
        <time>2016-04-26T13:36:27Z</time>
      </trkpt>
      <trkpt lat="45.25715" lon="3.95591">
        <ele>875</ele>
        <time>2016-04-26T13:36:32Z</time>
      </trkpt>
      <trkpt lat="45.25706" lon="3.95585">
        <ele>876</ele>
        <time>2016-04-26T13:36:42Z</time>
      </trkpt>
      <trkpt lat="45.25687" lon="3.95578">
        <ele>875</ele>
        <time>2016-04-26T13:37:03Z</time>
      </trkpt>
      <trkpt lat="45.25677" lon="3.95576">
        <ele>876</ele>
        <time>2016-04-26T13:37:14Z</time>
      </trkpt>
      <trkpt lat="45.25642" lon="3.95564">
        <ele>878</ele>
        <time>2016-04-26T13:37:49Z</time>
      </trkpt>
      <trkpt lat="45.25623" lon="3.95554">
        <ele>879</ele>
        <time>2016-04-26T13:38:11Z</time>
      </trkpt>
      <trkpt lat="45.25532" lon="3.9552">
        <ele>886</ele>
        <time>2016-04-26T13:39:49Z</time>
      </trkpt>
      <trkpt lat="45.25517" lon="3.95517">
        <ele>885</ele>
        <time>2016-04-26T13:40:04Z</time>
      </trkpt>
      <trkpt lat="45.25498" lon="3.9551">
        <ele>886</ele>
        <time>2016-04-26T13:40:25Z</time>
      </trkpt>
      <trkpt lat="45.25484" lon="3.95501">
        <ele>887</ele>
        <time>2016-04-26T13:40:43Z</time>
      </trkpt>
      <trkpt lat="45.25481" lon="3.95496">
        <ele>889</ele>
        <time>2016-04-26T13:40:50Z</time>
      </trkpt>
      <trkpt lat="45.25473" lon="3.95489">
        <ele>890</ele>
        <time>2016-04-26T13:41:02Z</time>
      </trkpt>
      <trkpt lat="45.25471" lon="3.95484">
        <ele>891</ele>
        <time>2016-04-26T13:41:10Z</time>
      </trkpt>
      <trkpt lat="45.25467" lon="3.9548">
        <ele>891</ele>
        <time>2016-04-26T13:41:15Z</time>
      </trkpt>
      <trkpt lat="45.25445" lon="3.95464">
        <ele>892</ele>
        <time>2016-04-26T13:41:43Z</time>
      </trkpt>
      <trkpt lat="45.25439" lon="3.95455">
        <ele>893</ele>
        <time>2016-04-26T13:41:51Z</time>
      </trkpt>
      <trkpt lat="45.25431" lon="3.95446">
        <ele>893</ele>
        <time>2016-04-26T13:42:01Z</time>
      </trkpt>
      <trkpt lat="45.25407" lon="3.95408">
        <ele>892</ele>
        <time>2016-04-26T13:42:37Z</time>
      </trkpt>
      <trkpt lat="45.25371" lon="3.95339">
        <ele>895</ele>
        <time>2016-04-26T13:43:38Z</time>
      </trkpt>
      <trkpt lat="45.25351" lon="3.95315">
        <ele>895</ele>
        <time>2016-04-26T13:44:03Z</time>
      </trkpt>
      <trkpt lat="45.25335" lon="3.9531">
        <ele>895</ele>
        <time>2016-04-26T13:44:18Z</time>
      </trkpt>
      <trkpt lat="45.25295" lon="3.95303">
        <ele>897</ele>
        <time>2016-04-26T13:45:00Z</time>
      </trkpt>
      <trkpt lat="45.25223" lon="3.95305">
        <ele>899</ele>
        <time>2016-04-26T13:46:09Z</time>
      </trkpt>
      <trkpt lat="45.25162" lon="3.95313">
        <ele>901</ele>
        <time>2016-04-26T13:47:07Z</time>
      </trkpt>
      <trkpt lat="45.25065" lon="3.95319">
        <ele>902</ele>
        <time>2016-04-26T13:48:45Z</time>
      </trkpt>
      <trkpt lat="45.25055" lon="3.95319">
        <ele>902</ele>
        <time>2016-04-26T13:48:55Z</time>
      </trkpt>
      <trkpt lat="45.24908" lon="3.95328">
        <ele>909</ele>
        <time>2016-04-26T13:51:18Z</time>
      </trkpt>
      <trkpt lat="45.24887" lon="3.95325">
        <ele>909</ele>
        <time>2016-04-26T13:51:38Z</time>
      </trkpt>
      <trkpt lat="45.24862" lon="3.95319">
        <ele>908</ele>
        <time>2016-04-26T13:53:17Z</time>
      </trkpt>
      <trkpt lat="45.24857" lon="3.95317">
        <ele>909</ele>
        <time>2016-04-26T13:53:21Z</time>
      </trkpt>
      <trkpt lat="45.24847" lon="3.95313">
        <ele>908</ele>
        <time>2016-04-26T13:53:28Z</time>
      </trkpt>
      <trkpt lat="45.24842" lon="3.9531">
        <ele>908</ele>
        <time>2016-04-26T13:53:32Z</time>
      </trkpt>
      <trkpt lat="45.24838" lon="3.95307">
        <ele>908</ele>
        <time>2016-04-26T13:53:36Z</time>
      </trkpt>
      <trkpt lat="45.24816" lon="3.95294">
        <ele>908</ele>
        <time>2016-04-26T13:53:56Z</time>
      </trkpt>
      <trkpt lat="45.24744" lon="3.95242">
        <ele>906</ele>
        <time>2016-04-26T13:55:02Z</time>
      </trkpt>
      <trkpt lat="45.24732" lon="3.9523">
        <ele>905</ele>
        <time>2016-04-26T13:55:16Z</time>
      </trkpt>
      <trkpt lat="45.24728" lon="3.95227">
        <ele>905</ele>
        <time>2016-04-26T13:55:22Z</time>
      </trkpt>
      <trkpt lat="45.24724" lon="3.95222">
        <ele>905</ele>
        <time>2016-04-26T13:55:27Z</time>
      </trkpt>
      <trkpt lat="45.24715" lon="3.95215">
        <ele>904</ele>
        <time>2016-04-26T13:55:39Z</time>
      </trkpt>
      <trkpt lat="45.24672" lon="3.95174">
        <ele>904</ele>
        <time>2016-04-26T13:56:26Z</time>
      </trkpt>
      <trkpt lat="45.24613" lon="3.95112">
        <ele>904</ele>
        <time>2016-04-26T13:57:40Z</time>
      </trkpt>
      <trkpt lat="45.24575" lon="3.95081">
        <ele>906</ele>
        <time>2016-04-26T13:58:23Z</time>
      </trkpt>
      <trkpt lat="45.24503" lon="3.9505">
        <ele>907</ele>
        <time>2016-04-26T13:59:44Z</time>
      </trkpt>
      <trkpt lat="45.24498" lon="3.95048">
        <ele>907</ele>
        <time>2016-04-26T13:59:49Z</time>
      </trkpt>
      <trkpt lat="45.24429" lon="3.95005">
        <ele>907</ele>
        <time>2016-04-26T14:01:04Z</time>
      </trkpt>
      <trkpt lat="45.24385" lon="3.94975">
        <ele>905</ele>
        <time>2016-04-26T14:01:56Z</time>
      </trkpt>
      <trkpt lat="45.24381" lon="3.94969">
        <ele>906</ele>
        <time>2016-04-26T14:02:01Z</time>
      </trkpt>
      <trkpt lat="45.24343" lon="3.94939">
        <ele>903</ele>
        <time>2016-04-26T14:02:44Z</time>
      </trkpt>
      <trkpt lat="45.24288" lon="3.94909">
        <ele>901</ele>
        <time>2016-04-26T14:03:45Z</time>
      </trkpt>
      <trkpt lat="45.24254" lon="3.9488">
        <ele>903</ele>
        <time>2016-04-26T14:04:23Z</time>
      </trkpt>
      <trkpt lat="45.2425" lon="3.94877">
        <ele>903</ele>
        <time>2016-04-26T14:04:28Z</time>
      </trkpt>
      <trkpt lat="45.2422" lon="3.94871">
        <ele>903</ele>
        <time>2016-04-26T14:05:00Z</time>
      </trkpt>
      <trkpt lat="45.24187" lon="3.94857">
        <ele>903</ele>
        <time>2016-04-26T14:05:31Z</time>
      </trkpt>
      <trkpt lat="45.24179" lon="3.94847">
        <ele>903</ele>
        <time>2016-04-26T14:05:44Z</time>
      </trkpt>
      <trkpt lat="45.24175" lon="3.94846">
        <ele>903</ele>
        <time>2016-04-26T14:05:49Z</time>
      </trkpt>
      <trkpt lat="45.2417" lon="3.94846">
        <ele>903</ele>
        <time>2016-04-26T14:05:54Z</time>
      </trkpt>
      <trkpt lat="45.24161" lon="3.94854">
        <ele>902</ele>
        <time>2016-04-26T14:06:05Z</time>
      </trkpt>
      <trkpt lat="45.24164" lon="3.9485">
        <ele>903</ele>
        <time>2016-04-26T14:06:26Z</time>
      </trkpt>
      <trkpt lat="45.24168" lon="3.94846">
        <ele>903</ele>
        <time>2016-04-26T14:06:33Z</time>
      </trkpt>
      <trkpt lat="45.2417" lon="3.94839">
        <ele>903</ele>
        <time>2016-04-26T14:06:41Z</time>
      </trkpt>
      <trkpt lat="45.24166" lon="3.94835">
        <ele>904</ele>
        <time>2016-04-26T14:06:46Z</time>
      </trkpt>
      <trkpt lat="45.24161" lon="3.94833">
        <ele>904</ele>
        <time>2016-04-26T14:06:52Z</time>
      </trkpt>
      <trkpt lat="45.24157" lon="3.94833">
        <ele>904</ele>
        <time>2016-04-26T14:06:57Z</time>
      </trkpt>
      <trkpt lat="45.24152" lon="3.9483">
        <ele>903</ele>
        <time>2016-04-26T14:07:01Z</time>
      </trkpt>
      <trkpt lat="45.24148" lon="3.94825">
        <ele>904</ele>
        <time>2016-04-26T14:07:05Z</time>
      </trkpt>
      <trkpt lat="45.24139" lon="3.9482">
        <ele>904</ele>
        <time>2016-04-26T14:07:15Z</time>
      </trkpt>
      <trkpt lat="45.24134" lon="3.94817">
        <ele>904</ele>
        <time>2016-04-26T14:07:20Z</time>
      </trkpt>
      <trkpt lat="45.24106" lon="3.94784">
        <ele>907</ele>
        <time>2016-04-26T14:08:12Z</time>
      </trkpt>
      <trkpt lat="45.24082" lon="3.94757">
        <ele>912</ele>
        <time>2016-04-26T14:08:46Z</time>
      </trkpt>
      <trkpt lat="45.24075" lon="3.94746">
        <ele>913</ele>
        <time>2016-04-26T14:08:57Z</time>
      </trkpt>
      <trkpt lat="45.24073" lon="3.9474">
        <ele>914</ele>
        <time>2016-04-26T14:09:02Z</time>
      </trkpt>
      <trkpt lat="45.24069" lon="3.94736">
        <ele>914</ele>
        <time>2016-04-26T14:09:08Z</time>
      </trkpt>
      <trkpt lat="45.24037" lon="3.94716">
        <ele>917</ele>
        <time>2016-04-26T14:09:42Z</time>
      </trkpt>
      <trkpt lat="45.24028" lon="3.94711">
        <ele>917</ele>
        <time>2016-04-26T14:09:52Z</time>
      </trkpt>
      <trkpt lat="45.24023" lon="3.94708">
        <ele>918</ele>
        <time>2016-04-26T14:09:58Z</time>
      </trkpt>
      <trkpt lat="45.24018" lon="3.94707">
        <ele>918</ele>
        <time>2016-04-26T14:10:03Z</time>
      </trkpt>
      <trkpt lat="45.23999" lon="3.94696">
        <ele>918</ele>
        <time>2016-04-26T14:10:23Z</time>
      </trkpt>
      <trkpt lat="45.23984" lon="3.94681">
        <ele>918</ele>
        <time>2016-04-26T14:10:46Z</time>
      </trkpt>
      <trkpt lat="45.2398" lon="3.94675">
        <ele>918</ele>
        <time>2016-04-26T14:11:24Z</time>
      </trkpt>
      <trkpt lat="45.23976" lon="3.9467">
        <ele>918</ele>
        <time>2016-04-26T14:11:29Z</time>
      </trkpt>
      <trkpt lat="45.23956" lon="3.94616">
        <ele>917</ele>
        <time>2016-04-26T14:12:17Z</time>
      </trkpt>
      <trkpt lat="45.23944" lon="3.94576">
        <ele>916</ele>
        <time>2016-04-26T14:12:49Z</time>
      </trkpt>
      <trkpt lat="45.23932" lon="3.94565">
        <ele>916</ele>
        <time>2016-04-26T14:13:07Z</time>
      </trkpt>
      <trkpt lat="45.2392" lon="3.94542">
        <ele>915</ele>
        <time>2016-04-26T14:13:29Z</time>
      </trkpt>
      <trkpt lat="45.23915" lon="3.94538">
        <ele>915</ele>
        <time>2016-04-26T14:13:34Z</time>
      </trkpt>
      <trkpt lat="45.23908" lon="3.9453">
        <ele>914</ele>
        <time>2016-04-26T14:13:45Z</time>
      </trkpt>
      <trkpt lat="45.23906" lon="3.94523">
        <ele>914</ele>
        <time>2016-04-26T14:13:49Z</time>
      </trkpt>
      <trkpt lat="45.23885" lon="3.94485">
        <ele>911</ele>
        <time>2016-04-26T14:14:23Z</time>
      </trkpt>
      <trkpt lat="45.23884" lon="3.94481">
        <ele>911</ele>
        <time>2016-04-26T14:14:35Z</time>
      </trkpt>
      <trkpt lat="45.23865" lon="3.94455">
        <ele>909</ele>
        <time>2016-04-26T14:15:08Z</time>
      </trkpt>
      <trkpt lat="45.23851" lon="3.94427">
        <ele>908</ele>
        <time>2016-04-26T14:15:38Z</time>
      </trkpt>
      <trkpt lat="45.23836" lon="3.94407">
        <ele>908</ele>
        <time>2016-04-26T14:16:00Z</time>
      </trkpt>
      <trkpt lat="45.23834" lon="3.94405">
        <ele>908</ele>
        <time>2016-04-26T14:16:06Z</time>
      </trkpt>
      <trkpt lat="45.2383" lon="3.94402">
        <ele>908</ele>
        <time>2016-04-26T14:16:19Z</time>
      </trkpt>
      <trkpt lat="45.23785" lon="3.94327">
        <ele>900</ele>
        <time>2016-04-26T14:17:44Z</time>
      </trkpt>
      <trkpt lat="45.23776" lon="3.94323">
        <ele>899</ele>
        <time>2016-04-26T14:17:54Z</time>
      </trkpt>
      <trkpt lat="45.23773" lon="3.94317">
        <ele>898</ele>
        <time>2016-04-26T14:18:02Z</time>
      </trkpt>
      <trkpt lat="45.23771" lon="3.9431">
        <ele>898</ele>
        <time>2016-04-26T14:18:07Z</time>
      </trkpt>
      <trkpt lat="45.23768" lon="3.94222">
        <ele>895</ele>
        <time>2016-04-26T14:19:10Z</time>
      </trkpt>
      <trkpt lat="45.23766" lon="3.94216">
        <ele>895</ele>
        <time>2016-04-26T14:19:15Z</time>
      </trkpt>
      <trkpt lat="45.23762" lon="3.94214">
        <ele>894</ele>
        <time>2016-04-26T14:19:22Z</time>
      </trkpt>
      <trkpt lat="45.23757" lon="3.94215">
        <ele>893</ele>
        <time>2016-04-26T14:19:30Z</time>
      </trkpt>
      <trkpt lat="45.23746" lon="3.94217">
        <ele>893</ele>
        <time>2016-04-26T14:19:46Z</time>
      </trkpt>
      <trkpt lat="45.23731" lon="3.94215">
        <ele>893</ele>
        <time>2016-04-26T14:20:03Z</time>
      </trkpt>
      <trkpt lat="45.23727" lon="3.94221">
        <ele>894</ele>
        <time>2016-04-26T14:20:22Z</time>
      </trkpt>
      <trkpt lat="45.23724" lon="3.94219">
        <ele>895</ele>
        <time>2016-04-26T14:21:57Z</time>
      </trkpt>
      <trkpt lat="45.23722" lon="3.94222">
        <ele>895</ele>
        <time>2016-04-26T14:22:19Z</time>
      </trkpt>
      <trkpt lat="45.23721" lon="3.94227">
        <ele>895</ele>
        <time>2016-04-26T14:22:28Z</time>
      </trkpt>
      <trkpt lat="45.2372" lon="3.94233">
        <ele>894</ele>
        <time>2016-04-26T14:22:35Z</time>
      </trkpt>
      <trkpt lat="45.23715" lon="3.94243">
        <ele>894</ele>
        <time>2016-04-26T14:22:46Z</time>
      </trkpt>
      <trkpt lat="45.23712" lon="3.94244">
        <ele>895</ele>
        <time>2016-04-26T14:22:57Z</time>
      </trkpt>
      <trkpt lat="45.23709" lon="3.9425">
        <ele>895</ele>
        <time>2016-04-26T14:23:07Z</time>
      </trkpt>
      <trkpt lat="45.23688" lon="3.94269">
        <ele>892</ele>
        <time>2016-04-26T14:23:34Z</time>
      </trkpt>
      <trkpt lat="45.23683" lon="3.94269">
        <ele>892</ele>
        <time>2016-04-26T14:23:40Z</time>
      </trkpt>
      <trkpt lat="45.23615" lon="3.94283">
        <ele>887</ele>
        <time>2016-04-26T14:24:50Z</time>
      </trkpt>
      <trkpt lat="45.23608" lon="3.94276">
        <ele>886</ele>
        <time>2016-04-26T14:25:07Z</time>
      </trkpt>
      <trkpt lat="45.23595" lon="3.94277">
        <ele>886</ele>
        <time>2016-04-26T14:25:25Z</time>
      </trkpt>
      <trkpt lat="45.23573" lon="3.94284">
        <ele>885</ele>
        <time>2016-04-26T14:26:11Z</time>
      </trkpt>
      <trkpt lat="45.23558" lon="3.94283">
        <ele>887</ele>
        <time>2016-04-26T14:26:29Z</time>
      </trkpt>
      <trkpt lat="45.23553" lon="3.94282">
        <ele>887</ele>
        <time>2016-04-26T14:26:37Z</time>
      </trkpt>
      <trkpt lat="45.23531" lon="3.94275">
        <ele>889</ele>
        <time>2016-04-26T14:27:08Z</time>
      </trkpt>
      <trkpt lat="45.2347" lon="3.94239">
        <ele>889</ele>
        <time>2016-04-26T14:28:40Z</time>
      </trkpt>
      <trkpt lat="45.23466" lon="3.94236">
        <ele>889</ele>
        <time>2016-04-26T14:28:54Z</time>
      </trkpt>
      <trkpt lat="45.23456" lon="3.94236">
        <ele>889</ele>
        <time>2016-04-26T14:29:04Z</time>
      </trkpt>
      <trkpt lat="45.23427" lon="3.94245">
        <ele>887</ele>
        <time>2016-04-26T14:29:39Z</time>
      </trkpt>
      <trkpt lat="45.23399" lon="3.94261">
        <ele>884</ele>
        <time>2016-04-26T14:30:09Z</time>
      </trkpt>
      <trkpt lat="45.23389" lon="3.94265">
        <ele>884</ele>
        <time>2016-04-26T14:30:19Z</time>
      </trkpt>
      <trkpt lat="45.23384" lon="3.94265">
        <ele>884</ele>
        <time>2016-04-26T14:30:24Z</time>
      </trkpt>
      <trkpt lat="45.23357" lon="3.94259">
        <ele>884</ele>
        <time>2016-04-26T14:30:59Z</time>
      </trkpt>
      <trkpt lat="45.23348" lon="3.94264">
        <ele>884</ele>
        <time>2016-04-26T14:31:09Z</time>
      </trkpt>
      <trkpt lat="45.23347" lon="3.94271">
        <ele>883</ele>
        <time>2016-04-26T14:31:15Z</time>
      </trkpt>
      <trkpt lat="45.23353" lon="3.94273">
        <ele>883</ele>
        <time>2016-04-26T14:31:23Z</time>
      </trkpt>
      <trkpt lat="45.23357" lon="3.94279">
        <ele>883</ele>
        <time>2016-04-26T15:23:50Z</time>
      </trkpt>
      <trkpt lat="45.2335" lon="3.94275">
        <ele>882</ele>
        <time>2016-04-26T15:24:49Z</time>
      </trkpt>
      <trkpt lat="45.23345" lon="3.94276">
        <ele>882</ele>
        <time>2016-04-26T15:24:57Z</time>
      </trkpt>
      <trkpt lat="45.23335" lon="3.9427">
        <ele>881</ele>
        <time>2016-04-26T15:25:11Z</time>
      </trkpt>
      <trkpt lat="45.23326" lon="3.94272">
        <ele>881</ele>
        <time>2016-04-26T15:25:20Z</time>
      </trkpt>
      <trkpt lat="45.23311" lon="3.94287">
        <ele>880</ele>
        <time>2016-04-26T15:25:37Z</time>
      </trkpt>
      <trkpt lat="45.23308" lon="3.94286">
        <ele>880</ele>
        <time>2016-04-26T15:25:43Z</time>
      </trkpt>
      <trkpt lat="45.23303" lon="3.94287">
        <ele>880</ele>
        <time>2016-04-26T15:25:48Z</time>
      </trkpt>
      <trkpt lat="45.2327" lon="3.94301">
        <ele>880</ele>
        <time>2016-04-26T15:26:23Z</time>
      </trkpt>
      <trkpt lat="45.2326" lon="3.94302">
        <ele>882</ele>
        <time>2016-04-26T15:26:36Z</time>
      </trkpt>
      <trkpt lat="45.23242" lon="3.94314">
        <ele>883</ele>
        <time>2016-04-26T15:27:05Z</time>
      </trkpt>
      <trkpt lat="45.23222" lon="3.94318">
        <ele>882</ele>
        <time>2016-04-26T15:27:29Z</time>
      </trkpt>
      <trkpt lat="45.23204" lon="3.94326">
        <ele>881</ele>
        <time>2016-04-26T15:27:49Z</time>
      </trkpt>
      <trkpt lat="45.23199" lon="3.94324">
        <ele>881</ele>
        <time>2016-04-26T15:27:59Z</time>
      </trkpt>
      <trkpt lat="45.23184" lon="3.94326">
        <ele>882</ele>
        <time>2016-04-26T15:28:14Z</time>
      </trkpt>
      <trkpt lat="45.23179" lon="3.94328">
        <ele>884</ele>
        <time>2016-04-26T15:28:19Z</time>
      </trkpt>
      <trkpt lat="45.23165" lon="3.94324">
        <ele>885</ele>
        <time>2016-04-26T15:28:35Z</time>
      </trkpt>
      <trkpt lat="45.2315" lon="3.94317">
        <ele>881</ele>
        <time>2016-04-26T15:28:54Z</time>
      </trkpt>
      <trkpt lat="45.23145" lon="3.94316">
        <ele>881</ele>
        <time>2016-04-26T15:28:59Z</time>
      </trkpt>
      <trkpt lat="45.2309" lon="3.94294">
        <ele>883</ele>
        <time>2016-04-26T15:29:54Z</time>
      </trkpt>
      <trkpt lat="45.23085" lon="3.94291">
        <ele>883</ele>
        <time>2016-04-26T15:30:00Z</time>
      </trkpt>
      <trkpt lat="45.23076" lon="3.94287">
        <ele>884</ele>
        <time>2016-04-26T15:30:13Z</time>
      </trkpt>
      <trkpt lat="45.23021" lon="3.94255">
        <ele>879</ele>
        <time>2016-04-26T15:31:13Z</time>
      </trkpt>
      <trkpt lat="45.22992" lon="3.9423">
        <ele>876</ele>
        <time>2016-04-26T15:31:47Z</time>
      </trkpt>
      <trkpt lat="45.22944" lon="3.94177">
        <ele>870</ele>
        <time>2016-04-26T15:32:49Z</time>
      </trkpt>
      <trkpt lat="45.22902" lon="3.94159">
        <ele>866</ele>
        <time>2016-04-26T15:33:46Z</time>
      </trkpt>
      <trkpt lat="45.22885" lon="3.9415">
        <ele>862</ele>
        <time>2016-04-26T15:34:06Z</time>
      </trkpt>
      <trkpt lat="45.22881" lon="3.9415">
        <ele>862</ele>
        <time>2016-04-26T15:35:59Z</time>
      </trkpt>
      <trkpt lat="45.22875" lon="3.94144">
        <ele>861</ele>
        <time>2016-04-26T15:36:26Z</time>
      </trkpt>
      <trkpt lat="45.22872" lon="3.9414">
        <ele>862</ele>
        <time>2016-04-26T15:36:30Z</time>
      </trkpt>
      <trkpt lat="45.22844" lon="3.94124">
        <ele>859</ele>
        <time>2016-04-26T15:36:55Z</time>
      </trkpt>
      <trkpt lat="45.2284" lon="3.94121">
        <ele>858</ele>
        <time>2016-04-26T15:36:59Z</time>
      </trkpt>
      <trkpt lat="45.22807" lon="3.94102">
        <ele>858</ele>
        <time>2016-04-26T15:37:28Z</time>
      </trkpt>
      <trkpt lat="45.22802" lon="3.94097">
        <ele>859</ele>
        <time>2016-04-26T15:37:36Z</time>
      </trkpt>
      <trkpt lat="45.22727" lon="3.94052">
        <ele>855</ele>
        <time>2016-04-26T15:38:54Z</time>
      </trkpt>
      <trkpt lat="45.22702" lon="3.94055">
        <ele>853</ele>
        <time>2016-04-26T15:39:17Z</time>
      </trkpt>
      <trkpt lat="45.22656" lon="3.9404">
        <ele>851</ele>
        <time>2016-04-26T15:40:13Z</time>
      </trkpt>
      <trkpt lat="45.22649" lon="3.94041">
        <ele>850</ele>
        <time>2016-04-26T15:40:39Z</time>
      </trkpt>
      <trkpt lat="45.22534" lon="3.94019">
        <ele>854</ele>
        <time>2016-04-26T15:42:42Z</time>
      </trkpt>
      <trkpt lat="45.22441" lon="3.93984">
        <ele>862</ele>
        <time>2016-04-26T15:44:28Z</time>
      </trkpt>
      <trkpt lat="45.22369" lon="3.93946">
        <ele>869</ele>
        <time>2016-04-26T15:46:05Z</time>
      </trkpt>
      <trkpt lat="45.22345" lon="3.93941">
        <ele>871</ele>
        <time>2016-04-26T15:46:32Z</time>
      </trkpt>
      <trkpt lat="45.2234" lon="3.93942">
        <ele>871</ele>
        <time>2016-04-26T15:46:40Z</time>
      </trkpt>
      <trkpt lat="45.22336" lon="3.93941">
        <ele>871</ele>
        <time>2016-04-26T15:46:46Z</time>
      </trkpt>
      <trkpt lat="45.2233" lon="3.93941">
        <ele>871</ele>
        <time>2016-04-26T15:46:50Z</time>
      </trkpt>
      <trkpt lat="45.22306" lon="3.93939">
        <ele>874</ele>
        <time>2016-04-26T15:47:21Z</time>
      </trkpt>
      <trkpt lat="45.22282" lon="3.93942">
        <ele>878</ele>
        <time>2016-04-26T15:47:51Z</time>
      </trkpt>
      <trkpt lat="45.22256" lon="3.93956">
        <ele>882</ele>
        <time>2016-04-26T15:48:35Z</time>
      </trkpt>
      <trkpt lat="45.22252" lon="3.93957">
        <ele>883</ele>
        <time>2016-04-26T15:48:46Z</time>
      </trkpt>
      <trkpt lat="45.22249" lon="3.93962">
        <ele>884</ele>
        <time>2016-04-26T15:48:54Z</time>
      </trkpt>
      <trkpt lat="45.22244" lon="3.93964">
        <ele>884</ele>
        <time>2016-04-26T15:49:31Z</time>
      </trkpt>
      <trkpt lat="45.22239" lon="3.93964">
        <ele>884</ele>
        <time>2016-04-26T15:49:36Z</time>
      </trkpt>
      <trkpt lat="45.22235" lon="3.93968">
        <ele>884</ele>
        <time>2016-04-26T15:49:42Z</time>
      </trkpt>
      <trkpt lat="45.2223" lon="3.93969">
        <ele>885</ele>
        <time>2016-04-26T15:49:47Z</time>
      </trkpt>
      <trkpt lat="45.22225" lon="3.93968">
        <ele>885</ele>
        <time>2016-04-26T15:49:54Z</time>
      </trkpt>
      <trkpt lat="45.22202" lon="3.93969">
        <ele>887</ele>
        <time>2016-04-26T15:50:30Z</time>
      </trkpt>
      <trkpt lat="45.22197" lon="3.93968">
        <ele>889</ele>
        <time>2016-04-26T15:50:37Z</time>
      </trkpt>
      <trkpt lat="45.22193" lon="3.9397">
        <ele>890</ele>
        <time>2016-04-26T15:50:44Z</time>
      </trkpt>
      <trkpt lat="45.22191" lon="3.93967">
        <ele>891</ele>
        <time>2016-04-26T15:50:51Z</time>
      </trkpt>
      <trkpt lat="45.22187" lon="3.93971">
        <ele>892</ele>
        <time>2016-04-26T15:50:57Z</time>
      </trkpt>
      <trkpt lat="45.22178" lon="3.93988">
        <ele>891</ele>
        <time>2016-04-26T15:51:13Z</time>
      </trkpt>
      <trkpt lat="45.22156" lon="3.94054">
        <ele>894</ele>
        <time>2016-04-26T15:52:05Z</time>
      </trkpt>
      <trkpt lat="45.22154" lon="3.94058">
        <ele>894</ele>
        <time>2016-04-26T15:52:13Z</time>
      </trkpt>
      <trkpt lat="45.22149" lon="3.94069">
        <ele>893</ele>
        <time>2016-04-26T15:52:30Z</time>
      </trkpt>
      <trkpt lat="45.22145" lon="3.94073">
        <ele>893</ele>
        <time>2016-04-26T15:52:34Z</time>
      </trkpt>
      <trkpt lat="45.22141" lon="3.94078">
        <ele>894</ele>
        <time>2016-04-26T15:52:38Z</time>
      </trkpt>
      <trkpt lat="45.22139" lon="3.94084">
        <ele>894</ele>
        <time>2016-04-26T15:52:42Z</time>
      </trkpt>
      <trkpt lat="45.2214" lon="3.94091">
        <ele>894</ele>
        <time>2016-04-26T15:52:46Z</time>
      </trkpt>
      <trkpt lat="45.22144" lon="3.94096">
        <ele>894</ele>
        <time>2016-04-26T15:52:52Z</time>
      </trkpt>
      <trkpt lat="45.22134" lon="3.94099">
        <ele>894</ele>
        <time>2016-04-26T15:53:16Z</time>
      </trkpt>
      <trkpt lat="45.22129" lon="3.94097">
        <ele>894</ele>
        <time>2016-04-26T15:53:21Z</time>
      </trkpt>
      <trkpt lat="45.2212" lon="3.9409">
        <ele>893</ele>
        <time>2016-04-26T15:53:29Z</time>
      </trkpt>
      <trkpt lat="45.22115" lon="3.9409">
        <ele>893</ele>
        <time>2016-04-26T15:53:33Z</time>
      </trkpt>
      <trkpt lat="45.22066" lon="3.94052">
        <ele>891</ele>
        <time>2016-04-26T15:54:23Z</time>
      </trkpt>
      <trkpt lat="45.22062" lon="3.94048">
        <ele>891</ele>
        <time>2016-04-26T15:54:29Z</time>
      </trkpt>
      <trkpt lat="45.2204" lon="3.9403">
        <ele>893</ele>
        <time>2016-04-26T15:54:52Z</time>
      </trkpt>
      <trkpt lat="45.22023" lon="3.94013">
        <ele>892</ele>
        <time>2016-04-26T15:55:17Z</time>
      </trkpt>
      <trkpt lat="45.22019" lon="3.94009">
        <ele>893</ele>
        <time>2016-04-26T15:55:22Z</time>
      </trkpt>
      <trkpt lat="45.22011" lon="3.94">
        <ele>893</ele>
        <time>2016-04-26T15:55:31Z</time>
      </trkpt>
      <trkpt lat="45.2199" lon="3.9398">
        <ele>894</ele>
        <time>2016-04-26T15:55:54Z</time>
      </trkpt>
      <trkpt lat="45.21986" lon="3.93975">
        <ele>893</ele>
        <time>2016-04-26T15:55:59Z</time>
      </trkpt>
      <trkpt lat="45.21965" lon="3.93944">
        <ele>894</ele>
        <time>2016-04-26T15:56:29Z</time>
      </trkpt>
      <trkpt lat="45.21956" lon="3.93926">
        <ele>893</ele>
        <time>2016-04-26T15:56:43Z</time>
      </trkpt>
      <trkpt lat="45.21931" lon="3.93891">
        <ele>893</ele>
        <time>2016-04-26T15:57:15Z</time>
      </trkpt>
      <trkpt lat="45.21889" lon="3.93857">
        <ele>889</ele>
        <time>2016-04-26T15:57:59Z</time>
      </trkpt>
      <trkpt lat="45.21884" lon="3.93854">
        <ele>889</ele>
        <time>2016-04-26T15:58:04Z</time>
      </trkpt>
      <trkpt lat="45.21806" lon="3.93823">
        <ele>889</ele>
        <time>2016-04-26T15:59:15Z</time>
      </trkpt>
      <trkpt lat="45.21802" lon="3.9382">
        <ele>888</ele>
        <time>2016-04-26T15:59:19Z</time>
      </trkpt>
      <trkpt lat="45.21771" lon="3.93795">
        <ele>886</ele>
        <time>2016-04-26T15:59:52Z</time>
      </trkpt>
      <trkpt lat="45.21757" lon="3.93756">
        <ele>887</ele>
        <time>2016-04-26T16:00:23Z</time>
      </trkpt>
      <trkpt lat="45.21723" lon="3.93609">
        <ele>891</ele>
        <time>2016-04-26T16:02:13Z</time>
      </trkpt>
      <trkpt lat="45.21703" lon="3.93561">
        <ele>895</ele>
        <time>2016-04-26T16:02:56Z</time>
      </trkpt>
      <trkpt lat="45.21691" lon="3.93536">
        <ele>897</ele>
        <time>2016-04-26T16:03:19Z</time>
      </trkpt>
      <trkpt lat="45.21688" lon="3.93531">
        <ele>897</ele>
        <time>2016-04-26T16:03:25Z</time>
      </trkpt>
      <trkpt lat="45.21683" lon="3.93519">
        <ele>898</ele>
        <time>2016-04-26T16:03:35Z</time>
      </trkpt>
      <trkpt lat="45.2166" lon="3.93483">
        <ele>899</ele>
        <time>2016-04-26T16:04:10Z</time>
      </trkpt>
      <trkpt lat="45.21636" lon="3.93455">
        <ele>901</ele>
        <time>2016-04-26T16:04:41Z</time>
      </trkpt>
      <trkpt lat="45.21623" lon="3.93443">
        <ele>901</ele>
        <time>2016-04-26T16:04:56Z</time>
      </trkpt>
      <trkpt lat="45.21598" lon="3.93407">
        <ele>899</ele>
        <time>2016-04-26T16:05:31Z</time>
      </trkpt>
      <trkpt lat="45.21585" lon="3.93347">
        <ele>897</ele>
        <time>2016-04-26T16:06:17Z</time>
      </trkpt>
      <trkpt lat="45.21583" lon="3.93327">
        <ele>897</ele>
        <time>2016-04-26T16:06:56Z</time>
      </trkpt>
      <trkpt lat="45.21581" lon="3.9322">
        <ele>895</ele>
        <time>2016-04-26T16:08:12Z</time>
      </trkpt>
      <trkpt lat="45.21573" lon="3.93165">
        <ele>895</ele>
        <time>2016-04-26T16:08:45Z</time>
      </trkpt>
      <trkpt lat="45.21565" lon="3.93155">
        <ele>894</ele>
        <time>2016-04-26T16:08:53Z</time>
      </trkpt>
      <trkpt lat="45.21561" lon="3.93152">
        <ele>894</ele>
        <time>2016-04-26T16:08:58Z</time>
      </trkpt>
      <trkpt lat="45.21561" lon="3.93147">
        <ele>894</ele>
        <time>2016-04-26T16:09:16Z</time>
      </trkpt>
      <trkpt lat="45.21556" lon="3.93148">
        <ele>894</ele>
        <time>2016-04-26T16:09:38Z</time>
      </trkpt>
      <trkpt lat="45.21551" lon="3.93144">
        <ele>893</ele>
        <time>2016-04-26T16:10:13Z</time>
      </trkpt>
      <trkpt lat="45.21537" lon="3.93117">
        <ele>889</ele>
        <time>2016-04-26T16:10:39Z</time>
      </trkpt>
      <trkpt lat="45.21498" lon="3.93004">
        <ele>882</ele>
        <time>2016-04-26T16:12:13Z</time>
      </trkpt>
      <trkpt lat="45.21497" lon="3.92993">
        <ele>879</ele>
        <time>2016-04-26T16:12:44Z</time>
      </trkpt>
      <trkpt lat="45.21471" lon="3.92909">
        <ele>872</ele>
        <time>2016-04-26T16:13:46Z</time>
      </trkpt>
      <trkpt lat="45.21461" lon="3.92891">
        <ele>872</ele>
        <time>2016-04-26T16:14:02Z</time>
      </trkpt>
      <trkpt lat="45.21373" lon="3.92759">
        <ele>858</ele>
        <time>2016-04-26T16:16:12Z</time>
      </trkpt>
      <trkpt lat="45.21368" lon="3.92755">
        <ele>858</ele>
        <time>2016-04-26T16:16:17Z</time>
      </trkpt>
      <trkpt lat="45.21365" lon="3.92749">
        <ele>857</ele>
        <time>2016-04-26T16:16:22Z</time>
      </trkpt>
      <trkpt lat="45.21362" lon="3.92744">
        <ele>857</ele>
        <time>2016-04-26T16:16:27Z</time>
      </trkpt>
      <trkpt lat="45.21334" lon="3.92726">
        <ele>850</ele>
        <time>2016-04-26T16:16:58Z</time>
      </trkpt>
      <trkpt lat="45.2132" lon="3.9272">
        <ele>848</ele>
        <time>2016-04-26T16:17:13Z</time>
      </trkpt>
      <trkpt lat="45.21318" lon="3.92718">
        <ele>848</ele>
        <time>2016-04-26T16:17:20Z</time>
      </trkpt>
      <trkpt lat="45.21317" lon="3.92725">
        <ele>847</ele>
        <time>2016-04-26T16:17:38Z</time>
      </trkpt>
      <trkpt lat="45.21317" lon="3.92732">
        <ele>847</ele>
        <time>2016-04-26T16:17:44Z</time>
      </trkpt>
      <trkpt lat="45.21324" lon="3.92782">
        <ele>842</ele>
        <time>2016-04-26T16:18:18Z</time>
      </trkpt>
      <trkpt lat="45.21328" lon="3.92796">
        <ele>841</ele>
        <time>2016-04-26T16:18:27Z</time>
      </trkpt>
      <trkpt lat="45.21332" lon="3.928">
        <ele>841</ele>
        <time>2016-04-26T16:18:31Z</time>
      </trkpt>
      <trkpt lat="45.21334" lon="3.92807">
        <ele>841</ele>
        <time>2016-04-26T16:18:36Z</time>
      </trkpt>
      <trkpt lat="45.21345" lon="3.92822">
        <ele>842</ele>
        <time>2016-04-26T16:18:49Z</time>
      </trkpt>
      <trkpt lat="45.21339" lon="3.92823">
        <ele>842</ele>
        <time>2016-04-26T16:18:56Z</time>
      </trkpt>
      <trkpt lat="45.21317" lon="3.92804">
        <ele>841</ele>
        <time>2016-04-26T16:19:16Z</time>
      </trkpt>
      <trkpt lat="45.21302" lon="3.92785">
        <ele>841</ele>
        <time>2016-04-26T16:19:33Z</time>
      </trkpt>
      <trkpt lat="45.21265" lon="3.92766">
        <ele>837</ele>
        <time>2016-04-26T16:20:07Z</time>
      </trkpt>
      <trkpt lat="45.21255" lon="3.92763">
        <ele>836</ele>
        <time>2016-04-26T16:20:15Z</time>
      </trkpt>
      <trkpt lat="45.21223" lon="3.9274">
        <ele>832</ele>
        <time>2016-04-26T16:20:47Z</time>
      </trkpt>
      <trkpt lat="45.21218" lon="3.92729">
        <ele>832</ele>
        <time>2016-04-26T16:20:55Z</time>
      </trkpt>
      <trkpt lat="45.21216" lon="3.92722">
        <ele>831</ele>
        <time>2016-04-26T16:21:00Z</time>
      </trkpt>
      <trkpt lat="45.21208" lon="3.92704">
        <ele>831</ele>
        <time>2016-04-26T16:21:13Z</time>
      </trkpt>
      <trkpt lat="45.21204" lon="3.92699">
        <ele>830</ele>
        <time>2016-04-26T16:21:17Z</time>
      </trkpt>
      <trkpt lat="45.21172" lon="3.92638">
        <ele>827</ele>
        <time>2016-04-26T16:22:03Z</time>
      </trkpt>
      <trkpt lat="45.21141" lon="3.92615">
        <ele>824</ele>
        <time>2016-04-26T16:22:34Z</time>
      </trkpt>
      <trkpt lat="45.21103" lon="3.92606">
        <ele>820</ele>
        <time>2016-04-26T16:23:08Z</time>
      </trkpt>
      <trkpt lat="45.21082" lon="3.92604">
        <ele>817</ele>
        <time>2016-04-26T16:23:28Z</time>
      </trkpt>
      <trkpt lat="45.21077" lon="3.92605">
        <ele>815</ele>
        <time>2016-04-26T16:23:32Z</time>
      </trkpt>
      <trkpt lat="45.21028" lon="3.92615">
        <ele>809</ele>
        <time>2016-04-26T16:24:22Z</time>
      </trkpt>
      <trkpt lat="45.21023" lon="3.92614">
        <ele>808</ele>
        <time>2016-04-26T16:24:27Z</time>
      </trkpt>
      <trkpt lat="45.21013" lon="3.92611">
        <ele>807</ele>
        <time>2016-04-26T16:24:36Z</time>
      </trkpt>
      <trkpt lat="45.21011" lon="3.92606">
        <ele>807</ele>
        <time>2016-04-26T16:24:39Z</time>
      </trkpt>
      <trkpt lat="45.21008" lon="3.92599">
        <ele>805</ele>
        <time>2016-04-26T16:24:44Z</time>
      </trkpt>
      <trkpt lat="45.20995" lon="3.92589">
        <ele>804</ele>
        <time>2016-04-26T16:24:56Z</time>
      </trkpt>
      <trkpt lat="45.2099" lon="3.92588">
        <ele>804</ele>
        <time>2016-04-26T16:25:00Z</time>
      </trkpt>
      <trkpt lat="45.20975" lon="3.92587">
        <ele>804</ele>
        <time>2016-04-26T16:25:12Z</time>
      </trkpt>
      <trkpt lat="45.20967" lon="3.9258">
        <ele>803</ele>
        <time>2016-04-26T16:25:34Z</time>
      </trkpt>
      <trkpt lat="45.20957" lon="3.92577">
        <ele>800</ele>
        <time>2016-04-26T16:25:43Z</time>
      </trkpt>
      <trkpt lat="45.20949" lon="3.92564">
        <ele>795</ele>
        <time>2016-04-26T16:26:03Z</time>
      </trkpt>
      <trkpt lat="45.20927" lon="3.92553">
        <ele>790</ele>
        <time>2016-04-26T16:26:29Z</time>
      </trkpt>
      <trkpt lat="45.20922" lon="3.92553">
        <ele>788</ele>
        <time>2016-04-26T16:26:34Z</time>
      </trkpt>
      <trkpt lat="45.20917" lon="3.92552">
        <ele>789</ele>
        <time>2016-04-26T16:26:39Z</time>
      </trkpt>
      <trkpt lat="45.20908" lon="3.92546">
        <ele>790</ele>
        <time>2016-04-26T16:26:48Z</time>
      </trkpt>
      <trkpt lat="45.20905" lon="3.92541">
        <ele>791</ele>
        <time>2016-04-26T16:26:53Z</time>
      </trkpt>
      <trkpt lat="45.2089" lon="3.92534">
        <ele>792</ele>
        <time>2016-04-26T16:27:07Z</time>
      </trkpt>
      <trkpt lat="45.20881" lon="3.92531">
        <ele>792</ele>
        <time>2016-04-26T16:27:15Z</time>
      </trkpt>
      <trkpt lat="45.20874" lon="3.9252">
        <ele>791</ele>
        <time>2016-04-26T16:27:25Z</time>
      </trkpt>
      <trkpt lat="45.20853" lon="3.92468">
        <ele>791</ele>
        <time>2016-04-26T16:28:02Z</time>
      </trkpt>
      <trkpt lat="45.20847" lon="3.92435">
        <ele>788</ele>
        <time>2016-04-26T16:28:27Z</time>
      </trkpt>
      <trkpt lat="45.20837" lon="3.92418">
        <ele>787</ele>
        <time>2016-04-26T16:28:42Z</time>
      </trkpt>
      <trkpt lat="45.20823" lon="3.92387">
        <ele>783</ele>
        <time>2016-04-26T16:29:07Z</time>
      </trkpt>
      <trkpt lat="45.2082" lon="3.92392">
        <ele>781</ele>
        <time>2016-04-26T16:29:12Z</time>
      </trkpt>
      <trkpt lat="45.2082" lon="3.92399">
        <ele>781</ele>
        <time>2016-04-26T16:29:17Z</time>
      </trkpt>
      <trkpt lat="45.20829" lon="3.92438">
        <ele>776</ele>
        <time>2016-04-26T16:29:46Z</time>
      </trkpt>
      <trkpt lat="45.20823" lon="3.92494">
        <ele>766</ele>
        <time>2016-04-26T16:30:30Z</time>
      </trkpt>
      <trkpt lat="45.2082" lon="3.92501">
        <ele>765</ele>
        <time>2016-04-26T16:30:42Z</time>
      </trkpt>
      <trkpt lat="45.20821" lon="3.92508">
        <ele>765</ele>
        <time>2016-04-26T16:30:46Z</time>
      </trkpt>
      <trkpt lat="45.20819" lon="3.92514">
        <ele>764</ele>
        <time>2016-04-26T16:30:50Z</time>
      </trkpt>
      <trkpt lat="45.20817" lon="3.92527">
        <ele>761</ele>
        <time>2016-04-26T16:30:59Z</time>
      </trkpt>
      <trkpt lat="45.20814" lon="3.92533">
        <ele>761</ele>
        <time>2016-04-26T16:31:03Z</time>
      </trkpt>
      <trkpt lat="45.20811" lon="3.92538">
        <ele>759</ele>
        <time>2016-04-26T16:31:12Z</time>
      </trkpt>
      <trkpt lat="45.20812" lon="3.92544">
        <ele>759</ele>
        <time>2016-04-26T16:31:16Z</time>
      </trkpt>
      <trkpt lat="45.20811" lon="3.92551">
        <ele>758</ele>
        <time>2016-04-26T16:31:21Z</time>
      </trkpt>
      <trkpt lat="45.20806" lon="3.92551">
        <ele>757</ele>
        <time>2016-04-26T16:31:26Z</time>
      </trkpt>
      <trkpt lat="45.20802" lon="3.92547">
        <ele>756</ele>
        <time>2016-04-26T16:31:30Z</time>
      </trkpt>
      <trkpt lat="45.20799" lon="3.92543">
        <ele>756</ele>
        <time>2016-04-26T16:31:34Z</time>
      </trkpt>
      <trkpt lat="45.20795" lon="3.92523">
        <ele>756</ele>
        <time>2016-04-26T16:31:48Z</time>
      </trkpt>
      <trkpt lat="45.20796" lon="3.92516">
        <ele>756</ele>
        <time>2016-04-26T16:31:54Z</time>
      </trkpt>
      <trkpt lat="45.20794" lon="3.92487">
        <ele>755</ele>
        <time>2016-04-26T16:32:14Z</time>
      </trkpt>
      <trkpt lat="45.20788" lon="3.92458">
        <ele>754</ele>
        <time>2016-04-26T16:32:29Z</time>
      </trkpt>
      <trkpt lat="45.2078" lon="3.92447">
        <ele>753</ele>
        <time>2016-04-26T16:32:38Z</time>
      </trkpt>
      <trkpt lat="45.20775" lon="3.92445">
        <ele>753</ele>
        <time>2016-04-26T16:32:42Z</time>
      </trkpt>
      <trkpt lat="45.20773" lon="3.92439">
        <ele>752</ele>
        <time>2016-04-26T16:32:55Z</time>
      </trkpt>
      <trkpt lat="45.20758" lon="3.92433">
        <ele>750</ele>
        <time>2016-04-26T16:33:09Z</time>
      </trkpt>
      <trkpt lat="45.20704" lon="3.92427">
        <ele>742</ele>
        <time>2016-04-26T16:33:56Z</time>
      </trkpt>
      <trkpt lat="45.2067" lon="3.92414">
        <ele>739</ele>
        <time>2016-04-26T16:34:32Z</time>
      </trkpt>
      <trkpt lat="45.20606" lon="3.92377">
        <ele>730</ele>
        <time>2016-04-26T16:35:36Z</time>
      </trkpt>
      <trkpt lat="45.20579" lon="3.92367">
        <ele>729</ele>
        <time>2016-04-26T16:36:07Z</time>
      </trkpt>
      <trkpt lat="45.20575" lon="3.92364">
        <ele>729</ele>
        <time>2016-04-26T16:36:11Z</time>
      </trkpt>
      <trkpt lat="45.20555" lon="3.9237">
        <ele>724</ele>
        <time>2016-04-26T16:36:30Z</time>
      </trkpt>
      <trkpt lat="45.2055" lon="3.92372">
        <ele>724</ele>
        <time>2016-04-26T16:36:34Z</time>
      </trkpt>
      <trkpt lat="45.20546" lon="3.92375">
        <ele>724</ele>
        <time>2016-04-26T16:36:38Z</time>
      </trkpt>
      <trkpt lat="45.20542" lon="3.92381">
        <ele>724</ele>
        <time>2016-04-26T16:36:42Z</time>
      </trkpt>
      <trkpt lat="45.20541" lon="3.92388">
        <ele>724</ele>
        <time>2016-04-26T16:36:46Z</time>
      </trkpt>
      <trkpt lat="45.20544" lon="3.92444">
        <ele>718</ele>
        <time>2016-04-26T16:37:21Z</time>
      </trkpt>
      <trkpt lat="45.20553" lon="3.92477">
        <ele>715</ele>
        <time>2016-04-26T16:37:42Z</time>
      </trkpt>
      <trkpt lat="45.2055" lon="3.92483">
        <ele>715</ele>
        <time>2016-04-26T16:37:46Z</time>
      </trkpt>
      <trkpt lat="45.20544" lon="3.92483">
        <ele>714</ele>
        <time>2016-04-26T16:37:51Z</time>
      </trkpt>
      <trkpt lat="45.2054" lon="3.92478">
        <ele>713</ele>
        <time>2016-04-26T16:37:55Z</time>
      </trkpt>
      <trkpt lat="45.20511" lon="3.92429">
        <ele>708</ele>
        <time>2016-04-26T16:38:41Z</time>
      </trkpt>
      <trkpt lat="45.2051" lon="3.92423">
        <ele>708</ele>
        <time>2016-04-26T16:38:48Z</time>
      </trkpt>
      <trkpt lat="45.20498" lon="3.9241">
        <ele>705</ele>
        <time>2016-04-26T16:39:03Z</time>
      </trkpt>
      <trkpt lat="45.20475" lon="3.9237">
        <ele>700</ele>
        <time>2016-04-26T16:39:35Z</time>
      </trkpt>
      <trkpt lat="45.20473" lon="3.92364">
        <ele>699</ele>
        <time>2016-04-26T16:39:40Z</time>
      </trkpt>
      <trkpt lat="45.20444" lon="3.92348">
        <ele>695</ele>
        <time>2016-04-26T16:40:12Z</time>
      </trkpt>
      <trkpt lat="45.20404" lon="3.92356">
        <ele>690</ele>
        <time>2016-04-26T16:40:45Z</time>
      </trkpt>
      <trkpt lat="45.20392" lon="3.92356">
        <ele>687</ele>
        <time>2016-04-26T16:41:09Z</time>
      </trkpt>
      <trkpt lat="45.20344" lon="3.92365">
        <ele>682</ele>
        <time>2016-04-26T16:41:55Z</time>
      </trkpt>
      <trkpt lat="45.20309" lon="3.92363">
        <ele>679</ele>
        <time>2016-04-26T16:42:27Z</time>
      </trkpt>
      <trkpt lat="45.2029" lon="3.92363">
        <ele>676</ele>
        <time>2016-04-26T16:42:45Z</time>
      </trkpt>
      <trkpt lat="45.20283" lon="3.92362">
        <ele>671</ele>
        <time>2016-04-26T16:43:39Z</time>
      </trkpt>
      <trkpt lat="45.20269" lon="3.92362">
        <ele>667</ele>
        <time>2016-04-26T16:43:54Z</time>
      </trkpt>
      <trkpt lat="45.20264" lon="3.9236">
        <ele>667</ele>
        <time>2016-04-26T16:43:58Z</time>
      </trkpt>
      <trkpt lat="45.20261" lon="3.92354">
        <ele>667</ele>
        <time>2016-04-26T16:44:04Z</time>
      </trkpt>
      <trkpt lat="45.20251" lon="3.92348">
        <ele>666</ele>
        <time>2016-04-26T16:44:14Z</time>
      </trkpt>
      <trkpt lat="45.20228" lon="3.92324">
        <ele>664</ele>
        <time>2016-04-26T16:44:44Z</time>
      </trkpt>
      <trkpt lat="45.20223" lon="3.92321">
        <ele>664</ele>
        <time>2016-04-26T16:44:49Z</time>
      </trkpt>
      <trkpt lat="45.20212" lon="3.92308">
        <ele>664</ele>
        <time>2016-04-26T16:45:02Z</time>
      </trkpt>
      <trkpt lat="45.20183" lon="3.92291">
        <ele>660</ele>
        <time>2016-04-26T16:45:32Z</time>
      </trkpt>
      <trkpt lat="45.2018" lon="3.92292">
        <ele>658</ele>
        <time>2016-04-26T16:45:41Z</time>
      </trkpt>
      <trkpt lat="45.20152" lon="3.92277">
        <ele>647</ele>
        <time>2016-04-26T16:46:12Z</time>
      </trkpt>
      <trkpt lat="45.20128" lon="3.92269">
        <ele>646</ele>
        <time>2016-04-26T16:46:38Z</time>
      </trkpt>
      <trkpt lat="45.20125" lon="3.92267">
        <ele>645</ele>
        <time>2016-04-26T16:46:47Z</time>
      </trkpt>
      <trkpt lat="45.2012" lon="3.92263">
        <ele>645</ele>
        <time>2016-04-26T16:47:05Z</time>
      </trkpt>
      <trkpt lat="45.20117" lon="3.92258">
        <ele>644</ele>
        <time>2016-04-26T16:47:10Z</time>
      </trkpt>
      <trkpt lat="45.20108" lon="3.92253">
        <ele>643</ele>
        <time>2016-04-26T16:47:20Z</time>
      </trkpt>
      <trkpt lat="45.20107" lon="3.9226">
        <ele>642</ele>
        <time>2016-04-26T16:47:28Z</time>
      </trkpt>
      <trkpt lat="45.20111" lon="3.92263">
        <ele>641</ele>
        <time>2016-04-26T16:47:35Z</time>
      </trkpt>
      <trkpt lat="45.20131" lon="3.92305">
        <ele>635</ele>
        <time>2016-04-26T16:48:07Z</time>
      </trkpt>
      <trkpt lat="45.20143" lon="3.92343">
        <ele>632</ele>
        <time>2016-04-26T16:48:34Z</time>
      </trkpt>
      <trkpt lat="45.20146" lon="3.92349">
        <ele>632</ele>
        <time>2016-04-26T16:48:39Z</time>
      </trkpt>
      <trkpt lat="45.20153" lon="3.92369">
        <ele>634</ele>
        <time>2016-04-26T16:48:51Z</time>
      </trkpt>
      <trkpt lat="45.20166" lon="3.92392">
        <ele>631</ele>
        <time>2016-04-26T16:49:09Z</time>
      </trkpt>
      <trkpt lat="45.20162" lon="3.92404">
        <ele>629</ele>
        <time>2016-04-26T16:49:17Z</time>
      </trkpt>
      <trkpt lat="45.20156" lon="3.92401">
        <ele>627</ele>
        <time>2016-04-26T16:49:21Z</time>
      </trkpt>
      <trkpt lat="45.2015" lon="3.92389">
        <ele>625</ele>
        <time>2016-04-26T16:49:28Z</time>
      </trkpt>
      <trkpt lat="45.20095" lon="3.92346">
        <ele>615</ele>
        <time>2016-04-26T16:50:32Z</time>
      </trkpt>
      <trkpt lat="45.20082" lon="3.92334">
        <ele>610</ele>
        <time>2016-04-26T16:50:47Z</time>
      </trkpt>
      <trkpt lat="45.20085" lon="3.92337">
        <ele>610</ele>
        <time>2016-04-26T16:50:58Z</time>
      </trkpt>
      <trkpt lat="45.2009" lon="3.9234">
        <ele>611</ele>
        <time>2016-04-26T16:51:03Z</time>
      </trkpt>
      <trkpt lat="45.20101" lon="3.9235">
        <ele>614</ele>
        <time>2016-04-26T16:51:18Z</time>
      </trkpt>
      <trkpt lat="45.20093" lon="3.92341">
        <ele>615</ele>
        <time>2016-04-26T16:51:48Z</time>
      </trkpt>
      <trkpt lat="45.20052" lon="3.92314">
        <ele>608</ele>
        <time>2016-04-26T16:52:25Z</time>
      </trkpt>
      <trkpt lat="45.20004" lon="3.92291">
        <ele>604</ele>
        <time>2016-04-26T16:53:09Z</time>
      </trkpt>
      <trkpt lat="45.19971" lon="3.92259">
        <ele>600</ele>
        <time>2016-04-26T16:53:43Z</time>
      </trkpt>
      <trkpt lat="45.19964" lon="3.92249">
        <ele>599</ele>
        <time>2016-04-26T16:53:52Z</time>
      </trkpt>
      <trkpt lat="45.19959" lon="3.92229">
        <ele>598</ele>
        <time>2016-04-26T16:54:06Z</time>
      </trkpt>
      <trkpt lat="45.19954" lon="3.92229">
        <ele>598</ele>
        <time>2016-04-26T16:54:11Z</time>
      </trkpt>
      <trkpt lat="45.19952" lon="3.92236">
        <ele>597</ele>
        <time>2016-04-26T16:54:15Z</time>
      </trkpt>
      <trkpt lat="45.19978" lon="3.92332">
        <ele>590</ele>
        <time>2016-04-26T16:55:24Z</time>
      </trkpt>
      <trkpt lat="45.19979" lon="3.92339">
        <ele>590</ele>
        <time>2016-04-26T16:55:28Z</time>
      </trkpt>
      <trkpt lat="45.19991" lon="3.92363">
        <ele>587</ele>
        <time>2016-04-26T16:55:50Z</time>
      </trkpt>
      <trkpt lat="45.19999" lon="3.92369">
        <ele>586</ele>
        <time>2016-04-26T16:55:58Z</time>
      </trkpt>
      <trkpt lat="45.20003" lon="3.92375">
        <ele>584</ele>
        <time>2016-04-26T16:56:12Z</time>
      </trkpt>
      <trkpt lat="45.20007" lon="3.92395">
        <ele>581</ele>
        <time>2016-04-26T16:56:29Z</time>
      </trkpt>
      <trkpt lat="45.20003" lon="3.92416">
        <ele>579</ele>
        <time>2016-04-26T16:56:43Z</time>
      </trkpt>
      <trkpt lat="45.19998" lon="3.92428">
        <ele>579</ele>
        <time>2016-04-26T16:56:54Z</time>
      </trkpt>
      <trkpt lat="45.19996" lon="3.92441">
        <ele>579</ele>
        <time>2016-04-26T16:57:02Z</time>
      </trkpt>
      <trkpt lat="45.20003" lon="3.92473">
        <ele>573</ele>
        <time>2016-04-26T16:57:28Z</time>
      </trkpt>
      <trkpt lat="45.2" lon="3.92479">
        <ele>572</ele>
        <time>2016-04-26T16:57:33Z</time>
      </trkpt>
      <trkpt lat="45.19995" lon="3.92479">
        <ele>573</ele>
        <time>2016-04-26T16:57:38Z</time>
      </trkpt>
      <trkpt lat="45.19977" lon="3.92468">
        <ele>576</ele>
        <time>2016-04-26T16:57:59Z</time>
      </trkpt>
      <trkpt lat="45.19973" lon="3.92464">
        <ele>575</ele>
        <time>2016-04-26T16:58:09Z</time>
      </trkpt>
      <trkpt lat="45.19968" lon="3.92452">
        <ele>576</ele>
        <time>2016-04-26T16:58:21Z</time>
      </trkpt>
      <trkpt lat="45.19963" lon="3.92443">
        <ele>575</ele>
        <time>2016-04-26T16:58:41Z</time>
      </trkpt>
      <trkpt lat="45.19958" lon="3.9244">
        <ele>574</ele>
        <time>2016-04-26T16:58:49Z</time>
      </trkpt>
      <trkpt lat="45.19951" lon="3.92444">
        <ele>570</ele>
        <time>2016-04-26T16:59:02Z</time>
      </trkpt>
      <trkpt lat="45.19945" lon="3.92454">
        <ele>567</ele>
        <time>2016-04-26T16:59:12Z</time>
      </trkpt>
      <trkpt lat="45.19944" lon="3.92504">
        <ele>558</ele>
        <time>2016-04-26T16:59:46Z</time>
      </trkpt>
      <trkpt lat="45.19941" lon="3.9251">
        <ele>556</ele>
        <time>2016-04-26T16:59:52Z</time>
      </trkpt>
      <trkpt lat="45.19936" lon="3.92508">
        <ele>556</ele>
        <time>2016-04-26T16:59:58Z</time>
      </trkpt>
      <trkpt lat="45.19932" lon="3.92504">
        <ele>555</ele>
        <time>2016-04-26T17:00:03Z</time>
      </trkpt>
      <trkpt lat="45.19928" lon="3.925">
        <ele>555</ele>
        <time>2016-04-26T17:00:08Z</time>
      </trkpt>
      <trkpt lat="45.19918" lon="3.92495">
        <ele>554</ele>
        <time>2016-04-26T17:00:26Z</time>
      </trkpt>
      <trkpt lat="45.19909" lon="3.92492">
        <ele>554</ele>
        <time>2016-04-26T17:00:44Z</time>
      </trkpt>
      <trkpt lat="45.1989" lon="3.92497">
        <ele>553</ele>
        <time>2016-04-26T17:01:01Z</time>
      </trkpt>
      <trkpt lat="45.19885" lon="3.92495">
        <ele>553</ele>
        <time>2016-04-26T17:01:06Z</time>
      </trkpt>
      <trkpt lat="45.19857" lon="3.92464">
        <ele>553</ele>
        <time>2016-04-26T17:01:36Z</time>
      </trkpt>
      <trkpt lat="45.19847" lon="3.92449">
        <ele>553</ele>
        <time>2016-04-26T17:01:49Z</time>
      </trkpt>
      <trkpt lat="45.19839" lon="3.92432">
        <ele>553</ele>
        <time>2016-04-26T17:02:01Z</time>
      </trkpt>
      <trkpt lat="45.19829" lon="3.92393">
        <ele>552</ele>
        <time>2016-04-26T17:02:28Z</time>
      </trkpt>
      <trkpt lat="45.19824" lon="3.92266">
        <ele>551</ele>
        <time>2016-04-26T17:03:46Z</time>
      </trkpt>
      <trkpt lat="45.19822" lon="3.9226">
        <ele>552</ele>
        <time>2016-04-26T17:03:50Z</time>
      </trkpt>
      <trkpt lat="45.19819" lon="3.92256">
        <ele>552</ele>
        <time>2016-04-26T17:03:54Z</time>
      </trkpt>
      <trkpt lat="45.198" lon="3.92245">
        <ele>552</ele>
        <time>2016-04-26T17:04:10Z</time>
      </trkpt>
      <trkpt lat="45.19796" lon="3.92237">
        <ele>554</ele>
        <time>2016-04-26T17:04:23Z</time>
      </trkpt>
      <trkpt lat="45.19793" lon="3.92232">
        <ele>554</ele>
        <time>2016-04-26T17:04:27Z</time>
      </trkpt>
      <trkpt lat="45.19789" lon="3.92218">
        <ele>549</ele>
        <time>2016-04-26T17:04:37Z</time>
      </trkpt>
      <trkpt lat="45.19788" lon="3.92204">
        <ele>550</ele>
        <time>2016-04-26T17:04:46Z</time>
      </trkpt>
      <trkpt lat="45.19789" lon="3.92197">
        <ele>550</ele>
        <time>2016-04-26T17:04:51Z</time>
      </trkpt>
      <trkpt lat="45.19787" lon="3.92183">
        <ele>550</ele>
        <time>2016-04-26T17:05:00Z</time>
      </trkpt>
      <trkpt lat="45.19783" lon="3.92145">
        <ele>548</ele>
        <time>2016-04-26T17:05:29Z</time>
      </trkpt>
      <trkpt lat="45.19783" lon="3.92092">
        <ele>546</ele>
        <time>2016-04-26T17:06:06Z</time>
      </trkpt>
      <trkpt lat="45.19779" lon="3.92078">
        <ele>546</ele>
        <time>2016-04-26T17:06:15Z</time>
      </trkpt>
      <trkpt lat="45.1977" lon="3.92073">
        <ele>545</ele>
        <time>2016-04-26T17:06:21Z</time>
      </trkpt>
      <trkpt lat="45.19761" lon="3.92073">
        <ele>545</ele>
        <time>2016-04-26T17:06:29Z</time>
      </trkpt>
      <trkpt lat="45.19752" lon="3.92068">
        <ele>545</ele>
        <time>2016-04-26T17:06:37Z</time>
      </trkpt>
      <trkpt lat="45.19747" lon="3.92072">
        <ele>544</ele>
        <time>2016-04-26T17:06:41Z</time>
      </trkpt>
      <trkpt lat="45.19738" lon="3.92078">
        <ele>541</ele>
        <time>2016-04-26T17:06:49Z</time>
      </trkpt>
      <trkpt lat="45.19733" lon="3.92079">
        <ele>541</ele>
        <time>2016-04-26T17:06:54Z</time>
      </trkpt>
      <trkpt lat="45.1973" lon="3.92075">
        <ele>540</ele>
        <time>2016-04-26T17:07:00Z</time>
      </trkpt>
      <trkpt lat="45.1973" lon="3.9207">
        <ele>539</ele>
        <time>2016-04-26T17:07:08Z</time>
      </trkpt>
      <trkpt lat="45.19733" lon="3.92058">
        <ele>539</ele>
        <time>2016-04-26T17:10:51Z</time>
      </trkpt>
      <trkpt lat="45.19731" lon="3.91986">
        <ele>542</ele>
        <time>2016-04-26T17:11:35Z</time>
      </trkpt>
      <trkpt lat="45.19721" lon="3.91924">
        <ele>541</ele>
        <time>2016-04-26T17:12:42Z</time>
      </trkpt>
      <trkpt lat="45.1972" lon="3.91902">
        <ele>541</ele>
        <time>2016-04-26T17:12:54Z</time>
      </trkpt>
      <trkpt lat="45.19703" lon="3.91786">
        <ele>547</ele>
        <time>2016-04-26T17:14:23Z</time>
      </trkpt>
      <trkpt lat="45.19702" lon="3.91779">
        <ele>547</ele>
        <time>2016-04-26T17:14:28Z</time>
      </trkpt>
      <trkpt lat="45.19705" lon="3.91744">
        <ele>544</ele>
        <time>2016-04-26T17:14:52Z</time>
      </trkpt>
      <trkpt lat="45.19698" lon="3.91697">
        <ele>543</ele>
        <time>2016-04-26T17:15:29Z</time>
      </trkpt>
      <trkpt lat="45.19645" lon="3.91555">
        <ele>543</ele>
        <time>2016-04-26T17:17:10Z</time>
      </trkpt>
      <trkpt lat="45.19623" lon="3.91509">
        <ele>542</ele>
        <time>2016-04-26T17:17:43Z</time>
      </trkpt>
      <trkpt lat="45.19615" lon="3.91497">
        <ele>542</ele>
        <time>2016-04-26T17:18:06Z</time>
      </trkpt>
      <trkpt lat="45.19613" lon="3.91491">
        <ele>542</ele>
        <time>2016-04-26T17:18:25Z</time>
      </trkpt>
      <trkpt lat="45.1959" lon="3.91464">
        <ele>546</ele>
        <time>2016-04-26T17:18:58Z</time>
      </trkpt>
      <trkpt lat="45.19578" lon="3.91452">
        <ele>544</ele>
        <time>2016-04-26T17:19:11Z</time>
      </trkpt>
      <trkpt lat="45.1951" lon="3.91406">
        <ele>549</ele>
        <time>2016-04-26T17:20:18Z</time>
      </trkpt>
      <trkpt lat="45.195" lon="3.91402">
        <ele>550</ele>
        <time>2016-04-26T17:20:27Z</time>
      </trkpt>
      <trkpt lat="45.19497" lon="3.91396">
        <ele>550</ele>
        <time>2016-04-26T17:20:33Z</time>
      </trkpt>
      <trkpt lat="45.19493" lon="3.91395">
        <ele>549</ele>
        <time>2016-04-26T17:20:40Z</time>
      </trkpt>
      <trkpt lat="45.19488" lon="3.91393">
        <ele>548</ele>
        <time>2016-04-26T17:20:47Z</time>
      </trkpt>
      <trkpt lat="45.19483" lon="3.9139">
        <ele>549</ele>
        <time>2016-04-26T17:20:52Z</time>
      </trkpt>
      <trkpt lat="45.19473" lon="3.91386">
        <ele>550</ele>
        <time>2016-04-26T17:21:03Z</time>
      </trkpt>
      <trkpt lat="45.19452" lon="3.9137">
        <ele>545</ele>
        <time>2016-04-26T17:21:36Z</time>
      </trkpt>
      <trkpt lat="45.19437" lon="3.91367">
        <ele>540</ele>
        <time>2016-04-26T17:21:55Z</time>
      </trkpt>
      <trkpt lat="45.19422" lon="3.91368">
        <ele>541</ele>
        <time>2016-04-26T17:22:12Z</time>
      </trkpt>
      <trkpt lat="45.19412" lon="3.9137">
        <ele>541</ele>
        <time>2016-04-26T17:22:22Z</time>
      </trkpt>
      <trkpt lat="45.19407" lon="3.91371">
        <ele>540</ele>
        <time>2016-04-26T17:22:27Z</time>
      </trkpt>
      <trkpt lat="45.19403" lon="3.91372">
        <ele>541</ele>
        <time>2016-04-26T17:22:32Z</time>
      </trkpt>
      <trkpt lat="45.19399" lon="3.91372">
        <ele>541</ele>
        <time>2016-04-26T17:22:41Z</time>
      </trkpt>
      <trkpt lat="45.19394" lon="3.91369">
        <ele>542</ele>
        <time>2016-04-26T17:22:54Z</time>
      </trkpt>
      <trkpt lat="45.19389" lon="3.91362">
        <ele>546</ele>
        <time>2016-04-26T17:23:25Z</time>
      </trkpt>
      <trkpt lat="45.19385" lon="3.91359">
        <ele>546</ele>
        <time>2016-04-26T17:23:29Z</time>
      </trkpt>
      <trkpt lat="45.1938" lon="3.91358">
        <ele>546</ele>
        <time>2016-04-26T17:23:33Z</time>
      </trkpt>
      <trkpt lat="45.19344" lon="3.91375">
        <ele>546</ele>
        <time>2016-04-26T17:24:06Z</time>
      </trkpt>
      <trkpt lat="45.19241" lon="3.91408">
        <ele>549</ele>
        <time>2016-04-26T17:25:46Z</time>
      </trkpt>
      <trkpt lat="45.19186" lon="3.91422">
        <ele>551</ele>
        <time>2016-04-26T17:26:41Z</time>
      </trkpt>
      <trkpt lat="45.19182" lon="3.91423">
        <ele>552</ele>
        <time>2016-04-26T17:26:51Z</time>
      </trkpt>
      <trkpt lat="45.19178" lon="3.91425">
        <ele>551</ele>
        <time>2016-04-26T17:26:57Z</time>
      </trkpt>
      <trkpt lat="45.19163" lon="3.9143">
        <ele>552</ele>
        <time>2016-04-26T17:27:11Z</time>
      </trkpt>
      <trkpt lat="45.19154" lon="3.91435">
        <ele>552</ele>
        <time>2016-04-26T17:27:20Z</time>
      </trkpt>
      <trkpt lat="45.19139" lon="3.91438">
        <ele>551</ele>
        <time>2016-04-26T17:27:37Z</time>
      </trkpt>
      <trkpt lat="45.19098" lon="3.91457">
        <ele>559</ele>
        <time>2016-04-26T17:28:29Z</time>
      </trkpt>
      <trkpt lat="45.19093" lon="3.9146">
        <ele>559</ele>
        <time>2016-04-26T17:28:34Z</time>
      </trkpt>
      <trkpt lat="45.19062" lon="3.91493">
        <ele>559</ele>
        <time>2016-04-26T17:29:12Z</time>
      </trkpt>
      <trkpt lat="45.19005" lon="3.91536">
        <ele>562</ele>
        <time>2016-04-26T17:30:16Z</time>
      </trkpt>
      <trkpt lat="45.18957" lon="3.91591">
        <ele>563</ele>
        <time>2016-04-26T17:31:13Z</time>
      </trkpt>
      <trkpt lat="45.18953" lon="3.91595">
        <ele>563</ele>
        <time>2016-04-26T17:31:20Z</time>
      </trkpt>
      <trkpt lat="45.18931" lon="3.91626">
        <ele>564</ele>
        <time>2016-04-26T17:31:55Z</time>
      </trkpt>
      <trkpt lat="45.18892" lon="3.91705">
        <ele>565</ele>
        <time>2016-04-26T17:32:59Z</time>
      </trkpt>
      <trkpt lat="45.18889" lon="3.91709">
        <ele>565</ele>
        <time>2016-04-26T17:33:03Z</time>
      </trkpt>
      <trkpt lat="45.18884" lon="3.91712">
        <ele>565</ele>
        <time>2016-04-26T17:33:08Z</time>
      </trkpt>
      <trkpt lat="45.18882" lon="3.91715">
        <ele>566</ele>
        <time>2016-04-26T17:33:16Z</time>
      </trkpt>
      <trkpt lat="45.1888" lon="3.91722">
        <ele>566</ele>
        <time>2016-04-26T17:33:24Z</time>
      </trkpt>
      <trkpt lat="45.1888" lon="3.91729">
        <ele>565</ele>
        <time>2016-04-26T17:33:29Z</time>
      </trkpt>
      <trkpt lat="45.18881" lon="3.91735">
        <ele>565</ele>
        <time>2016-04-26T17:33:33Z</time>
      </trkpt>
      <trkpt lat="45.18881" lon="3.91742">
        <ele>565</ele>
        <time>2016-04-26T17:33:37Z</time>
      </trkpt>
      <trkpt lat="45.18868" lon="3.91795">
        <ele>568</ele>
        <time>2016-04-26T17:34:13Z</time>
      </trkpt>
      <trkpt lat="45.18863" lon="3.91808">
        <ele>569</ele>
        <time>2016-04-26T17:34:23Z</time>
      </trkpt>
      <trkpt lat="45.18836" lon="3.91825">
        <ele>572</ele>
        <time>2016-04-26T17:34:53Z</time>
      </trkpt>
      <trkpt lat="45.18816" lon="3.91828">
        <ele>573</ele>
        <time>2016-04-26T17:35:11Z</time>
      </trkpt>
      <trkpt lat="45.18784" lon="3.91846">
        <ele>572</ele>
        <time>2016-04-26T17:35:42Z</time>
      </trkpt>
      <trkpt lat="45.18771" lon="3.91856">
        <ele>572</ele>
        <time>2016-04-26T17:35:57Z</time>
      </trkpt>
      <trkpt lat="45.18744" lon="3.91868">
        <ele>571</ele>
        <time>2016-04-26T17:36:23Z</time>
      </trkpt>
      <trkpt lat="45.1874" lon="3.91873">
        <ele>572</ele>
        <time>2016-04-26T17:36:29Z</time>
      </trkpt>
      <trkpt lat="45.1873" lon="3.91905">
        <ele>572</ele>
        <time>2016-04-26T17:36:55Z</time>
      </trkpt>
      <trkpt lat="45.18731" lon="3.9192">
        <ele>571</ele>
        <time>2016-04-26T17:37:05Z</time>
      </trkpt>
      <trkpt lat="45.18729" lon="3.91926">
        <ele>571</ele>
        <time>2016-04-26T17:37:11Z</time>
      </trkpt>
      <trkpt lat="45.18705" lon="3.91964">
        <ele>567</ele>
        <time>2016-04-26T17:37:45Z</time>
      </trkpt>
      <trkpt lat="45.187" lon="3.91975">
        <ele>565</ele>
        <time>2016-04-26T17:38:00Z</time>
      </trkpt>
      <trkpt lat="45.18695" lon="3.91978">
        <ele>565</ele>
        <time>2016-04-26T17:38:07Z</time>
      </trkpt>
      <trkpt lat="45.1867" lon="3.91996">
        <ele>561</ele>
        <time>2016-04-26T17:38:40Z</time>
      </trkpt>
      <trkpt lat="45.1866" lon="3.92021">
        <ele>557</ele>
        <time>2016-04-26T17:39:13Z</time>
      </trkpt>
      <trkpt lat="45.1865" lon="3.92053">
        <ele>553</ele>
        <time>2016-04-26T17:39:42Z</time>
      </trkpt>
      <trkpt lat="45.18645" lon="3.92057">
        <ele>553</ele>
        <time>2016-04-26T17:39:47Z</time>
      </trkpt>
      <trkpt lat="45.1864" lon="3.92058">
        <ele>552</ele>
        <time>2016-04-26T17:39:52Z</time>
      </trkpt>
      <trkpt lat="45.1863" lon="3.92052">
        <ele>552</ele>
        <time>2016-04-26T17:40:02Z</time>
      </trkpt>
      <trkpt lat="45.18616" lon="3.92041">
        <ele>551</ele>
        <time>2016-04-26T17:40:18Z</time>
      </trkpt>
      <trkpt lat="45.18613" lon="3.92035">
        <ele>550</ele>
        <time>2016-04-26T17:40:23Z</time>
      </trkpt>
      <trkpt lat="45.18602" lon="3.92019">
        <ele>548</ele>
        <time>2016-04-26T17:40:37Z</time>
      </trkpt>
      <trkpt lat="45.18597" lon="3.92017">
        <ele>547</ele>
        <time>2016-04-26T17:40:41Z</time>
      </trkpt>
      <trkpt lat="45.18593" lon="3.92013">
        <ele>547</ele>
        <time>2016-04-26T17:40:46Z</time>
      </trkpt>
      <trkpt lat="45.18568" lon="3.91962">
        <ele>542</ele>
        <time>2016-04-26T17:41:25Z</time>
      </trkpt>
      <trkpt lat="45.18569" lon="3.91927">
        <ele>540</ele>
        <time>2016-04-26T17:41:47Z</time>
      </trkpt>
      <trkpt lat="45.18583" lon="3.91891">
        <ele>537</ele>
        <time>2016-04-26T17:42:13Z</time>
      </trkpt>
      <trkpt lat="45.18586" lon="3.91886">
        <ele>537</ele>
        <time>2016-04-26T17:42:19Z</time>
      </trkpt>
      <trkpt lat="45.18599" lon="3.91853">
        <ele>536</ele>
        <time>2016-04-26T17:42:49Z</time>
      </trkpt>
      <trkpt lat="45.18603" lon="3.91848">
        <ele>536</ele>
        <time>2016-04-26T17:42:54Z</time>
      </trkpt>
      <trkpt lat="45.18614" lon="3.91828">
        <ele>535</ele>
        <time>2016-04-26T17:43:17Z</time>
      </trkpt>
      <trkpt lat="45.18618" lon="3.91823">
        <ele>534</ele>
        <time>2016-04-26T17:43:25Z</time>
      </trkpt>
      <trkpt lat="45.18622" lon="3.91822">
        <ele>534</ele>
        <time>2016-04-26T17:43:36Z</time>
      </trkpt>
      <trkpt lat="45.18626" lon="3.91818">
        <ele>535</ele>
        <time>2016-04-26T17:43:40Z</time>
      </trkpt>
      <trkpt lat="45.18652" lon="3.91799">
        <ele>534</ele>
        <time>2016-04-26T17:44:05Z</time>
      </trkpt>
      <trkpt lat="45.18657" lon="3.91801">
        <ele>535</ele>
        <time>2016-04-26T17:44:10Z</time>
      </trkpt>
      <trkpt lat="45.18695" lon="3.91788">
        <ele>534</ele>
        <time>2016-04-26T17:44:46Z</time>
      </trkpt>
      <trkpt lat="45.18711" lon="3.91774">
        <ele>533</ele>
        <time>2016-04-26T17:45:03Z</time>
      </trkpt>
      <trkpt lat="45.18728" lon="3.91741">
        <ele>533</ele>
        <time>2016-04-26T17:45:34Z</time>
      </trkpt>
      <trkpt lat="45.18729" lon="3.91733">
        <ele>533</ele>
        <time>2016-04-26T17:45:39Z</time>
      </trkpt>
      <trkpt lat="45.18727" lon="3.91669">
        <ele>536</ele>
        <time>2016-04-26T17:46:16Z</time>
      </trkpt>
      <trkpt lat="45.1872" lon="3.9162">
        <ele>539</ele>
        <time>2016-04-26T17:46:47Z</time>
      </trkpt>
      <trkpt lat="45.18713" lon="3.91599">
        <ele>539</ele>
        <time>2016-04-26T17:47:00Z</time>
      </trkpt>
      <trkpt lat="45.18707" lon="3.91523">
        <ele>539</ele>
        <time>2016-04-26T17:47:49Z</time>
      </trkpt>
      <trkpt lat="45.18685" lon="3.91428">
        <ele>540</ele>
        <time>2016-04-26T17:48:55Z</time>
      </trkpt>
      <trkpt lat="45.1867" lon="3.91384">
        <ele>541</ele>
        <time>2016-04-26T17:49:29Z</time>
      </trkpt>
      <trkpt lat="45.18665" lon="3.9138">
        <ele>541</ele>
        <time>2016-04-26T17:49:35Z</time>
      </trkpt>
      <trkpt lat="45.18659" lon="3.91359">
        <ele>540</ele>
        <time>2016-04-26T17:50:33Z</time>
      </trkpt>
      <trkpt lat="45.18654" lon="3.91348">
        <ele>540</ele>
        <time>2016-04-26T17:50:43Z</time>
      </trkpt>
      <trkpt lat="45.18573" lon="3.91254">
        <ele>538</ele>
        <time>2016-04-26T17:52:20Z</time>
      </trkpt>
      <trkpt lat="45.18562" lon="3.91228">
        <ele>538</ele>
        <time>2016-04-26T17:52:40Z</time>
      </trkpt>
      <trkpt lat="45.1856" lon="3.91214">
        <ele>538</ele>
        <time>2016-04-26T17:52:53Z</time>
      </trkpt>
      <trkpt lat="45.18559" lon="3.91199">
        <ele>537</ele>
        <time>2016-04-26T17:53:32Z</time>
      </trkpt>
      <trkpt lat="45.1856" lon="3.91185">
        <ele>537</ele>
        <time>2016-04-26T17:53:42Z</time>
      </trkpt>
      <trkpt lat="45.18558" lon="3.91179">
        <ele>537</ele>
        <time>2016-04-26T17:53:48Z</time>
      </trkpt>
      <trkpt lat="45.18556" lon="3.91173">
        <ele>537</ele>
        <time>2016-04-26T17:53:55Z</time>
      </trkpt>
      <trkpt lat="45.18556" lon="3.91167">
        <ele>538</ele>
        <time>2016-04-26T17:54:01Z</time>
      </trkpt>
      <trkpt lat="45.18552" lon="3.91164">
        <ele>537</ele>
        <time>2016-04-26T17:54:06Z</time>
      </trkpt>
      <trkpt lat="45.18536" lon="3.9116">
        <ele>538</ele>
        <time>2016-04-26T17:54:24Z</time>
      </trkpt>
      <trkpt lat="45.18532" lon="3.91155">
        <ele>538</ele>
        <time>2016-04-26T17:54:28Z</time>
      </trkpt>
      <trkpt lat="45.18515" lon="3.91119">
        <ele>541</ele>
        <time>2016-04-26T17:54:53Z</time>
      </trkpt>
      <trkpt lat="45.18481" lon="3.91105">
        <ele>541</ele>
        <time>2016-04-26T17:55:27Z</time>
      </trkpt>
      <trkpt lat="45.18471" lon="3.91102">
        <ele>541</ele>
        <time>2016-04-26T17:55:37Z</time>
      </trkpt>
      <trkpt lat="45.18457" lon="3.91092">
        <ele>541</ele>
        <time>2016-04-26T17:55:50Z</time>
      </trkpt>
      <trkpt lat="45.18437" lon="3.91092">
        <ele>541</ele>
        <time>2016-04-26T17:56:11Z</time>
      </trkpt>
      <trkpt lat="45.18428" lon="3.91098">
        <ele>541</ele>
        <time>2016-04-26T17:56:21Z</time>
      </trkpt>
      <trkpt lat="45.18379" lon="3.91152">
        <ele>543</ele>
        <time>2016-04-26T17:57:20Z</time>
      </trkpt>
      <trkpt lat="45.18374" lon="3.91155">
        <ele>543</ele>
        <time>2016-04-26T17:57:25Z</time>
      </trkpt>
      <trkpt lat="45.18365" lon="3.91161">
        <ele>543</ele>
        <time>2016-04-26T17:57:34Z</time>
      </trkpt>
      <trkpt lat="45.1836" lon="3.91158">
        <ele>543</ele>
        <time>2016-04-26T17:57:39Z</time>
      </trkpt>
      <trkpt lat="45.18357" lon="3.91152">
        <ele>543</ele>
        <time>2016-04-26T17:57:45Z</time>
      </trkpt>
      <trkpt lat="45.18351" lon="3.91125">
        <ele>545</ele>
        <time>2016-04-26T17:58:09Z</time>
      </trkpt>
      <trkpt lat="45.18358" lon="3.91092">
        <ele>545</ele>
        <time>2016-04-26T17:58:35Z</time>
      </trkpt>
      <trkpt lat="45.18365" lon="3.91084">
        <ele>546</ele>
        <time>2016-04-26T17:59:31Z</time>
      </trkpt>
      <trkpt lat="45.18388" lon="3.91038">
        <ele>545</ele>
        <time>2016-04-26T18:00:07Z</time>
      </trkpt>
      <trkpt lat="45.1841" lon="3.90922">
        <ele>544</ele>
        <time>2016-04-26T18:01:20Z</time>
      </trkpt>
      <trkpt lat="45.18428" lon="3.90869">
        <ele>543</ele>
        <time>2016-04-26T18:02:00Z</time>
      </trkpt>
      <trkpt lat="45.18428" lon="3.90861">
        <ele>543</ele>
        <time>2016-04-26T18:02:06Z</time>
      </trkpt>
      <trkpt lat="45.18431" lon="3.90858">
        <ele>547</ele>
        <time>2016-04-27T06:22:31Z</time>
      </trkpt>
      <trkpt lat="45.18429" lon="3.90865">
        <ele>546</ele>
        <time>2016-04-27T06:22:56Z</time>
      </trkpt>
      <trkpt lat="45.18415" lon="3.90879">
        <ele>541</ele>
        <time>2016-04-27T06:23:19Z</time>
      </trkpt>
      <trkpt lat="45.18411" lon="3.90893">
        <ele>540</ele>
        <time>2016-04-27T06:23:29Z</time>
      </trkpt>
      <trkpt lat="45.18402" lon="3.90957">
        <ele>541</ele>
        <time>2016-04-27T06:24:03Z</time>
      </trkpt>
      <trkpt lat="45.18373" lon="3.91043">
        <ele>541</ele>
        <time>2016-04-27T06:24:55Z</time>
      </trkpt>
      <trkpt lat="45.18364" lon="3.91049">
        <ele>542</ele>
        <time>2016-04-27T06:25:03Z</time>
      </trkpt>
      <trkpt lat="45.18354" lon="3.91052">
        <ele>542</ele>
        <time>2016-04-27T06:25:12Z</time>
      </trkpt>
      <trkpt lat="45.18348" lon="3.91064">
        <ele>542</ele>
        <time>2016-04-27T06:25:21Z</time>
      </trkpt>
      <trkpt lat="45.18346" lon="3.91057">
        <ele>543</ele>
        <time>2016-04-27T06:25:32Z</time>
      </trkpt>
      <trkpt lat="45.18341" lon="3.91056">
        <ele>544</ele>
        <time>2016-04-27T06:25:36Z</time>
      </trkpt>
      <trkpt lat="45.18331" lon="3.91057">
        <ele>545</ele>
        <time>2016-04-27T06:25:44Z</time>
      </trkpt>
      <trkpt lat="45.18307" lon="3.91064">
        <ele>544</ele>
        <time>2016-04-27T06:26:04Z</time>
      </trkpt>
      <trkpt lat="45.18301" lon="3.91065">
        <ele>545</ele>
        <time>2016-04-27T06:26:09Z</time>
      </trkpt>
      <trkpt lat="45.18296" lon="3.91067">
        <ele>545</ele>
        <time>2016-04-27T06:26:13Z</time>
      </trkpt>
      <trkpt lat="45.18252" lon="3.91075">
        <ele>549</ele>
        <time>2016-04-27T06:26:51Z</time>
      </trkpt>
      <trkpt lat="45.18147" lon="3.9111">
        <ele>558</ele>
        <time>2016-04-27T06:28:20Z</time>
      </trkpt>
      <trkpt lat="45.18137" lon="3.91112">
        <ele>558</ele>
        <time>2016-04-27T06:28:28Z</time>
      </trkpt>
      <trkpt lat="45.18133" lon="3.91118">
        <ele>558</ele>
        <time>2016-04-27T06:28:33Z</time>
      </trkpt>
      <trkpt lat="45.18095" lon="3.91281">
        <ele>563</ele>
        <time>2016-04-27T06:30:14Z</time>
      </trkpt>
      <trkpt lat="45.18072" lon="3.91345">
        <ele>564</ele>
        <time>2016-04-27T06:30:54Z</time>
      </trkpt>
      <trkpt lat="45.18069" lon="3.91351">
        <ele>564</ele>
        <time>2016-04-27T06:30:58Z</time>
      </trkpt>
      <trkpt lat="45.18041" lon="3.91447">
        <ele>565</ele>
        <time>2016-04-27T06:31:59Z</time>
      </trkpt>
      <trkpt lat="45.18033" lon="3.91517">
        <ele>564</ele>
        <time>2016-04-27T06:32:42Z</time>
      </trkpt>
      <trkpt lat="45.17996" lon="3.91644">
        <ele>564</ele>
        <time>2016-04-27T06:34:02Z</time>
      </trkpt>
      <trkpt lat="45.17983" lon="3.91676">
        <ele>559</ele>
        <time>2016-04-27T06:34:22Z</time>
      </trkpt>
      <trkpt lat="45.17959" lon="3.91721">
        <ele>560</ele>
        <time>2016-04-27T06:34:54Z</time>
      </trkpt>
      <trkpt lat="45.179" lon="3.91781">
        <ele>556</ele>
        <time>2016-04-27T06:35:52Z</time>
      </trkpt>
      <trkpt lat="45.17887" lon="3.9179">
        <ele>557</ele>
        <time>2016-04-27T06:36:02Z</time>
      </trkpt>
      <trkpt lat="45.17876" lon="3.91795">
        <ele>557</ele>
        <time>2016-04-27T06:36:09Z</time>
      </trkpt>
      <trkpt lat="45.17872" lon="3.91793">
        <ele>557</ele>
        <time>2016-04-27T06:36:13Z</time>
      </trkpt>
      <trkpt lat="45.17868" lon="3.918">
        <ele>556</ele>
        <time>2016-04-27T06:36:19Z</time>
      </trkpt>
      <trkpt lat="45.1787" lon="3.91806">
        <ele>555</ele>
        <time>2016-04-27T06:36:24Z</time>
      </trkpt>
      <trkpt lat="45.17878" lon="3.91815">
        <ele>554</ele>
        <time>2016-04-27T06:36:32Z</time>
      </trkpt>
      <trkpt lat="45.17878" lon="3.91822">
        <ele>554</ele>
        <time>2016-04-27T06:36:37Z</time>
      </trkpt>
      <trkpt lat="45.17877" lon="3.91825">
        <ele>552</ele>
        <time>2016-04-27T06:36:55Z</time>
      </trkpt>
      <trkpt lat="45.17863" lon="3.91835">
        <ele>547</ele>
        <time>2016-04-27T06:37:08Z</time>
      </trkpt>
      <trkpt lat="45.17837" lon="3.91845">
        <ele>550</ele>
        <time>2016-04-27T06:37:30Z</time>
      </trkpt>
      <trkpt lat="45.178" lon="3.91817">
        <ele>553</ele>
        <time>2016-04-27T06:38:02Z</time>
      </trkpt>
      <trkpt lat="45.17759" lon="3.91765">
        <ele>556</ele>
        <time>2016-04-27T06:38:46Z</time>
      </trkpt>
      <trkpt lat="45.17736" lon="3.91717">
        <ele>556</ele>
        <time>2016-04-27T06:39:20Z</time>
      </trkpt>
      <trkpt lat="45.17728" lon="3.91708">
        <ele>556</ele>
        <time>2016-04-27T06:39:28Z</time>
      </trkpt>
      <trkpt lat="45.17689" lon="3.91644">
        <ele>546</ele>
        <time>2016-04-27T06:40:35Z</time>
      </trkpt>
      <trkpt lat="45.17685" lon="3.91639">
        <ele>545</ele>
        <time>2016-04-27T06:40:47Z</time>
      </trkpt>
      <trkpt lat="45.17665" lon="3.916">
        <ele>552</ele>
        <time>2016-04-27T06:41:32Z</time>
      </trkpt>
      <trkpt lat="45.17637" lon="3.9157">
        <ele>555</ele>
        <time>2016-04-27T06:42:03Z</time>
      </trkpt>
      <trkpt lat="45.17605" lon="3.91514">
        <ele>557</ele>
        <time>2016-04-27T06:42:44Z</time>
      </trkpt>
      <trkpt lat="45.17601" lon="3.91509">
        <ele>557</ele>
        <time>2016-04-27T06:42:48Z</time>
      </trkpt>
      <trkpt lat="45.17588" lon="3.91498">
        <ele>565</ele>
        <time>2016-04-27T06:42:59Z</time>
      </trkpt>
      <trkpt lat="45.17564" lon="3.91474">
        <ele>567</ele>
        <time>2016-04-27T06:43:21Z</time>
      </trkpt>
      <trkpt lat="45.17527" lon="3.91425">
        <ele>564</ele>
        <time>2016-04-27T06:44:01Z</time>
      </trkpt>
      <trkpt lat="45.17479" lon="3.91391">
        <ele>565</ele>
        <time>2016-04-27T06:44:45Z</time>
      </trkpt>
      <trkpt lat="45.17474" lon="3.91364">
        <ele>566</ele>
        <time>2016-04-27T06:45:01Z</time>
      </trkpt>
      <trkpt lat="45.17456" lon="3.9133">
        <ele>566</ele>
        <time>2016-04-27T06:45:25Z</time>
      </trkpt>
      <trkpt lat="45.1745" lon="3.91312">
        <ele>566</ele>
        <time>2016-04-27T06:45:37Z</time>
      </trkpt>
      <trkpt lat="45.17414" lon="3.91248">
        <ele>569</ele>
        <time>2016-04-27T06:46:24Z</time>
      </trkpt>
      <trkpt lat="45.17407" lon="3.91237">
        <ele>574</ele>
        <time>2016-04-27T06:46:33Z</time>
      </trkpt>
      <trkpt lat="45.17363" lon="3.91135">
        <ele>569</ele>
        <time>2016-04-27T06:47:37Z</time>
      </trkpt>
      <trkpt lat="45.17362" lon="3.91128">
        <ele>570</ele>
        <time>2016-04-27T06:47:41Z</time>
      </trkpt>
      <trkpt lat="45.17358" lon="3.91115">
        <ele>570</ele>
        <time>2016-04-27T06:47:50Z</time>
      </trkpt>
      <trkpt lat="45.17355" lon="3.91109">
        <ele>570</ele>
        <time>2016-04-27T06:47:55Z</time>
      </trkpt>
      <trkpt lat="45.17351" lon="3.91105">
        <ele>571</ele>
        <time>2016-04-27T06:47:59Z</time>
      </trkpt>
      <trkpt lat="45.17345" lon="3.91093">
        <ele>571</ele>
        <time>2016-04-27T06:48:07Z</time>
      </trkpt>
      <trkpt lat="45.17341" lon="3.91088">
        <ele>572</ele>
        <time>2016-04-27T06:48:11Z</time>
      </trkpt>
      <trkpt lat="45.17337" lon="3.91082">
        <ele>572</ele>
        <time>2016-04-27T06:48:15Z</time>
      </trkpt>
      <trkpt lat="45.17317" lon="3.91052">
        <ele>573</ele>
        <time>2016-04-27T06:48:38Z</time>
      </trkpt>
      <trkpt lat="45.17308" lon="3.91035">
        <ele>572</ele>
        <time>2016-04-27T06:48:52Z</time>
      </trkpt>
      <trkpt lat="45.173" lon="3.91002">
        <ele>572</ele>
        <time>2016-04-27T06:49:18Z</time>
      </trkpt>
      <trkpt lat="45.17294" lon="3.90992">
        <ele>571</ele>
        <time>2016-04-27T06:49:27Z</time>
      </trkpt>
      <trkpt lat="45.17279" lon="3.90945">
        <ele>571</ele>
        <time>2016-04-27T06:50:01Z</time>
      </trkpt>
      <trkpt lat="45.17263" lon="3.90863">
        <ele>567</ele>
        <time>2016-04-27T06:50:48Z</time>
      </trkpt>
      <trkpt lat="45.17259" lon="3.90856">
        <ele>567</ele>
        <time>2016-04-27T06:50:52Z</time>
      </trkpt>
      <trkpt lat="45.17227" lon="3.908">
        <ele>571</ele>
        <time>2016-04-27T06:51:33Z</time>
      </trkpt>
      <trkpt lat="45.17221" lon="3.90788">
        <ele>573</ele>
        <time>2016-04-27T06:51:41Z</time>
      </trkpt>
      <trkpt lat="45.17219" lon="3.90781">
        <ele>573</ele>
        <time>2016-04-27T06:51:46Z</time>
      </trkpt>
      <trkpt lat="45.17218" lon="3.90774">
        <ele>572</ele>
        <time>2016-04-27T06:51:51Z</time>
      </trkpt>
      <trkpt lat="45.17202" lon="3.90737">
        <ele>574</ele>
        <time>2016-04-27T06:52:15Z</time>
      </trkpt>
      <trkpt lat="45.17189" lon="3.90716">
        <ele>575</ele>
        <time>2016-04-27T06:52:32Z</time>
      </trkpt>
      <trkpt lat="45.17128" lon="3.90635">
        <ele>578</ele>
        <time>2016-04-27T06:53:38Z</time>
      </trkpt>
      <trkpt lat="45.17115" lon="3.90623">
        <ele>579</ele>
        <time>2016-04-27T06:53:51Z</time>
      </trkpt>
      <trkpt lat="45.17111" lon="3.9062">
        <ele>579</ele>
        <time>2016-04-27T06:53:55Z</time>
      </trkpt>
      <trkpt lat="45.17105" lon="3.90609">
        <ele>578</ele>
        <time>2016-04-27T06:54:03Z</time>
      </trkpt>
      <trkpt lat="45.17104" lon="3.90603">
        <ele>578</ele>
        <time>2016-04-27T06:54:07Z</time>
      </trkpt>
      <trkpt lat="45.17097" lon="3.90591">
        <ele>578</ele>
        <time>2016-04-27T06:54:16Z</time>
      </trkpt>
      <trkpt lat="45.17093" lon="3.90587">
        <ele>578</ele>
        <time>2016-04-27T06:54:20Z</time>
      </trkpt>
      <trkpt lat="45.17089" lon="3.90583">
        <ele>578</ele>
        <time>2016-04-27T06:54:24Z</time>
      </trkpt>
      <trkpt lat="45.17078" lon="3.90582">
        <ele>575</ele>
        <time>2016-04-27T06:54:33Z</time>
      </trkpt>
      <trkpt lat="45.17074" lon="3.90581">
        <ele>575</ele>
        <time>2016-04-27T06:54:39Z</time>
      </trkpt>
      <trkpt lat="45.17054" lon="3.90565">
        <ele>576</ele>
        <time>2016-04-27T06:54:55Z</time>
      </trkpt>
      <trkpt lat="45.17042" lon="3.90553">
        <ele>577</ele>
        <time>2016-04-27T06:55:06Z</time>
      </trkpt>
      <trkpt lat="45.17019" lon="3.90511">
        <ele>584</ele>
        <time>2016-04-27T06:55:49Z</time>
      </trkpt>
      <trkpt lat="45.16943" lon="3.90408">
        <ele>585</ele>
        <time>2016-04-27T06:57:10Z</time>
      </trkpt>
      <trkpt lat="45.16923" lon="3.90398">
        <ele>585</ele>
        <time>2016-04-27T06:57:26Z</time>
      </trkpt>
      <trkpt lat="45.16903" lon="3.90398">
        <ele>585</ele>
        <time>2016-04-27T06:57:57Z</time>
      </trkpt>
      <trkpt lat="45.16898" lon="3.90398">
        <ele>585</ele>
        <time>2016-04-27T06:58:01Z</time>
      </trkpt>
      <trkpt lat="45.16876" lon="3.90392">
        <ele>585</ele>
        <time>2016-04-27T06:58:17Z</time>
      </trkpt>
      <trkpt lat="45.16871" lon="3.90392">
        <ele>586</ele>
        <time>2016-04-27T06:58:21Z</time>
      </trkpt>
      <trkpt lat="45.1686" lon="3.90395">
        <ele>586</ele>
        <time>2016-04-27T06:58:30Z</time>
      </trkpt>
      <trkpt lat="45.1686" lon="3.90399">
        <ele>587</ele>
        <time>2016-04-27T07:00:48Z</time>
      </trkpt>
      <trkpt lat="45.1685" lon="3.90399">
        <ele>588</ele>
        <time>2016-04-27T07:01:01Z</time>
      </trkpt>
      <trkpt lat="45.16845" lon="3.90398">
        <ele>589</ele>
        <time>2016-04-27T07:01:07Z</time>
      </trkpt>
      <trkpt lat="45.16818" lon="3.90406">
        <ele>591</ele>
        <time>2016-04-27T07:01:26Z</time>
      </trkpt>
      <trkpt lat="45.16807" lon="3.90407">
        <ele>591</ele>
        <time>2016-04-27T07:01:34Z</time>
      </trkpt>
      <trkpt lat="45.16754" lon="3.90408">
        <ele>592</ele>
        <time>2016-04-27T07:02:14Z</time>
      </trkpt>
      <trkpt lat="45.16714" lon="3.90399">
        <ele>594</ele>
        <time>2016-04-27T07:02:47Z</time>
      </trkpt>
      <trkpt lat="45.16711" lon="3.90394">
        <ele>594</ele>
        <time>2016-04-27T07:02:51Z</time>
      </trkpt>
      <trkpt lat="45.16625" lon="3.90097">
        <ele>595</ele>
        <time>2016-04-27T07:05:48Z</time>
      </trkpt>
      <trkpt lat="45.16611" lon="3.90066">
        <ele>595</ele>
        <time>2016-04-27T07:06:09Z</time>
      </trkpt>
      <trkpt lat="45.16606" lon="3.90067">
        <ele>595</ele>
        <time>2016-04-27T07:06:13Z</time>
      </trkpt>
      <trkpt lat="45.16602" lon="3.90063">
        <ele>595</ele>
        <time>2016-04-27T07:06:17Z</time>
      </trkpt>
      <trkpt lat="45.16599" lon="3.90057">
        <ele>595</ele>
        <time>2016-04-27T07:06:21Z</time>
      </trkpt>
      <trkpt lat="45.16595" lon="3.90026">
        <ele>595</ele>
        <time>2016-04-27T07:06:37Z</time>
      </trkpt>
      <trkpt lat="45.1659" lon="3.90005">
        <ele>596</ele>
        <time>2016-04-27T07:06:49Z</time>
      </trkpt>
      <trkpt lat="45.16586" lon="3.9">
        <ele>596</ele>
        <time>2016-04-27T07:06:53Z</time>
      </trkpt>
      <trkpt lat="45.16578" lon="3.89995">
        <ele>595</ele>
        <time>2016-04-27T07:07:06Z</time>
      </trkpt>
      <trkpt lat="45.16572" lon="3.89994">
        <ele>595</ele>
        <time>2016-04-27T07:07:11Z</time>
      </trkpt>
      <trkpt lat="45.16566" lon="3.89996">
        <ele>595</ele>
        <time>2016-04-27T07:07:15Z</time>
      </trkpt>
      <trkpt lat="45.16545" lon="3.90003">
        <ele>596</ele>
        <time>2016-04-27T07:07:30Z</time>
      </trkpt>
      <trkpt lat="45.16529" lon="3.90007">
        <ele>598</ele>
        <time>2016-04-27T07:07:42Z</time>
      </trkpt>
      <trkpt lat="45.16425" lon="3.90038">
        <ele>599</ele>
        <time>2016-04-27T07:09:03Z</time>
      </trkpt>
      <trkpt lat="45.16334" lon="3.90087">
        <ele>598</ele>
        <time>2016-04-27T07:10:19Z</time>
      </trkpt>
      <trkpt lat="45.16319" lon="3.90093">
        <ele>597</ele>
        <time>2016-04-27T07:10:31Z</time>
      </trkpt>
      <trkpt lat="45.16304" lon="3.90101">
        <ele>597</ele>
        <time>2016-04-27T07:10:43Z</time>
      </trkpt>
      <trkpt lat="45.16299" lon="3.90103">
        <ele>597</ele>
        <time>2016-04-27T07:10:47Z</time>
      </trkpt>
      <trkpt lat="45.16289" lon="3.90109">
        <ele>597</ele>
        <time>2016-04-27T07:10:55Z</time>
      </trkpt>
      <trkpt lat="45.16279" lon="3.90116">
        <ele>596</ele>
        <time>2016-04-27T07:11:04Z</time>
      </trkpt>
      <trkpt lat="45.16275" lon="3.9012">
        <ele>595</ele>
        <time>2016-04-27T07:11:08Z</time>
      </trkpt>
      <trkpt lat="45.16239" lon="3.90147">
        <ele>596</ele>
        <time>2016-04-27T07:11:40Z</time>
      </trkpt>
      <trkpt lat="45.16147" lon="3.90179">
        <ele>594</ele>
        <time>2016-04-27T07:12:51Z</time>
      </trkpt>
      <trkpt lat="45.16142" lon="3.90181">
        <ele>594</ele>
        <time>2016-04-27T07:12:55Z</time>
      </trkpt>
      <trkpt lat="45.16137" lon="3.90183">
        <ele>594</ele>
        <time>2016-04-27T07:13:01Z</time>
      </trkpt>
      <trkpt lat="45.161" lon="3.90206">
        <ele>592</ele>
        <time>2016-04-27T07:13:33Z</time>
      </trkpt>
      <trkpt lat="45.16063" lon="3.90246">
        <ele>591</ele>
        <time>2016-04-27T07:14:09Z</time>
      </trkpt>
      <trkpt lat="45.15993" lon="3.90322">
        <ele>588</ele>
        <time>2016-04-27T07:15:19Z</time>
      </trkpt>
      <trkpt lat="45.15959" lon="3.90355">
        <ele>587</ele>
        <time>2016-04-27T07:15:51Z</time>
      </trkpt>
      <trkpt lat="45.15954" lon="3.90357">
        <ele>587</ele>
        <time>2016-04-27T07:15:55Z</time>
      </trkpt>
      <trkpt lat="45.15931" lon="3.90361">
        <ele>588</ele>
        <time>2016-04-27T07:16:11Z</time>
      </trkpt>
      <trkpt lat="45.15847" lon="3.9038">
        <ele>586</ele>
        <time>2016-04-27T07:17:19Z</time>
      </trkpt>
      <trkpt lat="45.15791" lon="3.90379">
        <ele>588</ele>
        <time>2016-04-27T07:18:06Z</time>
      </trkpt>
      <trkpt lat="45.15785" lon="3.90377">
        <ele>588</ele>
        <time>2016-04-27T07:18:10Z</time>
      </trkpt>
      <trkpt lat="45.15746" lon="3.90382">
        <ele>591</ele>
        <time>2016-04-27T07:18:37Z</time>
      </trkpt>
      <trkpt lat="45.15723" lon="3.90372">
        <ele>588</ele>
        <time>2016-04-27T07:18:57Z</time>
      </trkpt>
      <trkpt lat="45.15678" lon="3.90371">
        <ele>588</ele>
        <time>2016-04-27T07:19:29Z</time>
      </trkpt>
      <trkpt lat="45.15626" lon="3.9038">
        <ele>588</ele>
        <time>2016-04-27T07:20:09Z</time>
      </trkpt>
      <trkpt lat="45.15579" lon="3.90399">
        <ele>588</ele>
        <time>2016-04-27T07:20:45Z</time>
      </trkpt>
      <trkpt lat="45.1552" lon="3.90414">
        <ele>588</ele>
        <time>2016-04-27T07:21:28Z</time>
      </trkpt>
      <trkpt lat="45.15505" lon="3.90416">
        <ele>588</ele>
        <time>2016-04-27T07:21:40Z</time>
      </trkpt>
      <trkpt lat="45.1543" lon="3.90394">
        <ele>584</ele>
        <time>2016-04-27T07:22:45Z</time>
      </trkpt>
      <trkpt lat="45.15405" lon="3.90394">
        <ele>584</ele>
        <time>2016-04-27T07:23:06Z</time>
      </trkpt>
      <trkpt lat="45.15365" lon="3.90399">
        <ele>583</ele>
        <time>2016-04-27T07:23:39Z</time>
      </trkpt>
      <trkpt lat="45.15333" lon="3.90398">
        <ele>583</ele>
        <time>2016-04-27T07:24:00Z</time>
      </trkpt>
      <trkpt lat="45.15328" lon="3.90397">
        <ele>583</ele>
        <time>2016-04-27T07:24:04Z</time>
      </trkpt>
      <trkpt lat="45.15281" lon="3.90404">
        <ele>583</ele>
        <time>2016-04-27T07:24:42Z</time>
      </trkpt>
      <trkpt lat="45.15227" lon="3.90438">
        <ele>584</ele>
        <time>2016-04-27T07:25:26Z</time>
      </trkpt>
      <trkpt lat="45.15222" lon="3.9044">
        <ele>584</ele>
        <time>2016-04-27T07:25:30Z</time>
      </trkpt>
      <trkpt lat="45.15179" lon="3.90436">
        <ele>586</ele>
        <time>2016-04-27T07:26:02Z</time>
      </trkpt>
      <trkpt lat="45.1514" lon="3.90445">
        <ele>589</ele>
        <time>2016-04-27T07:26:34Z</time>
      </trkpt>
      <trkpt lat="45.15115" lon="3.90459">
        <ele>590</ele>
        <time>2016-04-27T07:26:54Z</time>
      </trkpt>
      <trkpt lat="45.15099" lon="3.90467">
        <ele>589</ele>
        <time>2016-04-27T07:27:07Z</time>
      </trkpt>
      <trkpt lat="45.15085" lon="3.90478">
        <ele>589</ele>
        <time>2016-04-27T07:27:19Z</time>
      </trkpt>
      <trkpt lat="45.15081" lon="3.90483">
        <ele>589</ele>
        <time>2016-04-27T07:27:23Z</time>
      </trkpt>
      <trkpt lat="45.15048" lon="3.90516">
        <ele>589</ele>
        <time>2016-04-27T07:27:55Z</time>
      </trkpt>
      <trkpt lat="45.15046" lon="3.90521">
        <ele>589</ele>
        <time>2016-04-27T07:27:59Z</time>
      </trkpt>
      <trkpt lat="45.15041" lon="3.90525">
        <ele>588</ele>
        <time>2016-04-27T07:28:03Z</time>
      </trkpt>
      <trkpt lat="45.15027" lon="3.90536">
        <ele>587</ele>
        <time>2016-04-27T07:28:15Z</time>
      </trkpt>
      <trkpt lat="45.1492" lon="3.90548">
        <ele>594</ele>
        <time>2016-04-27T07:29:37Z</time>
      </trkpt>
      <trkpt lat="45.1488" lon="3.90548">
        <ele>598</ele>
        <time>2016-04-27T07:30:11Z</time>
      </trkpt>
      <trkpt lat="45.14866" lon="3.9055">
        <ele>599</ele>
        <time>2016-04-27T07:30:23Z</time>
      </trkpt>
      <trkpt lat="45.14861" lon="3.90548">
        <ele>599</ele>
        <time>2016-04-27T07:30:27Z</time>
      </trkpt>
      <trkpt lat="45.14782" lon="3.90567">
        <ele>606</ele>
        <time>2016-04-27T07:31:32Z</time>
      </trkpt>
      <trkpt lat="45.14777" lon="3.90569">
        <ele>606</ele>
        <time>2016-04-27T07:31:36Z</time>
      </trkpt>
      <trkpt lat="45.14773" lon="3.9057">
        <ele>606</ele>
        <time>2016-04-27T07:31:40Z</time>
      </trkpt>
      <trkpt lat="45.14702" lon="3.90593">
        <ele>612</ele>
        <time>2016-04-27T07:32:37Z</time>
      </trkpt>
      <trkpt lat="45.14667" lon="3.90608">
        <ele>608</ele>
        <time>2016-04-27T07:33:05Z</time>
      </trkpt>
      <trkpt lat="45.14645" lon="3.90624">
        <ele>609</ele>
        <time>2016-04-27T07:33:33Z</time>
      </trkpt>
      <trkpt lat="45.14618" lon="3.90653">
        <ele>607</ele>
        <time>2016-04-27T07:34:02Z</time>
      </trkpt>
      <trkpt lat="45.14605" lon="3.90672">
        <ele>605</ele>
        <time>2016-04-27T07:34:32Z</time>
      </trkpt>
      <trkpt lat="45.14601" lon="3.90676">
        <ele>605</ele>
        <time>2016-04-27T07:34:36Z</time>
      </trkpt>
      <trkpt lat="45.14597" lon="3.90679">
        <ele>605</ele>
        <time>2016-04-27T07:34:40Z</time>
      </trkpt>
      <trkpt lat="45.14543" lon="3.90752">
        <ele>600</ele>
        <time>2016-04-27T07:35:43Z</time>
      </trkpt>
      <trkpt lat="45.1449" lon="3.90801">
        <ele>599</ele>
        <time>2016-04-27T07:36:31Z</time>
      </trkpt>
      <trkpt lat="45.14486" lon="3.90804">
        <ele>600</ele>
        <time>2016-04-27T07:36:35Z</time>
      </trkpt>
      <trkpt lat="45.14477" lon="3.90814">
        <ele>600</ele>
        <time>2016-04-27T07:36:43Z</time>
      </trkpt>
      <trkpt lat="45.14473" lon="3.90817">
        <ele>600</ele>
        <time>2016-04-27T07:36:47Z</time>
      </trkpt>
      <trkpt lat="45.14434" lon="3.90834">
        <ele>600</ele>
        <time>2016-04-27T07:37:19Z</time>
      </trkpt>
      <trkpt lat="45.14423" lon="3.90832">
        <ele>600</ele>
        <time>2016-04-27T07:37:27Z</time>
      </trkpt>
      <trkpt lat="45.14419" lon="3.90834">
        <ele>600</ele>
        <time>2016-04-27T07:37:31Z</time>
      </trkpt>
      <trkpt lat="45.1438" lon="3.90853">
        <ele>597</ele>
        <time>2016-04-27T07:38:02Z</time>
      </trkpt>
      <trkpt lat="45.14366" lon="3.90847">
        <ele>596</ele>
        <time>2016-04-27T07:38:14Z</time>
      </trkpt>
      <trkpt lat="45.14361" lon="3.90849">
        <ele>596</ele>
        <time>2016-04-27T07:38:22Z</time>
      </trkpt>
      <trkpt lat="45.14357" lon="3.90846">
        <ele>596</ele>
        <time>2016-04-27T07:38:27Z</time>
      </trkpt>
      <trkpt lat="45.14353" lon="3.90847">
        <ele>597</ele>
        <time>2016-04-27T07:38:44Z</time>
      </trkpt>
      <trkpt lat="45.14347" lon="3.9089">
        <ele>593</ele>
        <time>2016-04-27T07:39:09Z</time>
      </trkpt>
      <trkpt lat="45.14326" lon="3.90912">
        <ele>591</ele>
        <time>2016-04-27T07:39:29Z</time>
      </trkpt>
      <trkpt lat="45.14282" lon="3.90918">
        <ele>587</ele>
        <time>2016-04-27T07:40:01Z</time>
      </trkpt>
      <trkpt lat="45.14276" lon="3.90918">
        <ele>586</ele>
        <time>2016-04-27T07:40:05Z</time>
      </trkpt>
      <trkpt lat="45.14271" lon="3.90919">
        <ele>586</ele>
        <time>2016-04-27T07:40:09Z</time>
      </trkpt>
      <trkpt lat="45.14266" lon="3.90918">
        <ele>585</ele>
        <time>2016-04-27T07:40:13Z</time>
      </trkpt>
      <trkpt lat="45.14245" lon="3.90918">
        <ele>584</ele>
        <time>2016-04-27T07:40:29Z</time>
      </trkpt>
      <trkpt lat="45.14239" lon="3.90921">
        <ele>585</ele>
        <time>2016-04-27T07:40:55Z</time>
      </trkpt>
      <trkpt lat="45.14234" lon="3.90925">
        <ele>585</ele>
        <time>2016-04-27T07:40:59Z</time>
      </trkpt>
      <trkpt lat="45.14193" lon="3.90959">
        <ele>581</ele>
        <time>2016-04-27T07:41:33Z</time>
      </trkpt>
      <trkpt lat="45.14184" lon="3.90965">
        <ele>581</ele>
        <time>2016-04-27T07:41:41Z</time>
      </trkpt>
      <trkpt lat="45.14145" lon="3.90981">
        <ele>580</ele>
        <time>2016-04-27T07:42:13Z</time>
      </trkpt>
      <trkpt lat="45.1414" lon="3.90981">
        <ele>580</ele>
        <time>2016-04-27T07:42:16Z</time>
      </trkpt>
      <trkpt lat="45.14135" lon="3.90982">
        <ele>580</ele>
        <time>2016-04-27T07:42:19Z</time>
      </trkpt>
      <trkpt lat="45.14131" lon="3.90982">
        <ele>580</ele>
        <time>2016-04-27T07:42:22Z</time>
      </trkpt>
      <trkpt lat="45.1405" lon="3.9095">
        <ele>583</ele>
        <time>2016-04-27T07:43:25Z</time>
      </trkpt>
      <trkpt lat="45.14044" lon="3.90951">
        <ele>584</ele>
        <time>2016-04-27T07:43:29Z</time>
      </trkpt>
      <trkpt lat="45.14" lon="3.90948">
        <ele>584</ele>
        <time>2016-04-27T07:44:00Z</time>
      </trkpt>
      <trkpt lat="45.139" lon="3.90917">
        <ele>583</ele>
        <time>2016-04-27T07:45:14Z</time>
      </trkpt>
      <trkpt lat="45.13793" lon="3.9087">
        <ele>584</ele>
        <time>2016-04-27T07:46:35Z</time>
      </trkpt>
      <trkpt lat="45.13754" lon="3.90845">
        <ele>583</ele>
        <time>2016-04-27T07:47:07Z</time>
      </trkpt>
      <trkpt lat="45.13742" lon="3.90833">
        <ele>582</ele>
        <time>2016-04-27T07:47:19Z</time>
      </trkpt>
      <trkpt lat="45.13739" lon="3.90828">
        <ele>583</ele>
        <time>2016-04-27T07:47:23Z</time>
      </trkpt>
      <trkpt lat="45.13663" lon="3.90778">
        <ele>586</ele>
        <time>2016-04-27T07:48:28Z</time>
      </trkpt>
      <trkpt lat="45.13634" lon="3.90715">
        <ele>588</ele>
        <time>2016-04-27T07:49:07Z</time>
      </trkpt>
      <trkpt lat="45.13596" lon="3.90662">
        <ele>590</ele>
        <time>2016-04-27T07:49:46Z</time>
      </trkpt>
      <trkpt lat="45.13565" lon="3.90635">
        <ele>590</ele>
        <time>2016-04-27T07:50:17Z</time>
      </trkpt>
      <trkpt lat="45.13541" lon="3.90623">
        <ele>590</ele>
        <time>2016-04-27T07:50:39Z</time>
      </trkpt>
      <trkpt lat="45.13536" lon="3.90624">
        <ele>591</ele>
        <time>2016-04-27T07:50:44Z</time>
      </trkpt>
      <trkpt lat="45.13489" lon="3.90627">
        <ele>593</ele>
        <time>2016-04-27T07:51:20Z</time>
      </trkpt>
      <trkpt lat="45.13479" lon="3.90632">
        <ele>593</ele>
        <time>2016-04-27T07:51:32Z</time>
      </trkpt>
      <trkpt lat="45.13436" lon="3.90658">
        <ele>597</ele>
        <time>2016-04-27T07:52:05Z</time>
      </trkpt>
      <trkpt lat="45.13352" lon="3.90695">
        <ele>597</ele>
        <time>2016-04-27T07:53:09Z</time>
      </trkpt>
      <trkpt lat="45.13342" lon="3.90701">
        <ele>597</ele>
        <time>2016-04-27T07:53:17Z</time>
      </trkpt>
      <trkpt lat="45.13305" lon="3.90712">
        <ele>598</ele>
        <time>2016-04-27T07:53:45Z</time>
      </trkpt>
      <trkpt lat="45.13301" lon="3.90709">
        <ele>599</ele>
        <time>2016-04-27T07:53:48Z</time>
      </trkpt>
      <trkpt lat="45.13275" lon="3.90658">
        <ele>600</ele>
        <time>2016-04-27T07:54:20Z</time>
      </trkpt>
      <trkpt lat="45.13251" lon="3.90643">
        <ele>600</ele>
        <time>2016-04-27T07:54:40Z</time>
      </trkpt>
      <trkpt lat="45.13101" lon="3.90616">
        <ele>607</ele>
        <time>2016-04-27T07:56:31Z</time>
      </trkpt>
      <trkpt lat="45.13014" lon="3.90581">
        <ele>607</ele>
        <time>2016-04-27T07:57:36Z</time>
      </trkpt>
      <trkpt lat="45.12911" lon="3.9056">
        <ele>610</ele>
        <time>2016-04-27T07:58:46Z</time>
      </trkpt>
      <trkpt lat="45.129" lon="3.90558">
        <ele>611</ele>
        <time>2016-04-27T07:58:54Z</time>
      </trkpt>
      <trkpt lat="45.12776" lon="3.90557">
        <ele>609</ele>
        <time>2016-04-27T08:00:28Z</time>
      </trkpt>
      <trkpt lat="45.12687" lon="3.90566">
        <ele>608</ele>
        <time>2016-04-27T08:01:35Z</time>
      </trkpt>
      <trkpt lat="45.12614" lon="3.9058">
        <ele>605</ele>
        <time>2016-04-27T08:02:34Z</time>
      </trkpt>
      <trkpt lat="45.12568" lon="3.90571">
        <ele>602</ele>
        <time>2016-04-27T08:03:34Z</time>
      </trkpt>
      <trkpt lat="45.12526" lon="3.90567">
        <ele>602</ele>
        <time>2016-04-27T08:04:05Z</time>
      </trkpt>
      <trkpt lat="45.1252" lon="3.90566">
        <ele>601</ele>
        <time>2016-04-27T08:04:10Z</time>
      </trkpt>
      <trkpt lat="45.1251" lon="3.90566">
        <ele>601</ele>
        <time>2016-04-27T08:04:18Z</time>
      </trkpt>
      <trkpt lat="45.12506" lon="3.90564">
        <ele>601</ele>
        <time>2016-04-27T08:04:32Z</time>
      </trkpt>
      <trkpt lat="45.12463" lon="3.90566">
        <ele>600</ele>
        <time>2016-04-27T08:05:04Z</time>
      </trkpt>
      <trkpt lat="45.12422" lon="3.90583">
        <ele>599</ele>
        <time>2016-04-27T08:05:34Z</time>
      </trkpt>
      <trkpt lat="45.12269" lon="3.90665">
        <ele>594</ele>
        <time>2016-04-27T08:07:34Z</time>
      </trkpt>
      <trkpt lat="45.12237" lon="3.907">
        <ele>592</ele>
        <time>2016-04-27T08:08:06Z</time>
      </trkpt>
      <trkpt lat="45.12229" lon="3.90727">
        <ele>590</ele>
        <time>2016-04-27T08:08:22Z</time>
      </trkpt>
      <trkpt lat="45.12229" lon="3.90735">
        <ele>590</ele>
        <time>2016-04-27T08:08:26Z</time>
      </trkpt>
      <trkpt lat="45.12232" lon="3.90741">
        <ele>588</ele>
        <time>2016-04-27T08:08:30Z</time>
      </trkpt>
      <trkpt lat="45.12249" lon="3.90749">
        <ele>586</ele>
        <time>2016-04-27T08:08:42Z</time>
      </trkpt>
      <trkpt lat="45.12251" lon="3.90756">
        <ele>586</ele>
        <time>2016-04-27T08:08:46Z</time>
      </trkpt>
      <trkpt lat="45.12248" lon="3.90761">
        <ele>585</ele>
        <time>2016-04-27T08:08:51Z</time>
      </trkpt>
      <trkpt lat="45.12228" lon="3.90764">
        <ele>582</ele>
        <time>2016-04-27T08:09:06Z</time>
      </trkpt>
      <trkpt lat="45.12222" lon="3.90764">
        <ele>581</ele>
        <time>2016-04-27T08:09:10Z</time>
      </trkpt>
      <trkpt lat="45.12218" lon="3.90764">
        <ele>581</ele>
        <time>2016-04-27T08:09:13Z</time>
      </trkpt>
      <trkpt lat="45.12169" lon="3.90781">
        <ele>574</ele>
        <time>2016-04-27T08:09:51Z</time>
      </trkpt>
      <trkpt lat="45.12163" lon="3.90783">
        <ele>574</ele>
        <time>2016-04-27T08:09:55Z</time>
      </trkpt>
      <trkpt lat="45.12143" lon="3.90792">
        <ele>573</ele>
        <time>2016-04-27T08:10:07Z</time>
      </trkpt>
      <trkpt lat="45.12139" lon="3.90794">
        <ele>573</ele>
        <time>2016-04-27T08:10:11Z</time>
      </trkpt>
      <trkpt lat="45.12124" lon="3.90796">
        <ele>572</ele>
        <time>2016-04-27T08:10:22Z</time>
      </trkpt>
      <trkpt lat="45.12119" lon="3.90793">
        <ele>572</ele>
        <time>2016-04-27T08:10:27Z</time>
      </trkpt>
      <trkpt lat="45.12117" lon="3.90788">
        <ele>573</ele>
        <time>2016-04-27T08:10:37Z</time>
      </trkpt>
      <trkpt lat="45.12118" lon="3.90772">
        <ele>573</ele>
        <time>2016-04-27T08:10:57Z</time>
      </trkpt>
      <trkpt lat="45.12116" lon="3.90744">
        <ele>573</ele>
        <time>2016-04-27T08:11:13Z</time>
      </trkpt>
      <trkpt lat="45.12104" lon="3.90706">
        <ele>568</ele>
        <time>2016-04-27T08:11:38Z</time>
      </trkpt>
      <trkpt lat="45.12103" lon="3.90702">
        <ele>567</ele>
        <time>2016-04-27T08:11:45Z</time>
      </trkpt>
      <trkpt lat="45.12105" lon="3.90704">
        <ele>569</ele>
        <time>2016-04-27T08:12:42Z</time>
      </trkpt>
      <trkpt lat="45.1211" lon="3.90709">
        <ele>569</ele>
        <time>2016-04-27T08:12:48Z</time>
      </trkpt>
      <trkpt lat="45.12129" lon="3.90721">
        <ele>565</ele>
        <time>2016-04-27T08:13:06Z</time>
      </trkpt>
      <trkpt lat="45.12131" lon="3.9072">
        <ele>565</ele>
        <time>2016-04-27T08:22:10Z</time>
      </trkpt>
      <trkpt lat="45.12127" lon="3.90716">
        <ele>564</ele>
        <time>2016-04-27T08:26:29Z</time>
      </trkpt>
      <trkpt lat="45.12124" lon="3.90715">
        <ele>564</ele>
        <time>2016-04-27T08:26:40Z</time>
      </trkpt>
      <trkpt lat="45.12127" lon="3.90726">
        <ele>564</ele>
        <time>2016-04-27T08:27:04Z</time>
      </trkpt>
      <trkpt lat="45.12125" lon="3.90728">
        <ele>564</ele>
        <time>2016-04-27T08:28:14Z</time>
      </trkpt>
      <trkpt lat="45.12122" lon="3.9073">
        <ele>564</ele>
        <time>2016-04-27T08:30:38Z</time>
      </trkpt>
      <trkpt lat="45.12123" lon="3.90723">
        <ele>565</ele>
        <time>2016-04-27T08:31:58Z</time>
      </trkpt>
      <trkpt lat="45.12122" lon="3.90716">
        <ele>564</ele>
        <time>2016-04-27T08:32:08Z</time>
      </trkpt>
      <trkpt lat="45.12123" lon="3.90721">
        <ele>564</ele>
        <time>2016-04-27T08:32:45Z</time>
      </trkpt>
      <trkpt lat="45.12126" lon="3.90726">
        <ele>564</ele>
        <time>2016-04-27T08:33:21Z</time>
      </trkpt>
      <trkpt lat="45.12127" lon="3.9072">
        <ele>557</ele>
        <time>2016-04-27T08:53:53Z</time>
      </trkpt>
      <trkpt lat="45.12124" lon="3.9072">
        <ele>557</ele>
        <time>2016-04-27T08:54:40Z</time>
      </trkpt>
      <trkpt lat="45.12118" lon="3.90721">
        <ele>558</ele>
        <time>2016-04-27T08:54:55Z</time>
      </trkpt>
      <trkpt lat="45.1211" lon="3.90722">
        <ele>558</ele>
        <time>2016-04-27T08:55:01Z</time>
      </trkpt>
      <trkpt lat="45.12109" lon="3.90716">
        <ele>558</ele>
        <time>2016-04-27T08:55:05Z</time>
      </trkpt>
      <trkpt lat="45.12087" lon="3.90674">
        <ele>559</ele>
        <time>2016-04-27T08:55:36Z</time>
      </trkpt>
      <trkpt lat="45.12085" lon="3.90668">
        <ele>559</ele>
        <time>2016-04-27T08:55:40Z</time>
      </trkpt>
      <trkpt lat="45.12085" lon="3.90653">
        <ele>558</ele>
        <time>2016-04-27T08:55:49Z</time>
      </trkpt>
      <trkpt lat="45.12087" lon="3.90646">
        <ele>558</ele>
        <time>2016-04-27T08:55:54Z</time>
      </trkpt>
      <trkpt lat="45.12087" lon="3.90617">
        <ele>557</ele>
        <time>2016-04-27T08:56:24Z</time>
      </trkpt>
      <trkpt lat="45.12079" lon="3.90564">
        <ele>558</ele>
        <time>2016-04-27T08:57:21Z</time>
      </trkpt>
      <trkpt lat="45.12083" lon="3.90507">
        <ele>560</ele>
        <time>2016-04-27T08:58:24Z</time>
      </trkpt>
      <trkpt lat="45.12105" lon="3.90357">
        <ele>561</ele>
        <time>2016-04-27T08:59:51Z</time>
      </trkpt>
      <trkpt lat="45.12106" lon="3.9035">
        <ele>563</ele>
        <time>2016-04-27T08:59:55Z</time>
      </trkpt>
      <trkpt lat="45.12116" lon="3.90303">
        <ele>561</ele>
        <time>2016-04-27T09:00:26Z</time>
      </trkpt>
      <trkpt lat="45.12117" lon="3.90267">
        <ele>560</ele>
        <time>2016-04-27T09:00:46Z</time>
      </trkpt>
      <trkpt lat="45.12119" lon="3.90261">
        <ele>560</ele>
        <time>2016-04-27T09:00:50Z</time>
      </trkpt>
      <trkpt lat="45.12119" lon="3.90247">
        <ele>559</ele>
        <time>2016-04-27T09:00:59Z</time>
      </trkpt>
      <trkpt lat="45.12129" lon="3.90231">
        <ele>559</ele>
        <time>2016-04-27T09:01:11Z</time>
      </trkpt>
      <trkpt lat="45.12161" lon="3.90212">
        <ele>559</ele>
        <time>2016-04-27T09:01:41Z</time>
      </trkpt>
      <trkpt lat="45.12165" lon="3.90212">
        <ele>559</ele>
        <time>2016-04-27T09:01:45Z</time>
      </trkpt>
      <trkpt lat="45.12169" lon="3.90206">
        <ele>560</ele>
        <time>2016-04-27T09:01:50Z</time>
      </trkpt>
      <trkpt lat="45.12171" lon="3.90192">
        <ele>560</ele>
        <time>2016-04-27T09:01:59Z</time>
      </trkpt>
      <trkpt lat="45.1217" lon="3.90185">
        <ele>561</ele>
        <time>2016-04-27T09:02:04Z</time>
      </trkpt>
      <trkpt lat="45.12129" lon="3.90053">
        <ele>562</ele>
        <time>2016-04-27T09:03:37Z</time>
      </trkpt>
      <trkpt lat="45.12114" lon="3.90021">
        <ele>561</ele>
        <time>2016-04-27T09:03:59Z</time>
      </trkpt>
      <trkpt lat="45.12081" lon="3.89975">
        <ele>563</ele>
        <time>2016-04-27T09:04:38Z</time>
      </trkpt>
      <trkpt lat="45.12079" lon="3.89973">
        <ele>564</ele>
        <time>2016-04-27T09:04:48Z</time>
      </trkpt>
      <trkpt lat="45.12059" lon="3.89946">
        <ele>560</ele>
        <time>2016-04-27T09:05:09Z</time>
      </trkpt>
      <trkpt lat="45.12051" lon="3.89938">
        <ele>560</ele>
        <time>2016-04-27T09:05:18Z</time>
      </trkpt>
      <trkpt lat="45.12047" lon="3.89937">
        <ele>560</ele>
        <time>2016-04-27T09:05:27Z</time>
      </trkpt>
      <trkpt lat="45.12044" lon="3.89932">
        <ele>560</ele>
        <time>2016-04-27T09:05:33Z</time>
      </trkpt>
      <trkpt lat="45.12021" lon="3.89904">
        <ele>562</ele>
        <time>2016-04-27T09:05:56Z</time>
      </trkpt>
      <trkpt lat="45.12009" lon="3.89895">
        <ele>561</ele>
        <time>2016-04-27T09:06:14Z</time>
      </trkpt>
      <trkpt lat="45.12001" lon="3.89857">
        <ele>556</ele>
        <time>2016-04-27T09:06:49Z</time>
      </trkpt>
      <trkpt lat="45.12" lon="3.89846">
        <ele>555</ele>
        <time>2016-04-27T09:06:55Z</time>
      </trkpt>
      <trkpt lat="45.12022" lon="3.89676">
        <ele>553</ele>
        <time>2016-04-27T09:08:57Z</time>
      </trkpt>
      <trkpt lat="45.12032" lon="3.89629">
        <ele>552</ele>
        <time>2016-04-27T09:09:29Z</time>
      </trkpt>
      <trkpt lat="45.12037" lon="3.89592">
        <ele>553</ele>
        <time>2016-04-27T09:10:00Z</time>
      </trkpt>
      <trkpt lat="45.12038" lon="3.89586">
        <ele>553</ele>
        <time>2016-04-27T09:10:10Z</time>
      </trkpt>
      <trkpt lat="45.1204" lon="3.8958">
        <ele>554</ele>
        <time>2016-04-27T09:10:39Z</time>
      </trkpt>
      <trkpt lat="45.12046" lon="3.89525">
        <ele>556</ele>
        <time>2016-04-27T09:11:16Z</time>
      </trkpt>
      <trkpt lat="45.12052" lon="3.89505">
        <ele>556</ele>
        <time>2016-04-27T09:11:30Z</time>
      </trkpt>
      <trkpt lat="45.12065" lon="3.89446">
        <ele>555</ele>
        <time>2016-04-27T09:12:17Z</time>
      </trkpt>
      <trkpt lat="45.12066" lon="3.89439">
        <ele>555</ele>
        <time>2016-04-27T09:12:21Z</time>
      </trkpt>
      <trkpt lat="45.12073" lon="3.89414">
        <ele>558</ele>
        <time>2016-04-27T09:12:41Z</time>
      </trkpt>
      <trkpt lat="45.1207" lon="3.89384">
        <ele>558</ele>
        <time>2016-04-27T09:13:23Z</time>
      </trkpt>
      <trkpt lat="45.12072" lon="3.89378">
        <ele>558</ele>
        <time>2016-04-27T09:13:30Z</time>
      </trkpt>
      <trkpt lat="45.12071" lon="3.8937">
        <ele>559</ele>
        <time>2016-04-27T09:13:34Z</time>
      </trkpt>
      <trkpt lat="45.12077" lon="3.89342">
        <ele>559</ele>
        <time>2016-04-27T09:13:51Z</time>
      </trkpt>
      <trkpt lat="45.12075" lon="3.89301">
        <ele>562</ele>
        <time>2016-04-27T09:14:20Z</time>
      </trkpt>
      <trkpt lat="45.12071" lon="3.89297">
        <ele>562</ele>
        <time>2016-04-27T09:14:27Z</time>
      </trkpt>
      <trkpt lat="45.12064" lon="3.89276">
        <ele>563</ele>
        <time>2016-04-27T09:14:40Z</time>
      </trkpt>
      <trkpt lat="45.12059" lon="3.89273">
        <ele>563</ele>
        <time>2016-04-27T09:14:45Z</time>
      </trkpt>
      <trkpt lat="45.12044" lon="3.89229">
        <ele>566</ele>
        <time>2016-04-27T09:15:17Z</time>
      </trkpt>
      <trkpt lat="45.12033" lon="3.89216">
        <ele>567</ele>
        <time>2016-04-27T09:15:30Z</time>
      </trkpt>
      <trkpt lat="45.12012" lon="3.8917">
        <ele>566</ele>
        <time>2016-04-27T09:16:06Z</time>
      </trkpt>
      <trkpt lat="45.11984" lon="3.89141">
        <ele>568</ele>
        <time>2016-04-27T09:16:40Z</time>
      </trkpt>
      <trkpt lat="45.1197" lon="3.89133">
        <ele>571</ele>
        <time>2016-04-27T09:16:50Z</time>
      </trkpt>
      <trkpt lat="45.1197" lon="3.89124">
        <ele>572</ele>
        <time>2016-04-27T09:16:56Z</time>
      </trkpt>
      <trkpt lat="45.11966" lon="3.8911">
        <ele>573</ele>
        <time>2016-04-27T09:17:17Z</time>
      </trkpt>
      <trkpt lat="45.11958" lon="3.89103">
        <ele>573</ele>
        <time>2016-04-27T09:17:25Z</time>
      </trkpt>
      <trkpt lat="45.11949" lon="3.89101">
        <ele>573</ele>
        <time>2016-04-27T09:17:34Z</time>
      </trkpt>
      <trkpt lat="45.11942" lon="3.89093">
        <ele>574</ele>
        <time>2016-04-27T09:17:45Z</time>
      </trkpt>
      <trkpt lat="45.11938" lon="3.89081">
        <ele>576</ele>
        <time>2016-04-27T09:17:56Z</time>
      </trkpt>
      <trkpt lat="45.1193" lon="3.89073">
        <ele>577</ele>
        <time>2016-04-27T09:18:08Z</time>
      </trkpt>
      <trkpt lat="45.11925" lon="3.89058">
        <ele>579</ele>
        <time>2016-04-27T09:18:25Z</time>
      </trkpt>
      <trkpt lat="45.11925" lon="3.89033">
        <ele>583</ele>
        <time>2016-04-27T09:18:51Z</time>
      </trkpt>
      <trkpt lat="45.11926" lon="3.8902">
        <ele>583</ele>
        <time>2016-04-27T09:19:01Z</time>
      </trkpt>
      <trkpt lat="45.11933" lon="3.89012">
        <ele>583</ele>
        <time>2016-04-27T09:19:15Z</time>
      </trkpt>
      <trkpt lat="45.1193" lon="3.88999">
        <ele>587</ele>
        <time>2016-04-27T09:19:28Z</time>
      </trkpt>
      <trkpt lat="45.11891" lon="3.89018">
        <ele>599</ele>
        <time>2016-04-27T09:20:19Z</time>
      </trkpt>
      <trkpt lat="45.11892" lon="3.89005">
        <ele>600</ele>
        <time>2016-04-27T09:20:26Z</time>
      </trkpt>
      <trkpt lat="45.11894" lon="3.89001">
        <ele>601</ele>
        <time>2016-04-27T09:20:39Z</time>
      </trkpt>
      <trkpt lat="45.1191" lon="3.88984">
        <ele>593</ele>
        <time>2016-04-27T09:21:02Z</time>
      </trkpt>
      <trkpt lat="45.11914" lon="3.88982">
        <ele>593</ele>
        <time>2016-04-27T09:21:07Z</time>
      </trkpt>
      <trkpt lat="45.11924" lon="3.88967">
        <ele>596</ele>
        <time>2016-04-27T09:21:26Z</time>
      </trkpt>
      <trkpt lat="45.11919" lon="3.88967">
        <ele>597</ele>
        <time>2016-04-27T09:21:35Z</time>
      </trkpt>
      <trkpt lat="45.11915" lon="3.88971">
        <ele>598</ele>
        <time>2016-04-27T09:21:40Z</time>
      </trkpt>
      <trkpt lat="45.119" lon="3.88972">
        <ele>601</ele>
        <time>2016-04-27T09:21:58Z</time>
      </trkpt>
      <trkpt lat="45.11895" lon="3.88969">
        <ele>605</ele>
        <time>2016-04-27T09:22:06Z</time>
      </trkpt>
      <trkpt lat="45.11876" lon="3.88972">
        <ele>610</ele>
        <time>2016-04-27T09:22:30Z</time>
      </trkpt>
      <trkpt lat="45.11877" lon="3.88966">
        <ele>611</ele>
        <time>2016-04-27T09:22:40Z</time>
      </trkpt>
      <trkpt lat="45.11888" lon="3.88952">
        <ele>614</ele>
        <time>2016-04-27T09:23:16Z</time>
      </trkpt>
      <trkpt lat="45.119" lon="3.88944">
        <ele>616</ele>
        <time>2016-04-27T09:23:29Z</time>
      </trkpt>
      <trkpt lat="45.11924" lon="3.88923">
        <ele>623</ele>
        <time>2016-04-27T09:24:19Z</time>
      </trkpt>
      <trkpt lat="45.11936" lon="3.88905">
        <ele>625</ele>
        <time>2016-04-27T09:24:46Z</time>
      </trkpt>
      <trkpt lat="45.11927" lon="3.88909">
        <ele>627</ele>
        <time>2016-04-27T09:24:55Z</time>
      </trkpt>
      <trkpt lat="45.11918" lon="3.8891">
        <ele>635</ele>
        <time>2016-04-27T09:26:29Z</time>
      </trkpt>
      <trkpt lat="45.11909" lon="3.8891">
        <ele>636</ele>
        <time>2016-04-27T09:26:38Z</time>
      </trkpt>
      <trkpt lat="45.11902" lon="3.88903">
        <ele>638</ele>
        <time>2016-04-27T09:26:53Z</time>
      </trkpt>
      <trkpt lat="45.11892" lon="3.88902">
        <ele>641</ele>
        <time>2016-04-27T09:27:08Z</time>
      </trkpt>
      <trkpt lat="45.11883" lon="3.88907">
        <ele>643</ele>
        <time>2016-04-27T09:27:20Z</time>
      </trkpt>
      <trkpt lat="45.11865" lon="3.8892">
        <ele>644</ele>
        <time>2016-04-27T09:27:52Z</time>
      </trkpt>
      <trkpt lat="45.11863" lon="3.8891">
        <ele>642</ele>
        <time>2016-04-27T09:28:09Z</time>
      </trkpt>
      <trkpt lat="45.11881" lon="3.88881">
        <ele>647</ele>
        <time>2016-04-27T09:29:07Z</time>
      </trkpt>
      <trkpt lat="45.11895" lon="3.88866">
        <ele>651</ele>
        <time>2016-04-27T09:29:41Z</time>
      </trkpt>
      <trkpt lat="45.11908" lon="3.88849">
        <ele>656</ele>
        <time>2016-04-27T09:30:11Z</time>
      </trkpt>
      <trkpt lat="45.1192" lon="3.88828">
        <ele>661</ele>
        <time>2016-04-27T09:30:53Z</time>
      </trkpt>
      <trkpt lat="45.11938" lon="3.88823">
        <ele>665</ele>
        <time>2016-04-27T09:31:27Z</time>
      </trkpt>
      <trkpt lat="45.11947" lon="3.88818">
        <ele>667</ele>
        <time>2016-04-27T09:31:40Z</time>
      </trkpt>
      <trkpt lat="45.1193" lon="3.8881">
        <ele>667</ele>
        <time>2016-04-27T09:33:20Z</time>
      </trkpt>
      <trkpt lat="45.11927" lon="3.88807">
        <ele>667</ele>
        <time>2016-04-27T09:33:28Z</time>
      </trkpt>
      <trkpt lat="45.11923" lon="3.88811">
        <ele>668</ele>
        <time>2016-04-27T09:33:33Z</time>
      </trkpt>
      <trkpt lat="45.1192" lon="3.88806">
        <ele>669</ele>
        <time>2016-04-27T09:33:38Z</time>
      </trkpt>
      <trkpt lat="45.11918" lon="3.888">
        <ele>670</ele>
        <time>2016-04-27T09:33:44Z</time>
      </trkpt>
      <trkpt lat="45.11919" lon="3.88796">
        <ele>671</ele>
        <time>2016-04-27T09:33:50Z</time>
      </trkpt>
      <trkpt lat="45.11933" lon="3.88789">
        <ele>671</ele>
        <time>2016-04-27T09:34:13Z</time>
      </trkpt>
      <trkpt lat="45.11939" lon="3.8878">
        <ele>672</ele>
        <time>2016-04-27T09:34:25Z</time>
      </trkpt>
      <trkpt lat="45.11943" lon="3.88754">
        <ele>674</ele>
        <time>2016-04-27T09:34:49Z</time>
      </trkpt>
      <trkpt lat="45.11949" lon="3.8874">
        <ele>677</ele>
        <time>2016-04-27T09:35:06Z</time>
      </trkpt>
      <trkpt lat="45.11959" lon="3.88731">
        <ele>683</ele>
        <time>2016-04-27T09:35:44Z</time>
      </trkpt>
      <trkpt lat="45.1196" lon="3.88717">
        <ele>685</ele>
        <time>2016-04-27T09:35:49Z</time>
      </trkpt>
      <trkpt lat="45.1196" lon="3.88699">
        <ele>691</ele>
        <time>2016-04-27T09:36:12Z</time>
      </trkpt>
      <trkpt lat="45.11965" lon="3.88679">
        <ele>696</ele>
        <time>2016-04-27T09:36:39Z</time>
      </trkpt>
      <trkpt lat="45.11972" lon="3.88671">
        <ele>698</ele>
        <time>2016-04-27T09:37:00Z</time>
      </trkpt>
      <trkpt lat="45.12" lon="3.88686">
        <ele>703</ele>
        <time>2016-04-27T09:37:43Z</time>
      </trkpt>
      <trkpt lat="45.12015" lon="3.88685">
        <ele>702</ele>
        <time>2016-04-27T09:38:07Z</time>
      </trkpt>
      <trkpt lat="45.12027" lon="3.88689">
        <ele>704</ele>
        <time>2016-04-27T09:38:38Z</time>
      </trkpt>
      <trkpt lat="45.1203" lon="3.88691">
        <ele>707</ele>
        <time>2016-04-27T09:39:20Z</time>
      </trkpt>
      <trkpt lat="45.12033" lon="3.88686">
        <ele>707</ele>
        <time>2016-04-27T09:39:24Z</time>
      </trkpt>
      <trkpt lat="45.12028" lon="3.88683">
        <ele>708</ele>
        <time>2016-04-27T09:39:58Z</time>
      </trkpt>
      <trkpt lat="45.12001" lon="3.88653">
        <ele>711</ele>
        <time>2016-04-27T09:40:42Z</time>
      </trkpt>
      <trkpt lat="45.11996" lon="3.88646">
        <ele>712</ele>
        <time>2016-04-27T09:40:54Z</time>
      </trkpt>
      <trkpt lat="45.11999" lon="3.8864">
        <ele>714</ele>
        <time>2016-04-27T09:41:08Z</time>
      </trkpt>
      <trkpt lat="45.12016" lon="3.88637">
        <ele>720</ele>
        <time>2016-04-27T09:41:41Z</time>
      </trkpt>
      <trkpt lat="45.12021" lon="3.88635">
        <ele>720</ele>
        <time>2016-04-27T09:41:58Z</time>
      </trkpt>
      <trkpt lat="45.12023" lon="3.8864">
        <ele>720</ele>
        <time>2016-04-27T09:42:09Z</time>
      </trkpt>
      <trkpt lat="45.12032" lon="3.88644">
        <ele>721</ele>
        <time>2016-04-27T09:42:21Z</time>
      </trkpt>
      <trkpt lat="45.12037" lon="3.88644">
        <ele>722</ele>
        <time>2016-04-27T09:42:30Z</time>
      </trkpt>
      <trkpt lat="45.12036" lon="3.88637">
        <ele>723</ele>
        <time>2016-04-27T09:42:38Z</time>
      </trkpt>
      <trkpt lat="45.12032" lon="3.88626">
        <ele>725</ele>
        <time>2016-04-27T09:42:57Z</time>
      </trkpt>
      <trkpt lat="45.12018" lon="3.88611">
        <ele>729</ele>
        <time>2016-04-27T09:44:04Z</time>
      </trkpt>
      <trkpt lat="45.12013" lon="3.8861">
        <ele>729</ele>
        <time>2016-04-27T09:44:10Z</time>
      </trkpt>
      <trkpt lat="45.12011" lon="3.88604">
        <ele>730</ele>
        <time>2016-04-27T09:44:18Z</time>
      </trkpt>
      <trkpt lat="45.1201" lon="3.88601">
        <ele>731</ele>
        <time>2016-04-27T09:44:25Z</time>
      </trkpt>
      <trkpt lat="45.12007" lon="3.886">
        <ele>731</ele>
        <time>2016-04-27T09:44:32Z</time>
      </trkpt>
      <trkpt lat="45.12004" lon="3.88594">
        <ele>729</ele>
        <time>2016-04-27T09:44:36Z</time>
      </trkpt>
      <trkpt lat="45.11993" lon="3.88586">
        <ele>732</ele>
        <time>2016-04-27T09:44:53Z</time>
      </trkpt>
      <trkpt lat="45.11992" lon="3.88582">
        <ele>733</ele>
        <time>2016-04-27T09:45:00Z</time>
      </trkpt>
      <trkpt lat="45.11988" lon="3.88583">
        <ele>735</ele>
        <time>2016-04-27T09:45:11Z</time>
      </trkpt>
      <trkpt lat="45.11984" lon="3.88579">
        <ele>735</ele>
        <time>2016-04-27T09:45:22Z</time>
      </trkpt>
      <trkpt lat="45.11969" lon="3.88571">
        <ele>743</ele>
        <time>2016-04-27T09:45:51Z</time>
      </trkpt>
      <trkpt lat="45.11959" lon="3.88572">
        <ele>746</ele>
        <time>2016-04-27T09:46:07Z</time>
      </trkpt>
      <trkpt lat="45.11949" lon="3.88586">
        <ele>751</ele>
        <time>2016-04-27T09:46:29Z</time>
      </trkpt>
      <trkpt lat="45.11928" lon="3.88593">
        <ele>750</ele>
        <time>2016-04-27T09:46:57Z</time>
      </trkpt>
      <trkpt lat="45.11913" lon="3.88609">
        <ele>753</ele>
        <time>2016-04-27T09:47:16Z</time>
      </trkpt>
      <trkpt lat="45.11906" lon="3.88618">
        <ele>754</ele>
        <time>2016-04-27T09:47:32Z</time>
      </trkpt>
      <trkpt lat="45.11898" lon="3.88625">
        <ele>754</ele>
        <time>2016-04-27T09:47:42Z</time>
      </trkpt>
      <trkpt lat="45.11889" lon="3.88627">
        <ele>754</ele>
        <time>2016-04-27T09:47:52Z</time>
      </trkpt>
      <trkpt lat="45.1188" lon="3.88625">
        <ele>754</ele>
        <time>2016-04-27T09:48:04Z</time>
      </trkpt>
      <trkpt lat="45.11873" lon="3.88617">
        <ele>755</ele>
        <time>2016-04-27T09:48:14Z</time>
      </trkpt>
      <trkpt lat="45.11868" lon="3.88605">
        <ele>756</ele>
        <time>2016-04-27T09:48:30Z</time>
      </trkpt>
      <trkpt lat="45.11851" lon="3.88591">
        <ele>759</ele>
        <time>2016-04-27T09:48:52Z</time>
      </trkpt>
      <trkpt lat="45.11827" lon="3.88589">
        <ele>770</ele>
        <time>2016-04-27T09:49:24Z</time>
      </trkpt>
      <trkpt lat="45.11818" lon="3.88587">
        <ele>771</ele>
        <time>2016-04-27T09:49:37Z</time>
      </trkpt>
      <trkpt lat="45.11812" lon="3.88586">
        <ele>772</ele>
        <time>2016-04-27T09:49:45Z</time>
      </trkpt>
      <trkpt lat="45.11808" lon="3.88583">
        <ele>772</ele>
        <time>2016-04-27T09:49:51Z</time>
      </trkpt>
      <trkpt lat="45.11803" lon="3.88572">
        <ele>773</ele>
        <time>2016-04-27T09:50:01Z</time>
      </trkpt>
      <trkpt lat="45.118" lon="3.88567">
        <ele>774</ele>
        <time>2016-04-27T09:50:07Z</time>
      </trkpt>
      <trkpt lat="45.11793" lon="3.88533">
        <ele>770</ele>
        <time>2016-04-27T09:50:37Z</time>
      </trkpt>
      <trkpt lat="45.11793" lon="3.88526">
        <ele>771</ele>
        <time>2016-04-27T09:50:44Z</time>
      </trkpt>
      <trkpt lat="45.11794" lon="3.88518">
        <ele>774</ele>
        <time>2016-04-27T09:51:18Z</time>
      </trkpt>
      <trkpt lat="45.11793" lon="3.88511">
        <ele>775</ele>
        <time>2016-04-27T09:51:25Z</time>
      </trkpt>
      <trkpt lat="45.11797" lon="3.88511">
        <ele>776</ele>
        <time>2016-04-27T09:51:55Z</time>
      </trkpt>
      <trkpt lat="45.11802" lon="3.88512">
        <ele>777</ele>
        <time>2016-04-27T09:52:01Z</time>
      </trkpt>
      <trkpt lat="45.11805" lon="3.88507">
        <ele>778</ele>
        <time>2016-04-27T09:52:07Z</time>
      </trkpt>
      <trkpt lat="45.11804" lon="3.885">
        <ele>778</ele>
        <time>2016-04-27T09:52:13Z</time>
      </trkpt>
      <trkpt lat="45.11799" lon="3.88496">
        <ele>776</ele>
        <time>2016-04-27T09:52:20Z</time>
      </trkpt>
      <trkpt lat="45.11789" lon="3.88493">
        <ele>780</ele>
        <time>2016-04-27T09:52:31Z</time>
      </trkpt>
      <trkpt lat="45.11789" lon="3.88486">
        <ele>780</ele>
        <time>2016-04-27T09:52:38Z</time>
      </trkpt>
      <trkpt lat="45.11793" lon="3.88486">
        <ele>784</ele>
        <time>2016-04-27T09:54:21Z</time>
      </trkpt>
      <trkpt lat="45.11798" lon="3.88489">
        <ele>786</ele>
        <time>2016-04-27T09:54:29Z</time>
      </trkpt>
      <trkpt lat="45.11819" lon="3.88492">
        <ele>787</ele>
        <time>2016-04-27T09:54:49Z</time>
      </trkpt>
      <trkpt lat="45.11822" lon="3.88499">
        <ele>789</ele>
        <time>2016-04-27T09:54:57Z</time>
      </trkpt>
      <trkpt lat="45.11827" lon="3.88496">
        <ele>789</ele>
        <time>2016-04-27T09:55:01Z</time>
      </trkpt>
      <trkpt lat="45.11831" lon="3.88492">
        <ele>788</ele>
        <time>2016-04-27T09:55:05Z</time>
      </trkpt>
      <trkpt lat="45.11829" lon="3.88478">
        <ele>790</ele>
        <time>2016-04-27T09:55:20Z</time>
      </trkpt>
      <trkpt lat="45.11826" lon="3.88471">
        <ele>790</ele>
        <time>2016-04-27T09:55:31Z</time>
      </trkpt>
      <trkpt lat="45.1182" lon="3.88462">
        <ele>790</ele>
        <time>2016-04-27T09:55:40Z</time>
      </trkpt>
      <trkpt lat="45.11817" lon="3.88455">
        <ele>792</ele>
        <time>2016-04-27T09:55:48Z</time>
      </trkpt>
      <trkpt lat="45.11812" lon="3.88453">
        <ele>795</ele>
        <time>2016-04-27T09:55:55Z</time>
      </trkpt>
      <trkpt lat="45.11809" lon="3.88447">
        <ele>799</ele>
        <time>2016-04-27T09:55:59Z</time>
      </trkpt>
      <trkpt lat="45.11808" lon="3.88438">
        <ele>804</ele>
        <time>2016-04-27T09:56:18Z</time>
      </trkpt>
      <trkpt lat="45.11798" lon="3.88423">
        <ele>802</ele>
        <time>2016-04-27T09:56:45Z</time>
      </trkpt>
      <trkpt lat="45.11792" lon="3.88419">
        <ele>802</ele>
        <time>2016-04-27T09:57:04Z</time>
      </trkpt>
      <trkpt lat="45.11784" lon="3.88411">
        <ele>806</ele>
        <time>2016-04-27T09:57:17Z</time>
      </trkpt>
      <trkpt lat="45.11777" lon="3.88401">
        <ele>805</ele>
        <time>2016-04-27T09:57:31Z</time>
      </trkpt>
      <trkpt lat="45.11768" lon="3.88376">
        <ele>805</ele>
        <time>2016-04-27T09:57:56Z</time>
      </trkpt>
      <trkpt lat="45.11766" lon="3.88363">
        <ele>806</ele>
        <time>2016-04-27T09:58:12Z</time>
      </trkpt>
      <trkpt lat="45.11757" lon="3.88308">
        <ele>811</ele>
        <time>2016-04-27T09:59:33Z</time>
      </trkpt>
      <trkpt lat="45.11755" lon="3.88302">
        <ele>812</ele>
        <time>2016-04-27T09:59:41Z</time>
      </trkpt>
      <trkpt lat="45.11739" lon="3.88277">
        <ele>821</ele>
        <time>2016-04-27T10:00:12Z</time>
      </trkpt>
      <trkpt lat="45.11736" lon="3.8827">
        <ele>823</ele>
        <time>2016-04-27T10:00:21Z</time>
      </trkpt>
      <trkpt lat="45.11727" lon="3.88265">
        <ele>826</ele>
        <time>2016-04-27T10:00:36Z</time>
      </trkpt>
      <trkpt lat="45.11724" lon="3.88261">
        <ele>826</ele>
        <time>2016-04-27T10:00:42Z</time>
      </trkpt>
      <trkpt lat="45.11719" lon="3.88256">
        <ele>826</ele>
        <time>2016-04-27T10:00:48Z</time>
      </trkpt>
      <trkpt lat="45.11716" lon="3.88251">
        <ele>826</ele>
        <time>2016-04-27T10:00:55Z</time>
      </trkpt>
      <trkpt lat="45.11705" lon="3.88244">
        <ele>827</ele>
        <time>2016-04-27T10:01:14Z</time>
      </trkpt>
      <trkpt lat="45.117" lon="3.8824">
        <ele>827</ele>
        <time>2016-04-27T10:01:20Z</time>
      </trkpt>
      <trkpt lat="45.11691" lon="3.88239">
        <ele>830</ele>
        <time>2016-04-27T10:01:33Z</time>
      </trkpt>
      <trkpt lat="45.11686" lon="3.88235">
        <ele>831</ele>
        <time>2016-04-27T10:01:42Z</time>
      </trkpt>
      <trkpt lat="45.11681" lon="3.88235">
        <ele>832</ele>
        <time>2016-04-27T10:01:50Z</time>
      </trkpt>
      <trkpt lat="45.11677" lon="3.88237">
        <ele>832</ele>
        <time>2016-04-27T10:01:56Z</time>
      </trkpt>
      <trkpt lat="45.11663" lon="3.88242">
        <ele>832</ele>
        <time>2016-04-27T10:02:14Z</time>
      </trkpt>
      <trkpt lat="45.11651" lon="3.88256">
        <ele>831</ele>
        <time>2016-04-27T10:02:29Z</time>
      </trkpt>
      <trkpt lat="45.11611" lon="3.88286">
        <ele>828</ele>
        <time>2016-04-27T10:03:20Z</time>
      </trkpt>
      <trkpt lat="45.11594" lon="3.88309">
        <ele>829</ele>
        <time>2016-04-27T10:03:43Z</time>
      </trkpt>
      <trkpt lat="45.11595" lon="3.88312">
        <ele>829</ele>
        <time>2016-04-27T10:04:00Z</time>
      </trkpt>
      <trkpt lat="45.11594" lon="3.88324">
        <ele>828</ele>
        <time>2016-04-27T10:04:30Z</time>
      </trkpt>
      <trkpt lat="45.11591" lon="3.8833">
        <ele>827</ele>
        <time>2016-04-27T10:05:23Z</time>
      </trkpt>
      <trkpt lat="45.11586" lon="3.8833">
        <ele>823</ele>
        <time>2016-04-27T10:07:10Z</time>
      </trkpt>
      <trkpt lat="45.11587" lon="3.88335">
        <ele>823</ele>
        <time>2016-04-27T10:18:04Z</time>
      </trkpt>
      <trkpt lat="45.11591" lon="3.88332">
        <ele>823</ele>
        <time>2016-04-27T10:19:49Z</time>
      </trkpt>
      <trkpt lat="45.11591" lon="3.88326">
        <ele>823</ele>
        <time>2016-04-27T10:19:56Z</time>
      </trkpt>
      <trkpt lat="45.11594" lon="3.88319">
        <ele>825</ele>
        <time>2016-04-27T10:20:00Z</time>
      </trkpt>
      <trkpt lat="45.11594" lon="3.88312">
        <ele>828</ele>
        <time>2016-04-27T10:20:04Z</time>
      </trkpt>
      <trkpt lat="45.11591" lon="3.88307">
        <ele>831</ele>
        <time>2016-04-27T10:20:13Z</time>
      </trkpt>
      <trkpt lat="45.11586" lon="3.88307">
        <ele>832</ele>
        <time>2016-04-27T10:20:18Z</time>
      </trkpt>
      <trkpt lat="45.11577" lon="3.88303">
        <ele>833</ele>
        <time>2016-04-27T10:20:30Z</time>
      </trkpt>
      <trkpt lat="45.11569" lon="3.88297">
        <ele>833</ele>
        <time>2016-04-27T10:20:40Z</time>
      </trkpt>
      <trkpt lat="45.11566" lon="3.88292">
        <ele>833</ele>
        <time>2016-04-27T10:20:45Z</time>
      </trkpt>
      <trkpt lat="45.11537" lon="3.88261">
        <ele>834</ele>
        <time>2016-04-27T10:21:27Z</time>
      </trkpt>
      <trkpt lat="45.115" lon="3.88242">
        <ele>834</ele>
        <time>2016-04-27T10:22:02Z</time>
      </trkpt>
      <trkpt lat="45.11466" lon="3.88219">
        <ele>835</ele>
        <time>2016-04-27T10:22:37Z</time>
      </trkpt>
      <trkpt lat="45.11418" lon="3.88151">
        <ele>845</ele>
        <time>2016-04-27T10:24:02Z</time>
      </trkpt>
      <trkpt lat="45.11413" lon="3.8815">
        <ele>845</ele>
        <time>2016-04-27T10:24:07Z</time>
      </trkpt>
      <trkpt lat="45.11405" lon="3.88144">
        <ele>846</ele>
        <time>2016-04-27T10:24:19Z</time>
      </trkpt>
      <trkpt lat="45.11403" lon="3.88138">
        <ele>847</ele>
        <time>2016-04-27T10:24:27Z</time>
      </trkpt>
      <trkpt lat="45.11395" lon="3.88132">
        <ele>850</ele>
        <time>2016-04-27T10:24:40Z</time>
      </trkpt>
      <trkpt lat="45.1139" lon="3.8813">
        <ele>851</ele>
        <time>2016-04-27T10:24:46Z</time>
      </trkpt>
      <trkpt lat="45.11374" lon="3.88147">
        <ele>852</ele>
        <time>2016-04-27T10:25:02Z</time>
      </trkpt>
      <trkpt lat="45.11352" lon="3.88163">
        <ele>852</ele>
        <time>2016-04-27T10:25:36Z</time>
      </trkpt>
      <trkpt lat="45.11323" lon="3.88189">
        <ele>851</ele>
        <time>2016-04-27T10:26:09Z</time>
      </trkpt>
      <trkpt lat="45.11318" lon="3.88192">
        <ele>852</ele>
        <time>2016-04-27T10:26:14Z</time>
      </trkpt>
      <trkpt lat="45.1127" lon="3.88249">
        <ele>855</ele>
        <time>2016-04-27T10:27:17Z</time>
      </trkpt>
      <trkpt lat="45.11235" lon="3.88255">
        <ele>855</ele>
        <time>2016-04-27T10:27:48Z</time>
      </trkpt>
      <trkpt lat="45.11196" lon="3.88254">
        <ele>856</ele>
        <time>2016-04-27T10:28:46Z</time>
      </trkpt>
      <trkpt lat="45.11125" lon="3.88291">
        <ele>851</ele>
        <time>2016-04-27T10:29:57Z</time>
      </trkpt>
      <trkpt lat="45.11022" lon="3.88317">
        <ele>844</ele>
        <time>2016-04-27T10:31:32Z</time>
      </trkpt>
      <trkpt lat="45.11017" lon="3.88321">
        <ele>843</ele>
        <time>2016-04-27T10:31:36Z</time>
      </trkpt>
      <trkpt lat="45.10947" lon="3.88329">
        <ele>839</ele>
        <time>2016-04-27T10:32:43Z</time>
      </trkpt>
      <trkpt lat="45.10881" lon="3.88294">
        <ele>838</ele>
        <time>2016-04-27T10:33:45Z</time>
      </trkpt>
      <trkpt lat="45.10847" lon="3.88279">
        <ele>837</ele>
        <time>2016-04-27T10:34:19Z</time>
      </trkpt>
      <trkpt lat="45.10783" lon="3.88224">
        <ele>836</ele>
        <time>2016-04-27T10:35:24Z</time>
      </trkpt>
      <trkpt lat="45.10712" lon="3.88206">
        <ele>838</ele>
        <time>2016-04-27T10:36:28Z</time>
      </trkpt>
      <trkpt lat="45.10651" lon="3.88156">
        <ele>837</ele>
        <time>2016-04-27T10:37:28Z</time>
      </trkpt>
      <trkpt lat="45.10647" lon="3.8816">
        <ele>837</ele>
        <time>2016-04-27T10:37:32Z</time>
      </trkpt>
      <trkpt lat="45.10624" lon="3.88188">
        <ele>837</ele>
        <time>2016-04-27T10:38:02Z</time>
      </trkpt>
      <trkpt lat="45.10594" lon="3.8821">
        <ele>837</ele>
        <time>2016-04-27T10:38:36Z</time>
      </trkpt>
      <trkpt lat="45.10556" lon="3.88223">
        <ele>837</ele>
        <time>2016-04-27T10:39:09Z</time>
      </trkpt>
      <trkpt lat="45.10522" lon="3.8825">
        <ele>837</ele>
        <time>2016-04-27T10:39:47Z</time>
      </trkpt>
      <trkpt lat="45.10488" lon="3.88253">
        <ele>834</ele>
        <time>2016-04-27T10:40:18Z</time>
      </trkpt>
      <trkpt lat="45.10406" lon="3.88272">
        <ele>829</ele>
        <time>2016-04-27T10:41:28Z</time>
      </trkpt>
      <trkpt lat="45.10399" lon="3.8828">
        <ele>829</ele>
        <time>2016-04-27T10:41:36Z</time>
      </trkpt>
      <trkpt lat="45.10388" lon="3.88401">
        <ele>825</ele>
        <time>2016-04-27T10:42:51Z</time>
      </trkpt>
      <trkpt lat="45.10379" lon="3.88449">
        <ele>824</ele>
        <time>2016-04-27T10:43:26Z</time>
      </trkpt>
      <trkpt lat="45.10382" lon="3.88462">
        <ele>823</ele>
        <time>2016-04-27T10:43:35Z</time>
      </trkpt>
      <trkpt lat="45.10386" lon="3.88468">
        <ele>823</ele>
        <time>2016-04-27T10:43:45Z</time>
      </trkpt>
      <trkpt lat="45.10402" lon="3.88504">
        <ele>820</ele>
        <time>2016-04-27T10:44:12Z</time>
      </trkpt>
      <trkpt lat="45.10406" lon="3.88601">
        <ele>811</ele>
        <time>2016-04-27T10:45:17Z</time>
      </trkpt>
      <trkpt lat="45.10404" lon="3.88643">
        <ele>809</ele>
        <time>2016-04-27T10:45:48Z</time>
      </trkpt>
      <trkpt lat="45.10396" lon="3.88669">
        <ele>806</ele>
        <time>2016-04-27T10:46:10Z</time>
      </trkpt>
      <trkpt lat="45.10393" lon="3.88671">
        <ele>805</ele>
        <time>2016-04-27T10:46:18Z</time>
      </trkpt>
      <trkpt lat="45.10389" lon="3.88672">
        <ele>806</ele>
        <time>2016-04-27T10:46:32Z</time>
      </trkpt>
      <trkpt lat="45.10373" lon="3.88667">
        <ele>803</ele>
        <time>2016-04-27T10:47:04Z</time>
      </trkpt>
      <trkpt lat="45.10345" lon="3.88655">
        <ele>798</ele>
        <time>2016-04-27T10:47:39Z</time>
      </trkpt>
      <trkpt lat="45.10311" lon="3.8865">
        <ele>794</ele>
        <time>2016-04-27T10:48:13Z</time>
      </trkpt>
      <trkpt lat="45.103" lon="3.8865">
        <ele>793</ele>
        <time>2016-04-27T10:48:23Z</time>
      </trkpt>
      <trkpt lat="45.10281" lon="3.88628">
        <ele>788</ele>
        <time>2016-04-27T10:48:55Z</time>
      </trkpt>
      <trkpt lat="45.10261" lon="3.88612">
        <ele>784</ele>
        <time>2016-04-27T10:49:30Z</time>
      </trkpt>
      <trkpt lat="45.10242" lon="3.88591">
        <ele>781</ele>
        <time>2016-04-27T10:50:01Z</time>
      </trkpt>
      <trkpt lat="45.10238" lon="3.88589">
        <ele>780</ele>
        <time>2016-04-27T10:50:10Z</time>
      </trkpt>
      <trkpt lat="45.10235" lon="3.88584">
        <ele>780</ele>
        <time>2016-04-27T10:50:18Z</time>
      </trkpt>
      <trkpt lat="45.10204" lon="3.88547">
        <ele>774</ele>
        <time>2016-04-27T10:51:10Z</time>
      </trkpt>
      <trkpt lat="45.10182" lon="3.88502">
        <ele>773</ele>
        <time>2016-04-27T10:52:08Z</time>
      </trkpt>
      <trkpt lat="45.10163" lon="3.88479">
        <ele>769</ele>
        <time>2016-04-27T10:52:39Z</time>
      </trkpt>
      <trkpt lat="45.10159" lon="3.88475">
        <ele>768</ele>
        <time>2016-04-27T10:52:44Z</time>
      </trkpt>
      <trkpt lat="45.10157" lon="3.88471">
        <ele>768</ele>
        <time>2016-04-27T10:52:55Z</time>
      </trkpt>
      <trkpt lat="45.10153" lon="3.88468">
        <ele>767</ele>
        <time>2016-04-27T10:53:14Z</time>
      </trkpt>
      <trkpt lat="45.10151" lon="3.88462">
        <ele>767</ele>
        <time>2016-04-27T10:53:20Z</time>
      </trkpt>
      <trkpt lat="45.10147" lon="3.88459">
        <ele>765</ele>
        <time>2016-04-27T10:53:29Z</time>
      </trkpt>
      <trkpt lat="45.10137" lon="3.88446">
        <ele>762</ele>
        <time>2016-04-27T10:53:54Z</time>
      </trkpt>
      <trkpt lat="45.10135" lon="3.88443">
        <ele>762</ele>
        <time>2016-04-27T10:54:55Z</time>
      </trkpt>
      <trkpt lat="45.10131" lon="3.88438">
        <ele>762</ele>
        <time>2016-04-27T10:55:03Z</time>
      </trkpt>
      <trkpt lat="45.10122" lon="3.88435">
        <ele>760</ele>
        <time>2016-04-27T10:55:14Z</time>
      </trkpt>
      <trkpt lat="45.10076" lon="3.88385">
        <ele>747</ele>
        <time>2016-04-27T10:56:20Z</time>
      </trkpt>
      <trkpt lat="45.10069" lon="3.88338">
        <ele>741</ele>
        <time>2016-04-27T10:56:53Z</time>
      </trkpt>
      <trkpt lat="45.10042" lon="3.88241">
        <ele>737</ele>
        <time>2016-04-27T10:58:00Z</time>
      </trkpt>
      <trkpt lat="45.10042" lon="3.88236">
        <ele>737</ele>
        <time>2016-04-27T10:58:54Z</time>
      </trkpt>
      <trkpt lat="45.10046" lon="3.88231">
        <ele>737</ele>
        <time>2016-04-27T10:58:59Z</time>
      </trkpt>
      <trkpt lat="45.10046" lon="3.88224">
        <ele>737</ele>
        <time>2016-04-27T10:59:06Z</time>
      </trkpt>
      <trkpt lat="45.10037" lon="3.88127">
        <ele>731</ele>
        <time>2016-04-27T11:00:11Z</time>
      </trkpt>
      <trkpt lat="45.10038" lon="3.88078">
        <ele>730</ele>
        <time>2016-04-27T11:00:42Z</time>
      </trkpt>
      <trkpt lat="45.10055" lon="3.87966">
        <ele>725</ele>
        <time>2016-04-27T11:01:56Z</time>
      </trkpt>
      <trkpt lat="45.10027" lon="3.87914">
        <ele>723</ele>
        <time>2016-04-27T11:02:34Z</time>
      </trkpt>
      <trkpt lat="45.10023" lon="3.879">
        <ele>723</ele>
        <time>2016-04-27T11:02:43Z</time>
      </trkpt>
      <trkpt lat="45.10021" lon="3.87886">
        <ele>722</ele>
        <time>2016-04-27T11:02:52Z</time>
      </trkpt>
      <trkpt lat="45.09968" lon="3.87803">
        <ele>711</ele>
        <time>2016-04-27T11:04:11Z</time>
      </trkpt>
      <trkpt lat="45.09933" lon="3.87792">
        <ele>705</ele>
        <time>2016-04-27T11:04:46Z</time>
      </trkpt>
      <trkpt lat="45.09901" lon="3.87772">
        <ele>696</ele>
        <time>2016-04-27T11:05:17Z</time>
      </trkpt>
      <trkpt lat="45.09878" lon="3.87735">
        <ele>691</ele>
        <time>2016-04-27T11:05:49Z</time>
      </trkpt>
      <trkpt lat="45.09859" lon="3.87689">
        <ele>688</ele>
        <time>2016-04-27T11:06:23Z</time>
      </trkpt>
      <trkpt lat="45.09839" lon="3.87649">
        <ele>685</ele>
        <time>2016-04-27T11:06:55Z</time>
      </trkpt>
      <trkpt lat="45.09831" lon="3.87641">
        <ele>685</ele>
        <time>2016-04-27T11:07:04Z</time>
      </trkpt>
      <trkpt lat="45.09731" lon="3.87572">
        <ele>676</ele>
        <time>2016-04-27T11:08:41Z</time>
      </trkpt>
      <trkpt lat="45.09695" lon="3.87574">
        <ele>674</ele>
        <time>2016-04-27T11:09:13Z</time>
      </trkpt>
      <trkpt lat="45.09656" lon="3.87582">
        <ele>673</ele>
        <time>2016-04-27T11:09:46Z</time>
      </trkpt>
      <trkpt lat="45.09643" lon="3.87571">
        <ele>672</ele>
        <time>2016-04-27T11:10:00Z</time>
      </trkpt>
      <trkpt lat="45.09639" lon="3.87551">
        <ele>671</ele>
        <time>2016-04-27T11:10:13Z</time>
      </trkpt>
      <trkpt lat="45.09663" lon="3.87453">
        <ele>669</ele>
        <time>2016-04-27T11:11:16Z</time>
      </trkpt>
      <trkpt lat="45.09666" lon="3.87431">
        <ele>669</ele>
        <time>2016-04-27T11:11:32Z</time>
      </trkpt>
      <trkpt lat="45.09663" lon="3.87425">
        <ele>669</ele>
        <time>2016-04-27T11:11:37Z</time>
      </trkpt>
      <trkpt lat="45.09641" lon="3.87386">
        <ele>665</ele>
        <time>2016-04-27T11:12:09Z</time>
      </trkpt>
      <trkpt lat="45.09522" lon="3.87253">
        <ele>652</ele>
        <time>2016-04-27T11:14:20Z</time>
      </trkpt>
      <trkpt lat="45.09505" lon="3.87209">
        <ele>649</ele>
        <time>2016-04-27T11:14:50Z</time>
      </trkpt>
      <trkpt lat="45.09479" lon="3.87167">
        <ele>647</ele>
        <time>2016-04-27T11:15:23Z</time>
      </trkpt>
      <trkpt lat="45.0945" lon="3.8713">
        <ele>645</ele>
        <time>2016-04-27T11:15:55Z</time>
      </trkpt>
      <trkpt lat="45.09401" lon="3.87045">
        <ele>642</ele>
        <time>2016-04-27T11:17:01Z</time>
      </trkpt>
      <trkpt lat="45.09372" lon="3.87017">
        <ele>640</ele>
        <time>2016-04-27T11:17:33Z</time>
      </trkpt>
      <trkpt lat="45.09349" lon="3.87005">
        <ele>640</ele>
        <time>2016-04-27T11:18:03Z</time>
      </trkpt>
      <trkpt lat="45.09318" lon="3.86981">
        <ele>640</ele>
        <time>2016-04-27T11:18:35Z</time>
      </trkpt>
      <trkpt lat="45.093" lon="3.86949">
        <ele>642</ele>
        <time>2016-04-27T11:19:02Z</time>
      </trkpt>
      <trkpt lat="45.09298" lon="3.86868">
        <ele>644</ele>
        <time>2016-04-27T11:20:05Z</time>
      </trkpt>
      <trkpt lat="45.09308" lon="3.86805">
        <ele>645</ele>
        <time>2016-04-27T11:20:42Z</time>
      </trkpt>
      <trkpt lat="45.0931" lon="3.86749">
        <ele>647</ele>
        <time>2016-04-27T11:21:15Z</time>
      </trkpt>
      <trkpt lat="45.09307" lon="3.86735">
        <ele>647</ele>
        <time>2016-04-27T11:21:23Z</time>
      </trkpt>
      <trkpt lat="45.09304" lon="3.86721">
        <ele>646</ele>
        <time>2016-04-27T11:21:32Z</time>
      </trkpt>
      <trkpt lat="45.09286" lon="3.86675">
        <ele>648</ele>
        <time>2016-04-27T11:22:05Z</time>
      </trkpt>
      <trkpt lat="45.09281" lon="3.86672">
        <ele>648</ele>
        <time>2016-04-27T11:22:09Z</time>
      </trkpt>
      <trkpt lat="45.09272" lon="3.86673">
        <ele>648</ele>
        <time>2016-04-27T11:22:17Z</time>
      </trkpt>
      <trkpt lat="45.09266" lon="3.86674">
        <ele>648</ele>
        <time>2016-04-27T11:22:22Z</time>
      </trkpt>
      <trkpt lat="45.09259" lon="3.86682">
        <ele>648</ele>
        <time>2016-04-27T11:22:30Z</time>
      </trkpt>
      <trkpt lat="45.09254" lon="3.86694">
        <ele>647</ele>
        <time>2016-04-27T11:22:39Z</time>
      </trkpt>
      <trkpt lat="45.09248" lon="3.86704">
        <ele>647</ele>
        <time>2016-04-27T11:22:48Z</time>
      </trkpt>
      <trkpt lat="45.09246" lon="3.86708">
        <ele>647</ele>
        <time>2016-04-27T11:23:05Z</time>
      </trkpt>
      <trkpt lat="45.09241" lon="3.86711">
        <ele>647</ele>
        <time>2016-04-27T11:23:13Z</time>
      </trkpt>
      <trkpt lat="45.09231" lon="3.86712">
        <ele>647</ele>
        <time>2016-04-27T11:23:22Z</time>
      </trkpt>
      <trkpt lat="45.09226" lon="3.86711">
        <ele>647</ele>
        <time>2016-04-27T11:23:27Z</time>
      </trkpt>
      <trkpt lat="45.09216" lon="3.86705">
        <ele>650</ele>
        <time>2016-04-27T11:23:36Z</time>
      </trkpt>
      <trkpt lat="45.09198" lon="3.86683">
        <ele>650</ele>
        <time>2016-04-27T11:23:57Z</time>
      </trkpt>
      <trkpt lat="45.09181" lon="3.8663">
        <ele>652</ele>
        <time>2016-04-27T11:24:34Z</time>
      </trkpt>
      <trkpt lat="45.09167" lon="3.86612">
        <ele>654</ele>
        <time>2016-04-27T11:24:51Z</time>
      </trkpt>
      <trkpt lat="45.09163" lon="3.86611">
        <ele>654</ele>
        <time>2016-04-27T11:24:59Z</time>
      </trkpt>
      <trkpt lat="45.09158" lon="3.86608">
        <ele>654</ele>
        <time>2016-04-27T11:25:18Z</time>
      </trkpt>
      <trkpt lat="45.09115" lon="3.86587">
        <ele>656</ele>
        <time>2016-04-27T11:26:08Z</time>
      </trkpt>
      <trkpt lat="45.0911" lon="3.86584">
        <ele>657</ele>
        <time>2016-04-27T11:26:12Z</time>
      </trkpt>
      <trkpt lat="45.09086" lon="3.86573">
        <ele>657</ele>
        <time>2016-04-27T11:26:36Z</time>
      </trkpt>
      <trkpt lat="45.09014" lon="3.86528">
        <ele>663</ele>
        <time>2016-04-27T11:27:44Z</time>
      </trkpt>
      <trkpt lat="45.09009" lon="3.86526">
        <ele>663</ele>
        <time>2016-04-27T11:27:49Z</time>
      </trkpt>
      <trkpt lat="45.08975" lon="3.86505">
        <ele>664</ele>
        <time>2016-04-27T11:28:22Z</time>
      </trkpt>
      <trkpt lat="45.08931" lon="3.86454">
        <ele>667</ele>
        <time>2016-04-27T11:29:22Z</time>
      </trkpt>
      <trkpt lat="45.08885" lon="3.86412">
        <ele>669</ele>
        <time>2016-04-27T11:30:18Z</time>
      </trkpt>
      <trkpt lat="45.08762" lon="3.86325">
        <ele>669</ele>
        <time>2016-04-27T11:32:31Z</time>
      </trkpt>
      <trkpt lat="45.08758" lon="3.86321">
        <ele>670</ele>
        <time>2016-04-27T11:32:36Z</time>
      </trkpt>
      <trkpt lat="45.08725" lon="3.86301">
        <ele>670</ele>
        <time>2016-04-27T11:33:09Z</time>
      </trkpt>
      <trkpt lat="45.08686" lon="3.86282">
        <ele>671</ele>
        <time>2016-04-27T11:34:39Z</time>
      </trkpt>
      <trkpt lat="45.08682" lon="3.86278">
        <ele>670</ele>
        <time>2016-04-27T11:34:43Z</time>
      </trkpt>
      <trkpt lat="45.08599" lon="3.86227">
        <ele>667</ele>
        <time>2016-04-27T11:36:00Z</time>
      </trkpt>
      <trkpt lat="45.08565" lon="3.86212">
        <ele>666</ele>
        <time>2016-04-27T11:36:31Z</time>
      </trkpt>
      <trkpt lat="45.08555" lon="3.86209">
        <ele>666</ele>
        <time>2016-04-27T11:36:40Z</time>
      </trkpt>
      <trkpt lat="45.08523" lon="3.86193">
        <ele>666</ele>
        <time>2016-04-27T11:37:10Z</time>
      </trkpt>
      <trkpt lat="45.08489" lon="3.86183">
        <ele>667</ele>
        <time>2016-04-27T11:37:41Z</time>
      </trkpt>
      <trkpt lat="45.08451" lon="3.86168">
        <ele>667</ele>
        <time>2016-04-27T11:38:36Z</time>
      </trkpt>
      <trkpt lat="45.08441" lon="3.86166">
        <ele>668</ele>
        <time>2016-04-27T11:38:50Z</time>
      </trkpt>
      <trkpt lat="45.08429" lon="3.86161">
        <ele>670</ele>
        <time>2016-04-27T11:39:24Z</time>
      </trkpt>
      <trkpt lat="45.0842" lon="3.86159">
        <ele>669</ele>
        <time>2016-04-27T11:39:34Z</time>
      </trkpt>
      <trkpt lat="45.08415" lon="3.86159">
        <ele>669</ele>
        <time>2016-04-27T11:39:40Z</time>
      </trkpt>
      <trkpt lat="45.08412" lon="3.86158">
        <ele>669</ele>
        <time>2016-04-27T11:39:48Z</time>
      </trkpt>
      <trkpt lat="45.08408" lon="3.86158">
        <ele>669</ele>
        <time>2016-04-27T11:40:37Z</time>
      </trkpt>
      <trkpt lat="45.08409" lon="3.86154">
        <ele>668</ele>
        <time>2016-04-27T11:47:46Z</time>
      </trkpt>
      <trkpt lat="45.08412" lon="3.86154">
        <ele>668</ele>
        <time>2016-04-27T11:48:53Z</time>
      </trkpt>
      <trkpt lat="45.08409" lon="3.86153">
        <ele>667</ele>
        <time>2016-04-27T11:51:43Z</time>
      </trkpt>
      <trkpt lat="45.08408" lon="3.86155">
        <ele>667</ele>
        <time>2016-04-27T11:53:19Z</time>
      </trkpt>
      <trkpt lat="45.08411" lon="3.86156">
        <ele>667</ele>
        <time>2016-04-27T11:56:19Z</time>
      </trkpt>
      <trkpt lat="45.08408" lon="3.86155">
        <ele>669</ele>
        <time>2016-04-27T12:07:36Z</time>
      </trkpt>
      <trkpt lat="45.08407" lon="3.86159">
        <ele>670</ele>
        <time>2016-04-27T12:16:25Z</time>
      </trkpt>
      <trkpt lat="45.08409" lon="3.86156">
        <ele>668</ele>
        <time>2016-04-27T12:31:39Z</time>
      </trkpt>
      <trkpt lat="45.08408" lon="3.86154">
        <ele>668</ele>
        <time>2016-04-27T12:35:09Z</time>
      </trkpt>
      <trkpt lat="45.08395" lon="3.86145">
        <ele>666</ele>
        <time>2016-04-27T12:35:40Z</time>
      </trkpt>
      <trkpt lat="45.08389" lon="3.86145">
        <ele>666</ele>
        <time>2016-04-27T12:35:54Z</time>
      </trkpt>
      <trkpt lat="45.08379" lon="3.86144">
        <ele>669</ele>
        <time>2016-04-27T12:36:04Z</time>
      </trkpt>
      <trkpt lat="45.08335" lon="3.86129">
        <ele>670</ele>
        <time>2016-04-27T12:36:48Z</time>
      </trkpt>
      <trkpt lat="45.08326" lon="3.86125">
        <ele>669</ele>
        <time>2016-04-27T12:36:57Z</time>
      </trkpt>
      <trkpt lat="45.08287" lon="3.86114">
        <ele>671</ele>
        <time>2016-04-27T12:37:31Z</time>
      </trkpt>
      <trkpt lat="45.08276" lon="3.86112">
        <ele>671</ele>
        <time>2016-04-27T12:37:41Z</time>
      </trkpt>
      <trkpt lat="45.08195" lon="3.86125">
        <ele>674</ele>
        <time>2016-04-27T12:38:50Z</time>
      </trkpt>
      <trkpt lat="45.08181" lon="3.86125">
        <ele>675</ele>
        <time>2016-04-27T12:39:03Z</time>
      </trkpt>
      <trkpt lat="45.08175" lon="3.86126">
        <ele>674</ele>
        <time>2016-04-27T12:39:09Z</time>
      </trkpt>
      <trkpt lat="45.0817" lon="3.86128">
        <ele>674</ele>
        <time>2016-04-27T12:39:14Z</time>
      </trkpt>
      <trkpt lat="45.08166" lon="3.86127">
        <ele>673</ele>
        <time>2016-04-27T12:39:22Z</time>
      </trkpt>
      <trkpt lat="45.0816" lon="3.8613">
        <ele>673</ele>
        <time>2016-04-27T12:39:27Z</time>
      </trkpt>
      <trkpt lat="45.08151" lon="3.86131">
        <ele>669</ele>
        <time>2016-04-27T12:39:41Z</time>
      </trkpt>
      <trkpt lat="45.08149" lon="3.86138">
        <ele>668</ele>
        <time>2016-04-27T12:40:25Z</time>
      </trkpt>
      <trkpt lat="45.0814" lon="3.86142">
        <ele>668</ele>
        <time>2016-04-27T12:40:34Z</time>
      </trkpt>
      <trkpt lat="45.08121" lon="3.86148">
        <ele>668</ele>
        <time>2016-04-27T12:40:55Z</time>
      </trkpt>
      <trkpt lat="45.08091" lon="3.86165">
        <ele>669</ele>
        <time>2016-04-27T12:41:22Z</time>
      </trkpt>
      <trkpt lat="45.08063" lon="3.86177">
        <ele>674</ele>
        <time>2016-04-27T12:41:48Z</time>
      </trkpt>
      <trkpt lat="45.08053" lon="3.86178">
        <ele>673</ele>
        <time>2016-04-27T12:41:56Z</time>
      </trkpt>
      <trkpt lat="45.08038" lon="3.86177">
        <ele>677</ele>
        <time>2016-04-27T12:42:09Z</time>
      </trkpt>
      <trkpt lat="45.08023" lon="3.86179">
        <ele>678</ele>
        <time>2016-04-27T12:42:23Z</time>
      </trkpt>
      <trkpt lat="45.08014" lon="3.86184">
        <ele>677</ele>
        <time>2016-04-27T12:42:36Z</time>
      </trkpt>
      <trkpt lat="45.07944" lon="3.86237">
        <ele>677</ele>
        <time>2016-04-27T12:43:52Z</time>
      </trkpt>
      <trkpt lat="45.07926" lon="3.86252">
        <ele>677</ele>
        <time>2016-04-27T12:44:12Z</time>
      </trkpt>
      <trkpt lat="45.07921" lon="3.86254">
        <ele>677</ele>
        <time>2016-04-27T12:44:18Z</time>
      </trkpt>
      <trkpt lat="45.07914" lon="3.86263">
        <ele>678</ele>
        <time>2016-04-27T12:44:38Z</time>
      </trkpt>
      <trkpt lat="45.07874" lon="3.8629">
        <ele>680</ele>
        <time>2016-04-27T12:45:19Z</time>
      </trkpt>
      <trkpt lat="45.0784" lon="3.86301">
        <ele>681</ele>
        <time>2016-04-27T12:45:52Z</time>
      </trkpt>
      <trkpt lat="45.07794" lon="3.8629">
        <ele>680</ele>
        <time>2016-04-27T12:46:41Z</time>
      </trkpt>
      <trkpt lat="45.0779" lon="3.86289">
        <ele>680</ele>
        <time>2016-04-27T12:46:51Z</time>
      </trkpt>
      <trkpt lat="45.07775" lon="3.86291">
        <ele>679</ele>
        <time>2016-04-27T12:47:07Z</time>
      </trkpt>
      <trkpt lat="45.07765" lon="3.86291">
        <ele>679</ele>
        <time>2016-04-27T12:47:17Z</time>
      </trkpt>
      <trkpt lat="45.07734" lon="3.86294">
        <ele>684</ele>
        <time>2016-04-27T12:47:47Z</time>
      </trkpt>
      <trkpt lat="45.07702" lon="3.86316">
        <ele>689</ele>
        <time>2016-04-27T12:48:20Z</time>
      </trkpt>
      <trkpt lat="45.07691" lon="3.86321">
        <ele>684</ele>
        <time>2016-04-27T12:48:45Z</time>
      </trkpt>
      <trkpt lat="45.07599" lon="3.86413">
        <ele>685</ele>
        <time>2016-04-27T12:50:28Z</time>
      </trkpt>
      <trkpt lat="45.07575" lon="3.86424">
        <ele>685</ele>
        <time>2016-04-27T12:50:52Z</time>
      </trkpt>
      <trkpt lat="45.07551" lon="3.86414">
        <ele>683</ele>
        <time>2016-04-27T12:51:16Z</time>
      </trkpt>
      <trkpt lat="45.07389" lon="3.86259">
        <ele>680</ele>
        <time>2016-04-27T12:54:23Z</time>
      </trkpt>
      <trkpt lat="45.07354" lon="3.86239">
        <ele>685</ele>
        <time>2016-04-27T12:55:06Z</time>
      </trkpt>
      <trkpt lat="45.07297" lon="3.86194">
        <ele>693</ele>
        <time>2016-04-27T12:56:14Z</time>
      </trkpt>
      <trkpt lat="45.07293" lon="3.86191">
        <ele>694</ele>
        <time>2016-04-27T12:56:19Z</time>
      </trkpt>
      <trkpt lat="45.07277" lon="3.86175">
        <ele>697</ele>
        <time>2016-04-27T12:56:50Z</time>
      </trkpt>
      <trkpt lat="45.07264" lon="3.86168">
        <ele>701</ele>
        <time>2016-04-27T12:57:15Z</time>
      </trkpt>
      <trkpt lat="45.07254" lon="3.86162">
        <ele>702</ele>
        <time>2016-04-27T12:57:27Z</time>
      </trkpt>
      <trkpt lat="45.07249" lon="3.86156">
        <ele>701</ele>
        <time>2016-04-27T12:57:44Z</time>
      </trkpt>
      <trkpt lat="45.07245" lon="3.86152">
        <ele>701</ele>
        <time>2016-04-27T12:57:51Z</time>
      </trkpt>
      <trkpt lat="45.07238" lon="3.86149">
        <ele>702</ele>
        <time>2016-04-27T12:58:46Z</time>
      </trkpt>
      <trkpt lat="45.07223" lon="3.86133">
        <ele>706</ele>
        <time>2016-04-27T12:59:13Z</time>
      </trkpt>
      <trkpt lat="45.0722" lon="3.8612">
        <ele>709</ele>
        <time>2016-04-27T12:59:30Z</time>
      </trkpt>
      <trkpt lat="45.0722" lon="3.86085">
        <ele>714</ele>
        <time>2016-04-27T13:00:36Z</time>
      </trkpt>
      <trkpt lat="45.07217" lon="3.86079">
        <ele>715</ele>
        <time>2016-04-27T13:00:44Z</time>
      </trkpt>
      <trkpt lat="45.07214" lon="3.86075">
        <ele>716</ele>
        <time>2016-04-27T13:00:51Z</time>
      </trkpt>
      <trkpt lat="45.07211" lon="3.86061">
        <ele>721</ele>
        <time>2016-04-27T13:01:13Z</time>
      </trkpt>
      <trkpt lat="45.07207" lon="3.86063">
        <ele>724</ele>
        <time>2016-04-27T13:01:26Z</time>
      </trkpt>
      <trkpt lat="45.07184" lon="3.86064">
        <ele>734</ele>
        <time>2016-04-27T13:02:12Z</time>
      </trkpt>
      <trkpt lat="45.07179" lon="3.86063">
        <ele>734</ele>
        <time>2016-04-27T13:02:31Z</time>
      </trkpt>
      <trkpt lat="45.07155" lon="3.86055">
        <ele>741</ele>
        <time>2016-04-27T13:03:01Z</time>
      </trkpt>
      <trkpt lat="45.07151" lon="3.86052">
        <ele>742</ele>
        <time>2016-04-27T13:03:07Z</time>
      </trkpt>
      <trkpt lat="45.07148" lon="3.86047">
        <ele>742</ele>
        <time>2016-04-27T13:03:29Z</time>
      </trkpt>
      <trkpt lat="45.0714" lon="3.8604">
        <ele>744</ele>
        <time>2016-04-27T13:03:43Z</time>
      </trkpt>
      <trkpt lat="45.07135" lon="3.86039">
        <ele>744</ele>
        <time>2016-04-27T13:03:49Z</time>
      </trkpt>
      <trkpt lat="45.0713" lon="3.86038">
        <ele>746</ele>
        <time>2016-04-27T13:03:54Z</time>
      </trkpt>
      <trkpt lat="45.07125" lon="3.86041">
        <ele>746</ele>
        <time>2016-04-27T13:04:01Z</time>
      </trkpt>
      <trkpt lat="45.07117" lon="3.86048">
        <ele>748</ele>
        <time>2016-04-27T13:04:10Z</time>
      </trkpt>
      <trkpt lat="45.07108" lon="3.86045">
        <ele>750</ele>
        <time>2016-04-27T13:04:18Z</time>
      </trkpt>
      <trkpt lat="45.07104" lon="3.86041">
        <ele>750</ele>
        <time>2016-04-27T13:04:22Z</time>
      </trkpt>
      <trkpt lat="45.07096" lon="3.86042">
        <ele>751</ele>
        <time>2016-04-27T13:04:51Z</time>
      </trkpt>
      <trkpt lat="45.07092" lon="3.86039">
        <ele>749</ele>
        <time>2016-04-27T13:04:58Z</time>
      </trkpt>
      <trkpt lat="45.07088" lon="3.86035">
        <ele>749</ele>
        <time>2016-04-27T13:05:04Z</time>
      </trkpt>
      <trkpt lat="45.07091" lon="3.86031">
        <ele>749</ele>
        <time>2016-04-27T13:05:13Z</time>
      </trkpt>
      <trkpt lat="45.07091" lon="3.86017">
        <ele>750</ele>
        <time>2016-04-27T13:05:30Z</time>
      </trkpt>
      <trkpt lat="45.07095" lon="3.86014">
        <ele>750</ele>
        <time>2016-04-27T13:05:39Z</time>
      </trkpt>
      <trkpt lat="45.07098" lon="3.86014">
        <ele>750</ele>
        <time>2016-04-27T13:05:46Z</time>
      </trkpt>
      <trkpt lat="45.07101" lon="3.86008">
        <ele>749</ele>
        <time>2016-04-27T13:05:57Z</time>
      </trkpt>
      <trkpt lat="45.07105" lon="3.85988">
        <ele>750</ele>
        <time>2016-04-27T13:06:09Z</time>
      </trkpt>
      <trkpt lat="45.07111" lon="3.85987">
        <ele>750</ele>
        <time>2016-04-27T13:06:14Z</time>
      </trkpt>
      <trkpt lat="45.07113" lon="3.85981">
        <ele>750</ele>
        <time>2016-04-27T13:06:19Z</time>
      </trkpt>
      <trkpt lat="45.07112" lon="3.85967">
        <ele>748</ele>
        <time>2016-04-27T13:06:50Z</time>
      </trkpt>
      <trkpt lat="45.07109" lon="3.85961">
        <ele>748</ele>
        <time>2016-04-27T13:06:56Z</time>
      </trkpt>
      <trkpt lat="45.07105" lon="3.85981">
        <ele>749</ele>
        <time>2016-04-27T13:09:23Z</time>
      </trkpt>
      <trkpt lat="45.07116" lon="3.8598">
        <ele>749</ele>
        <time>2016-04-27T13:10:32Z</time>
      </trkpt>
      <trkpt lat="45.07117" lon="3.85988">
        <ele>752</ele>
        <time>2016-04-27T13:10:50Z</time>
      </trkpt>
      <trkpt lat="45.07107" lon="3.85963">
        <ele>747</ele>
        <time>2016-04-27T13:26:17Z</time>
      </trkpt>
      <trkpt lat="45.07124" lon="3.85974">
        <ele>746</ele>
        <time>2016-04-27T13:30:27Z</time>
      </trkpt>
      <trkpt lat="45.07124" lon="3.85972">
        <ele>747</ele>
        <time>2016-04-27T13:30:38Z</time>
      </trkpt>
      <trkpt lat="45.07114" lon="3.85977">
        <ele>747</ele>
        <time>2016-04-27T13:30:45Z</time>
      </trkpt>
      <trkpt lat="45.0711" lon="3.8598">
        <ele>748</ele>
        <time>2016-04-27T13:30:55Z</time>
      </trkpt>
      <trkpt lat="45.07107" lon="3.85985">
        <ele>748</ele>
        <time>2016-04-27T13:30:59Z</time>
      </trkpt>
      <trkpt lat="45.07103" lon="3.85981">
        <ele>749</ele>
        <time>2016-04-27T13:31:03Z</time>
      </trkpt>
      <trkpt lat="45.07101" lon="3.85983">
        <ele>751</ele>
        <time>2016-04-27T13:32:16Z</time>
      </trkpt>
      <trkpt lat="45.07102" lon="3.85987">
        <ele>752</ele>
        <time>2016-04-27T13:32:36Z</time>
      </trkpt>
      <trkpt lat="45.07103" lon="3.86002">
        <ele>752</ele>
        <time>2016-04-27T13:32:45Z</time>
      </trkpt>
      <trkpt lat="45.071" lon="3.86015">
        <ele>751</ele>
        <time>2016-04-27T13:32:52Z</time>
      </trkpt>
      <trkpt lat="45.07094" lon="3.86027">
        <ele>752</ele>
        <time>2016-04-27T13:33:01Z</time>
      </trkpt>
      <trkpt lat="45.07083" lon="3.8604">
        <ele>750</ele>
        <time>2016-04-27T13:33:13Z</time>
      </trkpt>
      <trkpt lat="45.07061" lon="3.86052">
        <ele>747</ele>
        <time>2016-04-27T13:33:35Z</time>
      </trkpt>
      <trkpt lat="45.07061" lon="3.86058">
        <ele>747</ele>
        <time>2016-04-27T13:33:39Z</time>
      </trkpt>
      <trkpt lat="45.07064" lon="3.86086">
        <ele>745</ele>
        <time>2016-04-27T13:33:55Z</time>
      </trkpt>
      <trkpt lat="45.07055" lon="3.86111">
        <ele>745</ele>
        <time>2016-04-27T13:34:14Z</time>
      </trkpt>
      <trkpt lat="45.07046" lon="3.86129">
        <ele>745</ele>
        <time>2016-04-27T13:34:30Z</time>
      </trkpt>
      <trkpt lat="45.07021" lon="3.86162">
        <ele>744</ele>
        <time>2016-04-27T13:35:01Z</time>
      </trkpt>
      <trkpt lat="45.07008" lon="3.86173">
        <ele>743</ele>
        <time>2016-04-27T13:35:17Z</time>
      </trkpt>
      <trkpt lat="45.07008" lon="3.86179">
        <ele>743</ele>
        <time>2016-04-27T13:35:41Z</time>
      </trkpt>
      <trkpt lat="45.07009" lon="3.86186">
        <ele>743</ele>
        <time>2016-04-27T13:35:45Z</time>
      </trkpt>
      <trkpt lat="45.07006" lon="3.86199">
        <ele>742</ele>
        <time>2016-04-27T13:35:54Z</time>
      </trkpt>
      <trkpt lat="45.06999" lon="3.86214">
        <ele>737</ele>
        <time>2016-04-27T13:36:19Z</time>
      </trkpt>
      <trkpt lat="45.06991" lon="3.86224">
        <ele>736</ele>
        <time>2016-04-27T13:36:29Z</time>
      </trkpt>
      <trkpt lat="45.06987" lon="3.86227">
        <ele>735</ele>
        <time>2016-04-27T13:36:35Z</time>
      </trkpt>
      <trkpt lat="45.06971" lon="3.86253">
        <ele>733</ele>
        <time>2016-04-27T13:36:57Z</time>
      </trkpt>
      <trkpt lat="45.06951" lon="3.86255">
        <ele>731</ele>
        <time>2016-04-27T13:37:16Z</time>
      </trkpt>
      <trkpt lat="45.06931" lon="3.86252">
        <ele>730</ele>
        <time>2016-04-27T13:37:33Z</time>
      </trkpt>
      <trkpt lat="45.06927" lon="3.86255">
        <ele>730</ele>
        <time>2016-04-27T13:37:38Z</time>
      </trkpt>
      <trkpt lat="45.06918" lon="3.86262">
        <ele>729</ele>
        <time>2016-04-27T13:37:50Z</time>
      </trkpt>
      <trkpt lat="45.06916" lon="3.86266">
        <ele>729</ele>
        <time>2016-04-27T13:38:07Z</time>
      </trkpt>
      <trkpt lat="45.06911" lon="3.86268">
        <ele>731</ele>
        <time>2016-04-27T13:38:12Z</time>
      </trkpt>
      <trkpt lat="45.06896" lon="3.86269">
        <ele>732</ele>
        <time>2016-04-27T13:38:24Z</time>
      </trkpt>
      <trkpt lat="45.06891" lon="3.86268">
        <ele>732</ele>
        <time>2016-04-27T13:38:29Z</time>
      </trkpt>
      <trkpt lat="45.06887" lon="3.8627">
        <ele>732</ele>
        <time>2016-04-27T13:38:33Z</time>
      </trkpt>
      <trkpt lat="45.06883" lon="3.86274">
        <ele>731</ele>
        <time>2016-04-27T13:38:39Z</time>
      </trkpt>
      <trkpt lat="45.06878" lon="3.86275">
        <ele>731</ele>
        <time>2016-04-27T13:38:45Z</time>
      </trkpt>
      <trkpt lat="45.06875" lon="3.86278">
        <ele>730</ele>
        <time>2016-04-27T13:38:52Z</time>
      </trkpt>
      <trkpt lat="45.06874" lon="3.86283">
        <ele>728</ele>
        <time>2016-04-27T13:39:04Z</time>
      </trkpt>
      <trkpt lat="45.06867" lon="3.86291">
        <ele>725</ele>
        <time>2016-04-27T13:39:17Z</time>
      </trkpt>
      <trkpt lat="45.06866" lon="3.86298">
        <ele>724</ele>
        <time>2016-04-27T13:39:22Z</time>
      </trkpt>
      <trkpt lat="45.06866" lon="3.86304">
        <ele>723</ele>
        <time>2016-04-27T13:39:26Z</time>
      </trkpt>
      <trkpt lat="45.06864" lon="3.8631">
        <ele>722</ele>
        <time>2016-04-27T13:39:33Z</time>
      </trkpt>
      <trkpt lat="45.0686" lon="3.86314">
        <ele>721</ele>
        <time>2016-04-27T13:40:09Z</time>
      </trkpt>
      <trkpt lat="45.06845" lon="3.86354">
        <ele>717</ele>
        <time>2016-04-27T13:40:48Z</time>
      </trkpt>
      <trkpt lat="45.06839" lon="3.86402">
        <ele>709</ele>
        <time>2016-04-27T13:41:29Z</time>
      </trkpt>
      <trkpt lat="45.06835" lon="3.86406">
        <ele>709</ele>
        <time>2016-04-27T13:41:34Z</time>
      </trkpt>
      <trkpt lat="45.06821" lon="3.86409">
        <ele>708</ele>
        <time>2016-04-27T13:41:47Z</time>
      </trkpt>
      <trkpt lat="45.06815" lon="3.86413">
        <ele>706</ele>
        <time>2016-04-27T13:42:00Z</time>
      </trkpt>
      <trkpt lat="45.06813" lon="3.86419">
        <ele>706</ele>
        <time>2016-04-27T13:42:05Z</time>
      </trkpt>
      <trkpt lat="45.06815" lon="3.86426">
        <ele>704</ele>
        <time>2016-04-27T13:42:12Z</time>
      </trkpt>
      <trkpt lat="45.06818" lon="3.86431">
        <ele>704</ele>
        <time>2016-04-27T13:42:17Z</time>
      </trkpt>
      <trkpt lat="45.0682" lon="3.86437">
        <ele>703</ele>
        <time>2016-04-27T13:42:24Z</time>
      </trkpt>
      <trkpt lat="45.06842" lon="3.86494">
        <ele>698</ele>
        <time>2016-04-27T13:43:09Z</time>
      </trkpt>
      <trkpt lat="45.06841" lon="3.86501">
        <ele>698</ele>
        <time>2016-04-27T13:43:14Z</time>
      </trkpt>
      <trkpt lat="45.06833" lon="3.8653">
        <ele>695</ele>
        <time>2016-04-27T13:43:41Z</time>
      </trkpt>
      <trkpt lat="45.06819" lon="3.86606">
        <ele>691</ele>
        <time>2016-04-27T13:44:36Z</time>
      </trkpt>
      <trkpt lat="45.06816" lon="3.86611">
        <ele>690</ele>
        <time>2016-04-27T13:44:43Z</time>
      </trkpt>
      <trkpt lat="45.06723" lon="3.87039">
        <ele>690</ele>
        <time>2016-04-27T13:50:40Z</time>
      </trkpt>
      <trkpt lat="45.06722" lon="3.87046">
        <ele>691</ele>
        <time>2016-04-27T13:50:45Z</time>
      </trkpt>
      <trkpt lat="45.06716" lon="3.87067">
        <ele>691</ele>
        <time>2016-04-27T13:51:00Z</time>
      </trkpt>
      <trkpt lat="45.06693" lon="3.87103">
        <ele>690</ele>
        <time>2016-04-27T13:51:30Z</time>
      </trkpt>
      <trkpt lat="45.06674" lon="3.87152">
        <ele>689</ele>
        <time>2016-04-27T13:52:04Z</time>
      </trkpt>
      <trkpt lat="45.06623" lon="3.87359">
        <ele>681</ele>
        <time>2016-04-27T13:54:26Z</time>
      </trkpt>
      <trkpt lat="45.06573" lon="3.87463">
        <ele>674</ele>
        <time>2016-04-27T13:55:43Z</time>
      </trkpt>
      <trkpt lat="45.06564" lon="3.87495">
        <ele>672</ele>
        <time>2016-04-27T13:56:06Z</time>
      </trkpt>
      <trkpt lat="45.06573" lon="3.87564">
        <ele>669</ele>
        <time>2016-04-27T13:56:50Z</time>
      </trkpt>
      <trkpt lat="45.06571" lon="3.8757">
        <ele>669</ele>
        <time>2016-04-27T13:56:54Z</time>
      </trkpt>
      <trkpt lat="45.06566" lon="3.87574">
        <ele>668</ele>
        <time>2016-04-27T13:56:58Z</time>
      </trkpt>
      <trkpt lat="45.06507" lon="3.8757">
        <ele>668</ele>
        <time>2016-04-27T13:57:56Z</time>
      </trkpt>
      <trkpt lat="45.06503" lon="3.8757">
        <ele>668</ele>
        <time>2016-04-27T13:58:14Z</time>
      </trkpt>
      <trkpt lat="45.06478" lon="3.87561">
        <ele>666</ele>
        <time>2016-04-27T13:58:34Z</time>
      </trkpt>
      <trkpt lat="45.06465" lon="3.87559">
        <ele>667</ele>
        <time>2016-04-27T13:58:47Z</time>
      </trkpt>
      <trkpt lat="45.06461" lon="3.87562">
        <ele>668</ele>
        <time>2016-04-27T13:59:10Z</time>
      </trkpt>
      <trkpt lat="45.06451" lon="3.87563">
        <ele>667</ele>
        <time>2016-04-27T13:59:18Z</time>
      </trkpt>
      <trkpt lat="45.06446" lon="3.87563">
        <ele>667</ele>
        <time>2016-04-27T13:59:22Z</time>
      </trkpt>
      <trkpt lat="45.06442" lon="3.87561">
        <ele>667</ele>
        <time>2016-04-27T13:59:27Z</time>
      </trkpt>
      <trkpt lat="45.06437" lon="3.87564">
        <ele>667</ele>
        <time>2016-04-27T13:59:46Z</time>
      </trkpt>
      <trkpt lat="45.06433" lon="3.87569">
        <ele>667</ele>
        <time>2016-04-27T13:59:51Z</time>
      </trkpt>
      <trkpt lat="45.06431" lon="3.87576">
        <ele>667</ele>
        <time>2016-04-27T13:59:55Z</time>
      </trkpt>
      <trkpt lat="45.06428" lon="3.87581">
        <ele>667</ele>
        <time>2016-04-27T13:59:59Z</time>
      </trkpt>
      <trkpt lat="45.06408" lon="3.87588">
        <ele>669</ele>
        <time>2016-04-27T14:00:18Z</time>
      </trkpt>
      <trkpt lat="45.06376" lon="3.87592">
        <ele>672</ele>
        <time>2016-04-27T14:00:50Z</time>
      </trkpt>
      <trkpt lat="45.06367" lon="3.87592">
        <ele>674</ele>
        <time>2016-04-27T14:01:03Z</time>
      </trkpt>
      <trkpt lat="45.06336" lon="3.876">
        <ele>677</ele>
        <time>2016-04-27T14:01:36Z</time>
      </trkpt>
      <trkpt lat="45.06331" lon="3.87602">
        <ele>677</ele>
        <time>2016-04-27T14:01:41Z</time>
      </trkpt>
      <trkpt lat="45.06312" lon="3.87615">
        <ele>680</ele>
        <time>2016-04-27T14:02:03Z</time>
      </trkpt>
      <trkpt lat="45.06266" lon="3.87606">
        <ele>687</ele>
        <time>2016-04-27T14:03:22Z</time>
      </trkpt>
      <trkpt lat="45.06236" lon="3.87592">
        <ele>689</ele>
        <time>2016-04-27T14:03:51Z</time>
      </trkpt>
      <trkpt lat="45.06231" lon="3.87589">
        <ele>690</ele>
        <time>2016-04-27T14:03:56Z</time>
      </trkpt>
      <trkpt lat="45.06206" lon="3.87588">
        <ele>692</ele>
        <time>2016-04-27T14:04:23Z</time>
      </trkpt>
      <trkpt lat="45.0615" lon="3.87623">
        <ele>695</ele>
        <time>2016-04-27T14:05:33Z</time>
      </trkpt>
      <trkpt lat="45.06124" lon="3.87642">
        <ele>698</ele>
        <time>2016-04-27T14:06:04Z</time>
      </trkpt>
      <trkpt lat="45.06116" lon="3.87651">
        <ele>699</ele>
        <time>2016-04-27T14:06:14Z</time>
      </trkpt>
      <trkpt lat="45.06112" lon="3.87652">
        <ele>699</ele>
        <time>2016-04-27T14:06:19Z</time>
      </trkpt>
      <trkpt lat="45.06089" lon="3.87663">
        <ele>703</ele>
        <time>2016-04-27T14:06:51Z</time>
      </trkpt>
      <trkpt lat="45.06067" lon="3.87667">
        <ele>709</ele>
        <time>2016-04-27T14:07:35Z</time>
      </trkpt>
      <trkpt lat="45.06062" lon="3.87666">
        <ele>710</ele>
        <time>2016-04-27T14:07:41Z</time>
      </trkpt>
      <trkpt lat="45.06048" lon="3.8766">
        <ele>717</ele>
        <time>2016-04-27T14:08:13Z</time>
      </trkpt>
      <trkpt lat="45.06033" lon="3.87664">
        <ele>721</ele>
        <time>2016-04-27T14:08:35Z</time>
      </trkpt>
      <trkpt lat="45.06014" lon="3.87665">
        <ele>726</ele>
        <time>2016-04-27T14:09:00Z</time>
      </trkpt>
      <trkpt lat="45.05992" lon="3.8768">
        <ele>730</ele>
        <time>2016-04-27T14:09:30Z</time>
      </trkpt>
      <trkpt lat="45.05971" lon="3.87688">
        <ele>733</ele>
        <time>2016-04-27T14:10:12Z</time>
      </trkpt>
      <trkpt lat="45.05961" lon="3.8769">
        <ele>734</ele>
        <time>2016-04-27T14:10:24Z</time>
      </trkpt>
      <trkpt lat="45.05955" lon="3.87694">
        <ele>734</ele>
        <time>2016-04-27T14:11:31Z</time>
      </trkpt>
      <trkpt lat="45.0591" lon="3.87747">
        <ele>734</ele>
        <time>2016-04-27T14:12:27Z</time>
      </trkpt>
      <trkpt lat="45.05907" lon="3.87752">
        <ele>734</ele>
        <time>2016-04-27T14:12:44Z</time>
      </trkpt>
      <trkpt lat="45.05889" lon="3.87769">
        <ele>732</ele>
        <time>2016-04-27T14:13:09Z</time>
      </trkpt>
      <trkpt lat="45.05876" lon="3.8778">
        <ele>731</ele>
        <time>2016-04-27T14:13:23Z</time>
      </trkpt>
      <trkpt lat="45.05837" lon="3.87769">
        <ele>731</ele>
        <time>2016-04-27T14:13:56Z</time>
      </trkpt>
      <trkpt lat="45.05832" lon="3.87769">
        <ele>731</ele>
        <time>2016-04-27T14:14:00Z</time>
      </trkpt>
      <trkpt lat="45.05827" lon="3.87767">
        <ele>731</ele>
        <time>2016-04-27T14:14:06Z</time>
      </trkpt>
      <trkpt lat="45.05823" lon="3.87766">
        <ele>729</ele>
        <time>2016-04-27T14:14:16Z</time>
      </trkpt>
      <trkpt lat="45.05821" lon="3.87768">
        <ele>729</ele>
        <time>2016-04-27T14:14:23Z</time>
      </trkpt>
      <trkpt lat="45.05803" lon="3.87777">
        <ele>720</ele>
        <time>2016-04-27T14:15:18Z</time>
      </trkpt>
      <trkpt lat="45.05789" lon="3.87782">
        <ele>717</ele>
        <time>2016-04-27T14:15:36Z</time>
      </trkpt>
      <trkpt lat="45.05789" lon="3.87812">
        <ele>715</ele>
        <time>2016-04-27T14:15:58Z</time>
      </trkpt>
      <trkpt lat="45.05769" lon="3.87853">
        <ele>711</ele>
        <time>2016-04-27T14:16:31Z</time>
      </trkpt>
      <trkpt lat="45.05745" lon="3.87881">
        <ele>709</ele>
        <time>2016-04-27T14:16:54Z</time>
      </trkpt>
      <trkpt lat="45.0574" lon="3.87879">
        <ele>708</ele>
        <time>2016-04-27T14:16:59Z</time>
      </trkpt>
      <trkpt lat="45.05739" lon="3.87873">
        <ele>708</ele>
        <time>2016-04-27T14:17:04Z</time>
      </trkpt>
      <trkpt lat="45.05739" lon="3.87823">
        <ele>704</ele>
        <time>2016-04-27T14:17:37Z</time>
      </trkpt>
      <trkpt lat="45.05737" lon="3.87808">
        <ele>703</ele>
        <time>2016-04-27T14:17:49Z</time>
      </trkpt>
      <trkpt lat="45.05733" lon="3.87803">
        <ele>702</ele>
        <time>2016-04-27T14:17:54Z</time>
      </trkpt>
      <trkpt lat="45.05728" lon="3.878">
        <ele>702</ele>
        <time>2016-04-27T14:17:58Z</time>
      </trkpt>
      <trkpt lat="45.05725" lon="3.87805">
        <ele>701</ele>
        <time>2016-04-27T14:18:07Z</time>
      </trkpt>
      <trkpt lat="45.05726" lon="3.87813">
        <ele>700</ele>
        <time>2016-04-27T14:18:14Z</time>
      </trkpt>
      <trkpt lat="45.05722" lon="3.8784">
        <ele>697</ele>
        <time>2016-04-27T14:18:38Z</time>
      </trkpt>
      <trkpt lat="45.05718" lon="3.87843">
        <ele>697</ele>
        <time>2016-04-27T14:18:45Z</time>
      </trkpt>
      <trkpt lat="45.05693" lon="3.87843">
        <ele>692</ele>
        <time>2016-04-27T14:19:09Z</time>
      </trkpt>
      <trkpt lat="45.05689" lon="3.87839">
        <ele>690</ele>
        <time>2016-04-27T14:19:16Z</time>
      </trkpt>
      <trkpt lat="45.0567" lon="3.87839">
        <ele>692</ele>
        <time>2016-04-27T14:19:37Z</time>
      </trkpt>
      <trkpt lat="45.05668" lon="3.87834">
        <ele>693</ele>
        <time>2016-04-27T14:19:47Z</time>
      </trkpt>
      <trkpt lat="45.05663" lon="3.87835">
        <ele>693</ele>
        <time>2016-04-27T14:19:52Z</time>
      </trkpt>
      <trkpt lat="45.05658" lon="3.87835">
        <ele>692</ele>
        <time>2016-04-27T14:19:58Z</time>
      </trkpt>
      <trkpt lat="45.05653" lon="3.87836">
        <ele>692</ele>
        <time>2016-04-27T14:20:02Z</time>
      </trkpt>
      <trkpt lat="45.05649" lon="3.87834">
        <ele>693</ele>
        <time>2016-04-27T14:20:09Z</time>
      </trkpt>
      <trkpt lat="45.05641" lon="3.87826">
        <ele>692</ele>
        <time>2016-04-27T14:20:20Z</time>
      </trkpt>
      <trkpt lat="45.05613" lon="3.87839">
        <ele>676</ele>
        <time>2016-04-27T14:22:17Z</time>
      </trkpt>
      <trkpt lat="45.05588" lon="3.87843">
        <ele>673</ele>
        <time>2016-04-27T14:22:39Z</time>
      </trkpt>
      <trkpt lat="45.05582" lon="3.8785">
        <ele>674</ele>
        <time>2016-04-27T14:22:58Z</time>
      </trkpt>
      <trkpt lat="45.05575" lon="3.8787">
        <ele>673</ele>
        <time>2016-04-27T14:23:34Z</time>
      </trkpt>
      <trkpt lat="45.0557" lon="3.87874">
        <ele>672</ele>
        <time>2016-04-27T14:23:39Z</time>
      </trkpt>
      <trkpt lat="45.05566" lon="3.87876">
        <ele>671</ele>
        <time>2016-04-27T14:23:43Z</time>
      </trkpt>
      <trkpt lat="45.05563" lon="3.87881">
        <ele>670</ele>
        <time>2016-04-27T14:23:47Z</time>
      </trkpt>
      <trkpt lat="45.05561" lon="3.87887">
        <ele>669</ele>
        <time>2016-04-27T14:23:52Z</time>
      </trkpt>
      <trkpt lat="45.05555" lon="3.87895">
        <ele>667</ele>
        <time>2016-04-27T14:24:37Z</time>
      </trkpt>
      <trkpt lat="45.05548" lon="3.87913">
        <ele>662</ele>
        <time>2016-04-27T14:24:56Z</time>
      </trkpt>
      <trkpt lat="45.05544" lon="3.87914">
        <ele>661</ele>
        <time>2016-04-27T14:25:23Z</time>
      </trkpt>
      <trkpt lat="45.05543" lon="3.87915">
        <ele>659</ele>
        <time>2016-04-27T14:25:47Z</time>
      </trkpt>
      <trkpt lat="45.05546" lon="3.8792">
        <ele>659</ele>
        <time>2016-04-27T14:25:51Z</time>
      </trkpt>
      <trkpt lat="45.05547" lon="3.87934">
        <ele>658</ele>
        <time>2016-04-27T14:25:59Z</time>
      </trkpt>
      <trkpt lat="45.05546" lon="3.87942">
        <ele>658</ele>
        <time>2016-04-27T14:26:03Z</time>
      </trkpt>
      <trkpt lat="45.05524" lon="3.8799">
        <ele>657</ele>
        <time>2016-04-27T14:26:40Z</time>
      </trkpt>
      <trkpt lat="45.05517" lon="3.88001">
        <ele>657</ele>
        <time>2016-04-27T14:26:48Z</time>
      </trkpt>
      <trkpt lat="45.05512" lon="3.88003">
        <ele>658</ele>
        <time>2016-04-27T14:26:57Z</time>
      </trkpt>
      <trkpt lat="45.05485" lon="3.87979">
        <ele>655</ele>
        <time>2016-04-27T14:27:27Z</time>
      </trkpt>
      <trkpt lat="45.0548" lon="3.87978">
        <ele>654</ele>
        <time>2016-04-27T14:27:32Z</time>
      </trkpt>
      <trkpt lat="45.05476" lon="3.87983">
        <ele>654</ele>
        <time>2016-04-27T14:27:37Z</time>
      </trkpt>
      <trkpt lat="45.05454" lon="3.88003">
        <ele>646</ele>
        <time>2016-04-27T14:28:11Z</time>
      </trkpt>
      <trkpt lat="45.05419" lon="3.88017">
        <ele>641</ele>
        <time>2016-04-27T14:28:42Z</time>
      </trkpt>
      <trkpt lat="45.05387" lon="3.88024">
        <ele>638</ele>
        <time>2016-04-27T14:29:18Z</time>
      </trkpt>
      <trkpt lat="45.05353" lon="3.88026">
        <ele>634</ele>
        <time>2016-04-27T14:29:50Z</time>
      </trkpt>
      <trkpt lat="45.05329" lon="3.8802">
        <ele>631</ele>
        <time>2016-04-27T14:30:13Z</time>
      </trkpt>
      <trkpt lat="45.05326" lon="3.88026">
        <ele>630</ele>
        <time>2016-04-27T14:30:18Z</time>
      </trkpt>
      <trkpt lat="45.05321" lon="3.88027">
        <ele>630</ele>
        <time>2016-04-27T14:30:24Z</time>
      </trkpt>
      <trkpt lat="45.05289" lon="3.88045">
        <ele>627</ele>
        <time>2016-04-27T14:30:54Z</time>
      </trkpt>
      <trkpt lat="45.05258" lon="3.88071">
        <ele>623</ele>
        <time>2016-04-27T14:31:27Z</time>
      </trkpt>
      <trkpt lat="45.05255" lon="3.88076">
        <ele>623</ele>
        <time>2016-04-27T14:31:33Z</time>
      </trkpt>
      <trkpt lat="45.05248" lon="3.88094">
        <ele>622</ele>
        <time>2016-04-27T14:31:46Z</time>
      </trkpt>
      <trkpt lat="45.05246" lon="3.88105">
        <ele>620</ele>
        <time>2016-04-27T14:32:02Z</time>
      </trkpt>
      <trkpt lat="45.05243" lon="3.8811">
        <ele>620</ele>
        <time>2016-04-27T14:32:05Z</time>
      </trkpt>
      <trkpt lat="45.05236" lon="3.88121">
        <ele>619</ele>
        <time>2016-04-27T14:32:13Z</time>
      </trkpt>
      <trkpt lat="45.05231" lon="3.88132">
        <ele>618</ele>
        <time>2016-04-27T14:32:21Z</time>
      </trkpt>
      <trkpt lat="45.05227" lon="3.88136">
        <ele>619</ele>
        <time>2016-04-27T14:32:25Z</time>
      </trkpt>
      <trkpt lat="45.05223" lon="3.88139">
        <ele>619</ele>
        <time>2016-04-27T14:32:30Z</time>
      </trkpt>
      <trkpt lat="45.05107" lon="3.88192">
        <ele>615</ele>
        <time>2016-04-27T14:34:20Z</time>
      </trkpt>
      <trkpt lat="45.05098" lon="3.88199">
        <ele>613</ele>
        <time>2016-04-27T14:34:33Z</time>
      </trkpt>
      <trkpt lat="45.05089" lon="3.88207">
        <ele>615</ele>
        <time>2016-04-27T14:34:50Z</time>
      </trkpt>
      <trkpt lat="45.05083" lon="3.88219">
        <ele>613</ele>
        <time>2016-04-27T14:35:00Z</time>
      </trkpt>
      <trkpt lat="45.05085" lon="3.8824">
        <ele>611</ele>
        <time>2016-04-27T14:35:13Z</time>
      </trkpt>
      <trkpt lat="45.05084" lon="3.88247">
        <ele>611</ele>
        <time>2016-04-27T14:35:18Z</time>
      </trkpt>
      <trkpt lat="45.05076" lon="3.88246">
        <ele>611</ele>
        <time>2016-04-27T14:35:27Z</time>
      </trkpt>
      <trkpt lat="45.05071" lon="3.88248">
        <ele>611</ele>
        <time>2016-04-27T14:35:32Z</time>
      </trkpt>
      <trkpt lat="45.05067" lon="3.88254">
        <ele>612</ele>
        <time>2016-04-27T14:35:47Z</time>
      </trkpt>
      <trkpt lat="45.05068" lon="3.88261">
        <ele>612</ele>
        <time>2016-04-27T14:35:51Z</time>
      </trkpt>
      <trkpt lat="45.05064" lon="3.88303">
        <ele>612</ele>
        <time>2016-04-27T14:36:17Z</time>
      </trkpt>
      <trkpt lat="45.05062" lon="3.8831">
        <ele>612</ele>
        <time>2016-04-27T14:36:22Z</time>
      </trkpt>
      <trkpt lat="45.0504" lon="3.88346">
        <ele>612</ele>
        <time>2016-04-27T14:36:52Z</time>
      </trkpt>
      <trkpt lat="45.05043" lon="3.88344">
        <ele>613</ele>
        <time>2016-04-27T14:37:28Z</time>
      </trkpt>
      <trkpt lat="45.05036" lon="3.88346">
        <ele>613</ele>
        <time>2016-04-27T14:37:49Z</time>
      </trkpt>
      <trkpt lat="45.0503" lon="3.88347">
        <ele>613</ele>
        <time>2016-04-27T14:37:53Z</time>
      </trkpt>
      <trkpt lat="45.05015" lon="3.88351">
        <ele>614</ele>
        <time>2016-04-27T14:38:08Z</time>
      </trkpt>
      <trkpt lat="45.05" lon="3.88349">
        <ele>615</ele>
        <time>2016-04-27T14:38:22Z</time>
      </trkpt>
      <trkpt lat="45.04975" lon="3.88336">
        <ele>619</ele>
        <time>2016-04-27T14:39:01Z</time>
      </trkpt>
      <trkpt lat="45.04968" lon="3.88342">
        <ele>620</ele>
        <time>2016-04-27T14:39:17Z</time>
      </trkpt>
      <trkpt lat="45.04963" lon="3.8834">
        <ele>621</ele>
        <time>2016-04-27T14:39:24Z</time>
      </trkpt>
      <trkpt lat="45.04958" lon="3.88341">
        <ele>621</ele>
        <time>2016-04-27T14:39:33Z</time>
      </trkpt>
      <trkpt lat="45.04944" lon="3.88347">
        <ele>625</ele>
        <time>2016-04-27T14:39:51Z</time>
      </trkpt>
      <trkpt lat="45.04938" lon="3.88347">
        <ele>625</ele>
        <time>2016-04-27T14:39:57Z</time>
      </trkpt>
      <trkpt lat="45.04928" lon="3.88343">
        <ele>626</ele>
        <time>2016-04-27T14:40:07Z</time>
      </trkpt>
      <trkpt lat="45.04909" lon="3.88341">
        <ele>629</ele>
        <time>2016-04-27T14:40:32Z</time>
      </trkpt>
      <trkpt lat="45.04909" lon="3.88335">
        <ele>630</ele>
        <time>2016-04-27T14:40:48Z</time>
      </trkpt>
      <trkpt lat="45.04907" lon="3.88329">
        <ele>630</ele>
        <time>2016-04-27T14:40:53Z</time>
      </trkpt>
      <trkpt lat="45.04902" lon="3.88327">
        <ele>631</ele>
        <time>2016-04-27T14:41:05Z</time>
      </trkpt>
      <trkpt lat="45.04897" lon="3.88326">
        <ele>632</ele>
        <time>2016-04-27T14:41:12Z</time>
      </trkpt>
      <trkpt lat="45.04895" lon="3.88319">
        <ele>633</ele>
        <time>2016-04-27T14:41:18Z</time>
      </trkpt>
      <trkpt lat="45.04894" lon="3.88312">
        <ele>637</ele>
        <time>2016-04-27T14:41:28Z</time>
      </trkpt>
      <trkpt lat="45.04897" lon="3.88315">
        <ele>637</ele>
        <time>2016-04-27T14:41:41Z</time>
      </trkpt>
      <trkpt lat="45.04895" lon="3.88322">
        <ele>637</ele>
        <time>2016-04-27T14:41:46Z</time>
      </trkpt>
      <trkpt lat="45.04894" lon="3.8832">
        <ele>636</ele>
        <time>2016-04-27T14:42:14Z</time>
      </trkpt>
      <trkpt lat="45.04895" lon="3.88304">
        <ele>636</ele>
        <time>2016-04-27T14:42:24Z</time>
      </trkpt>
      <trkpt lat="45.04895" lon="3.88309">
        <ele>637</ele>
        <time>2016-04-27T14:43:06Z</time>
      </trkpt>
      <trkpt lat="45.04891" lon="3.88313">
        <ele>637</ele>
        <time>2016-04-27T14:43:10Z</time>
      </trkpt>
      <trkpt lat="45.04891" lon="3.8832">
        <ele>637</ele>
        <time>2016-04-27T14:43:14Z</time>
      </trkpt>
      <trkpt lat="45.04893" lon="3.88327">
        <ele>636</ele>
        <time>2016-04-27T14:43:18Z</time>
      </trkpt>
      <trkpt lat="45.04892" lon="3.88356">
        <ele>637</ele>
        <time>2016-04-27T14:43:35Z</time>
      </trkpt>
      <trkpt lat="45.04889" lon="3.88361">
        <ele>638</ele>
        <time>2016-04-27T14:43:39Z</time>
      </trkpt>
      <trkpt lat="45.0488" lon="3.88368">
        <ele>639</ele>
        <time>2016-04-27T14:43:48Z</time>
      </trkpt>
      <trkpt lat="45.04878" lon="3.88374">
        <ele>640</ele>
        <time>2016-04-27T14:43:54Z</time>
      </trkpt>
      <trkpt lat="45.04877" lon="3.88381">
        <ele>641</ele>
        <time>2016-04-27T14:44:00Z</time>
      </trkpt>
      <trkpt lat="45.04872" lon="3.88382">
        <ele>642</ele>
        <time>2016-04-27T14:44:09Z</time>
      </trkpt>
      <trkpt lat="45.04866" lon="3.88381">
        <ele>643</ele>
        <time>2016-04-27T14:44:22Z</time>
      </trkpt>
      <trkpt lat="45.04862" lon="3.88376">
        <ele>643</ele>
        <time>2016-04-27T14:44:27Z</time>
      </trkpt>
      <trkpt lat="45.04829" lon="3.88357">
        <ele>648</ele>
        <time>2016-04-27T14:45:02Z</time>
      </trkpt>
      <trkpt lat="45.04811" lon="3.88351">
        <ele>650</ele>
        <time>2016-04-27T14:45:27Z</time>
      </trkpt>
      <trkpt lat="45.04809" lon="3.88354">
        <ele>652</ele>
        <time>2016-04-27T14:45:49Z</time>
      </trkpt>
      <trkpt lat="45.04804" lon="3.88354">
        <ele>652</ele>
        <time>2016-04-27T14:46:05Z</time>
      </trkpt>
      <trkpt lat="45.04769" lon="3.88339">
        <ele>655</ele>
        <time>2016-04-27T14:46:39Z</time>
      </trkpt>
      <trkpt lat="45.04738" lon="3.8833">
        <ele>657</ele>
        <time>2016-04-27T14:47:07Z</time>
      </trkpt>
      <trkpt lat="45.04709" lon="3.88332">
        <ele>656</ele>
        <time>2016-04-27T14:47:34Z</time>
      </trkpt>
      <trkpt lat="45.04679" lon="3.88345">
        <ele>659</ele>
        <time>2016-04-27T14:48:06Z</time>
      </trkpt>
      <trkpt lat="45.04646" lon="3.88363">
        <ele>661</ele>
        <time>2016-04-27T14:48:37Z</time>
      </trkpt>
    </trkseg>
  </trk>
</gpx>